<?xml version="1.0" encoding="UTF-8" standalone="no" ?>
<gpx xmlns="http://www.topografix.com/GPX/1/1" xmlns:xsi="http://www.w3.org/2001/XMLSchema-instance" xsi:schemaLocation="http://www.topografix.com/GPX/1/1 http://www.topografix.com/GPX/1/1/gpx.xsd" version="1.1" creator="VisuGPX - https://www.visugpx.com">
  <metadata>
    <name>lundi 2015 06 08</name>
    <desc><![CDATA[rando du lundi]]></desc>
  </metadata>
  <trk>
    <name><![CDATA[08/06/2015 20:22]]></name>
    <desc><![CDATA[]]></desc>
    <trkseg>
      <trkpt lat="48.85746" lon="2.34694">
        <ele>85.6</ele>
        <time>2015-06-08T18:22:39.779Z</time>
      </trkpt>
      <trkpt lat="48.8574" lon="2.34691">
        <ele>86.4</ele>
        <time>2015-06-08T18:23:32.006Z</time>
      </trkpt>
      <trkpt lat="48.85737" lon="2.34691">
        <ele>86.6</ele>
        <time>2015-06-08T18:23:33.042Z</time>
      </trkpt>
      <trkpt lat="48.85729" lon="2.34691">
        <ele>86.6</ele>
        <time>2015-06-08T18:23:35.962Z</time>
      </trkpt>
      <trkpt lat="48.85726" lon="2.3469">
        <ele>86.7</ele>
        <time>2015-06-08T18:23:36.961Z</time>
      </trkpt>
      <trkpt lat="48.85719" lon="2.34689">
        <ele>86.8</ele>
        <time>2015-06-08T18:23:38.996Z</time>
      </trkpt>
      <trkpt lat="48.85716" lon="2.34689">
        <ele>86.8</ele>
        <time>2015-06-08T18:23:39.966Z</time>
      </trkpt>
      <trkpt lat="48.85709" lon="2.34687">
        <ele>86.8</ele>
        <time>2015-06-08T18:23:42.017Z</time>
      </trkpt>
      <trkpt lat="48.85706" lon="2.34685">
        <ele>87</ele>
        <time>2015-06-08T18:23:43.026Z</time>
      </trkpt>
      <trkpt lat="48.857" lon="2.34681">
        <ele>87</ele>
        <time>2015-06-08T18:23:44.948Z</time>
      </trkpt>
      <trkpt lat="48.85697" lon="2.34678">
        <ele>86.9</ele>
        <time>2015-06-08T18:23:45.980Z</time>
      </trkpt>
      <trkpt lat="48.85691" lon="2.34675">
        <ele>86.7</ele>
        <time>2015-06-08T18:23:48.000Z</time>
      </trkpt>
      <trkpt lat="48.85688" lon="2.34673">
        <ele>86.8</ele>
        <time>2015-06-08T18:23:49.014Z</time>
      </trkpt>
      <trkpt lat="48.85682" lon="2.34669">
        <ele>86.9</ele>
        <time>2015-06-08T18:23:50.969Z</time>
      </trkpt>
      <trkpt lat="48.85679" lon="2.34667">
        <ele>86.9</ele>
        <time>2015-06-08T18:23:51.995Z</time>
      </trkpt>
      <trkpt lat="48.85674" lon="2.34663">
        <ele>86.8</ele>
        <time>2015-06-08T18:23:53.961Z</time>
      </trkpt>
      <trkpt lat="48.85671" lon="2.34661">
        <ele>86.5</ele>
        <time>2015-06-08T18:23:55.003Z</time>
      </trkpt>
      <trkpt lat="48.85665" lon="2.34658">
        <ele>86.6</ele>
        <time>2015-06-08T18:23:56.959Z</time>
      </trkpt>
      <trkpt lat="48.85661" lon="2.34656">
        <ele>86.9</ele>
        <time>2015-06-08T18:23:58.030Z</time>
      </trkpt>
      <trkpt lat="48.85654" lon="2.34653">
        <ele>87.1</ele>
        <time>2015-06-08T18:23:59.952Z</time>
      </trkpt>
      <trkpt lat="48.85651" lon="2.3465">
        <ele>87.1</ele>
        <time>2015-06-08T18:24:00.971Z</time>
      </trkpt>
      <trkpt lat="48.85645" lon="2.34644">
        <ele>87.1</ele>
        <time>2015-06-08T18:24:02.997Z</time>
      </trkpt>
      <trkpt lat="48.85642" lon="2.34642">
        <ele>87</ele>
        <time>2015-06-08T18:24:04.002Z</time>
      </trkpt>
      <trkpt lat="48.85634" lon="2.34639">
        <ele>86.8</ele>
        <time>2015-06-08T18:24:08.053Z</time>
      </trkpt>
      <trkpt lat="48.85633" lon="2.34638">
        <ele>86.5</ele>
        <time>2015-06-08T18:24:08.959Z</time>
      </trkpt>
      <trkpt lat="48.85634" lon="2.34638">
        <ele>86.4</ele>
        <time>2015-06-08T18:24:09.976Z</time>
      </trkpt>
      <trkpt lat="48.85635" lon="2.34637">
        <ele>85.9</ele>
        <time>2015-06-08T18:24:23.980Z</time>
      </trkpt>
      <trkpt lat="48.85634" lon="2.34637">
        <ele>86</ele>
        <time>2015-06-08T18:24:25.001Z</time>
      </trkpt>
      <trkpt lat="48.85627" lon="2.34637">
        <ele>86.5</ele>
        <time>2015-06-08T18:24:30.023Z</time>
      </trkpt>
      <trkpt lat="48.85625" lon="2.34637">
        <ele>86.5</ele>
        <time>2015-06-08T18:24:31.066Z</time>
      </trkpt>
      <trkpt lat="48.85619" lon="2.34635">
        <ele>86.6</ele>
        <time>2015-06-08T18:24:33.994Z</time>
      </trkpt>
      <trkpt lat="48.85616" lon="2.34634">
        <ele>86.7</ele>
        <time>2015-06-08T18:24:35.013Z</time>
      </trkpt>
      <trkpt lat="48.85611" lon="2.34628">
        <ele>86.7</ele>
        <time>2015-06-08T18:24:36.944Z</time>
      </trkpt>
      <trkpt lat="48.85608" lon="2.34625">
        <ele>86.7</ele>
        <time>2015-06-08T18:24:37.985Z</time>
      </trkpt>
      <trkpt lat="48.85602" lon="2.3462">
        <ele>86.8</ele>
        <time>2015-06-08T18:24:39.902Z</time>
      </trkpt>
      <trkpt lat="48.85599" lon="2.34619">
        <ele>86.8</ele>
        <time>2015-06-08T18:24:40.958Z</time>
      </trkpt>
      <trkpt lat="48.85592" lon="2.34618">
        <ele>86.9</ele>
        <time>2015-06-08T18:24:44.041Z</time>
      </trkpt>
      <trkpt lat="48.85589" lon="2.34617">
        <ele>86.9</ele>
        <time>2015-06-08T18:24:44.931Z</time>
      </trkpt>
      <trkpt lat="48.85581" lon="2.34614">
        <ele>86.9</ele>
        <time>2015-06-08T18:24:47.974Z</time>
      </trkpt>
      <trkpt lat="48.85579" lon="2.34612">
        <ele>86.9</ele>
        <time>2015-06-08T18:24:49.005Z</time>
      </trkpt>
      <trkpt lat="48.85572" lon="2.34607">
        <ele>86.1</ele>
        <time>2015-06-08T18:24:50.946Z</time>
      </trkpt>
      <trkpt lat="48.85569" lon="2.34604">
        <ele>85.9</ele>
        <time>2015-06-08T18:24:52.013Z</time>
      </trkpt>
      <trkpt lat="48.85563" lon="2.34598">
        <ele>85.7</ele>
        <time>2015-06-08T18:24:53.946Z</time>
      </trkpt>
      <trkpt lat="48.85559" lon="2.34596">
        <ele>85.6</ele>
        <time>2015-06-08T18:24:54.969Z</time>
      </trkpt>
      <trkpt lat="48.85551" lon="2.34597">
        <ele>86.5</ele>
        <time>2015-06-08T18:24:56.982Z</time>
      </trkpt>
      <trkpt lat="48.85548" lon="2.346">
        <ele>87</ele>
        <time>2015-06-08T18:24:57.977Z</time>
      </trkpt>
      <trkpt lat="48.85545" lon="2.34613">
        <ele>87.4</ele>
        <time>2015-06-08T18:25:01.087Z</time>
      </trkpt>
      <trkpt lat="48.85544" lon="2.34616">
        <ele>87.5</ele>
        <time>2015-06-08T18:25:02.008Z</time>
      </trkpt>
      <trkpt lat="48.85541" lon="2.34629">
        <ele>88</ele>
        <time>2015-06-08T18:25:04.954Z</time>
      </trkpt>
      <trkpt lat="48.85541" lon="2.34632">
        <ele>88.1</ele>
        <time>2015-06-08T18:25:05.981Z</time>
      </trkpt>
      <trkpt lat="48.85539" lon="2.34645">
        <ele>88.7</ele>
        <time>2015-06-08T18:25:08.993Z</time>
      </trkpt>
      <trkpt lat="48.85537" lon="2.3465">
        <ele>89.1</ele>
        <time>2015-06-08T18:25:10.012Z</time>
      </trkpt>
      <trkpt lat="48.85534" lon="2.34659">
        <ele>89.7</ele>
        <time>2015-06-08T18:25:11.960Z</time>
      </trkpt>
      <trkpt lat="48.85533" lon="2.34664">
        <ele>90.1</ele>
        <time>2015-06-08T18:25:13.017Z</time>
      </trkpt>
      <trkpt lat="48.85529" lon="2.34672">
        <ele>90.9</ele>
        <time>2015-06-08T18:25:14.958Z</time>
      </trkpt>
      <trkpt lat="48.85527" lon="2.34676">
        <ele>91.4</ele>
        <time>2015-06-08T18:25:15.982Z</time>
      </trkpt>
      <trkpt lat="48.85522" lon="2.34685">
        <ele>92.1</ele>
        <time>2015-06-08T18:25:17.965Z</time>
      </trkpt>
      <trkpt lat="48.8552" lon="2.3469">
        <ele>92.5</ele>
        <time>2015-06-08T18:25:19.007Z</time>
      </trkpt>
      <trkpt lat="48.85516" lon="2.34699">
        <ele>92.9</ele>
        <time>2015-06-08T18:25:20.973Z</time>
      </trkpt>
      <trkpt lat="48.85514" lon="2.34704">
        <ele>93.1</ele>
        <time>2015-06-08T18:25:22.060Z</time>
      </trkpt>
      <trkpt lat="48.85507" lon="2.34712">
        <ele>94</ele>
        <time>2015-06-08T18:25:24.991Z</time>
      </trkpt>
      <trkpt lat="48.85505" lon="2.34715">
        <ele>94.2</ele>
        <time>2015-06-08T18:25:26.014Z</time>
      </trkpt>
      <trkpt lat="48.85499" lon="2.34724">
        <ele>94.5</ele>
        <time>2015-06-08T18:25:28.959Z</time>
      </trkpt>
      <trkpt lat="48.85497" lon="2.34727">
        <ele>94.6</ele>
        <time>2015-06-08T18:25:30.014Z</time>
      </trkpt>
      <trkpt lat="48.85491" lon="2.34736">
        <ele>94.8</ele>
        <time>2015-06-08T18:25:33.816Z</time>
      </trkpt>
      <trkpt lat="48.85489" lon="2.34738">
        <ele>94.9</ele>
        <time>2015-06-08T18:25:34.827Z</time>
      </trkpt>
      <trkpt lat="48.85483" lon="2.34747">
        <ele>95</ele>
        <time>2015-06-08T18:25:37.863Z</time>
      </trkpt>
      <trkpt lat="48.85482" lon="2.3475">
        <ele>95.1</ele>
        <time>2015-06-08T18:25:38.771Z</time>
      </trkpt>
      <trkpt lat="48.85477" lon="2.34759">
        <ele>94.9</ele>
        <time>2015-06-08T18:25:40.964Z</time>
      </trkpt>
      <trkpt lat="48.85476" lon="2.34762">
        <ele>94.9</ele>
        <time>2015-06-08T18:25:42.828Z</time>
      </trkpt>
      <trkpt lat="48.85468" lon="2.34765">
        <ele>94.7</ele>
        <time>2015-06-08T18:25:47.814Z</time>
      </trkpt>
      <trkpt lat="48.85466" lon="2.34764">
        <ele>94.5</ele>
        <time>2015-06-08T18:25:48.819Z</time>
      </trkpt>
      <trkpt lat="48.8546" lon="2.34762">
        <ele>94</ele>
        <time>2015-06-08T18:25:50.855Z</time>
      </trkpt>
      <trkpt lat="48.85457" lon="2.34761">
        <ele>93.8</ele>
        <time>2015-06-08T18:25:51.747Z</time>
      </trkpt>
      <trkpt lat="48.8545" lon="2.34758">
        <ele>93.1</ele>
        <time>2015-06-08T18:25:53.817Z</time>
      </trkpt>
      <trkpt lat="48.85447" lon="2.34756">
        <ele>93.2</ele>
        <time>2015-06-08T18:25:54.834Z</time>
      </trkpt>
      <trkpt lat="48.8544" lon="2.34754">
        <ele>93</ele>
        <time>2015-06-08T18:25:56.780Z</time>
      </trkpt>
      <trkpt lat="48.85436" lon="2.34753">
        <ele>92.9</ele>
        <time>2015-06-08T18:25:57.891Z</time>
      </trkpt>
      <trkpt lat="48.8543" lon="2.34749">
        <ele>92.5</ele>
        <time>2015-06-08T18:25:59.763Z</time>
      </trkpt>
      <trkpt lat="48.85427" lon="2.34747">
        <ele>92.5</ele>
        <time>2015-06-08T18:26:00.745Z</time>
      </trkpt>
      <trkpt lat="48.85421" lon="2.34744">
        <ele>92.3</ele>
        <time>2015-06-08T18:26:02.757Z</time>
      </trkpt>
      <trkpt lat="48.85418" lon="2.34743">
        <ele>92.3</ele>
        <time>2015-06-08T18:26:03.765Z</time>
      </trkpt>
      <trkpt lat="48.85412" lon="2.34743">
        <ele>92.1</ele>
        <time>2015-06-08T18:26:05.787Z</time>
      </trkpt>
      <trkpt lat="48.85409" lon="2.34745">
        <ele>91.8</ele>
        <time>2015-06-08T18:26:06.809Z</time>
      </trkpt>
      <trkpt lat="48.85403" lon="2.34755">
        <ele>92.1</ele>
        <time>2015-06-08T18:26:09.846Z</time>
      </trkpt>
      <trkpt lat="48.85402" lon="2.3476">
        <ele>92.1</ele>
        <time>2015-06-08T18:26:10.748Z</time>
      </trkpt>
      <trkpt lat="48.85399" lon="2.34769">
        <ele>92.1</ele>
        <time>2015-06-08T18:26:12.772Z</time>
      </trkpt>
      <trkpt lat="48.85398" lon="2.34774">
        <ele>92.1</ele>
        <time>2015-06-08T18:26:13.754Z</time>
      </trkpt>
      <trkpt lat="48.85395" lon="2.34784">
        <ele>92.3</ele>
        <time>2015-06-08T18:26:15.802Z</time>
      </trkpt>
      <trkpt lat="48.85393" lon="2.3479">
        <ele>92.3</ele>
        <time>2015-06-08T18:26:16.814Z</time>
      </trkpt>
      <trkpt lat="48.85392" lon="2.34797">
        <ele>92.5</ele>
        <time>2015-06-08T18:26:17.822Z</time>
      </trkpt>
      <trkpt lat="48.8539" lon="2.34803">
        <ele>92.7</ele>
        <time>2015-06-08T18:26:18.826Z</time>
      </trkpt>
      <trkpt lat="48.85388" lon="2.3481">
        <ele>92.5</ele>
        <time>2015-06-08T18:26:19.768Z</time>
      </trkpt>
      <trkpt lat="48.85386" lon="2.34816">
        <ele>92.5</ele>
        <time>2015-06-08T18:26:20.876Z</time>
      </trkpt>
      <trkpt lat="48.85382" lon="2.34828">
        <ele>92.7</ele>
        <time>2015-06-08T18:26:22.763Z</time>
      </trkpt>
      <trkpt lat="48.85381" lon="2.34834">
        <ele>92.8</ele>
        <time>2015-06-08T18:26:23.775Z</time>
      </trkpt>
      <trkpt lat="48.85379" lon="2.34841">
        <ele>93</ele>
        <time>2015-06-08T18:26:24.784Z</time>
      </trkpt>
      <trkpt lat="48.85377" lon="2.34849">
        <ele>93.1</ele>
        <time>2015-06-08T18:26:25.834Z</time>
      </trkpt>
      <trkpt lat="48.85375" lon="2.34856">
        <ele>93.2</ele>
        <time>2015-06-08T18:26:26.848Z</time>
      </trkpt>
      <trkpt lat="48.85373" lon="2.34864">
        <ele>93.3</ele>
        <time>2015-06-08T18:26:27.769Z</time>
      </trkpt>
      <trkpt lat="48.85371" lon="2.34872">
        <ele>93.4</ele>
        <time>2015-06-08T18:26:29.371Z</time>
      </trkpt>
      <trkpt lat="48.8537" lon="2.34879">
        <ele>93.5</ele>
        <time>2015-06-08T18:26:29.781Z</time>
      </trkpt>
      <trkpt lat="48.85368" lon="2.34887">
        <ele>93.5</ele>
        <time>2015-06-08T18:26:30.791Z</time>
      </trkpt>
      <trkpt lat="48.85367" lon="2.34895">
        <ele>93.6</ele>
        <time>2015-06-08T18:26:31.799Z</time>
      </trkpt>
      <trkpt lat="48.85365" lon="2.34903">
        <ele>93.7</ele>
        <time>2015-06-08T18:26:32.816Z</time>
      </trkpt>
      <trkpt lat="48.85363" lon="2.34911">
        <ele>93.8</ele>
        <time>2015-06-08T18:26:33.831Z</time>
      </trkpt>
      <trkpt lat="48.85361" lon="2.34918">
        <ele>93.9</ele>
        <time>2015-06-08T18:26:34.746Z</time>
      </trkpt>
      <trkpt lat="48.8536" lon="2.34924">
        <ele>94</ele>
        <time>2015-06-08T18:26:35.774Z</time>
      </trkpt>
      <trkpt lat="48.85358" lon="2.34938">
        <ele>94.4</ele>
        <time>2015-06-08T18:26:37.764Z</time>
      </trkpt>
      <trkpt lat="48.85357" lon="2.34945">
        <ele>94.6</ele>
        <time>2015-06-08T18:26:38.776Z</time>
      </trkpt>
      <trkpt lat="48.85356" lon="2.34953">
        <ele>94.7</ele>
        <time>2015-06-08T18:26:39.782Z</time>
      </trkpt>
      <trkpt lat="48.85353" lon="2.34962">
        <ele>94.8</ele>
        <time>2015-06-08T18:26:40.797Z</time>
      </trkpt>
      <trkpt lat="48.85351" lon="2.34971">
        <ele>94.8</ele>
        <time>2015-06-08T18:26:41.834Z</time>
      </trkpt>
      <trkpt lat="48.85347" lon="2.3498">
        <ele>94.9</ele>
        <time>2015-06-08T18:26:42.736Z</time>
      </trkpt>
      <trkpt lat="48.85345" lon="2.34989">
        <ele>94.8</ele>
        <time>2015-06-08T18:26:43.764Z</time>
      </trkpt>
      <trkpt lat="48.85342" lon="2.34998">
        <ele>95.1</ele>
        <time>2015-06-08T18:26:44.837Z</time>
      </trkpt>
      <trkpt lat="48.8534" lon="2.35006">
        <ele>95.2</ele>
        <time>2015-06-08T18:26:45.738Z</time>
      </trkpt>
      <trkpt lat="48.85338" lon="2.35014">
        <ele>95.4</ele>
        <time>2015-06-08T18:26:46.736Z</time>
      </trkpt>
      <trkpt lat="48.85335" lon="2.35022">
        <ele>95.5</ele>
        <time>2015-06-08T18:26:47.739Z</time>
      </trkpt>
      <trkpt lat="48.85332" lon="2.35029">
        <ele>95.6</ele>
        <time>2015-06-08T18:26:48.751Z</time>
      </trkpt>
      <trkpt lat="48.85331" lon="2.35036">
        <ele>95.5</ele>
        <time>2015-06-08T18:26:49.766Z</time>
      </trkpt>
      <trkpt lat="48.85328" lon="2.35044">
        <ele>95.3</ele>
        <time>2015-06-08T18:26:50.770Z</time>
      </trkpt>
      <trkpt lat="48.85326" lon="2.3505">
        <ele>95.3</ele>
        <time>2015-06-08T18:26:51.773Z</time>
      </trkpt>
      <trkpt lat="48.85324" lon="2.35058">
        <ele>95.4</ele>
        <time>2015-06-08T18:26:52.776Z</time>
      </trkpt>
      <trkpt lat="48.85323" lon="2.35065">
        <ele>95.5</ele>
        <time>2015-06-08T18:26:53.781Z</time>
      </trkpt>
      <trkpt lat="48.85321" lon="2.35072">
        <ele>95.5</ele>
        <time>2015-06-08T18:26:54.706Z</time>
      </trkpt>
      <trkpt lat="48.85319" lon="2.35078">
        <ele>95.6</ele>
        <time>2015-06-08T18:26:55.710Z</time>
      </trkpt>
      <trkpt lat="48.85316" lon="2.35085">
        <ele>95.5</ele>
        <time>2015-06-08T18:26:56.730Z</time>
      </trkpt>
      <trkpt lat="48.85313" lon="2.35092">
        <ele>95.7</ele>
        <time>2015-06-08T18:26:57.757Z</time>
      </trkpt>
      <trkpt lat="48.85311" lon="2.351">
        <ele>95.6</ele>
        <time>2015-06-08T18:26:58.764Z</time>
      </trkpt>
      <trkpt lat="48.85308" lon="2.35107">
        <ele>95.6</ele>
        <time>2015-06-08T18:26:59.774Z</time>
      </trkpt>
      <trkpt lat="48.85305" lon="2.35114">
        <ele>95.5</ele>
        <time>2015-06-08T18:27:00.779Z</time>
      </trkpt>
      <trkpt lat="48.85303" lon="2.35122">
        <ele>95.5</ele>
        <time>2015-06-08T18:27:01.788Z</time>
      </trkpt>
      <trkpt lat="48.85301" lon="2.3513">
        <ele>95.4</ele>
        <time>2015-06-08T18:27:02.799Z</time>
      </trkpt>
      <trkpt lat="48.85298" lon="2.35137">
        <ele>95.3</ele>
        <time>2015-06-08T18:27:03.818Z</time>
      </trkpt>
      <trkpt lat="48.85295" lon="2.35144">
        <ele>95.3</ele>
        <time>2015-06-08T18:27:04.827Z</time>
      </trkpt>
      <trkpt lat="48.85292" lon="2.35151">
        <ele>95</ele>
        <time>2015-06-08T18:27:05.836Z</time>
      </trkpt>
      <trkpt lat="48.8529" lon="2.35158">
        <ele>95.1</ele>
        <time>2015-06-08T18:27:06.729Z</time>
      </trkpt>
      <trkpt lat="48.85288" lon="2.35166">
        <ele>95.1</ele>
        <time>2015-06-08T18:27:07.748Z</time>
      </trkpt>
      <trkpt lat="48.85286" lon="2.35173">
        <ele>95</ele>
        <time>2015-06-08T18:27:08.770Z</time>
      </trkpt>
      <trkpt lat="48.85284" lon="2.3518">
        <ele>95</ele>
        <time>2015-06-08T18:27:09.783Z</time>
      </trkpt>
      <trkpt lat="48.85282" lon="2.35187">
        <ele>95.1</ele>
        <time>2015-06-08T18:27:10.794Z</time>
      </trkpt>
      <trkpt lat="48.8528" lon="2.35193">
        <ele>95.3</ele>
        <time>2015-06-08T18:27:11.834Z</time>
      </trkpt>
      <trkpt lat="48.85277" lon="2.35199">
        <ele>95.6</ele>
        <time>2015-06-08T18:27:12.754Z</time>
      </trkpt>
      <trkpt lat="48.85271" lon="2.35206">
        <ele>95.9</ele>
        <time>2015-06-08T18:27:14.804Z</time>
      </trkpt>
      <trkpt lat="48.85267" lon="2.35208">
        <ele>95.5</ele>
        <time>2015-06-08T18:27:15.820Z</time>
      </trkpt>
      <trkpt lat="48.85258" lon="2.35207">
        <ele>94.4</ele>
        <time>2015-06-08T18:27:17.762Z</time>
      </trkpt>
      <trkpt lat="48.85253" lon="2.35206">
        <ele>94.2</ele>
        <time>2015-06-08T18:27:18.779Z</time>
      </trkpt>
      <trkpt lat="48.85249" lon="2.35203">
        <ele>94.2</ele>
        <time>2015-06-08T18:27:19.757Z</time>
      </trkpt>
      <trkpt lat="48.85244" lon="2.35201">
        <ele>93.8</ele>
        <time>2015-06-08T18:27:20.777Z</time>
      </trkpt>
      <trkpt lat="48.85239" lon="2.35198">
        <ele>93.6</ele>
        <time>2015-06-08T18:27:21.767Z</time>
      </trkpt>
      <trkpt lat="48.85234" lon="2.35195">
        <ele>93.5</ele>
        <time>2015-06-08T18:27:22.778Z</time>
      </trkpt>
      <trkpt lat="48.85228" lon="2.35191">
        <ele>93.5</ele>
        <time>2015-06-08T18:27:23.788Z</time>
      </trkpt>
      <trkpt lat="48.85224" lon="2.35187">
        <ele>93.4</ele>
        <time>2015-06-08T18:27:24.807Z</time>
      </trkpt>
      <trkpt lat="48.85219" lon="2.35184">
        <ele>93.7</ele>
        <time>2015-06-08T18:27:25.823Z</time>
      </trkpt>
      <trkpt lat="48.85214" lon="2.35181">
        <ele>94</ele>
        <time>2015-06-08T18:27:26.827Z</time>
      </trkpt>
      <trkpt lat="48.8521" lon="2.35176">
        <ele>93.7</ele>
        <time>2015-06-08T18:27:27.835Z</time>
      </trkpt>
      <trkpt lat="48.85205" lon="2.35174">
        <ele>93.7</ele>
        <time>2015-06-08T18:27:28.843Z</time>
      </trkpt>
      <trkpt lat="48.85197" lon="2.35168">
        <ele>93.3</ele>
        <time>2015-06-08T18:27:30.749Z</time>
      </trkpt>
      <trkpt lat="48.85193" lon="2.35166">
        <ele>93.1</ele>
        <time>2015-06-08T18:27:31.797Z</time>
      </trkpt>
      <trkpt lat="48.85185" lon="2.35163">
        <ele>92.8</ele>
        <time>2015-06-08T18:27:33.834Z</time>
      </trkpt>
      <trkpt lat="48.85181" lon="2.35161">
        <ele>92.6</ele>
        <time>2015-06-08T18:27:34.740Z</time>
      </trkpt>
      <trkpt lat="48.85173" lon="2.35157">
        <ele>92.2</ele>
        <time>2015-06-08T18:27:36.778Z</time>
      </trkpt>
      <trkpt lat="48.85169" lon="2.35155">
        <ele>92</ele>
        <time>2015-06-08T18:27:37.787Z</time>
      </trkpt>
      <trkpt lat="48.85161" lon="2.35149">
        <ele>91.8</ele>
        <time>2015-06-08T18:27:39.820Z</time>
      </trkpt>
      <trkpt lat="48.85158" lon="2.35146">
        <ele>91.9</ele>
        <time>2015-06-08T18:27:40.754Z</time>
      </trkpt>
      <trkpt lat="48.85151" lon="2.3514">
        <ele>92.1</ele>
        <time>2015-06-08T18:27:42.766Z</time>
      </trkpt>
      <trkpt lat="48.85148" lon="2.35138">
        <ele>92.1</ele>
        <time>2015-06-08T18:27:43.786Z</time>
      </trkpt>
      <trkpt lat="48.85142" lon="2.35134">
        <ele>92.1</ele>
        <time>2015-06-08T18:27:45.846Z</time>
      </trkpt>
      <trkpt lat="48.85139" lon="2.35133">
        <ele>92.3</ele>
        <time>2015-06-08T18:27:46.786Z</time>
      </trkpt>
      <trkpt lat="48.85131" lon="2.35128">
        <ele>92.3</ele>
        <time>2015-06-08T18:27:49.796Z</time>
      </trkpt>
      <trkpt lat="48.85129" lon="2.35127">
        <ele>92.4</ele>
        <time>2015-06-08T18:27:50.826Z</time>
      </trkpt>
      <trkpt lat="48.8512" lon="2.35122">
        <ele>92.5</ele>
        <time>2015-06-08T18:27:56.827Z</time>
      </trkpt>
      <trkpt lat="48.85119" lon="2.3512">
        <ele>92.6</ele>
        <time>2015-06-08T18:27:57.841Z</time>
      </trkpt>
      <trkpt lat="48.85119" lon="2.3512">
        <ele>92.5</ele>
        <time>2015-06-08T18:28:00.782Z</time>
      </trkpt>
      <trkpt lat="48.85119" lon="2.3512">
        <ele>92.5</ele>
        <time>2015-06-08T18:28:01.786Z</time>
      </trkpt>
      <trkpt lat="48.85119" lon="2.3512">
        <ele>92.5</ele>
        <time>2015-06-08T18:28:07.775Z</time>
      </trkpt>
      <trkpt lat="48.85117" lon="2.35127">
        <ele>93.8</ele>
        <time>2015-06-08T18:28:08.807Z</time>
      </trkpt>
      <trkpt lat="48.8511" lon="2.3513">
        <ele>93.8</ele>
        <time>2015-06-08T18:28:14.820Z</time>
      </trkpt>
      <trkpt lat="48.85108" lon="2.3513">
        <ele>93.9</ele>
        <time>2015-06-08T18:28:15.834Z</time>
      </trkpt>
      <trkpt lat="48.85101" lon="2.35125">
        <ele>93.6</ele>
        <time>2015-06-08T18:28:20.805Z</time>
      </trkpt>
      <trkpt lat="48.851" lon="2.35123">
        <ele>93.6</ele>
        <time>2015-06-08T18:28:21.813Z</time>
      </trkpt>
      <trkpt lat="48.85093" lon="2.35121">
        <ele>93.8</ele>
        <time>2015-06-08T18:28:26.791Z</time>
      </trkpt>
      <trkpt lat="48.85091" lon="2.35121">
        <ele>93.9</ele>
        <time>2015-06-08T18:28:27.804Z</time>
      </trkpt>
      <trkpt lat="48.85084" lon="2.35124">
        <ele>94</ele>
        <time>2015-06-08T18:28:31.756Z</time>
      </trkpt>
      <trkpt lat="48.85079" lon="2.35122">
        <ele>94</ele>
        <time>2015-06-08T18:28:32.795Z</time>
      </trkpt>
      <trkpt lat="48.85072" lon="2.35127">
        <ele>94.2</ele>
        <time>2015-06-08T18:28:35.756Z</time>
      </trkpt>
      <trkpt lat="48.8507" lon="2.35127">
        <ele>94.3</ele>
        <time>2015-06-08T18:28:36.771Z</time>
      </trkpt>
      <trkpt lat="48.85064" lon="2.3512">
        <ele>94.6</ele>
        <time>2015-06-08T18:28:39.789Z</time>
      </trkpt>
      <trkpt lat="48.85061" lon="2.35116">
        <ele>94.8</ele>
        <time>2015-06-08T18:28:40.767Z</time>
      </trkpt>
      <trkpt lat="48.85056" lon="2.35106">
        <ele>94.9</ele>
        <time>2015-06-08T18:28:42.756Z</time>
      </trkpt>
      <trkpt lat="48.85053" lon="2.35102">
        <ele>95</ele>
        <time>2015-06-08T18:28:43.750Z</time>
      </trkpt>
      <trkpt lat="48.85048" lon="2.35098">
        <ele>95.3</ele>
        <time>2015-06-08T18:28:46.101Z</time>
      </trkpt>
      <trkpt lat="48.85045" lon="2.35096">
        <ele>95.4</ele>
        <time>2015-06-08T18:28:46.765Z</time>
      </trkpt>
      <trkpt lat="48.85037" lon="2.35094">
        <ele>95.7</ele>
        <time>2015-06-08T18:28:49.773Z</time>
      </trkpt>
      <trkpt lat="48.85035" lon="2.35094">
        <ele>95.8</ele>
        <time>2015-06-08T18:28:50.820Z</time>
      </trkpt>
      <trkpt lat="48.85028" lon="2.35093">
        <ele>95.6</ele>
        <time>2015-06-08T18:28:52.753Z</time>
      </trkpt>
      <trkpt lat="48.8502" lon="2.3509">
        <ele>95.8</ele>
        <time>2015-06-08T18:28:53.764Z</time>
      </trkpt>
      <trkpt lat="48.85012" lon="2.35087">
        <ele>95.9</ele>
        <time>2015-06-08T18:28:54.803Z</time>
      </trkpt>
      <trkpt lat="48.85005" lon="2.35084">
        <ele>96.1</ele>
        <time>2015-06-08T18:28:55.818Z</time>
      </trkpt>
      <trkpt lat="48.85" lon="2.3508">
        <ele>96</ele>
        <time>2015-06-08T18:28:56.828Z</time>
      </trkpt>
      <trkpt lat="48.84994" lon="2.35068">
        <ele>95.6</ele>
        <time>2015-06-08T18:28:57.747Z</time>
      </trkpt>
      <trkpt lat="48.84987" lon="2.35059">
        <ele>94.8</ele>
        <time>2015-06-08T18:28:58.751Z</time>
      </trkpt>
      <trkpt lat="48.84981" lon="2.35052">
        <ele>94.3</ele>
        <time>2015-06-08T18:28:59.760Z</time>
      </trkpt>
      <trkpt lat="48.84975" lon="2.35043">
        <ele>93.5</ele>
        <time>2015-06-08T18:29:00.776Z</time>
      </trkpt>
      <trkpt lat="48.84969" lon="2.35051">
        <ele>93.5</ele>
        <time>2015-06-08T18:29:06.788Z</time>
      </trkpt>
      <trkpt lat="48.84969" lon="2.35055">
        <ele>93.6</ele>
        <time>2015-06-08T18:29:07.805Z</time>
      </trkpt>
      <trkpt lat="48.84968" lon="2.35064">
        <ele>93.8</ele>
        <time>2015-06-08T18:29:09.743Z</time>
      </trkpt>
      <trkpt lat="48.84968" lon="2.3507">
        <ele>94</ele>
        <time>2015-06-08T18:29:10.812Z</time>
      </trkpt>
      <trkpt lat="48.84968" lon="2.35081">
        <ele>94.3</ele>
        <time>2015-06-08T18:29:12.747Z</time>
      </trkpt>
      <trkpt lat="48.84967" lon="2.35089">
        <ele>94.6</ele>
        <time>2015-06-08T18:29:13.783Z</time>
      </trkpt>
      <trkpt lat="48.84966" lon="2.35102">
        <ele>94.9</ele>
        <time>2015-06-08T18:29:15.755Z</time>
      </trkpt>
      <trkpt lat="48.84966" lon="2.35111">
        <ele>95</ele>
        <time>2015-06-08T18:29:16.826Z</time>
      </trkpt>
      <trkpt lat="48.84966" lon="2.35118">
        <ele>94.9</ele>
        <time>2015-06-08T18:29:17.751Z</time>
      </trkpt>
      <trkpt lat="48.84966" lon="2.35126">
        <ele>95.1</ele>
        <time>2015-06-08T18:29:18.759Z</time>
      </trkpt>
      <trkpt lat="48.84965" lon="2.35133">
        <ele>95.4</ele>
        <time>2015-06-08T18:29:19.770Z</time>
      </trkpt>
      <trkpt lat="48.84965" lon="2.35141">
        <ele>95.4</ele>
        <time>2015-06-08T18:29:20.778Z</time>
      </trkpt>
      <trkpt lat="48.84965" lon="2.35147">
        <ele>95.5</ele>
        <time>2015-06-08T18:29:21.814Z</time>
      </trkpt>
      <trkpt lat="48.84965" lon="2.35154">
        <ele>95.6</ele>
        <time>2015-06-08T18:29:22.742Z</time>
      </trkpt>
      <trkpt lat="48.84964" lon="2.35162">
        <ele>95.7</ele>
        <time>2015-06-08T18:29:23.747Z</time>
      </trkpt>
      <trkpt lat="48.84963" lon="2.35169">
        <ele>95.9</ele>
        <time>2015-06-08T18:29:24.769Z</time>
      </trkpt>
      <trkpt lat="48.84962" lon="2.35176">
        <ele>96.2</ele>
        <time>2015-06-08T18:29:25.775Z</time>
      </trkpt>
      <trkpt lat="48.8496" lon="2.35185">
        <ele>96.5</ele>
        <time>2015-06-08T18:29:26.855Z</time>
      </trkpt>
      <trkpt lat="48.84959" lon="2.35195">
        <ele>96.8</ele>
        <time>2015-06-08T18:29:27.746Z</time>
      </trkpt>
      <trkpt lat="48.84959" lon="2.35205">
        <ele>96.9</ele>
        <time>2015-06-08T18:29:28.759Z</time>
      </trkpt>
      <trkpt lat="48.84959" lon="2.35214">
        <ele>97</ele>
        <time>2015-06-08T18:29:29.774Z</time>
      </trkpt>
      <trkpt lat="48.8496" lon="2.35222">
        <ele>97.2</ele>
        <time>2015-06-08T18:29:30.784Z</time>
      </trkpt>
      <trkpt lat="48.8496" lon="2.35231">
        <ele>97.7</ele>
        <time>2015-06-08T18:29:31.794Z</time>
      </trkpt>
      <trkpt lat="48.84961" lon="2.35239">
        <ele>98</ele>
        <time>2015-06-08T18:29:32.806Z</time>
      </trkpt>
      <trkpt lat="48.8496" lon="2.35248">
        <ele>98.1</ele>
        <time>2015-06-08T18:29:34.304Z</time>
      </trkpt>
      <trkpt lat="48.8496" lon="2.35256">
        <ele>98.1</ele>
        <time>2015-06-08T18:29:34.743Z</time>
      </trkpt>
      <trkpt lat="48.8496" lon="2.35264">
        <ele>98.5</ele>
        <time>2015-06-08T18:29:35.740Z</time>
      </trkpt>
      <trkpt lat="48.84959" lon="2.35273">
        <ele>99.1</ele>
        <time>2015-06-08T18:29:36.749Z</time>
      </trkpt>
      <trkpt lat="48.84959" lon="2.35281">
        <ele>99.5</ele>
        <time>2015-06-08T18:29:37.759Z</time>
      </trkpt>
      <trkpt lat="48.84958" lon="2.35289">
        <ele>99.7</ele>
        <time>2015-06-08T18:29:38.789Z</time>
      </trkpt>
      <trkpt lat="48.84958" lon="2.35297">
        <ele>99.9</ele>
        <time>2015-06-08T18:29:39.807Z</time>
      </trkpt>
      <trkpt lat="48.84956" lon="2.35304">
        <ele>100.1</ele>
        <time>2015-06-08T18:29:40.829Z</time>
      </trkpt>
      <trkpt lat="48.84954" lon="2.35313">
        <ele>100.2</ele>
        <time>2015-06-08T18:29:41.736Z</time>
      </trkpt>
      <trkpt lat="48.84954" lon="2.35321">
        <ele>100.4</ele>
        <time>2015-06-08T18:29:42.753Z</time>
      </trkpt>
      <trkpt lat="48.84953" lon="2.35328">
        <ele>100.6</ele>
        <time>2015-06-08T18:29:43.761Z</time>
      </trkpt>
      <trkpt lat="48.84952" lon="2.35336">
        <ele>100.9</ele>
        <time>2015-06-08T18:29:44.775Z</time>
      </trkpt>
      <trkpt lat="48.84952" lon="2.35345">
        <ele>101</ele>
        <time>2015-06-08T18:29:45.779Z</time>
      </trkpt>
      <trkpt lat="48.84952" lon="2.35353">
        <ele>101.1</ele>
        <time>2015-06-08T18:29:46.789Z</time>
      </trkpt>
      <trkpt lat="48.84951" lon="2.35361">
        <ele>101.2</ele>
        <time>2015-06-08T18:29:47.721Z</time>
      </trkpt>
      <trkpt lat="48.84951" lon="2.35369">
        <ele>101.5</ele>
        <time>2015-06-08T18:29:48.737Z</time>
      </trkpt>
      <trkpt lat="48.84952" lon="2.35378">
        <ele>102</ele>
        <time>2015-06-08T18:29:49.758Z</time>
      </trkpt>
      <trkpt lat="48.84952" lon="2.35386">
        <ele>102.5</ele>
        <time>2015-06-08T18:29:50.797Z</time>
      </trkpt>
      <trkpt lat="48.84953" lon="2.35395">
        <ele>103.1</ele>
        <time>2015-06-08T18:29:51.813Z</time>
      </trkpt>
      <trkpt lat="48.84953" lon="2.35402">
        <ele>103.3</ele>
        <time>2015-06-08T18:29:52.822Z</time>
      </trkpt>
      <trkpt lat="48.84954" lon="2.35415">
        <ele>103.7</ele>
        <time>2015-06-08T18:29:54.754Z</time>
      </trkpt>
      <trkpt lat="48.84953" lon="2.3542">
        <ele>103.5</ele>
        <time>2015-06-08T18:29:55.762Z</time>
      </trkpt>
      <trkpt lat="48.84954" lon="2.35431">
        <ele>103.8</ele>
        <time>2015-06-08T18:29:57.793Z</time>
      </trkpt>
      <trkpt lat="48.84955" lon="2.35438">
        <ele>103.3</ele>
        <time>2015-06-08T18:29:58.794Z</time>
      </trkpt>
      <trkpt lat="48.84955" lon="2.35449">
        <ele>103.5</ele>
        <time>2015-06-08T18:30:00.747Z</time>
      </trkpt>
      <trkpt lat="48.84955" lon="2.35455">
        <ele>104.1</ele>
        <time>2015-06-08T18:30:01.753Z</time>
      </trkpt>
      <trkpt lat="48.84954" lon="2.35466">
        <ele>104.7</ele>
        <time>2015-06-08T18:30:03.812Z</time>
      </trkpt>
      <trkpt lat="48.84954" lon="2.35473">
        <ele>104.9</ele>
        <time>2015-06-08T18:30:04.813Z</time>
      </trkpt>
      <trkpt lat="48.84954" lon="2.3548">
        <ele>105.3</ele>
        <time>2015-06-08T18:30:05.739Z</time>
      </trkpt>
      <trkpt lat="48.84955" lon="2.35488">
        <ele>105.6</ele>
        <time>2015-06-08T18:30:06.738Z</time>
      </trkpt>
      <trkpt lat="48.84955" lon="2.35495">
        <ele>105.7</ele>
        <time>2015-06-08T18:30:07.904Z</time>
      </trkpt>
      <trkpt lat="48.84954" lon="2.35503">
        <ele>105.8</ele>
        <time>2015-06-08T18:30:08.771Z</time>
      </trkpt>
      <trkpt lat="48.84953" lon="2.35516">
        <ele>106.1</ele>
        <time>2015-06-08T18:30:10.792Z</time>
      </trkpt>
      <trkpt lat="48.84953" lon="2.35522">
        <ele>106.3</ele>
        <time>2015-06-08T18:30:11.792Z</time>
      </trkpt>
      <trkpt lat="48.84952" lon="2.35534">
        <ele>106.3</ele>
        <time>2015-06-08T18:30:13.750Z</time>
      </trkpt>
      <trkpt lat="48.84951" lon="2.3554">
        <ele>106.4</ele>
        <time>2015-06-08T18:30:14.790Z</time>
      </trkpt>
      <trkpt lat="48.84952" lon="2.35552">
        <ele>106.4</ele>
        <time>2015-06-08T18:30:16.720Z</time>
      </trkpt>
      <trkpt lat="48.84952" lon="2.35558">
        <ele>106.6</ele>
        <time>2015-06-08T18:30:17.754Z</time>
      </trkpt>
      <trkpt lat="48.84952" lon="2.35564">
        <ele>106.9</ele>
        <time>2015-06-08T18:30:18.734Z</time>
      </trkpt>
      <trkpt lat="48.84952" lon="2.35572">
        <ele>106.7</ele>
        <time>2015-06-08T18:30:19.738Z</time>
      </trkpt>
      <trkpt lat="48.84951" lon="2.35582">
        <ele>106.5</ele>
        <time>2015-06-08T18:30:20.787Z</time>
      </trkpt>
      <trkpt lat="48.84949" lon="2.35592">
        <ele>106.3</ele>
        <time>2015-06-08T18:30:21.791Z</time>
      </trkpt>
      <trkpt lat="48.84948" lon="2.35601">
        <ele>105.9</ele>
        <time>2015-06-08T18:30:22.806Z</time>
      </trkpt>
      <trkpt lat="48.84947" lon="2.3561">
        <ele>105.7</ele>
        <time>2015-06-08T18:30:23.817Z</time>
      </trkpt>
      <trkpt lat="48.84947" lon="2.35619">
        <ele>105.5</ele>
        <time>2015-06-08T18:30:24.768Z</time>
      </trkpt>
      <trkpt lat="48.84947" lon="2.35629">
        <ele>105.3</ele>
        <time>2015-06-08T18:30:25.756Z</time>
      </trkpt>
      <trkpt lat="48.84946" lon="2.35638">
        <ele>105.8</ele>
        <time>2015-06-08T18:30:26.775Z</time>
      </trkpt>
      <trkpt lat="48.84945" lon="2.35647">
        <ele>106.2</ele>
        <time>2015-06-08T18:30:27.805Z</time>
      </trkpt>
      <trkpt lat="48.84943" lon="2.35656">
        <ele>106.5</ele>
        <time>2015-06-08T18:30:28.761Z</time>
      </trkpt>
      <trkpt lat="48.84942" lon="2.35664">
        <ele>106.3</ele>
        <time>2015-06-08T18:30:29.768Z</time>
      </trkpt>
      <trkpt lat="48.84942" lon="2.35671">
        <ele>105.9</ele>
        <time>2015-06-08T18:30:30.772Z</time>
      </trkpt>
      <trkpt lat="48.84941" lon="2.35678">
        <ele>105.7</ele>
        <time>2015-06-08T18:30:31.781Z</time>
      </trkpt>
      <trkpt lat="48.8494" lon="2.35685">
        <ele>105.7</ele>
        <time>2015-06-08T18:30:32.805Z</time>
      </trkpt>
      <trkpt lat="48.84938" lon="2.35691">
        <ele>105.6</ele>
        <time>2015-06-08T18:30:33.834Z</time>
      </trkpt>
      <trkpt lat="48.84935" lon="2.35704">
        <ele>105.6</ele>
        <time>2015-06-08T18:30:36.786Z</time>
      </trkpt>
      <trkpt lat="48.84934" lon="2.35709">
        <ele>105.6</ele>
        <time>2015-06-08T18:30:37.751Z</time>
      </trkpt>
      <trkpt lat="48.8493" lon="2.35718">
        <ele>106.3</ele>
        <time>2015-06-08T18:30:39.780Z</time>
      </trkpt>
      <trkpt lat="48.84927" lon="2.35722">
        <ele>106.7</ele>
        <time>2015-06-08T18:30:40.756Z</time>
      </trkpt>
      <trkpt lat="48.84921" lon="2.35729">
        <ele>107.4</ele>
        <time>2015-06-08T18:30:42.797Z</time>
      </trkpt>
      <trkpt lat="48.84917" lon="2.35732">
        <ele>107.6</ele>
        <time>2015-06-08T18:30:43.814Z</time>
      </trkpt>
      <trkpt lat="48.84914" lon="2.35736">
        <ele>107.7</ele>
        <time>2015-06-08T18:30:44.840Z</time>
      </trkpt>
      <trkpt lat="48.8491" lon="2.35742">
        <ele>107.6</ele>
        <time>2015-06-08T18:30:45.745Z</time>
      </trkpt>
      <trkpt lat="48.84907" lon="2.35748">
        <ele>107.6</ele>
        <time>2015-06-08T18:30:46.779Z</time>
      </trkpt>
      <trkpt lat="48.84903" lon="2.35752">
        <ele>107.7</ele>
        <time>2015-06-08T18:30:47.783Z</time>
      </trkpt>
      <trkpt lat="48.84899" lon="2.35756">
        <ele>108</ele>
        <time>2015-06-08T18:30:48.791Z</time>
      </trkpt>
      <trkpt lat="48.84895" lon="2.3576">
        <ele>108.1</ele>
        <time>2015-06-08T18:30:49.769Z</time>
      </trkpt>
      <trkpt lat="48.84888" lon="2.35767">
        <ele>108.2</ele>
        <time>2015-06-08T18:30:51.785Z</time>
      </trkpt>
      <trkpt lat="48.84885" lon="2.35771">
        <ele>107.9</ele>
        <time>2015-06-08T18:30:52.718Z</time>
      </trkpt>
      <trkpt lat="48.84879" lon="2.3578">
        <ele>107.2</ele>
        <time>2015-06-08T18:30:54.823Z</time>
      </trkpt>
      <trkpt lat="48.84876" lon="2.35784">
        <ele>107.5</ele>
        <time>2015-06-08T18:30:55.823Z</time>
      </trkpt>
      <trkpt lat="48.84869" lon="2.35792">
        <ele>107.6</ele>
        <time>2015-06-08T18:30:57.747Z</time>
      </trkpt>
      <trkpt lat="48.84866" lon="2.35796">
        <ele>107.8</ele>
        <time>2015-06-08T18:30:58.760Z</time>
      </trkpt>
      <trkpt lat="48.84859" lon="2.35803">
        <ele>107.5</ele>
        <time>2015-06-08T18:31:00.753Z</time>
      </trkpt>
      <trkpt lat="48.84856" lon="2.35806">
        <ele>107.6</ele>
        <time>2015-06-08T18:31:01.760Z</time>
      </trkpt>
      <trkpt lat="48.84849" lon="2.35813">
        <ele>108</ele>
        <time>2015-06-08T18:31:03.823Z</time>
      </trkpt>
      <trkpt lat="48.84846" lon="2.35818">
        <ele>108.4</ele>
        <time>2015-06-08T18:31:04.744Z</time>
      </trkpt>
      <trkpt lat="48.84843" lon="2.35822">
        <ele>108.7</ele>
        <time>2015-06-08T18:31:05.754Z</time>
      </trkpt>
      <trkpt lat="48.84838" lon="2.3583">
        <ele>108.8</ele>
        <time>2015-06-08T18:31:06.763Z</time>
      </trkpt>
      <trkpt lat="48.84834" lon="2.35836">
        <ele>108.6</ele>
        <time>2015-06-08T18:31:07.783Z</time>
      </trkpt>
      <trkpt lat="48.8483" lon="2.35843">
        <ele>108.3</ele>
        <time>2015-06-08T18:31:08.788Z</time>
      </trkpt>
      <trkpt lat="48.84826" lon="2.3585">
        <ele>108.4</ele>
        <time>2015-06-08T18:31:09.790Z</time>
      </trkpt>
      <trkpt lat="48.84823" lon="2.35857">
        <ele>108.6</ele>
        <time>2015-06-08T18:31:10.795Z</time>
      </trkpt>
      <trkpt lat="48.8482" lon="2.35862">
        <ele>108.4</ele>
        <time>2015-06-08T18:31:11.805Z</time>
      </trkpt>
      <trkpt lat="48.84816" lon="2.35868">
        <ele>108.4</ele>
        <time>2015-06-08T18:31:12.824Z</time>
      </trkpt>
      <trkpt lat="48.84813" lon="2.35875">
        <ele>108.4</ele>
        <time>2015-06-08T18:31:13.839Z</time>
      </trkpt>
      <trkpt lat="48.84809" lon="2.35882">
        <ele>108.1</ele>
        <time>2015-06-08T18:31:14.847Z</time>
      </trkpt>
      <trkpt lat="48.84804" lon="2.35889">
        <ele>107.6</ele>
        <time>2015-06-08T18:31:15.772Z</time>
      </trkpt>
      <trkpt lat="48.848" lon="2.35896">
        <ele>107.5</ele>
        <time>2015-06-08T18:31:16.767Z</time>
      </trkpt>
      <trkpt lat="48.84795" lon="2.35903">
        <ele>107.5</ele>
        <time>2015-06-08T18:31:17.774Z</time>
      </trkpt>
      <trkpt lat="48.84792" lon="2.35909">
        <ele>107.2</ele>
        <time>2015-06-08T18:31:18.786Z</time>
      </trkpt>
      <trkpt lat="48.84787" lon="2.35916">
        <ele>106.8</ele>
        <time>2015-06-08T18:31:19.793Z</time>
      </trkpt>
      <trkpt lat="48.84783" lon="2.35923">
        <ele>106.3</ele>
        <time>2015-06-08T18:31:20.828Z</time>
      </trkpt>
      <trkpt lat="48.84778" lon="2.3593">
        <ele>105.9</ele>
        <time>2015-06-08T18:31:21.777Z</time>
      </trkpt>
      <trkpt lat="48.84772" lon="2.35937">
        <ele>105.9</ele>
        <time>2015-06-08T18:31:22.817Z</time>
      </trkpt>
      <trkpt lat="48.84767" lon="2.35942">
        <ele>105.7</ele>
        <time>2015-06-08T18:31:23.839Z</time>
      </trkpt>
      <trkpt lat="48.84762" lon="2.35949">
        <ele>105.6</ele>
        <time>2015-06-08T18:31:24.844Z</time>
      </trkpt>
      <trkpt lat="48.84757" lon="2.35957">
        <ele>105.4</ele>
        <time>2015-06-08T18:31:25.862Z</time>
      </trkpt>
      <trkpt lat="48.84752" lon="2.35966">
        <ele>105.3</ele>
        <time>2015-06-08T18:31:26.876Z</time>
      </trkpt>
      <trkpt lat="48.84746" lon="2.35973">
        <ele>105.2</ele>
        <time>2015-06-08T18:31:27.791Z</time>
      </trkpt>
      <trkpt lat="48.84741" lon="2.35982">
        <ele>105.5</ele>
        <time>2015-06-08T18:31:28.811Z</time>
      </trkpt>
      <trkpt lat="48.84735" lon="2.35991">
        <ele>105.6</ele>
        <time>2015-06-08T18:31:29.854Z</time>
      </trkpt>
      <trkpt lat="48.8473" lon="2.36001">
        <ele>105.7</ele>
        <time>2015-06-08T18:31:30.760Z</time>
      </trkpt>
      <trkpt lat="48.84724" lon="2.36012">
        <ele>105.7</ele>
        <time>2015-06-08T18:31:31.768Z</time>
      </trkpt>
      <trkpt lat="48.84717" lon="2.36023">
        <ele>105.7</ele>
        <time>2015-06-08T18:31:32.830Z</time>
      </trkpt>
      <trkpt lat="48.8471" lon="2.36038">
        <ele>104.8</ele>
        <time>2015-06-08T18:31:33.827Z</time>
      </trkpt>
      <trkpt lat="48.84702" lon="2.36052">
        <ele>105.1</ele>
        <time>2015-06-08T18:31:34.770Z</time>
      </trkpt>
      <trkpt lat="48.84695" lon="2.36063">
        <ele>105.1</ele>
        <time>2015-06-08T18:31:35.763Z</time>
      </trkpt>
      <trkpt lat="48.84688" lon="2.36076">
        <ele>105</ele>
        <time>2015-06-08T18:31:36.774Z</time>
      </trkpt>
      <trkpt lat="48.84682" lon="2.36088">
        <ele>104.9</ele>
        <time>2015-06-08T18:31:37.798Z</time>
      </trkpt>
      <trkpt lat="48.84675" lon="2.36101">
        <ele>105.3</ele>
        <time>2015-06-08T18:31:38.822Z</time>
      </trkpt>
      <trkpt lat="48.84669" lon="2.3611">
        <ele>105</ele>
        <time>2015-06-08T18:31:39.835Z</time>
      </trkpt>
      <trkpt lat="48.84662" lon="2.3612">
        <ele>104.6</ele>
        <time>2015-06-08T18:31:40.848Z</time>
      </trkpt>
      <trkpt lat="48.84657" lon="2.3613">
        <ele>104.3</ele>
        <time>2015-06-08T18:31:41.748Z</time>
      </trkpt>
      <trkpt lat="48.84652" lon="2.36141">
        <ele>104.5</ele>
        <time>2015-06-08T18:31:42.762Z</time>
      </trkpt>
      <trkpt lat="48.84646" lon="2.3615">
        <ele>104.6</ele>
        <time>2015-06-08T18:31:43.803Z</time>
      </trkpt>
      <trkpt lat="48.8464" lon="2.3616">
        <ele>105</ele>
        <time>2015-06-08T18:31:44.847Z</time>
      </trkpt>
      <trkpt lat="48.84634" lon="2.36169">
        <ele>105</ele>
        <time>2015-06-08T18:31:45.832Z</time>
      </trkpt>
      <trkpt lat="48.84629" lon="2.36178">
        <ele>105.2</ele>
        <time>2015-06-08T18:31:46.738Z</time>
      </trkpt>
      <trkpt lat="48.84624" lon="2.36187">
        <ele>105.4</ele>
        <time>2015-06-08T18:31:47.789Z</time>
      </trkpt>
      <trkpt lat="48.84619" lon="2.36195">
        <ele>105.6</ele>
        <time>2015-06-08T18:31:48.763Z</time>
      </trkpt>
      <trkpt lat="48.84612" lon="2.36203">
        <ele>106</ele>
        <time>2015-06-08T18:31:49.781Z</time>
      </trkpt>
      <trkpt lat="48.84608" lon="2.3621">
        <ele>105.8</ele>
        <time>2015-06-08T18:31:50.807Z</time>
      </trkpt>
      <trkpt lat="48.84602" lon="2.36218">
        <ele>105.4</ele>
        <time>2015-06-08T18:31:51.810Z</time>
      </trkpt>
      <trkpt lat="48.84597" lon="2.36226">
        <ele>105.1</ele>
        <time>2015-06-08T18:31:52.817Z</time>
      </trkpt>
      <trkpt lat="48.84591" lon="2.36234">
        <ele>104.6</ele>
        <time>2015-06-08T18:31:53.819Z</time>
      </trkpt>
      <trkpt lat="48.84585" lon="2.36242">
        <ele>104.3</ele>
        <time>2015-06-08T18:31:54.826Z</time>
      </trkpt>
      <trkpt lat="48.84579" lon="2.3625">
        <ele>103.9</ele>
        <time>2015-06-08T18:31:55.847Z</time>
      </trkpt>
      <trkpt lat="48.84574" lon="2.36257">
        <ele>103.5</ele>
        <time>2015-06-08T18:31:56.851Z</time>
      </trkpt>
      <trkpt lat="48.84569" lon="2.36264">
        <ele>102.9</ele>
        <time>2015-06-08T18:31:57.763Z</time>
      </trkpt>
      <trkpt lat="48.84563" lon="2.36272">
        <ele>103</ele>
        <time>2015-06-08T18:31:58.789Z</time>
      </trkpt>
      <trkpt lat="48.84558" lon="2.36279">
        <ele>103.1</ele>
        <time>2015-06-08T18:31:59.809Z</time>
      </trkpt>
      <trkpt lat="48.84554" lon="2.36287">
        <ele>103.2</ele>
        <time>2015-06-08T18:32:00.823Z</time>
      </trkpt>
      <trkpt lat="48.84549" lon="2.36295">
        <ele>103.2</ele>
        <time>2015-06-08T18:32:01.836Z</time>
      </trkpt>
      <trkpt lat="48.84544" lon="2.36301">
        <ele>102.3</ele>
        <time>2015-06-08T18:32:02.847Z</time>
      </trkpt>
      <trkpt lat="48.84539" lon="2.36308">
        <ele>102.8</ele>
        <time>2015-06-08T18:32:03.760Z</time>
      </trkpt>
      <trkpt lat="48.84534" lon="2.36317">
        <ele>102.4</ele>
        <time>2015-06-08T18:32:04.767Z</time>
      </trkpt>
      <trkpt lat="48.84529" lon="2.36327">
        <ele>101.3</ele>
        <time>2015-06-08T18:32:05.816Z</time>
      </trkpt>
      <trkpt lat="48.84524" lon="2.36337">
        <ele>100.9</ele>
        <time>2015-06-08T18:32:06.795Z</time>
      </trkpt>
      <trkpt lat="48.8452" lon="2.36344">
        <ele>100.5</ele>
        <time>2015-06-08T18:32:07.829Z</time>
      </trkpt>
      <trkpt lat="48.84514" lon="2.36353">
        <ele>99.8</ele>
        <time>2015-06-08T18:32:08.830Z</time>
      </trkpt>
      <trkpt lat="48.8451" lon="2.36359">
        <ele>99.6</ele>
        <time>2015-06-08T18:32:09.754Z</time>
      </trkpt>
      <trkpt lat="48.84505" lon="2.36366">
        <ele>99</ele>
        <time>2015-06-08T18:32:10.777Z</time>
      </trkpt>
      <trkpt lat="48.84502" lon="2.3637">
        <ele>98.5</ele>
        <time>2015-06-08T18:32:11.765Z</time>
      </trkpt>
      <trkpt lat="48.84498" lon="2.36374">
        <ele>98.5</ele>
        <time>2015-06-08T18:32:12.773Z</time>
      </trkpt>
      <trkpt lat="48.84492" lon="2.36382">
        <ele>98.1</ele>
        <time>2015-06-08T18:32:14.797Z</time>
      </trkpt>
      <trkpt lat="48.8449" lon="2.36387">
        <ele>98.3</ele>
        <time>2015-06-08T18:32:15.805Z</time>
      </trkpt>
      <trkpt lat="48.84484" lon="2.36395">
        <ele>97.8</ele>
        <time>2015-06-08T18:32:17.753Z</time>
      </trkpt>
      <trkpt lat="48.8448" lon="2.364">
        <ele>97.6</ele>
        <time>2015-06-08T18:32:18.782Z</time>
      </trkpt>
      <trkpt lat="48.84473" lon="2.36406">
        <ele>96.4</ele>
        <time>2015-06-08T18:32:20.828Z</time>
      </trkpt>
      <trkpt lat="48.84471" lon="2.36406">
        <ele>95.9</ele>
        <time>2015-06-08T18:32:21.981Z</time>
      </trkpt>
      <trkpt lat="48.84467" lon="2.36398">
        <ele>96.7</ele>
        <time>2015-06-08T18:32:24.841Z</time>
      </trkpt>
      <trkpt lat="48.84465" lon="2.36395">
        <ele>96.5</ele>
        <time>2015-06-08T18:32:25.854Z</time>
      </trkpt>
      <trkpt lat="48.84459" lon="2.36393">
        <ele>95.8</ele>
        <time>2015-06-08T18:32:27.793Z</time>
      </trkpt>
      <trkpt lat="48.84456" lon="2.36391">
        <ele>95.1</ele>
        <time>2015-06-08T18:32:28.841Z</time>
      </trkpt>
      <trkpt lat="48.84448" lon="2.36387">
        <ele>93.6</ele>
        <time>2015-06-08T18:32:31.824Z</time>
      </trkpt>
      <trkpt lat="48.84446" lon="2.36388">
        <ele>93.1</ele>
        <time>2015-06-08T18:32:32.904Z</time>
      </trkpt>
      <trkpt lat="48.84438" lon="2.36387">
        <ele>93.4</ele>
        <time>2015-06-08T18:32:35.794Z</time>
      </trkpt>
      <trkpt lat="48.84435" lon="2.36385">
        <ele>93.5</ele>
        <time>2015-06-08T18:32:36.905Z</time>
      </trkpt>
      <trkpt lat="48.84429" lon="2.36386">
        <ele>92.6</ele>
        <time>2015-06-08T18:32:38.849Z</time>
      </trkpt>
      <trkpt lat="48.84425" lon="2.36388">
        <ele>92.2</ele>
        <time>2015-06-08T18:32:39.842Z</time>
      </trkpt>
      <trkpt lat="48.84418" lon="2.36392">
        <ele>91.5</ele>
        <time>2015-06-08T18:32:41.778Z</time>
      </trkpt>
      <trkpt lat="48.84414" lon="2.36394">
        <ele>91.5</ele>
        <time>2015-06-08T18:32:42.779Z</time>
      </trkpt>
      <trkpt lat="48.84406" lon="2.36396">
        <ele>91.5</ele>
        <time>2015-06-08T18:32:45.809Z</time>
      </trkpt>
      <trkpt lat="48.84403" lon="2.36398">
        <ele>91.4</ele>
        <time>2015-06-08T18:32:46.819Z</time>
      </trkpt>
      <trkpt lat="48.84395" lon="2.36402">
        <ele>91.1</ele>
        <time>2015-06-08T18:32:49.868Z</time>
      </trkpt>
      <trkpt lat="48.84393" lon="2.36403">
        <ele>91.2</ele>
        <time>2015-06-08T18:32:50.808Z</time>
      </trkpt>
      <trkpt lat="48.8439" lon="2.36405">
        <ele>90.9</ele>
        <time>2015-06-08T18:32:57.773Z</time>
      </trkpt>
      <trkpt lat="48.84383" lon="2.36415">
        <ele>91.1</ele>
        <time>2015-06-08T18:32:58.764Z</time>
      </trkpt>
      <trkpt lat="48.84379" lon="2.36423">
        <ele>91.2</ele>
        <time>2015-06-08T18:33:44.850Z</time>
      </trkpt>
      <trkpt lat="48.84375" lon="2.36444">
        <ele>88.7</ele>
        <time>2015-06-08T18:33:45.779Z</time>
      </trkpt>
      <trkpt lat="48.84371" lon="2.36453">
        <ele>87.8</ele>
        <time>2015-06-08T18:33:49.874Z</time>
      </trkpt>
      <trkpt lat="48.8437" lon="2.36456">
        <ele>87.7</ele>
        <time>2015-06-08T18:33:50.889Z</time>
      </trkpt>
      <trkpt lat="48.84368" lon="2.36465">
        <ele>87.7</ele>
        <time>2015-06-08T18:33:52.828Z</time>
      </trkpt>
      <trkpt lat="48.84367" lon="2.3647">
        <ele>87.9</ele>
        <time>2015-06-08T18:33:53.847Z</time>
      </trkpt>
      <trkpt lat="48.84364" lon="2.36478">
        <ele>88.1</ele>
        <time>2015-06-08T18:33:55.761Z</time>
      </trkpt>
      <trkpt lat="48.84363" lon="2.36482">
        <ele>88.2</ele>
        <time>2015-06-08T18:33:56.821Z</time>
      </trkpt>
      <trkpt lat="48.84363" lon="2.36495">
        <ele>88.7</ele>
        <time>2015-06-08T18:34:00.050Z</time>
      </trkpt>
      <trkpt lat="48.84362" lon="2.36501">
        <ele>89.2</ele>
        <time>2015-06-08T18:34:00.769Z</time>
      </trkpt>
      <trkpt lat="48.84363" lon="2.36512">
        <ele>89.4</ele>
        <time>2015-06-08T18:34:02.841Z</time>
      </trkpt>
      <trkpt lat="48.84365" lon="2.36518">
        <ele>89.4</ele>
        <time>2015-06-08T18:34:03.782Z</time>
      </trkpt>
      <trkpt lat="48.84368" lon="2.3653">
        <ele>89.4</ele>
        <time>2015-06-08T18:34:05.792Z</time>
      </trkpt>
      <trkpt lat="48.84366" lon="2.36537">
        <ele>90.3</ele>
        <time>2015-06-08T18:34:06.807Z</time>
      </trkpt>
      <trkpt lat="48.84364" lon="2.36547">
        <ele>91.1</ele>
        <time>2015-06-08T18:34:08.839Z</time>
      </trkpt>
      <trkpt lat="48.84361" lon="2.3655">
        <ele>91.1</ele>
        <time>2015-06-08T18:34:10.110Z</time>
      </trkpt>
      <trkpt lat="48.84358" lon="2.36561">
        <ele>92.1</ele>
        <time>2015-06-08T18:34:12.841Z</time>
      </trkpt>
      <trkpt lat="48.84356" lon="2.36565">
        <ele>91.8</ele>
        <time>2015-06-08T18:34:13.848Z</time>
      </trkpt>
      <trkpt lat="48.8435" lon="2.36573">
        <ele>91.8</ele>
        <time>2015-06-08T18:34:15.773Z</time>
      </trkpt>
      <trkpt lat="48.84347" lon="2.36578">
        <ele>91.6</ele>
        <time>2015-06-08T18:34:16.809Z</time>
      </trkpt>
      <trkpt lat="48.8434" lon="2.36586">
        <ele>91</ele>
        <time>2015-06-08T18:34:18.771Z</time>
      </trkpt>
      <trkpt lat="48.84337" lon="2.36589">
        <ele>90.8</ele>
        <time>2015-06-08T18:34:19.797Z</time>
      </trkpt>
      <trkpt lat="48.84331" lon="2.36597">
        <ele>90.5</ele>
        <time>2015-06-08T18:34:21.826Z</time>
      </trkpt>
      <trkpt lat="48.84327" lon="2.366">
        <ele>90.4</ele>
        <time>2015-06-08T18:34:22.833Z</time>
      </trkpt>
      <trkpt lat="48.84321" lon="2.36608">
        <ele>90.7</ele>
        <time>2015-06-08T18:34:24.749Z</time>
      </trkpt>
      <trkpt lat="48.84318" lon="2.36611">
        <ele>90.8</ele>
        <time>2015-06-08T18:34:25.798Z</time>
      </trkpt>
      <trkpt lat="48.8431" lon="2.36617">
        <ele>90.2</ele>
        <time>2015-06-08T18:34:27.758Z</time>
      </trkpt>
      <trkpt lat="48.84307" lon="2.36622">
        <ele>89.9</ele>
        <time>2015-06-08T18:34:28.791Z</time>
      </trkpt>
      <trkpt lat="48.84301" lon="2.3663">
        <ele>89.7</ele>
        <time>2015-06-08T18:34:30.778Z</time>
      </trkpt>
      <trkpt lat="48.84299" lon="2.36633">
        <ele>89.6</ele>
        <time>2015-06-08T18:34:31.775Z</time>
      </trkpt>
      <trkpt lat="48.84293" lon="2.36642">
        <ele>89.4</ele>
        <time>2015-06-08T18:34:33.805Z</time>
      </trkpt>
      <trkpt lat="48.8429" lon="2.36645">
        <ele>89.2</ele>
        <time>2015-06-08T18:34:34.816Z</time>
      </trkpt>
      <trkpt lat="48.84287" lon="2.3665">
        <ele>88.9</ele>
        <time>2015-06-08T18:34:35.825Z</time>
      </trkpt>
      <trkpt lat="48.84283" lon="2.36654">
        <ele>88.5</ele>
        <time>2015-06-08T18:34:36.890Z</time>
      </trkpt>
      <trkpt lat="48.84279" lon="2.36659">
        <ele>88</ele>
        <time>2015-06-08T18:34:37.857Z</time>
      </trkpt>
      <trkpt lat="48.84275" lon="2.36664">
        <ele>87.9</ele>
        <time>2015-06-08T18:34:38.860Z</time>
      </trkpt>
      <trkpt lat="48.8427" lon="2.36668">
        <ele>87.3</ele>
        <time>2015-06-08T18:34:39.767Z</time>
      </trkpt>
      <trkpt lat="48.84265" lon="2.36673">
        <ele>86.6</ele>
        <time>2015-06-08T18:34:40.774Z</time>
      </trkpt>
      <trkpt lat="48.8426" lon="2.36679">
        <ele>86.3</ele>
        <time>2015-06-08T18:34:41.783Z</time>
      </trkpt>
      <trkpt lat="48.84255" lon="2.36684">
        <ele>86.5</ele>
        <time>2015-06-08T18:34:42.793Z</time>
      </trkpt>
      <trkpt lat="48.8425" lon="2.36689">
        <ele>87</ele>
        <time>2015-06-08T18:34:43.818Z</time>
      </trkpt>
      <trkpt lat="48.84245" lon="2.36695">
        <ele>87</ele>
        <time>2015-06-08T18:34:44.834Z</time>
      </trkpt>
      <trkpt lat="48.84241" lon="2.36701">
        <ele>87.2</ele>
        <time>2015-06-08T18:34:45.842Z</time>
      </trkpt>
      <trkpt lat="48.84236" lon="2.36707">
        <ele>87.2</ele>
        <time>2015-06-08T18:34:46.853Z</time>
      </trkpt>
      <trkpt lat="48.84231" lon="2.36713">
        <ele>87.1</ele>
        <time>2015-06-08T18:34:47.758Z</time>
      </trkpt>
      <trkpt lat="48.84226" lon="2.36719">
        <ele>87.2</ele>
        <time>2015-06-08T18:34:48.781Z</time>
      </trkpt>
      <trkpt lat="48.84221" lon="2.36725">
        <ele>87.1</ele>
        <time>2015-06-08T18:34:49.789Z</time>
      </trkpt>
      <trkpt lat="48.84216" lon="2.3673">
        <ele>86.9</ele>
        <time>2015-06-08T18:34:50.825Z</time>
      </trkpt>
      <trkpt lat="48.84212" lon="2.36738">
        <ele>86.4</ele>
        <time>2015-06-08T18:34:51.821Z</time>
      </trkpt>
      <trkpt lat="48.84208" lon="2.36743">
        <ele>86.3</ele>
        <time>2015-06-08T18:34:52.826Z</time>
      </trkpt>
      <trkpt lat="48.84204" lon="2.36747">
        <ele>85.8</ele>
        <time>2015-06-08T18:34:53.844Z</time>
      </trkpt>
      <trkpt lat="48.84201" lon="2.36753">
        <ele>85.5</ele>
        <time>2015-06-08T18:34:54.854Z</time>
      </trkpt>
      <trkpt lat="48.84196" lon="2.36761">
        <ele>86</ele>
        <time>2015-06-08T18:34:56.797Z</time>
      </trkpt>
      <trkpt lat="48.84194" lon="2.36764">
        <ele>86.1</ele>
        <time>2015-06-08T18:34:57.848Z</time>
      </trkpt>
      <trkpt lat="48.84188" lon="2.36773">
        <ele>86.7</ele>
        <time>2015-06-08T18:35:01.807Z</time>
      </trkpt>
      <trkpt lat="48.84187" lon="2.36774">
        <ele>86.4</ele>
        <time>2015-06-08T18:35:02.851Z</time>
      </trkpt>
      <trkpt lat="48.84186" lon="2.36785">
        <ele>85.9</ele>
        <time>2015-06-08T18:35:25.815Z</time>
      </trkpt>
      <trkpt lat="48.84185" lon="2.36788">
        <ele>86</ele>
        <time>2015-06-08T18:35:26.852Z</time>
      </trkpt>
      <trkpt lat="48.84182" lon="2.36799">
        <ele>86.8</ele>
        <time>2015-06-08T18:35:29.809Z</time>
      </trkpt>
      <trkpt lat="48.8418" lon="2.36802">
        <ele>87</ele>
        <time>2015-06-08T18:35:30.826Z</time>
      </trkpt>
      <trkpt lat="48.84174" lon="2.3681">
        <ele>87.4</ele>
        <time>2015-06-08T18:35:32.832Z</time>
      </trkpt>
      <trkpt lat="48.8417" lon="2.36815">
        <ele>87.5</ele>
        <time>2015-06-08T18:35:33.851Z</time>
      </trkpt>
      <trkpt lat="48.84166" lon="2.36821">
        <ele>87.8</ele>
        <time>2015-06-08T18:35:34.801Z</time>
      </trkpt>
      <trkpt lat="48.84162" lon="2.36828">
        <ele>88.1</ele>
        <time>2015-06-08T18:35:35.806Z</time>
      </trkpt>
      <trkpt lat="48.84157" lon="2.36835">
        <ele>88</ele>
        <time>2015-06-08T18:35:36.818Z</time>
      </trkpt>
      <trkpt lat="48.84152" lon="2.36843">
        <ele>87.8</ele>
        <time>2015-06-08T18:35:37.822Z</time>
      </trkpt>
      <trkpt lat="48.84147" lon="2.3685">
        <ele>88.1</ele>
        <time>2015-06-08T18:35:38.840Z</time>
      </trkpt>
      <trkpt lat="48.84142" lon="2.36857">
        <ele>88.2</ele>
        <time>2015-06-08T18:35:39.850Z</time>
      </trkpt>
      <trkpt lat="48.84135" lon="2.36867">
        <ele>88.2</ele>
        <time>2015-06-08T18:35:40.783Z</time>
      </trkpt>
      <trkpt lat="48.84129" lon="2.36875">
        <ele>88.1</ele>
        <time>2015-06-08T18:35:41.774Z</time>
      </trkpt>
      <trkpt lat="48.84122" lon="2.36885">
        <ele>87.7</ele>
        <time>2015-06-08T18:35:42.807Z</time>
      </trkpt>
      <trkpt lat="48.84115" lon="2.36895">
        <ele>87.3</ele>
        <time>2015-06-08T18:35:43.796Z</time>
      </trkpt>
      <trkpt lat="48.84108" lon="2.36905">
        <ele>87.7</ele>
        <time>2015-06-08T18:35:44.897Z</time>
      </trkpt>
      <trkpt lat="48.84102" lon="2.36914">
        <ele>87.6</ele>
        <time>2015-06-08T18:35:45.810Z</time>
      </trkpt>
      <trkpt lat="48.84095" lon="2.36922">
        <ele>87.9</ele>
        <time>2015-06-08T18:35:46.777Z</time>
      </trkpt>
      <trkpt lat="48.84087" lon="2.36933">
        <ele>88.2</ele>
        <time>2015-06-08T18:35:47.797Z</time>
      </trkpt>
      <trkpt lat="48.8408" lon="2.36942">
        <ele>88.3</ele>
        <time>2015-06-08T18:35:48.810Z</time>
      </trkpt>
      <trkpt lat="48.84073" lon="2.36951">
        <ele>88.4</ele>
        <time>2015-06-08T18:35:49.829Z</time>
      </trkpt>
      <trkpt lat="48.84066" lon="2.3696">
        <ele>88.4</ele>
        <time>2015-06-08T18:35:50.869Z</time>
      </trkpt>
      <trkpt lat="48.84058" lon="2.36969">
        <ele>89</ele>
        <time>2015-06-08T18:35:51.739Z</time>
      </trkpt>
      <trkpt lat="48.84051" lon="2.36979">
        <ele>90.1</ele>
        <time>2015-06-08T18:35:52.800Z</time>
      </trkpt>
      <trkpt lat="48.84043" lon="2.36986">
        <ele>91.1</ele>
        <time>2015-06-08T18:35:53.809Z</time>
      </trkpt>
      <trkpt lat="48.84035" lon="2.36994">
        <ele>92</ele>
        <time>2015-06-08T18:35:54.828Z</time>
      </trkpt>
      <trkpt lat="48.84028" lon="2.37004">
        <ele>92.5</ele>
        <time>2015-06-08T18:35:55.838Z</time>
      </trkpt>
      <trkpt lat="48.84021" lon="2.37013">
        <ele>93.8</ele>
        <time>2015-06-08T18:35:56.850Z</time>
      </trkpt>
      <trkpt lat="48.84015" lon="2.37023">
        <ele>95</ele>
        <time>2015-06-08T18:35:57.734Z</time>
      </trkpt>
      <trkpt lat="48.84009" lon="2.37032">
        <ele>96.3</ele>
        <time>2015-06-08T18:35:58.761Z</time>
      </trkpt>
      <trkpt lat="48.84002" lon="2.3704">
        <ele>96.7</ele>
        <time>2015-06-08T18:35:59.766Z</time>
      </trkpt>
      <trkpt lat="48.83997" lon="2.37048">
        <ele>95.8</ele>
        <time>2015-06-08T18:36:00.786Z</time>
      </trkpt>
      <trkpt lat="48.83991" lon="2.37056">
        <ele>95.9</ele>
        <time>2015-06-08T18:36:01.798Z</time>
      </trkpt>
      <trkpt lat="48.83985" lon="2.37065">
        <ele>96</ele>
        <time>2015-06-08T18:36:02.811Z</time>
      </trkpt>
      <trkpt lat="48.83979" lon="2.37076">
        <ele>95.8</ele>
        <time>2015-06-08T18:36:03.818Z</time>
      </trkpt>
      <trkpt lat="48.83972" lon="2.37085">
        <ele>96.3</ele>
        <time>2015-06-08T18:36:04.721Z</time>
      </trkpt>
      <trkpt lat="48.83965" lon="2.37094">
        <ele>97.4</ele>
        <time>2015-06-08T18:36:05.859Z</time>
      </trkpt>
      <trkpt lat="48.83958" lon="2.37102">
        <ele>98.5</ele>
        <time>2015-06-08T18:36:06.765Z</time>
      </trkpt>
      <trkpt lat="48.83951" lon="2.37111">
        <ele>99.1</ele>
        <time>2015-06-08T18:36:07.771Z</time>
      </trkpt>
      <trkpt lat="48.83945" lon="2.3712">
        <ele>99.5</ele>
        <time>2015-06-08T18:36:08.789Z</time>
      </trkpt>
      <trkpt lat="48.83938" lon="2.37129">
        <ele>100</ele>
        <time>2015-06-08T18:36:09.804Z</time>
      </trkpt>
      <trkpt lat="48.83933" lon="2.37139">
        <ele>100.2</ele>
        <time>2015-06-08T18:36:10.751Z</time>
      </trkpt>
      <trkpt lat="48.83928" lon="2.37147">
        <ele>100.9</ele>
        <time>2015-06-08T18:36:11.747Z</time>
      </trkpt>
      <trkpt lat="48.83922" lon="2.37154">
        <ele>101.2</ele>
        <time>2015-06-08T18:36:12.783Z</time>
      </trkpt>
      <trkpt lat="48.83916" lon="2.37161">
        <ele>102.5</ele>
        <time>2015-06-08T18:36:13.788Z</time>
      </trkpt>
      <trkpt lat="48.83911" lon="2.37169">
        <ele>103.5</ele>
        <time>2015-06-08T18:36:14.872Z</time>
      </trkpt>
      <trkpt lat="48.83905" lon="2.37177">
        <ele>104.1</ele>
        <time>2015-06-08T18:36:15.754Z</time>
      </trkpt>
      <trkpt lat="48.839" lon="2.37185">
        <ele>104.7</ele>
        <time>2015-06-08T18:36:16.774Z</time>
      </trkpt>
      <trkpt lat="48.83896" lon="2.37193">
        <ele>105.2</ele>
        <time>2015-06-08T18:36:17.849Z</time>
      </trkpt>
      <trkpt lat="48.8389" lon="2.37201">
        <ele>106.1</ele>
        <time>2015-06-08T18:36:18.752Z</time>
      </trkpt>
      <trkpt lat="48.83884" lon="2.37209">
        <ele>106.5</ele>
        <time>2015-06-08T18:36:19.763Z</time>
      </trkpt>
      <trkpt lat="48.83878" lon="2.37217">
        <ele>106.8</ele>
        <time>2015-06-08T18:36:20.779Z</time>
      </trkpt>
      <trkpt lat="48.83872" lon="2.37224">
        <ele>106.9</ele>
        <time>2015-06-08T18:36:21.784Z</time>
      </trkpt>
      <trkpt lat="48.83866" lon="2.37232">
        <ele>106.7</ele>
        <time>2015-06-08T18:36:22.791Z</time>
      </trkpt>
      <trkpt lat="48.83862" lon="2.37238">
        <ele>105.9</ele>
        <time>2015-06-08T18:36:23.798Z</time>
      </trkpt>
      <trkpt lat="48.83857" lon="2.37247">
        <ele>105</ele>
        <time>2015-06-08T18:36:24.813Z</time>
      </trkpt>
      <trkpt lat="48.83852" lon="2.37253">
        <ele>105.3</ele>
        <time>2015-06-08T18:36:25.815Z</time>
      </trkpt>
      <trkpt lat="48.83847" lon="2.3726">
        <ele>105</ele>
        <time>2015-06-08T18:36:26.752Z</time>
      </trkpt>
      <trkpt lat="48.83841" lon="2.37268">
        <ele>104.8</ele>
        <time>2015-06-08T18:36:27.759Z</time>
      </trkpt>
      <trkpt lat="48.83835" lon="2.37274">
        <ele>104.8</ele>
        <time>2015-06-08T18:36:28.773Z</time>
      </trkpt>
      <trkpt lat="48.83829" lon="2.37281">
        <ele>105</ele>
        <time>2015-06-08T18:36:29.803Z</time>
      </trkpt>
      <trkpt lat="48.83822" lon="2.37286">
        <ele>104.7</ele>
        <time>2015-06-08T18:36:30.747Z</time>
      </trkpt>
      <trkpt lat="48.83816" lon="2.37292">
        <ele>104</ele>
        <time>2015-06-08T18:36:31.945Z</time>
      </trkpt>
      <trkpt lat="48.8381" lon="2.37299">
        <ele>103.1</ele>
        <time>2015-06-08T18:36:32.839Z</time>
      </trkpt>
      <trkpt lat="48.83803" lon="2.37306">
        <ele>103</ele>
        <time>2015-06-08T18:36:33.798Z</time>
      </trkpt>
      <trkpt lat="48.83798" lon="2.37313">
        <ele>102.6</ele>
        <time>2015-06-08T18:36:34.804Z</time>
      </trkpt>
      <trkpt lat="48.83791" lon="2.37319">
        <ele>102.4</ele>
        <time>2015-06-08T18:36:35.820Z</time>
      </trkpt>
      <trkpt lat="48.8378" lon="2.3733">
        <ele>102.5</ele>
        <time>2015-06-08T18:36:37.835Z</time>
      </trkpt>
      <trkpt lat="48.83775" lon="2.37336">
        <ele>102.5</ele>
        <time>2015-06-08T18:36:38.841Z</time>
      </trkpt>
      <trkpt lat="48.83769" lon="2.37342">
        <ele>102.4</ele>
        <time>2015-06-08T18:36:39.742Z</time>
      </trkpt>
      <trkpt lat="48.83764" lon="2.37348">
        <ele>101.4</ele>
        <time>2015-06-08T18:36:40.778Z</time>
      </trkpt>
      <trkpt lat="48.83759" lon="2.37352">
        <ele>100.9</ele>
        <time>2015-06-08T18:36:41.791Z</time>
      </trkpt>
      <trkpt lat="48.83755" lon="2.37356">
        <ele>99.9</ele>
        <time>2015-06-08T18:36:42.795Z</time>
      </trkpt>
      <trkpt lat="48.8375" lon="2.37359">
        <ele>99.2</ele>
        <time>2015-06-08T18:36:43.801Z</time>
      </trkpt>
      <trkpt lat="48.83742" lon="2.37364">
        <ele>99</ele>
        <time>2015-06-08T18:36:45.818Z</time>
      </trkpt>
      <trkpt lat="48.83739" lon="2.37368">
        <ele>99</ele>
        <time>2015-06-08T18:36:46.829Z</time>
      </trkpt>
      <trkpt lat="48.83732" lon="2.37374">
        <ele>97.9</ele>
        <time>2015-06-08T18:36:49.788Z</time>
      </trkpt>
      <trkpt lat="48.83732" lon="2.37374">
        <ele>97.7</ele>
        <time>2015-06-08T18:36:50.817Z</time>
      </trkpt>
      <trkpt lat="48.83733" lon="2.37373">
        <ele>97.7</ele>
        <time>2015-06-08T18:36:55.788Z</time>
      </trkpt>
      <trkpt lat="48.83738" lon="2.37376">
        <ele>97.2</ele>
        <time>2015-06-08T18:36:56.829Z</time>
      </trkpt>
      <trkpt lat="48.83742" lon="2.37382">
        <ele>95.6</ele>
        <time>2015-06-08T18:36:58.765Z</time>
      </trkpt>
      <trkpt lat="48.83745" lon="2.37385">
        <ele>95.6</ele>
        <time>2015-06-08T18:36:59.777Z</time>
      </trkpt>
      <trkpt lat="48.83749" lon="2.37393">
        <ele>95.5</ele>
        <time>2015-06-08T18:37:02.837Z</time>
      </trkpt>
      <trkpt lat="48.83751" lon="2.37394">
        <ele>95.1</ele>
        <time>2015-06-08T18:37:03.854Z</time>
      </trkpt>
      <trkpt lat="48.8376" lon="2.37395">
        <ele>94.1</ele>
        <time>2015-06-08T18:37:11.744Z</time>
      </trkpt>
      <trkpt lat="48.83762" lon="2.37396">
        <ele>94</ele>
        <time>2015-06-08T18:37:12.795Z</time>
      </trkpt>
      <trkpt lat="48.83768" lon="2.37403">
        <ele>93.7</ele>
        <time>2015-06-08T18:37:15.785Z</time>
      </trkpt>
      <trkpt lat="48.8377" lon="2.37406">
        <ele>93.6</ele>
        <time>2015-06-08T18:37:16.873Z</time>
      </trkpt>
      <trkpt lat="48.83776" lon="2.37412">
        <ele>93.4</ele>
        <time>2015-06-08T18:37:18.793Z</time>
      </trkpt>
      <trkpt lat="48.83778" lon="2.37415">
        <ele>93.4</ele>
        <time>2015-06-08T18:37:19.849Z</time>
      </trkpt>
      <trkpt lat="48.83783" lon="2.37422">
        <ele>93.1</ele>
        <time>2015-06-08T18:37:21.776Z</time>
      </trkpt>
      <trkpt lat="48.83785" lon="2.37425">
        <ele>93</ele>
        <time>2015-06-08T18:37:22.851Z</time>
      </trkpt>
      <trkpt lat="48.83791" lon="2.37431">
        <ele>92.8</ele>
        <time>2015-06-08T18:37:24.785Z</time>
      </trkpt>
      <trkpt lat="48.83794" lon="2.37432">
        <ele>92.8</ele>
        <time>2015-06-08T18:37:25.856Z</time>
      </trkpt>
      <trkpt lat="48.83799" lon="2.37441">
        <ele>92.6</ele>
        <time>2015-06-08T18:37:28.794Z</time>
      </trkpt>
      <trkpt lat="48.838" lon="2.37446">
        <ele>92.6</ele>
        <time>2015-06-08T18:37:29.812Z</time>
      </trkpt>
      <trkpt lat="48.83805" lon="2.37456">
        <ele>92.5</ele>
        <time>2015-06-08T18:37:31.858Z</time>
      </trkpt>
      <trkpt lat="48.83807" lon="2.37461">
        <ele>92.5</ele>
        <time>2015-06-08T18:37:32.862Z</time>
      </trkpt>
      <trkpt lat="48.83811" lon="2.37468">
        <ele>92.4</ele>
        <time>2015-06-08T18:37:34.763Z</time>
      </trkpt>
      <trkpt lat="48.83813" lon="2.37472">
        <ele>92.3</ele>
        <time>2015-06-08T18:37:35.778Z</time>
      </trkpt>
      <trkpt lat="48.83817" lon="2.3748">
        <ele>92.1</ele>
        <time>2015-06-08T18:37:37.767Z</time>
      </trkpt>
      <trkpt lat="48.83819" lon="2.37484">
        <ele>92</ele>
        <time>2015-06-08T18:37:38.824Z</time>
      </trkpt>
      <trkpt lat="48.83823" lon="2.37492">
        <ele>92.2</ele>
        <time>2015-06-08T18:37:40.759Z</time>
      </trkpt>
      <trkpt lat="48.83825" lon="2.37497">
        <ele>92.1</ele>
        <time>2015-06-08T18:37:41.779Z</time>
      </trkpt>
      <trkpt lat="48.83828" lon="2.37505">
        <ele>92.2</ele>
        <time>2015-06-08T18:37:43.805Z</time>
      </trkpt>
      <trkpt lat="48.8383" lon="2.37509">
        <ele>92.1</ele>
        <time>2015-06-08T18:37:44.834Z</time>
      </trkpt>
      <trkpt lat="48.83833" lon="2.37518">
        <ele>92.1</ele>
        <time>2015-06-08T18:37:46.750Z</time>
      </trkpt>
      <trkpt lat="48.83835" lon="2.37523">
        <ele>92.2</ele>
        <time>2015-06-08T18:37:47.763Z</time>
      </trkpt>
      <trkpt lat="48.83841" lon="2.37528">
        <ele>92.2</ele>
        <time>2015-06-08T18:37:49.780Z</time>
      </trkpt>
      <trkpt lat="48.83844" lon="2.37531">
        <ele>92.3</ele>
        <time>2015-06-08T18:37:50.794Z</time>
      </trkpt>
      <trkpt lat="48.83847" lon="2.37541">
        <ele>93.2</ele>
        <time>2015-06-08T18:37:52.815Z</time>
      </trkpt>
      <trkpt lat="48.8385" lon="2.3755">
        <ele>94.4</ele>
        <time>2015-06-08T18:37:53.710Z</time>
      </trkpt>
      <trkpt lat="48.8385" lon="2.3755">
        <ele>94.4</ele>
        <time>2015-06-08T18:42:13.843Z</time>
      </trkpt>
      <trkpt lat="48.83836" lon="2.37599">
        <ele>87.9</ele>
        <time>2015-06-08T18:42:14.900Z</time>
      </trkpt>
      <trkpt lat="48.8383" lon="2.37608">
        <ele>87.9</ele>
        <time>2015-06-08T18:42:17.882Z</time>
      </trkpt>
      <trkpt lat="48.83829" lon="2.37611">
        <ele>88.1</ele>
        <time>2015-06-08T18:42:18.781Z</time>
      </trkpt>
      <trkpt lat="48.83822" lon="2.37619">
        <ele>88.3</ele>
        <time>2015-06-08T18:42:21.831Z</time>
      </trkpt>
      <trkpt lat="48.83819" lon="2.37622">
        <ele>88.7</ele>
        <time>2015-06-08T18:42:22.848Z</time>
      </trkpt>
      <trkpt lat="48.83814" lon="2.37629">
        <ele>88.9</ele>
        <time>2015-06-08T18:42:24.767Z</time>
      </trkpt>
      <trkpt lat="48.83811" lon="2.37634">
        <ele>88.7</ele>
        <time>2015-06-08T18:42:25.804Z</time>
      </trkpt>
      <trkpt lat="48.83805" lon="2.37641">
        <ele>89.1</ele>
        <time>2015-06-08T18:42:27.732Z</time>
      </trkpt>
      <trkpt lat="48.83802" lon="2.37645">
        <ele>89.3</ele>
        <time>2015-06-08T18:42:28.762Z</time>
      </trkpt>
      <trkpt lat="48.83796" lon="2.37652">
        <ele>89.3</ele>
        <time>2015-06-08T18:42:30.815Z</time>
      </trkpt>
      <trkpt lat="48.83793" lon="2.37656">
        <ele>89.7</ele>
        <time>2015-06-08T18:42:31.822Z</time>
      </trkpt>
      <trkpt lat="48.83786" lon="2.37664">
        <ele>89.7</ele>
        <time>2015-06-08T18:42:33.769Z</time>
      </trkpt>
      <trkpt lat="48.83783" lon="2.37667">
        <ele>89.9</ele>
        <time>2015-06-08T18:42:34.759Z</time>
      </trkpt>
      <trkpt lat="48.83776" lon="2.37673">
        <ele>90.2</ele>
        <time>2015-06-08T18:42:36.777Z</time>
      </trkpt>
      <trkpt lat="48.83773" lon="2.37677">
        <ele>90.1</ele>
        <time>2015-06-08T18:42:37.791Z</time>
      </trkpt>
      <trkpt lat="48.83767" lon="2.37684">
        <ele>90.3</ele>
        <time>2015-06-08T18:42:39.852Z</time>
      </trkpt>
      <trkpt lat="48.83764" lon="2.37688">
        <ele>89.9</ele>
        <time>2015-06-08T18:42:40.780Z</time>
      </trkpt>
      <trkpt lat="48.83759" lon="2.37694">
        <ele>89.8</ele>
        <time>2015-06-08T18:42:42.761Z</time>
      </trkpt>
      <trkpt lat="48.83757" lon="2.37697">
        <ele>90.5</ele>
        <time>2015-06-08T18:42:43.812Z</time>
      </trkpt>
      <trkpt lat="48.8375" lon="2.37706">
        <ele>91.4</ele>
        <time>2015-06-08T18:42:46.831Z</time>
      </trkpt>
      <trkpt lat="48.83748" lon="2.37709">
        <ele>91.5</ele>
        <time>2015-06-08T18:42:47.783Z</time>
      </trkpt>
      <trkpt lat="48.83743" lon="2.37714">
        <ele>91.5</ele>
        <time>2015-06-08T18:42:49.843Z</time>
      </trkpt>
      <trkpt lat="48.8374" lon="2.37717">
        <ele>91.4</ele>
        <time>2015-06-08T18:42:50.889Z</time>
      </trkpt>
      <trkpt lat="48.83733" lon="2.37724">
        <ele>91.4</ele>
        <time>2015-06-08T18:42:52.774Z</time>
      </trkpt>
      <trkpt lat="48.8373" lon="2.37728">
        <ele>91.5</ele>
        <time>2015-06-08T18:42:53.785Z</time>
      </trkpt>
      <trkpt lat="48.83723" lon="2.37734">
        <ele>91.5</ele>
        <time>2015-06-08T18:42:55.813Z</time>
      </trkpt>
      <trkpt lat="48.83721" lon="2.37737">
        <ele>91.6</ele>
        <time>2015-06-08T18:42:56.824Z</time>
      </trkpt>
      <trkpt lat="48.83715" lon="2.37744">
        <ele>91.7</ele>
        <time>2015-06-08T18:42:58.784Z</time>
      </trkpt>
      <trkpt lat="48.83712" lon="2.37748">
        <ele>91.4</ele>
        <time>2015-06-08T18:42:59.777Z</time>
      </trkpt>
      <trkpt lat="48.83706" lon="2.37755">
        <ele>91.1</ele>
        <time>2015-06-08T18:43:01.829Z</time>
      </trkpt>
      <trkpt lat="48.83702" lon="2.37758">
        <ele>91.1</ele>
        <time>2015-06-08T18:43:02.861Z</time>
      </trkpt>
      <trkpt lat="48.83697" lon="2.37766">
        <ele>90.8</ele>
        <time>2015-06-08T18:43:04.788Z</time>
      </trkpt>
      <trkpt lat="48.83694" lon="2.37769">
        <ele>90.6</ele>
        <time>2015-06-08T18:43:05.820Z</time>
      </trkpt>
      <trkpt lat="48.83688" lon="2.37778">
        <ele>90.8</ele>
        <time>2015-06-08T18:43:07.761Z</time>
      </trkpt>
      <trkpt lat="48.83685" lon="2.37782">
        <ele>90.6</ele>
        <time>2015-06-08T18:43:08.815Z</time>
      </trkpt>
      <trkpt lat="48.83679" lon="2.37789">
        <ele>90.5</ele>
        <time>2015-06-08T18:43:10.751Z</time>
      </trkpt>
      <trkpt lat="48.83676" lon="2.37794">
        <ele>90.9</ele>
        <time>2015-06-08T18:43:11.787Z</time>
      </trkpt>
      <trkpt lat="48.8367" lon="2.37803">
        <ele>91.5</ele>
        <time>2015-06-08T18:43:13.815Z</time>
      </trkpt>
      <trkpt lat="48.83667" lon="2.37806">
        <ele>91.6</ele>
        <time>2015-06-08T18:43:14.841Z</time>
      </trkpt>
      <trkpt lat="48.83662" lon="2.37814">
        <ele>91.4</ele>
        <time>2015-06-08T18:43:16.767Z</time>
      </trkpt>
      <trkpt lat="48.83659" lon="2.37817">
        <ele>91.4</ele>
        <time>2015-06-08T18:43:17.802Z</time>
      </trkpt>
      <trkpt lat="48.83654" lon="2.37825">
        <ele>91.4</ele>
        <time>2015-06-08T18:43:19.769Z</time>
      </trkpt>
      <trkpt lat="48.8365" lon="2.3783">
        <ele>91.1</ele>
        <time>2015-06-08T18:43:20.824Z</time>
      </trkpt>
      <trkpt lat="48.83646" lon="2.37834">
        <ele>90.7</ele>
        <time>2015-06-08T18:43:21.837Z</time>
      </trkpt>
      <trkpt lat="48.83643" lon="2.37838">
        <ele>90.6</ele>
        <time>2015-06-08T18:43:22.845Z</time>
      </trkpt>
      <trkpt lat="48.83638" lon="2.37845">
        <ele>91.4</ele>
        <time>2015-06-08T18:43:24.778Z</time>
      </trkpt>
      <trkpt lat="48.83634" lon="2.3785">
        <ele>91.8</ele>
        <time>2015-06-08T18:43:25.815Z</time>
      </trkpt>
      <trkpt lat="48.83631" lon="2.37854">
        <ele>92.1</ele>
        <time>2015-06-08T18:43:26.864Z</time>
      </trkpt>
      <trkpt lat="48.83627" lon="2.37858">
        <ele>92.3</ele>
        <time>2015-06-08T18:43:27.744Z</time>
      </trkpt>
      <trkpt lat="48.8362" lon="2.37867">
        <ele>92.3</ele>
        <time>2015-06-08T18:43:29.774Z</time>
      </trkpt>
      <trkpt lat="48.83617" lon="2.37871">
        <ele>92.1</ele>
        <time>2015-06-08T18:43:30.791Z</time>
      </trkpt>
      <trkpt lat="48.83611" lon="2.37879">
        <ele>92</ele>
        <time>2015-06-08T18:43:32.873Z</time>
      </trkpt>
      <trkpt lat="48.83608" lon="2.37883">
        <ele>92.2</ele>
        <time>2015-06-08T18:43:33.816Z</time>
      </trkpt>
      <trkpt lat="48.83602" lon="2.37892">
        <ele>92.8</ele>
        <time>2015-06-08T18:43:35.796Z</time>
      </trkpt>
      <trkpt lat="48.83599" lon="2.37896">
        <ele>92.9</ele>
        <time>2015-06-08T18:43:36.880Z</time>
      </trkpt>
      <trkpt lat="48.83594" lon="2.379">
        <ele>92.8</ele>
        <time>2015-06-08T18:43:37.775Z</time>
      </trkpt>
      <trkpt lat="48.83591" lon="2.37905">
        <ele>92.9</ele>
        <time>2015-06-08T18:43:38.847Z</time>
      </trkpt>
      <trkpt lat="48.83586" lon="2.37913">
        <ele>92.7</ele>
        <time>2015-06-08T18:43:40.831Z</time>
      </trkpt>
      <trkpt lat="48.83582" lon="2.37918">
        <ele>92.7</ele>
        <time>2015-06-08T18:43:41.889Z</time>
      </trkpt>
      <trkpt lat="48.83579" lon="2.37923">
        <ele>92.8</ele>
        <time>2015-06-08T18:43:42.763Z</time>
      </trkpt>
      <trkpt lat="48.83576" lon="2.37928">
        <ele>93.3</ele>
        <time>2015-06-08T18:43:43.847Z</time>
      </trkpt>
      <trkpt lat="48.83571" lon="2.37932">
        <ele>93.8</ele>
        <time>2015-06-08T18:43:44.854Z</time>
      </trkpt>
      <trkpt lat="48.83567" lon="2.37936">
        <ele>93.9</ele>
        <time>2015-06-08T18:43:45.918Z</time>
      </trkpt>
      <trkpt lat="48.83563" lon="2.37941">
        <ele>94.2</ele>
        <time>2015-06-08T18:43:46.775Z</time>
      </trkpt>
      <trkpt lat="48.83559" lon="2.37946">
        <ele>94.4</ele>
        <time>2015-06-08T18:43:47.787Z</time>
      </trkpt>
      <trkpt lat="48.83553" lon="2.37954">
        <ele>93.8</ele>
        <time>2015-06-08T18:43:49.779Z</time>
      </trkpt>
      <trkpt lat="48.83549" lon="2.37959">
        <ele>94</ele>
        <time>2015-06-08T18:43:50.885Z</time>
      </trkpt>
      <trkpt lat="48.83542" lon="2.37966">
        <ele>93.7</ele>
        <time>2015-06-08T18:43:52.789Z</time>
      </trkpt>
      <trkpt lat="48.83538" lon="2.37971">
        <ele>93.5</ele>
        <time>2015-06-08T18:43:53.801Z</time>
      </trkpt>
      <trkpt lat="48.83535" lon="2.37976">
        <ele>93.6</ele>
        <time>2015-06-08T18:43:54.842Z</time>
      </trkpt>
      <trkpt lat="48.83531" lon="2.37981">
        <ele>93.7</ele>
        <time>2015-06-08T18:43:55.852Z</time>
      </trkpt>
      <trkpt lat="48.83528" lon="2.37985">
        <ele>93.8</ele>
        <time>2015-06-08T18:43:56.865Z</time>
      </trkpt>
      <trkpt lat="48.83524" lon="2.37989">
        <ele>93.8</ele>
        <time>2015-06-08T18:43:57.782Z</time>
      </trkpt>
      <trkpt lat="48.83521" lon="2.37995">
        <ele>94</ele>
        <time>2015-06-08T18:43:58.791Z</time>
      </trkpt>
      <trkpt lat="48.83518" lon="2.38">
        <ele>94.1</ele>
        <time>2015-06-08T18:43:59.804Z</time>
      </trkpt>
      <trkpt lat="48.83514" lon="2.38003">
        <ele>93.9</ele>
        <time>2015-06-08T18:44:00.820Z</time>
      </trkpt>
      <trkpt lat="48.8351" lon="2.38007">
        <ele>93.7</ele>
        <time>2015-06-08T18:44:01.833Z</time>
      </trkpt>
      <trkpt lat="48.83503" lon="2.38015">
        <ele>93.4</ele>
        <time>2015-06-08T18:44:03.785Z</time>
      </trkpt>
      <trkpt lat="48.83499" lon="2.38018">
        <ele>93.1</ele>
        <time>2015-06-08T18:44:04.819Z</time>
      </trkpt>
      <trkpt lat="48.83493" lon="2.38026">
        <ele>93</ele>
        <time>2015-06-08T18:44:06.780Z</time>
      </trkpt>
      <trkpt lat="48.83489" lon="2.3803">
        <ele>92.8</ele>
        <time>2015-06-08T18:44:07.788Z</time>
      </trkpt>
      <trkpt lat="48.83483" lon="2.38038">
        <ele>92.9</ele>
        <time>2015-06-08T18:44:09.811Z</time>
      </trkpt>
      <trkpt lat="48.83479" lon="2.38042">
        <ele>93</ele>
        <time>2015-06-08T18:44:10.826Z</time>
      </trkpt>
      <trkpt lat="48.83476" lon="2.38047">
        <ele>93.4</ele>
        <time>2015-06-08T18:44:11.793Z</time>
      </trkpt>
      <trkpt lat="48.83472" lon="2.38052">
        <ele>93.5</ele>
        <time>2015-06-08T18:44:12.788Z</time>
      </trkpt>
      <trkpt lat="48.83469" lon="2.38057">
        <ele>93.7</ele>
        <time>2015-06-08T18:44:13.814Z</time>
      </trkpt>
      <trkpt lat="48.83465" lon="2.38061">
        <ele>93.9</ele>
        <time>2015-06-08T18:44:14.841Z</time>
      </trkpt>
      <trkpt lat="48.83458" lon="2.38069">
        <ele>93.7</ele>
        <time>2015-06-08T18:44:16.753Z</time>
      </trkpt>
      <trkpt lat="48.83454" lon="2.38073">
        <ele>93.6</ele>
        <time>2015-06-08T18:44:17.781Z</time>
      </trkpt>
      <trkpt lat="48.83448" lon="2.38083">
        <ele>93.6</ele>
        <time>2015-06-08T18:44:19.812Z</time>
      </trkpt>
      <trkpt lat="48.83444" lon="2.38088">
        <ele>93.2</ele>
        <time>2015-06-08T18:44:20.931Z</time>
      </trkpt>
      <trkpt lat="48.8344" lon="2.38092">
        <ele>92.9</ele>
        <time>2015-06-08T18:44:21.768Z</time>
      </trkpt>
      <trkpt lat="48.83436" lon="2.38097">
        <ele>92.6</ele>
        <time>2015-06-08T18:44:22.776Z</time>
      </trkpt>
      <trkpt lat="48.83433" lon="2.38101">
        <ele>92.2</ele>
        <time>2015-06-08T18:44:23.753Z</time>
      </trkpt>
      <trkpt lat="48.83429" lon="2.38105">
        <ele>91.9</ele>
        <time>2015-06-08T18:44:24.762Z</time>
      </trkpt>
      <trkpt lat="48.83422" lon="2.38114">
        <ele>91.4</ele>
        <time>2015-06-08T18:44:26.834Z</time>
      </trkpt>
      <trkpt lat="48.83419" lon="2.38118">
        <ele>91.2</ele>
        <time>2015-06-08T18:44:27.784Z</time>
      </trkpt>
      <trkpt lat="48.83416" lon="2.38123">
        <ele>91.2</ele>
        <time>2015-06-08T18:44:28.764Z</time>
      </trkpt>
      <trkpt lat="48.83412" lon="2.38128">
        <ele>91.4</ele>
        <time>2015-06-08T18:44:29.770Z</time>
      </trkpt>
      <trkpt lat="48.83409" lon="2.38133">
        <ele>91.2</ele>
        <time>2015-06-08T18:44:30.776Z</time>
      </trkpt>
      <trkpt lat="48.83406" lon="2.38138">
        <ele>90.9</ele>
        <time>2015-06-08T18:44:31.789Z</time>
      </trkpt>
      <trkpt lat="48.83399" lon="2.38146">
        <ele>90.2</ele>
        <time>2015-06-08T18:44:33.752Z</time>
      </trkpt>
      <trkpt lat="48.83396" lon="2.3815">
        <ele>90.1</ele>
        <time>2015-06-08T18:44:34.785Z</time>
      </trkpt>
      <trkpt lat="48.83389" lon="2.38158">
        <ele>90.4</ele>
        <time>2015-06-08T18:44:36.912Z</time>
      </trkpt>
      <trkpt lat="48.83386" lon="2.38162">
        <ele>90.3</ele>
        <time>2015-06-08T18:44:37.818Z</time>
      </trkpt>
      <trkpt lat="48.8338" lon="2.38171">
        <ele>90.8</ele>
        <time>2015-06-08T18:44:39.728Z</time>
      </trkpt>
      <trkpt lat="48.83376" lon="2.38175">
        <ele>91.1</ele>
        <time>2015-06-08T18:44:40.742Z</time>
      </trkpt>
      <trkpt lat="48.83372" lon="2.38179">
        <ele>91</ele>
        <time>2015-06-08T18:44:41.758Z</time>
      </trkpt>
      <trkpt lat="48.83369" lon="2.38183">
        <ele>91.2</ele>
        <time>2015-06-08T18:44:42.774Z</time>
      </trkpt>
      <trkpt lat="48.83362" lon="2.38191">
        <ele>91.2</ele>
        <time>2015-06-08T18:44:44.863Z</time>
      </trkpt>
      <trkpt lat="48.83358" lon="2.38195">
        <ele>91</ele>
        <time>2015-06-08T18:44:45.744Z</time>
      </trkpt>
      <trkpt lat="48.83355" lon="2.382">
        <ele>91</ele>
        <time>2015-06-08T18:44:46.740Z</time>
      </trkpt>
      <trkpt lat="48.83351" lon="2.38205">
        <ele>91</ele>
        <time>2015-06-08T18:44:47.754Z</time>
      </trkpt>
      <trkpt lat="48.83345" lon="2.38215">
        <ele>91.2</ele>
        <time>2015-06-08T18:44:49.802Z</time>
      </trkpt>
      <trkpt lat="48.83341" lon="2.38219">
        <ele>91.2</ele>
        <time>2015-06-08T18:44:50.823Z</time>
      </trkpt>
      <trkpt lat="48.83337" lon="2.38223">
        <ele>91.3</ele>
        <time>2015-06-08T18:44:51.742Z</time>
      </trkpt>
      <trkpt lat="48.83333" lon="2.38227">
        <ele>91.4</ele>
        <time>2015-06-08T18:44:52.740Z</time>
      </trkpt>
      <trkpt lat="48.83328" lon="2.38231">
        <ele>91.2</ele>
        <time>2015-06-08T18:44:53.749Z</time>
      </trkpt>
      <trkpt lat="48.83323" lon="2.38235">
        <ele>91.1</ele>
        <time>2015-06-08T18:44:54.768Z</time>
      </trkpt>
      <trkpt lat="48.8332" lon="2.3824">
        <ele>91</ele>
        <time>2015-06-08T18:44:56.461Z</time>
      </trkpt>
      <trkpt lat="48.83316" lon="2.38244">
        <ele>90.9</ele>
        <time>2015-06-08T18:44:56.814Z</time>
      </trkpt>
      <trkpt lat="48.83312" lon="2.38249">
        <ele>90.9</ele>
        <time>2015-06-08T18:44:57.730Z</time>
      </trkpt>
      <trkpt lat="48.83308" lon="2.38253">
        <ele>90.6</ele>
        <time>2015-06-08T18:44:58.844Z</time>
      </trkpt>
      <trkpt lat="48.83304" lon="2.38259">
        <ele>90.5</ele>
        <time>2015-06-08T18:44:59.760Z</time>
      </trkpt>
      <trkpt lat="48.833" lon="2.38264">
        <ele>90.5</ele>
        <time>2015-06-08T18:45:00.768Z</time>
      </trkpt>
      <trkpt lat="48.83296" lon="2.38269">
        <ele>90.3</ele>
        <time>2015-06-08T18:45:02.024Z</time>
      </trkpt>
      <trkpt lat="48.83292" lon="2.38275">
        <ele>90.1</ele>
        <time>2015-06-08T18:45:02.830Z</time>
      </trkpt>
      <trkpt lat="48.83287" lon="2.3828">
        <ele>89.8</ele>
        <time>2015-06-08T18:45:03.829Z</time>
      </trkpt>
      <trkpt lat="48.83283" lon="2.38286">
        <ele>89.3</ele>
        <time>2015-06-08T18:45:04.775Z</time>
      </trkpt>
      <trkpt lat="48.83279" lon="2.38291">
        <ele>89.1</ele>
        <time>2015-06-08T18:45:05.755Z</time>
      </trkpt>
      <trkpt lat="48.83276" lon="2.38296">
        <ele>89.1</ele>
        <time>2015-06-08T18:45:06.766Z</time>
      </trkpt>
      <trkpt lat="48.83271" lon="2.38302">
        <ele>88.8</ele>
        <time>2015-06-08T18:45:07.764Z</time>
      </trkpt>
      <trkpt lat="48.83267" lon="2.38307">
        <ele>88.1</ele>
        <time>2015-06-08T18:45:08.796Z</time>
      </trkpt>
      <trkpt lat="48.83263" lon="2.38312">
        <ele>87.9</ele>
        <time>2015-06-08T18:45:09.804Z</time>
      </trkpt>
      <trkpt lat="48.83259" lon="2.38317">
        <ele>87.8</ele>
        <time>2015-06-08T18:45:10.813Z</time>
      </trkpt>
      <trkpt lat="48.83256" lon="2.38322">
        <ele>87.7</ele>
        <time>2015-06-08T18:45:11.833Z</time>
      </trkpt>
      <trkpt lat="48.83253" lon="2.38327">
        <ele>88.2</ele>
        <time>2015-06-08T18:45:12.749Z</time>
      </trkpt>
      <trkpt lat="48.83246" lon="2.38336">
        <ele>88.4</ele>
        <time>2015-06-08T18:45:14.887Z</time>
      </trkpt>
      <trkpt lat="48.83243" lon="2.3834">
        <ele>88.3</ele>
        <time>2015-06-08T18:45:15.788Z</time>
      </trkpt>
      <trkpt lat="48.83237" lon="2.38347">
        <ele>88.3</ele>
        <time>2015-06-08T18:45:17.808Z</time>
      </trkpt>
      <trkpt lat="48.83234" lon="2.3835">
        <ele>88.5</ele>
        <time>2015-06-08T18:45:18.731Z</time>
      </trkpt>
      <trkpt lat="48.83226" lon="2.38357">
        <ele>89</ele>
        <time>2015-06-08T18:45:20.819Z</time>
      </trkpt>
      <trkpt lat="48.83223" lon="2.38361">
        <ele>89.3</ele>
        <time>2015-06-08T18:45:21.823Z</time>
      </trkpt>
      <trkpt lat="48.83217" lon="2.38369">
        <ele>89.3</ele>
        <time>2015-06-08T18:45:23.767Z</time>
      </trkpt>
      <trkpt lat="48.83213" lon="2.38374">
        <ele>89.5</ele>
        <time>2015-06-08T18:45:24.768Z</time>
      </trkpt>
      <trkpt lat="48.83209" lon="2.38379">
        <ele>89.3</ele>
        <time>2015-06-08T18:45:25.786Z</time>
      </trkpt>
      <trkpt lat="48.83206" lon="2.38385">
        <ele>88.9</ele>
        <time>2015-06-08T18:45:26.798Z</time>
      </trkpt>
      <trkpt lat="48.83202" lon="2.3839">
        <ele>88.1</ele>
        <time>2015-06-08T18:45:27.850Z</time>
      </trkpt>
      <trkpt lat="48.83198" lon="2.38396">
        <ele>87.8</ele>
        <time>2015-06-08T18:45:28.754Z</time>
      </trkpt>
      <trkpt lat="48.83193" lon="2.38403">
        <ele>88.1</ele>
        <time>2015-06-08T18:45:30.763Z</time>
      </trkpt>
      <trkpt lat="48.83191" lon="2.38407">
        <ele>88.4</ele>
        <time>2015-06-08T18:45:31.781Z</time>
      </trkpt>
      <trkpt lat="48.83185" lon="2.38414">
        <ele>89</ele>
        <time>2015-06-08T18:45:33.881Z</time>
      </trkpt>
      <trkpt lat="48.83183" lon="2.38417">
        <ele>89.3</ele>
        <time>2015-06-08T18:45:34.746Z</time>
      </trkpt>
      <trkpt lat="48.83178" lon="2.38425">
        <ele>89.7</ele>
        <time>2015-06-08T18:45:36.750Z</time>
      </trkpt>
      <trkpt lat="48.83176" lon="2.38428">
        <ele>89.8</ele>
        <time>2015-06-08T18:45:37.747Z</time>
      </trkpt>
      <trkpt lat="48.83171" lon="2.38434">
        <ele>90.3</ele>
        <time>2015-06-08T18:45:39.796Z</time>
      </trkpt>
      <trkpt lat="48.83169" lon="2.38437">
        <ele>90.4</ele>
        <time>2015-06-08T18:45:40.809Z</time>
      </trkpt>
      <trkpt lat="48.83164" lon="2.38442">
        <ele>90.7</ele>
        <time>2015-06-08T18:45:42.761Z</time>
      </trkpt>
      <trkpt lat="48.83161" lon="2.38446">
        <ele>91</ele>
        <time>2015-06-08T18:45:43.828Z</time>
      </trkpt>
      <trkpt lat="48.83155" lon="2.38454">
        <ele>91.5</ele>
        <time>2015-06-08T18:45:46.691Z</time>
      </trkpt>
      <trkpt lat="48.83153" lon="2.38459">
        <ele>91.6</ele>
        <time>2015-06-08T18:45:46.802Z</time>
      </trkpt>
      <trkpt lat="48.83149" lon="2.38464">
        <ele>91.6</ele>
        <time>2015-06-08T18:45:47.876Z</time>
      </trkpt>
      <trkpt lat="48.83146" lon="2.38469">
        <ele>91.6</ele>
        <time>2015-06-08T18:45:48.819Z</time>
      </trkpt>
      <trkpt lat="48.8314" lon="2.38477">
        <ele>92</ele>
        <time>2015-06-08T18:45:50.814Z</time>
      </trkpt>
      <trkpt lat="48.83136" lon="2.38481">
        <ele>92.2</ele>
        <time>2015-06-08T18:45:51.795Z</time>
      </trkpt>
      <trkpt lat="48.83133" lon="2.38485">
        <ele>92.4</ele>
        <time>2015-06-08T18:45:52.778Z</time>
      </trkpt>
      <trkpt lat="48.83129" lon="2.3849">
        <ele>92.4</ele>
        <time>2015-06-08T18:45:53.789Z</time>
      </trkpt>
      <trkpt lat="48.83125" lon="2.38495">
        <ele>92.7</ele>
        <time>2015-06-08T18:45:54.775Z</time>
      </trkpt>
      <trkpt lat="48.83121" lon="2.385">
        <ele>92.8</ele>
        <time>2015-06-08T18:45:55.767Z</time>
      </trkpt>
      <trkpt lat="48.83118" lon="2.38505">
        <ele>92.6</ele>
        <time>2015-06-08T18:45:56.862Z</time>
      </trkpt>
      <trkpt lat="48.83113" lon="2.3851">
        <ele>92.6</ele>
        <time>2015-06-08T18:45:57.807Z</time>
      </trkpt>
      <trkpt lat="48.8311" lon="2.38515">
        <ele>92.4</ele>
        <time>2015-06-08T18:45:58.824Z</time>
      </trkpt>
      <trkpt lat="48.83106" lon="2.38519">
        <ele>92.3</ele>
        <time>2015-06-08T18:45:59.753Z</time>
      </trkpt>
      <trkpt lat="48.83099" lon="2.38527">
        <ele>92.1</ele>
        <time>2015-06-08T18:46:02.014Z</time>
      </trkpt>
      <trkpt lat="48.83095" lon="2.38532">
        <ele>92</ele>
        <time>2015-06-08T18:46:02.801Z</time>
      </trkpt>
      <trkpt lat="48.83092" lon="2.38537">
        <ele>91.5</ele>
        <time>2015-06-08T18:46:03.811Z</time>
      </trkpt>
      <trkpt lat="48.83088" lon="2.38542">
        <ele>91.2</ele>
        <time>2015-06-08T18:46:04.817Z</time>
      </trkpt>
      <trkpt lat="48.83084" lon="2.38548">
        <ele>91.3</ele>
        <time>2015-06-08T18:46:05.783Z</time>
      </trkpt>
      <trkpt lat="48.83081" lon="2.38552">
        <ele>91.4</ele>
        <time>2015-06-08T18:46:06.786Z</time>
      </trkpt>
      <trkpt lat="48.83073" lon="2.38559">
        <ele>91.8</ele>
        <time>2015-06-08T18:46:08.799Z</time>
      </trkpt>
      <trkpt lat="48.8307" lon="2.38564">
        <ele>91.4</ele>
        <time>2015-06-08T18:46:09.839Z</time>
      </trkpt>
      <trkpt lat="48.83063" lon="2.3857">
        <ele>91.4</ele>
        <time>2015-06-08T18:46:11.781Z</time>
      </trkpt>
      <trkpt lat="48.83059" lon="2.38574">
        <ele>91.2</ele>
        <time>2015-06-08T18:46:12.800Z</time>
      </trkpt>
      <trkpt lat="48.83055" lon="2.38579">
        <ele>90.7</ele>
        <time>2015-06-08T18:46:13.835Z</time>
      </trkpt>
      <trkpt lat="48.83052" lon="2.38584">
        <ele>90.3</ele>
        <time>2015-06-08T18:46:14.848Z</time>
      </trkpt>
      <trkpt lat="48.83045" lon="2.38592">
        <ele>90.6</ele>
        <time>2015-06-08T18:46:16.767Z</time>
      </trkpt>
      <trkpt lat="48.83043" lon="2.38596">
        <ele>90.6</ele>
        <time>2015-06-08T18:46:17.798Z</time>
      </trkpt>
      <trkpt lat="48.83037" lon="2.38603">
        <ele>91.4</ele>
        <time>2015-06-08T18:46:19.776Z</time>
      </trkpt>
      <trkpt lat="48.83035" lon="2.38607">
        <ele>91.6</ele>
        <time>2015-06-08T18:46:20.820Z</time>
      </trkpt>
      <trkpt lat="48.8303" lon="2.38614">
        <ele>92</ele>
        <time>2015-06-08T18:46:22.759Z</time>
      </trkpt>
      <trkpt lat="48.83027" lon="2.38618">
        <ele>92.2</ele>
        <time>2015-06-08T18:46:23.790Z</time>
      </trkpt>
      <trkpt lat="48.83021" lon="2.38625">
        <ele>93.3</ele>
        <time>2015-06-08T18:46:25.805Z</time>
      </trkpt>
      <trkpt lat="48.83018" lon="2.38629">
        <ele>93.6</ele>
        <time>2015-06-08T18:46:26.843Z</time>
      </trkpt>
      <trkpt lat="48.83013" lon="2.38636">
        <ele>93.8</ele>
        <time>2015-06-08T18:46:28.773Z</time>
      </trkpt>
      <trkpt lat="48.8301" lon="2.38639">
        <ele>93.6</ele>
        <time>2015-06-08T18:46:29.774Z</time>
      </trkpt>
      <trkpt lat="48.83005" lon="2.38645">
        <ele>94.1</ele>
        <time>2015-06-08T18:46:31.794Z</time>
      </trkpt>
      <trkpt lat="48.83002" lon="2.38649">
        <ele>94.3</ele>
        <time>2015-06-08T18:46:32.869Z</time>
      </trkpt>
      <trkpt lat="48.82997" lon="2.38656">
        <ele>94.8</ele>
        <time>2015-06-08T18:46:34.766Z</time>
      </trkpt>
      <trkpt lat="48.82994" lon="2.38659">
        <ele>95.1</ele>
        <time>2015-06-08T18:46:35.772Z</time>
      </trkpt>
      <trkpt lat="48.82991" lon="2.38663">
        <ele>95.3</ele>
        <time>2015-06-08T18:46:36.778Z</time>
      </trkpt>
      <trkpt lat="48.82987" lon="2.38668">
        <ele>95.8</ele>
        <time>2015-06-08T18:46:37.893Z</time>
      </trkpt>
      <trkpt lat="48.82982" lon="2.38673">
        <ele>95.8</ele>
        <time>2015-06-08T18:46:38.788Z</time>
      </trkpt>
      <trkpt lat="48.82977" lon="2.38678">
        <ele>95.8</ele>
        <time>2015-06-08T18:46:39.789Z</time>
      </trkpt>
      <trkpt lat="48.82972" lon="2.38682">
        <ele>95.6</ele>
        <time>2015-06-08T18:46:40.796Z</time>
      </trkpt>
      <trkpt lat="48.82966" lon="2.38685">
        <ele>95.4</ele>
        <time>2015-06-08T18:46:41.807Z</time>
      </trkpt>
      <trkpt lat="48.82961" lon="2.3869">
        <ele>95.4</ele>
        <time>2015-06-08T18:46:42.739Z</time>
      </trkpt>
      <trkpt lat="48.82956" lon="2.38692">
        <ele>95.5</ele>
        <time>2015-06-08T18:46:43.757Z</time>
      </trkpt>
      <trkpt lat="48.82952" lon="2.38696">
        <ele>95.7</ele>
        <time>2015-06-08T18:46:44.862Z</time>
      </trkpt>
      <trkpt lat="48.82947" lon="2.387">
        <ele>95.7</ele>
        <time>2015-06-08T18:46:45.751Z</time>
      </trkpt>
      <trkpt lat="48.82942" lon="2.38704">
        <ele>96.1</ele>
        <time>2015-06-08T18:46:46.762Z</time>
      </trkpt>
      <trkpt lat="48.82938" lon="2.38708">
        <ele>96.2</ele>
        <time>2015-06-08T18:46:47.773Z</time>
      </trkpt>
      <trkpt lat="48.82934" lon="2.38712">
        <ele>96.2</ele>
        <time>2015-06-08T18:46:48.776Z</time>
      </trkpt>
      <trkpt lat="48.82929" lon="2.38715">
        <ele>96.3</ele>
        <time>2015-06-08T18:46:49.785Z</time>
      </trkpt>
      <trkpt lat="48.82925" lon="2.38718">
        <ele>96.3</ele>
        <time>2015-06-08T18:46:50.797Z</time>
      </trkpt>
      <trkpt lat="48.8292" lon="2.38719">
        <ele>95.7</ele>
        <time>2015-06-08T18:46:51.803Z</time>
      </trkpt>
      <trkpt lat="48.82915" lon="2.38721">
        <ele>95.5</ele>
        <time>2015-06-08T18:46:52.816Z</time>
      </trkpt>
      <trkpt lat="48.8291" lon="2.38722">
        <ele>95.4</ele>
        <time>2015-06-08T18:46:53.829Z</time>
      </trkpt>
      <trkpt lat="48.82906" lon="2.38725">
        <ele>95.4</ele>
        <time>2015-06-08T18:46:54.834Z</time>
      </trkpt>
      <trkpt lat="48.82902" lon="2.38728">
        <ele>95.2</ele>
        <time>2015-06-08T18:46:55.840Z</time>
      </trkpt>
      <trkpt lat="48.82895" lon="2.38735">
        <ele>94.7</ele>
        <time>2015-06-08T18:46:57.753Z</time>
      </trkpt>
      <trkpt lat="48.82891" lon="2.38739">
        <ele>94.6</ele>
        <time>2015-06-08T18:46:58.866Z</time>
      </trkpt>
      <trkpt lat="48.82884" lon="2.38745">
        <ele>94.7</ele>
        <time>2015-06-08T18:47:00.772Z</time>
      </trkpt>
      <trkpt lat="48.82879" lon="2.38748">
        <ele>94.6</ele>
        <time>2015-06-08T18:47:01.796Z</time>
      </trkpt>
      <trkpt lat="48.82872" lon="2.38754">
        <ele>94</ele>
        <time>2015-06-08T18:47:03.744Z</time>
      </trkpt>
      <trkpt lat="48.82868" lon="2.38758">
        <ele>94</ele>
        <time>2015-06-08T18:47:04.719Z</time>
      </trkpt>
      <trkpt lat="48.82861" lon="2.38764">
        <ele>93.1</ele>
        <time>2015-06-08T18:47:06.771Z</time>
      </trkpt>
      <trkpt lat="48.82858" lon="2.38768">
        <ele>92.4</ele>
        <time>2015-06-08T18:47:07.784Z</time>
      </trkpt>
      <trkpt lat="48.82852" lon="2.38774">
        <ele>90.8</ele>
        <time>2015-06-08T18:47:09.781Z</time>
      </trkpt>
      <trkpt lat="48.82849" lon="2.38777">
        <ele>90.7</ele>
        <time>2015-06-08T18:47:10.796Z</time>
      </trkpt>
      <trkpt lat="48.82843" lon="2.38783">
        <ele>90.3</ele>
        <time>2015-06-08T18:47:12.744Z</time>
      </trkpt>
      <trkpt lat="48.8283" lon="2.38799">
        <ele>90.2</ele>
        <time>2015-06-08T18:47:16.771Z</time>
      </trkpt>
      <trkpt lat="48.82824" lon="2.38807">
        <ele>89.8</ele>
        <time>2015-06-08T18:47:18.747Z</time>
      </trkpt>
      <trkpt lat="48.82822" lon="2.38812">
        <ele>89.1</ele>
        <time>2015-06-08T18:47:19.754Z</time>
      </trkpt>
      <trkpt lat="48.82816" lon="2.38819">
        <ele>88.9</ele>
        <time>2015-06-08T18:47:21.782Z</time>
      </trkpt>
      <trkpt lat="48.82814" lon="2.38821">
        <ele>89.3</ele>
        <time>2015-06-08T18:47:22.800Z</time>
      </trkpt>
      <trkpt lat="48.82808" lon="2.3883">
        <ele>88.5</ele>
        <time>2015-06-08T18:47:25.856Z</time>
      </trkpt>
      <trkpt lat="48.82806" lon="2.38834">
        <ele>88.5</ele>
        <time>2015-06-08T18:47:26.870Z</time>
      </trkpt>
      <trkpt lat="48.82801" lon="2.38841">
        <ele>88.8</ele>
        <time>2015-06-08T18:47:28.758Z</time>
      </trkpt>
      <trkpt lat="48.82799" lon="2.38845">
        <ele>88.8</ele>
        <time>2015-06-08T18:47:29.800Z</time>
      </trkpt>
      <trkpt lat="48.82793" lon="2.38855">
        <ele>88.9</ele>
        <time>2015-06-08T18:47:32.803Z</time>
      </trkpt>
      <trkpt lat="48.82791" lon="2.38858">
        <ele>89.2</ele>
        <time>2015-06-08T18:47:33.828Z</time>
      </trkpt>
      <trkpt lat="48.82788" lon="2.38864">
        <ele>89.2</ele>
        <time>2015-06-08T18:47:35.768Z</time>
      </trkpt>
      <trkpt lat="48.82785" lon="2.38868">
        <ele>89.2</ele>
        <time>2015-06-08T18:47:36.857Z</time>
      </trkpt>
      <trkpt lat="48.82778" lon="2.38877">
        <ele>89.3</ele>
        <time>2015-06-08T18:47:39.858Z</time>
      </trkpt>
      <trkpt lat="48.82776" lon="2.38879">
        <ele>89.1</ele>
        <time>2015-06-08T18:47:40.798Z</time>
      </trkpt>
      <trkpt lat="48.8277" lon="2.38888">
        <ele>89</ele>
        <time>2015-06-08T18:47:43.850Z</time>
      </trkpt>
      <trkpt lat="48.82768" lon="2.38891">
        <ele>89.3</ele>
        <time>2015-06-08T18:47:44.855Z</time>
      </trkpt>
      <trkpt lat="48.82761" lon="2.38897">
        <ele>90</ele>
        <time>2015-06-08T18:47:48.788Z</time>
      </trkpt>
      <trkpt lat="48.8276" lon="2.38898">
        <ele>90.3</ele>
        <time>2015-06-08T18:47:49.792Z</time>
      </trkpt>
      <trkpt lat="48.82754" lon="2.38905">
        <ele>90.7</ele>
        <time>2015-06-08T18:47:53.808Z</time>
      </trkpt>
      <trkpt lat="48.82753" lon="2.38907">
        <ele>90.6</ele>
        <time>2015-06-08T18:47:54.811Z</time>
      </trkpt>
      <trkpt lat="48.82747" lon="2.38913">
        <ele>91.3</ele>
        <time>2015-06-08T18:47:57.815Z</time>
      </trkpt>
      <trkpt lat="48.82745" lon="2.38916">
        <ele>91.4</ele>
        <time>2015-06-08T18:47:58.798Z</time>
      </trkpt>
      <trkpt lat="48.82738" lon="2.38923">
        <ele>92</ele>
        <time>2015-06-08T18:48:01.791Z</time>
      </trkpt>
      <trkpt lat="48.82736" lon="2.38927">
        <ele>91.9</ele>
        <time>2015-06-08T18:48:02.884Z</time>
      </trkpt>
      <trkpt lat="48.82731" lon="2.38935">
        <ele>91.1</ele>
        <time>2015-06-08T18:48:04.775Z</time>
      </trkpt>
      <trkpt lat="48.82728" lon="2.38939">
        <ele>91.1</ele>
        <time>2015-06-08T18:48:05.784Z</time>
      </trkpt>
      <trkpt lat="48.82722" lon="2.38947">
        <ele>91.4</ele>
        <time>2015-06-08T18:48:07.803Z</time>
      </trkpt>
      <trkpt lat="48.82719" lon="2.38951">
        <ele>91.4</ele>
        <time>2015-06-08T18:48:08.848Z</time>
      </trkpt>
      <trkpt lat="48.82713" lon="2.38959">
        <ele>91.4</ele>
        <time>2015-06-08T18:48:10.809Z</time>
      </trkpt>
      <trkpt lat="48.8271" lon="2.38964">
        <ele>91.3</ele>
        <time>2015-06-08T18:48:11.828Z</time>
      </trkpt>
      <trkpt lat="48.82704" lon="2.38973">
        <ele>91.8</ele>
        <time>2015-06-08T18:48:13.790Z</time>
      </trkpt>
      <trkpt lat="48.82701" lon="2.38977">
        <ele>91.7</ele>
        <time>2015-06-08T18:48:14.845Z</time>
      </trkpt>
      <trkpt lat="48.82694" lon="2.38985">
        <ele>91.6</ele>
        <time>2015-06-08T18:48:16.767Z</time>
      </trkpt>
      <trkpt lat="48.82689" lon="2.38989">
        <ele>91.7</ele>
        <time>2015-06-08T18:48:17.795Z</time>
      </trkpt>
      <trkpt lat="48.82685" lon="2.38996">
        <ele>91.7</ele>
        <time>2015-06-08T18:48:18.820Z</time>
      </trkpt>
      <trkpt lat="48.82682" lon="2.39003">
        <ele>91.7</ele>
        <time>2015-06-08T18:48:19.834Z</time>
      </trkpt>
      <trkpt lat="48.82677" lon="2.39007">
        <ele>91.7</ele>
        <time>2015-06-08T18:48:20.844Z</time>
      </trkpt>
      <trkpt lat="48.82673" lon="2.3901">
        <ele>91.4</ele>
        <time>2015-06-08T18:48:21.851Z</time>
      </trkpt>
      <trkpt lat="48.82669" lon="2.39016">
        <ele>91.4</ele>
        <time>2015-06-08T18:48:22.772Z</time>
      </trkpt>
      <trkpt lat="48.82665" lon="2.39022">
        <ele>91.3</ele>
        <time>2015-06-08T18:48:23.769Z</time>
      </trkpt>
      <trkpt lat="48.82662" lon="2.39027">
        <ele>90.8</ele>
        <time>2015-06-08T18:48:24.774Z</time>
      </trkpt>
      <trkpt lat="48.82657" lon="2.39033">
        <ele>90.9</ele>
        <time>2015-06-08T18:48:25.797Z</time>
      </trkpt>
      <trkpt lat="48.82653" lon="2.39039">
        <ele>90.9</ele>
        <time>2015-06-08T18:48:26.832Z</time>
      </trkpt>
      <trkpt lat="48.82649" lon="2.39045">
        <ele>90.7</ele>
        <time>2015-06-08T18:48:27.846Z</time>
      </trkpt>
      <trkpt lat="48.82645" lon="2.3905">
        <ele>90.3</ele>
        <time>2015-06-08T18:48:28.853Z</time>
      </trkpt>
      <trkpt lat="48.82643" lon="2.39055">
        <ele>90</ele>
        <time>2015-06-08T18:48:29.770Z</time>
      </trkpt>
      <trkpt lat="48.82639" lon="2.39061">
        <ele>89.8</ele>
        <time>2015-06-08T18:48:30.770Z</time>
      </trkpt>
      <trkpt lat="48.82635" lon="2.39066">
        <ele>89.4</ele>
        <time>2015-06-08T18:48:31.779Z</time>
      </trkpt>
      <trkpt lat="48.82629" lon="2.39074">
        <ele>89.4</ele>
        <time>2015-06-08T18:48:33.829Z</time>
      </trkpt>
      <trkpt lat="48.82626" lon="2.39078">
        <ele>89.6</ele>
        <time>2015-06-08T18:48:34.837Z</time>
      </trkpt>
      <trkpt lat="48.8262" lon="2.39084">
        <ele>89.7</ele>
        <time>2015-06-08T18:48:36.775Z</time>
      </trkpt>
      <trkpt lat="48.82617" lon="2.39087">
        <ele>89.6</ele>
        <time>2015-06-08T18:48:37.771Z</time>
      </trkpt>
      <trkpt lat="48.82612" lon="2.39093">
        <ele>89</ele>
        <time>2015-06-08T18:48:39.846Z</time>
      </trkpt>
      <trkpt lat="48.8261" lon="2.39096">
        <ele>89.2</ele>
        <time>2015-06-08T18:48:40.743Z</time>
      </trkpt>
      <trkpt lat="48.82605" lon="2.39103">
        <ele>89.6</ele>
        <time>2015-06-08T18:48:42.798Z</time>
      </trkpt>
      <trkpt lat="48.82602" lon="2.39107">
        <ele>89.5</ele>
        <time>2015-06-08T18:48:43.875Z</time>
      </trkpt>
      <trkpt lat="48.82596" lon="2.39113">
        <ele>89.4</ele>
        <time>2015-06-08T18:48:45.265Z</time>
      </trkpt>
      <trkpt lat="48.82594" lon="2.39116">
        <ele>89.3</ele>
        <time>2015-06-08T18:48:46.817Z</time>
      </trkpt>
      <trkpt lat="48.82588" lon="2.39122">
        <ele>89</ele>
        <time>2015-06-08T18:48:48.850Z</time>
      </trkpt>
      <trkpt lat="48.82585" lon="2.39126">
        <ele>89</ele>
        <time>2015-06-08T18:48:49.734Z</time>
      </trkpt>
      <trkpt lat="48.82579" lon="2.39132">
        <ele>88.9</ele>
        <time>2015-06-08T18:48:51.782Z</time>
      </trkpt>
      <trkpt lat="48.82576" lon="2.39136">
        <ele>88.8</ele>
        <time>2015-06-08T18:48:52.803Z</time>
      </trkpt>
      <trkpt lat="48.82569" lon="2.39145">
        <ele>88.1</ele>
        <time>2015-06-08T18:48:54.811Z</time>
      </trkpt>
      <trkpt lat="48.82566" lon="2.3915">
        <ele>88</ele>
        <time>2015-06-08T18:48:55.816Z</time>
      </trkpt>
      <trkpt lat="48.82563" lon="2.39156">
        <ele>88</ele>
        <time>2015-06-08T18:48:56.832Z</time>
      </trkpt>
      <trkpt lat="48.8256" lon="2.39161">
        <ele>87.8</ele>
        <time>2015-06-08T18:48:57.834Z</time>
      </trkpt>
      <trkpt lat="48.82556" lon="2.39166">
        <ele>87.8</ele>
        <time>2015-06-08T18:48:58.846Z</time>
      </trkpt>
      <trkpt lat="48.82552" lon="2.39171">
        <ele>87.7</ele>
        <time>2015-06-08T18:48:59.848Z</time>
      </trkpt>
      <trkpt lat="48.82549" lon="2.39177">
        <ele>87.6</ele>
        <time>2015-06-08T18:49:00.774Z</time>
      </trkpt>
      <trkpt lat="48.82544" lon="2.39183">
        <ele>87.6</ele>
        <time>2015-06-08T18:49:01.776Z</time>
      </trkpt>
      <trkpt lat="48.8254" lon="2.39189">
        <ele>87.5</ele>
        <time>2015-06-08T18:49:02.805Z</time>
      </trkpt>
      <trkpt lat="48.82536" lon="2.39195">
        <ele>87.4</ele>
        <time>2015-06-08T18:49:03.757Z</time>
      </trkpt>
      <trkpt lat="48.82532" lon="2.39202">
        <ele>87.3</ele>
        <time>2015-06-08T18:49:04.745Z</time>
      </trkpt>
      <trkpt lat="48.82528" lon="2.39208">
        <ele>87.2</ele>
        <time>2015-06-08T18:49:05.768Z</time>
      </trkpt>
      <trkpt lat="48.82524" lon="2.39215">
        <ele>87.2</ele>
        <time>2015-06-08T18:49:06.793Z</time>
      </trkpt>
      <trkpt lat="48.82519" lon="2.39221">
        <ele>87.2</ele>
        <time>2015-06-08T18:49:07.810Z</time>
      </trkpt>
      <trkpt lat="48.82515" lon="2.39228">
        <ele>87.1</ele>
        <time>2015-06-08T18:49:08.754Z</time>
      </trkpt>
      <trkpt lat="48.82511" lon="2.39234">
        <ele>87.1</ele>
        <time>2015-06-08T18:49:09.760Z</time>
      </trkpt>
      <trkpt lat="48.82507" lon="2.39239">
        <ele>87.3</ele>
        <time>2015-06-08T18:49:10.772Z</time>
      </trkpt>
      <trkpt lat="48.82503" lon="2.39245">
        <ele>87.5</ele>
        <time>2015-06-08T18:49:11.788Z</time>
      </trkpt>
      <trkpt lat="48.82499" lon="2.3925">
        <ele>87.6</ele>
        <time>2015-06-08T18:49:12.808Z</time>
      </trkpt>
      <trkpt lat="48.82496" lon="2.39256">
        <ele>87.6</ele>
        <time>2015-06-08T18:49:13.819Z</time>
      </trkpt>
      <trkpt lat="48.8249" lon="2.39265">
        <ele>87.6</ele>
        <time>2015-06-08T18:49:15.842Z</time>
      </trkpt>
      <trkpt lat="48.82487" lon="2.3927">
        <ele>87.6</ele>
        <time>2015-06-08T18:49:16.848Z</time>
      </trkpt>
      <trkpt lat="48.82481" lon="2.39281">
        <ele>87.5</ele>
        <time>2015-06-08T18:49:18.774Z</time>
      </trkpt>
      <trkpt lat="48.82478" lon="2.39286">
        <ele>87.8</ele>
        <time>2015-06-08T18:49:19.763Z</time>
      </trkpt>
      <trkpt lat="48.82475" lon="2.39292">
        <ele>87.8</ele>
        <time>2015-06-08T18:49:20.846Z</time>
      </trkpt>
      <trkpt lat="48.82472" lon="2.39297">
        <ele>87.9</ele>
        <time>2015-06-08T18:49:21.849Z</time>
      </trkpt>
      <trkpt lat="48.82469" lon="2.39303">
        <ele>88</ele>
        <time>2015-06-08T18:49:22.776Z</time>
      </trkpt>
      <trkpt lat="48.82464" lon="2.39309">
        <ele>88</ele>
        <time>2015-06-08T18:49:23.783Z</time>
      </trkpt>
      <trkpt lat="48.82459" lon="2.39316">
        <ele>88</ele>
        <time>2015-06-08T18:49:24.793Z</time>
      </trkpt>
      <trkpt lat="48.82455" lon="2.39322">
        <ele>87.8</ele>
        <time>2015-06-08T18:49:25.800Z</time>
      </trkpt>
      <trkpt lat="48.8245" lon="2.39329">
        <ele>88.1</ele>
        <time>2015-06-08T18:49:26.840Z</time>
      </trkpt>
      <trkpt lat="48.82446" lon="2.39337">
        <ele>89</ele>
        <time>2015-06-08T18:49:27.839Z</time>
      </trkpt>
      <trkpt lat="48.82441" lon="2.39343">
        <ele>89.3</ele>
        <time>2015-06-08T18:49:28.784Z</time>
      </trkpt>
      <trkpt lat="48.82437" lon="2.39349">
        <ele>89.3</ele>
        <time>2015-06-08T18:49:29.790Z</time>
      </trkpt>
      <trkpt lat="48.82432" lon="2.39356">
        <ele>89.4</ele>
        <time>2015-06-08T18:49:30.807Z</time>
      </trkpt>
      <trkpt lat="48.82427" lon="2.39363">
        <ele>88.9</ele>
        <time>2015-06-08T18:49:31.826Z</time>
      </trkpt>
      <trkpt lat="48.82422" lon="2.3937">
        <ele>88.7</ele>
        <time>2015-06-08T18:49:32.853Z</time>
      </trkpt>
      <trkpt lat="48.82417" lon="2.39378">
        <ele>88.8</ele>
        <time>2015-06-08T18:49:33.754Z</time>
      </trkpt>
      <trkpt lat="48.82413" lon="2.39385">
        <ele>88.8</ele>
        <time>2015-06-08T18:49:34.773Z</time>
      </trkpt>
      <trkpt lat="48.82408" lon="2.39392">
        <ele>88.8</ele>
        <time>2015-06-08T18:49:35.785Z</time>
      </trkpt>
      <trkpt lat="48.82403" lon="2.39399">
        <ele>88.9</ele>
        <time>2015-06-08T18:49:36.835Z</time>
      </trkpt>
      <trkpt lat="48.82398" lon="2.39406">
        <ele>89.2</ele>
        <time>2015-06-08T18:49:37.892Z</time>
      </trkpt>
      <trkpt lat="48.82393" lon="2.39413">
        <ele>89.4</ele>
        <time>2015-06-08T18:49:38.830Z</time>
      </trkpt>
      <trkpt lat="48.82387" lon="2.39421">
        <ele>89.4</ele>
        <time>2015-06-08T18:49:39.837Z</time>
      </trkpt>
      <trkpt lat="48.82382" lon="2.39428">
        <ele>89.3</ele>
        <time>2015-06-08T18:49:40.849Z</time>
      </trkpt>
      <trkpt lat="48.82376" lon="2.39436">
        <ele>89.2</ele>
        <time>2015-06-08T18:49:41.777Z</time>
      </trkpt>
      <trkpt lat="48.82371" lon="2.39443">
        <ele>89.4</ele>
        <time>2015-06-08T18:49:42.754Z</time>
      </trkpt>
      <trkpt lat="48.82366" lon="2.39451">
        <ele>89.2</ele>
        <time>2015-06-08T18:49:43.794Z</time>
      </trkpt>
      <trkpt lat="48.8236" lon="2.39459">
        <ele>89</ele>
        <time>2015-06-08T18:49:44.834Z</time>
      </trkpt>
      <trkpt lat="48.82355" lon="2.39466">
        <ele>88.9</ele>
        <time>2015-06-08T18:49:45.845Z</time>
      </trkpt>
      <trkpt lat="48.8235" lon="2.39474">
        <ele>88.5</ele>
        <time>2015-06-08T18:49:46.858Z</time>
      </trkpt>
      <trkpt lat="48.82344" lon="2.39482">
        <ele>88.6</ele>
        <time>2015-06-08T18:49:47.786Z</time>
      </trkpt>
      <trkpt lat="48.82339" lon="2.3949">
        <ele>88.7</ele>
        <time>2015-06-08T18:49:48.772Z</time>
      </trkpt>
      <trkpt lat="48.82333" lon="2.39498">
        <ele>88.8</ele>
        <time>2015-06-08T18:49:49.776Z</time>
      </trkpt>
      <trkpt lat="48.82328" lon="2.39506">
        <ele>88.5</ele>
        <time>2015-06-08T18:49:50.831Z</time>
      </trkpt>
      <trkpt lat="48.82324" lon="2.39513">
        <ele>88.4</ele>
        <time>2015-06-08T18:49:51.837Z</time>
      </trkpt>
      <trkpt lat="48.82318" lon="2.39519">
        <ele>88.3</ele>
        <time>2015-06-08T18:49:52.846Z</time>
      </trkpt>
      <trkpt lat="48.82314" lon="2.39526">
        <ele>88.2</ele>
        <time>2015-06-08T18:49:53.751Z</time>
      </trkpt>
      <trkpt lat="48.82309" lon="2.39534">
        <ele>88.2</ele>
        <time>2015-06-08T18:49:54.775Z</time>
      </trkpt>
      <trkpt lat="48.82303" lon="2.39542">
        <ele>88.3</ele>
        <time>2015-06-08T18:49:55.843Z</time>
      </trkpt>
      <trkpt lat="48.82298" lon="2.3955">
        <ele>88.1</ele>
        <time>2015-06-08T18:49:56.860Z</time>
      </trkpt>
      <trkpt lat="48.82293" lon="2.39558">
        <ele>88.1</ele>
        <time>2015-06-08T18:49:57.851Z</time>
      </trkpt>
      <trkpt lat="48.82288" lon="2.39566">
        <ele>88.5</ele>
        <time>2015-06-08T18:49:58.771Z</time>
      </trkpt>
      <trkpt lat="48.82283" lon="2.39574">
        <ele>88.8</ele>
        <time>2015-06-08T18:49:59.779Z</time>
      </trkpt>
      <trkpt lat="48.82277" lon="2.39582">
        <ele>88.6</ele>
        <time>2015-06-08T18:50:00.788Z</time>
      </trkpt>
      <trkpt lat="48.82272" lon="2.39591">
        <ele>88.3</ele>
        <time>2015-06-08T18:50:01.797Z</time>
      </trkpt>
      <trkpt lat="48.82266" lon="2.39599">
        <ele>88.2</ele>
        <time>2015-06-08T18:50:02.822Z</time>
      </trkpt>
      <trkpt lat="48.8226" lon="2.39608">
        <ele>88.2</ele>
        <time>2015-06-08T18:50:03.829Z</time>
      </trkpt>
      <trkpt lat="48.82254" lon="2.39617">
        <ele>88</ele>
        <time>2015-06-08T18:50:04.838Z</time>
      </trkpt>
      <trkpt lat="48.82249" lon="2.39626">
        <ele>88.1</ele>
        <time>2015-06-08T18:50:05.840Z</time>
      </trkpt>
      <trkpt lat="48.82243" lon="2.39635">
        <ele>87.5</ele>
        <time>2015-06-08T18:50:06.852Z</time>
      </trkpt>
      <trkpt lat="48.82238" lon="2.39644">
        <ele>87.3</ele>
        <time>2015-06-08T18:50:07.739Z</time>
      </trkpt>
      <trkpt lat="48.82233" lon="2.39653">
        <ele>86.9</ele>
        <time>2015-06-08T18:50:08.806Z</time>
      </trkpt>
      <trkpt lat="48.82228" lon="2.39663">
        <ele>86.7</ele>
        <time>2015-06-08T18:50:09.810Z</time>
      </trkpt>
      <trkpt lat="48.82223" lon="2.39673">
        <ele>86.4</ele>
        <time>2015-06-08T18:50:10.829Z</time>
      </trkpt>
      <trkpt lat="48.82218" lon="2.39683">
        <ele>86.3</ele>
        <time>2015-06-08T18:50:11.834Z</time>
      </trkpt>
      <trkpt lat="48.82213" lon="2.39693">
        <ele>85.7</ele>
        <time>2015-06-08T18:50:12.856Z</time>
      </trkpt>
      <trkpt lat="48.82208" lon="2.39703">
        <ele>85.3</ele>
        <time>2015-06-08T18:50:13.865Z</time>
      </trkpt>
      <trkpt lat="48.82202" lon="2.39714">
        <ele>85</ele>
        <time>2015-06-08T18:50:14.874Z</time>
      </trkpt>
      <trkpt lat="48.82197" lon="2.39723">
        <ele>85.3</ele>
        <time>2015-06-08T18:50:15.758Z</time>
      </trkpt>
      <trkpt lat="48.82193" lon="2.39733">
        <ele>85.1</ele>
        <time>2015-06-08T18:50:16.774Z</time>
      </trkpt>
      <trkpt lat="48.82188" lon="2.39742">
        <ele>85.1</ele>
        <time>2015-06-08T18:50:17.781Z</time>
      </trkpt>
      <trkpt lat="48.82183" lon="2.39752">
        <ele>85.2</ele>
        <time>2015-06-08T18:50:18.793Z</time>
      </trkpt>
      <trkpt lat="48.82178" lon="2.39761">
        <ele>85.3</ele>
        <time>2015-06-08T18:50:19.795Z</time>
      </trkpt>
      <trkpt lat="48.82173" lon="2.3977">
        <ele>85.3</ele>
        <time>2015-06-08T18:50:20.828Z</time>
      </trkpt>
      <trkpt lat="48.82169" lon="2.3978">
        <ele>85.1</ele>
        <time>2015-06-08T18:50:21.819Z</time>
      </trkpt>
      <trkpt lat="48.82165" lon="2.3979">
        <ele>84.6</ele>
        <time>2015-06-08T18:50:22.838Z</time>
      </trkpt>
      <trkpt lat="48.8216" lon="2.398">
        <ele>84.5</ele>
        <time>2015-06-08T18:50:23.764Z</time>
      </trkpt>
      <trkpt lat="48.82155" lon="2.3981">
        <ele>84</ele>
        <time>2015-06-08T18:50:24.773Z</time>
      </trkpt>
      <trkpt lat="48.82151" lon="2.3982">
        <ele>83.7</ele>
        <time>2015-06-08T18:50:25.781Z</time>
      </trkpt>
      <trkpt lat="48.82146" lon="2.39831">
        <ele>83.8</ele>
        <time>2015-06-08T18:50:26.831Z</time>
      </trkpt>
      <trkpt lat="48.82141" lon="2.39842">
        <ele>84.3</ele>
        <time>2015-06-08T18:50:27.822Z</time>
      </trkpt>
      <trkpt lat="48.82137" lon="2.39852">
        <ele>84.6</ele>
        <time>2015-06-08T18:50:28.850Z</time>
      </trkpt>
      <trkpt lat="48.82133" lon="2.39863">
        <ele>84.9</ele>
        <time>2015-06-08T18:50:29.773Z</time>
      </trkpt>
      <trkpt lat="48.82129" lon="2.39872">
        <ele>86.1</ele>
        <time>2015-06-08T18:50:30.771Z</time>
      </trkpt>
      <trkpt lat="48.82126" lon="2.39882">
        <ele>86.2</ele>
        <time>2015-06-08T18:50:31.782Z</time>
      </trkpt>
      <trkpt lat="48.82122" lon="2.39891">
        <ele>86.4</ele>
        <time>2015-06-08T18:50:32.848Z</time>
      </trkpt>
      <trkpt lat="48.82118" lon="2.399">
        <ele>86.1</ele>
        <time>2015-06-08T18:50:33.853Z</time>
      </trkpt>
      <trkpt lat="48.82114" lon="2.3991">
        <ele>86</ele>
        <time>2015-06-08T18:50:34.789Z</time>
      </trkpt>
      <trkpt lat="48.8211" lon="2.39919">
        <ele>86</ele>
        <time>2015-06-08T18:50:35.772Z</time>
      </trkpt>
      <trkpt lat="48.82105" lon="2.39927">
        <ele>86.1</ele>
        <time>2015-06-08T18:50:36.769Z</time>
      </trkpt>
      <trkpt lat="48.82101" lon="2.39935">
        <ele>86.1</ele>
        <time>2015-06-08T18:50:37.801Z</time>
      </trkpt>
      <trkpt lat="48.82098" lon="2.39944">
        <ele>85.8</ele>
        <time>2015-06-08T18:50:38.836Z</time>
      </trkpt>
      <trkpt lat="48.82095" lon="2.39953">
        <ele>86.1</ele>
        <time>2015-06-08T18:50:39.757Z</time>
      </trkpt>
      <trkpt lat="48.82092" lon="2.39962">
        <ele>86.2</ele>
        <time>2015-06-08T18:50:40.767Z</time>
      </trkpt>
      <trkpt lat="48.82089" lon="2.39971">
        <ele>86.3</ele>
        <time>2015-06-08T18:50:41.774Z</time>
      </trkpt>
      <trkpt lat="48.82086" lon="2.39982">
        <ele>86</ele>
        <time>2015-06-08T18:50:42.882Z</time>
      </trkpt>
      <trkpt lat="48.82083" lon="2.39992">
        <ele>86.2</ele>
        <time>2015-06-08T18:50:43.796Z</time>
      </trkpt>
      <trkpt lat="48.8208" lon="2.40001">
        <ele>86.4</ele>
        <time>2015-06-08T18:50:44.801Z</time>
      </trkpt>
      <trkpt lat="48.82078" lon="2.40011">
        <ele>86.7</ele>
        <time>2015-06-08T18:50:45.810Z</time>
      </trkpt>
      <trkpt lat="48.82074" lon="2.40021">
        <ele>86.9</ele>
        <time>2015-06-08T18:50:46.813Z</time>
      </trkpt>
      <trkpt lat="48.82071" lon="2.40031">
        <ele>87.5</ele>
        <time>2015-06-08T18:50:48.009Z</time>
      </trkpt>
      <trkpt lat="48.82068" lon="2.4004">
        <ele>87.5</ele>
        <time>2015-06-08T18:50:48.851Z</time>
      </trkpt>
      <trkpt lat="48.82065" lon="2.4005">
        <ele>87.7</ele>
        <time>2015-06-08T18:50:49.857Z</time>
      </trkpt>
      <trkpt lat="48.82062" lon="2.4006">
        <ele>87.6</ele>
        <time>2015-06-08T18:50:50.878Z</time>
      </trkpt>
      <trkpt lat="48.82059" lon="2.40069">
        <ele>87.5</ele>
        <time>2015-06-08T18:50:51.810Z</time>
      </trkpt>
      <trkpt lat="48.82055" lon="2.40077">
        <ele>87.7</ele>
        <time>2015-06-08T18:50:52.779Z</time>
      </trkpt>
      <trkpt lat="48.82052" lon="2.40086">
        <ele>88.2</ele>
        <time>2015-06-08T18:50:53.788Z</time>
      </trkpt>
      <trkpt lat="48.82049" lon="2.40095">
        <ele>88.3</ele>
        <time>2015-06-08T18:50:54.800Z</time>
      </trkpt>
      <trkpt lat="48.82044" lon="2.40104">
        <ele>88.3</ele>
        <time>2015-06-08T18:50:55.809Z</time>
      </trkpt>
      <trkpt lat="48.82039" lon="2.40113">
        <ele>88.3</ele>
        <time>2015-06-08T18:50:56.825Z</time>
      </trkpt>
      <trkpt lat="48.82035" lon="2.40123">
        <ele>88.3</ele>
        <time>2015-06-08T18:50:57.835Z</time>
      </trkpt>
      <trkpt lat="48.8203" lon="2.40132">
        <ele>88.5</ele>
        <time>2015-06-08T18:50:58.848Z</time>
      </trkpt>
      <trkpt lat="48.82026" lon="2.40143">
        <ele>89.1</ele>
        <time>2015-06-08T18:50:59.755Z</time>
      </trkpt>
      <trkpt lat="48.82023" lon="2.40153">
        <ele>89.7</ele>
        <time>2015-06-08T18:51:00.774Z</time>
      </trkpt>
      <trkpt lat="48.8202" lon="2.40164">
        <ele>89.8</ele>
        <time>2015-06-08T18:51:01.778Z</time>
      </trkpt>
      <trkpt lat="48.82016" lon="2.40175">
        <ele>89.7</ele>
        <time>2015-06-08T18:51:02.830Z</time>
      </trkpt>
      <trkpt lat="48.82014" lon="2.40186">
        <ele>89.4</ele>
        <time>2015-06-08T18:51:03.826Z</time>
      </trkpt>
      <trkpt lat="48.8201" lon="2.40197">
        <ele>89.4</ele>
        <time>2015-06-08T18:51:04.752Z</time>
      </trkpt>
      <trkpt lat="48.82008" lon="2.40208">
        <ele>89.1</ele>
        <time>2015-06-08T18:51:05.737Z</time>
      </trkpt>
      <trkpt lat="48.82005" lon="2.40219">
        <ele>89.1</ele>
        <time>2015-06-08T18:51:06.773Z</time>
      </trkpt>
      <trkpt lat="48.82002" lon="2.4023">
        <ele>89</ele>
        <time>2015-06-08T18:51:07.789Z</time>
      </trkpt>
      <trkpt lat="48.81999" lon="2.40241">
        <ele>89</ele>
        <time>2015-06-08T18:51:08.801Z</time>
      </trkpt>
      <trkpt lat="48.81996" lon="2.40252">
        <ele>89.5</ele>
        <time>2015-06-08T18:51:09.815Z</time>
      </trkpt>
      <trkpt lat="48.81993" lon="2.40263">
        <ele>89.6</ele>
        <time>2015-06-08T18:51:10.715Z</time>
      </trkpt>
      <trkpt lat="48.8199" lon="2.40275">
        <ele>89.6</ele>
        <time>2015-06-08T18:51:11.718Z</time>
      </trkpt>
      <trkpt lat="48.81986" lon="2.40286">
        <ele>90</ele>
        <time>2015-06-08T18:51:12.766Z</time>
      </trkpt>
      <trkpt lat="48.81983" lon="2.40297">
        <ele>90</ele>
        <time>2015-06-08T18:51:13.807Z</time>
      </trkpt>
      <trkpt lat="48.81979" lon="2.40308">
        <ele>89.9</ele>
        <time>2015-06-08T18:51:14.935Z</time>
      </trkpt>
      <trkpt lat="48.81976" lon="2.40319">
        <ele>90.4</ele>
        <time>2015-06-08T18:51:15.755Z</time>
      </trkpt>
      <trkpt lat="48.81974" lon="2.4033">
        <ele>90.7</ele>
        <time>2015-06-08T18:51:16.767Z</time>
      </trkpt>
      <trkpt lat="48.81971" lon="2.4034">
        <ele>90.9</ele>
        <time>2015-06-08T18:51:17.767Z</time>
      </trkpt>
      <trkpt lat="48.81968" lon="2.4035">
        <ele>91.1</ele>
        <time>2015-06-08T18:51:18.781Z</time>
      </trkpt>
      <trkpt lat="48.81965" lon="2.40359">
        <ele>90.9</ele>
        <time>2015-06-08T18:51:19.788Z</time>
      </trkpt>
      <trkpt lat="48.81962" lon="2.40369">
        <ele>90.6</ele>
        <time>2015-06-08T18:51:20.807Z</time>
      </trkpt>
      <trkpt lat="48.8196" lon="2.40378">
        <ele>90.5</ele>
        <time>2015-06-08T18:51:21.813Z</time>
      </trkpt>
      <trkpt lat="48.81958" lon="2.40388">
        <ele>90.6</ele>
        <time>2015-06-08T18:51:22.828Z</time>
      </trkpt>
      <trkpt lat="48.81956" lon="2.40398">
        <ele>90.6</ele>
        <time>2015-06-08T18:51:23.837Z</time>
      </trkpt>
      <trkpt lat="48.81953" lon="2.40407">
        <ele>90.3</ele>
        <time>2015-06-08T18:51:24.750Z</time>
      </trkpt>
      <trkpt lat="48.81951" lon="2.40416">
        <ele>90.2</ele>
        <time>2015-06-08T18:51:25.760Z</time>
      </trkpt>
      <trkpt lat="48.81949" lon="2.40426">
        <ele>90.2</ele>
        <time>2015-06-08T18:51:26.801Z</time>
      </trkpt>
      <trkpt lat="48.81947" lon="2.40434">
        <ele>89.8</ele>
        <time>2015-06-08T18:51:27.796Z</time>
      </trkpt>
      <trkpt lat="48.81946" lon="2.40442">
        <ele>89.7</ele>
        <time>2015-06-08T18:51:28.802Z</time>
      </trkpt>
      <trkpt lat="48.81947" lon="2.4045">
        <ele>89.7</ele>
        <time>2015-06-08T18:51:29.819Z</time>
      </trkpt>
      <trkpt lat="48.81947" lon="2.40458">
        <ele>89.8</ele>
        <time>2015-06-08T18:51:30.826Z</time>
      </trkpt>
      <trkpt lat="48.81946" lon="2.40465">
        <ele>89.5</ele>
        <time>2015-06-08T18:51:31.843Z</time>
      </trkpt>
      <trkpt lat="48.81944" lon="2.40473">
        <ele>89.2</ele>
        <time>2015-06-08T18:51:32.854Z</time>
      </trkpt>
      <trkpt lat="48.81942" lon="2.40481">
        <ele>89.1</ele>
        <time>2015-06-08T18:51:33.759Z</time>
      </trkpt>
      <trkpt lat="48.81939" lon="2.4049">
        <ele>89</ele>
        <time>2015-06-08T18:51:34.777Z</time>
      </trkpt>
      <trkpt lat="48.81937" lon="2.40499">
        <ele>88.6</ele>
        <time>2015-06-08T18:51:35.778Z</time>
      </trkpt>
      <trkpt lat="48.81934" lon="2.40508">
        <ele>88</ele>
        <time>2015-06-08T18:51:36.797Z</time>
      </trkpt>
      <trkpt lat="48.81931" lon="2.40517">
        <ele>88.1</ele>
        <time>2015-06-08T18:51:37.804Z</time>
      </trkpt>
      <trkpt lat="48.81929" lon="2.40527">
        <ele>88.2</ele>
        <time>2015-06-08T18:51:38.817Z</time>
      </trkpt>
      <trkpt lat="48.81926" lon="2.40537">
        <ele>88.4</ele>
        <time>2015-06-08T18:51:39.825Z</time>
      </trkpt>
      <trkpt lat="48.81924" lon="2.40547">
        <ele>88.4</ele>
        <time>2015-06-08T18:51:40.746Z</time>
      </trkpt>
      <trkpt lat="48.81921" lon="2.40558">
        <ele>88.5</ele>
        <time>2015-06-08T18:51:41.720Z</time>
      </trkpt>
      <trkpt lat="48.81918" lon="2.40568">
        <ele>88.2</ele>
        <time>2015-06-08T18:51:42.817Z</time>
      </trkpt>
      <trkpt lat="48.81915" lon="2.40578">
        <ele>88.3</ele>
        <time>2015-06-08T18:51:43.777Z</time>
      </trkpt>
      <trkpt lat="48.81912" lon="2.40588">
        <ele>87.9</ele>
        <time>2015-06-08T18:51:44.801Z</time>
      </trkpt>
      <trkpt lat="48.8191" lon="2.40598">
        <ele>87.6</ele>
        <time>2015-06-08T18:51:45.812Z</time>
      </trkpt>
      <trkpt lat="48.81907" lon="2.40609">
        <ele>86.6</ele>
        <time>2015-06-08T18:51:46.822Z</time>
      </trkpt>
      <trkpt lat="48.81905" lon="2.40619">
        <ele>86.2</ele>
        <time>2015-06-08T18:51:47.833Z</time>
      </trkpt>
      <trkpt lat="48.81903" lon="2.40629">
        <ele>85.9</ele>
        <time>2015-06-08T18:51:48.712Z</time>
      </trkpt>
      <trkpt lat="48.819" lon="2.40639">
        <ele>85.5</ele>
        <time>2015-06-08T18:51:49.999Z</time>
      </trkpt>
      <trkpt lat="48.81897" lon="2.40649">
        <ele>85.3</ele>
        <time>2015-06-08T18:51:50.784Z</time>
      </trkpt>
      <trkpt lat="48.81894" lon="2.4066">
        <ele>86</ele>
        <time>2015-06-08T18:51:51.774Z</time>
      </trkpt>
      <trkpt lat="48.81891" lon="2.40669">
        <ele>85.9</ele>
        <time>2015-06-08T18:51:52.780Z</time>
      </trkpt>
      <trkpt lat="48.81889" lon="2.40678">
        <ele>86.3</ele>
        <time>2015-06-08T18:51:53.783Z</time>
      </trkpt>
      <trkpt lat="48.81887" lon="2.40686">
        <ele>86.4</ele>
        <time>2015-06-08T18:51:54.748Z</time>
      </trkpt>
      <trkpt lat="48.81884" lon="2.40696">
        <ele>86.5</ele>
        <time>2015-06-08T18:51:55.753Z</time>
      </trkpt>
      <trkpt lat="48.8188" lon="2.40705">
        <ele>86.6</ele>
        <time>2015-06-08T18:51:56.885Z</time>
      </trkpt>
      <trkpt lat="48.81877" lon="2.40714">
        <ele>86.6</ele>
        <time>2015-06-08T18:51:57.773Z</time>
      </trkpt>
      <trkpt lat="48.81875" lon="2.40723">
        <ele>86.6</ele>
        <time>2015-06-08T18:51:58.748Z</time>
      </trkpt>
      <trkpt lat="48.81873" lon="2.40731">
        <ele>86.5</ele>
        <time>2015-06-08T18:51:59.754Z</time>
      </trkpt>
      <trkpt lat="48.81871" lon="2.40739">
        <ele>86.3</ele>
        <time>2015-06-08T18:52:00.767Z</time>
      </trkpt>
      <trkpt lat="48.81869" lon="2.40749">
        <ele>86.3</ele>
        <time>2015-06-08T18:52:01.775Z</time>
      </trkpt>
      <trkpt lat="48.81867" lon="2.40759">
        <ele>85.8</ele>
        <time>2015-06-08T18:52:02.793Z</time>
      </trkpt>
      <trkpt lat="48.81864" lon="2.40769">
        <ele>85.7</ele>
        <time>2015-06-08T18:52:03.804Z</time>
      </trkpt>
      <trkpt lat="48.81863" lon="2.40777">
        <ele>85.7</ele>
        <time>2015-06-08T18:52:04.815Z</time>
      </trkpt>
      <trkpt lat="48.81862" lon="2.40787">
        <ele>86.1</ele>
        <time>2015-06-08T18:52:05.827Z</time>
      </trkpt>
      <trkpt lat="48.8186" lon="2.40797">
        <ele>86.8</ele>
        <time>2015-06-08T18:52:06.752Z</time>
      </trkpt>
      <trkpt lat="48.81858" lon="2.40806">
        <ele>87.4</ele>
        <time>2015-06-08T18:52:07.716Z</time>
      </trkpt>
      <trkpt lat="48.81855" lon="2.40814">
        <ele>87.5</ele>
        <time>2015-06-08T18:52:08.763Z</time>
      </trkpt>
      <trkpt lat="48.81854" lon="2.40822">
        <ele>87.5</ele>
        <time>2015-06-08T18:52:09.777Z</time>
      </trkpt>
      <trkpt lat="48.81854" lon="2.40829">
        <ele>87.2</ele>
        <time>2015-06-08T18:52:10.807Z</time>
      </trkpt>
      <trkpt lat="48.81853" lon="2.40837">
        <ele>86.8</ele>
        <time>2015-06-08T18:52:11.817Z</time>
      </trkpt>
      <trkpt lat="48.81851" lon="2.40845">
        <ele>86.6</ele>
        <time>2015-06-08T18:52:12.830Z</time>
      </trkpt>
      <trkpt lat="48.81849" lon="2.40852">
        <ele>86.3</ele>
        <time>2015-06-08T18:52:13.738Z</time>
      </trkpt>
      <trkpt lat="48.81847" lon="2.4086">
        <ele>85.9</ele>
        <time>2015-06-08T18:52:14.746Z</time>
      </trkpt>
      <trkpt lat="48.81845" lon="2.40867">
        <ele>86.1</ele>
        <time>2015-06-08T18:52:15.778Z</time>
      </trkpt>
      <trkpt lat="48.81843" lon="2.40874">
        <ele>86.2</ele>
        <time>2015-06-08T18:52:16.800Z</time>
      </trkpt>
      <trkpt lat="48.81842" lon="2.40883">
        <ele>86.1</ele>
        <time>2015-06-08T18:52:17.845Z</time>
      </trkpt>
      <trkpt lat="48.81839" lon="2.40892">
        <ele>85.7</ele>
        <time>2015-06-08T18:52:18.815Z</time>
      </trkpt>
      <trkpt lat="48.81837" lon="2.40901">
        <ele>85.7</ele>
        <time>2015-06-08T18:52:19.713Z</time>
      </trkpt>
      <trkpt lat="48.81834" lon="2.4091">
        <ele>85.9</ele>
        <time>2015-06-08T18:52:20.789Z</time>
      </trkpt>
      <trkpt lat="48.81832" lon="2.40919">
        <ele>85.9</ele>
        <time>2015-06-08T18:52:21.806Z</time>
      </trkpt>
      <trkpt lat="48.8183" lon="2.40928">
        <ele>86.5</ele>
        <time>2015-06-08T18:52:22.739Z</time>
      </trkpt>
      <trkpt lat="48.81828" lon="2.40937">
        <ele>87</ele>
        <time>2015-06-08T18:52:23.743Z</time>
      </trkpt>
      <trkpt lat="48.81827" lon="2.40945">
        <ele>87.4</ele>
        <time>2015-06-08T18:52:24.766Z</time>
      </trkpt>
      <trkpt lat="48.81825" lon="2.40955">
        <ele>87.5</ele>
        <time>2015-06-08T18:52:25.777Z</time>
      </trkpt>
      <trkpt lat="48.81823" lon="2.40964">
        <ele>87.3</ele>
        <time>2015-06-08T18:52:26.794Z</time>
      </trkpt>
      <trkpt lat="48.81821" lon="2.40973">
        <ele>87</ele>
        <time>2015-06-08T18:52:27.799Z</time>
      </trkpt>
      <trkpt lat="48.81819" lon="2.40983">
        <ele>87.2</ele>
        <time>2015-06-08T18:52:28.822Z</time>
      </trkpt>
      <trkpt lat="48.81817" lon="2.40993">
        <ele>87.1</ele>
        <time>2015-06-08T18:52:29.765Z</time>
      </trkpt>
      <trkpt lat="48.81814" lon="2.41003">
        <ele>87</ele>
        <time>2015-06-08T18:52:30.747Z</time>
      </trkpt>
      <trkpt lat="48.81811" lon="2.41013">
        <ele>87.2</ele>
        <time>2015-06-08T18:52:31.754Z</time>
      </trkpt>
      <trkpt lat="48.81809" lon="2.41023">
        <ele>87.2</ele>
        <time>2015-06-08T18:52:32.796Z</time>
      </trkpt>
      <trkpt lat="48.81807" lon="2.41032">
        <ele>87</ele>
        <time>2015-06-08T18:52:33.790Z</time>
      </trkpt>
      <trkpt lat="48.81805" lon="2.4104">
        <ele>87.1</ele>
        <time>2015-06-08T18:52:34.804Z</time>
      </trkpt>
      <trkpt lat="48.81803" lon="2.41049">
        <ele>87.2</ele>
        <time>2015-06-08T18:52:35.815Z</time>
      </trkpt>
      <trkpt lat="48.81801" lon="2.41057">
        <ele>87.1</ele>
        <time>2015-06-08T18:52:36.763Z</time>
      </trkpt>
      <trkpt lat="48.81798" lon="2.41064">
        <ele>86.8</ele>
        <time>2015-06-08T18:52:37.769Z</time>
      </trkpt>
      <trkpt lat="48.81796" lon="2.41075">
        <ele>87.1</ele>
        <time>2015-06-08T18:52:39.830Z</time>
      </trkpt>
      <trkpt lat="48.81794" lon="2.4108">
        <ele>87.1</ele>
        <time>2015-06-08T18:52:40.843Z</time>
      </trkpt>
      <trkpt lat="48.81793" lon="2.41091">
        <ele>86.8</ele>
        <time>2015-06-08T18:52:43.784Z</time>
      </trkpt>
      <trkpt lat="48.81793" lon="2.41094">
        <ele>86.8</ele>
        <time>2015-06-08T18:52:44.837Z</time>
      </trkpt>
      <trkpt lat="48.81792" lon="2.41106">
        <ele>87.1</ele>
        <time>2015-06-08T18:52:50.818Z</time>
      </trkpt>
      <trkpt lat="48.81793" lon="2.41109">
        <ele>87.4</ele>
        <time>2015-06-08T18:52:51.765Z</time>
      </trkpt>
      <trkpt lat="48.81789" lon="2.41107">
        <ele>91</ele>
        <time>2015-06-08T18:53:53.824Z</time>
      </trkpt>
      <trkpt lat="48.81789" lon="2.41107">
        <ele>91.8</ele>
        <time>2015-06-08T18:53:54.791Z</time>
      </trkpt>
      <trkpt lat="48.81788" lon="2.41108">
        <ele>92.2</ele>
        <time>2015-06-08T18:56:09.785Z</time>
      </trkpt>
      <trkpt lat="48.81781" lon="2.41097">
        <ele>90.2</ele>
        <time>2015-06-08T18:56:10.734Z</time>
      </trkpt>
      <trkpt lat="48.81774" lon="2.41094">
        <ele>90.1</ele>
        <time>2015-06-08T18:56:13.776Z</time>
      </trkpt>
      <trkpt lat="48.81772" lon="2.41093">
        <ele>90</ele>
        <time>2015-06-08T18:56:14.834Z</time>
      </trkpt>
      <trkpt lat="48.81766" lon="2.41089">
        <ele>89.9</ele>
        <time>2015-06-08T18:56:16.762Z</time>
      </trkpt>
      <trkpt lat="48.81763" lon="2.41088">
        <ele>89.8</ele>
        <time>2015-06-08T18:56:17.813Z</time>
      </trkpt>
      <trkpt lat="48.81757" lon="2.41083">
        <ele>89.8</ele>
        <time>2015-06-08T18:56:19.837Z</time>
      </trkpt>
      <trkpt lat="48.81753" lon="2.41081">
        <ele>89.7</ele>
        <time>2015-06-08T18:56:20.867Z</time>
      </trkpt>
      <trkpt lat="48.81746" lon="2.41077">
        <ele>89.2</ele>
        <time>2015-06-08T18:56:22.763Z</time>
      </trkpt>
      <trkpt lat="48.81742" lon="2.41075">
        <ele>89.1</ele>
        <time>2015-06-08T18:56:23.786Z</time>
      </trkpt>
      <trkpt lat="48.81735" lon="2.41071">
        <ele>88.8</ele>
        <time>2015-06-08T18:56:25.830Z</time>
      </trkpt>
      <trkpt lat="48.81731" lon="2.41068">
        <ele>88.8</ele>
        <time>2015-06-08T18:56:26.847Z</time>
      </trkpt>
      <trkpt lat="48.81723" lon="2.41062">
        <ele>88.4</ele>
        <time>2015-06-08T18:56:28.774Z</time>
      </trkpt>
      <trkpt lat="48.8172" lon="2.41059">
        <ele>88.5</ele>
        <time>2015-06-08T18:56:29.797Z</time>
      </trkpt>
      <trkpt lat="48.81713" lon="2.41055">
        <ele>88</ele>
        <time>2015-06-08T18:56:31.829Z</time>
      </trkpt>
      <trkpt lat="48.81709" lon="2.41055">
        <ele>87.9</ele>
        <time>2015-06-08T18:56:32.833Z</time>
      </trkpt>
      <trkpt lat="48.81705" lon="2.41063">
        <ele>87.4</ele>
        <time>2015-06-08T18:56:34.770Z</time>
      </trkpt>
      <trkpt lat="48.81704" lon="2.41068">
        <ele>87.3</ele>
        <time>2015-06-08T18:56:35.792Z</time>
      </trkpt>
      <trkpt lat="48.81701" lon="2.41077">
        <ele>87.2</ele>
        <time>2015-06-08T18:56:37.758Z</time>
      </trkpt>
      <trkpt lat="48.817" lon="2.41081">
        <ele>87</ele>
        <time>2015-06-08T18:56:38.841Z</time>
      </trkpt>
      <trkpt lat="48.81697" lon="2.41094">
        <ele>86</ele>
        <time>2015-06-08T18:56:41.804Z</time>
      </trkpt>
      <trkpt lat="48.81696" lon="2.41098">
        <ele>85.8</ele>
        <time>2015-06-08T18:56:42.824Z</time>
      </trkpt>
      <trkpt lat="48.81692" lon="2.4111">
        <ele>86.1</ele>
        <time>2015-06-08T18:56:44.879Z</time>
      </trkpt>
      <trkpt lat="48.8169" lon="2.41117">
        <ele>86.3</ele>
        <time>2015-06-08T18:56:45.776Z</time>
      </trkpt>
      <trkpt lat="48.81688" lon="2.41124">
        <ele>86.4</ele>
        <time>2015-06-08T18:56:46.774Z</time>
      </trkpt>
      <trkpt lat="48.81685" lon="2.41132">
        <ele>86.4</ele>
        <time>2015-06-08T18:56:47.789Z</time>
      </trkpt>
      <trkpt lat="48.81683" lon="2.41138">
        <ele>86.4</ele>
        <time>2015-06-08T18:56:48.820Z</time>
      </trkpt>
      <trkpt lat="48.81681" lon="2.41146">
        <ele>86.4</ele>
        <time>2015-06-08T18:56:49.843Z</time>
      </trkpt>
      <trkpt lat="48.81679" lon="2.41153">
        <ele>86.7</ele>
        <time>2015-06-08T18:56:50.862Z</time>
      </trkpt>
      <trkpt lat="48.81678" lon="2.41161">
        <ele>86.9</ele>
        <time>2015-06-08T18:56:51.754Z</time>
      </trkpt>
      <trkpt lat="48.81677" lon="2.41169">
        <ele>87.2</ele>
        <time>2015-06-08T18:56:52.766Z</time>
      </trkpt>
      <trkpt lat="48.81677" lon="2.41175">
        <ele>87.3</ele>
        <time>2015-06-08T18:56:53.782Z</time>
      </trkpt>
      <trkpt lat="48.81677" lon="2.41183">
        <ele>87.3</ele>
        <time>2015-06-08T18:56:54.797Z</time>
      </trkpt>
      <trkpt lat="48.81676" lon="2.4119">
        <ele>87.3</ele>
        <time>2015-06-08T18:56:55.877Z</time>
      </trkpt>
      <trkpt lat="48.81676" lon="2.41198">
        <ele>87.3</ele>
        <time>2015-06-08T18:56:56.789Z</time>
      </trkpt>
      <trkpt lat="48.81676" lon="2.41205">
        <ele>87.5</ele>
        <time>2015-06-08T18:56:57.794Z</time>
      </trkpt>
      <trkpt lat="48.81675" lon="2.41213">
        <ele>87.4</ele>
        <time>2015-06-08T18:56:58.807Z</time>
      </trkpt>
      <trkpt lat="48.81675" lon="2.41221">
        <ele>87.5</ele>
        <time>2015-06-08T18:56:59.820Z</time>
      </trkpt>
      <trkpt lat="48.81674" lon="2.41229">
        <ele>87.6</ele>
        <time>2015-06-08T18:57:00.832Z</time>
      </trkpt>
      <trkpt lat="48.81674" lon="2.41237">
        <ele>87.8</ele>
        <time>2015-06-08T18:57:01.752Z</time>
      </trkpt>
      <trkpt lat="48.81673" lon="2.41244">
        <ele>87.6</ele>
        <time>2015-06-08T18:57:02.855Z</time>
      </trkpt>
      <trkpt lat="48.81672" lon="2.41252">
        <ele>87.5</ele>
        <time>2015-06-08T18:57:03.740Z</time>
      </trkpt>
      <trkpt lat="48.8167" lon="2.4126">
        <ele>87.7</ele>
        <time>2015-06-08T18:57:04.761Z</time>
      </trkpt>
      <trkpt lat="48.8167" lon="2.41268">
        <ele>87.8</ele>
        <time>2015-06-08T18:57:05.806Z</time>
      </trkpt>
      <trkpt lat="48.81669" lon="2.41276">
        <ele>87.7</ele>
        <time>2015-06-08T18:57:06.748Z</time>
      </trkpt>
      <trkpt lat="48.81669" lon="2.41285">
        <ele>87.6</ele>
        <time>2015-06-08T18:57:07.758Z</time>
      </trkpt>
      <trkpt lat="48.81669" lon="2.41293">
        <ele>87.8</ele>
        <time>2015-06-08T18:57:08.782Z</time>
      </trkpt>
      <trkpt lat="48.81668" lon="2.41301">
        <ele>87.7</ele>
        <time>2015-06-08T18:57:09.791Z</time>
      </trkpt>
      <trkpt lat="48.81668" lon="2.41309">
        <ele>87.4</ele>
        <time>2015-06-08T18:57:10.805Z</time>
      </trkpt>
      <trkpt lat="48.81668" lon="2.41316">
        <ele>87.1</ele>
        <time>2015-06-08T18:57:11.816Z</time>
      </trkpt>
      <trkpt lat="48.81668" lon="2.41327">
        <ele>86.8</ele>
        <time>2015-06-08T18:57:13.776Z</time>
      </trkpt>
      <trkpt lat="48.81668" lon="2.41332">
        <ele>87.3</ele>
        <time>2015-06-08T18:57:14.801Z</time>
      </trkpt>
      <trkpt lat="48.81667" lon="2.41342">
        <ele>87.7</ele>
        <time>2015-06-08T18:57:16.819Z</time>
      </trkpt>
      <trkpt lat="48.81666" lon="2.41349">
        <ele>87.8</ele>
        <time>2015-06-08T18:57:17.837Z</time>
      </trkpt>
      <trkpt lat="48.81665" lon="2.41357">
        <ele>87.7</ele>
        <time>2015-06-08T18:57:18.761Z</time>
      </trkpt>
      <trkpt lat="48.81664" lon="2.41365">
        <ele>87.4</ele>
        <time>2015-06-08T18:57:19.786Z</time>
      </trkpt>
      <trkpt lat="48.81664" lon="2.41372">
        <ele>87.5</ele>
        <time>2015-06-08T18:57:20.838Z</time>
      </trkpt>
      <trkpt lat="48.81664" lon="2.41379">
        <ele>87.3</ele>
        <time>2015-06-08T18:57:21.745Z</time>
      </trkpt>
      <trkpt lat="48.81663" lon="2.41391">
        <ele>87.5</ele>
        <time>2015-06-08T18:57:23.783Z</time>
      </trkpt>
      <trkpt lat="48.81663" lon="2.41397">
        <ele>87.6</ele>
        <time>2015-06-08T18:57:24.781Z</time>
      </trkpt>
      <trkpt lat="48.81663" lon="2.41409">
        <ele>87.2</ele>
        <time>2015-06-08T18:57:26.832Z</time>
      </trkpt>
      <trkpt lat="48.81663" lon="2.41415">
        <ele>87</ele>
        <time>2015-06-08T18:57:27.842Z</time>
      </trkpt>
      <trkpt lat="48.81664" lon="2.41427">
        <ele>86.4</ele>
        <time>2015-06-08T18:57:29.771Z</time>
      </trkpt>
      <trkpt lat="48.81663" lon="2.41435">
        <ele>86.2</ele>
        <time>2015-06-08T18:57:30.772Z</time>
      </trkpt>
      <trkpt lat="48.81662" lon="2.41443">
        <ele>86.2</ele>
        <time>2015-06-08T18:57:31.855Z</time>
      </trkpt>
      <trkpt lat="48.81663" lon="2.4145">
        <ele>85.9</ele>
        <time>2015-06-08T18:57:32.887Z</time>
      </trkpt>
      <trkpt lat="48.81663" lon="2.41458">
        <ele>85.9</ele>
        <time>2015-06-08T18:57:33.727Z</time>
      </trkpt>
      <trkpt lat="48.81662" lon="2.41466">
        <ele>86.1</ele>
        <time>2015-06-08T18:57:34.739Z</time>
      </trkpt>
      <trkpt lat="48.81663" lon="2.41475">
        <ele>86.6</ele>
        <time>2015-06-08T18:57:35.760Z</time>
      </trkpt>
      <trkpt lat="48.81663" lon="2.41483">
        <ele>86.6</ele>
        <time>2015-06-08T18:57:36.774Z</time>
      </trkpt>
      <trkpt lat="48.81663" lon="2.4149">
        <ele>86.5</ele>
        <time>2015-06-08T18:57:37.782Z</time>
      </trkpt>
      <trkpt lat="48.81663" lon="2.41496">
        <ele>86.5</ele>
        <time>2015-06-08T18:57:38.791Z</time>
      </trkpt>
      <trkpt lat="48.81663" lon="2.41504">
        <ele>86.1</ele>
        <time>2015-06-08T18:57:39.809Z</time>
      </trkpt>
      <trkpt lat="48.81664" lon="2.4151">
        <ele>86</ele>
        <time>2015-06-08T18:57:40.750Z</time>
      </trkpt>
      <trkpt lat="48.81665" lon="2.41522">
        <ele>86.7</ele>
        <time>2015-06-08T18:57:42.745Z</time>
      </trkpt>
      <trkpt lat="48.81665" lon="2.41529">
        <ele>87.1</ele>
        <time>2015-06-08T18:57:43.812Z</time>
      </trkpt>
      <trkpt lat="48.81664" lon="2.41543">
        <ele>87.8</ele>
        <time>2015-06-08T18:57:45.746Z</time>
      </trkpt>
      <trkpt lat="48.81664" lon="2.41548">
        <ele>87.9</ele>
        <time>2015-06-08T18:57:46.761Z</time>
      </trkpt>
      <trkpt lat="48.81665" lon="2.41558">
        <ele>88.1</ele>
        <time>2015-06-08T18:57:49.812Z</time>
      </trkpt>
      <trkpt lat="48.81667" lon="2.41564">
        <ele>88.2</ele>
        <time>2015-06-08T18:57:50.802Z</time>
      </trkpt>
      <trkpt lat="48.81667" lon="2.41571">
        <ele>88</ele>
        <time>2015-06-08T18:57:51.788Z</time>
      </trkpt>
      <trkpt lat="48.81671" lon="2.4158">
        <ele>87.4</ele>
        <time>2015-06-08T18:57:52.783Z</time>
      </trkpt>
      <trkpt lat="48.81674" lon="2.41588">
        <ele>87</ele>
        <time>2015-06-08T18:57:53.797Z</time>
      </trkpt>
      <trkpt lat="48.81676" lon="2.41595">
        <ele>86.9</ele>
        <time>2015-06-08T18:57:54.816Z</time>
      </trkpt>
      <trkpt lat="48.81678" lon="2.41602">
        <ele>86.8</ele>
        <time>2015-06-08T18:57:55.833Z</time>
      </trkpt>
      <trkpt lat="48.81679" lon="2.4161">
        <ele>87</ele>
        <time>2015-06-08T18:57:56.846Z</time>
      </trkpt>
      <trkpt lat="48.81681" lon="2.4162">
        <ele>87</ele>
        <time>2015-06-08T18:57:57.782Z</time>
      </trkpt>
      <trkpt lat="48.81681" lon="2.41631">
        <ele>87.3</ele>
        <time>2015-06-08T18:57:58.759Z</time>
      </trkpt>
      <trkpt lat="48.81683" lon="2.41641">
        <ele>87.1</ele>
        <time>2015-06-08T18:57:59.803Z</time>
      </trkpt>
      <trkpt lat="48.81685" lon="2.41651">
        <ele>87.4</ele>
        <time>2015-06-08T18:58:00.801Z</time>
      </trkpt>
      <trkpt lat="48.81687" lon="2.41659">
        <ele>87.8</ele>
        <time>2015-06-08T18:58:01.815Z</time>
      </trkpt>
      <trkpt lat="48.81689" lon="2.41666">
        <ele>87.7</ele>
        <time>2015-06-08T18:58:02.838Z</time>
      </trkpt>
      <trkpt lat="48.81689" lon="2.41673">
        <ele>87.8</ele>
        <time>2015-06-08T18:58:03.762Z</time>
      </trkpt>
      <trkpt lat="48.8169" lon="2.41681">
        <ele>87.8</ele>
        <time>2015-06-08T18:58:04.769Z</time>
      </trkpt>
      <trkpt lat="48.81689" lon="2.41689">
        <ele>87.9</ele>
        <time>2015-06-08T18:58:05.788Z</time>
      </trkpt>
      <trkpt lat="48.81689" lon="2.41698">
        <ele>88</ele>
        <time>2015-06-08T18:58:06.795Z</time>
      </trkpt>
      <trkpt lat="48.8169" lon="2.41709">
        <ele>88.1</ele>
        <time>2015-06-08T18:58:07.814Z</time>
      </trkpt>
      <trkpt lat="48.81691" lon="2.4172">
        <ele>88.3</ele>
        <time>2015-06-08T18:58:08.832Z</time>
      </trkpt>
      <trkpt lat="48.81693" lon="2.41728">
        <ele>88.4</ele>
        <time>2015-06-08T18:58:09.383Z</time>
      </trkpt>
      <trkpt lat="48.81694" lon="2.41735">
        <ele>88.4</ele>
        <time>2015-06-08T18:58:10.752Z</time>
      </trkpt>
      <trkpt lat="48.81694" lon="2.41745">
        <ele>88.1</ele>
        <time>2015-06-08T18:58:11.750Z</time>
      </trkpt>
      <trkpt lat="48.81696" lon="2.41757">
        <ele>86.9</ele>
        <time>2015-06-08T18:58:12.747Z</time>
      </trkpt>
      <trkpt lat="48.81697" lon="2.41767">
        <ele>86.3</ele>
        <time>2015-06-08T18:58:14.459Z</time>
      </trkpt>
      <trkpt lat="48.81698" lon="2.41775">
        <ele>86.1</ele>
        <time>2015-06-08T18:58:14.792Z</time>
      </trkpt>
      <trkpt lat="48.817" lon="2.41788">
        <ele>86.1</ele>
        <time>2015-06-08T18:58:15.781Z</time>
      </trkpt>
      <trkpt lat="48.81701" lon="2.418">
        <ele>87.7</ele>
        <time>2015-06-08T18:58:16.787Z</time>
      </trkpt>
      <trkpt lat="48.81704" lon="2.41809">
        <ele>89.8</ele>
        <time>2015-06-08T18:58:17.807Z</time>
      </trkpt>
      <trkpt lat="48.81705" lon="2.41817">
        <ele>89.8</ele>
        <time>2015-06-08T18:58:18.826Z</time>
      </trkpt>
      <trkpt lat="48.81706" lon="2.4183">
        <ele>89.8</ele>
        <time>2015-06-08T18:58:20.789Z</time>
      </trkpt>
      <trkpt lat="48.81708" lon="2.41836">
        <ele>89.7</ele>
        <time>2015-06-08T18:58:21.792Z</time>
      </trkpt>
      <trkpt lat="48.81711" lon="2.41848">
        <ele>89.9</ele>
        <time>2015-06-08T18:58:23.754Z</time>
      </trkpt>
      <trkpt lat="48.81712" lon="2.41855">
        <ele>89.6</ele>
        <time>2015-06-08T18:58:24.793Z</time>
      </trkpt>
      <trkpt lat="48.81714" lon="2.41862">
        <ele>89.5</ele>
        <time>2015-06-08T18:58:25.747Z</time>
      </trkpt>
      <trkpt lat="48.81716" lon="2.4187">
        <ele>89.3</ele>
        <time>2015-06-08T18:58:26.796Z</time>
      </trkpt>
      <trkpt lat="48.81718" lon="2.41877">
        <ele>89</ele>
        <time>2015-06-08T18:58:27.782Z</time>
      </trkpt>
      <trkpt lat="48.81719" lon="2.41883">
        <ele>88.9</ele>
        <time>2015-06-08T18:58:28.788Z</time>
      </trkpt>
      <trkpt lat="48.8172" lon="2.41891">
        <ele>88.8</ele>
        <time>2015-06-08T18:58:29.800Z</time>
      </trkpt>
      <trkpt lat="48.81721" lon="2.41897">
        <ele>88.7</ele>
        <time>2015-06-08T18:58:30.743Z</time>
      </trkpt>
      <trkpt lat="48.81723" lon="2.41909">
        <ele>88.9</ele>
        <time>2015-06-08T18:58:32.788Z</time>
      </trkpt>
      <trkpt lat="48.81723" lon="2.41917">
        <ele>88.7</ele>
        <time>2015-06-08T18:58:33.784Z</time>
      </trkpt>
      <trkpt lat="48.81724" lon="2.41925">
        <ele>88.6</ele>
        <time>2015-06-08T18:58:34.811Z</time>
      </trkpt>
      <trkpt lat="48.81725" lon="2.41932">
        <ele>88.5</ele>
        <time>2015-06-08T18:58:35.743Z</time>
      </trkpt>
      <trkpt lat="48.81726" lon="2.41964">
        <ele>88.8</ele>
        <time>2015-06-08T18:58:39.816Z</time>
      </trkpt>
      <trkpt lat="48.81727" lon="2.41974">
        <ele>89.2</ele>
        <time>2015-06-08T18:58:42.762Z</time>
      </trkpt>
      <trkpt lat="48.81727" lon="2.41982">
        <ele>89.5</ele>
        <time>2015-06-08T18:58:43.763Z</time>
      </trkpt>
      <trkpt lat="48.81728" lon="2.41991">
        <ele>89.7</ele>
        <time>2015-06-08T18:58:44.788Z</time>
      </trkpt>
      <trkpt lat="48.81727" lon="2.42002">
        <ele>89.6</ele>
        <time>2015-06-08T18:58:45.801Z</time>
      </trkpt>
      <trkpt lat="48.81725" lon="2.42017">
        <ele>89.2</ele>
        <time>2015-06-08T18:58:46.703Z</time>
      </trkpt>
      <trkpt lat="48.81728" lon="2.42025">
        <ele>89.3</ele>
        <time>2015-06-08T18:58:47.721Z</time>
      </trkpt>
      <trkpt lat="48.81729" lon="2.42033">
        <ele>89.1</ele>
        <time>2015-06-08T18:58:48.714Z</time>
      </trkpt>
      <trkpt lat="48.81728" lon="2.42042">
        <ele>88.8</ele>
        <time>2015-06-08T18:58:49.788Z</time>
      </trkpt>
      <trkpt lat="48.81729" lon="2.42049">
        <ele>88.8</ele>
        <time>2015-06-08T18:58:50.804Z</time>
      </trkpt>
      <trkpt lat="48.81728" lon="2.42058">
        <ele>88.8</ele>
        <time>2015-06-08T18:58:51.726Z</time>
      </trkpt>
      <trkpt lat="48.81727" lon="2.42067">
        <ele>89.1</ele>
        <time>2015-06-08T18:58:52.725Z</time>
      </trkpt>
      <trkpt lat="48.81726" lon="2.42075">
        <ele>89.3</ele>
        <time>2015-06-08T18:58:53.726Z</time>
      </trkpt>
      <trkpt lat="48.81725" lon="2.42083">
        <ele>89.1</ele>
        <time>2015-06-08T18:58:54.739Z</time>
      </trkpt>
      <trkpt lat="48.81724" lon="2.4209">
        <ele>89.1</ele>
        <time>2015-06-08T18:58:55.752Z</time>
      </trkpt>
      <trkpt lat="48.81724" lon="2.42097">
        <ele>89.2</ele>
        <time>2015-06-08T18:58:56.874Z</time>
      </trkpt>
      <trkpt lat="48.81723" lon="2.42108">
        <ele>88.8</ele>
        <time>2015-06-08T18:58:58.795Z</time>
      </trkpt>
      <trkpt lat="48.81722" lon="2.42112">
        <ele>89.3</ele>
        <time>2015-06-08T18:58:59.809Z</time>
      </trkpt>
      <trkpt lat="48.81721" lon="2.42125">
        <ele>90</ele>
        <time>2015-06-08T18:59:02.812Z</time>
      </trkpt>
      <trkpt lat="48.81721" lon="2.42129">
        <ele>89.7</ele>
        <time>2015-06-08T18:59:03.828Z</time>
      </trkpt>
      <trkpt lat="48.81718" lon="2.42142">
        <ele>90.1</ele>
        <time>2015-06-08T18:59:06.759Z</time>
      </trkpt>
      <trkpt lat="48.81718" lon="2.42145">
        <ele>90</ele>
        <time>2015-06-08T18:59:07.774Z</time>
      </trkpt>
      <trkpt lat="48.81717" lon="2.42158">
        <ele>90.7</ele>
        <time>2015-06-08T18:59:10.804Z</time>
      </trkpt>
      <trkpt lat="48.81717" lon="2.42162">
        <ele>91</ele>
        <time>2015-06-08T18:59:11.815Z</time>
      </trkpt>
      <trkpt lat="48.81717" lon="2.42173">
        <ele>90.9</ele>
        <time>2015-06-08T18:59:14.824Z</time>
      </trkpt>
      <trkpt lat="48.81717" lon="2.42178">
        <ele>90.6</ele>
        <time>2015-06-08T18:59:15.882Z</time>
      </trkpt>
      <trkpt lat="48.81718" lon="2.42184">
        <ele>89.5</ele>
        <time>2015-06-08T18:59:16.746Z</time>
      </trkpt>
      <trkpt lat="48.81719" lon="2.42191">
        <ele>88.3</ele>
        <time>2015-06-08T18:59:17.773Z</time>
      </trkpt>
      <trkpt lat="48.8172" lon="2.42199">
        <ele>87.2</ele>
        <time>2015-06-08T18:59:18.812Z</time>
      </trkpt>
      <trkpt lat="48.81722" lon="2.42206">
        <ele>86.3</ele>
        <time>2015-06-08T18:59:19.849Z</time>
      </trkpt>
      <trkpt lat="48.81724" lon="2.42213">
        <ele>85.6</ele>
        <time>2015-06-08T18:59:20.868Z</time>
      </trkpt>
      <trkpt lat="48.81726" lon="2.4222">
        <ele>85.4</ele>
        <time>2015-06-08T18:59:21.736Z</time>
      </trkpt>
      <trkpt lat="48.81727" lon="2.42228">
        <ele>86.4</ele>
        <time>2015-06-08T18:59:22.748Z</time>
      </trkpt>
      <trkpt lat="48.81732" lon="2.42234">
        <ele>87.7</ele>
        <time>2015-06-08T18:59:23.761Z</time>
      </trkpt>
      <trkpt lat="48.81734" lon="2.42245">
        <ele>88.7</ele>
        <time>2015-06-08T18:59:25.780Z</time>
      </trkpt>
      <trkpt lat="48.81733" lon="2.42251">
        <ele>89.3</ele>
        <time>2015-06-08T18:59:26.855Z</time>
      </trkpt>
      <trkpt lat="48.81731" lon="2.42262">
        <ele>88.5</ele>
        <time>2015-06-08T18:59:28.768Z</time>
      </trkpt>
      <trkpt lat="48.8173" lon="2.42267">
        <ele>88.4</ele>
        <time>2015-06-08T18:59:29.808Z</time>
      </trkpt>
      <trkpt lat="48.81726" lon="2.42277">
        <ele>88.1</ele>
        <time>2015-06-08T18:59:31.797Z</time>
      </trkpt>
      <trkpt lat="48.81724" lon="2.42282">
        <ele>87.9</ele>
        <time>2015-06-08T18:59:32.844Z</time>
      </trkpt>
      <trkpt lat="48.81722" lon="2.42292">
        <ele>87.5</ele>
        <time>2015-06-08T18:59:35.162Z</time>
      </trkpt>
      <trkpt lat="48.81721" lon="2.42297">
        <ele>87.8</ele>
        <time>2015-06-08T18:59:35.829Z</time>
      </trkpt>
      <trkpt lat="48.8172" lon="2.42307">
        <ele>88</ele>
        <time>2015-06-08T18:59:37.762Z</time>
      </trkpt>
      <trkpt lat="48.81719" lon="2.42312">
        <ele>88.2</ele>
        <time>2015-06-08T18:59:38.809Z</time>
      </trkpt>
      <trkpt lat="48.81716" lon="2.42323">
        <ele>88.4</ele>
        <time>2015-06-08T18:59:41.343Z</time>
      </trkpt>
      <trkpt lat="48.81715" lon="2.4233">
        <ele>88.5</ele>
        <time>2015-06-08T18:59:41.760Z</time>
      </trkpt>
      <trkpt lat="48.81714" lon="2.42343">
        <ele>88.8</ele>
        <time>2015-06-08T18:59:43.764Z</time>
      </trkpt>
      <trkpt lat="48.81713" lon="2.4235">
        <ele>88.9</ele>
        <time>2015-06-08T18:59:44.855Z</time>
      </trkpt>
      <trkpt lat="48.81712" lon="2.42357">
        <ele>89</ele>
        <time>2015-06-08T18:59:46.420Z</time>
      </trkpt>
      <trkpt lat="48.8171" lon="2.42364">
        <ele>89.3</ele>
        <time>2015-06-08T18:59:46.773Z</time>
      </trkpt>
      <trkpt lat="48.81709" lon="2.42377">
        <ele>90</ele>
        <time>2015-06-08T18:59:48.792Z</time>
      </trkpt>
      <trkpt lat="48.81708" lon="2.42384">
        <ele>90.2</ele>
        <time>2015-06-08T18:59:49.859Z</time>
      </trkpt>
      <trkpt lat="48.81707" lon="2.42392">
        <ele>90.4</ele>
        <time>2015-06-08T18:59:50.802Z</time>
      </trkpt>
      <trkpt lat="48.81706" lon="2.42399">
        <ele>90.4</ele>
        <time>2015-06-08T18:59:51.816Z</time>
      </trkpt>
      <trkpt lat="48.81704" lon="2.42407">
        <ele>90.6</ele>
        <time>2015-06-08T18:59:51.466Z</time>
      </trkpt>
      <trkpt lat="48.81704" lon="2.42414">
        <ele>90.8</ele>
        <time>2015-06-08T18:59:53.991Z</time>
      </trkpt>
      <trkpt lat="48.81704" lon="2.42421">
        <ele>91</ele>
        <time>2015-06-08T18:59:54.753Z</time>
      </trkpt>
      <trkpt lat="48.81705" lon="2.42429">
        <ele>91.4</ele>
        <time>2015-06-08T18:59:55.765Z</time>
      </trkpt>
      <trkpt lat="48.81704" lon="2.42438">
        <ele>91.6</ele>
        <time>2015-06-08T18:59:56.775Z</time>
      </trkpt>
      <trkpt lat="48.81704" lon="2.42446">
        <ele>91.5</ele>
        <time>2015-06-08T18:59:57.791Z</time>
      </trkpt>
      <trkpt lat="48.81705" lon="2.42454">
        <ele>91.5</ele>
        <time>2015-06-08T18:59:58.814Z</time>
      </trkpt>
      <trkpt lat="48.81705" lon="2.4246">
        <ele>91.8</ele>
        <time>2015-06-08T18:59:59.822Z</time>
      </trkpt>
      <trkpt lat="48.81705" lon="2.42474">
        <ele>92.1</ele>
        <time>2015-06-08T19:00:01.747Z</time>
      </trkpt>
      <trkpt lat="48.81705" lon="2.42481">
        <ele>92</ele>
        <time>2015-06-08T19:00:02.831Z</time>
      </trkpt>
      <trkpt lat="48.81703" lon="2.42494">
        <ele>91.8</ele>
        <time>2015-06-08T19:00:04.771Z</time>
      </trkpt>
      <trkpt lat="48.81703" lon="2.425">
        <ele>91.9</ele>
        <time>2015-06-08T19:00:05.776Z</time>
      </trkpt>
      <trkpt lat="48.81704" lon="2.42512">
        <ele>91.6</ele>
        <time>2015-06-08T19:00:07.741Z</time>
      </trkpt>
      <trkpt lat="48.81704" lon="2.42517">
        <ele>91.6</ele>
        <time>2015-06-08T19:00:08.838Z</time>
      </trkpt>
      <trkpt lat="48.81702" lon="2.42527">
        <ele>91.6</ele>
        <time>2015-06-08T19:00:10.765Z</time>
      </trkpt>
      <trkpt lat="48.81701" lon="2.42532">
        <ele>91.5</ele>
        <time>2015-06-08T19:00:11.780Z</time>
      </trkpt>
      <trkpt lat="48.81698" lon="2.42543">
        <ele>91.2</ele>
        <time>2015-06-08T19:00:13.738Z</time>
      </trkpt>
      <trkpt lat="48.81696" lon="2.42551">
        <ele>91.2</ele>
        <time>2015-06-08T19:00:14.753Z</time>
      </trkpt>
      <trkpt lat="48.81694" lon="2.4256">
        <ele>91</ele>
        <time>2015-06-08T19:00:15.772Z</time>
      </trkpt>
      <trkpt lat="48.81693" lon="2.42571">
        <ele>90.8</ele>
        <time>2015-06-08T19:00:16.798Z</time>
      </trkpt>
      <trkpt lat="48.81692" lon="2.42583">
        <ele>90.8</ele>
        <time>2015-06-08T19:00:17.729Z</time>
      </trkpt>
      <trkpt lat="48.81692" lon="2.42596">
        <ele>90.3</ele>
        <time>2015-06-08T19:00:18.743Z</time>
      </trkpt>
      <trkpt lat="48.81692" lon="2.42608">
        <ele>89.7</ele>
        <time>2015-06-08T19:00:19.753Z</time>
      </trkpt>
      <trkpt lat="48.81692" lon="2.42619">
        <ele>89.5</ele>
        <time>2015-06-08T19:00:20.778Z</time>
      </trkpt>
      <trkpt lat="48.81692" lon="2.42629">
        <ele>89.4</ele>
        <time>2015-06-08T19:00:21.785Z</time>
      </trkpt>
      <trkpt lat="48.81692" lon="2.42639">
        <ele>89.2</ele>
        <time>2015-06-08T19:00:22.800Z</time>
      </trkpt>
      <trkpt lat="48.81692" lon="2.42647">
        <ele>88.9</ele>
        <time>2015-06-08T19:00:23.740Z</time>
      </trkpt>
      <trkpt lat="48.81693" lon="2.42655">
        <ele>88.4</ele>
        <time>2015-06-08T19:00:24.751Z</time>
      </trkpt>
      <trkpt lat="48.81693" lon="2.42663">
        <ele>88</ele>
        <time>2015-06-08T19:00:25.772Z</time>
      </trkpt>
      <trkpt lat="48.81693" lon="2.42673">
        <ele>88.5</ele>
        <time>2015-06-08T19:00:26.783Z</time>
      </trkpt>
      <trkpt lat="48.81692" lon="2.42681">
        <ele>88.8</ele>
        <time>2015-06-08T19:00:27.848Z</time>
      </trkpt>
      <trkpt lat="48.81692" lon="2.4269">
        <ele>88.9</ele>
        <time>2015-06-08T19:00:28.743Z</time>
      </trkpt>
      <trkpt lat="48.81691" lon="2.42702">
        <ele>89</ele>
        <time>2015-06-08T19:00:30.765Z</time>
      </trkpt>
      <trkpt lat="48.81691" lon="2.42709">
        <ele>88.9</ele>
        <time>2015-06-08T19:00:31.781Z</time>
      </trkpt>
      <trkpt lat="48.81691" lon="2.42717">
        <ele>88.8</ele>
        <time>2015-06-08T19:00:32.799Z</time>
      </trkpt>
      <trkpt lat="48.81691" lon="2.42724">
        <ele>88.7</ele>
        <time>2015-06-08T19:00:33.757Z</time>
      </trkpt>
      <trkpt lat="48.81691" lon="2.42731">
        <ele>88.5</ele>
        <time>2015-06-08T19:00:34.725Z</time>
      </trkpt>
      <trkpt lat="48.81692" lon="2.42739">
        <ele>87.8</ele>
        <time>2015-06-08T19:00:35.732Z</time>
      </trkpt>
      <trkpt lat="48.81693" lon="2.42748">
        <ele>87.3</ele>
        <time>2015-06-08T19:00:36.748Z</time>
      </trkpt>
      <trkpt lat="48.81693" lon="2.42755">
        <ele>87.2</ele>
        <time>2015-06-08T19:00:37.763Z</time>
      </trkpt>
      <trkpt lat="48.81692" lon="2.42763">
        <ele>87.5</ele>
        <time>2015-06-08T19:00:38.861Z</time>
      </trkpt>
      <trkpt lat="48.81693" lon="2.4277">
        <ele>87.7</ele>
        <time>2015-06-08T19:00:39.781Z</time>
      </trkpt>
      <trkpt lat="48.81692" lon="2.42783">
        <ele>87.8</ele>
        <time>2015-06-08T19:00:41.753Z</time>
      </trkpt>
      <trkpt lat="48.81693" lon="2.4279">
        <ele>87.2</ele>
        <time>2015-06-08T19:00:42.765Z</time>
      </trkpt>
      <trkpt lat="48.81693" lon="2.42802">
        <ele>86.8</ele>
        <time>2015-06-08T19:00:44.801Z</time>
      </trkpt>
      <trkpt lat="48.81694" lon="2.42809">
        <ele>87.1</ele>
        <time>2015-06-08T19:00:45.821Z</time>
      </trkpt>
      <trkpt lat="48.81694" lon="2.42816">
        <ele>87.7</ele>
        <time>2015-06-08T19:00:46.743Z</time>
      </trkpt>
      <trkpt lat="48.81693" lon="2.42824">
        <ele>87.9</ele>
        <time>2015-06-08T19:00:47.743Z</time>
      </trkpt>
      <trkpt lat="48.81694" lon="2.42831">
        <ele>87.9</ele>
        <time>2015-06-08T19:00:48.754Z</time>
      </trkpt>
      <trkpt lat="48.81695" lon="2.42838">
        <ele>87.7</ele>
        <time>2015-06-08T19:00:49.763Z</time>
      </trkpt>
      <trkpt lat="48.81695" lon="2.42851">
        <ele>87.7</ele>
        <time>2015-06-08T19:00:51.783Z</time>
      </trkpt>
      <trkpt lat="48.81695" lon="2.42857">
        <ele>87.4</ele>
        <time>2015-06-08T19:00:52.808Z</time>
      </trkpt>
      <trkpt lat="48.81695" lon="2.42871">
        <ele>87.3</ele>
        <time>2015-06-08T19:00:54.746Z</time>
      </trkpt>
      <trkpt lat="48.81695" lon="2.42878">
        <ele>87.2</ele>
        <time>2015-06-08T19:00:55.758Z</time>
      </trkpt>
      <trkpt lat="48.81695" lon="2.4289">
        <ele>87.2</ele>
        <time>2015-06-08T19:00:57.791Z</time>
      </trkpt>
      <trkpt lat="48.81695" lon="2.42896">
        <ele>87.4</ele>
        <time>2015-06-08T19:00:58.808Z</time>
      </trkpt>
      <trkpt lat="48.81697" lon="2.42907">
        <ele>87.6</ele>
        <time>2015-06-08T19:01:00.765Z</time>
      </trkpt>
      <trkpt lat="48.81698" lon="2.42912">
        <ele>87.8</ele>
        <time>2015-06-08T19:01:01.776Z</time>
      </trkpt>
      <trkpt lat="48.81699" lon="2.42923">
        <ele>87.8</ele>
        <time>2015-06-08T19:01:03.844Z</time>
      </trkpt>
      <trkpt lat="48.81699" lon="2.42929">
        <ele>87.8</ele>
        <time>2015-06-08T19:01:04.711Z</time>
      </trkpt>
      <trkpt lat="48.81699" lon="2.42936">
        <ele>87.6</ele>
        <time>2015-06-08T19:01:05.737Z</time>
      </trkpt>
      <trkpt lat="48.817" lon="2.42942">
        <ele>87.4</ele>
        <time>2015-06-08T19:01:06.881Z</time>
      </trkpt>
      <trkpt lat="48.81701" lon="2.42951">
        <ele>87.3</ele>
        <time>2015-06-08T19:01:07.749Z</time>
      </trkpt>
      <trkpt lat="48.817" lon="2.42959">
        <ele>87.3</ele>
        <time>2015-06-08T19:01:08.794Z</time>
      </trkpt>
      <trkpt lat="48.817" lon="2.42968">
        <ele>87.1</ele>
        <time>2015-06-08T19:01:09.796Z</time>
      </trkpt>
      <trkpt lat="48.81699" lon="2.42979">
        <ele>87.3</ele>
        <time>2015-06-08T19:01:10.804Z</time>
      </trkpt>
      <trkpt lat="48.81697" lon="2.42989">
        <ele>87.3</ele>
        <time>2015-06-08T19:01:11.816Z</time>
      </trkpt>
      <trkpt lat="48.81696" lon="2.42999">
        <ele>87.4</ele>
        <time>2015-06-08T19:01:12.705Z</time>
      </trkpt>
      <trkpt lat="48.81694" lon="2.43011">
        <ele>87.2</ele>
        <time>2015-06-08T19:01:13.775Z</time>
      </trkpt>
      <trkpt lat="48.81692" lon="2.43023">
        <ele>87</ele>
        <time>2015-06-08T19:01:14.787Z</time>
      </trkpt>
      <trkpt lat="48.81691" lon="2.43035">
        <ele>86.7</ele>
        <time>2015-06-08T19:01:15.718Z</time>
      </trkpt>
      <trkpt lat="48.81691" lon="2.43047">
        <ele>86.3</ele>
        <time>2015-06-08T19:01:16.790Z</time>
      </trkpt>
      <trkpt lat="48.8169" lon="2.43059">
        <ele>86.3</ele>
        <time>2015-06-08T19:01:17.766Z</time>
      </trkpt>
      <trkpt lat="48.81691" lon="2.43071">
        <ele>85.8</ele>
        <time>2015-06-08T19:01:18.775Z</time>
      </trkpt>
      <trkpt lat="48.81691" lon="2.43082">
        <ele>85.7</ele>
        <time>2015-06-08T19:01:19.794Z</time>
      </trkpt>
      <trkpt lat="48.81691" lon="2.43091">
        <ele>85.8</ele>
        <time>2015-06-08T19:01:20.804Z</time>
      </trkpt>
      <trkpt lat="48.8169" lon="2.431">
        <ele>85.6</ele>
        <time>2015-06-08T19:01:21.825Z</time>
      </trkpt>
      <trkpt lat="48.81691" lon="2.43109">
        <ele>85.4</ele>
        <time>2015-06-08T19:01:22.744Z</time>
      </trkpt>
      <trkpt lat="48.81693" lon="2.43118">
        <ele>84.9</ele>
        <time>2015-06-08T19:01:23.762Z</time>
      </trkpt>
      <trkpt lat="48.81696" lon="2.43126">
        <ele>84.2</ele>
        <time>2015-06-08T19:01:24.772Z</time>
      </trkpt>
      <trkpt lat="48.81697" lon="2.43134">
        <ele>83.8</ele>
        <time>2015-06-08T19:01:25.774Z</time>
      </trkpt>
      <trkpt lat="48.81697" lon="2.43142">
        <ele>83.3</ele>
        <time>2015-06-08T19:01:26.794Z</time>
      </trkpt>
      <trkpt lat="48.81697" lon="2.4315">
        <ele>82.8</ele>
        <time>2015-06-08T19:01:27.996Z</time>
      </trkpt>
      <trkpt lat="48.817" lon="2.43159">
        <ele>82.1</ele>
        <time>2015-06-08T19:01:28.746Z</time>
      </trkpt>
      <trkpt lat="48.81702" lon="2.43166">
        <ele>81.4</ele>
        <time>2015-06-08T19:01:29.752Z</time>
      </trkpt>
      <trkpt lat="48.81703" lon="2.43175">
        <ele>81.5</ele>
        <time>2015-06-08T19:01:30.757Z</time>
      </trkpt>
      <trkpt lat="48.81704" lon="2.43184">
        <ele>81.8</ele>
        <time>2015-06-08T19:01:31.766Z</time>
      </trkpt>
      <trkpt lat="48.81705" lon="2.43196">
        <ele>81.7</ele>
        <time>2015-06-08T19:01:32.801Z</time>
      </trkpt>
      <trkpt lat="48.81704" lon="2.4321">
        <ele>81.1</ele>
        <time>2015-06-08T19:01:33.817Z</time>
      </trkpt>
      <trkpt lat="48.81704" lon="2.43222">
        <ele>81.1</ele>
        <time>2015-06-08T19:01:34.737Z</time>
      </trkpt>
      <trkpt lat="48.81704" lon="2.43236">
        <ele>80.4</ele>
        <time>2015-06-08T19:01:35.764Z</time>
      </trkpt>
      <trkpt lat="48.81706" lon="2.43247">
        <ele>79.8</ele>
        <time>2015-06-08T19:01:36.736Z</time>
      </trkpt>
      <trkpt lat="48.81706" lon="2.43259">
        <ele>79.9</ele>
        <time>2015-06-08T19:01:37.747Z</time>
      </trkpt>
      <trkpt lat="48.81706" lon="2.4327">
        <ele>80.3</ele>
        <time>2015-06-08T19:01:38.777Z</time>
      </trkpt>
      <trkpt lat="48.81706" lon="2.43282">
        <ele>80.3</ele>
        <time>2015-06-08T19:01:39.792Z</time>
      </trkpt>
      <trkpt lat="48.81706" lon="2.43293">
        <ele>81.1</ele>
        <time>2015-06-08T19:01:40.800Z</time>
      </trkpt>
      <trkpt lat="48.81705" lon="2.43304">
        <ele>81.3</ele>
        <time>2015-06-08T19:01:41.711Z</time>
      </trkpt>
      <trkpt lat="48.81704" lon="2.43315">
        <ele>81.3</ele>
        <time>2015-06-08T19:01:42.760Z</time>
      </trkpt>
      <trkpt lat="48.81702" lon="2.43325">
        <ele>81.4</ele>
        <time>2015-06-08T19:01:43.771Z</time>
      </trkpt>
      <trkpt lat="48.817" lon="2.43334">
        <ele>81.5</ele>
        <time>2015-06-08T19:01:44.774Z</time>
      </trkpt>
      <trkpt lat="48.81697" lon="2.43343">
        <ele>81.5</ele>
        <time>2015-06-08T19:01:45.779Z</time>
      </trkpt>
      <trkpt lat="48.81693" lon="2.43352">
        <ele>81.5</ele>
        <time>2015-06-08T19:01:46.795Z</time>
      </trkpt>
      <trkpt lat="48.81689" lon="2.4336">
        <ele>81.5</ele>
        <time>2015-06-08T19:01:47.714Z</time>
      </trkpt>
      <trkpt lat="48.81686" lon="2.43366">
        <ele>81.1</ele>
        <time>2015-06-08T19:01:48.735Z</time>
      </trkpt>
      <trkpt lat="48.81684" lon="2.43373">
        <ele>81</ele>
        <time>2015-06-08T19:01:49.787Z</time>
      </trkpt>
      <trkpt lat="48.81681" lon="2.43378">
        <ele>80.6</ele>
        <time>2015-06-08T19:01:51.034Z</time>
      </trkpt>
      <trkpt lat="48.8168" lon="2.43385">
        <ele>80.7</ele>
        <time>2015-06-08T19:01:51.713Z</time>
      </trkpt>
      <trkpt lat="48.81679" lon="2.43392">
        <ele>81</ele>
        <time>2015-06-08T19:01:52.755Z</time>
      </trkpt>
      <trkpt lat="48.81678" lon="2.434">
        <ele>81.1</ele>
        <time>2015-06-08T19:01:53.762Z</time>
      </trkpt>
      <trkpt lat="48.81677" lon="2.43409">
        <ele>81.5</ele>
        <time>2015-06-08T19:01:54.777Z</time>
      </trkpt>
      <trkpt lat="48.81678" lon="2.43418">
        <ele>81.9</ele>
        <time>2015-06-08T19:01:55.778Z</time>
      </trkpt>
      <trkpt lat="48.81678" lon="2.43427">
        <ele>82.3</ele>
        <time>2015-06-08T19:01:56.743Z</time>
      </trkpt>
      <trkpt lat="48.81678" lon="2.43435">
        <ele>82.6</ele>
        <time>2015-06-08T19:01:57.743Z</time>
      </trkpt>
      <trkpt lat="48.81678" lon="2.43445">
        <ele>82.4</ele>
        <time>2015-06-08T19:01:58.765Z</time>
      </trkpt>
      <trkpt lat="48.81679" lon="2.43456">
        <ele>82</ele>
        <time>2015-06-08T19:01:59.776Z</time>
      </trkpt>
      <trkpt lat="48.8168" lon="2.43465">
        <ele>82.3</ele>
        <time>2015-06-08T19:02:00.783Z</time>
      </trkpt>
      <trkpt lat="48.81681" lon="2.43475">
        <ele>82.6</ele>
        <time>2015-06-08T19:02:01.789Z</time>
      </trkpt>
      <trkpt lat="48.81682" lon="2.43485">
        <ele>82</ele>
        <time>2015-06-08T19:02:02.842Z</time>
      </trkpt>
      <trkpt lat="48.81683" lon="2.43494">
        <ele>81.6</ele>
        <time>2015-06-08T19:02:03.721Z</time>
      </trkpt>
      <trkpt lat="48.81685" lon="2.43504">
        <ele>81</ele>
        <time>2015-06-08T19:02:04.743Z</time>
      </trkpt>
      <trkpt lat="48.81687" lon="2.43514">
        <ele>80.5</ele>
        <time>2015-06-08T19:02:05.805Z</time>
      </trkpt>
      <trkpt lat="48.8169" lon="2.43523">
        <ele>80.3</ele>
        <time>2015-06-08T19:02:06.711Z</time>
      </trkpt>
      <trkpt lat="48.81692" lon="2.43534">
        <ele>81</ele>
        <time>2015-06-08T19:02:07.711Z</time>
      </trkpt>
      <trkpt lat="48.81695" lon="2.43543">
        <ele>81.4</ele>
        <time>2015-06-08T19:02:08.744Z</time>
      </trkpt>
      <trkpt lat="48.81698" lon="2.43551">
        <ele>81.6</ele>
        <time>2015-06-08T19:02:09.754Z</time>
      </trkpt>
      <trkpt lat="48.81702" lon="2.43558">
        <ele>81.3</ele>
        <time>2015-06-08T19:02:10.767Z</time>
      </trkpt>
      <trkpt lat="48.81706" lon="2.43565">
        <ele>81.4</ele>
        <time>2015-06-08T19:02:11.770Z</time>
      </trkpt>
      <trkpt lat="48.81709" lon="2.43572">
        <ele>81.5</ele>
        <time>2015-06-08T19:02:12.684Z</time>
      </trkpt>
      <trkpt lat="48.81713" lon="2.4358">
        <ele>82.1</ele>
        <time>2015-06-08T19:02:13.718Z</time>
      </trkpt>
      <trkpt lat="48.81716" lon="2.43589">
        <ele>82.4</ele>
        <time>2015-06-08T19:02:14.731Z</time>
      </trkpt>
      <trkpt lat="48.81719" lon="2.43598">
        <ele>82.6</ele>
        <time>2015-06-08T19:02:15.759Z</time>
      </trkpt>
      <trkpt lat="48.8172" lon="2.43607">
        <ele>82.9</ele>
        <time>2015-06-08T19:02:16.763Z</time>
      </trkpt>
      <trkpt lat="48.81721" lon="2.43617">
        <ele>83</ele>
        <time>2015-06-08T19:02:17.763Z</time>
      </trkpt>
      <trkpt lat="48.8172" lon="2.43627">
        <ele>83.2</ele>
        <time>2015-06-08T19:02:18.774Z</time>
      </trkpt>
      <trkpt lat="48.81719" lon="2.43637">
        <ele>83.2</ele>
        <time>2015-06-08T19:02:19.779Z</time>
      </trkpt>
      <trkpt lat="48.81719" lon="2.43646">
        <ele>83.3</ele>
        <time>2015-06-08T19:02:20.788Z</time>
      </trkpt>
      <trkpt lat="48.8172" lon="2.43656">
        <ele>83.2</ele>
        <time>2015-06-08T19:02:21.799Z</time>
      </trkpt>
      <trkpt lat="48.8172" lon="2.43666">
        <ele>83.6</ele>
        <time>2015-06-08T19:02:22.719Z</time>
      </trkpt>
      <trkpt lat="48.81721" lon="2.43676">
        <ele>83.8</ele>
        <time>2015-06-08T19:02:23.724Z</time>
      </trkpt>
      <trkpt lat="48.81722" lon="2.43687">
        <ele>84</ele>
        <time>2015-06-08T19:02:24.739Z</time>
      </trkpt>
      <trkpt lat="48.81722" lon="2.43697">
        <ele>84.2</ele>
        <time>2015-06-08T19:02:25.749Z</time>
      </trkpt>
      <trkpt lat="48.81722" lon="2.43708">
        <ele>84.6</ele>
        <time>2015-06-08T19:02:26.763Z</time>
      </trkpt>
      <trkpt lat="48.81722" lon="2.43717">
        <ele>84.3</ele>
        <time>2015-06-08T19:02:27.773Z</time>
      </trkpt>
      <trkpt lat="48.81721" lon="2.43728">
        <ele>84.5</ele>
        <time>2015-06-08T19:02:28.787Z</time>
      </trkpt>
      <trkpt lat="48.81721" lon="2.43738">
        <ele>84.8</ele>
        <time>2015-06-08T19:02:29.796Z</time>
      </trkpt>
      <trkpt lat="48.81721" lon="2.43748">
        <ele>84.9</ele>
        <time>2015-06-08T19:02:30.716Z</time>
      </trkpt>
      <trkpt lat="48.81721" lon="2.43758">
        <ele>84.8</ele>
        <time>2015-06-08T19:02:31.725Z</time>
      </trkpt>
      <trkpt lat="48.81721" lon="2.43768">
        <ele>84.8</ele>
        <time>2015-06-08T19:02:32.766Z</time>
      </trkpt>
      <trkpt lat="48.81721" lon="2.43778">
        <ele>84.9</ele>
        <time>2015-06-08T19:02:33.748Z</time>
      </trkpt>
      <trkpt lat="48.81721" lon="2.43787">
        <ele>84.8</ele>
        <time>2015-06-08T19:02:34.760Z</time>
      </trkpt>
      <trkpt lat="48.81721" lon="2.43797">
        <ele>85</ele>
        <time>2015-06-08T19:02:35.764Z</time>
      </trkpt>
      <trkpt lat="48.8172" lon="2.43807">
        <ele>85.3</ele>
        <time>2015-06-08T19:02:36.780Z</time>
      </trkpt>
      <trkpt lat="48.8172" lon="2.43817">
        <ele>85.6</ele>
        <time>2015-06-08T19:02:37.790Z</time>
      </trkpt>
      <trkpt lat="48.81719" lon="2.43826">
        <ele>85.5</ele>
        <time>2015-06-08T19:02:38.799Z</time>
      </trkpt>
      <trkpt lat="48.81717" lon="2.43834">
        <ele>85.3</ele>
        <time>2015-06-08T19:02:39.806Z</time>
      </trkpt>
      <trkpt lat="48.81717" lon="2.43844">
        <ele>85.6</ele>
        <time>2015-06-08T19:02:41.012Z</time>
      </trkpt>
      <trkpt lat="48.81716" lon="2.43853">
        <ele>86</ele>
        <time>2015-06-08T19:02:41.718Z</time>
      </trkpt>
      <trkpt lat="48.81716" lon="2.43863">
        <ele>86.1</ele>
        <time>2015-06-08T19:02:42.738Z</time>
      </trkpt>
      <trkpt lat="48.81715" lon="2.43873">
        <ele>86</ele>
        <time>2015-06-08T19:02:43.774Z</time>
      </trkpt>
      <trkpt lat="48.81714" lon="2.43882">
        <ele>86.3</ele>
        <time>2015-06-08T19:02:44.849Z</time>
      </trkpt>
      <trkpt lat="48.81712" lon="2.43892">
        <ele>86.6</ele>
        <time>2015-06-08T19:02:45.731Z</time>
      </trkpt>
      <trkpt lat="48.81711" lon="2.43902">
        <ele>86.4</ele>
        <time>2015-06-08T19:02:46.731Z</time>
      </trkpt>
      <trkpt lat="48.8171" lon="2.43912">
        <ele>86.2</ele>
        <time>2015-06-08T19:02:47.743Z</time>
      </trkpt>
      <trkpt lat="48.81709" lon="2.43921">
        <ele>85.7</ele>
        <time>2015-06-08T19:02:48.751Z</time>
      </trkpt>
      <trkpt lat="48.81707" lon="2.4393">
        <ele>85.1</ele>
        <time>2015-06-08T19:02:49.771Z</time>
      </trkpt>
      <trkpt lat="48.81705" lon="2.4394">
        <ele>84.8</ele>
        <time>2015-06-08T19:02:50.785Z</time>
      </trkpt>
      <trkpt lat="48.81703" lon="2.43951">
        <ele>84.6</ele>
        <time>2015-06-08T19:02:51.802Z</time>
      </trkpt>
      <trkpt lat="48.81701" lon="2.43962">
        <ele>84.5</ele>
        <time>2015-06-08T19:02:52.962Z</time>
      </trkpt>
      <trkpt lat="48.817" lon="2.43972">
        <ele>84.2</ele>
        <time>2015-06-08T19:02:53.729Z</time>
      </trkpt>
      <trkpt lat="48.817" lon="2.43982">
        <ele>84.2</ele>
        <time>2015-06-08T19:02:54.742Z</time>
      </trkpt>
      <trkpt lat="48.81699" lon="2.43991">
        <ele>84</ele>
        <time>2015-06-08T19:02:55.823Z</time>
      </trkpt>
      <trkpt lat="48.81698" lon="2.43999">
        <ele>83.9</ele>
        <time>2015-06-08T19:02:56.857Z</time>
      </trkpt>
      <trkpt lat="48.81697" lon="2.44007">
        <ele>84</ele>
        <time>2015-06-08T19:02:57.734Z</time>
      </trkpt>
      <trkpt lat="48.81696" lon="2.44014">
        <ele>84.4</ele>
        <time>2015-06-08T19:02:58.759Z</time>
      </trkpt>
      <trkpt lat="48.81695" lon="2.44022">
        <ele>84.4</ele>
        <time>2015-06-08T19:02:59.768Z</time>
      </trkpt>
      <trkpt lat="48.81694" lon="2.44029">
        <ele>84.7</ele>
        <time>2015-06-08T19:03:00.794Z</time>
      </trkpt>
      <trkpt lat="48.81692" lon="2.44036">
        <ele>84.9</ele>
        <time>2015-06-08T19:03:01.708Z</time>
      </trkpt>
      <trkpt lat="48.81689" lon="2.44042">
        <ele>85.5</ele>
        <time>2015-06-08T19:03:02.819Z</time>
      </trkpt>
      <trkpt lat="48.81687" lon="2.44049">
        <ele>86</ele>
        <time>2015-06-08T19:03:04.019Z</time>
      </trkpt>
      <trkpt lat="48.81685" lon="2.44056">
        <ele>86.3</ele>
        <time>2015-06-08T19:03:04.745Z</time>
      </trkpt>
      <trkpt lat="48.81683" lon="2.44062">
        <ele>86.5</ele>
        <time>2015-06-08T19:03:05.750Z</time>
      </trkpt>
      <trkpt lat="48.81681" lon="2.44075">
        <ele>87.1</ele>
        <time>2015-06-08T19:03:07.764Z</time>
      </trkpt>
      <trkpt lat="48.81679" lon="2.44082">
        <ele>87.4</ele>
        <time>2015-06-08T19:03:08.787Z</time>
      </trkpt>
      <trkpt lat="48.81677" lon="2.44091">
        <ele>87.6</ele>
        <time>2015-06-08T19:03:09.712Z</time>
      </trkpt>
      <trkpt lat="48.81675" lon="2.44101">
        <ele>87.1</ele>
        <time>2015-06-08T19:03:10.725Z</time>
      </trkpt>
      <trkpt lat="48.81674" lon="2.44109">
        <ele>86.7</ele>
        <time>2015-06-08T19:03:11.744Z</time>
      </trkpt>
      <trkpt lat="48.81673" lon="2.44117">
        <ele>86.4</ele>
        <time>2015-06-08T19:03:12.752Z</time>
      </trkpt>
      <trkpt lat="48.81672" lon="2.44125">
        <ele>86.7</ele>
        <time>2015-06-08T19:03:13.771Z</time>
      </trkpt>
      <trkpt lat="48.8167" lon="2.44132">
        <ele>86.4</ele>
        <time>2015-06-08T19:03:14.780Z</time>
      </trkpt>
      <trkpt lat="48.81669" lon="2.44138">
        <ele>86.4</ele>
        <time>2015-06-08T19:03:15.802Z</time>
      </trkpt>
      <trkpt lat="48.81668" lon="2.44146">
        <ele>86.5</ele>
        <time>2015-06-08T19:03:16.719Z</time>
      </trkpt>
      <trkpt lat="48.81666" lon="2.44155">
        <ele>86.4</ele>
        <time>2015-06-08T19:03:17.744Z</time>
      </trkpt>
      <trkpt lat="48.81665" lon="2.44167">
        <ele>86.2</ele>
        <time>2015-06-08T19:03:18.758Z</time>
      </trkpt>
      <trkpt lat="48.81664" lon="2.44178">
        <ele>86.1</ele>
        <time>2015-06-08T19:03:19.796Z</time>
      </trkpt>
      <trkpt lat="48.81663" lon="2.44189">
        <ele>86</ele>
        <time>2015-06-08T19:03:20.801Z</time>
      </trkpt>
      <trkpt lat="48.81662" lon="2.44199">
        <ele>86.3</ele>
        <time>2015-06-08T19:03:21.806Z</time>
      </trkpt>
      <trkpt lat="48.81661" lon="2.4421">
        <ele>86.5</ele>
        <time>2015-06-08T19:03:22.716Z</time>
      </trkpt>
      <trkpt lat="48.8166" lon="2.44222">
        <ele>86.5</ele>
        <time>2015-06-08T19:03:23.717Z</time>
      </trkpt>
      <trkpt lat="48.81659" lon="2.44233">
        <ele>86.4</ele>
        <time>2015-06-08T19:03:24.738Z</time>
      </trkpt>
      <trkpt lat="48.81659" lon="2.44243">
        <ele>86.5</ele>
        <time>2015-06-08T19:03:25.733Z</time>
      </trkpt>
      <trkpt lat="48.81659" lon="2.44252">
        <ele>86.8</ele>
        <time>2015-06-08T19:03:26.758Z</time>
      </trkpt>
      <trkpt lat="48.81658" lon="2.44262">
        <ele>86.8</ele>
        <time>2015-06-08T19:03:27.769Z</time>
      </trkpt>
      <trkpt lat="48.81656" lon="2.44273">
        <ele>87</ele>
        <time>2015-06-08T19:03:28.779Z</time>
      </trkpt>
      <trkpt lat="48.81654" lon="2.44283">
        <ele>87</ele>
        <time>2015-06-08T19:03:29.790Z</time>
      </trkpt>
      <trkpt lat="48.81653" lon="2.44292">
        <ele>87</ele>
        <time>2015-06-08T19:03:30.802Z</time>
      </trkpt>
      <trkpt lat="48.81653" lon="2.443">
        <ele>87</ele>
        <time>2015-06-08T19:03:31.823Z</time>
      </trkpt>
      <trkpt lat="48.81654" lon="2.44308">
        <ele>86.2</ele>
        <time>2015-06-08T19:03:32.847Z</time>
      </trkpt>
      <trkpt lat="48.81655" lon="2.44316">
        <ele>85.6</ele>
        <time>2015-06-08T19:03:33.753Z</time>
      </trkpt>
      <trkpt lat="48.81657" lon="2.44324">
        <ele>85.2</ele>
        <time>2015-06-08T19:03:34.791Z</time>
      </trkpt>
      <trkpt lat="48.81659" lon="2.4433">
        <ele>85.2</ele>
        <time>2015-06-08T19:03:35.734Z</time>
      </trkpt>
      <trkpt lat="48.81659" lon="2.44338">
        <ele>85.5</ele>
        <time>2015-06-08T19:03:36.741Z</time>
      </trkpt>
      <trkpt lat="48.81658" lon="2.44347">
        <ele>85.6</ele>
        <time>2015-06-08T19:03:37.761Z</time>
      </trkpt>
      <trkpt lat="48.81658" lon="2.44357">
        <ele>85.7</ele>
        <time>2015-06-08T19:03:38.779Z</time>
      </trkpt>
      <trkpt lat="48.81658" lon="2.44367">
        <ele>85.6</ele>
        <time>2015-06-08T19:03:39.777Z</time>
      </trkpt>
      <trkpt lat="48.81658" lon="2.44378">
        <ele>85.6</ele>
        <time>2015-06-08T19:03:40.782Z</time>
      </trkpt>
      <trkpt lat="48.81657" lon="2.44388">
        <ele>85.6</ele>
        <time>2015-06-08T19:03:41.905Z</time>
      </trkpt>
      <trkpt lat="48.81656" lon="2.44398">
        <ele>85.8</ele>
        <time>2015-06-08T19:03:42.753Z</time>
      </trkpt>
      <trkpt lat="48.81655" lon="2.44409">
        <ele>85.6</ele>
        <time>2015-06-08T19:03:43.779Z</time>
      </trkpt>
      <trkpt lat="48.81655" lon="2.44419">
        <ele>85.6</ele>
        <time>2015-06-08T19:03:44.797Z</time>
      </trkpt>
      <trkpt lat="48.81654" lon="2.44427">
        <ele>85.4</ele>
        <time>2015-06-08T19:03:45.738Z</time>
      </trkpt>
      <trkpt lat="48.81656" lon="2.44437">
        <ele>85.1</ele>
        <time>2015-06-08T19:03:46.746Z</time>
      </trkpt>
      <trkpt lat="48.81659" lon="2.44448">
        <ele>84.9</ele>
        <time>2015-06-08T19:03:47.748Z</time>
      </trkpt>
      <trkpt lat="48.81662" lon="2.44458">
        <ele>84.8</ele>
        <time>2015-06-08T19:03:48.755Z</time>
      </trkpt>
      <trkpt lat="48.81664" lon="2.44471">
        <ele>84</ele>
        <time>2015-06-08T19:03:49.763Z</time>
      </trkpt>
      <trkpt lat="48.81665" lon="2.4448">
        <ele>84</ele>
        <time>2015-06-08T19:03:50.784Z</time>
      </trkpt>
      <trkpt lat="48.81666" lon="2.44489">
        <ele>83.8</ele>
        <time>2015-06-08T19:03:51.793Z</time>
      </trkpt>
      <trkpt lat="48.81667" lon="2.44496">
        <ele>83.5</ele>
        <time>2015-06-08T19:03:52.803Z</time>
      </trkpt>
      <trkpt lat="48.81668" lon="2.44509">
        <ele>83.3</ele>
        <time>2015-06-08T19:03:54.832Z</time>
      </trkpt>
      <trkpt lat="48.81668" lon="2.44515">
        <ele>83.6</ele>
        <time>2015-06-08T19:03:55.754Z</time>
      </trkpt>
      <trkpt lat="48.81668" lon="2.44528">
        <ele>83.1</ele>
        <time>2015-06-08T19:03:57.741Z</time>
      </trkpt>
      <trkpt lat="48.81668" lon="2.44536">
        <ele>83.6</ele>
        <time>2015-06-08T19:03:58.774Z</time>
      </trkpt>
      <trkpt lat="48.81668" lon="2.44545">
        <ele>84.2</ele>
        <time>2015-06-08T19:03:59.804Z</time>
      </trkpt>
      <trkpt lat="48.81668" lon="2.44554">
        <ele>84.5</ele>
        <time>2015-06-08T19:04:00.824Z</time>
      </trkpt>
      <trkpt lat="48.81667" lon="2.44563">
        <ele>84.5</ele>
        <time>2015-06-08T19:04:01.825Z</time>
      </trkpt>
      <trkpt lat="48.81667" lon="2.44571">
        <ele>84.4</ele>
        <time>2015-06-08T19:04:02.836Z</time>
      </trkpt>
      <trkpt lat="48.81667" lon="2.44579">
        <ele>84.5</ele>
        <time>2015-06-08T19:04:03.746Z</time>
      </trkpt>
      <trkpt lat="48.81666" lon="2.44587">
        <ele>84.5</ele>
        <time>2015-06-08T19:04:04.752Z</time>
      </trkpt>
      <trkpt lat="48.81665" lon="2.44594">
        <ele>84.5</ele>
        <time>2015-06-08T19:04:05.771Z</time>
      </trkpt>
      <trkpt lat="48.81666" lon="2.44601">
        <ele>84.6</ele>
        <time>2015-06-08T19:04:06.776Z</time>
      </trkpt>
      <trkpt lat="48.81666" lon="2.44609">
        <ele>85.3</ele>
        <time>2015-06-08T19:04:07.784Z</time>
      </trkpt>
      <trkpt lat="48.81666" lon="2.44618">
        <ele>85.9</ele>
        <time>2015-06-08T19:04:08.795Z</time>
      </trkpt>
      <trkpt lat="48.81665" lon="2.44626">
        <ele>86.2</ele>
        <time>2015-06-08T19:04:09.801Z</time>
      </trkpt>
      <trkpt lat="48.81664" lon="2.44634">
        <ele>85.9</ele>
        <time>2015-06-08T19:04:10.825Z</time>
      </trkpt>
      <trkpt lat="48.81663" lon="2.44643">
        <ele>85.6</ele>
        <time>2015-06-08T19:04:11.738Z</time>
      </trkpt>
      <trkpt lat="48.81662" lon="2.44652">
        <ele>85.1</ele>
        <time>2015-06-08T19:04:12.752Z</time>
      </trkpt>
      <trkpt lat="48.81661" lon="2.44661">
        <ele>84.8</ele>
        <time>2015-06-08T19:04:13.770Z</time>
      </trkpt>
      <trkpt lat="48.8166" lon="2.44671">
        <ele>84.9</ele>
        <time>2015-06-08T19:04:14.783Z</time>
      </trkpt>
      <trkpt lat="48.8166" lon="2.44682">
        <ele>85.1</ele>
        <time>2015-06-08T19:04:15.778Z</time>
      </trkpt>
      <trkpt lat="48.81658" lon="2.44691">
        <ele>85.4</ele>
        <time>2015-06-08T19:04:16.790Z</time>
      </trkpt>
      <trkpt lat="48.81657" lon="2.44701">
        <ele>85.5</ele>
        <time>2015-06-08T19:04:17.795Z</time>
      </trkpt>
      <trkpt lat="48.81654" lon="2.44711">
        <ele>85.5</ele>
        <time>2015-06-08T19:04:18.804Z</time>
      </trkpt>
      <trkpt lat="48.81652" lon="2.4472">
        <ele>85.6</ele>
        <time>2015-06-08T19:04:19.822Z</time>
      </trkpt>
      <trkpt lat="48.81649" lon="2.44731">
        <ele>85.9</ele>
        <time>2015-06-08T19:04:20.831Z</time>
      </trkpt>
      <trkpt lat="48.81647" lon="2.44743">
        <ele>86.1</ele>
        <time>2015-06-08T19:04:21.740Z</time>
      </trkpt>
      <trkpt lat="48.81646" lon="2.44753">
        <ele>86.2</ele>
        <time>2015-06-08T19:04:22.750Z</time>
      </trkpt>
      <trkpt lat="48.81645" lon="2.44763">
        <ele>86.5</ele>
        <time>2015-06-08T19:04:23.755Z</time>
      </trkpt>
      <trkpt lat="48.81645" lon="2.44773">
        <ele>86.6</ele>
        <time>2015-06-08T19:04:24.761Z</time>
      </trkpt>
      <trkpt lat="48.81645" lon="2.44782">
        <ele>86.8</ele>
        <time>2015-06-08T19:04:25.774Z</time>
      </trkpt>
      <trkpt lat="48.81643" lon="2.44795">
        <ele>85.9</ele>
        <time>2015-06-08T19:04:26.786Z</time>
      </trkpt>
      <trkpt lat="48.81642" lon="2.44806">
        <ele>85.5</ele>
        <time>2015-06-08T19:04:27.796Z</time>
      </trkpt>
      <trkpt lat="48.8164" lon="2.44818">
        <ele>85.1</ele>
        <time>2015-06-08T19:04:28.808Z</time>
      </trkpt>
      <trkpt lat="48.81639" lon="2.44829">
        <ele>85.2</ele>
        <time>2015-06-08T19:04:29.814Z</time>
      </trkpt>
      <trkpt lat="48.81638" lon="2.44838">
        <ele>85.6</ele>
        <time>2015-06-08T19:04:30.741Z</time>
      </trkpt>
      <trkpt lat="48.81636" lon="2.44845">
        <ele>85.8</ele>
        <time>2015-06-08T19:04:31.832Z</time>
      </trkpt>
      <trkpt lat="48.81635" lon="2.44852">
        <ele>86</ele>
        <time>2015-06-08T19:04:32.846Z</time>
      </trkpt>
      <trkpt lat="48.81633" lon="2.4486">
        <ele>86.1</ele>
        <time>2015-06-08T19:04:33.738Z</time>
      </trkpt>
      <trkpt lat="48.81632" lon="2.44869">
        <ele>86.3</ele>
        <time>2015-06-08T19:04:34.745Z</time>
      </trkpt>
      <trkpt lat="48.81631" lon="2.44878">
        <ele>86.3</ele>
        <time>2015-06-08T19:04:35.762Z</time>
      </trkpt>
      <trkpt lat="48.8163" lon="2.44887">
        <ele>86.1</ele>
        <time>2015-06-08T19:04:36.779Z</time>
      </trkpt>
      <trkpt lat="48.8163" lon="2.44896">
        <ele>86.2</ele>
        <time>2015-06-08T19:04:37.801Z</time>
      </trkpt>
      <trkpt lat="48.8163" lon="2.44904">
        <ele>86.4</ele>
        <time>2015-06-08T19:04:38.803Z</time>
      </trkpt>
      <trkpt lat="48.8163" lon="2.44911">
        <ele>86.5</ele>
        <time>2015-06-08T19:04:39.731Z</time>
      </trkpt>
      <trkpt lat="48.81631" lon="2.44918">
        <ele>86.9</ele>
        <time>2015-06-08T19:04:40.725Z</time>
      </trkpt>
      <trkpt lat="48.81631" lon="2.44926">
        <ele>87.4</ele>
        <time>2015-06-08T19:04:41.736Z</time>
      </trkpt>
      <trkpt lat="48.81631" lon="2.44934">
        <ele>87.9</ele>
        <time>2015-06-08T19:04:42.741Z</time>
      </trkpt>
      <trkpt lat="48.81631" lon="2.44944">
        <ele>88.2</ele>
        <time>2015-06-08T19:04:43.759Z</time>
      </trkpt>
      <trkpt lat="48.8163" lon="2.44956">
        <ele>88.2</ele>
        <time>2015-06-08T19:04:44.773Z</time>
      </trkpt>
      <trkpt lat="48.8163" lon="2.44968">
        <ele>88.6</ele>
        <time>2015-06-08T19:04:45.782Z</time>
      </trkpt>
      <trkpt lat="48.81629" lon="2.44979">
        <ele>88.7</ele>
        <time>2015-06-08T19:04:46.789Z</time>
      </trkpt>
      <trkpt lat="48.81628" lon="2.44989">
        <ele>88.8</ele>
        <time>2015-06-08T19:04:47.797Z</time>
      </trkpt>
      <trkpt lat="48.81625" lon="2.44999">
        <ele>89.1</ele>
        <time>2015-06-08T19:04:48.804Z</time>
      </trkpt>
      <trkpt lat="48.81623" lon="2.45009">
        <ele>89.3</ele>
        <time>2015-06-08T19:04:49.817Z</time>
      </trkpt>
      <trkpt lat="48.81621" lon="2.45018">
        <ele>89.3</ele>
        <time>2015-06-08T19:04:50.824Z</time>
      </trkpt>
      <trkpt lat="48.8162" lon="2.45028">
        <ele>89.1</ele>
        <time>2015-06-08T19:04:51.736Z</time>
      </trkpt>
      <trkpt lat="48.81619" lon="2.45038">
        <ele>88.7</ele>
        <time>2015-06-08T19:04:52.738Z</time>
      </trkpt>
      <trkpt lat="48.81619" lon="2.45048">
        <ele>88.5</ele>
        <time>2015-06-08T19:04:53.769Z</time>
      </trkpt>
      <trkpt lat="48.81618" lon="2.45057">
        <ele>88.6</ele>
        <time>2015-06-08T19:04:54.788Z</time>
      </trkpt>
      <trkpt lat="48.81618" lon="2.45068">
        <ele>88.5</ele>
        <time>2015-06-08T19:04:55.804Z</time>
      </trkpt>
      <trkpt lat="48.81619" lon="2.45077">
        <ele>88.3</ele>
        <time>2015-06-08T19:04:56.813Z</time>
      </trkpt>
      <trkpt lat="48.81619" lon="2.45084">
        <ele>88.2</ele>
        <time>2015-06-08T19:04:57.724Z</time>
      </trkpt>
      <trkpt lat="48.81618" lon="2.45093">
        <ele>88.3</ele>
        <time>2015-06-08T19:04:58.744Z</time>
      </trkpt>
      <trkpt lat="48.81616" lon="2.45104">
        <ele>88.4</ele>
        <time>2015-06-08T19:04:59.747Z</time>
      </trkpt>
      <trkpt lat="48.81614" lon="2.45115">
        <ele>88.5</ele>
        <time>2015-06-08T19:05:00.753Z</time>
      </trkpt>
      <trkpt lat="48.81611" lon="2.45129">
        <ele>88.5</ele>
        <time>2015-06-08T19:05:01.758Z</time>
      </trkpt>
      <trkpt lat="48.81608" lon="2.45142">
        <ele>88.4</ele>
        <time>2015-06-08T19:05:02.779Z</time>
      </trkpt>
      <trkpt lat="48.81606" lon="2.45156">
        <ele>88.1</ele>
        <time>2015-06-08T19:05:03.768Z</time>
      </trkpt>
      <trkpt lat="48.81604" lon="2.4517">
        <ele>87.6</ele>
        <time>2015-06-08T19:05:04.786Z</time>
      </trkpt>
      <trkpt lat="48.81604" lon="2.45182">
        <ele>87.3</ele>
        <time>2015-06-08T19:05:05.707Z</time>
      </trkpt>
      <trkpt lat="48.81605" lon="2.45193">
        <ele>87.1</ele>
        <time>2015-06-08T19:05:06.745Z</time>
      </trkpt>
      <trkpt lat="48.81607" lon="2.45204">
        <ele>87</ele>
        <time>2015-06-08T19:05:07.749Z</time>
      </trkpt>
      <trkpt lat="48.81608" lon="2.45213">
        <ele>86.8</ele>
        <time>2015-06-08T19:05:08.771Z</time>
      </trkpt>
      <trkpt lat="48.81608" lon="2.45223">
        <ele>86.8</ele>
        <time>2015-06-08T19:05:09.763Z</time>
      </trkpt>
      <trkpt lat="48.81608" lon="2.45231">
        <ele>86.8</ele>
        <time>2015-06-08T19:05:10.852Z</time>
      </trkpt>
      <trkpt lat="48.81608" lon="2.45238">
        <ele>86.7</ele>
        <time>2015-06-08T19:05:11.719Z</time>
      </trkpt>
      <trkpt lat="48.81607" lon="2.45247">
        <ele>86.5</ele>
        <time>2015-06-08T19:05:12.728Z</time>
      </trkpt>
      <trkpt lat="48.81605" lon="2.45255">
        <ele>86.6</ele>
        <time>2015-06-08T19:05:13.754Z</time>
      </trkpt>
      <trkpt lat="48.81602" lon="2.45265">
        <ele>86.5</ele>
        <time>2015-06-08T19:05:14.797Z</time>
      </trkpt>
      <trkpt lat="48.81599" lon="2.45275">
        <ele>86.8</ele>
        <time>2015-06-08T19:05:15.727Z</time>
      </trkpt>
      <trkpt lat="48.81596" lon="2.45284">
        <ele>86.7</ele>
        <time>2015-06-08T19:05:16.724Z</time>
      </trkpt>
      <trkpt lat="48.81593" lon="2.45293">
        <ele>86.7</ele>
        <time>2015-06-08T19:05:17.735Z</time>
      </trkpt>
      <trkpt lat="48.81591" lon="2.45303">
        <ele>86.9</ele>
        <time>2015-06-08T19:05:18.772Z</time>
      </trkpt>
      <trkpt lat="48.8159" lon="2.45312">
        <ele>86.6</ele>
        <time>2015-06-08T19:05:19.986Z</time>
      </trkpt>
      <trkpt lat="48.8159" lon="2.45319">
        <ele>86.1</ele>
        <time>2015-06-08T19:05:20.824Z</time>
      </trkpt>
      <trkpt lat="48.81593" lon="2.45332">
        <ele>85.3</ele>
        <time>2015-06-08T19:05:22.724Z</time>
      </trkpt>
      <trkpt lat="48.81594" lon="2.45338">
        <ele>84.6</ele>
        <time>2015-06-08T19:05:23.760Z</time>
      </trkpt>
      <trkpt lat="48.81593" lon="2.45351">
        <ele>84.2</ele>
        <time>2015-06-08T19:05:25.748Z</time>
      </trkpt>
      <trkpt lat="48.81592" lon="2.45358">
        <ele>84</ele>
        <time>2015-06-08T19:05:26.858Z</time>
      </trkpt>
      <trkpt lat="48.81592" lon="2.45371">
        <ele>84</ele>
        <time>2015-06-08T19:05:28.886Z</time>
      </trkpt>
      <trkpt lat="48.81592" lon="2.45378">
        <ele>83.9</ele>
        <time>2015-06-08T19:05:29.763Z</time>
      </trkpt>
      <trkpt lat="48.81591" lon="2.45385">
        <ele>83.7</ele>
        <time>2015-06-08T19:05:30.760Z</time>
      </trkpt>
      <trkpt lat="48.81589" lon="2.45392">
        <ele>83.7</ele>
        <time>2015-06-08T19:05:31.752Z</time>
      </trkpt>
      <trkpt lat="48.81586" lon="2.454">
        <ele>83.6</ele>
        <time>2015-06-08T19:05:32.777Z</time>
      </trkpt>
      <trkpt lat="48.81585" lon="2.45407">
        <ele>83.9</ele>
        <time>2015-06-08T19:05:33.793Z</time>
      </trkpt>
      <trkpt lat="48.81584" lon="2.45415">
        <ele>84.3</ele>
        <time>2015-06-08T19:05:34.740Z</time>
      </trkpt>
      <trkpt lat="48.81583" lon="2.45423">
        <ele>84.6</ele>
        <time>2015-06-08T19:05:35.739Z</time>
      </trkpt>
      <trkpt lat="48.81579" lon="2.45433">
        <ele>84.6</ele>
        <time>2015-06-08T19:05:37.772Z</time>
      </trkpt>
      <trkpt lat="48.81577" lon="2.45439">
        <ele>84.7</ele>
        <time>2015-06-08T19:05:38.813Z</time>
      </trkpt>
      <trkpt lat="48.81573" lon="2.4545">
        <ele>84.9</ele>
        <time>2015-06-08T19:05:40.716Z</time>
      </trkpt>
      <trkpt lat="48.81571" lon="2.45455">
        <ele>84.7</ele>
        <time>2015-06-08T19:05:41.739Z</time>
      </trkpt>
      <trkpt lat="48.81567" lon="2.45464">
        <ele>84.8</ele>
        <time>2015-06-08T19:05:43.782Z</time>
      </trkpt>
      <trkpt lat="48.81564" lon="2.45469">
        <ele>84.6</ele>
        <time>2015-06-08T19:05:44.798Z</time>
      </trkpt>
      <trkpt lat="48.8156" lon="2.4548">
        <ele>84.2</ele>
        <time>2015-06-08T19:05:46.993Z</time>
      </trkpt>
      <trkpt lat="48.81558" lon="2.45486">
        <ele>84.2</ele>
        <time>2015-06-08T19:05:47.728Z</time>
      </trkpt>
      <trkpt lat="48.81553" lon="2.45495">
        <ele>84.5</ele>
        <time>2015-06-08T19:05:49.758Z</time>
      </trkpt>
      <trkpt lat="48.8155" lon="2.455">
        <ele>85.8</ele>
        <time>2015-06-08T19:05:50.792Z</time>
      </trkpt>
      <trkpt lat="48.81545" lon="2.4551">
        <ele>85.5</ele>
        <time>2015-06-08T19:05:52.698Z</time>
      </trkpt>
      <trkpt lat="48.81541" lon="2.45518">
        <ele>85.2</ele>
        <time>2015-06-08T19:05:53.702Z</time>
      </trkpt>
      <trkpt lat="48.81537" lon="2.45527">
        <ele>85.1</ele>
        <time>2015-06-08T19:05:54.771Z</time>
      </trkpt>
      <trkpt lat="48.81533" lon="2.45536">
        <ele>85.1</ele>
        <time>2015-06-08T19:05:55.783Z</time>
      </trkpt>
      <trkpt lat="48.8153" lon="2.45546">
        <ele>85.1</ele>
        <time>2015-06-08T19:05:56.818Z</time>
      </trkpt>
      <trkpt lat="48.81528" lon="2.45554">
        <ele>84.8</ele>
        <time>2015-06-08T19:05:57.709Z</time>
      </trkpt>
      <trkpt lat="48.81528" lon="2.45562">
        <ele>84.9</ele>
        <time>2015-06-08T19:05:58.714Z</time>
      </trkpt>
      <trkpt lat="48.81528" lon="2.45568">
        <ele>84.9</ele>
        <time>2015-06-08T19:05:59.723Z</time>
      </trkpt>
      <trkpt lat="48.81531" lon="2.45577">
        <ele>84.9</ele>
        <time>2015-06-08T19:06:01.737Z</time>
      </trkpt>
      <trkpt lat="48.81532" lon="2.4558">
        <ele>84.8</ele>
        <time>2015-06-08T19:06:02.771Z</time>
      </trkpt>
      <trkpt lat="48.81534" lon="2.45592">
        <ele>85.4</ele>
        <time>2015-06-08T19:13:39.789Z</time>
      </trkpt>
      <trkpt lat="48.81528" lon="2.45605">
        <ele>90.9</ele>
        <time>2015-06-08T19:13:40.769Z</time>
      </trkpt>
      <trkpt lat="48.81524" lon="2.45616">
        <ele>90.6</ele>
        <time>2015-06-08T19:13:44.796Z</time>
      </trkpt>
      <trkpt lat="48.81523" lon="2.45618">
        <ele>90.6</ele>
        <time>2015-06-08T19:13:45.751Z</time>
      </trkpt>
      <trkpt lat="48.81519" lon="2.45625">
        <ele>90.7</ele>
        <time>2015-06-08T19:13:47.727Z</time>
      </trkpt>
      <trkpt lat="48.81516" lon="2.45629">
        <ele>90.8</ele>
        <time>2015-06-08T19:13:48.752Z</time>
      </trkpt>
      <trkpt lat="48.8151" lon="2.45638">
        <ele>90.7</ele>
        <time>2015-06-08T19:13:50.786Z</time>
      </trkpt>
      <trkpt lat="48.81508" lon="2.45642">
        <ele>90.7</ele>
        <time>2015-06-08T19:13:51.804Z</time>
      </trkpt>
      <trkpt lat="48.81503" lon="2.45649">
        <ele>90.7</ele>
        <time>2015-06-08T19:13:53.741Z</time>
      </trkpt>
      <trkpt lat="48.815" lon="2.45653">
        <ele>90.7</ele>
        <time>2015-06-08T19:13:54.748Z</time>
      </trkpt>
      <trkpt lat="48.81493" lon="2.45662">
        <ele>90.9</ele>
        <time>2015-06-08T19:13:56.780Z</time>
      </trkpt>
      <trkpt lat="48.81491" lon="2.45667">
        <ele>91.2</ele>
        <time>2015-06-08T19:13:57.785Z</time>
      </trkpt>
      <trkpt lat="48.81485" lon="2.45676">
        <ele>91.8</ele>
        <time>2015-06-08T19:13:59.756Z</time>
      </trkpt>
      <trkpt lat="48.81483" lon="2.4568">
        <ele>91.8</ele>
        <time>2015-06-08T19:14:00.805Z</time>
      </trkpt>
      <trkpt lat="48.8148" lon="2.4569">
        <ele>91.8</ele>
        <time>2015-06-08T19:14:02.849Z</time>
      </trkpt>
      <trkpt lat="48.81478" lon="2.45694">
        <ele>91.8</ele>
        <time>2015-06-08T19:14:03.705Z</time>
      </trkpt>
      <trkpt lat="48.81475" lon="2.45704">
        <ele>91.8</ele>
        <time>2015-06-08T19:14:05.758Z</time>
      </trkpt>
      <trkpt lat="48.81472" lon="2.45709">
        <ele>91.7</ele>
        <time>2015-06-08T19:14:06.767Z</time>
      </trkpt>
      <trkpt lat="48.81469" lon="2.45713">
        <ele>91.5</ele>
        <time>2015-06-08T19:14:07.707Z</time>
      </trkpt>
      <trkpt lat="48.81465" lon="2.45719">
        <ele>91.3</ele>
        <time>2015-06-08T19:14:08.781Z</time>
      </trkpt>
      <trkpt lat="48.81461" lon="2.45723">
        <ele>91.2</ele>
        <time>2015-06-08T19:14:09.788Z</time>
      </trkpt>
      <trkpt lat="48.81456" lon="2.45727">
        <ele>91</ele>
        <time>2015-06-08T19:14:10.728Z</time>
      </trkpt>
      <trkpt lat="48.81452" lon="2.45732">
        <ele>90.7</ele>
        <time>2015-06-08T19:14:11.756Z</time>
      </trkpt>
      <trkpt lat="48.81448" lon="2.45737">
        <ele>90.5</ele>
        <time>2015-06-08T19:14:12.763Z</time>
      </trkpt>
      <trkpt lat="48.81444" lon="2.45743">
        <ele>90.3</ele>
        <time>2015-06-08T19:14:13.776Z</time>
      </trkpt>
      <trkpt lat="48.8144" lon="2.45749">
        <ele>90.1</ele>
        <time>2015-06-08T19:14:14.786Z</time>
      </trkpt>
      <trkpt lat="48.81437" lon="2.45754">
        <ele>90.1</ele>
        <time>2015-06-08T19:14:15.777Z</time>
      </trkpt>
      <trkpt lat="48.81436" lon="2.45762">
        <ele>89.6</ele>
        <time>2015-06-08T19:14:16.782Z</time>
      </trkpt>
      <trkpt lat="48.81436" lon="2.45771">
        <ele>89.4</ele>
        <time>2015-06-08T19:14:17.801Z</time>
      </trkpt>
      <trkpt lat="48.81437" lon="2.45779">
        <ele>89.4</ele>
        <time>2015-06-08T19:14:18.813Z</time>
      </trkpt>
      <trkpt lat="48.81438" lon="2.45785">
        <ele>89.5</ele>
        <time>2015-06-08T19:14:19.829Z</time>
      </trkpt>
      <trkpt lat="48.81439" lon="2.45792">
        <ele>89.3</ele>
        <time>2015-06-08T19:14:20.836Z</time>
      </trkpt>
      <trkpt lat="48.81441" lon="2.45799">
        <ele>89.4</ele>
        <time>2015-06-08T19:14:21.709Z</time>
      </trkpt>
      <trkpt lat="48.81444" lon="2.45805">
        <ele>89.4</ele>
        <time>2015-06-08T19:14:22.744Z</time>
      </trkpt>
      <trkpt lat="48.81446" lon="2.4581">
        <ele>89.5</ele>
        <time>2015-06-08T19:14:23.752Z</time>
      </trkpt>
      <trkpt lat="48.81449" lon="2.45817">
        <ele>89.4</ele>
        <time>2015-06-08T19:14:24.762Z</time>
      </trkpt>
      <trkpt lat="48.81452" lon="2.45823">
        <ele>89.1</ele>
        <time>2015-06-08T19:14:25.774Z</time>
      </trkpt>
      <trkpt lat="48.81455" lon="2.45828">
        <ele>89.1</ele>
        <time>2015-06-08T19:14:26.780Z</time>
      </trkpt>
      <trkpt lat="48.81462" lon="2.45835">
        <ele>89.1</ele>
        <time>2015-06-08T19:14:29.752Z</time>
      </trkpt>
      <trkpt lat="48.81464" lon="2.45837">
        <ele>89</ele>
        <time>2015-06-08T19:14:30.754Z</time>
      </trkpt>
      <trkpt lat="48.81472" lon="2.45841">
        <ele>89.1</ele>
        <time>2015-06-08T19:14:33.804Z</time>
      </trkpt>
      <trkpt lat="48.81474" lon="2.45844">
        <ele>89.1</ele>
        <time>2015-06-08T19:14:34.716Z</time>
      </trkpt>
      <trkpt lat="48.8148" lon="2.45854">
        <ele>89.8</ele>
        <time>2015-06-08T19:14:36.744Z</time>
      </trkpt>
      <trkpt lat="48.81483" lon="2.4586">
        <ele>89.6</ele>
        <time>2015-06-08T19:14:37.766Z</time>
      </trkpt>
      <trkpt lat="48.81488" lon="2.45868">
        <ele>88.2</ele>
        <time>2015-06-08T19:14:38.828Z</time>
      </trkpt>
      <trkpt lat="48.81493" lon="2.45876">
        <ele>87.9</ele>
        <time>2015-06-08T19:14:39.722Z</time>
      </trkpt>
      <trkpt lat="48.81498" lon="2.45885">
        <ele>87.6</ele>
        <time>2015-06-08T19:14:40.723Z</time>
      </trkpt>
      <trkpt lat="48.81503" lon="2.45891">
        <ele>87.6</ele>
        <time>2015-06-08T19:14:41.731Z</time>
      </trkpt>
      <trkpt lat="48.81506" lon="2.45897">
        <ele>88</ele>
        <time>2015-06-08T19:14:42.738Z</time>
      </trkpt>
      <trkpt lat="48.81507" lon="2.45904">
        <ele>88.6</ele>
        <time>2015-06-08T19:14:43.746Z</time>
      </trkpt>
      <trkpt lat="48.81508" lon="2.4591">
        <ele>89.2</ele>
        <time>2015-06-08T19:14:44.763Z</time>
      </trkpt>
      <trkpt lat="48.81505" lon="2.45918">
        <ele>90.1</ele>
        <time>2015-06-08T19:14:45.775Z</time>
      </trkpt>
      <trkpt lat="48.81503" lon="2.45924">
        <ele>90.9</ele>
        <time>2015-06-08T19:14:46.704Z</time>
      </trkpt>
      <trkpt lat="48.815" lon="2.4593">
        <ele>91.4</ele>
        <time>2015-06-08T19:14:47.704Z</time>
      </trkpt>
      <trkpt lat="48.81494" lon="2.45936">
        <ele>91.9</ele>
        <time>2015-06-08T19:14:48.720Z</time>
      </trkpt>
      <trkpt lat="48.8149" lon="2.45941">
        <ele>92.2</ele>
        <time>2015-06-08T19:14:49.726Z</time>
      </trkpt>
      <trkpt lat="48.81486" lon="2.45947">
        <ele>92.5</ele>
        <time>2015-06-08T19:14:50.751Z</time>
      </trkpt>
      <trkpt lat="48.81481" lon="2.45954">
        <ele>93.9</ele>
        <time>2015-06-08T19:14:51.758Z</time>
      </trkpt>
      <trkpt lat="48.81476" lon="2.45962">
        <ele>94.4</ele>
        <time>2015-06-08T19:14:52.764Z</time>
      </trkpt>
      <trkpt lat="48.81473" lon="2.4597">
        <ele>94.6</ele>
        <time>2015-06-08T19:14:53.776Z</time>
      </trkpt>
      <trkpt lat="48.81475" lon="2.45981">
        <ele>95.6</ele>
        <time>2015-06-08T19:14:55.810Z</time>
      </trkpt>
      <trkpt lat="48.81479" lon="2.45984">
        <ele>95.8</ele>
        <time>2015-06-08T19:14:56.817Z</time>
      </trkpt>
      <trkpt lat="48.81482" lon="2.4599">
        <ele>96.7</ele>
        <time>2015-06-08T19:14:57.751Z</time>
      </trkpt>
      <trkpt lat="48.81488" lon="2.45996">
        <ele>96.7</ele>
        <time>2015-06-08T19:14:58.763Z</time>
      </trkpt>
      <trkpt lat="48.81493" lon="2.46006">
        <ele>98</ele>
        <time>2015-06-08T19:14:59.788Z</time>
      </trkpt>
      <trkpt lat="48.81495" lon="2.46016">
        <ele>98.4</ele>
        <time>2015-06-08T19:15:00.810Z</time>
      </trkpt>
      <trkpt lat="48.81496" lon="2.46025">
        <ele>98.6</ele>
        <time>2015-06-08T19:15:01.818Z</time>
      </trkpt>
      <trkpt lat="48.81495" lon="2.46032">
        <ele>98.8</ele>
        <time>2015-06-08T19:15:02.826Z</time>
      </trkpt>
      <trkpt lat="48.81494" lon="2.46039">
        <ele>98.4</ele>
        <time>2015-06-08T19:15:03.836Z</time>
      </trkpt>
      <trkpt lat="48.81494" lon="2.46047">
        <ele>98.1</ele>
        <time>2015-06-08T19:15:04.721Z</time>
      </trkpt>
      <trkpt lat="48.81494" lon="2.46054">
        <ele>98</ele>
        <time>2015-06-08T19:15:05.717Z</time>
      </trkpt>
      <trkpt lat="48.81494" lon="2.46063">
        <ele>97.8</ele>
        <time>2015-06-08T19:15:06.724Z</time>
      </trkpt>
      <trkpt lat="48.81494" lon="2.4607">
        <ele>97.8</ele>
        <time>2015-06-08T19:15:07.739Z</time>
      </trkpt>
      <trkpt lat="48.81494" lon="2.46079">
        <ele>96.9</ele>
        <time>2015-06-08T19:15:08.758Z</time>
      </trkpt>
      <trkpt lat="48.81495" lon="2.46088">
        <ele>95.9</ele>
        <time>2015-06-08T19:15:09.765Z</time>
      </trkpt>
      <trkpt lat="48.81496" lon="2.46096">
        <ele>96.5</ele>
        <time>2015-06-08T19:15:10.769Z</time>
      </trkpt>
      <trkpt lat="48.81496" lon="2.46103">
        <ele>96.9</ele>
        <time>2015-06-08T19:15:11.778Z</time>
      </trkpt>
      <trkpt lat="48.81498" lon="2.46112">
        <ele>97.3</ele>
        <time>2015-06-08T19:15:12.788Z</time>
      </trkpt>
      <trkpt lat="48.81499" lon="2.46121">
        <ele>98</ele>
        <time>2015-06-08T19:15:13.712Z</time>
      </trkpt>
      <trkpt lat="48.81501" lon="2.46131">
        <ele>98.6</ele>
        <time>2015-06-08T19:15:14.800Z</time>
      </trkpt>
      <trkpt lat="48.81503" lon="2.46142">
        <ele>100.4</ele>
        <time>2015-06-08T19:15:15.730Z</time>
      </trkpt>
      <trkpt lat="48.81503" lon="2.46152">
        <ele>101.5</ele>
        <time>2015-06-08T19:15:16.734Z</time>
      </trkpt>
      <trkpt lat="48.81501" lon="2.46161">
        <ele>102.1</ele>
        <time>2015-06-08T19:15:17.739Z</time>
      </trkpt>
      <trkpt lat="48.81494" lon="2.46167">
        <ele>101.8</ele>
        <time>2015-06-08T19:15:18.748Z</time>
      </trkpt>
      <trkpt lat="48.81488" lon="2.46174">
        <ele>101.6</ele>
        <time>2015-06-08T19:15:19.747Z</time>
      </trkpt>
      <trkpt lat="48.81483" lon="2.4618">
        <ele>102</ele>
        <time>2015-06-08T19:15:20.808Z</time>
      </trkpt>
      <trkpt lat="48.81479" lon="2.46185">
        <ele>101.9</ele>
        <time>2015-06-08T19:15:21.818Z</time>
      </trkpt>
      <trkpt lat="48.81475" lon="2.46191">
        <ele>102.1</ele>
        <time>2015-06-08T19:15:22.758Z</time>
      </trkpt>
      <trkpt lat="48.81471" lon="2.46195">
        <ele>102.3</ele>
        <time>2015-06-08T19:15:23.749Z</time>
      </trkpt>
      <trkpt lat="48.81468" lon="2.46201">
        <ele>102.3</ele>
        <time>2015-06-08T19:15:24.752Z</time>
      </trkpt>
      <trkpt lat="48.81462" lon="2.46208">
        <ele>103</ele>
        <time>2015-06-08T19:15:26.801Z</time>
      </trkpt>
      <trkpt lat="48.81458" lon="2.46212">
        <ele>102.6</ele>
        <time>2015-06-08T19:15:27.787Z</time>
      </trkpt>
      <trkpt lat="48.81452" lon="2.4622">
        <ele>102.1</ele>
        <time>2015-06-08T19:15:29.841Z</time>
      </trkpt>
      <trkpt lat="48.8145" lon="2.46222">
        <ele>102.6</ele>
        <time>2015-06-08T19:15:30.755Z</time>
      </trkpt>
      <trkpt lat="48.81445" lon="2.46226">
        <ele>103.3</ele>
        <time>2015-06-08T19:15:33.839Z</time>
      </trkpt>
      <trkpt lat="48.81445" lon="2.46224">
        <ele>102.5</ele>
        <time>2015-06-08T19:15:34.761Z</time>
      </trkpt>
      <trkpt lat="48.81445" lon="2.46223">
        <ele>102</ele>
        <time>2015-06-08T19:17:59.748Z</time>
      </trkpt>
      <trkpt lat="48.81431" lon="2.46246">
        <ele>96.4</ele>
        <time>2015-06-08T19:18:00.756Z</time>
      </trkpt>
      <trkpt lat="48.81427" lon="2.46254">
        <ele>96</ele>
        <time>2015-06-08T19:18:04.801Z</time>
      </trkpt>
      <trkpt lat="48.81425" lon="2.46257">
        <ele>96.2</ele>
        <time>2015-06-08T19:18:05.832Z</time>
      </trkpt>
      <trkpt lat="48.81421" lon="2.46263">
        <ele>96.3</ele>
        <time>2015-06-08T19:18:07.743Z</time>
      </trkpt>
      <trkpt lat="48.81418" lon="2.46266">
        <ele>96.4</ele>
        <time>2015-06-08T19:18:08.792Z</time>
      </trkpt>
      <trkpt lat="48.81414" lon="2.46274">
        <ele>96.5</ele>
        <time>2015-06-08T19:18:10.704Z</time>
      </trkpt>
      <trkpt lat="48.81412" lon="2.46278">
        <ele>96.7</ele>
        <time>2015-06-08T19:18:11.751Z</time>
      </trkpt>
      <trkpt lat="48.81409" lon="2.46283">
        <ele>96.8</ele>
        <time>2015-06-08T19:18:12.751Z</time>
      </trkpt>
      <trkpt lat="48.81406" lon="2.46288">
        <ele>97</ele>
        <time>2015-06-08T19:18:13.760Z</time>
      </trkpt>
      <trkpt lat="48.81402" lon="2.46293">
        <ele>97.1</ele>
        <time>2015-06-08T19:18:14.803Z</time>
      </trkpt>
      <trkpt lat="48.81398" lon="2.46298">
        <ele>97.1</ele>
        <time>2015-06-08T19:18:15.709Z</time>
      </trkpt>
      <trkpt lat="48.81394" lon="2.46304">
        <ele>97.2</ele>
        <time>2015-06-08T19:18:17.235Z</time>
      </trkpt>
      <trkpt lat="48.8139" lon="2.46309">
        <ele>97.2</ele>
        <time>2015-06-08T19:18:17.749Z</time>
      </trkpt>
      <trkpt lat="48.81386" lon="2.46315">
        <ele>97.2</ele>
        <time>2015-06-08T19:18:18.773Z</time>
      </trkpt>
      <trkpt lat="48.81381" lon="2.46321">
        <ele>97.2</ele>
        <time>2015-06-08T19:18:19.776Z</time>
      </trkpt>
      <trkpt lat="48.81377" lon="2.46326">
        <ele>97.3</ele>
        <time>2015-06-08T19:18:20.792Z</time>
      </trkpt>
      <trkpt lat="48.81372" lon="2.46332">
        <ele>97.3</ele>
        <time>2015-06-08T19:18:21.799Z</time>
      </trkpt>
      <trkpt lat="48.81369" lon="2.46338">
        <ele>97.2</ele>
        <time>2015-06-08T19:18:22.817Z</time>
      </trkpt>
      <trkpt lat="48.81364" lon="2.46344">
        <ele>96.9</ele>
        <time>2015-06-08T19:18:23.844Z</time>
      </trkpt>
      <trkpt lat="48.81359" lon="2.4635">
        <ele>96.1</ele>
        <time>2015-06-08T19:18:24.754Z</time>
      </trkpt>
      <trkpt lat="48.81355" lon="2.46355">
        <ele>96.1</ele>
        <time>2015-06-08T19:18:25.768Z</time>
      </trkpt>
      <trkpt lat="48.8135" lon="2.46361">
        <ele>96.1</ele>
        <time>2015-06-08T19:18:26.807Z</time>
      </trkpt>
      <trkpt lat="48.81346" lon="2.46368">
        <ele>95.7</ele>
        <time>2015-06-08T19:18:27.817Z</time>
      </trkpt>
      <trkpt lat="48.81342" lon="2.46374">
        <ele>95.4</ele>
        <time>2015-06-08T19:18:28.831Z</time>
      </trkpt>
      <trkpt lat="48.81337" lon="2.4638">
        <ele>95.3</ele>
        <time>2015-06-08T19:18:29.820Z</time>
      </trkpt>
      <trkpt lat="48.81333" lon="2.46386">
        <ele>95.2</ele>
        <time>2015-06-08T19:18:30.736Z</time>
      </trkpt>
      <trkpt lat="48.81329" lon="2.46394">
        <ele>95.3</ele>
        <time>2015-06-08T19:18:31.760Z</time>
      </trkpt>
      <trkpt lat="48.81327" lon="2.46403">
        <ele>95.6</ele>
        <time>2015-06-08T19:18:32.832Z</time>
      </trkpt>
      <trkpt lat="48.81324" lon="2.46412">
        <ele>96.1</ele>
        <time>2015-06-08T19:18:33.732Z</time>
      </trkpt>
      <trkpt lat="48.81322" lon="2.46419">
        <ele>95.7</ele>
        <time>2015-06-08T19:18:34.734Z</time>
      </trkpt>
      <trkpt lat="48.81321" lon="2.46428">
        <ele>95.1</ele>
        <time>2015-06-08T19:18:35.739Z</time>
      </trkpt>
      <trkpt lat="48.8132" lon="2.46434">
        <ele>95.2</ele>
        <time>2015-06-08T19:18:36.757Z</time>
      </trkpt>
      <trkpt lat="48.81318" lon="2.46441">
        <ele>95.1</ele>
        <time>2015-06-08T19:18:37.765Z</time>
      </trkpt>
      <trkpt lat="48.81314" lon="2.46453">
        <ele>95.4</ele>
        <time>2015-06-08T19:18:39.773Z</time>
      </trkpt>
      <trkpt lat="48.81313" lon="2.46459">
        <ele>95.8</ele>
        <time>2015-06-08T19:18:40.782Z</time>
      </trkpt>
      <trkpt lat="48.81311" lon="2.4647">
        <ele>95.8</ele>
        <time>2015-06-08T19:18:42.728Z</time>
      </trkpt>
      <trkpt lat="48.81309" lon="2.46476">
        <ele>96</ele>
        <time>2015-06-08T19:18:43.825Z</time>
      </trkpt>
      <trkpt lat="48.81307" lon="2.46489">
        <ele>95.6</ele>
        <time>2015-06-08T19:18:45.726Z</time>
      </trkpt>
      <trkpt lat="48.81305" lon="2.46497">
        <ele>95.9</ele>
        <time>2015-06-08T19:18:46.749Z</time>
      </trkpt>
      <trkpt lat="48.81303" lon="2.46504">
        <ele>96.1</ele>
        <time>2015-06-08T19:18:47.769Z</time>
      </trkpt>
      <trkpt lat="48.81302" lon="2.46512">
        <ele>96.1</ele>
        <time>2015-06-08T19:18:48.774Z</time>
      </trkpt>
      <trkpt lat="48.81302" lon="2.46519">
        <ele>96.5</ele>
        <time>2015-06-08T19:18:49.780Z</time>
      </trkpt>
      <trkpt lat="48.81303" lon="2.46526">
        <ele>97</ele>
        <time>2015-06-08T19:18:50.785Z</time>
      </trkpt>
      <trkpt lat="48.81302" lon="2.46538">
        <ele>97.4</ele>
        <time>2015-06-08T19:18:52.809Z</time>
      </trkpt>
      <trkpt lat="48.81301" lon="2.46544">
        <ele>97.4</ele>
        <time>2015-06-08T19:18:53.701Z</time>
      </trkpt>
      <trkpt lat="48.813" lon="2.46551">
        <ele>97.3</ele>
        <time>2015-06-08T19:18:54.773Z</time>
      </trkpt>
      <trkpt lat="48.81298" lon="2.46557">
        <ele>97.4</ele>
        <time>2015-06-08T19:18:55.801Z</time>
      </trkpt>
      <trkpt lat="48.81296" lon="2.46564">
        <ele>97.5</ele>
        <time>2015-06-08T19:18:56.825Z</time>
      </trkpt>
      <trkpt lat="48.81295" lon="2.46571">
        <ele>97.7</ele>
        <time>2015-06-08T19:18:57.727Z</time>
      </trkpt>
      <trkpt lat="48.81295" lon="2.46578">
        <ele>98</ele>
        <time>2015-06-08T19:18:58.768Z</time>
      </trkpt>
      <trkpt lat="48.81294" lon="2.46585">
        <ele>97.9</ele>
        <time>2015-06-08T19:18:59.780Z</time>
      </trkpt>
      <trkpt lat="48.81294" lon="2.46591">
        <ele>98.1</ele>
        <time>2015-06-08T19:19:00.795Z</time>
      </trkpt>
      <trkpt lat="48.81292" lon="2.46598">
        <ele>98.3</ele>
        <time>2015-06-08T19:19:01.802Z</time>
      </trkpt>
      <trkpt lat="48.81291" lon="2.46606">
        <ele>98.4</ele>
        <time>2015-06-08T19:19:02.810Z</time>
      </trkpt>
      <trkpt lat="48.8129" lon="2.46612">
        <ele>98.7</ele>
        <time>2015-06-08T19:19:03.702Z</time>
      </trkpt>
      <trkpt lat="48.81288" lon="2.46624">
        <ele>99</ele>
        <time>2015-06-08T19:19:05.758Z</time>
      </trkpt>
      <trkpt lat="48.81287" lon="2.46631">
        <ele>98.5</ele>
        <time>2015-06-08T19:19:06.756Z</time>
      </trkpt>
      <trkpt lat="48.81285" lon="2.46642">
        <ele>98.8</ele>
        <time>2015-06-08T19:19:08.776Z</time>
      </trkpt>
      <trkpt lat="48.81285" lon="2.46648">
        <ele>99</ele>
        <time>2015-06-08T19:19:09.830Z</time>
      </trkpt>
      <trkpt lat="48.81282" lon="2.4666">
        <ele>98.3</ele>
        <time>2015-06-08T19:19:11.725Z</time>
      </trkpt>
      <trkpt lat="48.81281" lon="2.46666">
        <ele>98.5</ele>
        <time>2015-06-08T19:19:12.751Z</time>
      </trkpt>
      <trkpt lat="48.81277" lon="2.46677">
        <ele>98.8</ele>
        <time>2015-06-08T19:19:14.802Z</time>
      </trkpt>
      <trkpt lat="48.81275" lon="2.46682">
        <ele>98.8</ele>
        <time>2015-06-08T19:19:15.823Z</time>
      </trkpt>
      <trkpt lat="48.81273" lon="2.46692">
        <ele>98.8</ele>
        <time>2015-06-08T19:19:17.761Z</time>
      </trkpt>
      <trkpt lat="48.81272" lon="2.46697">
        <ele>99</ele>
        <time>2015-06-08T19:19:18.773Z</time>
      </trkpt>
      <trkpt lat="48.81269" lon="2.46709">
        <ele>99.5</ele>
        <time>2015-06-08T19:19:21.763Z</time>
      </trkpt>
      <trkpt lat="48.81268" lon="2.46713">
        <ele>99.8</ele>
        <time>2015-06-08T19:19:22.847Z</time>
      </trkpt>
      <trkpt lat="48.81263" lon="2.46722">
        <ele>99.6</ele>
        <time>2015-06-08T19:19:24.734Z</time>
      </trkpt>
      <trkpt lat="48.81261" lon="2.46727">
        <ele>99.9</ele>
        <time>2015-06-08T19:19:25.795Z</time>
      </trkpt>
      <trkpt lat="48.81259" lon="2.46737">
        <ele>101</ele>
        <time>2015-06-08T19:19:27.977Z</time>
      </trkpt>
      <trkpt lat="48.81257" lon="2.46742">
        <ele>101.4</ele>
        <time>2015-06-08T19:19:28.743Z</time>
      </trkpt>
      <trkpt lat="48.81254" lon="2.46746">
        <ele>101.6</ele>
        <time>2015-06-08T19:19:29.767Z</time>
      </trkpt>
      <trkpt lat="48.81249" lon="2.4675">
        <ele>101.3</ele>
        <time>2015-06-08T19:19:30.779Z</time>
      </trkpt>
      <trkpt lat="48.81244" lon="2.46758">
        <ele>101.2</ele>
        <time>2015-06-08T19:19:32.842Z</time>
      </trkpt>
      <trkpt lat="48.81241" lon="2.46761">
        <ele>100.9</ele>
        <time>2015-06-08T19:19:33.820Z</time>
      </trkpt>
      <trkpt lat="48.81235" lon="2.46768">
        <ele>100.7</ele>
        <time>2015-06-08T19:19:35.731Z</time>
      </trkpt>
      <trkpt lat="48.81233" lon="2.46771">
        <ele>100.8</ele>
        <time>2015-06-08T19:19:36.737Z</time>
      </trkpt>
      <trkpt lat="48.81228" lon="2.46781">
        <ele>100.5</ele>
        <time>2015-06-08T19:19:38.788Z</time>
      </trkpt>
      <trkpt lat="48.81225" lon="2.46785">
        <ele>100.2</ele>
        <time>2015-06-08T19:19:39.799Z</time>
      </trkpt>
      <trkpt lat="48.8122" lon="2.46794">
        <ele>99.1</ele>
        <time>2015-06-08T19:19:41.746Z</time>
      </trkpt>
      <trkpt lat="48.81217" lon="2.46798">
        <ele>98.7</ele>
        <time>2015-06-08T19:19:42.751Z</time>
      </trkpt>
      <trkpt lat="48.81212" lon="2.46807">
        <ele>98.2</ele>
        <time>2015-06-08T19:19:44.808Z</time>
      </trkpt>
      <trkpt lat="48.81209" lon="2.46813">
        <ele>98</ele>
        <time>2015-06-08T19:19:45.711Z</time>
      </trkpt>
      <trkpt lat="48.81204" lon="2.46821">
        <ele>98</ele>
        <time>2015-06-08T19:19:47.763Z</time>
      </trkpt>
      <trkpt lat="48.812" lon="2.46826">
        <ele>97.3</ele>
        <time>2015-06-08T19:19:48.756Z</time>
      </trkpt>
      <trkpt lat="48.81195" lon="2.46834">
        <ele>97</ele>
        <time>2015-06-08T19:19:51.446Z</time>
      </trkpt>
      <trkpt lat="48.81193" lon="2.46838">
        <ele>96.9</ele>
        <time>2015-06-08T19:19:51.792Z</time>
      </trkpt>
      <trkpt lat="48.81188" lon="2.46846">
        <ele>97.2</ele>
        <time>2015-06-08T19:19:53.771Z</time>
      </trkpt>
      <trkpt lat="48.81185" lon="2.46848">
        <ele>96.9</ele>
        <time>2015-06-08T19:19:54.762Z</time>
      </trkpt>
      <trkpt lat="48.81178" lon="2.46844">
        <ele>97.4</ele>
        <time>2015-06-08T19:19:58.771Z</time>
      </trkpt>
      <trkpt lat="48.81177" lon="2.4684">
        <ele>97</ele>
        <time>2015-06-08T19:20:00.143Z</time>
      </trkpt>
      <trkpt lat="48.81173" lon="2.46833">
        <ele>96.8</ele>
        <time>2015-06-08T19:20:01.552Z</time>
      </trkpt>
      <trkpt lat="48.81171" lon="2.46828">
        <ele>96.1</ele>
        <time>2015-06-08T19:20:02.825Z</time>
      </trkpt>
      <trkpt lat="48.81166" lon="2.4682">
        <ele>94.8</ele>
        <time>2015-06-08T19:20:04.753Z</time>
      </trkpt>
      <trkpt lat="48.81164" lon="2.46816">
        <ele>94.8</ele>
        <time>2015-06-08T19:20:05.748Z</time>
      </trkpt>
      <trkpt lat="48.81157" lon="2.46809">
        <ele>95.1</ele>
        <time>2015-06-08T19:20:07.759Z</time>
      </trkpt>
      <trkpt lat="48.81153" lon="2.46804">
        <ele>95</ele>
        <time>2015-06-08T19:20:08.814Z</time>
      </trkpt>
      <trkpt lat="48.81146" lon="2.46797">
        <ele>95.8</ele>
        <time>2015-06-08T19:20:10.751Z</time>
      </trkpt>
      <trkpt lat="48.81144" lon="2.46793">
        <ele>95.6</ele>
        <time>2015-06-08T19:20:11.746Z</time>
      </trkpt>
      <trkpt lat="48.81139" lon="2.46783">
        <ele>94.6</ele>
        <time>2015-06-08T19:20:13.753Z</time>
      </trkpt>
      <trkpt lat="48.81136" lon="2.46778">
        <ele>94.3</ele>
        <time>2015-06-08T19:20:14.795Z</time>
      </trkpt>
      <trkpt lat="48.81133" lon="2.46772">
        <ele>94.2</ele>
        <time>2015-06-08T19:20:15.784Z</time>
      </trkpt>
      <trkpt lat="48.81131" lon="2.46767">
        <ele>94.2</ele>
        <time>2015-06-08T19:20:16.787Z</time>
      </trkpt>
      <trkpt lat="48.81125" lon="2.46757">
        <ele>93.9</ele>
        <time>2015-06-08T19:20:18.743Z</time>
      </trkpt>
      <trkpt lat="48.81122" lon="2.46752">
        <ele>93.9</ele>
        <time>2015-06-08T19:20:19.732Z</time>
      </trkpt>
      <trkpt lat="48.81116" lon="2.46741">
        <ele>93.8</ele>
        <time>2015-06-08T19:20:21.729Z</time>
      </trkpt>
      <trkpt lat="48.81113" lon="2.46736">
        <ele>93.7</ele>
        <time>2015-06-08T19:20:22.735Z</time>
      </trkpt>
      <trkpt lat="48.81108" lon="2.46725">
        <ele>93.2</ele>
        <time>2015-06-08T19:20:24.810Z</time>
      </trkpt>
      <trkpt lat="48.81106" lon="2.46719">
        <ele>92.8</ele>
        <time>2015-06-08T19:20:25.730Z</time>
      </trkpt>
      <trkpt lat="48.81102" lon="2.46714">
        <ele>92.4</ele>
        <time>2015-06-08T19:20:26.812Z</time>
      </trkpt>
      <trkpt lat="48.81099" lon="2.46708">
        <ele>92.2</ele>
        <time>2015-06-08T19:20:27.705Z</time>
      </trkpt>
      <trkpt lat="48.81097" lon="2.46702">
        <ele>92.1</ele>
        <time>2015-06-08T19:20:28.731Z</time>
      </trkpt>
      <trkpt lat="48.81094" lon="2.46696">
        <ele>92.4</ele>
        <time>2015-06-08T19:20:29.728Z</time>
      </trkpt>
      <trkpt lat="48.81092" lon="2.46688">
        <ele>92.2</ele>
        <time>2015-06-08T19:20:30.760Z</time>
      </trkpt>
      <trkpt lat="48.8109" lon="2.46681">
        <ele>91.8</ele>
        <time>2015-06-08T19:20:31.764Z</time>
      </trkpt>
      <trkpt lat="48.81087" lon="2.46673">
        <ele>92.1</ele>
        <time>2015-06-08T19:20:32.807Z</time>
      </trkpt>
      <trkpt lat="48.81084" lon="2.46665">
        <ele>92</ele>
        <time>2015-06-08T19:20:33.800Z</time>
      </trkpt>
      <trkpt lat="48.81081" lon="2.46657">
        <ele>91.8</ele>
        <time>2015-06-08T19:20:34.821Z</time>
      </trkpt>
      <trkpt lat="48.81077" lon="2.46649">
        <ele>91.2</ele>
        <time>2015-06-08T19:20:35.732Z</time>
      </trkpt>
      <trkpt lat="48.81074" lon="2.46643">
        <ele>90.9</ele>
        <time>2015-06-08T19:20:36.741Z</time>
      </trkpt>
      <trkpt lat="48.8107" lon="2.46637">
        <ele>90.6</ele>
        <time>2015-06-08T19:20:37.753Z</time>
      </trkpt>
      <trkpt lat="48.81066" lon="2.46631">
        <ele>90.4</ele>
        <time>2015-06-08T19:20:38.789Z</time>
      </trkpt>
      <trkpt lat="48.81062" lon="2.46624">
        <ele>90.4</ele>
        <time>2015-06-08T19:20:39.809Z</time>
      </trkpt>
      <trkpt lat="48.81057" lon="2.46616">
        <ele>90.9</ele>
        <time>2015-06-08T19:20:40.734Z</time>
      </trkpt>
      <trkpt lat="48.81053" lon="2.46609">
        <ele>90.8</ele>
        <time>2015-06-08T19:20:41.735Z</time>
      </trkpt>
      <trkpt lat="48.81048" lon="2.46602">
        <ele>91</ele>
        <time>2015-06-08T19:20:42.735Z</time>
      </trkpt>
      <trkpt lat="48.81043" lon="2.46597">
        <ele>90.7</ele>
        <time>2015-06-08T19:20:43.742Z</time>
      </trkpt>
      <trkpt lat="48.81037" lon="2.46592">
        <ele>90.4</ele>
        <time>2015-06-08T19:20:44.774Z</time>
      </trkpt>
      <trkpt lat="48.81032" lon="2.46587">
        <ele>90.2</ele>
        <time>2015-06-08T19:20:45.784Z</time>
      </trkpt>
      <trkpt lat="48.81027" lon="2.46583">
        <ele>90.4</ele>
        <time>2015-06-08T19:20:46.787Z</time>
      </trkpt>
      <trkpt lat="48.81022" lon="2.46579">
        <ele>90.2</ele>
        <time>2015-06-08T19:20:47.789Z</time>
      </trkpt>
      <trkpt lat="48.81018" lon="2.46576">
        <ele>90.1</ele>
        <time>2015-06-08T19:20:48.796Z</time>
      </trkpt>
      <trkpt lat="48.81012" lon="2.46574">
        <ele>90.3</ele>
        <time>2015-06-08T19:20:49.762Z</time>
      </trkpt>
      <trkpt lat="48.81007" lon="2.46572">
        <ele>90.2</ele>
        <time>2015-06-08T19:20:50.835Z</time>
      </trkpt>
      <trkpt lat="48.81001" lon="2.46571">
        <ele>89.9</ele>
        <time>2015-06-08T19:20:51.724Z</time>
      </trkpt>
      <trkpt lat="48.80996" lon="2.4657">
        <ele>89.8</ele>
        <time>2015-06-08T19:20:52.738Z</time>
      </trkpt>
      <trkpt lat="48.8099" lon="2.4657">
        <ele>89.7</ele>
        <time>2015-06-08T19:20:53.752Z</time>
      </trkpt>
      <trkpt lat="48.80985" lon="2.46571">
        <ele>89.3</ele>
        <time>2015-06-08T19:20:54.755Z</time>
      </trkpt>
      <trkpt lat="48.80979" lon="2.46571">
        <ele>89</ele>
        <time>2015-06-08T19:20:55.827Z</time>
      </trkpt>
      <trkpt lat="48.80974" lon="2.46573">
        <ele>88.8</ele>
        <time>2015-06-08T19:20:56.844Z</time>
      </trkpt>
      <trkpt lat="48.80969" lon="2.46575">
        <ele>88.6</ele>
        <time>2015-06-08T19:20:57.720Z</time>
      </trkpt>
      <trkpt lat="48.80963" lon="2.46577">
        <ele>88.5</ele>
        <time>2015-06-08T19:20:58.729Z</time>
      </trkpt>
      <trkpt lat="48.80958" lon="2.4658">
        <ele>88.9</ele>
        <time>2015-06-08T19:20:59.821Z</time>
      </trkpt>
      <trkpt lat="48.80953" lon="2.46581">
        <ele>89.3</ele>
        <time>2015-06-08T19:21:00.763Z</time>
      </trkpt>
      <trkpt lat="48.80947" lon="2.46583">
        <ele>90</ele>
        <time>2015-06-08T19:21:01.767Z</time>
      </trkpt>
      <trkpt lat="48.80943" lon="2.46583">
        <ele>90.6</ele>
        <time>2015-06-08T19:21:02.798Z</time>
      </trkpt>
      <trkpt lat="48.80937" lon="2.46583">
        <ele>91.5</ele>
        <time>2015-06-08T19:21:03.802Z</time>
      </trkpt>
      <trkpt lat="48.80933" lon="2.46581">
        <ele>91.8</ele>
        <time>2015-06-08T19:21:04.813Z</time>
      </trkpt>
      <trkpt lat="48.80928" lon="2.46577">
        <ele>91.9</ele>
        <time>2015-06-08T19:21:05.819Z</time>
      </trkpt>
      <trkpt lat="48.80923" lon="2.46571">
        <ele>91.4</ele>
        <time>2015-06-08T19:21:06.823Z</time>
      </trkpt>
      <trkpt lat="48.8092" lon="2.46563">
        <ele>91</ele>
        <time>2015-06-08T19:21:07.717Z</time>
      </trkpt>
      <trkpt lat="48.80916" lon="2.46556">
        <ele>90.9</ele>
        <time>2015-06-08T19:21:08.786Z</time>
      </trkpt>
      <trkpt lat="48.80913" lon="2.4655">
        <ele>90.8</ele>
        <time>2015-06-08T19:21:09.777Z</time>
      </trkpt>
      <trkpt lat="48.80908" lon="2.46539">
        <ele>90.6</ele>
        <time>2015-06-08T19:21:11.805Z</time>
      </trkpt>
      <trkpt lat="48.80906" lon="2.46533">
        <ele>90.4</ele>
        <time>2015-06-08T19:21:12.701Z</time>
      </trkpt>
      <trkpt lat="48.80901" lon="2.46523">
        <ele>90.2</ele>
        <time>2015-06-08T19:21:14.814Z</time>
      </trkpt>
      <trkpt lat="48.80898" lon="2.46517">
        <ele>89.9</ele>
        <time>2015-06-08T19:21:15.764Z</time>
      </trkpt>
      <trkpt lat="48.80893" lon="2.46507">
        <ele>89.9</ele>
        <time>2015-06-08T19:21:17.731Z</time>
      </trkpt>
      <trkpt lat="48.8089" lon="2.46503">
        <ele>89.7</ele>
        <time>2015-06-08T19:21:18.750Z</time>
      </trkpt>
      <trkpt lat="48.80884" lon="2.46493">
        <ele>88.9</ele>
        <time>2015-06-08T19:21:20.794Z</time>
      </trkpt>
      <trkpt lat="48.80881" lon="2.46488">
        <ele>88.5</ele>
        <time>2015-06-08T19:21:21.803Z</time>
      </trkpt>
      <trkpt lat="48.80878" lon="2.46482">
        <ele>88.1</ele>
        <time>2015-06-08T19:21:22.745Z</time>
      </trkpt>
      <trkpt lat="48.80876" lon="2.46476">
        <ele>87.8</ele>
        <time>2015-06-08T19:21:23.755Z</time>
      </trkpt>
      <trkpt lat="48.80873" lon="2.46471">
        <ele>87.6</ele>
        <time>2015-06-08T19:21:24.782Z</time>
      </trkpt>
      <trkpt lat="48.80869" lon="2.46466">
        <ele>87.7</ele>
        <time>2015-06-08T19:21:25.939Z</time>
      </trkpt>
      <trkpt lat="48.80866" lon="2.46461">
        <ele>88.1</ele>
        <time>2015-06-08T19:21:26.761Z</time>
      </trkpt>
      <trkpt lat="48.80863" lon="2.46456">
        <ele>88.5</ele>
        <time>2015-06-08T19:21:27.765Z</time>
      </trkpt>
      <trkpt lat="48.80857" lon="2.46446">
        <ele>89</ele>
        <time>2015-06-08T19:21:29.773Z</time>
      </trkpt>
      <trkpt lat="48.80854" lon="2.46441">
        <ele>89</ele>
        <time>2015-06-08T19:21:30.781Z</time>
      </trkpt>
      <trkpt lat="48.80848" lon="2.46431">
        <ele>89</ele>
        <time>2015-06-08T19:21:32.872Z</time>
      </trkpt>
      <trkpt lat="48.80845" lon="2.46426">
        <ele>88.9</ele>
        <time>2015-06-08T19:21:33.771Z</time>
      </trkpt>
      <trkpt lat="48.80838" lon="2.46418">
        <ele>88.8</ele>
        <time>2015-06-08T19:21:35.735Z</time>
      </trkpt>
      <trkpt lat="48.80836" lon="2.46413">
        <ele>88.8</ele>
        <time>2015-06-08T19:21:36.786Z</time>
      </trkpt>
      <trkpt lat="48.80831" lon="2.46402">
        <ele>88.7</ele>
        <time>2015-06-08T19:21:38.826Z</time>
      </trkpt>
      <trkpt lat="48.80829" lon="2.46397">
        <ele>88.7</ele>
        <time>2015-06-08T19:21:39.856Z</time>
      </trkpt>
      <trkpt lat="48.80824" lon="2.46389">
        <ele>88.4</ele>
        <time>2015-06-08T19:21:41.750Z</time>
      </trkpt>
      <trkpt lat="48.80822" lon="2.46385">
        <ele>88.3</ele>
        <time>2015-06-08T19:21:42.769Z</time>
      </trkpt>
      <trkpt lat="48.80815" lon="2.46379">
        <ele>88.7</ele>
        <time>2015-06-08T19:21:44.811Z</time>
      </trkpt>
      <trkpt lat="48.80811" lon="2.46379">
        <ele>88.5</ele>
        <time>2015-06-08T19:21:45.831Z</time>
      </trkpt>
      <trkpt lat="48.80805" lon="2.46384">
        <ele>88</ele>
        <time>2015-06-08T19:21:47.796Z</time>
      </trkpt>
      <trkpt lat="48.80803" lon="2.46387">
        <ele>88.1</ele>
        <time>2015-06-08T19:21:48.818Z</time>
      </trkpt>
      <trkpt lat="48.80798" lon="2.46394">
        <ele>87.9</ele>
        <time>2015-06-08T19:21:50.767Z</time>
      </trkpt>
      <trkpt lat="48.80795" lon="2.46397">
        <ele>87.8</ele>
        <time>2015-06-08T19:21:51.784Z</time>
      </trkpt>
      <trkpt lat="48.80791" lon="2.46401">
        <ele>87.4</ele>
        <time>2015-06-08T19:21:52.742Z</time>
      </trkpt>
      <trkpt lat="48.80787" lon="2.46406">
        <ele>87</ele>
        <time>2015-06-08T19:21:53.742Z</time>
      </trkpt>
      <trkpt lat="48.80784" lon="2.4641">
        <ele>87</ele>
        <time>2015-06-08T19:21:54.765Z</time>
      </trkpt>
      <trkpt lat="48.80781" lon="2.46415">
        <ele>87</ele>
        <time>2015-06-08T19:21:55.772Z</time>
      </trkpt>
      <trkpt lat="48.80775" lon="2.46425">
        <ele>86.8</ele>
        <time>2015-06-08T19:21:57.804Z</time>
      </trkpt>
      <trkpt lat="48.80771" lon="2.4643">
        <ele>86.7</ele>
        <time>2015-06-08T19:21:58.829Z</time>
      </trkpt>
      <trkpt lat="48.80767" lon="2.46435">
        <ele>86.6</ele>
        <time>2015-06-08T19:21:59.728Z</time>
      </trkpt>
      <trkpt lat="48.80763" lon="2.4644">
        <ele>86.6</ele>
        <time>2015-06-08T19:22:00.742Z</time>
      </trkpt>
      <trkpt lat="48.8076" lon="2.46444">
        <ele>86.4</ele>
        <time>2015-06-08T19:22:01.811Z</time>
      </trkpt>
      <trkpt lat="48.80756" lon="2.46449">
        <ele>86.2</ele>
        <time>2015-06-08T19:22:02.802Z</time>
      </trkpt>
      <trkpt lat="48.80753" lon="2.46454">
        <ele>85.6</ele>
        <time>2015-06-08T19:22:03.814Z</time>
      </trkpt>
      <trkpt lat="48.80749" lon="2.46459">
        <ele>85</ele>
        <time>2015-06-08T19:22:04.767Z</time>
      </trkpt>
      <trkpt lat="48.80746" lon="2.46464">
        <ele>84.9</ele>
        <time>2015-06-08T19:22:05.761Z</time>
      </trkpt>
      <trkpt lat="48.80742" lon="2.46469">
        <ele>85</ele>
        <time>2015-06-08T19:22:06.775Z</time>
      </trkpt>
      <trkpt lat="48.80735" lon="2.46478">
        <ele>85.2</ele>
        <time>2015-06-08T19:22:08.796Z</time>
      </trkpt>
      <trkpt lat="48.80732" lon="2.46482">
        <ele>85.3</ele>
        <time>2015-06-08T19:22:09.812Z</time>
      </trkpt>
      <trkpt lat="48.80726" lon="2.46491">
        <ele>85.3</ele>
        <time>2015-06-08T19:22:11.764Z</time>
      </trkpt>
      <trkpt lat="48.80723" lon="2.46497">
        <ele>85.5</ele>
        <time>2015-06-08T19:22:12.763Z</time>
      </trkpt>
      <trkpt lat="48.80718" lon="2.46507">
        <ele>86.2</ele>
        <time>2015-06-08T19:22:14.791Z</time>
      </trkpt>
      <trkpt lat="48.80716" lon="2.4651">
        <ele>86.3</ele>
        <time>2015-06-08T19:22:15.797Z</time>
      </trkpt>
      <trkpt lat="48.80714" lon="2.46523">
        <ele>86.4</ele>
        <time>2015-06-08T19:22:18.814Z</time>
      </trkpt>
      <trkpt lat="48.80714" lon="2.46528">
        <ele>86.4</ele>
        <time>2015-06-08T19:22:19.752Z</time>
      </trkpt>
      <trkpt lat="48.80717" lon="2.46539">
        <ele>86.3</ele>
        <time>2015-06-08T19:22:21.772Z</time>
      </trkpt>
      <trkpt lat="48.8072" lon="2.46543">
        <ele>86.4</ele>
        <time>2015-06-08T19:22:22.770Z</time>
      </trkpt>
      <trkpt lat="48.80724" lon="2.46555">
        <ele>86.4</ele>
        <time>2015-06-08T19:22:24.792Z</time>
      </trkpt>
      <trkpt lat="48.80727" lon="2.46561">
        <ele>86.1</ele>
        <time>2015-06-08T19:22:25.797Z</time>
      </trkpt>
      <trkpt lat="48.80731" lon="2.46568">
        <ele>85.7</ele>
        <time>2015-06-08T19:22:26.824Z</time>
      </trkpt>
      <trkpt lat="48.80736" lon="2.46575">
        <ele>85.6</ele>
        <time>2015-06-08T19:22:27.827Z</time>
      </trkpt>
      <trkpt lat="48.80739" lon="2.46582">
        <ele>86.1</ele>
        <time>2015-06-08T19:22:28.743Z</time>
      </trkpt>
      <trkpt lat="48.80742" lon="2.46588">
        <ele>86.5</ele>
        <time>2015-06-08T19:22:29.822Z</time>
      </trkpt>
      <trkpt lat="48.80745" lon="2.46599">
        <ele>86.5</ele>
        <time>2015-06-08T19:22:31.744Z</time>
      </trkpt>
      <trkpt lat="48.80746" lon="2.46605">
        <ele>86.4</ele>
        <time>2015-06-08T19:22:32.866Z</time>
      </trkpt>
      <trkpt lat="48.80748" lon="2.46616">
        <ele>86.4</ele>
        <time>2015-06-08T19:22:34.800Z</time>
      </trkpt>
      <trkpt lat="48.80749" lon="2.46621">
        <ele>86.8</ele>
        <time>2015-06-08T19:22:35.824Z</time>
      </trkpt>
      <trkpt lat="48.80749" lon="2.46628">
        <ele>87.1</ele>
        <time>2015-06-08T19:22:36.747Z</time>
      </trkpt>
      <trkpt lat="48.80749" lon="2.46636">
        <ele>87.4</ele>
        <time>2015-06-08T19:22:37.706Z</time>
      </trkpt>
      <trkpt lat="48.80749" lon="2.46643">
        <ele>87.3</ele>
        <time>2015-06-08T19:22:38.765Z</time>
      </trkpt>
      <trkpt lat="48.8075" lon="2.46651">
        <ele>86.7</ele>
        <time>2015-06-08T19:22:39.773Z</time>
      </trkpt>
      <trkpt lat="48.8075" lon="2.46664">
        <ele>86.6</ele>
        <time>2015-06-08T19:22:41.843Z</time>
      </trkpt>
      <trkpt lat="48.80747" lon="2.46668">
        <ele>86.3</ele>
        <time>2015-06-08T19:22:42.888Z</time>
      </trkpt>
      <trkpt lat="48.8074" lon="2.46675">
        <ele>86.1</ele>
        <time>2015-06-08T19:22:44.801Z</time>
      </trkpt>
      <trkpt lat="48.80736" lon="2.46679">
        <ele>85.9</ele>
        <time>2015-06-08T19:22:45.742Z</time>
      </trkpt>
      <trkpt lat="48.80732" lon="2.46684">
        <ele>86</ele>
        <time>2015-06-08T19:22:46.753Z</time>
      </trkpt>
      <trkpt lat="48.80727" lon="2.46689">
        <ele>85.9</ele>
        <time>2015-06-08T19:22:47.818Z</time>
      </trkpt>
      <trkpt lat="48.80723" lon="2.46693">
        <ele>85.7</ele>
        <time>2015-06-08T19:22:48.754Z</time>
      </trkpt>
      <trkpt lat="48.80718" lon="2.46698">
        <ele>85.6</ele>
        <time>2015-06-08T19:22:49.766Z</time>
      </trkpt>
      <trkpt lat="48.80714" lon="2.46704">
        <ele>85.5</ele>
        <time>2015-06-08T19:22:51.465Z</time>
      </trkpt>
      <trkpt lat="48.8071" lon="2.4671">
        <ele>85.5</ele>
        <time>2015-06-08T19:22:51.796Z</time>
      </trkpt>
      <trkpt lat="48.80706" lon="2.46715">
        <ele>85.4</ele>
        <time>2015-06-08T19:22:52.800Z</time>
      </trkpt>
      <trkpt lat="48.80703" lon="2.46719">
        <ele>85.3</ele>
        <time>2015-06-08T19:22:53.810Z</time>
      </trkpt>
      <trkpt lat="48.80699" lon="2.46724">
        <ele>85.1</ele>
        <time>2015-06-08T19:22:54.818Z</time>
      </trkpt>
      <trkpt lat="48.80695" lon="2.46729">
        <ele>85</ele>
        <time>2015-06-08T19:22:55.709Z</time>
      </trkpt>
      <trkpt lat="48.80689" lon="2.46735">
        <ele>84.1</ele>
        <time>2015-06-08T19:22:57.767Z</time>
      </trkpt>
      <trkpt lat="48.80685" lon="2.46739">
        <ele>84.3</ele>
        <time>2015-06-08T19:22:58.793Z</time>
      </trkpt>
      <trkpt lat="48.80678" lon="2.46748">
        <ele>84.1</ele>
        <time>2015-06-08T19:23:01.643Z</time>
      </trkpt>
      <trkpt lat="48.80675" lon="2.46752">
        <ele>83.7</ele>
        <time>2015-06-08T19:23:01.727Z</time>
      </trkpt>
      <trkpt lat="48.8067" lon="2.46761">
        <ele>83.6</ele>
        <time>2015-06-08T19:23:03.772Z</time>
      </trkpt>
      <trkpt lat="48.80667" lon="2.46766">
        <ele>83.6</ele>
        <time>2015-06-08T19:23:04.844Z</time>
      </trkpt>
      <trkpt lat="48.80664" lon="2.46772">
        <ele>83.4</ele>
        <time>2015-06-08T19:23:05.747Z</time>
      </trkpt>
      <trkpt lat="48.80661" lon="2.46777">
        <ele>83.8</ele>
        <time>2015-06-08T19:23:06.765Z</time>
      </trkpt>
      <trkpt lat="48.80657" lon="2.46783">
        <ele>83.7</ele>
        <time>2015-06-08T19:23:07.785Z</time>
      </trkpt>
      <trkpt lat="48.80654" lon="2.46787">
        <ele>83.6</ele>
        <time>2015-06-08T19:23:08.800Z</time>
      </trkpt>
      <trkpt lat="48.8065" lon="2.46795">
        <ele>83.4</ele>
        <time>2015-06-08T19:23:09.814Z</time>
      </trkpt>
      <trkpt lat="48.80645" lon="2.46801">
        <ele>83.4</ele>
        <time>2015-06-08T19:23:10.739Z</time>
      </trkpt>
      <trkpt lat="48.80641" lon="2.46807">
        <ele>83.2</ele>
        <time>2015-06-08T19:23:11.876Z</time>
      </trkpt>
      <trkpt lat="48.80636" lon="2.46813">
        <ele>82.9</ele>
        <time>2015-06-08T19:23:12.749Z</time>
      </trkpt>
      <trkpt lat="48.80632" lon="2.46817">
        <ele>83</ele>
        <time>2015-06-08T19:23:13.775Z</time>
      </trkpt>
      <trkpt lat="48.80627" lon="2.46822">
        <ele>83</ele>
        <time>2015-06-08T19:23:14.786Z</time>
      </trkpt>
      <trkpt lat="48.80623" lon="2.46826">
        <ele>83.2</ele>
        <time>2015-06-08T19:23:15.798Z</time>
      </trkpt>
      <trkpt lat="48.80619" lon="2.46832">
        <ele>83.5</ele>
        <time>2015-06-08T19:23:16.804Z</time>
      </trkpt>
      <trkpt lat="48.80615" lon="2.46837">
        <ele>83.9</ele>
        <time>2015-06-08T19:23:17.814Z</time>
      </trkpt>
      <trkpt lat="48.80611" lon="2.46841">
        <ele>84.3</ele>
        <time>2015-06-08T19:23:18.824Z</time>
      </trkpt>
      <trkpt lat="48.80607" lon="2.46847">
        <ele>84.4</ele>
        <time>2015-06-08T19:23:19.747Z</time>
      </trkpt>
      <trkpt lat="48.80602" lon="2.46851">
        <ele>84.7</ele>
        <time>2015-06-08T19:23:20.847Z</time>
      </trkpt>
      <trkpt lat="48.80597" lon="2.46857">
        <ele>84.5</ele>
        <time>2015-06-08T19:23:21.739Z</time>
      </trkpt>
      <trkpt lat="48.80593" lon="2.46862">
        <ele>84.6</ele>
        <time>2015-06-08T19:23:22.742Z</time>
      </trkpt>
      <trkpt lat="48.80588" lon="2.46868">
        <ele>84.4</ele>
        <time>2015-06-08T19:23:23.752Z</time>
      </trkpt>
      <trkpt lat="48.80584" lon="2.46873">
        <ele>84.3</ele>
        <time>2015-06-08T19:23:24.756Z</time>
      </trkpt>
      <trkpt lat="48.80576" lon="2.46878">
        <ele>84.2</ele>
        <time>2015-06-08T19:23:26.828Z</time>
      </trkpt>
      <trkpt lat="48.80572" lon="2.46879">
        <ele>84.2</ele>
        <time>2015-06-08T19:23:27.869Z</time>
      </trkpt>
      <trkpt lat="48.80567" lon="2.46881">
        <ele>84.4</ele>
        <time>2015-06-08T19:23:28.793Z</time>
      </trkpt>
      <trkpt lat="48.80563" lon="2.46884">
        <ele>84.8</ele>
        <time>2015-06-08T19:23:29.811Z</time>
      </trkpt>
      <trkpt lat="48.80558" lon="2.46886">
        <ele>84.8</ele>
        <time>2015-06-08T19:23:30.739Z</time>
      </trkpt>
      <trkpt lat="48.80553" lon="2.46888">
        <ele>84.6</ele>
        <time>2015-06-08T19:23:31.753Z</time>
      </trkpt>
      <trkpt lat="48.80546" lon="2.46889">
        <ele>84</ele>
        <time>2015-06-08T19:23:32.830Z</time>
      </trkpt>
      <trkpt lat="48.8054" lon="2.46892">
        <ele>83.7</ele>
        <time>2015-06-08T19:23:33.818Z</time>
      </trkpt>
      <trkpt lat="48.80535" lon="2.46894">
        <ele>83.3</ele>
        <time>2015-06-08T19:23:34.734Z</time>
      </trkpt>
      <trkpt lat="48.8053" lon="2.46896">
        <ele>83.2</ele>
        <time>2015-06-08T19:23:35.737Z</time>
      </trkpt>
      <trkpt lat="48.80525" lon="2.46898">
        <ele>83</ele>
        <time>2015-06-08T19:23:36.782Z</time>
      </trkpt>
      <trkpt lat="48.8052" lon="2.46901">
        <ele>82.9</ele>
        <time>2015-06-08T19:23:37.796Z</time>
      </trkpt>
      <trkpt lat="48.80516" lon="2.46903">
        <ele>82.8</ele>
        <time>2015-06-08T19:23:38.816Z</time>
      </trkpt>
      <trkpt lat="48.80511" lon="2.46904">
        <ele>82.5</ele>
        <time>2015-06-08T19:23:39.722Z</time>
      </trkpt>
      <trkpt lat="48.80506" lon="2.46906">
        <ele>82.4</ele>
        <time>2015-06-08T19:23:40.725Z</time>
      </trkpt>
      <trkpt lat="48.80502" lon="2.46908">
        <ele>82.6</ele>
        <time>2015-06-08T19:23:41.729Z</time>
      </trkpt>
      <trkpt lat="48.80497" lon="2.4691">
        <ele>82.5</ele>
        <time>2015-06-08T19:23:42.741Z</time>
      </trkpt>
      <trkpt lat="48.80493" lon="2.46911">
        <ele>82.5</ele>
        <time>2015-06-08T19:23:43.753Z</time>
      </trkpt>
      <trkpt lat="48.80484" lon="2.46911">
        <ele>82.8</ele>
        <time>2015-06-08T19:23:45.748Z</time>
      </trkpt>
      <trkpt lat="48.8048" lon="2.46911">
        <ele>83.3</ele>
        <time>2015-06-08T19:23:46.773Z</time>
      </trkpt>
      <trkpt lat="48.80471" lon="2.46912">
        <ele>83.3</ele>
        <time>2015-06-08T19:23:48.769Z</time>
      </trkpt>
      <trkpt lat="48.80467" lon="2.46914">
        <ele>83.4</ele>
        <time>2015-06-08T19:23:49.879Z</time>
      </trkpt>
      <trkpt lat="48.80459" lon="2.46917">
        <ele>83.6</ele>
        <time>2015-06-08T19:23:51.775Z</time>
      </trkpt>
      <trkpt lat="48.80455" lon="2.46918">
        <ele>83.8</ele>
        <time>2015-06-08T19:23:52.789Z</time>
      </trkpt>
      <trkpt lat="48.8045" lon="2.4692">
        <ele>84.3</ele>
        <time>2015-06-08T19:23:53.813Z</time>
      </trkpt>
      <trkpt lat="48.80446" lon="2.46922">
        <ele>84.4</ele>
        <time>2015-06-08T19:23:54.720Z</time>
      </trkpt>
      <trkpt lat="48.80441" lon="2.46924">
        <ele>84.7</ele>
        <time>2015-06-08T19:23:55.751Z</time>
      </trkpt>
      <trkpt lat="48.80436" lon="2.46926">
        <ele>85</ele>
        <time>2015-06-08T19:23:56.765Z</time>
      </trkpt>
      <trkpt lat="48.80432" lon="2.46928">
        <ele>85.2</ele>
        <time>2015-06-08T19:23:57.774Z</time>
      </trkpt>
      <trkpt lat="48.80427" lon="2.46931">
        <ele>85.3</ele>
        <time>2015-06-08T19:23:58.790Z</time>
      </trkpt>
      <trkpt lat="48.80423" lon="2.46934">
        <ele>85.3</ele>
        <time>2015-06-08T19:23:59.816Z</time>
      </trkpt>
      <trkpt lat="48.80418" lon="2.46936">
        <ele>85.4</ele>
        <time>2015-06-08T19:24:00.851Z</time>
      </trkpt>
      <trkpt lat="48.80413" lon="2.46938">
        <ele>85.3</ele>
        <time>2015-06-08T19:24:01.748Z</time>
      </trkpt>
      <trkpt lat="48.80408" lon="2.4694">
        <ele>85.3</ele>
        <time>2015-06-08T19:24:02.808Z</time>
      </trkpt>
      <trkpt lat="48.80404" lon="2.46942">
        <ele>85.6</ele>
        <time>2015-06-08T19:24:03.812Z</time>
      </trkpt>
      <trkpt lat="48.80399" lon="2.46944">
        <ele>85.8</ele>
        <time>2015-06-08T19:24:04.820Z</time>
      </trkpt>
      <trkpt lat="48.80394" lon="2.46947">
        <ele>86</ele>
        <time>2015-06-08T19:24:05.826Z</time>
      </trkpt>
      <trkpt lat="48.8039" lon="2.4695">
        <ele>86.2</ele>
        <time>2015-06-08T19:24:06.820Z</time>
      </trkpt>
      <trkpt lat="48.80385" lon="2.46954">
        <ele>86.6</ele>
        <time>2015-06-08T19:24:07.748Z</time>
      </trkpt>
      <trkpt lat="48.8038" lon="2.46959">
        <ele>86.5</ele>
        <time>2015-06-08T19:24:08.804Z</time>
      </trkpt>
      <trkpt lat="48.80376" lon="2.46961">
        <ele>86.8</ele>
        <time>2015-06-08T19:24:09.800Z</time>
      </trkpt>
      <trkpt lat="48.80372" lon="2.46965">
        <ele>87</ele>
        <time>2015-06-08T19:24:10.836Z</time>
      </trkpt>
      <trkpt lat="48.80368" lon="2.46967">
        <ele>87.3</ele>
        <time>2015-06-08T19:24:12.052Z</time>
      </trkpt>
      <trkpt lat="48.80363" lon="2.46971">
        <ele>87.6</ele>
        <time>2015-06-08T19:24:12.763Z</time>
      </trkpt>
      <trkpt lat="48.80359" lon="2.46974">
        <ele>87.8</ele>
        <time>2015-06-08T19:24:13.777Z</time>
      </trkpt>
      <trkpt lat="48.80353" lon="2.46977">
        <ele>88.7</ele>
        <time>2015-06-08T19:24:14.796Z</time>
      </trkpt>
      <trkpt lat="48.80347" lon="2.46977">
        <ele>89</ele>
        <time>2015-06-08T19:24:15.806Z</time>
      </trkpt>
      <trkpt lat="48.80342" lon="2.46977">
        <ele>88.9</ele>
        <time>2015-06-08T19:24:16.827Z</time>
      </trkpt>
      <trkpt lat="48.80337" lon="2.46976">
        <ele>88.6</ele>
        <time>2015-06-08T19:24:17.742Z</time>
      </trkpt>
      <trkpt lat="48.80332" lon="2.46977">
        <ele>88.9</ele>
        <time>2015-06-08T19:24:18.739Z</time>
      </trkpt>
      <trkpt lat="48.80327" lon="2.46978">
        <ele>89</ele>
        <time>2015-06-08T19:24:19.750Z</time>
      </trkpt>
      <trkpt lat="48.80322" lon="2.46979">
        <ele>89.1</ele>
        <time>2015-06-08T19:24:20.822Z</time>
      </trkpt>
      <trkpt lat="48.80317" lon="2.4698">
        <ele>89.3</ele>
        <time>2015-06-08T19:24:21.709Z</time>
      </trkpt>
      <trkpt lat="48.80311" lon="2.4698">
        <ele>89.1</ele>
        <time>2015-06-08T19:24:22.726Z</time>
      </trkpt>
      <trkpt lat="48.80305" lon="2.46979">
        <ele>89.1</ele>
        <time>2015-06-08T19:24:23.736Z</time>
      </trkpt>
      <trkpt lat="48.80299" lon="2.46979">
        <ele>88.7</ele>
        <time>2015-06-08T19:24:24.741Z</time>
      </trkpt>
      <trkpt lat="48.80293" lon="2.46979">
        <ele>88.9</ele>
        <time>2015-06-08T19:24:25.769Z</time>
      </trkpt>
      <trkpt lat="48.80287" lon="2.46979">
        <ele>89</ele>
        <time>2015-06-08T19:24:26.810Z</time>
      </trkpt>
      <trkpt lat="48.8028" lon="2.46981">
        <ele>88.8</ele>
        <time>2015-06-08T19:24:27.819Z</time>
      </trkpt>
      <trkpt lat="48.80273" lon="2.46983">
        <ele>89.2</ele>
        <time>2015-06-08T19:24:28.741Z</time>
      </trkpt>
      <trkpt lat="48.80266" lon="2.46983">
        <ele>89.7</ele>
        <time>2015-06-08T19:24:29.743Z</time>
      </trkpt>
      <trkpt lat="48.80259" lon="2.46981">
        <ele>89.9</ele>
        <time>2015-06-08T19:24:30.734Z</time>
      </trkpt>
      <trkpt lat="48.80251" lon="2.46981">
        <ele>90.1</ele>
        <time>2015-06-08T19:24:31.755Z</time>
      </trkpt>
      <trkpt lat="48.80244" lon="2.46981">
        <ele>89.9</ele>
        <time>2015-06-08T19:24:32.775Z</time>
      </trkpt>
      <trkpt lat="48.80237" lon="2.4698">
        <ele>89.9</ele>
        <time>2015-06-08T19:24:33.802Z</time>
      </trkpt>
      <trkpt lat="48.8023" lon="2.46979">
        <ele>89.9</ele>
        <time>2015-06-08T19:24:34.727Z</time>
      </trkpt>
      <trkpt lat="48.80224" lon="2.46978">
        <ele>89.8</ele>
        <time>2015-06-08T19:24:35.697Z</time>
      </trkpt>
      <trkpt lat="48.80217" lon="2.46977">
        <ele>90.1</ele>
        <time>2015-06-08T19:24:36.725Z</time>
      </trkpt>
      <trkpt lat="48.8021" lon="2.46977">
        <ele>90.4</ele>
        <time>2015-06-08T19:24:37.742Z</time>
      </trkpt>
      <trkpt lat="48.80204" lon="2.46978">
        <ele>90</ele>
        <time>2015-06-08T19:24:38.774Z</time>
      </trkpt>
      <trkpt lat="48.80196" lon="2.46979">
        <ele>89.6</ele>
        <time>2015-06-08T19:24:39.766Z</time>
      </trkpt>
      <trkpt lat="48.80189" lon="2.4698">
        <ele>89.5</ele>
        <time>2015-06-08T19:24:40.774Z</time>
      </trkpt>
      <trkpt lat="48.80182" lon="2.46981">
        <ele>89.7</ele>
        <time>2015-06-08T19:24:41.796Z</time>
      </trkpt>
      <trkpt lat="48.80173" lon="2.46984">
        <ele>91.1</ele>
        <time>2015-06-08T19:24:42.812Z</time>
      </trkpt>
      <trkpt lat="48.80166" lon="2.46986">
        <ele>91.9</ele>
        <time>2015-06-08T19:24:43.742Z</time>
      </trkpt>
      <trkpt lat="48.80159" lon="2.46989">
        <ele>92</ele>
        <time>2015-06-08T19:24:44.773Z</time>
      </trkpt>
      <trkpt lat="48.80151" lon="2.46993">
        <ele>91.8</ele>
        <time>2015-06-08T19:24:45.777Z</time>
      </trkpt>
      <trkpt lat="48.80144" lon="2.46996">
        <ele>91.5</ele>
        <time>2015-06-08T19:24:46.787Z</time>
      </trkpt>
      <trkpt lat="48.80137" lon="2.47">
        <ele>90.8</ele>
        <time>2015-06-08T19:24:47.795Z</time>
      </trkpt>
      <trkpt lat="48.8013" lon="2.47003">
        <ele>90.2</ele>
        <time>2015-06-08T19:24:48.806Z</time>
      </trkpt>
      <trkpt lat="48.80123" lon="2.47005">
        <ele>90.1</ele>
        <time>2015-06-08T19:24:49.735Z</time>
      </trkpt>
      <trkpt lat="48.80116" lon="2.47008">
        <ele>90.3</ele>
        <time>2015-06-08T19:24:50.835Z</time>
      </trkpt>
      <trkpt lat="48.80109" lon="2.47011">
        <ele>90.6</ele>
        <time>2015-06-08T19:24:51.727Z</time>
      </trkpt>
      <trkpt lat="48.80102" lon="2.47014">
        <ele>90.6</ele>
        <time>2015-06-08T19:24:52.729Z</time>
      </trkpt>
      <trkpt lat="48.80094" lon="2.47019">
        <ele>90.9</ele>
        <time>2015-06-08T19:24:53.738Z</time>
      </trkpt>
      <trkpt lat="48.80087" lon="2.47025">
        <ele>91.4</ele>
        <time>2015-06-08T19:24:54.748Z</time>
      </trkpt>
      <trkpt lat="48.8008" lon="2.47028">
        <ele>91.3</ele>
        <time>2015-06-08T19:24:55.754Z</time>
      </trkpt>
      <trkpt lat="48.80073" lon="2.47032">
        <ele>91.2</ele>
        <time>2015-06-08T19:24:56.783Z</time>
      </trkpt>
      <trkpt lat="48.80067" lon="2.47033">
        <ele>91</ele>
        <time>2015-06-08T19:24:57.784Z</time>
      </trkpt>
      <trkpt lat="48.80059" lon="2.47036">
        <ele>91.1</ele>
        <time>2015-06-08T19:24:58.791Z</time>
      </trkpt>
      <trkpt lat="48.80052" lon="2.47038">
        <ele>91.2</ele>
        <time>2015-06-08T19:24:59.698Z</time>
      </trkpt>
      <trkpt lat="48.80045" lon="2.4704">
        <ele>91</ele>
        <time>2015-06-08T19:25:00.723Z</time>
      </trkpt>
      <trkpt lat="48.80038" lon="2.47044">
        <ele>90.4</ele>
        <time>2015-06-08T19:25:01.767Z</time>
      </trkpt>
      <trkpt lat="48.80031" lon="2.47048">
        <ele>90</ele>
        <time>2015-06-08T19:25:02.857Z</time>
      </trkpt>
      <trkpt lat="48.80024" lon="2.47052">
        <ele>89.7</ele>
        <time>2015-06-08T19:25:03.754Z</time>
      </trkpt>
      <trkpt lat="48.80016" lon="2.47056">
        <ele>89.4</ele>
        <time>2015-06-08T19:25:04.753Z</time>
      </trkpt>
      <trkpt lat="48.80009" lon="2.4706">
        <ele>89.6</ele>
        <time>2015-06-08T19:25:05.770Z</time>
      </trkpt>
      <trkpt lat="48.80001" lon="2.47064">
        <ele>90</ele>
        <time>2015-06-08T19:25:06.789Z</time>
      </trkpt>
      <trkpt lat="48.79993" lon="2.47065">
        <ele>89.8</ele>
        <time>2015-06-08T19:25:07.807Z</time>
      </trkpt>
      <trkpt lat="48.79986" lon="2.47068">
        <ele>89.7</ele>
        <time>2015-06-08T19:25:08.843Z</time>
      </trkpt>
      <trkpt lat="48.79978" lon="2.47072">
        <ele>89.8</ele>
        <time>2015-06-08T19:25:09.726Z</time>
      </trkpt>
      <trkpt lat="48.7997" lon="2.47075">
        <ele>89.8</ele>
        <time>2015-06-08T19:25:10.734Z</time>
      </trkpt>
      <trkpt lat="48.79962" lon="2.47079">
        <ele>89.9</ele>
        <time>2015-06-08T19:25:11.730Z</time>
      </trkpt>
      <trkpt lat="48.79955" lon="2.47083">
        <ele>90.1</ele>
        <time>2015-06-08T19:25:12.734Z</time>
      </trkpt>
      <trkpt lat="48.79949" lon="2.47087">
        <ele>90.1</ele>
        <time>2015-06-08T19:25:13.742Z</time>
      </trkpt>
      <trkpt lat="48.79942" lon="2.4709">
        <ele>90.1</ele>
        <time>2015-06-08T19:25:14.786Z</time>
      </trkpt>
      <trkpt lat="48.79937" lon="2.47094">
        <ele>89.9</ele>
        <time>2015-06-08T19:25:15.729Z</time>
      </trkpt>
      <trkpt lat="48.79932" lon="2.47098">
        <ele>90</ele>
        <time>2015-06-08T19:25:16.715Z</time>
      </trkpt>
      <trkpt lat="48.79927" lon="2.47101">
        <ele>90.3</ele>
        <time>2015-06-08T19:25:17.731Z</time>
      </trkpt>
      <trkpt lat="48.79922" lon="2.47103">
        <ele>90.5</ele>
        <time>2015-06-08T19:25:18.737Z</time>
      </trkpt>
      <trkpt lat="48.79917" lon="2.47107">
        <ele>90.8</ele>
        <time>2015-06-08T19:25:19.752Z</time>
      </trkpt>
      <trkpt lat="48.79912" lon="2.47109">
        <ele>90.8</ele>
        <time>2015-06-08T19:25:20.769Z</time>
      </trkpt>
      <trkpt lat="48.79904" lon="2.47113">
        <ele>90.1</ele>
        <time>2015-06-08T19:25:22.792Z</time>
      </trkpt>
      <trkpt lat="48.799" lon="2.47113">
        <ele>90.2</ele>
        <time>2015-06-08T19:25:23.746Z</time>
      </trkpt>
      <trkpt lat="48.79892" lon="2.47116">
        <ele>90.1</ele>
        <time>2015-06-08T19:25:25.774Z</time>
      </trkpt>
      <trkpt lat="48.79888" lon="2.47117">
        <ele>89.8</ele>
        <time>2015-06-08T19:25:26.812Z</time>
      </trkpt>
      <trkpt lat="48.79879" lon="2.4712">
        <ele>89.3</ele>
        <time>2015-06-08T19:25:28.740Z</time>
      </trkpt>
      <trkpt lat="48.79875" lon="2.47122">
        <ele>89.3</ele>
        <time>2015-06-08T19:25:29.747Z</time>
      </trkpt>
      <trkpt lat="48.7987" lon="2.47124">
        <ele>89.4</ele>
        <time>2015-06-08T19:25:30.733Z</time>
      </trkpt>
      <trkpt lat="48.79865" lon="2.47125">
        <ele>89.3</ele>
        <time>2015-06-08T19:25:31.734Z</time>
      </trkpt>
      <trkpt lat="48.7986" lon="2.47127">
        <ele>89.1</ele>
        <time>2015-06-08T19:25:32.769Z</time>
      </trkpt>
      <trkpt lat="48.79854" lon="2.47128">
        <ele>89.2</ele>
        <time>2015-06-08T19:25:33.779Z</time>
      </trkpt>
      <trkpt lat="48.79849" lon="2.47129">
        <ele>89.4</ele>
        <time>2015-06-08T19:25:34.789Z</time>
      </trkpt>
      <trkpt lat="48.79844" lon="2.4713">
        <ele>89.6</ele>
        <time>2015-06-08T19:25:35.724Z</time>
      </trkpt>
      <trkpt lat="48.79838" lon="2.47131">
        <ele>89.7</ele>
        <time>2015-06-08T19:25:36.723Z</time>
      </trkpt>
      <trkpt lat="48.79833" lon="2.47132">
        <ele>89.7</ele>
        <time>2015-06-08T19:25:37.744Z</time>
      </trkpt>
      <trkpt lat="48.79828" lon="2.47133">
        <ele>89.7</ele>
        <time>2015-06-08T19:25:38.858Z</time>
      </trkpt>
      <trkpt lat="48.79823" lon="2.47134">
        <ele>89.6</ele>
        <time>2015-06-08T19:25:39.862Z</time>
      </trkpt>
      <trkpt lat="48.79818" lon="2.47135">
        <ele>89.6</ele>
        <time>2015-06-08T19:25:40.727Z</time>
      </trkpt>
      <trkpt lat="48.79812" lon="2.47136">
        <ele>89.4</ele>
        <time>2015-06-08T19:25:41.746Z</time>
      </trkpt>
      <trkpt lat="48.79807" lon="2.47136">
        <ele>89.3</ele>
        <time>2015-06-08T19:25:42.873Z</time>
      </trkpt>
      <trkpt lat="48.79802" lon="2.47137">
        <ele>89.2</ele>
        <time>2015-06-08T19:25:43.759Z</time>
      </trkpt>
      <trkpt lat="48.79797" lon="2.47137">
        <ele>89.4</ele>
        <time>2015-06-08T19:25:44.790Z</time>
      </trkpt>
      <trkpt lat="48.79792" lon="2.47137">
        <ele>89.5</ele>
        <time>2015-06-08T19:25:45.824Z</time>
      </trkpt>
      <trkpt lat="48.79787" lon="2.47138">
        <ele>89.2</ele>
        <time>2015-06-08T19:25:46.724Z</time>
      </trkpt>
      <trkpt lat="48.79782" lon="2.47138">
        <ele>88.9</ele>
        <time>2015-06-08T19:25:47.732Z</time>
      </trkpt>
      <trkpt lat="48.79777" lon="2.47139">
        <ele>88.4</ele>
        <time>2015-06-08T19:25:48.747Z</time>
      </trkpt>
      <trkpt lat="48.79772" lon="2.4714">
        <ele>88.5</ele>
        <time>2015-06-08T19:25:49.761Z</time>
      </trkpt>
      <trkpt lat="48.79767" lon="2.47141">
        <ele>88.5</ele>
        <time>2015-06-08T19:25:50.780Z</time>
      </trkpt>
      <trkpt lat="48.79762" lon="2.47142">
        <ele>88.2</ele>
        <time>2015-06-08T19:25:51.782Z</time>
      </trkpt>
      <trkpt lat="48.79756" lon="2.47142">
        <ele>88.3</ele>
        <time>2015-06-08T19:25:52.701Z</time>
      </trkpt>
      <trkpt lat="48.79751" lon="2.47143">
        <ele>88.1</ele>
        <time>2015-06-08T19:25:53.778Z</time>
      </trkpt>
      <trkpt lat="48.79746" lon="2.47143">
        <ele>87.9</ele>
        <time>2015-06-08T19:25:54.805Z</time>
      </trkpt>
      <trkpt lat="48.7974" lon="2.47144">
        <ele>88.3</ele>
        <time>2015-06-08T19:25:55.721Z</time>
      </trkpt>
      <trkpt lat="48.79735" lon="2.47146">
        <ele>87.9</ele>
        <time>2015-06-08T19:25:56.816Z</time>
      </trkpt>
      <trkpt lat="48.79729" lon="2.47148">
        <ele>88.7</ele>
        <time>2015-06-08T19:25:57.791Z</time>
      </trkpt>
      <trkpt lat="48.79724" lon="2.47149">
        <ele>89</ele>
        <time>2015-06-08T19:25:58.794Z</time>
      </trkpt>
      <trkpt lat="48.79719" lon="2.4715">
        <ele>89.1</ele>
        <time>2015-06-08T19:25:59.813Z</time>
      </trkpt>
      <trkpt lat="48.79713" lon="2.47152">
        <ele>89.3</ele>
        <time>2015-06-08T19:26:00.730Z</time>
      </trkpt>
      <trkpt lat="48.79707" lon="2.47153">
        <ele>89.4</ele>
        <time>2015-06-08T19:26:01.738Z</time>
      </trkpt>
      <trkpt lat="48.79702" lon="2.47155">
        <ele>89.5</ele>
        <time>2015-06-08T19:26:02.850Z</time>
      </trkpt>
      <trkpt lat="48.79696" lon="2.47156">
        <ele>89.5</ele>
        <time>2015-06-08T19:26:03.824Z</time>
      </trkpt>
      <trkpt lat="48.7969" lon="2.47157">
        <ele>89.3</ele>
        <time>2015-06-08T19:26:04.702Z</time>
      </trkpt>
      <trkpt lat="48.79684" lon="2.47159">
        <ele>89.3</ele>
        <time>2015-06-08T19:26:05.717Z</time>
      </trkpt>
      <trkpt lat="48.79678" lon="2.4716">
        <ele>89.3</ele>
        <time>2015-06-08T19:26:06.746Z</time>
      </trkpt>
      <trkpt lat="48.79671" lon="2.47162">
        <ele>89.3</ele>
        <time>2015-06-08T19:26:07.755Z</time>
      </trkpt>
      <trkpt lat="48.79665" lon="2.47163">
        <ele>89.4</ele>
        <time>2015-06-08T19:26:08.776Z</time>
      </trkpt>
      <trkpt lat="48.79658" lon="2.47165">
        <ele>89.4</ele>
        <time>2015-06-08T19:26:09.777Z</time>
      </trkpt>
      <trkpt lat="48.79652" lon="2.47167">
        <ele>89.5</ele>
        <time>2015-06-08T19:26:10.870Z</time>
      </trkpt>
      <trkpt lat="48.79645" lon="2.47169">
        <ele>89.5</ele>
        <time>2015-06-08T19:26:11.744Z</time>
      </trkpt>
      <trkpt lat="48.79638" lon="2.47172">
        <ele>89.6</ele>
        <time>2015-06-08T19:26:12.816Z</time>
      </trkpt>
      <trkpt lat="48.79632" lon="2.47173">
        <ele>89.8</ele>
        <time>2015-06-08T19:26:13.727Z</time>
      </trkpt>
      <trkpt lat="48.79625" lon="2.47175">
        <ele>89.8</ele>
        <time>2015-06-08T19:26:14.816Z</time>
      </trkpt>
      <trkpt lat="48.79619" lon="2.47176">
        <ele>89.8</ele>
        <time>2015-06-08T19:26:15.781Z</time>
      </trkpt>
      <trkpt lat="48.79612" lon="2.47177">
        <ele>89.8</ele>
        <time>2015-06-08T19:26:16.789Z</time>
      </trkpt>
      <trkpt lat="48.79605" lon="2.47177">
        <ele>89.6</ele>
        <time>2015-06-08T19:26:17.806Z</time>
      </trkpt>
      <trkpt lat="48.79599" lon="2.47177">
        <ele>89.2</ele>
        <time>2015-06-08T19:26:18.718Z</time>
      </trkpt>
      <trkpt lat="48.79592" lon="2.47179">
        <ele>89.2</ele>
        <time>2015-06-08T19:26:19.740Z</time>
      </trkpt>
      <trkpt lat="48.79585" lon="2.4718">
        <ele>89.4</ele>
        <time>2015-06-08T19:26:20.799Z</time>
      </trkpt>
      <trkpt lat="48.79578" lon="2.47182">
        <ele>89.1</ele>
        <time>2015-06-08T19:26:21.727Z</time>
      </trkpt>
      <trkpt lat="48.79571" lon="2.47184">
        <ele>88.8</ele>
        <time>2015-06-08T19:26:22.758Z</time>
      </trkpt>
      <trkpt lat="48.79563" lon="2.47187">
        <ele>88.6</ele>
        <time>2015-06-08T19:26:23.774Z</time>
      </trkpt>
      <trkpt lat="48.79556" lon="2.47189">
        <ele>88.7</ele>
        <time>2015-06-08T19:26:24.734Z</time>
      </trkpt>
      <trkpt lat="48.79549" lon="2.4719">
        <ele>88.7</ele>
        <time>2015-06-08T19:26:25.721Z</time>
      </trkpt>
      <trkpt lat="48.79542" lon="2.47192">
        <ele>88.3</ele>
        <time>2015-06-08T19:26:26.762Z</time>
      </trkpt>
      <trkpt lat="48.79535" lon="2.47195">
        <ele>88.4</ele>
        <time>2015-06-08T19:26:27.764Z</time>
      </trkpt>
      <trkpt lat="48.79529" lon="2.47197">
        <ele>88.3</ele>
        <time>2015-06-08T19:26:28.688Z</time>
      </trkpt>
      <trkpt lat="48.79522" lon="2.47199">
        <ele>88.2</ele>
        <time>2015-06-08T19:26:29.709Z</time>
      </trkpt>
      <trkpt lat="48.79515" lon="2.47202">
        <ele>87.6</ele>
        <time>2015-06-08T19:26:30.715Z</time>
      </trkpt>
      <trkpt lat="48.79509" lon="2.47204">
        <ele>87.7</ele>
        <time>2015-06-08T19:26:31.718Z</time>
      </trkpt>
      <trkpt lat="48.79502" lon="2.47207">
        <ele>87.7</ele>
        <time>2015-06-08T19:26:32.750Z</time>
      </trkpt>
      <trkpt lat="48.79495" lon="2.4721">
        <ele>87.6</ele>
        <time>2015-06-08T19:26:33.762Z</time>
      </trkpt>
      <trkpt lat="48.79488" lon="2.47213">
        <ele>88</ele>
        <time>2015-06-08T19:26:34.778Z</time>
      </trkpt>
      <trkpt lat="48.79481" lon="2.47216">
        <ele>88.1</ele>
        <time>2015-06-08T19:26:35.702Z</time>
      </trkpt>
      <trkpt lat="48.79474" lon="2.47219">
        <ele>88.4</ele>
        <time>2015-06-08T19:26:36.739Z</time>
      </trkpt>
      <trkpt lat="48.79466" lon="2.47222">
        <ele>88.7</ele>
        <time>2015-06-08T19:26:37.780Z</time>
      </trkpt>
      <trkpt lat="48.79458" lon="2.47225">
        <ele>88.8</ele>
        <time>2015-06-08T19:26:38.796Z</time>
      </trkpt>
      <trkpt lat="48.79451" lon="2.47228">
        <ele>89</ele>
        <time>2015-06-08T19:26:39.747Z</time>
      </trkpt>
      <trkpt lat="48.79443" lon="2.47231">
        <ele>89.5</ele>
        <time>2015-06-08T19:26:40.746Z</time>
      </trkpt>
      <trkpt lat="48.79436" lon="2.47234">
        <ele>89.8</ele>
        <time>2015-06-08T19:26:41.757Z</time>
      </trkpt>
      <trkpt lat="48.79429" lon="2.47237">
        <ele>89.9</ele>
        <time>2015-06-08T19:26:42.765Z</time>
      </trkpt>
      <trkpt lat="48.79422" lon="2.4724">
        <ele>90</ele>
        <time>2015-06-08T19:26:43.788Z</time>
      </trkpt>
      <trkpt lat="48.79415" lon="2.47242">
        <ele>90</ele>
        <time>2015-06-08T19:26:44.806Z</time>
      </trkpt>
      <trkpt lat="48.79408" lon="2.47244">
        <ele>89.8</ele>
        <time>2015-06-08T19:26:45.809Z</time>
      </trkpt>
      <trkpt lat="48.79402" lon="2.47246">
        <ele>89.6</ele>
        <time>2015-06-08T19:26:46.723Z</time>
      </trkpt>
      <trkpt lat="48.79395" lon="2.47248">
        <ele>89.9</ele>
        <time>2015-06-08T19:26:47.738Z</time>
      </trkpt>
      <trkpt lat="48.79388" lon="2.47249">
        <ele>90.1</ele>
        <time>2015-06-08T19:26:48.754Z</time>
      </trkpt>
      <trkpt lat="48.7938" lon="2.4725">
        <ele>90.3</ele>
        <time>2015-06-08T19:26:49.765Z</time>
      </trkpt>
      <trkpt lat="48.79373" lon="2.47251">
        <ele>90.4</ele>
        <time>2015-06-08T19:26:50.784Z</time>
      </trkpt>
      <trkpt lat="48.79366" lon="2.47253">
        <ele>90.6</ele>
        <time>2015-06-08T19:26:51.736Z</time>
      </trkpt>
      <trkpt lat="48.7936" lon="2.47255">
        <ele>90</ele>
        <time>2015-06-08T19:26:52.698Z</time>
      </trkpt>
      <trkpt lat="48.79354" lon="2.47256">
        <ele>89.8</ele>
        <time>2015-06-08T19:26:53.725Z</time>
      </trkpt>
      <trkpt lat="48.79348" lon="2.47255">
        <ele>89.4</ele>
        <time>2015-06-08T19:26:54.751Z</time>
      </trkpt>
      <trkpt lat="48.79341" lon="2.47256">
        <ele>89.1</ele>
        <time>2015-06-08T19:26:55.762Z</time>
      </trkpt>
      <trkpt lat="48.79335" lon="2.47255">
        <ele>88.7</ele>
        <time>2015-06-08T19:26:56.779Z</time>
      </trkpt>
      <trkpt lat="48.79329" lon="2.47255">
        <ele>88.6</ele>
        <time>2015-06-08T19:26:57.788Z</time>
      </trkpt>
      <trkpt lat="48.79324" lon="2.47254">
        <ele>88.5</ele>
        <time>2015-06-08T19:26:58.796Z</time>
      </trkpt>
      <trkpt lat="48.79318" lon="2.47253">
        <ele>88.9</ele>
        <time>2015-06-08T19:26:59.804Z</time>
      </trkpt>
      <trkpt lat="48.79313" lon="2.47253">
        <ele>89.1</ele>
        <time>2015-06-08T19:27:00.709Z</time>
      </trkpt>
      <trkpt lat="48.79307" lon="2.47253">
        <ele>89.3</ele>
        <time>2015-06-08T19:27:01.737Z</time>
      </trkpt>
      <trkpt lat="48.79301" lon="2.47253">
        <ele>89.1</ele>
        <time>2015-06-08T19:27:02.789Z</time>
      </trkpt>
      <trkpt lat="48.79296" lon="2.47253">
        <ele>89.1</ele>
        <time>2015-06-08T19:27:03.792Z</time>
      </trkpt>
      <trkpt lat="48.79291" lon="2.47253">
        <ele>89.1</ele>
        <time>2015-06-08T19:27:04.731Z</time>
      </trkpt>
      <trkpt lat="48.79285" lon="2.47253">
        <ele>89.2</ele>
        <time>2015-06-08T19:27:05.734Z</time>
      </trkpt>
      <trkpt lat="48.79279" lon="2.47253">
        <ele>88.9</ele>
        <time>2015-06-08T19:27:06.724Z</time>
      </trkpt>
      <trkpt lat="48.79273" lon="2.47252">
        <ele>88.9</ele>
        <time>2015-06-08T19:27:07.739Z</time>
      </trkpt>
      <trkpt lat="48.79267" lon="2.47251">
        <ele>88.8</ele>
        <time>2015-06-08T19:27:08.780Z</time>
      </trkpt>
      <trkpt lat="48.79261" lon="2.4725">
        <ele>88.9</ele>
        <time>2015-06-08T19:27:09.796Z</time>
      </trkpt>
      <trkpt lat="48.79255" lon="2.47248">
        <ele>88.9</ele>
        <time>2015-06-08T19:27:10.815Z</time>
      </trkpt>
      <trkpt lat="48.7925" lon="2.47247">
        <ele>88.5</ele>
        <time>2015-06-08T19:27:11.732Z</time>
      </trkpt>
      <trkpt lat="48.79245" lon="2.47247">
        <ele>88.2</ele>
        <time>2015-06-08T19:27:12.725Z</time>
      </trkpt>
      <trkpt lat="48.79239" lon="2.47247">
        <ele>88.1</ele>
        <time>2015-06-08T19:27:13.724Z</time>
      </trkpt>
      <trkpt lat="48.79233" lon="2.47247">
        <ele>88.4</ele>
        <time>2015-06-08T19:27:14.775Z</time>
      </trkpt>
      <trkpt lat="48.79227" lon="2.47246">
        <ele>88.5</ele>
        <time>2015-06-08T19:27:15.768Z</time>
      </trkpt>
      <trkpt lat="48.79222" lon="2.47245">
        <ele>88.3</ele>
        <time>2015-06-08T19:27:16.781Z</time>
      </trkpt>
      <trkpt lat="48.79216" lon="2.47245">
        <ele>88</ele>
        <time>2015-06-08T19:27:17.794Z</time>
      </trkpt>
      <trkpt lat="48.7921" lon="2.47246">
        <ele>88</ele>
        <time>2015-06-08T19:27:18.809Z</time>
      </trkpt>
      <trkpt lat="48.79203" lon="2.47247">
        <ele>88</ele>
        <time>2015-06-08T19:27:19.723Z</time>
      </trkpt>
      <trkpt lat="48.79197" lon="2.47248">
        <ele>88.1</ele>
        <time>2015-06-08T19:27:20.776Z</time>
      </trkpt>
      <trkpt lat="48.7919" lon="2.47249">
        <ele>88.4</ele>
        <time>2015-06-08T19:27:21.788Z</time>
      </trkpt>
      <trkpt lat="48.79184" lon="2.47249">
        <ele>88.4</ele>
        <time>2015-06-08T19:27:22.728Z</time>
      </trkpt>
      <trkpt lat="48.79178" lon="2.47251">
        <ele>88.7</ele>
        <time>2015-06-08T19:27:23.727Z</time>
      </trkpt>
      <trkpt lat="48.79171" lon="2.47252">
        <ele>88.7</ele>
        <time>2015-06-08T19:27:24.745Z</time>
      </trkpt>
      <trkpt lat="48.79165" lon="2.47253">
        <ele>88.7</ele>
        <time>2015-06-08T19:27:25.756Z</time>
      </trkpt>
      <trkpt lat="48.79159" lon="2.47253">
        <ele>88.7</ele>
        <time>2015-06-08T19:27:26.775Z</time>
      </trkpt>
      <trkpt lat="48.79153" lon="2.47253">
        <ele>88.7</ele>
        <time>2015-06-08T19:27:27.770Z</time>
      </trkpt>
      <trkpt lat="48.79147" lon="2.47254">
        <ele>88.7</ele>
        <time>2015-06-08T19:27:28.779Z</time>
      </trkpt>
      <trkpt lat="48.79141" lon="2.47255">
        <ele>88.7</ele>
        <time>2015-06-08T19:27:29.786Z</time>
      </trkpt>
      <trkpt lat="48.79134" lon="2.47255">
        <ele>88.8</ele>
        <time>2015-06-08T19:27:30.741Z</time>
      </trkpt>
      <trkpt lat="48.79128" lon="2.47256">
        <ele>88.8</ele>
        <time>2015-06-08T19:27:31.725Z</time>
      </trkpt>
      <trkpt lat="48.79122" lon="2.47257">
        <ele>88.9</ele>
        <time>2015-06-08T19:27:32.779Z</time>
      </trkpt>
      <trkpt lat="48.79116" lon="2.4726">
        <ele>88.6</ele>
        <time>2015-06-08T19:27:33.779Z</time>
      </trkpt>
      <trkpt lat="48.7911" lon="2.47263">
        <ele>88.6</ele>
        <time>2015-06-08T19:27:34.796Z</time>
      </trkpt>
      <trkpt lat="48.79104" lon="2.47265">
        <ele>88.5</ele>
        <time>2015-06-08T19:27:35.805Z</time>
      </trkpt>
      <trkpt lat="48.79098" lon="2.47267">
        <ele>88.7</ele>
        <time>2015-06-08T19:27:36.723Z</time>
      </trkpt>
      <trkpt lat="48.79092" lon="2.4727">
        <ele>89</ele>
        <time>2015-06-08T19:27:37.726Z</time>
      </trkpt>
      <trkpt lat="48.79086" lon="2.47272">
        <ele>89.1</ele>
        <time>2015-06-08T19:27:38.777Z</time>
      </trkpt>
      <trkpt lat="48.79081" lon="2.47276">
        <ele>89.1</ele>
        <time>2015-06-08T19:27:39.778Z</time>
      </trkpt>
      <trkpt lat="48.79076" lon="2.47281">
        <ele>88.8</ele>
        <time>2015-06-08T19:27:40.814Z</time>
      </trkpt>
      <trkpt lat="48.7907" lon="2.47286">
        <ele>88.5</ele>
        <time>2015-06-08T19:27:41.752Z</time>
      </trkpt>
      <trkpt lat="48.79064" lon="2.47291">
        <ele>88.7</ele>
        <time>2015-06-08T19:27:42.865Z</time>
      </trkpt>
      <trkpt lat="48.79059" lon="2.47296">
        <ele>88.7</ele>
        <time>2015-06-08T19:27:43.800Z</time>
      </trkpt>
      <trkpt lat="48.79054" lon="2.473">
        <ele>88.8</ele>
        <time>2015-06-08T19:27:44.814Z</time>
      </trkpt>
      <trkpt lat="48.7905" lon="2.47304">
        <ele>88.7</ele>
        <time>2015-06-08T19:27:45.712Z</time>
      </trkpt>
      <trkpt lat="48.79045" lon="2.47309">
        <ele>88.2</ele>
        <time>2015-06-08T19:27:46.725Z</time>
      </trkpt>
      <trkpt lat="48.7904" lon="2.47313">
        <ele>88</ele>
        <time>2015-06-08T19:27:47.723Z</time>
      </trkpt>
      <trkpt lat="48.79034" lon="2.47317">
        <ele>87.5</ele>
        <time>2015-06-08T19:27:48.748Z</time>
      </trkpt>
      <trkpt lat="48.79028" lon="2.4732">
        <ele>87.5</ele>
        <time>2015-06-08T19:27:49.763Z</time>
      </trkpt>
      <trkpt lat="48.79023" lon="2.47324">
        <ele>87.5</ele>
        <time>2015-06-08T19:27:50.789Z</time>
      </trkpt>
      <trkpt lat="48.79018" lon="2.47329">
        <ele>87.1</ele>
        <time>2015-06-08T19:27:51.793Z</time>
      </trkpt>
      <trkpt lat="48.79013" lon="2.47334">
        <ele>87.1</ele>
        <time>2015-06-08T19:27:52.803Z</time>
      </trkpt>
      <trkpt lat="48.79008" lon="2.47339">
        <ele>86.7</ele>
        <time>2015-06-08T19:27:53.734Z</time>
      </trkpt>
      <trkpt lat="48.79003" lon="2.47344">
        <ele>86.2</ele>
        <time>2015-06-08T19:27:54.730Z</time>
      </trkpt>
      <trkpt lat="48.78999" lon="2.47349">
        <ele>86.4</ele>
        <time>2015-06-08T19:27:55.737Z</time>
      </trkpt>
      <trkpt lat="48.78994" lon="2.47354">
        <ele>86.7</ele>
        <time>2015-06-08T19:27:56.796Z</time>
      </trkpt>
      <trkpt lat="48.78989" lon="2.47359">
        <ele>87.2</ele>
        <time>2015-06-08T19:27:57.788Z</time>
      </trkpt>
      <trkpt lat="48.78984" lon="2.47364">
        <ele>87.1</ele>
        <time>2015-06-08T19:27:58.799Z</time>
      </trkpt>
      <trkpt lat="48.78978" lon="2.47369">
        <ele>87.3</ele>
        <time>2015-06-08T19:27:59.809Z</time>
      </trkpt>
      <trkpt lat="48.78973" lon="2.47374">
        <ele>87.1</ele>
        <time>2015-06-08T19:28:00.703Z</time>
      </trkpt>
      <trkpt lat="48.78968" lon="2.4738">
        <ele>87.1</ele>
        <time>2015-06-08T19:28:01.732Z</time>
      </trkpt>
      <trkpt lat="48.78962" lon="2.47385">
        <ele>86.8</ele>
        <time>2015-06-08T19:28:02.795Z</time>
      </trkpt>
      <trkpt lat="48.78957" lon="2.4739">
        <ele>86.9</ele>
        <time>2015-06-08T19:28:03.793Z</time>
      </trkpt>
      <trkpt lat="48.78952" lon="2.47394">
        <ele>87.1</ele>
        <time>2015-06-08T19:28:04.729Z</time>
      </trkpt>
      <trkpt lat="48.78948" lon="2.47399">
        <ele>87.1</ele>
        <time>2015-06-08T19:28:05.723Z</time>
      </trkpt>
      <trkpt lat="48.78943" lon="2.47403">
        <ele>87.1</ele>
        <time>2015-06-08T19:28:06.730Z</time>
      </trkpt>
      <trkpt lat="48.78938" lon="2.47408">
        <ele>86.8</ele>
        <time>2015-06-08T19:28:07.735Z</time>
      </trkpt>
      <trkpt lat="48.78933" lon="2.47412">
        <ele>86.8</ele>
        <time>2015-06-08T19:28:08.773Z</time>
      </trkpt>
      <trkpt lat="48.78929" lon="2.47418">
        <ele>87.3</ele>
        <time>2015-06-08T19:28:09.782Z</time>
      </trkpt>
      <trkpt lat="48.78924" lon="2.47423">
        <ele>87.1</ele>
        <time>2015-06-08T19:28:10.791Z</time>
      </trkpt>
      <trkpt lat="48.78919" lon="2.47428">
        <ele>86.7</ele>
        <time>2015-06-08T19:28:11.814Z</time>
      </trkpt>
      <trkpt lat="48.78914" lon="2.47432">
        <ele>86.6</ele>
        <time>2015-06-08T19:28:12.729Z</time>
      </trkpt>
      <trkpt lat="48.78909" lon="2.47436">
        <ele>86.6</ele>
        <time>2015-06-08T19:28:13.729Z</time>
      </trkpt>
      <trkpt lat="48.78903" lon="2.47439">
        <ele>86.7</ele>
        <time>2015-06-08T19:28:14.818Z</time>
      </trkpt>
      <trkpt lat="48.78897" lon="2.47443">
        <ele>86.6</ele>
        <time>2015-06-08T19:28:15.761Z</time>
      </trkpt>
      <trkpt lat="48.78891" lon="2.4745">
        <ele>87</ele>
        <time>2015-06-08T19:28:16.744Z</time>
      </trkpt>
      <trkpt lat="48.78886" lon="2.47456">
        <ele>87</ele>
        <time>2015-06-08T19:28:17.751Z</time>
      </trkpt>
      <trkpt lat="48.7888" lon="2.47462">
        <ele>86.8</ele>
        <time>2015-06-08T19:28:18.755Z</time>
      </trkpt>
      <trkpt lat="48.78874" lon="2.47468">
        <ele>86.8</ele>
        <time>2015-06-08T19:28:19.764Z</time>
      </trkpt>
      <trkpt lat="48.78868" lon="2.47476">
        <ele>86.7</ele>
        <time>2015-06-08T19:28:20.786Z</time>
      </trkpt>
      <trkpt lat="48.78862" lon="2.47483">
        <ele>86.4</ele>
        <time>2015-06-08T19:28:21.794Z</time>
      </trkpt>
      <trkpt lat="48.78857" lon="2.47489">
        <ele>86.6</ele>
        <time>2015-06-08T19:28:22.817Z</time>
      </trkpt>
      <trkpt lat="48.78852" lon="2.47495">
        <ele>86.8</ele>
        <time>2015-06-08T19:28:23.736Z</time>
      </trkpt>
      <trkpt lat="48.78846" lon="2.47501">
        <ele>86.7</ele>
        <time>2015-06-08T19:28:24.758Z</time>
      </trkpt>
      <trkpt lat="48.78841" lon="2.47507">
        <ele>86.3</ele>
        <time>2015-06-08T19:28:25.770Z</time>
      </trkpt>
      <trkpt lat="48.78836" lon="2.47514">
        <ele>85.3</ele>
        <time>2015-06-08T19:28:26.797Z</time>
      </trkpt>
      <trkpt lat="48.78831" lon="2.47519">
        <ele>85.3</ele>
        <time>2015-06-08T19:28:27.806Z</time>
      </trkpt>
      <trkpt lat="48.78826" lon="2.47524">
        <ele>85.7</ele>
        <time>2015-06-08T19:28:28.812Z</time>
      </trkpt>
      <trkpt lat="48.78821" lon="2.4753">
        <ele>85.8</ele>
        <time>2015-06-08T19:28:29.733Z</time>
      </trkpt>
      <trkpt lat="48.78817" lon="2.47536">
        <ele>85.8</ele>
        <time>2015-06-08T19:28:30.751Z</time>
      </trkpt>
      <trkpt lat="48.78813" lon="2.4754">
        <ele>86.1</ele>
        <time>2015-06-08T19:28:31.768Z</time>
      </trkpt>
      <trkpt lat="48.78808" lon="2.47546">
        <ele>86.5</ele>
        <time>2015-06-08T19:28:32.825Z</time>
      </trkpt>
      <trkpt lat="48.78804" lon="2.47551">
        <ele>86.6</ele>
        <time>2015-06-08T19:28:33.726Z</time>
      </trkpt>
      <trkpt lat="48.78798" lon="2.47561">
        <ele>86.9</ele>
        <time>2015-06-08T19:28:35.744Z</time>
      </trkpt>
      <trkpt lat="48.78796" lon="2.47565">
        <ele>87</ele>
        <time>2015-06-08T19:28:36.823Z</time>
      </trkpt>
      <trkpt lat="48.7879" lon="2.47572">
        <ele>86.5</ele>
        <time>2015-06-08T19:28:38.797Z</time>
      </trkpt>
      <trkpt lat="48.78788" lon="2.47577">
        <ele>86.2</ele>
        <time>2015-06-08T19:28:39.762Z</time>
      </trkpt>
      <trkpt lat="48.78784" lon="2.47581">
        <ele>86.5</ele>
        <time>2015-06-08T19:28:40.775Z</time>
      </trkpt>
      <trkpt lat="48.7878" lon="2.47586">
        <ele>86.8</ele>
        <time>2015-06-08T19:28:41.791Z</time>
      </trkpt>
      <trkpt lat="48.78776" lon="2.47592">
        <ele>87.1</ele>
        <time>2015-06-08T19:28:42.727Z</time>
      </trkpt>
      <trkpt lat="48.78772" lon="2.47598">
        <ele>87.3</ele>
        <time>2015-06-08T19:28:43.726Z</time>
      </trkpt>
      <trkpt lat="48.78769" lon="2.47605">
        <ele>87.5</ele>
        <time>2015-06-08T19:28:44.779Z</time>
      </trkpt>
      <trkpt lat="48.78766" lon="2.47612">
        <ele>87.8</ele>
        <time>2015-06-08T19:28:45.783Z</time>
      </trkpt>
      <trkpt lat="48.78762" lon="2.47619">
        <ele>87.8</ele>
        <time>2015-06-08T19:28:46.803Z</time>
      </trkpt>
      <trkpt lat="48.78759" lon="2.47626">
        <ele>88</ele>
        <time>2015-06-08T19:28:47.721Z</time>
      </trkpt>
      <trkpt lat="48.78756" lon="2.47633">
        <ele>88.1</ele>
        <time>2015-06-08T19:28:48.747Z</time>
      </trkpt>
      <trkpt lat="48.78754" lon="2.47639">
        <ele>89.1</ele>
        <time>2015-06-08T19:28:49.851Z</time>
      </trkpt>
      <trkpt lat="48.78751" lon="2.47646">
        <ele>89.5</ele>
        <time>2015-06-08T19:28:50.778Z</time>
      </trkpt>
      <trkpt lat="48.78748" lon="2.47654">
        <ele>89.2</ele>
        <time>2015-06-08T19:28:51.767Z</time>
      </trkpt>
      <trkpt lat="48.78745" lon="2.47662">
        <ele>89.3</ele>
        <time>2015-06-08T19:28:52.779Z</time>
      </trkpt>
      <trkpt lat="48.78741" lon="2.4767">
        <ele>89.2</ele>
        <time>2015-06-08T19:28:53.793Z</time>
      </trkpt>
      <trkpt lat="48.78738" lon="2.47678">
        <ele>88.8</ele>
        <time>2015-06-08T19:28:54.803Z</time>
      </trkpt>
      <trkpt lat="48.78734" lon="2.47686">
        <ele>88.5</ele>
        <time>2015-06-08T19:28:55.814Z</time>
      </trkpt>
      <trkpt lat="48.78731" lon="2.47694">
        <ele>88.1</ele>
        <time>2015-06-08T19:28:56.854Z</time>
      </trkpt>
      <trkpt lat="48.78728" lon="2.47702">
        <ele>87.8</ele>
        <time>2015-06-08T19:28:57.733Z</time>
      </trkpt>
      <trkpt lat="48.78724" lon="2.47709">
        <ele>87.6</ele>
        <time>2015-06-08T19:28:58.758Z</time>
      </trkpt>
      <trkpt lat="48.78722" lon="2.47716">
        <ele>87.4</ele>
        <time>2015-06-08T19:28:59.779Z</time>
      </trkpt>
      <trkpt lat="48.78719" lon="2.47725">
        <ele>87</ele>
        <time>2015-06-08T19:29:00.709Z</time>
      </trkpt>
      <trkpt lat="48.78716" lon="2.47733">
        <ele>86.8</ele>
        <time>2015-06-08T19:29:01.737Z</time>
      </trkpt>
      <trkpt lat="48.78712" lon="2.47741">
        <ele>86.7</ele>
        <time>2015-06-08T19:29:02.792Z</time>
      </trkpt>
      <trkpt lat="48.7871" lon="2.47749">
        <ele>86.6</ele>
        <time>2015-06-08T19:29:03.689Z</time>
      </trkpt>
      <trkpt lat="48.78707" lon="2.47758">
        <ele>86.7</ele>
        <time>2015-06-08T19:29:04.713Z</time>
      </trkpt>
      <trkpt lat="48.78704" lon="2.47768">
        <ele>86.8</ele>
        <time>2015-06-08T19:29:05.721Z</time>
      </trkpt>
      <trkpt lat="48.78702" lon="2.47776">
        <ele>86.5</ele>
        <time>2015-06-08T19:29:06.733Z</time>
      </trkpt>
      <trkpt lat="48.78698" lon="2.47785">
        <ele>86.5</ele>
        <time>2015-06-08T19:29:07.739Z</time>
      </trkpt>
      <trkpt lat="48.78695" lon="2.47792">
        <ele>86.6</ele>
        <time>2015-06-08T19:29:08.746Z</time>
      </trkpt>
      <trkpt lat="48.78692" lon="2.47801">
        <ele>86.6</ele>
        <time>2015-06-08T19:29:09.753Z</time>
      </trkpt>
      <trkpt lat="48.78689" lon="2.47809">
        <ele>86.4</ele>
        <time>2015-06-08T19:29:10.763Z</time>
      </trkpt>
      <trkpt lat="48.78685" lon="2.47817">
        <ele>86.2</ele>
        <time>2015-06-08T19:29:11.778Z</time>
      </trkpt>
      <trkpt lat="48.78682" lon="2.47825">
        <ele>85.8</ele>
        <time>2015-06-08T19:29:12.779Z</time>
      </trkpt>
      <trkpt lat="48.78679" lon="2.47834">
        <ele>86</ele>
        <time>2015-06-08T19:29:13.793Z</time>
      </trkpt>
      <trkpt lat="48.78676" lon="2.47843">
        <ele>86.2</ele>
        <time>2015-06-08T19:29:14.815Z</time>
      </trkpt>
      <trkpt lat="48.78673" lon="2.47851">
        <ele>85.9</ele>
        <time>2015-06-08T19:29:15.719Z</time>
      </trkpt>
      <trkpt lat="48.78669" lon="2.4786">
        <ele>86</ele>
        <time>2015-06-08T19:29:16.714Z</time>
      </trkpt>
      <trkpt lat="48.78666" lon="2.47869">
        <ele>85.8</ele>
        <time>2015-06-08T19:29:17.782Z</time>
      </trkpt>
      <trkpt lat="48.78662" lon="2.47878">
        <ele>85.5</ele>
        <time>2015-06-08T19:29:18.728Z</time>
      </trkpt>
      <trkpt lat="48.78659" lon="2.47887">
        <ele>85.8</ele>
        <time>2015-06-08T19:29:19.734Z</time>
      </trkpt>
      <trkpt lat="48.78656" lon="2.47895">
        <ele>86</ele>
        <time>2015-06-08T19:29:20.797Z</time>
      </trkpt>
      <trkpt lat="48.78653" lon="2.47903">
        <ele>86.4</ele>
        <time>2015-06-08T19:29:21.812Z</time>
      </trkpt>
      <trkpt lat="48.78649" lon="2.47912">
        <ele>86.1</ele>
        <time>2015-06-08T19:29:22.739Z</time>
      </trkpt>
      <trkpt lat="48.78647" lon="2.47921">
        <ele>86.6</ele>
        <time>2015-06-08T19:29:23.760Z</time>
      </trkpt>
      <trkpt lat="48.78645" lon="2.47928">
        <ele>86.8</ele>
        <time>2015-06-08T19:29:24.768Z</time>
      </trkpt>
      <trkpt lat="48.78642" lon="2.47936">
        <ele>87.1</ele>
        <time>2015-06-08T19:29:25.775Z</time>
      </trkpt>
      <trkpt lat="48.78639" lon="2.47944">
        <ele>87.7</ele>
        <time>2015-06-08T19:29:26.819Z</time>
      </trkpt>
      <trkpt lat="48.78636" lon="2.47952">
        <ele>87.8</ele>
        <time>2015-06-08T19:29:27.763Z</time>
      </trkpt>
      <trkpt lat="48.78632" lon="2.47962">
        <ele>88.1</ele>
        <time>2015-06-08T19:29:28.753Z</time>
      </trkpt>
      <trkpt lat="48.7863" lon="2.47972">
        <ele>88.4</ele>
        <time>2015-06-08T19:29:29.741Z</time>
      </trkpt>
      <trkpt lat="48.78627" lon="2.47981">
        <ele>88.5</ele>
        <time>2015-06-08T19:29:30.742Z</time>
      </trkpt>
      <trkpt lat="48.78625" lon="2.4799">
        <ele>88.6</ele>
        <time>2015-06-08T19:29:31.747Z</time>
      </trkpt>
      <trkpt lat="48.78622" lon="2.47999">
        <ele>88.3</ele>
        <time>2015-06-08T19:29:32.793Z</time>
      </trkpt>
      <trkpt lat="48.7862" lon="2.48009">
        <ele>88.3</ele>
        <time>2015-06-08T19:29:33.794Z</time>
      </trkpt>
      <trkpt lat="48.78617" lon="2.48018">
        <ele>88.4</ele>
        <time>2015-06-08T19:29:34.707Z</time>
      </trkpt>
      <trkpt lat="48.78615" lon="2.48026">
        <ele>88.3</ele>
        <time>2015-06-08T19:29:35.710Z</time>
      </trkpt>
      <trkpt lat="48.78613" lon="2.48034">
        <ele>88.5</ele>
        <time>2015-06-08T19:29:36.848Z</time>
      </trkpt>
      <trkpt lat="48.7861" lon="2.48044">
        <ele>88.5</ele>
        <time>2015-06-08T19:29:37.735Z</time>
      </trkpt>
      <trkpt lat="48.78608" lon="2.48053">
        <ele>88.6</ele>
        <time>2015-06-08T19:29:38.758Z</time>
      </trkpt>
      <trkpt lat="48.78606" lon="2.48063">
        <ele>89</ele>
        <time>2015-06-08T19:29:39.755Z</time>
      </trkpt>
      <trkpt lat="48.78603" lon="2.48071">
        <ele>88.9</ele>
        <time>2015-06-08T19:29:40.765Z</time>
      </trkpt>
      <trkpt lat="48.78599" lon="2.48081">
        <ele>89.1</ele>
        <time>2015-06-08T19:29:41.779Z</time>
      </trkpt>
      <trkpt lat="48.78597" lon="2.48089">
        <ele>89.1</ele>
        <time>2015-06-08T19:29:42.801Z</time>
      </trkpt>
      <trkpt lat="48.78594" lon="2.48098">
        <ele>88.8</ele>
        <time>2015-06-08T19:29:43.775Z</time>
      </trkpt>
      <trkpt lat="48.78592" lon="2.48108">
        <ele>88.3</ele>
        <time>2015-06-08T19:29:44.777Z</time>
      </trkpt>
      <trkpt lat="48.7859" lon="2.48116">
        <ele>88.3</ele>
        <time>2015-06-08T19:29:45.768Z</time>
      </trkpt>
      <trkpt lat="48.78589" lon="2.48124">
        <ele>88.4</ele>
        <time>2015-06-08T19:29:46.799Z</time>
      </trkpt>
      <trkpt lat="48.78589" lon="2.48132">
        <ele>89.4</ele>
        <time>2015-06-08T19:29:47.745Z</time>
      </trkpt>
      <trkpt lat="48.78586" lon="2.4814">
        <ele>89.6</ele>
        <time>2015-06-08T19:29:48.735Z</time>
      </trkpt>
      <trkpt lat="48.78585" lon="2.48148">
        <ele>89.6</ele>
        <time>2015-06-08T19:29:49.739Z</time>
      </trkpt>
      <trkpt lat="48.78583" lon="2.48157">
        <ele>89.9</ele>
        <time>2015-06-08T19:29:50.783Z</time>
      </trkpt>
      <trkpt lat="48.78582" lon="2.48165">
        <ele>89.9</ele>
        <time>2015-06-08T19:29:51.793Z</time>
      </trkpt>
      <trkpt lat="48.7858" lon="2.48173">
        <ele>90.1</ele>
        <time>2015-06-08T19:29:52.807Z</time>
      </trkpt>
      <trkpt lat="48.78579" lon="2.48183">
        <ele>90.1</ele>
        <time>2015-06-08T19:29:53.821Z</time>
      </trkpt>
      <trkpt lat="48.78578" lon="2.48192">
        <ele>89.8</ele>
        <time>2015-06-08T19:29:54.734Z</time>
      </trkpt>
      <trkpt lat="48.78577" lon="2.48201">
        <ele>89.4</ele>
        <time>2015-06-08T19:29:55.738Z</time>
      </trkpt>
      <trkpt lat="48.78575" lon="2.4821">
        <ele>88.9</ele>
        <time>2015-06-08T19:29:56.804Z</time>
      </trkpt>
      <trkpt lat="48.78573" lon="2.4822">
        <ele>89.1</ele>
        <time>2015-06-08T19:29:57.810Z</time>
      </trkpt>
      <trkpt lat="48.78571" lon="2.4823">
        <ele>89</ele>
        <time>2015-06-08T19:29:58.734Z</time>
      </trkpt>
      <trkpt lat="48.78569" lon="2.4824">
        <ele>89.1</ele>
        <time>2015-06-08T19:29:59.738Z</time>
      </trkpt>
      <trkpt lat="48.78567" lon="2.4825">
        <ele>88.9</ele>
        <time>2015-06-08T19:30:00.735Z</time>
      </trkpt>
      <trkpt lat="48.78565" lon="2.48259">
        <ele>88.9</ele>
        <time>2015-06-08T19:30:01.742Z</time>
      </trkpt>
      <trkpt lat="48.78563" lon="2.48269">
        <ele>88.8</ele>
        <time>2015-06-08T19:30:02.779Z</time>
      </trkpt>
      <trkpt lat="48.78561" lon="2.48277">
        <ele>88.9</ele>
        <time>2015-06-08T19:30:03.785Z</time>
      </trkpt>
      <trkpt lat="48.7856" lon="2.48286">
        <ele>89.1</ele>
        <time>2015-06-08T19:30:04.789Z</time>
      </trkpt>
      <trkpt lat="48.7856" lon="2.48293">
        <ele>89.6</ele>
        <time>2015-06-08T19:30:05.799Z</time>
      </trkpt>
      <trkpt lat="48.78559" lon="2.48302">
        <ele>89.4</ele>
        <time>2015-06-08T19:30:06.725Z</time>
      </trkpt>
      <trkpt lat="48.78557" lon="2.48312">
        <ele>89.4</ele>
        <time>2015-06-08T19:30:07.724Z</time>
      </trkpt>
      <trkpt lat="48.78555" lon="2.48321">
        <ele>89.5</ele>
        <time>2015-06-08T19:30:08.771Z</time>
      </trkpt>
      <trkpt lat="48.78552" lon="2.4833">
        <ele>89.8</ele>
        <time>2015-06-08T19:30:09.781Z</time>
      </trkpt>
      <trkpt lat="48.7855" lon="2.48339">
        <ele>90.1</ele>
        <time>2015-06-08T19:30:10.795Z</time>
      </trkpt>
      <trkpt lat="48.78547" lon="2.48348">
        <ele>90.2</ele>
        <time>2015-06-08T19:30:11.809Z</time>
      </trkpt>
      <trkpt lat="48.78544" lon="2.48357">
        <ele>90.2</ele>
        <time>2015-06-08T19:30:12.730Z</time>
      </trkpt>
      <trkpt lat="48.78542" lon="2.48366">
        <ele>90.2</ele>
        <time>2015-06-08T19:30:13.726Z</time>
      </trkpt>
      <trkpt lat="48.78539" lon="2.48376">
        <ele>89</ele>
        <time>2015-06-08T19:30:14.777Z</time>
      </trkpt>
      <trkpt lat="48.78538" lon="2.48385">
        <ele>90.4</ele>
        <time>2015-06-08T19:30:15.777Z</time>
      </trkpt>
      <trkpt lat="48.78536" lon="2.48395">
        <ele>91.1</ele>
        <time>2015-06-08T19:30:16.784Z</time>
      </trkpt>
      <trkpt lat="48.78533" lon="2.48403">
        <ele>91.5</ele>
        <time>2015-06-08T19:30:17.722Z</time>
      </trkpt>
      <trkpt lat="48.78531" lon="2.48412">
        <ele>91.8</ele>
        <time>2015-06-08T19:30:18.719Z</time>
      </trkpt>
      <trkpt lat="48.78528" lon="2.48421">
        <ele>92.1</ele>
        <time>2015-06-08T19:30:19.714Z</time>
      </trkpt>
      <trkpt lat="48.78525" lon="2.48431">
        <ele>92.2</ele>
        <time>2015-06-08T19:30:20.771Z</time>
      </trkpt>
      <trkpt lat="48.78523" lon="2.48441">
        <ele>92.4</ele>
        <time>2015-06-08T19:30:21.766Z</time>
      </trkpt>
      <trkpt lat="48.78521" lon="2.48451">
        <ele>92.6</ele>
        <time>2015-06-08T19:30:22.772Z</time>
      </trkpt>
      <trkpt lat="48.78518" lon="2.48459">
        <ele>92.5</ele>
        <time>2015-06-08T19:30:23.778Z</time>
      </trkpt>
      <trkpt lat="48.78514" lon="2.48467">
        <ele>92.3</ele>
        <time>2015-06-08T19:30:24.785Z</time>
      </trkpt>
      <trkpt lat="48.7851" lon="2.48476">
        <ele>92.2</ele>
        <time>2015-06-08T19:30:25.789Z</time>
      </trkpt>
      <trkpt lat="48.78506" lon="2.48486">
        <ele>92.3</ele>
        <time>2015-06-08T19:30:26.819Z</time>
      </trkpt>
      <trkpt lat="48.78504" lon="2.48495">
        <ele>92.2</ele>
        <time>2015-06-08T19:30:27.724Z</time>
      </trkpt>
      <trkpt lat="48.78502" lon="2.48504">
        <ele>92.3</ele>
        <time>2015-06-08T19:30:28.726Z</time>
      </trkpt>
      <trkpt lat="48.78499" lon="2.48513">
        <ele>92.1</ele>
        <time>2015-06-08T19:30:29.735Z</time>
      </trkpt>
      <trkpt lat="48.78497" lon="2.48522">
        <ele>92.1</ele>
        <time>2015-06-08T19:30:30.739Z</time>
      </trkpt>
      <trkpt lat="48.78495" lon="2.48531">
        <ele>92.4</ele>
        <time>2015-06-08T19:30:31.746Z</time>
      </trkpt>
      <trkpt lat="48.78492" lon="2.48539">
        <ele>92</ele>
        <time>2015-06-08T19:30:32.788Z</time>
      </trkpt>
      <trkpt lat="48.78491" lon="2.48549">
        <ele>91.8</ele>
        <time>2015-06-08T19:30:33.793Z</time>
      </trkpt>
      <trkpt lat="48.78488" lon="2.48559">
        <ele>91.4</ele>
        <time>2015-06-08T19:30:34.693Z</time>
      </trkpt>
      <trkpt lat="48.78486" lon="2.48567">
        <ele>91.5</ele>
        <time>2015-06-08T19:30:35.742Z</time>
      </trkpt>
      <trkpt lat="48.78483" lon="2.48577">
        <ele>92.8</ele>
        <time>2015-06-08T19:30:36.760Z</time>
      </trkpt>
      <trkpt lat="48.78481" lon="2.48586">
        <ele>93.1</ele>
        <time>2015-06-08T19:30:37.777Z</time>
      </trkpt>
      <trkpt lat="48.78479" lon="2.48594">
        <ele>93.5</ele>
        <time>2015-06-08T19:30:38.776Z</time>
      </trkpt>
      <trkpt lat="48.78478" lon="2.48603">
        <ele>94.8</ele>
        <time>2015-06-08T19:30:39.786Z</time>
      </trkpt>
      <trkpt lat="48.78477" lon="2.48613">
        <ele>96</ele>
        <time>2015-06-08T19:30:40.794Z</time>
      </trkpt>
      <trkpt lat="48.78476" lon="2.4862">
        <ele>95.4</ele>
        <time>2015-06-08T19:30:41.804Z</time>
      </trkpt>
      <trkpt lat="48.78475" lon="2.48629">
        <ele>95.4</ele>
        <time>2015-06-08T19:30:42.814Z</time>
      </trkpt>
      <trkpt lat="48.78474" lon="2.48638">
        <ele>95.1</ele>
        <time>2015-06-08T19:30:43.833Z</time>
      </trkpt>
      <trkpt lat="48.78473" lon="2.48647">
        <ele>94.8</ele>
        <time>2015-06-08T19:30:44.841Z</time>
      </trkpt>
      <trkpt lat="48.78473" lon="2.48657">
        <ele>94</ele>
        <time>2015-06-08T19:30:45.759Z</time>
      </trkpt>
      <trkpt lat="48.78473" lon="2.48665">
        <ele>93.9</ele>
        <time>2015-06-08T19:30:46.743Z</time>
      </trkpt>
      <trkpt lat="48.78473" lon="2.48673">
        <ele>93.8</ele>
        <time>2015-06-08T19:30:47.755Z</time>
      </trkpt>
      <trkpt lat="48.78473" lon="2.48682">
        <ele>93.8</ele>
        <time>2015-06-08T19:30:48.762Z</time>
      </trkpt>
      <trkpt lat="48.78472" lon="2.4869">
        <ele>93.9</ele>
        <time>2015-06-08T19:30:49.770Z</time>
      </trkpt>
      <trkpt lat="48.78471" lon="2.48698">
        <ele>93.7</ele>
        <time>2015-06-08T19:30:50.797Z</time>
      </trkpt>
      <trkpt lat="48.7847" lon="2.48705">
        <ele>93.8</ele>
        <time>2015-06-08T19:30:51.797Z</time>
      </trkpt>
      <trkpt lat="48.78469" lon="2.48712">
        <ele>93.6</ele>
        <time>2015-06-08T19:30:52.821Z</time>
      </trkpt>
      <trkpt lat="48.78468" lon="2.48718">
        <ele>93.2</ele>
        <time>2015-06-08T19:30:53.739Z</time>
      </trkpt>
      <trkpt lat="48.78468" lon="2.48725">
        <ele>92.9</ele>
        <time>2015-06-08T19:30:54.742Z</time>
      </trkpt>
      <trkpt lat="48.78468" lon="2.48733">
        <ele>92.1</ele>
        <time>2015-06-08T19:30:55.744Z</time>
      </trkpt>
      <trkpt lat="48.78467" lon="2.4874">
        <ele>91.7</ele>
        <time>2015-06-08T19:30:56.816Z</time>
      </trkpt>
      <trkpt lat="48.78466" lon="2.48747">
        <ele>91.2</ele>
        <time>2015-06-08T19:30:57.832Z</time>
      </trkpt>
      <trkpt lat="48.78466" lon="2.48755">
        <ele>90.6</ele>
        <time>2015-06-08T19:30:58.744Z</time>
      </trkpt>
      <trkpt lat="48.78465" lon="2.48763">
        <ele>90</ele>
        <time>2015-06-08T19:30:59.743Z</time>
      </trkpt>
      <trkpt lat="48.78465" lon="2.48771">
        <ele>90</ele>
        <time>2015-06-08T19:31:00.769Z</time>
      </trkpt>
      <trkpt lat="48.78465" lon="2.4878">
        <ele>89.8</ele>
        <time>2015-06-08T19:31:01.777Z</time>
      </trkpt>
      <trkpt lat="48.78465" lon="2.48789">
        <ele>89.4</ele>
        <time>2015-06-08T19:31:02.813Z</time>
      </trkpt>
      <trkpt lat="48.78464" lon="2.48798">
        <ele>89.3</ele>
        <time>2015-06-08T19:31:03.707Z</time>
      </trkpt>
      <trkpt lat="48.78464" lon="2.48806">
        <ele>89</ele>
        <time>2015-06-08T19:31:04.735Z</time>
      </trkpt>
      <trkpt lat="48.78464" lon="2.48815">
        <ele>88.8</ele>
        <time>2015-06-08T19:31:05.735Z</time>
      </trkpt>
      <trkpt lat="48.78463" lon="2.48824">
        <ele>88.7</ele>
        <time>2015-06-08T19:31:06.750Z</time>
      </trkpt>
      <trkpt lat="48.78463" lon="2.48833">
        <ele>89</ele>
        <time>2015-06-08T19:31:07.753Z</time>
      </trkpt>
      <trkpt lat="48.78463" lon="2.48842">
        <ele>89.5</ele>
        <time>2015-06-08T19:31:08.773Z</time>
      </trkpt>
      <trkpt lat="48.78463" lon="2.48851">
        <ele>90</ele>
        <time>2015-06-08T19:31:09.782Z</time>
      </trkpt>
      <trkpt lat="48.78463" lon="2.48859">
        <ele>90.1</ele>
        <time>2015-06-08T19:31:10.795Z</time>
      </trkpt>
      <trkpt lat="48.78463" lon="2.48868">
        <ele>90.3</ele>
        <time>2015-06-08T19:31:11.801Z</time>
      </trkpt>
      <trkpt lat="48.78462" lon="2.48876">
        <ele>90.4</ele>
        <time>2015-06-08T19:31:12.819Z</time>
      </trkpt>
      <trkpt lat="48.78463" lon="2.48884">
        <ele>90.3</ele>
        <time>2015-06-08T19:31:13.843Z</time>
      </trkpt>
      <trkpt lat="48.78462" lon="2.48891">
        <ele>90.2</ele>
        <time>2015-06-08T19:31:14.860Z</time>
      </trkpt>
      <trkpt lat="48.78462" lon="2.48898">
        <ele>89.9</ele>
        <time>2015-06-08T19:31:15.753Z</time>
      </trkpt>
      <trkpt lat="48.78461" lon="2.48906">
        <ele>89.7</ele>
        <time>2015-06-08T19:31:16.765Z</time>
      </trkpt>
      <trkpt lat="48.78461" lon="2.48915">
        <ele>89.6</ele>
        <time>2015-06-08T19:31:17.777Z</time>
      </trkpt>
      <trkpt lat="48.7846" lon="2.48923">
        <ele>89.8</ele>
        <time>2015-06-08T19:31:18.787Z</time>
      </trkpt>
      <trkpt lat="48.7846" lon="2.48931">
        <ele>89.7</ele>
        <time>2015-06-08T19:31:19.796Z</time>
      </trkpt>
      <trkpt lat="48.7846" lon="2.48938">
        <ele>89.7</ele>
        <time>2015-06-08T19:31:20.820Z</time>
      </trkpt>
      <trkpt lat="48.78459" lon="2.48945">
        <ele>89.8</ele>
        <time>2015-06-08T19:31:21.762Z</time>
      </trkpt>
      <trkpt lat="48.78459" lon="2.48952">
        <ele>90</ele>
        <time>2015-06-08T19:31:22.755Z</time>
      </trkpt>
      <trkpt lat="48.78461" lon="2.48959">
        <ele>91.2</ele>
        <time>2015-06-08T19:31:23.744Z</time>
      </trkpt>
      <trkpt lat="48.78461" lon="2.48966">
        <ele>91.4</ele>
        <time>2015-06-08T19:31:24.751Z</time>
      </trkpt>
      <trkpt lat="48.78461" lon="2.48974">
        <ele>91.3</ele>
        <time>2015-06-08T19:31:25.769Z</time>
      </trkpt>
      <trkpt lat="48.78461" lon="2.48982">
        <ele>91.4</ele>
        <time>2015-06-08T19:31:26.801Z</time>
      </trkpt>
      <trkpt lat="48.7846" lon="2.4899">
        <ele>91.5</ele>
        <time>2015-06-08T19:31:27.795Z</time>
      </trkpt>
      <trkpt lat="48.78459" lon="2.48998">
        <ele>91.5</ele>
        <time>2015-06-08T19:31:28.809Z</time>
      </trkpt>
      <trkpt lat="48.78459" lon="2.49004">
        <ele>91.4</ele>
        <time>2015-06-08T19:31:29.821Z</time>
      </trkpt>
      <trkpt lat="48.78459" lon="2.49012">
        <ele>91.5</ele>
        <time>2015-06-08T19:31:30.743Z</time>
      </trkpt>
      <trkpt lat="48.78459" lon="2.4902">
        <ele>91.6</ele>
        <time>2015-06-08T19:31:31.742Z</time>
      </trkpt>
      <trkpt lat="48.78459" lon="2.49029">
        <ele>91.3</ele>
        <time>2015-06-08T19:31:32.805Z</time>
      </trkpt>
      <trkpt lat="48.78459" lon="2.49038">
        <ele>91.6</ele>
        <time>2015-06-08T19:31:33.810Z</time>
      </trkpt>
      <trkpt lat="48.78459" lon="2.49046">
        <ele>91.6</ele>
        <time>2015-06-08T19:31:34.819Z</time>
      </trkpt>
      <trkpt lat="48.78459" lon="2.49055">
        <ele>91.7</ele>
        <time>2015-06-08T19:31:35.742Z</time>
      </trkpt>
      <trkpt lat="48.78458" lon="2.49064">
        <ele>91.6</ele>
        <time>2015-06-08T19:31:36.740Z</time>
      </trkpt>
      <trkpt lat="48.78458" lon="2.4907">
        <ele>91.7</ele>
        <time>2015-06-08T19:31:37.742Z</time>
      </trkpt>
      <trkpt lat="48.78458" lon="2.49078">
        <ele>92</ele>
        <time>2015-06-08T19:31:38.799Z</time>
      </trkpt>
      <trkpt lat="48.78459" lon="2.49086">
        <ele>92.2</ele>
        <time>2015-06-08T19:31:39.802Z</time>
      </trkpt>
      <trkpt lat="48.78459" lon="2.49094">
        <ele>92.1</ele>
        <time>2015-06-08T19:31:40.804Z</time>
      </trkpt>
      <trkpt lat="48.78459" lon="2.49102">
        <ele>91.8</ele>
        <time>2015-06-08T19:31:41.811Z</time>
      </trkpt>
      <trkpt lat="48.78459" lon="2.4911">
        <ele>91.8</ele>
        <time>2015-06-08T19:31:42.734Z</time>
      </trkpt>
      <trkpt lat="48.78459" lon="2.49119">
        <ele>91.8</ele>
        <time>2015-06-08T19:31:43.740Z</time>
      </trkpt>
      <trkpt lat="48.78459" lon="2.49126">
        <ele>91.9</ele>
        <time>2015-06-08T19:31:44.797Z</time>
      </trkpt>
      <trkpt lat="48.78459" lon="2.49134">
        <ele>91.7</ele>
        <time>2015-06-08T19:31:45.805Z</time>
      </trkpt>
      <trkpt lat="48.78459" lon="2.49142">
        <ele>91.7</ele>
        <time>2015-06-08T19:31:46.818Z</time>
      </trkpt>
      <trkpt lat="48.78458" lon="2.49149">
        <ele>91.6</ele>
        <time>2015-06-08T19:31:47.819Z</time>
      </trkpt>
      <trkpt lat="48.78458" lon="2.49159">
        <ele>90.5</ele>
        <time>2015-06-08T19:31:48.743Z</time>
      </trkpt>
      <trkpt lat="48.78459" lon="2.49167">
        <ele>90.6</ele>
        <time>2015-06-08T19:31:49.743Z</time>
      </trkpt>
      <trkpt lat="48.78461" lon="2.49179">
        <ele>90.8</ele>
        <time>2015-06-08T19:31:51.759Z</time>
      </trkpt>
      <trkpt lat="48.78462" lon="2.49187">
        <ele>90.9</ele>
        <time>2015-06-08T19:31:52.743Z</time>
      </trkpt>
      <trkpt lat="48.78463" lon="2.49195">
        <ele>91.1</ele>
        <time>2015-06-08T19:31:53.748Z</time>
      </trkpt>
      <trkpt lat="48.78463" lon="2.49203">
        <ele>91.1</ele>
        <time>2015-06-08T19:31:54.767Z</time>
      </trkpt>
      <trkpt lat="48.78463" lon="2.49212">
        <ele>91.2</ele>
        <time>2015-06-08T19:31:55.753Z</time>
      </trkpt>
      <trkpt lat="48.78463" lon="2.49221">
        <ele>91.1</ele>
        <time>2015-06-08T19:31:56.838Z</time>
      </trkpt>
      <trkpt lat="48.78462" lon="2.4923">
        <ele>91.3</ele>
        <time>2015-06-08T19:31:57.745Z</time>
      </trkpt>
      <trkpt lat="48.78461" lon="2.49238">
        <ele>91.5</ele>
        <time>2015-06-08T19:31:58.749Z</time>
      </trkpt>
      <trkpt lat="48.78461" lon="2.49247">
        <ele>91.6</ele>
        <time>2015-06-08T19:31:59.757Z</time>
      </trkpt>
      <trkpt lat="48.78461" lon="2.49256">
        <ele>91.5</ele>
        <time>2015-06-08T19:32:00.761Z</time>
      </trkpt>
      <trkpt lat="48.78461" lon="2.49265">
        <ele>91.4</ele>
        <time>2015-06-08T19:32:01.774Z</time>
      </trkpt>
      <trkpt lat="48.78461" lon="2.49274">
        <ele>91.6</ele>
        <time>2015-06-08T19:32:02.854Z</time>
      </trkpt>
      <trkpt lat="48.78462" lon="2.49284">
        <ele>92</ele>
        <time>2015-06-08T19:32:03.737Z</time>
      </trkpt>
      <trkpt lat="48.78463" lon="2.49293">
        <ele>92.2</ele>
        <time>2015-06-08T19:32:04.738Z</time>
      </trkpt>
      <trkpt lat="48.78464" lon="2.49304">
        <ele>92.3</ele>
        <time>2015-06-08T19:32:05.740Z</time>
      </trkpt>
      <trkpt lat="48.78465" lon="2.49313">
        <ele>92.5</ele>
        <time>2015-06-08T19:32:06.750Z</time>
      </trkpt>
      <trkpt lat="48.78467" lon="2.49322">
        <ele>92.7</ele>
        <time>2015-06-08T19:32:07.758Z</time>
      </trkpt>
      <trkpt lat="48.78469" lon="2.49331">
        <ele>92.7</ele>
        <time>2015-06-08T19:32:08.816Z</time>
      </trkpt>
      <trkpt lat="48.7847" lon="2.4934">
        <ele>92.7</ele>
        <time>2015-06-08T19:32:09.742Z</time>
      </trkpt>
      <trkpt lat="48.78472" lon="2.4935">
        <ele>92.6</ele>
        <time>2015-06-08T19:32:10.743Z</time>
      </trkpt>
      <trkpt lat="48.78472" lon="2.4936">
        <ele>92.8</ele>
        <time>2015-06-08T19:32:11.748Z</time>
      </trkpt>
      <trkpt lat="48.78474" lon="2.49371">
        <ele>93.2</ele>
        <time>2015-06-08T19:32:12.805Z</time>
      </trkpt>
      <trkpt lat="48.78474" lon="2.49381">
        <ele>93.1</ele>
        <time>2015-06-08T19:32:13.781Z</time>
      </trkpt>
      <trkpt lat="48.78474" lon="2.49391">
        <ele>92.9</ele>
        <time>2015-06-08T19:32:14.805Z</time>
      </trkpt>
      <trkpt lat="48.78474" lon="2.49401">
        <ele>92.9</ele>
        <time>2015-06-08T19:32:15.814Z</time>
      </trkpt>
      <trkpt lat="48.78474" lon="2.49411">
        <ele>92.9</ele>
        <time>2015-06-08T19:32:16.734Z</time>
      </trkpt>
      <trkpt lat="48.78475" lon="2.49421">
        <ele>92.9</ele>
        <time>2015-06-08T19:32:17.781Z</time>
      </trkpt>
      <trkpt lat="48.78476" lon="2.4943">
        <ele>92.3</ele>
        <time>2015-06-08T19:32:18.794Z</time>
      </trkpt>
      <trkpt lat="48.78478" lon="2.4944">
        <ele>92.3</ele>
        <time>2015-06-08T19:32:19.742Z</time>
      </trkpt>
      <trkpt lat="48.7848" lon="2.49451">
        <ele>91.4</ele>
        <time>2015-06-08T19:32:20.801Z</time>
      </trkpt>
      <trkpt lat="48.7848" lon="2.49461">
        <ele>91.5</ele>
        <time>2015-06-08T19:32:21.792Z</time>
      </trkpt>
      <trkpt lat="48.78481" lon="2.4947">
        <ele>91.5</ele>
        <time>2015-06-08T19:32:22.798Z</time>
      </trkpt>
      <trkpt lat="48.78482" lon="2.49479">
        <ele>91.4</ele>
        <time>2015-06-08T19:32:23.808Z</time>
      </trkpt>
      <trkpt lat="48.78482" lon="2.49486">
        <ele>90.9</ele>
        <time>2015-06-08T19:32:24.738Z</time>
      </trkpt>
      <trkpt lat="48.78483" lon="2.49494">
        <ele>90.9</ele>
        <time>2015-06-08T19:32:25.738Z</time>
      </trkpt>
      <trkpt lat="48.78484" lon="2.49501">
        <ele>91.3</ele>
        <time>2015-06-08T19:32:26.797Z</time>
      </trkpt>
      <trkpt lat="48.78486" lon="2.49511">
        <ele>91.7</ele>
        <time>2015-06-08T19:32:28.815Z</time>
      </trkpt>
      <trkpt lat="48.78487" lon="2.49515">
        <ele>91.7</ele>
        <time>2015-06-08T19:32:29.831Z</time>
      </trkpt>
      <trkpt lat="48.78485" lon="2.49525">
        <ele>93.2</ele>
        <time>2015-06-08T19:36:19.781Z</time>
      </trkpt>
      <trkpt lat="48.78485" lon="2.49525">
        <ele>93.4</ele>
        <time>2015-06-08T19:36:20.785Z</time>
      </trkpt>
      <trkpt lat="48.78484" lon="2.49525">
        <ele>93.2</ele>
        <time>2015-06-08T19:40:15.805Z</time>
      </trkpt>
      <trkpt lat="48.78486" lon="2.49533">
        <ele>91.5</ele>
        <time>2015-06-08T19:40:16.726Z</time>
      </trkpt>
      <trkpt lat="48.78488" lon="2.49545">
        <ele>91.4</ele>
        <time>2015-06-08T19:40:21.743Z</time>
      </trkpt>
      <trkpt lat="48.78489" lon="2.49547">
        <ele>91.4</ele>
        <time>2015-06-08T19:40:22.753Z</time>
      </trkpt>
      <trkpt lat="48.7849" lon="2.4956">
        <ele>91</ele>
        <time>2015-06-08T19:40:26.817Z</time>
      </trkpt>
      <trkpt lat="48.7849" lon="2.49564">
        <ele>90.7</ele>
        <time>2015-06-08T19:40:27.704Z</time>
      </trkpt>
      <trkpt lat="48.7849" lon="2.49574">
        <ele>90.3</ele>
        <time>2015-06-08T19:40:29.735Z</time>
      </trkpt>
      <trkpt lat="48.78489" lon="2.4958">
        <ele>90.3</ele>
        <time>2015-06-08T19:40:30.749Z</time>
      </trkpt>
      <trkpt lat="48.78488" lon="2.49587">
        <ele>90.2</ele>
        <time>2015-06-08T19:40:31.757Z</time>
      </trkpt>
      <trkpt lat="48.78487" lon="2.49595">
        <ele>90</ele>
        <time>2015-06-08T19:40:32.800Z</time>
      </trkpt>
      <trkpt lat="48.78487" lon="2.49602">
        <ele>90.2</ele>
        <time>2015-06-08T19:40:33.724Z</time>
      </trkpt>
      <trkpt lat="48.78487" lon="2.49611">
        <ele>90.2</ele>
        <time>2015-06-08T19:40:34.719Z</time>
      </trkpt>
      <trkpt lat="48.78487" lon="2.49619">
        <ele>90.1</ele>
        <time>2015-06-08T19:40:35.723Z</time>
      </trkpt>
      <trkpt lat="48.78488" lon="2.49628">
        <ele>89.8</ele>
        <time>2015-06-08T19:40:36.740Z</time>
      </trkpt>
      <trkpt lat="48.78489" lon="2.49637">
        <ele>89.1</ele>
        <time>2015-06-08T19:40:37.747Z</time>
      </trkpt>
      <trkpt lat="48.7849" lon="2.49645">
        <ele>88.6</ele>
        <time>2015-06-08T19:40:38.787Z</time>
      </trkpt>
      <trkpt lat="48.78492" lon="2.49653">
        <ele>88.6</ele>
        <time>2015-06-08T19:40:39.814Z</time>
      </trkpt>
      <trkpt lat="48.78494" lon="2.49661">
        <ele>88.6</ele>
        <time>2015-06-08T19:40:40.740Z</time>
      </trkpt>
      <trkpt lat="48.78495" lon="2.49669">
        <ele>88.7</ele>
        <time>2015-06-08T19:40:41.750Z</time>
      </trkpt>
      <trkpt lat="48.78496" lon="2.49678">
        <ele>88.9</ele>
        <time>2015-06-08T19:40:42.760Z</time>
      </trkpt>
      <trkpt lat="48.78497" lon="2.49686">
        <ele>88.9</ele>
        <time>2015-06-08T19:40:43.779Z</time>
      </trkpt>
      <trkpt lat="48.78498" lon="2.49694">
        <ele>89.2</ele>
        <time>2015-06-08T19:40:44.801Z</time>
      </trkpt>
      <trkpt lat="48.78499" lon="2.49702">
        <ele>89.3</ele>
        <time>2015-06-08T19:40:45.809Z</time>
      </trkpt>
      <trkpt lat="48.78501" lon="2.4971">
        <ele>89.6</ele>
        <time>2015-06-08T19:40:46.734Z</time>
      </trkpt>
      <trkpt lat="48.78503" lon="2.49717">
        <ele>89.6</ele>
        <time>2015-06-08T19:40:47.736Z</time>
      </trkpt>
      <trkpt lat="48.78504" lon="2.49725">
        <ele>89.9</ele>
        <time>2015-06-08T19:40:48.736Z</time>
      </trkpt>
      <trkpt lat="48.78505" lon="2.49732">
        <ele>89.9</ele>
        <time>2015-06-08T19:40:49.748Z</time>
      </trkpt>
      <trkpt lat="48.78506" lon="2.4974">
        <ele>89.7</ele>
        <time>2015-06-08T19:40:50.803Z</time>
      </trkpt>
      <trkpt lat="48.78506" lon="2.49748">
        <ele>89.5</ele>
        <time>2015-06-08T19:40:51.845Z</time>
      </trkpt>
      <trkpt lat="48.78507" lon="2.49755">
        <ele>89.3</ele>
        <time>2015-06-08T19:40:52.736Z</time>
      </trkpt>
      <trkpt lat="48.78508" lon="2.49762">
        <ele>89.3</ele>
        <time>2015-06-08T19:40:53.744Z</time>
      </trkpt>
      <trkpt lat="48.78509" lon="2.49769">
        <ele>89.2</ele>
        <time>2015-06-08T19:40:54.752Z</time>
      </trkpt>
      <trkpt lat="48.78509" lon="2.49776">
        <ele>89</ele>
        <time>2015-06-08T19:40:55.759Z</time>
      </trkpt>
      <trkpt lat="48.7851" lon="2.49783">
        <ele>89.1</ele>
        <time>2015-06-08T19:40:56.846Z</time>
      </trkpt>
      <trkpt lat="48.7851" lon="2.49796">
        <ele>89.3</ele>
        <time>2015-06-08T19:40:58.735Z</time>
      </trkpt>
      <trkpt lat="48.7851" lon="2.49802">
        <ele>89.5</ele>
        <time>2015-06-08T19:40:59.776Z</time>
      </trkpt>
      <trkpt lat="48.78511" lon="2.49814">
        <ele>89.6</ele>
        <time>2015-06-08T19:41:01.826Z</time>
      </trkpt>
      <trkpt lat="48.78512" lon="2.4982">
        <ele>89.7</ele>
        <time>2015-06-08T19:41:02.841Z</time>
      </trkpt>
      <trkpt lat="48.78512" lon="2.49832">
        <ele>89.3</ele>
        <time>2015-06-08T19:41:04.746Z</time>
      </trkpt>
      <trkpt lat="48.78512" lon="2.49839">
        <ele>88.2</ele>
        <time>2015-06-08T19:41:05.711Z</time>
      </trkpt>
      <trkpt lat="48.78511" lon="2.4985">
        <ele>88.1</ele>
        <time>2015-06-08T19:41:07.760Z</time>
      </trkpt>
      <trkpt lat="48.78511" lon="2.49855">
        <ele>88.3</ele>
        <time>2015-06-08T19:41:08.910Z</time>
      </trkpt>
      <trkpt lat="48.7851" lon="2.49866">
        <ele>88.3</ele>
        <time>2015-06-08T19:41:10.731Z</time>
      </trkpt>
      <trkpt lat="48.7851" lon="2.49872">
        <ele>88.4</ele>
        <time>2015-06-08T19:41:11.755Z</time>
      </trkpt>
      <trkpt lat="48.78511" lon="2.49884">
        <ele>87.4</ele>
        <time>2015-06-08T19:41:13.807Z</time>
      </trkpt>
      <trkpt lat="48.78512" lon="2.4989">
        <ele>86.6</ele>
        <time>2015-06-08T19:41:14.855Z</time>
      </trkpt>
      <trkpt lat="48.78514" lon="2.49901">
        <ele>86.8</ele>
        <time>2015-06-08T19:41:16.750Z</time>
      </trkpt>
      <trkpt lat="48.78514" lon="2.49907">
        <ele>86.5</ele>
        <time>2015-06-08T19:41:17.791Z</time>
      </trkpt>
      <trkpt lat="48.78514" lon="2.4992">
        <ele>86.5</ele>
        <time>2015-06-08T19:41:19.801Z</time>
      </trkpt>
      <trkpt lat="48.78514" lon="2.49928">
        <ele>86.7</ele>
        <time>2015-06-08T19:41:20.803Z</time>
      </trkpt>
      <trkpt lat="48.78514" lon="2.49935">
        <ele>86.4</ele>
        <time>2015-06-08T19:41:21.746Z</time>
      </trkpt>
      <trkpt lat="48.78514" lon="2.49942">
        <ele>86.2</ele>
        <time>2015-06-08T19:41:22.745Z</time>
      </trkpt>
      <trkpt lat="48.78513" lon="2.49955">
        <ele>86.5</ele>
        <time>2015-06-08T19:41:24.823Z</time>
      </trkpt>
      <trkpt lat="48.78514" lon="2.4996">
        <ele>86.5</ele>
        <time>2015-06-08T19:41:25.767Z</time>
      </trkpt>
      <trkpt lat="48.78515" lon="2.49971">
        <ele>86.5</ele>
        <time>2015-06-08T19:41:28.423Z</time>
      </trkpt>
      <trkpt lat="48.78514" lon="2.49977">
        <ele>86.8</ele>
        <time>2015-06-08T19:41:28.807Z</time>
      </trkpt>
      <trkpt lat="48.78514" lon="2.49987">
        <ele>86.8</ele>
        <time>2015-06-08T19:41:30.807Z</time>
      </trkpt>
      <trkpt lat="48.78514" lon="2.49993">
        <ele>87</ele>
        <time>2015-06-08T19:41:31.820Z</time>
      </trkpt>
      <trkpt lat="48.78513" lon="2.5">
        <ele>87.2</ele>
        <time>2015-06-08T19:41:32.876Z</time>
      </trkpt>
      <trkpt lat="48.78512" lon="2.50008">
        <ele>87.5</ele>
        <time>2015-06-08T19:41:33.740Z</time>
      </trkpt>
      <trkpt lat="48.78511" lon="2.50015">
        <ele>87.8</ele>
        <time>2015-06-08T19:41:34.747Z</time>
      </trkpt>
      <trkpt lat="48.78511" lon="2.50023">
        <ele>88</ele>
        <time>2015-06-08T19:41:35.748Z</time>
      </trkpt>
      <trkpt lat="48.78511" lon="2.50029">
        <ele>88.1</ele>
        <time>2015-06-08T19:41:37.055Z</time>
      </trkpt>
      <trkpt lat="48.78512" lon="2.50037">
        <ele>87.2</ele>
        <time>2015-06-08T19:41:37.749Z</time>
      </trkpt>
      <trkpt lat="48.78512" lon="2.5005">
        <ele>87.5</ele>
        <time>2015-06-08T19:41:39.818Z</time>
      </trkpt>
      <trkpt lat="48.78512" lon="2.50057">
        <ele>87.3</ele>
        <time>2015-06-08T19:41:40.748Z</time>
      </trkpt>
      <trkpt lat="48.78513" lon="2.50064">
        <ele>87.3</ele>
        <time>2015-06-08T19:41:41.747Z</time>
      </trkpt>
      <trkpt lat="48.78513" lon="2.50072">
        <ele>87.2</ele>
        <time>2015-06-08T19:41:42.784Z</time>
      </trkpt>
      <trkpt lat="48.78512" lon="2.5008">
        <ele>87.3</ele>
        <time>2015-06-08T19:41:43.757Z</time>
      </trkpt>
      <trkpt lat="48.78511" lon="2.50088">
        <ele>87.1</ele>
        <time>2015-06-08T19:41:44.820Z</time>
      </trkpt>
      <trkpt lat="48.7851" lon="2.50095">
        <ele>87.3</ele>
        <time>2015-06-08T19:41:46.351Z</time>
      </trkpt>
      <trkpt lat="48.7851" lon="2.50102">
        <ele>87.5</ele>
        <time>2015-06-08T19:41:46.831Z</time>
      </trkpt>
      <trkpt lat="48.78509" lon="2.50115">
        <ele>88.1</ele>
        <time>2015-06-08T19:41:48.760Z</time>
      </trkpt>
      <trkpt lat="48.78509" lon="2.50123">
        <ele>88.2</ele>
        <time>2015-06-08T19:41:49.786Z</time>
      </trkpt>
      <trkpt lat="48.78509" lon="2.5013">
        <ele>88.3</ele>
        <time>2015-06-08T19:41:51.386Z</time>
      </trkpt>
      <trkpt lat="48.78508" lon="2.50138">
        <ele>88.4</ele>
        <time>2015-06-08T19:41:51.823Z</time>
      </trkpt>
      <trkpt lat="48.78508" lon="2.50146">
        <ele>88.3</ele>
        <time>2015-06-08T19:41:52.755Z</time>
      </trkpt>
      <trkpt lat="48.78508" lon="2.50153">
        <ele>88.2</ele>
        <time>2015-06-08T19:41:53.722Z</time>
      </trkpt>
      <trkpt lat="48.78508" lon="2.50163">
        <ele>88.5</ele>
        <time>2015-06-08T19:41:54.731Z</time>
      </trkpt>
      <trkpt lat="48.78508" lon="2.50172">
        <ele>88.6</ele>
        <time>2015-06-08T19:41:55.757Z</time>
      </trkpt>
      <trkpt lat="48.78507" lon="2.50183">
        <ele>88.9</ele>
        <time>2015-06-08T19:41:56.827Z</time>
      </trkpt>
      <trkpt lat="48.78506" lon="2.50192">
        <ele>89.5</ele>
        <time>2015-06-08T19:41:57.820Z</time>
      </trkpt>
      <trkpt lat="48.78506" lon="2.50201">
        <ele>89.8</ele>
        <time>2015-06-08T19:41:58.739Z</time>
      </trkpt>
      <trkpt lat="48.78505" lon="2.5021">
        <ele>90</ele>
        <time>2015-06-08T19:41:59.745Z</time>
      </trkpt>
      <trkpt lat="48.78505" lon="2.50219">
        <ele>90</ele>
        <time>2015-06-08T19:42:01.553Z</time>
      </trkpt>
      <trkpt lat="48.78504" lon="2.50228">
        <ele>90</ele>
        <time>2015-06-08T19:42:01.766Z</time>
      </trkpt>
      <trkpt lat="48.78503" lon="2.50237">
        <ele>90.3</ele>
        <time>2015-06-08T19:42:02.814Z</time>
      </trkpt>
      <trkpt lat="48.78502" lon="2.50245">
        <ele>90.7</ele>
        <time>2015-06-08T19:42:03.745Z</time>
      </trkpt>
      <trkpt lat="48.78502" lon="2.50253">
        <ele>90.9</ele>
        <time>2015-06-08T19:42:04.741Z</time>
      </trkpt>
      <trkpt lat="48.78501" lon="2.5026">
        <ele>90.9</ele>
        <time>2015-06-08T19:42:05.751Z</time>
      </trkpt>
      <trkpt lat="48.78501" lon="2.50267">
        <ele>90.8</ele>
        <time>2015-06-08T19:42:06.769Z</time>
      </trkpt>
      <trkpt lat="48.78501" lon="2.50275">
        <ele>90.3</ele>
        <time>2015-06-08T19:42:07.777Z</time>
      </trkpt>
      <trkpt lat="48.78501" lon="2.50282">
        <ele>90</ele>
        <time>2015-06-08T19:42:08.843Z</time>
      </trkpt>
      <trkpt lat="48.785" lon="2.5029">
        <ele>89.9</ele>
        <time>2015-06-08T19:42:09.753Z</time>
      </trkpt>
      <trkpt lat="48.785" lon="2.50297">
        <ele>89.5</ele>
        <time>2015-06-08T19:42:10.755Z</time>
      </trkpt>
      <trkpt lat="48.78501" lon="2.50303">
        <ele>89.3</ele>
        <time>2015-06-08T19:42:11.766Z</time>
      </trkpt>
      <trkpt lat="48.785" lon="2.50317">
        <ele>88.8</ele>
        <time>2015-06-08T19:42:13.786Z</time>
      </trkpt>
      <trkpt lat="48.785" lon="2.50322">
        <ele>88.6</ele>
        <time>2015-06-08T19:42:14.869Z</time>
      </trkpt>
      <trkpt lat="48.785" lon="2.5033">
        <ele>88.4</ele>
        <time>2015-06-08T19:42:15.717Z</time>
      </trkpt>
      <trkpt lat="48.78499" lon="2.50337">
        <ele>88.3</ele>
        <time>2015-06-08T19:42:16.742Z</time>
      </trkpt>
      <trkpt lat="48.78499" lon="2.50346">
        <ele>88.1</ele>
        <time>2015-06-08T19:42:17.756Z</time>
      </trkpt>
      <trkpt lat="48.78497" lon="2.50356">
        <ele>88</ele>
        <time>2015-06-08T19:42:18.762Z</time>
      </trkpt>
      <trkpt lat="48.78495" lon="2.50366">
        <ele>88.2</ele>
        <time>2015-06-08T19:42:20.648Z</time>
      </trkpt>
      <trkpt lat="48.78493" lon="2.50376">
        <ele>88.2</ele>
        <time>2015-06-08T19:42:20.780Z</time>
      </trkpt>
      <trkpt lat="48.78491" lon="2.50387">
        <ele>88</ele>
        <time>2015-06-08T19:42:21.798Z</time>
      </trkpt>
      <trkpt lat="48.78489" lon="2.50402">
        <ele>87.8</ele>
        <time>2015-06-08T19:42:22.813Z</time>
      </trkpt>
      <trkpt lat="48.78487" lon="2.50415">
        <ele>87.8</ele>
        <time>2015-06-08T19:42:23.730Z</time>
      </trkpt>
      <trkpt lat="48.78486" lon="2.50429">
        <ele>87.8</ele>
        <time>2015-06-08T19:42:24.747Z</time>
      </trkpt>
      <trkpt lat="48.78484" lon="2.50442">
        <ele>87.6</ele>
        <time>2015-06-08T19:42:25.779Z</time>
      </trkpt>
      <trkpt lat="48.78483" lon="2.50453">
        <ele>87.3</ele>
        <time>2015-06-08T19:42:27.087Z</time>
      </trkpt>
      <trkpt lat="48.78484" lon="2.50461">
        <ele>87.5</ele>
        <time>2015-06-08T19:42:27.793Z</time>
      </trkpt>
      <trkpt lat="48.78485" lon="2.50469">
        <ele>88.2</ele>
        <time>2015-06-08T19:42:28.800Z</time>
      </trkpt>
      <trkpt lat="48.78486" lon="2.50479">
        <ele>89.4</ele>
        <time>2015-06-08T19:42:29.804Z</time>
      </trkpt>
      <trkpt lat="48.78486" lon="2.5049">
        <ele>89.5</ele>
        <time>2015-06-08T19:42:30.810Z</time>
      </trkpt>
      <trkpt lat="48.78485" lon="2.50501">
        <ele>89.8</ele>
        <time>2015-06-08T19:42:31.787Z</time>
      </trkpt>
      <trkpt lat="48.78483" lon="2.50513">
        <ele>90</ele>
        <time>2015-06-08T19:42:32.793Z</time>
      </trkpt>
      <trkpt lat="48.78481" lon="2.50523">
        <ele>89.4</ele>
        <time>2015-06-08T19:42:33.751Z</time>
      </trkpt>
      <trkpt lat="48.78481" lon="2.50531">
        <ele>89.4</ele>
        <time>2015-06-08T19:42:34.744Z</time>
      </trkpt>
      <trkpt lat="48.7848" lon="2.5054">
        <ele>89.2</ele>
        <time>2015-06-08T19:42:35.751Z</time>
      </trkpt>
      <trkpt lat="48.78479" lon="2.5055">
        <ele>89.2</ele>
        <time>2015-06-08T19:42:36.763Z</time>
      </trkpt>
      <trkpt lat="48.78477" lon="2.5056">
        <ele>88.8</ele>
        <time>2015-06-08T19:42:37.772Z</time>
      </trkpt>
      <trkpt lat="48.78476" lon="2.50569">
        <ele>89.1</ele>
        <time>2015-06-08T19:42:38.790Z</time>
      </trkpt>
      <trkpt lat="48.78474" lon="2.50579">
        <ele>89.5</ele>
        <time>2015-06-08T19:42:39.782Z</time>
      </trkpt>
      <trkpt lat="48.78474" lon="2.50587">
        <ele>89.5</ele>
        <time>2015-06-08T19:42:40.786Z</time>
      </trkpt>
      <trkpt lat="48.78473" lon="2.50595">
        <ele>89.5</ele>
        <time>2015-06-08T19:42:41.802Z</time>
      </trkpt>
      <trkpt lat="48.78472" lon="2.50602">
        <ele>89.3</ele>
        <time>2015-06-08T19:42:42.736Z</time>
      </trkpt>
      <trkpt lat="48.78471" lon="2.50613">
        <ele>88.8</ele>
        <time>2015-06-08T19:42:43.816Z</time>
      </trkpt>
      <trkpt lat="48.78471" lon="2.50622">
        <ele>88.7</ele>
        <time>2015-06-08T19:42:44.842Z</time>
      </trkpt>
      <trkpt lat="48.7847" lon="2.50629">
        <ele>88.6</ele>
        <time>2015-06-08T19:42:45.739Z</time>
      </trkpt>
      <trkpt lat="48.78469" lon="2.5064">
        <ele>88.4</ele>
        <time>2015-06-08T19:42:46.745Z</time>
      </trkpt>
      <trkpt lat="48.78467" lon="2.50652">
        <ele>88.5</ele>
        <time>2015-06-08T19:42:47.760Z</time>
      </trkpt>
      <trkpt lat="48.78467" lon="2.50663">
        <ele>88.1</ele>
        <time>2015-06-08T19:42:48.773Z</time>
      </trkpt>
      <trkpt lat="48.78466" lon="2.50674">
        <ele>88.7</ele>
        <time>2015-06-08T19:42:49.788Z</time>
      </trkpt>
      <trkpt lat="48.78466" lon="2.50683">
        <ele>89</ele>
        <time>2015-06-08T19:42:50.805Z</time>
      </trkpt>
      <trkpt lat="48.78466" lon="2.50694">
        <ele>89.6</ele>
        <time>2015-06-08T19:42:51.817Z</time>
      </trkpt>
      <trkpt lat="48.78465" lon="2.50702">
        <ele>89.6</ele>
        <time>2015-06-08T19:42:52.828Z</time>
      </trkpt>
      <trkpt lat="48.78463" lon="2.5071">
        <ele>89.4</ele>
        <time>2015-06-08T19:42:53.738Z</time>
      </trkpt>
      <trkpt lat="48.78461" lon="2.50722">
        <ele>89.2</ele>
        <time>2015-06-08T19:42:54.743Z</time>
      </trkpt>
      <trkpt lat="48.78461" lon="2.50734">
        <ele>88.7</ele>
        <time>2015-06-08T19:42:55.753Z</time>
      </trkpt>
      <trkpt lat="48.78459" lon="2.50744">
        <ele>88.2</ele>
        <time>2015-06-08T19:42:56.807Z</time>
      </trkpt>
      <trkpt lat="48.78459" lon="2.50752">
        <ele>87.9</ele>
        <time>2015-06-08T19:42:57.816Z</time>
      </trkpt>
      <trkpt lat="48.7846" lon="2.50761">
        <ele>87.5</ele>
        <time>2015-06-08T19:42:58.818Z</time>
      </trkpt>
      <trkpt lat="48.78464" lon="2.50767">
        <ele>87.4</ele>
        <time>2015-06-08T19:42:59.734Z</time>
      </trkpt>
      <trkpt lat="48.78467" lon="2.50772">
        <ele>87.2</ele>
        <time>2015-06-08T19:43:00.756Z</time>
      </trkpt>
      <trkpt lat="48.7847" lon="2.50783">
        <ele>86.7</ele>
        <time>2015-06-08T19:43:02.796Z</time>
      </trkpt>
      <trkpt lat="48.78471" lon="2.50789">
        <ele>86.8</ele>
        <time>2015-06-08T19:43:03.750Z</time>
      </trkpt>
      <trkpt lat="48.78474" lon="2.50801">
        <ele>86.8</ele>
        <time>2015-06-08T19:43:05.751Z</time>
      </trkpt>
      <trkpt lat="48.78475" lon="2.50807">
        <ele>86.7</ele>
        <time>2015-06-08T19:43:06.768Z</time>
      </trkpt>
      <trkpt lat="48.78477" lon="2.50815">
        <ele>86.8</ele>
        <time>2015-06-08T19:43:07.812Z</time>
      </trkpt>
      <trkpt lat="48.78478" lon="2.50821">
        <ele>87</ele>
        <time>2015-06-08T19:43:08.816Z</time>
      </trkpt>
      <trkpt lat="48.78479" lon="2.50831">
        <ele>86.9</ele>
        <time>2015-06-08T19:43:10.823Z</time>
      </trkpt>
      <trkpt lat="48.78479" lon="2.50836">
        <ele>86.7</ele>
        <time>2015-06-08T19:43:11.791Z</time>
      </trkpt>
      <trkpt lat="48.7848" lon="2.50849">
        <ele>85.9</ele>
        <time>2015-06-08T19:43:13.746Z</time>
      </trkpt>
      <trkpt lat="48.7848" lon="2.50856">
        <ele>85.8</ele>
        <time>2015-06-08T19:43:14.872Z</time>
      </trkpt>
      <trkpt lat="48.78482" lon="2.50869">
        <ele>85</ele>
        <time>2015-06-08T19:43:16.745Z</time>
      </trkpt>
      <trkpt lat="48.78482" lon="2.50876">
        <ele>85</ele>
        <time>2015-06-08T19:43:17.783Z</time>
      </trkpt>
      <trkpt lat="48.78482" lon="2.50885">
        <ele>84.4</ele>
        <time>2015-06-08T19:43:18.845Z</time>
      </trkpt>
      <trkpt lat="48.78481" lon="2.50895">
        <ele>84.5</ele>
        <time>2015-06-08T19:43:19.751Z</time>
      </trkpt>
      <trkpt lat="48.78481" lon="2.50906">
        <ele>84.5</ele>
        <time>2015-06-08T19:43:20.886Z</time>
      </trkpt>
      <trkpt lat="48.78481" lon="2.50917">
        <ele>84.8</ele>
        <time>2015-06-08T19:43:21.799Z</time>
      </trkpt>
      <trkpt lat="48.78482" lon="2.50926">
        <ele>85</ele>
        <time>2015-06-08T19:43:22.779Z</time>
      </trkpt>
      <trkpt lat="48.78482" lon="2.50937">
        <ele>85.1</ele>
        <time>2015-06-08T19:43:23.757Z</time>
      </trkpt>
      <trkpt lat="48.78482" lon="2.50948">
        <ele>85</ele>
        <time>2015-06-08T19:43:24.810Z</time>
      </trkpt>
      <trkpt lat="48.78482" lon="2.50962">
        <ele>85</ele>
        <time>2015-06-08T19:43:25.805Z</time>
      </trkpt>
      <trkpt lat="48.78481" lon="2.50977">
        <ele>83.1</ele>
        <time>2015-06-08T19:43:26.883Z</time>
      </trkpt>
      <trkpt lat="48.7848" lon="2.50992">
        <ele>81.8</ele>
        <time>2015-06-08T19:43:27.741Z</time>
      </trkpt>
      <trkpt lat="48.78478" lon="2.51006">
        <ele>80.9</ele>
        <time>2015-06-08T19:43:28.742Z</time>
      </trkpt>
      <trkpt lat="48.78478" lon="2.51017">
        <ele>81.3</ele>
        <time>2015-06-08T19:43:29.748Z</time>
      </trkpt>
      <trkpt lat="48.78476" lon="2.51031">
        <ele>81.6</ele>
        <time>2015-06-08T19:43:30.765Z</time>
      </trkpt>
      <trkpt lat="48.78474" lon="2.51043">
        <ele>82</ele>
        <time>2015-06-08T19:43:31.815Z</time>
      </trkpt>
      <trkpt lat="48.78476" lon="2.51052">
        <ele>82.4</ele>
        <time>2015-06-08T19:43:32.834Z</time>
      </trkpt>
      <trkpt lat="48.78477" lon="2.51061">
        <ele>82.4</ele>
        <time>2015-06-08T19:43:33.718Z</time>
      </trkpt>
      <trkpt lat="48.78479" lon="2.51071">
        <ele>82.6</ele>
        <time>2015-06-08T19:43:34.713Z</time>
      </trkpt>
      <trkpt lat="48.78481" lon="2.51082">
        <ele>82.8</ele>
        <time>2015-06-08T19:43:35.729Z</time>
      </trkpt>
      <trkpt lat="48.78485" lon="2.51094">
        <ele>83.6</ele>
        <time>2015-06-08T19:43:36.738Z</time>
      </trkpt>
      <trkpt lat="48.78491" lon="2.51107">
        <ele>82.9</ele>
        <time>2015-06-08T19:43:37.746Z</time>
      </trkpt>
      <trkpt lat="48.78495" lon="2.51119">
        <ele>83.3</ele>
        <time>2015-06-08T19:43:38.764Z</time>
      </trkpt>
      <trkpt lat="48.78499" lon="2.51131">
        <ele>84.6</ele>
        <time>2015-06-08T19:43:39.776Z</time>
      </trkpt>
      <trkpt lat="48.78504" lon="2.51139">
        <ele>85.1</ele>
        <time>2015-06-08T19:43:40.703Z</time>
      </trkpt>
      <trkpt lat="48.78507" lon="2.51147">
        <ele>85.2</ele>
        <time>2015-06-08T19:43:41.934Z</time>
      </trkpt>
      <trkpt lat="48.78512" lon="2.51154">
        <ele>85.4</ele>
        <time>2015-06-08T19:43:42.754Z</time>
      </trkpt>
      <trkpt lat="48.78517" lon="2.51161">
        <ele>85.4</ele>
        <time>2015-06-08T19:43:43.773Z</time>
      </trkpt>
      <trkpt lat="48.78522" lon="2.51165">
        <ele>84.9</ele>
        <time>2015-06-08T19:43:44.795Z</time>
      </trkpt>
      <trkpt lat="48.78526" lon="2.51171">
        <ele>84.7</ele>
        <time>2015-06-08T19:43:45.791Z</time>
      </trkpt>
      <trkpt lat="48.78529" lon="2.51178">
        <ele>84.6</ele>
        <time>2015-06-08T19:43:46.824Z</time>
      </trkpt>
      <trkpt lat="48.78532" lon="2.51185">
        <ele>84.7</ele>
        <time>2015-06-08T19:43:47.753Z</time>
      </trkpt>
      <trkpt lat="48.78535" lon="2.51192">
        <ele>84.6</ele>
        <time>2015-06-08T19:43:48.734Z</time>
      </trkpt>
      <trkpt lat="48.78539" lon="2.51199">
        <ele>84.7</ele>
        <time>2015-06-08T19:43:49.742Z</time>
      </trkpt>
      <trkpt lat="48.78544" lon="2.51206">
        <ele>84.9</ele>
        <time>2015-06-08T19:43:50.791Z</time>
      </trkpt>
      <trkpt lat="48.78548" lon="2.51211">
        <ele>84.7</ele>
        <time>2015-06-08T19:43:51.788Z</time>
      </trkpt>
      <trkpt lat="48.78553" lon="2.51217">
        <ele>84.6</ele>
        <time>2015-06-08T19:43:52.800Z</time>
      </trkpt>
      <trkpt lat="48.78558" lon="2.51222">
        <ele>84.3</ele>
        <time>2015-06-08T19:43:53.807Z</time>
      </trkpt>
      <trkpt lat="48.78562" lon="2.51227">
        <ele>84.3</ele>
        <time>2015-06-08T19:43:54.735Z</time>
      </trkpt>
      <trkpt lat="48.78567" lon="2.51233">
        <ele>84.4</ele>
        <time>2015-06-08T19:43:55.734Z</time>
      </trkpt>
      <trkpt lat="48.7857" lon="2.51239">
        <ele>84.4</ele>
        <time>2015-06-08T19:43:56.876Z</time>
      </trkpt>
      <trkpt lat="48.78573" lon="2.51246">
        <ele>84.6</ele>
        <time>2015-06-08T19:43:57.713Z</time>
      </trkpt>
      <trkpt lat="48.78578" lon="2.51253">
        <ele>84.7</ele>
        <time>2015-06-08T19:43:58.764Z</time>
      </trkpt>
      <trkpt lat="48.78582" lon="2.51261">
        <ele>85.1</ele>
        <time>2015-06-08T19:43:59.771Z</time>
      </trkpt>
      <trkpt lat="48.78585" lon="2.51268">
        <ele>85.5</ele>
        <time>2015-06-08T19:44:00.699Z</time>
      </trkpt>
      <trkpt lat="48.78588" lon="2.51275">
        <ele>85.7</ele>
        <time>2015-06-08T19:44:01.700Z</time>
      </trkpt>
      <trkpt lat="48.78592" lon="2.51282">
        <ele>85.8</ele>
        <time>2015-06-08T19:44:02.798Z</time>
      </trkpt>
      <trkpt lat="48.78596" lon="2.51291">
        <ele>85.6</ele>
        <time>2015-06-08T19:44:03.809Z</time>
      </trkpt>
      <trkpt lat="48.786" lon="2.513">
        <ele>85.7</ele>
        <time>2015-06-08T19:44:04.721Z</time>
      </trkpt>
      <trkpt lat="48.78606" lon="2.51311">
        <ele>85.9</ele>
        <time>2015-06-08T19:44:05.729Z</time>
      </trkpt>
      <trkpt lat="48.78611" lon="2.51319">
        <ele>86.6</ele>
        <time>2015-06-08T19:44:06.753Z</time>
      </trkpt>
      <trkpt lat="48.78616" lon="2.51329">
        <ele>86.5</ele>
        <time>2015-06-08T19:44:07.756Z</time>
      </trkpt>
      <trkpt lat="48.7862" lon="2.51337">
        <ele>86.7</ele>
        <time>2015-06-08T19:44:08.776Z</time>
      </trkpt>
      <trkpt lat="48.78624" lon="2.51345">
        <ele>86.6</ele>
        <time>2015-06-08T19:44:09.774Z</time>
      </trkpt>
      <trkpt lat="48.78628" lon="2.51353">
        <ele>86.5</ele>
        <time>2015-06-08T19:44:10.784Z</time>
      </trkpt>
      <trkpt lat="48.78631" lon="2.51361">
        <ele>86.7</ele>
        <time>2015-06-08T19:44:11.794Z</time>
      </trkpt>
      <trkpt lat="48.78632" lon="2.51371">
        <ele>86.2</ele>
        <time>2015-06-08T19:44:12.715Z</time>
      </trkpt>
      <trkpt lat="48.78634" lon="2.51381">
        <ele>86.2</ele>
        <time>2015-06-08T19:44:13.715Z</time>
      </trkpt>
      <trkpt lat="48.78636" lon="2.51391">
        <ele>86.5</ele>
        <time>2015-06-08T19:44:14.778Z</time>
      </trkpt>
      <trkpt lat="48.78638" lon="2.51402">
        <ele>86.6</ele>
        <time>2015-06-08T19:44:15.784Z</time>
      </trkpt>
      <trkpt lat="48.7864" lon="2.51413">
        <ele>86.9</ele>
        <time>2015-06-08T19:44:16.802Z</time>
      </trkpt>
      <trkpt lat="48.78642" lon="2.51422">
        <ele>87.2</ele>
        <time>2015-06-08T19:44:17.727Z</time>
      </trkpt>
      <trkpt lat="48.78644" lon="2.51431">
        <ele>87.5</ele>
        <time>2015-06-08T19:44:18.746Z</time>
      </trkpt>
      <trkpt lat="48.78647" lon="2.5144">
        <ele>87.2</ele>
        <time>2015-06-08T19:44:19.753Z</time>
      </trkpt>
      <trkpt lat="48.78649" lon="2.51449">
        <ele>87.5</ele>
        <time>2015-06-08T19:44:20.788Z</time>
      </trkpt>
      <trkpt lat="48.78649" lon="2.51456">
        <ele>87.4</ele>
        <time>2015-06-08T19:44:21.789Z</time>
      </trkpt>
      <trkpt lat="48.7865" lon="2.51466">
        <ele>87.4</ele>
        <time>2015-06-08T19:44:22.794Z</time>
      </trkpt>
      <trkpt lat="48.7865" lon="2.51474">
        <ele>87.7</ele>
        <time>2015-06-08T19:44:23.803Z</time>
      </trkpt>
      <trkpt lat="48.78651" lon="2.5148">
        <ele>88</ele>
        <time>2015-06-08T19:44:24.819Z</time>
      </trkpt>
      <trkpt lat="48.78652" lon="2.51487">
        <ele>88.3</ele>
        <time>2015-06-08T19:44:25.744Z</time>
      </trkpt>
      <trkpt lat="48.78654" lon="2.515">
        <ele>88.9</ele>
        <time>2015-06-08T19:44:27.778Z</time>
      </trkpt>
      <trkpt lat="48.78656" lon="2.51506">
        <ele>88.9</ele>
        <time>2015-06-08T19:44:28.793Z</time>
      </trkpt>
      <trkpt lat="48.78657" lon="2.51513">
        <ele>88.8</ele>
        <time>2015-06-08T19:44:29.730Z</time>
      </trkpt>
      <trkpt lat="48.78658" lon="2.5152">
        <ele>88.9</ele>
        <time>2015-06-08T19:44:30.742Z</time>
      </trkpt>
      <trkpt lat="48.78659" lon="2.51527">
        <ele>88.9</ele>
        <time>2015-06-08T19:44:31.762Z</time>
      </trkpt>
      <trkpt lat="48.78661" lon="2.51534">
        <ele>88.7</ele>
        <time>2015-06-08T19:44:32.854Z</time>
      </trkpt>
      <trkpt lat="48.78662" lon="2.51541">
        <ele>88.7</ele>
        <time>2015-06-08T19:44:33.714Z</time>
      </trkpt>
      <trkpt lat="48.78663" lon="2.51548">
        <ele>88.3</ele>
        <time>2015-06-08T19:44:34.714Z</time>
      </trkpt>
      <trkpt lat="48.78666" lon="2.51555">
        <ele>88.1</ele>
        <time>2015-06-08T19:44:35.734Z</time>
      </trkpt>
      <trkpt lat="48.78667" lon="2.51562">
        <ele>88</ele>
        <time>2015-06-08T19:44:36.750Z</time>
      </trkpt>
      <trkpt lat="48.78669" lon="2.51569">
        <ele>87.5</ele>
        <time>2015-06-08T19:44:37.754Z</time>
      </trkpt>
      <trkpt lat="48.7867" lon="2.51575">
        <ele>87.1</ele>
        <time>2015-06-08T19:44:38.774Z</time>
      </trkpt>
      <trkpt lat="48.78673" lon="2.51586">
        <ele>86.8</ele>
        <time>2015-06-08T19:44:40.807Z</time>
      </trkpt>
      <trkpt lat="48.78675" lon="2.51592">
        <ele>86.9</ele>
        <time>2015-06-08T19:44:41.754Z</time>
      </trkpt>
      <trkpt lat="48.78677" lon="2.51599">
        <ele>86.8</ele>
        <time>2015-06-08T19:44:42.728Z</time>
      </trkpt>
      <trkpt lat="48.78678" lon="2.51607">
        <ele>86.1</ele>
        <time>2015-06-08T19:44:43.860Z</time>
      </trkpt>
      <trkpt lat="48.7868" lon="2.51614">
        <ele>85.9</ele>
        <time>2015-06-08T19:44:44.827Z</time>
      </trkpt>
      <trkpt lat="48.78683" lon="2.51619">
        <ele>86.1</ele>
        <time>2015-06-08T19:44:45.729Z</time>
      </trkpt>
      <trkpt lat="48.78685" lon="2.51625">
        <ele>86.3</ele>
        <time>2015-06-08T19:44:46.729Z</time>
      </trkpt>
      <trkpt lat="48.78687" lon="2.51632">
        <ele>86.6</ele>
        <time>2015-06-08T19:44:47.739Z</time>
      </trkpt>
      <trkpt lat="48.78688" lon="2.51643">
        <ele>86.7</ele>
        <time>2015-06-08T19:44:48.755Z</time>
      </trkpt>
      <trkpt lat="48.78691" lon="2.51652">
        <ele>86.2</ele>
        <time>2015-06-08T19:44:49.757Z</time>
      </trkpt>
      <trkpt lat="48.78694" lon="2.51661">
        <ele>85.5</ele>
        <time>2015-06-08T19:44:50.790Z</time>
      </trkpt>
      <trkpt lat="48.78697" lon="2.51669">
        <ele>85.6</ele>
        <time>2015-06-08T19:44:51.729Z</time>
      </trkpt>
      <trkpt lat="48.787" lon="2.51677">
        <ele>85.4</ele>
        <time>2015-06-08T19:44:52.721Z</time>
      </trkpt>
      <trkpt lat="48.78704" lon="2.51685">
        <ele>85.3</ele>
        <time>2015-06-08T19:44:53.711Z</time>
      </trkpt>
      <trkpt lat="48.78708" lon="2.51692">
        <ele>85.4</ele>
        <time>2015-06-08T19:44:54.737Z</time>
      </trkpt>
      <trkpt lat="48.78712" lon="2.51699">
        <ele>86</ele>
        <time>2015-06-08T19:44:55.750Z</time>
      </trkpt>
      <trkpt lat="48.78715" lon="2.51706">
        <ele>85.6</ele>
        <time>2015-06-08T19:44:56.791Z</time>
      </trkpt>
      <trkpt lat="48.78718" lon="2.51714">
        <ele>85.7</ele>
        <time>2015-06-08T19:44:57.788Z</time>
      </trkpt>
      <trkpt lat="48.7872" lon="2.51722">
        <ele>85.8</ele>
        <time>2015-06-08T19:44:58.803Z</time>
      </trkpt>
      <trkpt lat="48.78723" lon="2.51728">
        <ele>85.9</ele>
        <time>2015-06-08T19:44:59.733Z</time>
      </trkpt>
      <trkpt lat="48.78725" lon="2.51735">
        <ele>86</ele>
        <time>2015-06-08T19:45:00.737Z</time>
      </trkpt>
      <trkpt lat="48.78728" lon="2.51742">
        <ele>86.1</ele>
        <time>2015-06-08T19:45:01.729Z</time>
      </trkpt>
      <trkpt lat="48.78732" lon="2.51748">
        <ele>86</ele>
        <time>2015-06-08T19:45:02.789Z</time>
      </trkpt>
      <trkpt lat="48.78736" lon="2.51754">
        <ele>85.7</ele>
        <time>2015-06-08T19:45:03.796Z</time>
      </trkpt>
      <trkpt lat="48.78739" lon="2.51762">
        <ele>85.8</ele>
        <time>2015-06-08T19:45:04.804Z</time>
      </trkpt>
      <trkpt lat="48.78743" lon="2.51769">
        <ele>85.9</ele>
        <time>2015-06-08T19:45:05.811Z</time>
      </trkpt>
      <trkpt lat="48.78746" lon="2.51776">
        <ele>86</ele>
        <time>2015-06-08T19:45:06.705Z</time>
      </trkpt>
      <trkpt lat="48.7875" lon="2.51783">
        <ele>86.3</ele>
        <time>2015-06-08T19:45:07.710Z</time>
      </trkpt>
      <trkpt lat="48.78754" lon="2.51789">
        <ele>86.3</ele>
        <time>2015-06-08T19:45:08.809Z</time>
      </trkpt>
      <trkpt lat="48.78758" lon="2.51795">
        <ele>86.4</ele>
        <time>2015-06-08T19:45:09.812Z</time>
      </trkpt>
      <trkpt lat="48.78762" lon="2.51802">
        <ele>86.1</ele>
        <time>2015-06-08T19:45:10.827Z</time>
      </trkpt>
      <trkpt lat="48.78766" lon="2.51809">
        <ele>85.9</ele>
        <time>2015-06-08T19:45:11.740Z</time>
      </trkpt>
      <trkpt lat="48.78768" lon="2.51817">
        <ele>85.8</ele>
        <time>2015-06-08T19:45:12.746Z</time>
      </trkpt>
      <trkpt lat="48.78772" lon="2.51825">
        <ele>85.8</ele>
        <time>2015-06-08T19:45:13.747Z</time>
      </trkpt>
      <trkpt lat="48.78777" lon="2.5183">
        <ele>85.9</ele>
        <time>2015-06-08T19:45:14.811Z</time>
      </trkpt>
      <trkpt lat="48.78784" lon="2.51835">
        <ele>86.1</ele>
        <time>2015-06-08T19:45:15.809Z</time>
      </trkpt>
      <trkpt lat="48.7879" lon="2.51841">
        <ele>85.8</ele>
        <time>2015-06-08T19:45:16.741Z</time>
      </trkpt>
      <trkpt lat="48.78795" lon="2.51847">
        <ele>85.8</ele>
        <time>2015-06-08T19:45:17.740Z</time>
      </trkpt>
      <trkpt lat="48.788" lon="2.51852">
        <ele>86</ele>
        <time>2015-06-08T19:45:18.796Z</time>
      </trkpt>
      <trkpt lat="48.78806" lon="2.51858">
        <ele>86</ele>
        <time>2015-06-08T19:45:19.820Z</time>
      </trkpt>
      <trkpt lat="48.7881" lon="2.51863">
        <ele>86.1</ele>
        <time>2015-06-08T19:45:20.844Z</time>
      </trkpt>
      <trkpt lat="48.78814" lon="2.51869">
        <ele>86.3</ele>
        <time>2015-06-08T19:45:21.726Z</time>
      </trkpt>
      <trkpt lat="48.7882" lon="2.51875">
        <ele>86.3</ele>
        <time>2015-06-08T19:45:22.736Z</time>
      </trkpt>
      <trkpt lat="48.78826" lon="2.51882">
        <ele>86.5</ele>
        <time>2015-06-08T19:45:23.755Z</time>
      </trkpt>
      <trkpt lat="48.78833" lon="2.51888">
        <ele>86.4</ele>
        <time>2015-06-08T19:45:24.768Z</time>
      </trkpt>
      <trkpt lat="48.78839" lon="2.51894">
        <ele>86.6</ele>
        <time>2015-06-08T19:45:25.772Z</time>
      </trkpt>
      <trkpt lat="48.78845" lon="2.519">
        <ele>87.1</ele>
        <time>2015-06-08T19:45:26.789Z</time>
      </trkpt>
      <trkpt lat="48.78851" lon="2.51906">
        <ele>86.8</ele>
        <time>2015-06-08T19:45:27.795Z</time>
      </trkpt>
      <trkpt lat="48.78857" lon="2.51911">
        <ele>86.5</ele>
        <time>2015-06-08T19:45:28.813Z</time>
      </trkpt>
      <trkpt lat="48.78864" lon="2.51916">
        <ele>86.4</ele>
        <time>2015-06-08T19:45:29.729Z</time>
      </trkpt>
      <trkpt lat="48.78869" lon="2.51921">
        <ele>86.2</ele>
        <time>2015-06-08T19:45:30.759Z</time>
      </trkpt>
      <trkpt lat="48.78873" lon="2.51928">
        <ele>86.1</ele>
        <time>2015-06-08T19:45:31.760Z</time>
      </trkpt>
      <trkpt lat="48.78878" lon="2.51934">
        <ele>86.1</ele>
        <time>2015-06-08T19:45:32.799Z</time>
      </trkpt>
      <trkpt lat="48.78884" lon="2.51941">
        <ele>85.9</ele>
        <time>2015-06-08T19:45:33.800Z</time>
      </trkpt>
      <trkpt lat="48.78888" lon="2.51947">
        <ele>85.7</ele>
        <time>2015-06-08T19:45:34.695Z</time>
      </trkpt>
      <trkpt lat="48.78893" lon="2.51953">
        <ele>85.7</ele>
        <time>2015-06-08T19:45:35.713Z</time>
      </trkpt>
      <trkpt lat="48.78898" lon="2.51959">
        <ele>86.1</ele>
        <time>2015-06-08T19:45:36.717Z</time>
      </trkpt>
      <trkpt lat="48.78904" lon="2.51964">
        <ele>86.1</ele>
        <time>2015-06-08T19:45:37.729Z</time>
      </trkpt>
      <trkpt lat="48.78909" lon="2.51969">
        <ele>85.6</ele>
        <time>2015-06-08T19:45:38.811Z</time>
      </trkpt>
      <trkpt lat="48.78915" lon="2.51974">
        <ele>85.5</ele>
        <time>2015-06-08T19:45:39.805Z</time>
      </trkpt>
      <trkpt lat="48.78921" lon="2.5198">
        <ele>85.1</ele>
        <time>2015-06-08T19:45:40.717Z</time>
      </trkpt>
      <trkpt lat="48.78925" lon="2.51986">
        <ele>85.6</ele>
        <time>2015-06-08T19:45:41.717Z</time>
      </trkpt>
      <trkpt lat="48.7893" lon="2.51991">
        <ele>85.8</ele>
        <time>2015-06-08T19:45:42.724Z</time>
      </trkpt>
      <trkpt lat="48.78936" lon="2.51998">
        <ele>85.9</ele>
        <time>2015-06-08T19:45:43.728Z</time>
      </trkpt>
      <trkpt lat="48.78942" lon="2.52004">
        <ele>85.7</ele>
        <time>2015-06-08T19:45:44.771Z</time>
      </trkpt>
      <trkpt lat="48.78948" lon="2.5201">
        <ele>85.4</ele>
        <time>2015-06-08T19:45:45.791Z</time>
      </trkpt>
      <trkpt lat="48.78953" lon="2.52017">
        <ele>85.2</ele>
        <time>2015-06-08T19:45:46.797Z</time>
      </trkpt>
      <trkpt lat="48.78959" lon="2.52024">
        <ele>85.5</ele>
        <time>2015-06-08T19:45:47.720Z</time>
      </trkpt>
      <trkpt lat="48.78965" lon="2.52029">
        <ele>85.8</ele>
        <time>2015-06-08T19:45:48.731Z</time>
      </trkpt>
      <trkpt lat="48.78971" lon="2.52032">
        <ele>86.1</ele>
        <time>2015-06-08T19:45:49.746Z</time>
      </trkpt>
      <trkpt lat="48.78977" lon="2.52035">
        <ele>86.7</ele>
        <time>2015-06-08T19:45:50.753Z</time>
      </trkpt>
      <trkpt lat="48.78982" lon="2.52039">
        <ele>86.6</ele>
        <time>2015-06-08T19:45:51.762Z</time>
      </trkpt>
      <trkpt lat="48.78986" lon="2.52044">
        <ele>86.7</ele>
        <time>2015-06-08T19:45:52.770Z</time>
      </trkpt>
      <trkpt lat="48.78991" lon="2.52049">
        <ele>86.7</ele>
        <time>2015-06-08T19:45:53.774Z</time>
      </trkpt>
      <trkpt lat="48.78996" lon="2.52054">
        <ele>87</ele>
        <time>2015-06-08T19:45:54.736Z</time>
      </trkpt>
      <trkpt lat="48.79003" lon="2.52059">
        <ele>87.1</ele>
        <time>2015-06-08T19:45:55.717Z</time>
      </trkpt>
      <trkpt lat="48.79008" lon="2.52065">
        <ele>87.1</ele>
        <time>2015-06-08T19:45:56.753Z</time>
      </trkpt>
      <trkpt lat="48.79014" lon="2.52069">
        <ele>87.2</ele>
        <time>2015-06-08T19:45:57.748Z</time>
      </trkpt>
      <trkpt lat="48.79019" lon="2.52073">
        <ele>87.1</ele>
        <time>2015-06-08T19:45:58.754Z</time>
      </trkpt>
      <trkpt lat="48.79024" lon="2.52074">
        <ele>87.2</ele>
        <time>2015-06-08T19:45:59.759Z</time>
      </trkpt>
      <trkpt lat="48.7903" lon="2.52075">
        <ele>87.2</ele>
        <time>2015-06-08T19:46:00.774Z</time>
      </trkpt>
      <trkpt lat="48.79035" lon="2.52076">
        <ele>87</ele>
        <time>2015-06-08T19:46:01.775Z</time>
      </trkpt>
      <trkpt lat="48.79041" lon="2.52076">
        <ele>87.3</ele>
        <time>2015-06-08T19:46:02.790Z</time>
      </trkpt>
      <trkpt lat="48.79049" lon="2.52074">
        <ele>87</ele>
        <time>2015-06-08T19:46:03.702Z</time>
      </trkpt>
      <trkpt lat="48.79057" lon="2.52072">
        <ele>87.6</ele>
        <time>2015-06-08T19:46:04.714Z</time>
      </trkpt>
      <trkpt lat="48.79062" lon="2.52072">
        <ele>87.7</ele>
        <time>2015-06-08T19:46:05.726Z</time>
      </trkpt>
      <trkpt lat="48.79068" lon="2.52073">
        <ele>87.9</ele>
        <time>2015-06-08T19:46:06.729Z</time>
      </trkpt>
      <trkpt lat="48.79073" lon="2.52073">
        <ele>88.1</ele>
        <time>2015-06-08T19:46:07.734Z</time>
      </trkpt>
      <trkpt lat="48.7908" lon="2.52079">
        <ele>88</ele>
        <time>2015-06-08T19:46:09.758Z</time>
      </trkpt>
      <trkpt lat="48.79081" lon="2.52082">
        <ele>88.4</ele>
        <time>2015-06-08T19:46:10.770Z</time>
      </trkpt>
      <trkpt lat="48.79086" lon="2.52087">
        <ele>89.4</ele>
        <time>2015-06-08T19:50:41.798Z</time>
      </trkpt>
      <trkpt lat="48.79094" lon="2.52088">
        <ele>90.9</ele>
        <time>2015-06-08T19:50:42.746Z</time>
      </trkpt>
      <trkpt lat="48.79101" lon="2.52089">
        <ele>90.7</ele>
        <time>2015-06-08T19:50:46.782Z</time>
      </trkpt>
      <trkpt lat="48.79103" lon="2.52089">
        <ele>90.7</ele>
        <time>2015-06-08T19:50:47.742Z</time>
      </trkpt>
      <trkpt lat="48.79112" lon="2.5209">
        <ele>90.7</ele>
        <time>2015-06-08T19:50:51.740Z</time>
      </trkpt>
      <trkpt lat="48.79114" lon="2.52091">
        <ele>90.9</ele>
        <time>2015-06-08T19:50:52.838Z</time>
      </trkpt>
      <trkpt lat="48.7912" lon="2.52099">
        <ele>91</ele>
        <time>2015-06-08T19:50:56.792Z</time>
      </trkpt>
      <trkpt lat="48.79121" lon="2.52101">
        <ele>90.8</ele>
        <time>2015-06-08T19:50:57.793Z</time>
      </trkpt>
      <trkpt lat="48.79126" lon="2.52103">
        <ele>90.6</ele>
        <time>2015-06-08T19:50:59.816Z</time>
      </trkpt>
      <trkpt lat="48.79131" lon="2.52102">
        <ele>90.5</ele>
        <time>2015-06-08T19:51:00.754Z</time>
      </trkpt>
      <trkpt lat="48.79136" lon="2.52101">
        <ele>90.5</ele>
        <time>2015-06-08T19:51:01.694Z</time>
      </trkpt>
      <trkpt lat="48.7914" lon="2.52097">
        <ele>90.5</ele>
        <time>2015-06-08T19:51:02.788Z</time>
      </trkpt>
      <trkpt lat="48.79144" lon="2.52093">
        <ele>90.4</ele>
        <time>2015-06-08T19:51:03.779Z</time>
      </trkpt>
      <trkpt lat="48.79148" lon="2.52088">
        <ele>90.4</ele>
        <time>2015-06-08T19:51:04.663Z</time>
      </trkpt>
      <trkpt lat="48.79152" lon="2.52078">
        <ele>90.2</ele>
        <time>2015-06-08T19:51:06.695Z</time>
      </trkpt>
      <trkpt lat="48.79155" lon="2.52072">
        <ele>90.1</ele>
        <time>2015-06-08T19:51:07.785Z</time>
      </trkpt>
      <trkpt lat="48.79159" lon="2.5206">
        <ele>90.1</ele>
        <time>2015-06-08T19:51:10.717Z</time>
      </trkpt>
      <trkpt lat="48.79163" lon="2.52053">
        <ele>89.7</ele>
        <time>2015-06-08T19:51:10.775Z</time>
      </trkpt>
      <trkpt lat="48.79169" lon="2.52048">
        <ele>89.4</ele>
        <time>2015-06-08T19:51:12.650Z</time>
      </trkpt>
      <trkpt lat="48.79172" lon="2.52047">
        <ele>89.6</ele>
        <time>2015-06-08T19:51:13.687Z</time>
      </trkpt>
      <trkpt lat="48.79179" lon="2.52046">
        <ele>90</ele>
        <time>2015-06-08T19:51:14.679Z</time>
      </trkpt>
      <trkpt lat="48.79183" lon="2.52046">
        <ele>90.4</ele>
        <time>2015-06-08T19:51:15.692Z</time>
      </trkpt>
      <trkpt lat="48.7919" lon="2.52054">
        <ele>90.8</ele>
        <time>2015-06-08T19:51:17.704Z</time>
      </trkpt>
      <trkpt lat="48.79192" lon="2.52058">
        <ele>90.8</ele>
        <time>2015-06-08T19:51:18.849Z</time>
      </trkpt>
      <trkpt lat="48.79196" lon="2.52062">
        <ele>90.8</ele>
        <time>2015-06-08T19:51:19.667Z</time>
      </trkpt>
      <trkpt lat="48.79199" lon="2.5207">
        <ele>89.8</ele>
        <time>2015-06-08T19:51:20.693Z</time>
      </trkpt>
      <trkpt lat="48.79202" lon="2.52083">
        <ele>89.2</ele>
        <time>2015-06-08T19:51:22.723Z</time>
      </trkpt>
      <trkpt lat="48.79201" lon="2.52089">
        <ele>89.3</ele>
        <time>2015-06-08T19:51:23.738Z</time>
      </trkpt>
      <trkpt lat="48.792" lon="2.521">
        <ele>89.4</ele>
        <time>2015-06-08T19:51:25.672Z</time>
      </trkpt>
      <trkpt lat="48.79202" lon="2.52105">
        <ele>88.8</ele>
        <time>2015-06-08T19:51:26.721Z</time>
      </trkpt>
      <trkpt lat="48.79203" lon="2.52112">
        <ele>88.5</ele>
        <time>2015-06-08T19:51:27.667Z</time>
      </trkpt>
      <trkpt lat="48.79204" lon="2.52121">
        <ele>88.3</ele>
        <time>2015-06-08T19:51:28.665Z</time>
      </trkpt>
      <trkpt lat="48.79205" lon="2.52132">
        <ele>87.9</ele>
        <time>2015-06-08T19:51:29.667Z</time>
      </trkpt>
      <trkpt lat="48.79207" lon="2.52139">
        <ele>88.1</ele>
        <time>2015-06-08T19:51:30.701Z</time>
      </trkpt>
      <trkpt lat="48.79211" lon="2.52148">
        <ele>88.6</ele>
        <time>2015-06-08T19:51:32.739Z</time>
      </trkpt>
      <trkpt lat="48.79214" lon="2.52152">
        <ele>88.9</ele>
        <time>2015-06-08T19:51:33.703Z</time>
      </trkpt>
      <trkpt lat="48.79221" lon="2.52157">
        <ele>88.3</ele>
        <time>2015-06-08T19:51:35.692Z</time>
      </trkpt>
      <trkpt lat="48.79227" lon="2.52161">
        <ele>88.2</ele>
        <time>2015-06-08T19:51:36.734Z</time>
      </trkpt>
      <trkpt lat="48.79234" lon="2.52163">
        <ele>87.7</ele>
        <time>2015-06-08T19:51:37.678Z</time>
      </trkpt>
      <trkpt lat="48.79239" lon="2.52163">
        <ele>87.7</ele>
        <time>2015-06-08T19:51:38.724Z</time>
      </trkpt>
      <trkpt lat="48.79243" lon="2.52164">
        <ele>87.7</ele>
        <time>2015-06-08T19:51:39.722Z</time>
      </trkpt>
      <trkpt lat="48.79248" lon="2.52167">
        <ele>87.5</ele>
        <time>2015-06-08T19:51:40.734Z</time>
      </trkpt>
      <trkpt lat="48.79253" lon="2.52169">
        <ele>87.3</ele>
        <time>2015-06-08T19:51:41.740Z</time>
      </trkpt>
      <trkpt lat="48.79258" lon="2.52172">
        <ele>86.9</ele>
        <time>2015-06-08T19:51:42.750Z</time>
      </trkpt>
      <trkpt lat="48.79263" lon="2.52173">
        <ele>86.5</ele>
        <time>2015-06-08T19:51:43.653Z</time>
      </trkpt>
      <trkpt lat="48.79269" lon="2.52174">
        <ele>85.9</ele>
        <time>2015-06-08T19:51:44.724Z</time>
      </trkpt>
      <trkpt lat="48.79277" lon="2.52179">
        <ele>84.9</ele>
        <time>2015-06-08T19:51:46.732Z</time>
      </trkpt>
      <trkpt lat="48.7928" lon="2.52181">
        <ele>85</ele>
        <time>2015-06-08T19:51:47.788Z</time>
      </trkpt>
      <trkpt lat="48.79288" lon="2.52185">
        <ele>85.8</ele>
        <time>2015-06-08T19:51:49.743Z</time>
      </trkpt>
      <trkpt lat="48.79292" lon="2.52186">
        <ele>86.3</ele>
        <time>2015-06-08T19:51:50.771Z</time>
      </trkpt>
      <trkpt lat="48.79296" lon="2.52187">
        <ele>86.6</ele>
        <time>2015-06-08T19:51:51.760Z</time>
      </trkpt>
      <trkpt lat="48.79301" lon="2.52188">
        <ele>85.7</ele>
        <time>2015-06-08T19:51:52.690Z</time>
      </trkpt>
      <trkpt lat="48.79306" lon="2.52189">
        <ele>85.7</ele>
        <time>2015-06-08T19:51:53.722Z</time>
      </trkpt>
      <trkpt lat="48.79312" lon="2.52188">
        <ele>85.9</ele>
        <time>2015-06-08T19:51:54.722Z</time>
      </trkpt>
      <trkpt lat="48.79317" lon="2.52188">
        <ele>86</ele>
        <time>2015-06-08T19:51:55.741Z</time>
      </trkpt>
      <trkpt lat="48.79322" lon="2.52189">
        <ele>86.1</ele>
        <time>2015-06-08T19:51:56.749Z</time>
      </trkpt>
      <trkpt lat="48.79327" lon="2.52188">
        <ele>86.3</ele>
        <time>2015-06-08T19:51:57.680Z</time>
      </trkpt>
      <trkpt lat="48.79332" lon="2.52188">
        <ele>86.5</ele>
        <time>2015-06-08T19:51:58.688Z</time>
      </trkpt>
      <trkpt lat="48.79337" lon="2.52189">
        <ele>86.2</ele>
        <time>2015-06-08T19:51:59.749Z</time>
      </trkpt>
      <trkpt lat="48.79341" lon="2.52191">
        <ele>86.3</ele>
        <time>2015-06-08T19:52:00.747Z</time>
      </trkpt>
      <trkpt lat="48.79346" lon="2.52192">
        <ele>85.8</ele>
        <time>2015-06-08T19:52:01.871Z</time>
      </trkpt>
      <trkpt lat="48.79352" lon="2.52191">
        <ele>85.7</ele>
        <time>2015-06-08T19:52:02.842Z</time>
      </trkpt>
      <trkpt lat="48.79359" lon="2.52191">
        <ele>85.9</ele>
        <time>2015-06-08T19:52:03.687Z</time>
      </trkpt>
      <trkpt lat="48.79366" lon="2.5219">
        <ele>86</ele>
        <time>2015-06-08T19:52:04.711Z</time>
      </trkpt>
      <trkpt lat="48.79373" lon="2.5219">
        <ele>86</ele>
        <time>2015-06-08T19:52:05.733Z</time>
      </trkpt>
      <trkpt lat="48.79379" lon="2.5219">
        <ele>85.9</ele>
        <time>2015-06-08T19:52:06.744Z</time>
      </trkpt>
      <trkpt lat="48.79383" lon="2.52189">
        <ele>85.6</ele>
        <time>2015-06-08T19:52:07.688Z</time>
      </trkpt>
      <trkpt lat="48.79389" lon="2.52188">
        <ele>85.5</ele>
        <time>2015-06-08T19:52:08.734Z</time>
      </trkpt>
      <trkpt lat="48.79397" lon="2.5219">
        <ele>85.1</ele>
        <time>2015-06-08T19:52:10.752Z</time>
      </trkpt>
      <trkpt lat="48.79402" lon="2.52191">
        <ele>85</ele>
        <time>2015-06-08T19:52:11.763Z</time>
      </trkpt>
      <trkpt lat="48.7941" lon="2.52194">
        <ele>84.7</ele>
        <time>2015-06-08T19:52:13.699Z</time>
      </trkpt>
      <trkpt lat="48.79416" lon="2.52195">
        <ele>84.9</ele>
        <time>2015-06-08T19:52:14.762Z</time>
      </trkpt>
      <trkpt lat="48.79424" lon="2.52197">
        <ele>85.5</ele>
        <time>2015-06-08T19:52:16.690Z</time>
      </trkpt>
      <trkpt lat="48.79428" lon="2.52197">
        <ele>86</ele>
        <time>2015-06-08T19:52:17.692Z</time>
      </trkpt>
      <trkpt lat="48.79436" lon="2.52199">
        <ele>87.1</ele>
        <time>2015-06-08T19:52:19.722Z</time>
      </trkpt>
      <trkpt lat="48.7944" lon="2.52201">
        <ele>86.8</ele>
        <time>2015-06-08T19:52:20.769Z</time>
      </trkpt>
      <trkpt lat="48.79449" lon="2.52202">
        <ele>87.7</ele>
        <time>2015-06-08T19:52:22.724Z</time>
      </trkpt>
      <trkpt lat="48.79454" lon="2.52202">
        <ele>87.8</ele>
        <time>2015-06-08T19:52:23.756Z</time>
      </trkpt>
      <trkpt lat="48.79459" lon="2.52202">
        <ele>87.4</ele>
        <time>2015-06-08T19:52:24.773Z</time>
      </trkpt>
      <trkpt lat="48.79465" lon="2.52203">
        <ele>87.1</ele>
        <time>2015-06-08T19:52:25.778Z</time>
      </trkpt>
      <trkpt lat="48.7947" lon="2.52205">
        <ele>87</ele>
        <time>2015-06-08T19:52:26.794Z</time>
      </trkpt>
      <trkpt lat="48.79477" lon="2.52205">
        <ele>86.8</ele>
        <time>2015-06-08T19:52:27.691Z</time>
      </trkpt>
      <trkpt lat="48.79483" lon="2.52205">
        <ele>86.9</ele>
        <time>2015-06-08T19:52:28.710Z</time>
      </trkpt>
      <trkpt lat="48.7949" lon="2.52206">
        <ele>87.2</ele>
        <time>2015-06-08T19:52:29.716Z</time>
      </trkpt>
      <trkpt lat="48.79498" lon="2.52207">
        <ele>87.2</ele>
        <time>2015-06-08T19:52:30.740Z</time>
      </trkpt>
      <trkpt lat="48.79504" lon="2.52209">
        <ele>87</ele>
        <time>2015-06-08T19:52:31.757Z</time>
      </trkpt>
      <trkpt lat="48.79511" lon="2.5221">
        <ele>87.1</ele>
        <time>2015-06-08T19:52:32.821Z</time>
      </trkpt>
      <trkpt lat="48.79515" lon="2.52211">
        <ele>87.3</ele>
        <time>2015-06-08T19:52:33.685Z</time>
      </trkpt>
      <trkpt lat="48.7952" lon="2.52211">
        <ele>87.3</ele>
        <time>2015-06-08T19:52:34.716Z</time>
      </trkpt>
      <trkpt lat="48.79528" lon="2.52209">
        <ele>87.3</ele>
        <time>2015-06-08T19:52:35.732Z</time>
      </trkpt>
      <trkpt lat="48.79536" lon="2.52214">
        <ele>87.5</ele>
        <time>2015-06-08T19:52:37.661Z</time>
      </trkpt>
      <trkpt lat="48.79542" lon="2.52217">
        <ele>87.5</ele>
        <time>2015-06-08T19:52:38.749Z</time>
      </trkpt>
      <trkpt lat="48.79548" lon="2.52219">
        <ele>87.5</ele>
        <time>2015-06-08T19:52:39.687Z</time>
      </trkpt>
      <trkpt lat="48.79554" lon="2.52221">
        <ele>87.6</ele>
        <time>2015-06-08T19:52:40.688Z</time>
      </trkpt>
      <trkpt lat="48.79559" lon="2.52223">
        <ele>87.2</ele>
        <time>2015-06-08T19:52:41.709Z</time>
      </trkpt>
      <trkpt lat="48.79563" lon="2.52225">
        <ele>86.9</ele>
        <time>2015-06-08T19:52:42.700Z</time>
      </trkpt>
      <trkpt lat="48.79571" lon="2.5223">
        <ele>85.9</ele>
        <time>2015-06-08T19:52:44.722Z</time>
      </trkpt>
      <trkpt lat="48.79573" lon="2.52232">
        <ele>85.5</ele>
        <time>2015-06-08T19:52:45.751Z</time>
      </trkpt>
      <trkpt lat="48.79582" lon="2.52236">
        <ele>85.2</ele>
        <time>2015-06-08T19:52:47.699Z</time>
      </trkpt>
      <trkpt lat="48.79588" lon="2.52237">
        <ele>84.9</ele>
        <time>2015-06-08T19:52:48.755Z</time>
      </trkpt>
      <trkpt lat="48.79594" lon="2.52237">
        <ele>85</ele>
        <time>2015-06-08T19:52:49.697Z</time>
      </trkpt>
      <trkpt lat="48.796" lon="2.52237">
        <ele>85.3</ele>
        <time>2015-06-08T19:52:50.732Z</time>
      </trkpt>
      <trkpt lat="48.79607" lon="2.52238">
        <ele>85.4</ele>
        <time>2015-06-08T19:52:51.736Z</time>
      </trkpt>
      <trkpt lat="48.79614" lon="2.52239">
        <ele>85.4</ele>
        <time>2015-06-08T19:52:52.751Z</time>
      </trkpt>
      <trkpt lat="48.79619" lon="2.5224">
        <ele>85.3</ele>
        <time>2015-06-08T19:52:53.759Z</time>
      </trkpt>
      <trkpt lat="48.79624" lon="2.52241">
        <ele>85.4</ele>
        <time>2015-06-08T19:52:54.763Z</time>
      </trkpt>
      <trkpt lat="48.79628" lon="2.52243">
        <ele>85.3</ele>
        <time>2015-06-08T19:52:55.710Z</time>
      </trkpt>
      <trkpt lat="48.79633" lon="2.52245">
        <ele>85.2</ele>
        <time>2015-06-08T19:52:56.824Z</time>
      </trkpt>
      <trkpt lat="48.79639" lon="2.52247">
        <ele>85.3</ele>
        <time>2015-06-08T19:52:57.684Z</time>
      </trkpt>
      <trkpt lat="48.79645" lon="2.52248">
        <ele>85.2</ele>
        <time>2015-06-08T19:52:58.709Z</time>
      </trkpt>
      <trkpt lat="48.79651" lon="2.52248">
        <ele>85</ele>
        <time>2015-06-08T19:52:59.692Z</time>
      </trkpt>
      <trkpt lat="48.79658" lon="2.52246">
        <ele>85.1</ele>
        <time>2015-06-08T19:53:00.684Z</time>
      </trkpt>
      <trkpt lat="48.79665" lon="2.52247">
        <ele>84.9</ele>
        <time>2015-06-08T19:53:01.699Z</time>
      </trkpt>
      <trkpt lat="48.7967" lon="2.52248">
        <ele>84.8</ele>
        <time>2015-06-08T19:53:02.762Z</time>
      </trkpt>
      <trkpt lat="48.79677" lon="2.52249">
        <ele>84.7</ele>
        <time>2015-06-08T19:53:03.764Z</time>
      </trkpt>
      <trkpt lat="48.79684" lon="2.5225">
        <ele>84.4</ele>
        <time>2015-06-08T19:53:04.773Z</time>
      </trkpt>
      <trkpt lat="48.79688" lon="2.52251">
        <ele>84.5</ele>
        <time>2015-06-08T19:53:05.785Z</time>
      </trkpt>
      <trkpt lat="48.79695" lon="2.5225">
        <ele>85.1</ele>
        <time>2015-06-08T19:53:06.704Z</time>
      </trkpt>
      <trkpt lat="48.797" lon="2.52251">
        <ele>84.9</ele>
        <time>2015-06-08T19:53:07.704Z</time>
      </trkpt>
      <trkpt lat="48.79705" lon="2.52249">
        <ele>85.1</ele>
        <time>2015-06-08T19:53:08.750Z</time>
      </trkpt>
      <trkpt lat="48.79711" lon="2.52246">
        <ele>85.5</ele>
        <time>2015-06-08T19:53:09.768Z</time>
      </trkpt>
      <trkpt lat="48.79716" lon="2.52246">
        <ele>85.3</ele>
        <time>2015-06-08T19:53:10.686Z</time>
      </trkpt>
      <trkpt lat="48.79723" lon="2.52246">
        <ele>85.6</ele>
        <time>2015-06-08T19:53:11.688Z</time>
      </trkpt>
      <trkpt lat="48.79734" lon="2.52242">
        <ele>85.9</ele>
        <time>2015-06-08T19:53:12.701Z</time>
      </trkpt>
      <trkpt lat="48.79743" lon="2.52239">
        <ele>86.2</ele>
        <time>2015-06-08T19:53:13.715Z</time>
      </trkpt>
      <trkpt lat="48.7975" lon="2.52237">
        <ele>86.3</ele>
        <time>2015-06-08T19:53:14.743Z</time>
      </trkpt>
      <trkpt lat="48.79758" lon="2.52234">
        <ele>86.6</ele>
        <time>2015-06-08T19:53:15.743Z</time>
      </trkpt>
      <trkpt lat="48.79763" lon="2.52232">
        <ele>86.8</ele>
        <time>2015-06-08T19:53:16.763Z</time>
      </trkpt>
      <trkpt lat="48.79769" lon="2.52231">
        <ele>86.8</ele>
        <time>2015-06-08T19:53:17.780Z</time>
      </trkpt>
      <trkpt lat="48.79775" lon="2.5223">
        <ele>86.9</ele>
        <time>2015-06-08T19:53:18.704Z</time>
      </trkpt>
      <trkpt lat="48.79782" lon="2.52228">
        <ele>86.4</ele>
        <time>2015-06-08T19:53:19.703Z</time>
      </trkpt>
      <trkpt lat="48.79789" lon="2.52229">
        <ele>86</ele>
        <time>2015-06-08T19:53:20.765Z</time>
      </trkpt>
      <trkpt lat="48.79794" lon="2.52228">
        <ele>85.4</ele>
        <time>2015-06-08T19:53:21.758Z</time>
      </trkpt>
      <trkpt lat="48.798" lon="2.52227">
        <ele>85.1</ele>
        <time>2015-06-08T19:53:22.773Z</time>
      </trkpt>
      <trkpt lat="48.79806" lon="2.52226">
        <ele>85.1</ele>
        <time>2015-06-08T19:53:23.788Z</time>
      </trkpt>
      <trkpt lat="48.79811" lon="2.52225">
        <ele>85.2</ele>
        <time>2015-06-08T19:53:24.719Z</time>
      </trkpt>
      <trkpt lat="48.79816" lon="2.52224">
        <ele>85.2</ele>
        <time>2015-06-08T19:53:25.695Z</time>
      </trkpt>
      <trkpt lat="48.79822" lon="2.52223">
        <ele>85.2</ele>
        <time>2015-06-08T19:53:26.746Z</time>
      </trkpt>
      <trkpt lat="48.79828" lon="2.52222">
        <ele>85.2</ele>
        <time>2015-06-08T19:53:27.749Z</time>
      </trkpt>
      <trkpt lat="48.79834" lon="2.52222">
        <ele>85.4</ele>
        <time>2015-06-08T19:53:28.759Z</time>
      </trkpt>
      <trkpt lat="48.7984" lon="2.52221">
        <ele>85.7</ele>
        <time>2015-06-08T19:53:29.770Z</time>
      </trkpt>
      <trkpt lat="48.79846" lon="2.52221">
        <ele>85.5</ele>
        <time>2015-06-08T19:53:30.775Z</time>
      </trkpt>
      <trkpt lat="48.79851" lon="2.5222">
        <ele>85.6</ele>
        <time>2015-06-08T19:53:31.778Z</time>
      </trkpt>
      <trkpt lat="48.79855" lon="2.5222">
        <ele>85.8</ele>
        <time>2015-06-08T19:53:32.799Z</time>
      </trkpt>
      <trkpt lat="48.7986" lon="2.52221">
        <ele>85.4</ele>
        <time>2015-06-08T19:53:33.702Z</time>
      </trkpt>
      <trkpt lat="48.79864" lon="2.52221">
        <ele>85.3</ele>
        <time>2015-06-08T19:53:34.708Z</time>
      </trkpt>
      <trkpt lat="48.79869" lon="2.5222">
        <ele>85.2</ele>
        <time>2015-06-08T19:53:35.722Z</time>
      </trkpt>
      <trkpt lat="48.79874" lon="2.52219">
        <ele>85.4</ele>
        <time>2015-06-08T19:53:36.736Z</time>
      </trkpt>
      <trkpt lat="48.7988" lon="2.52218">
        <ele>85.3</ele>
        <time>2015-06-08T19:53:37.749Z</time>
      </trkpt>
      <trkpt lat="48.79885" lon="2.52216">
        <ele>85.3</ele>
        <time>2015-06-08T19:53:38.763Z</time>
      </trkpt>
      <trkpt lat="48.79892" lon="2.52216">
        <ele>85.4</ele>
        <time>2015-06-08T19:53:39.780Z</time>
      </trkpt>
      <trkpt lat="48.79899" lon="2.52215">
        <ele>85.4</ele>
        <time>2015-06-08T19:53:40.696Z</time>
      </trkpt>
      <trkpt lat="48.79906" lon="2.52214">
        <ele>85</ele>
        <time>2015-06-08T19:53:41.698Z</time>
      </trkpt>
      <trkpt lat="48.79913" lon="2.52213">
        <ele>84.6</ele>
        <time>2015-06-08T19:53:42.725Z</time>
      </trkpt>
      <trkpt lat="48.79922" lon="2.52213">
        <ele>84.1</ele>
        <time>2015-06-08T19:53:43.733Z</time>
      </trkpt>
      <trkpt lat="48.79931" lon="2.5221">
        <ele>83.8</ele>
        <time>2015-06-08T19:53:44.753Z</time>
      </trkpt>
      <trkpt lat="48.79941" lon="2.52209">
        <ele>83.5</ele>
        <time>2015-06-08T19:53:45.751Z</time>
      </trkpt>
      <trkpt lat="48.79949" lon="2.52206">
        <ele>83.2</ele>
        <time>2015-06-08T19:53:46.773Z</time>
      </trkpt>
      <trkpt lat="48.79957" lon="2.52205">
        <ele>83.1</ele>
        <time>2015-06-08T19:53:47.707Z</time>
      </trkpt>
      <trkpt lat="48.79965" lon="2.52206">
        <ele>83.3</ele>
        <time>2015-06-08T19:53:48.690Z</time>
      </trkpt>
      <trkpt lat="48.79971" lon="2.52204">
        <ele>83.3</ele>
        <time>2015-06-08T19:53:49.699Z</time>
      </trkpt>
      <trkpt lat="48.7998" lon="2.52201">
        <ele>82.5</ele>
        <time>2015-06-08T19:53:50.750Z</time>
      </trkpt>
      <trkpt lat="48.79985" lon="2.522">
        <ele>82.2</ele>
        <time>2015-06-08T19:53:51.756Z</time>
      </trkpt>
      <trkpt lat="48.79991" lon="2.52201">
        <ele>82.3</ele>
        <time>2015-06-08T19:53:52.767Z</time>
      </trkpt>
      <trkpt lat="48.79996" lon="2.52204">
        <ele>82.4</ele>
        <time>2015-06-08T19:53:53.701Z</time>
      </trkpt>
      <trkpt lat="48.80001" lon="2.52208">
        <ele>82.4</ele>
        <time>2015-06-08T19:53:54.700Z</time>
      </trkpt>
      <trkpt lat="48.80005" lon="2.52212">
        <ele>82.5</ele>
        <time>2015-06-08T19:53:55.704Z</time>
      </trkpt>
      <trkpt lat="48.80009" lon="2.52216">
        <ele>82.9</ele>
        <time>2015-06-08T19:53:56.744Z</time>
      </trkpt>
      <trkpt lat="48.80018" lon="2.52219">
        <ele>84</ele>
        <time>2015-06-08T19:53:58.754Z</time>
      </trkpt>
      <trkpt lat="48.80025" lon="2.52217">
        <ele>84.2</ele>
        <time>2015-06-08T19:53:59.720Z</time>
      </trkpt>
      <trkpt lat="48.80033" lon="2.52216">
        <ele>84.7</ele>
        <time>2015-06-08T19:54:00.674Z</time>
      </trkpt>
      <trkpt lat="48.80043" lon="2.52214">
        <ele>84.4</ele>
        <time>2015-06-08T19:54:01.700Z</time>
      </trkpt>
      <trkpt lat="48.80052" lon="2.52214">
        <ele>84.5</ele>
        <time>2015-06-08T19:54:02.748Z</time>
      </trkpt>
      <trkpt lat="48.80061" lon="2.52213">
        <ele>84.8</ele>
        <time>2015-06-08T19:54:03.749Z</time>
      </trkpt>
      <trkpt lat="48.80067" lon="2.52213">
        <ele>84.7</ele>
        <time>2015-06-08T19:54:04.767Z</time>
      </trkpt>
      <trkpt lat="48.80073" lon="2.52214">
        <ele>84.7</ele>
        <time>2015-06-08T19:54:05.687Z</time>
      </trkpt>
      <trkpt lat="48.8008" lon="2.52217">
        <ele>84.8</ele>
        <time>2015-06-08T19:54:06.691Z</time>
      </trkpt>
      <trkpt lat="48.80087" lon="2.52219">
        <ele>85.2</ele>
        <time>2015-06-08T19:54:07.708Z</time>
      </trkpt>
      <trkpt lat="48.80094" lon="2.52221">
        <ele>85.3</ele>
        <time>2015-06-08T19:54:08.728Z</time>
      </trkpt>
      <trkpt lat="48.80102" lon="2.52223">
        <ele>85.9</ele>
        <time>2015-06-08T19:54:09.699Z</time>
      </trkpt>
      <trkpt lat="48.8011" lon="2.52225">
        <ele>86.3</ele>
        <time>2015-06-08T19:54:10.702Z</time>
      </trkpt>
      <trkpt lat="48.8012" lon="2.52226">
        <ele>86.7</ele>
        <time>2015-06-08T19:54:11.726Z</time>
      </trkpt>
      <trkpt lat="48.80126" lon="2.52226">
        <ele>86.1</ele>
        <time>2015-06-08T19:54:12.714Z</time>
      </trkpt>
      <trkpt lat="48.80132" lon="2.52228">
        <ele>86</ele>
        <time>2015-06-08T19:54:13.742Z</time>
      </trkpt>
      <trkpt lat="48.80141" lon="2.52229">
        <ele>85.6</ele>
        <time>2015-06-08T19:54:14.786Z</time>
      </trkpt>
      <trkpt lat="48.80148" lon="2.52229">
        <ele>85.3</ele>
        <time>2015-06-08T19:54:15.762Z</time>
      </trkpt>
      <trkpt lat="48.80155" lon="2.52231">
        <ele>85.5</ele>
        <time>2015-06-08T19:54:16.730Z</time>
      </trkpt>
      <trkpt lat="48.80161" lon="2.52232">
        <ele>86</ele>
        <time>2015-06-08T19:54:17.698Z</time>
      </trkpt>
      <trkpt lat="48.80168" lon="2.52232">
        <ele>86.3</ele>
        <time>2015-06-08T19:54:18.720Z</time>
      </trkpt>
      <trkpt lat="48.80174" lon="2.52231">
        <ele>85.9</ele>
        <time>2015-06-08T19:54:19.737Z</time>
      </trkpt>
      <trkpt lat="48.80181" lon="2.52231">
        <ele>85.1</ele>
        <time>2015-06-08T19:54:20.738Z</time>
      </trkpt>
      <trkpt lat="48.80188" lon="2.5223">
        <ele>85</ele>
        <time>2015-06-08T19:54:21.741Z</time>
      </trkpt>
      <trkpt lat="48.80196" lon="2.5223">
        <ele>85.9</ele>
        <time>2015-06-08T19:54:22.758Z</time>
      </trkpt>
      <trkpt lat="48.80203" lon="2.5223">
        <ele>85.7</ele>
        <time>2015-06-08T19:54:23.666Z</time>
      </trkpt>
      <trkpt lat="48.80209" lon="2.52229">
        <ele>86.1</ele>
        <time>2015-06-08T19:54:24.723Z</time>
      </trkpt>
      <trkpt lat="48.80216" lon="2.52229">
        <ele>85.8</ele>
        <time>2015-06-08T19:54:25.729Z</time>
      </trkpt>
      <trkpt lat="48.80222" lon="2.52229">
        <ele>85.2</ele>
        <time>2015-06-08T19:54:26.770Z</time>
      </trkpt>
      <trkpt lat="48.8023" lon="2.52229">
        <ele>85</ele>
        <time>2015-06-08T19:54:27.678Z</time>
      </trkpt>
      <trkpt lat="48.80235" lon="2.52227">
        <ele>84.9</ele>
        <time>2015-06-08T19:54:28.723Z</time>
      </trkpt>
      <trkpt lat="48.80242" lon="2.52224">
        <ele>85.5</ele>
        <time>2015-06-08T19:54:29.743Z</time>
      </trkpt>
      <trkpt lat="48.8025" lon="2.52222">
        <ele>85.8</ele>
        <time>2015-06-08T19:54:30.729Z</time>
      </trkpt>
      <trkpt lat="48.80256" lon="2.52221">
        <ele>85.9</ele>
        <time>2015-06-08T19:54:31.720Z</time>
      </trkpt>
      <trkpt lat="48.80267" lon="2.5222">
        <ele>85.9</ele>
        <time>2015-06-08T19:54:32.774Z</time>
      </trkpt>
      <trkpt lat="48.80276" lon="2.5222">
        <ele>85.6</ele>
        <time>2015-06-08T19:54:33.699Z</time>
      </trkpt>
      <trkpt lat="48.80284" lon="2.52219">
        <ele>85.6</ele>
        <time>2015-06-08T19:54:34.696Z</time>
      </trkpt>
      <trkpt lat="48.8029" lon="2.52217">
        <ele>85.8</ele>
        <time>2015-06-08T19:54:35.727Z</time>
      </trkpt>
      <trkpt lat="48.80296" lon="2.52214">
        <ele>86.1</ele>
        <time>2015-06-08T19:54:36.758Z</time>
      </trkpt>
      <trkpt lat="48.80303" lon="2.52211">
        <ele>86.3</ele>
        <time>2015-06-08T19:54:37.768Z</time>
      </trkpt>
      <trkpt lat="48.80309" lon="2.52209">
        <ele>86.2</ele>
        <time>2015-06-08T19:54:38.827Z</time>
      </trkpt>
      <trkpt lat="48.80315" lon="2.52207">
        <ele>86.4</ele>
        <time>2015-06-08T19:54:39.697Z</time>
      </trkpt>
      <trkpt lat="48.80322" lon="2.52206">
        <ele>86.5</ele>
        <time>2015-06-08T19:54:40.728Z</time>
      </trkpt>
      <trkpt lat="48.80329" lon="2.52205">
        <ele>86.5</ele>
        <time>2015-06-08T19:54:41.778Z</time>
      </trkpt>
      <trkpt lat="48.80335" lon="2.52203">
        <ele>86.3</ele>
        <time>2015-06-08T19:54:42.689Z</time>
      </trkpt>
      <trkpt lat="48.80339" lon="2.52203">
        <ele>86.6</ele>
        <time>2015-06-08T19:54:43.713Z</time>
      </trkpt>
      <trkpt lat="48.80343" lon="2.52202">
        <ele>86.9</ele>
        <time>2015-06-08T19:54:44.742Z</time>
      </trkpt>
      <trkpt lat="48.80348" lon="2.52202">
        <ele>87.1</ele>
        <time>2015-06-08T19:54:45.742Z</time>
      </trkpt>
      <trkpt lat="48.80357" lon="2.52201">
        <ele>87.5</ele>
        <time>2015-06-08T19:54:47.769Z</time>
      </trkpt>
      <trkpt lat="48.80361" lon="2.522">
        <ele>87.3</ele>
        <time>2015-06-08T19:54:48.687Z</time>
      </trkpt>
      <trkpt lat="48.80366" lon="2.52198">
        <ele>87.5</ele>
        <time>2015-06-08T19:54:49.686Z</time>
      </trkpt>
      <trkpt lat="48.80372" lon="2.52196">
        <ele>88.2</ele>
        <time>2015-06-08T19:54:50.751Z</time>
      </trkpt>
      <trkpt lat="48.80378" lon="2.52193">
        <ele>88.2</ele>
        <time>2015-06-08T19:54:51.770Z</time>
      </trkpt>
      <trkpt lat="48.80384" lon="2.52191">
        <ele>88.6</ele>
        <time>2015-06-08T19:54:52.690Z</time>
      </trkpt>
      <trkpt lat="48.8039" lon="2.52188">
        <ele>88.5</ele>
        <time>2015-06-08T19:54:53.682Z</time>
      </trkpt>
      <trkpt lat="48.80398" lon="2.52184">
        <ele>88.5</ele>
        <time>2015-06-08T19:54:54.692Z</time>
      </trkpt>
      <trkpt lat="48.80405" lon="2.52181">
        <ele>88</ele>
        <time>2015-06-08T19:54:55.707Z</time>
      </trkpt>
      <trkpt lat="48.80411" lon="2.52179">
        <ele>87.7</ele>
        <time>2015-06-08T19:54:56.728Z</time>
      </trkpt>
      <trkpt lat="48.80418" lon="2.52177">
        <ele>87.8</ele>
        <time>2015-06-08T19:54:57.719Z</time>
      </trkpt>
      <trkpt lat="48.80424" lon="2.52176">
        <ele>88</ele>
        <time>2015-06-08T19:54:58.729Z</time>
      </trkpt>
      <trkpt lat="48.80431" lon="2.52177">
        <ele>87.7</ele>
        <time>2015-06-08T19:54:59.661Z</time>
      </trkpt>
      <trkpt lat="48.80437" lon="2.52177">
        <ele>87.8</ele>
        <time>2015-06-08T19:55:00.678Z</time>
      </trkpt>
      <trkpt lat="48.80444" lon="2.52172">
        <ele>86.9</ele>
        <time>2015-06-08T19:55:01.680Z</time>
      </trkpt>
      <trkpt lat="48.8045" lon="2.52165">
        <ele>87.1</ele>
        <time>2015-06-08T19:55:02.732Z</time>
      </trkpt>
      <trkpt lat="48.80456" lon="2.52157">
        <ele>87.1</ele>
        <time>2015-06-08T19:55:03.735Z</time>
      </trkpt>
      <trkpt lat="48.80462" lon="2.52151">
        <ele>87.1</ele>
        <time>2015-06-08T19:55:04.749Z</time>
      </trkpt>
      <trkpt lat="48.80467" lon="2.52147">
        <ele>87.1</ele>
        <time>2015-06-08T19:55:05.755Z</time>
      </trkpt>
      <trkpt lat="48.80472" lon="2.52143">
        <ele>87.8</ele>
        <time>2015-06-08T19:55:06.766Z</time>
      </trkpt>
      <trkpt lat="48.80476" lon="2.5214">
        <ele>88.5</ele>
        <time>2015-06-08T19:55:07.782Z</time>
      </trkpt>
      <trkpt lat="48.80481" lon="2.52137">
        <ele>88.7</ele>
        <time>2015-06-08T19:55:08.790Z</time>
      </trkpt>
      <trkpt lat="48.80488" lon="2.52133">
        <ele>88.7</ele>
        <time>2015-06-08T19:55:09.714Z</time>
      </trkpt>
      <trkpt lat="48.80494" lon="2.52127">
        <ele>89</ele>
        <time>2015-06-08T19:55:10.707Z</time>
      </trkpt>
      <trkpt lat="48.805" lon="2.52122">
        <ele>89</ele>
        <time>2015-06-08T19:55:11.716Z</time>
      </trkpt>
      <trkpt lat="48.80506" lon="2.52116">
        <ele>89.3</ele>
        <time>2015-06-08T19:55:12.728Z</time>
      </trkpt>
      <trkpt lat="48.80512" lon="2.52111">
        <ele>89.4</ele>
        <time>2015-06-08T19:55:13.740Z</time>
      </trkpt>
      <trkpt lat="48.80519" lon="2.52106">
        <ele>88.9</ele>
        <time>2015-06-08T19:55:14.770Z</time>
      </trkpt>
      <trkpt lat="48.80523" lon="2.52101">
        <ele>88.6</ele>
        <time>2015-06-08T19:55:15.773Z</time>
      </trkpt>
      <trkpt lat="48.80528" lon="2.52096">
        <ele>88.3</ele>
        <time>2015-06-08T19:55:16.777Z</time>
      </trkpt>
      <trkpt lat="48.80533" lon="2.52092">
        <ele>87.7</ele>
        <time>2015-06-08T19:55:17.783Z</time>
      </trkpt>
      <trkpt lat="48.80538" lon="2.52087">
        <ele>86.6</ele>
        <time>2015-06-08T19:55:18.784Z</time>
      </trkpt>
      <trkpt lat="48.80544" lon="2.52081">
        <ele>86.8</ele>
        <time>2015-06-08T19:55:19.748Z</time>
      </trkpt>
      <trkpt lat="48.8055" lon="2.52077">
        <ele>86.9</ele>
        <time>2015-06-08T19:55:20.785Z</time>
      </trkpt>
      <trkpt lat="48.80555" lon="2.52073">
        <ele>87.2</ele>
        <time>2015-06-08T19:55:21.775Z</time>
      </trkpt>
      <trkpt lat="48.80561" lon="2.5207">
        <ele>87.3</ele>
        <time>2015-06-08T19:55:22.711Z</time>
      </trkpt>
      <trkpt lat="48.80566" lon="2.52066">
        <ele>87.4</ele>
        <time>2015-06-08T19:55:23.710Z</time>
      </trkpt>
      <trkpt lat="48.80571" lon="2.5206">
        <ele>87.3</ele>
        <time>2015-06-08T19:55:24.708Z</time>
      </trkpt>
      <trkpt lat="48.80577" lon="2.52054">
        <ele>86.8</ele>
        <time>2015-06-08T19:55:25.716Z</time>
      </trkpt>
      <trkpt lat="48.80582" lon="2.52048">
        <ele>86.7</ele>
        <time>2015-06-08T19:55:26.757Z</time>
      </trkpt>
      <trkpt lat="48.80587" lon="2.52043">
        <ele>86.9</ele>
        <time>2015-06-08T19:55:27.763Z</time>
      </trkpt>
      <trkpt lat="48.80591" lon="2.52038">
        <ele>86.8</ele>
        <time>2015-06-08T19:55:28.768Z</time>
      </trkpt>
      <trkpt lat="48.80597" lon="2.52032">
        <ele>87.4</ele>
        <time>2015-06-08T19:55:29.776Z</time>
      </trkpt>
      <trkpt lat="48.80603" lon="2.52027">
        <ele>87.7</ele>
        <time>2015-06-08T19:55:30.695Z</time>
      </trkpt>
      <trkpt lat="48.80608" lon="2.52021">
        <ele>87.9</ele>
        <time>2015-06-08T19:55:31.702Z</time>
      </trkpt>
      <trkpt lat="48.80614" lon="2.52017">
        <ele>87.9</ele>
        <time>2015-06-08T19:55:32.745Z</time>
      </trkpt>
      <trkpt lat="48.80619" lon="2.52012">
        <ele>86.9</ele>
        <time>2015-06-08T19:55:33.748Z</time>
      </trkpt>
      <trkpt lat="48.80624" lon="2.52006">
        <ele>85.8</ele>
        <time>2015-06-08T19:55:34.757Z</time>
      </trkpt>
      <trkpt lat="48.8063" lon="2.52">
        <ele>85.5</ele>
        <time>2015-06-08T19:55:35.756Z</time>
      </trkpt>
      <trkpt lat="48.80635" lon="2.51995">
        <ele>85.5</ele>
        <time>2015-06-08T19:55:36.764Z</time>
      </trkpt>
      <trkpt lat="48.80641" lon="2.5199">
        <ele>85.8</ele>
        <time>2015-06-08T19:55:37.781Z</time>
      </trkpt>
      <trkpt lat="48.80648" lon="2.51986">
        <ele>84.8</ele>
        <time>2015-06-08T19:55:38.787Z</time>
      </trkpt>
      <trkpt lat="48.80655" lon="2.51981">
        <ele>84.8</ele>
        <time>2015-06-08T19:55:39.720Z</time>
      </trkpt>
      <trkpt lat="48.80661" lon="2.51976">
        <ele>85</ele>
        <time>2015-06-08T19:55:40.723Z</time>
      </trkpt>
      <trkpt lat="48.80666" lon="2.51971">
        <ele>84.7</ele>
        <time>2015-06-08T19:55:41.741Z</time>
      </trkpt>
      <trkpt lat="48.80672" lon="2.51966">
        <ele>84.2</ele>
        <time>2015-06-08T19:55:42.746Z</time>
      </trkpt>
      <trkpt lat="48.80676" lon="2.5196">
        <ele>84.2</ele>
        <time>2015-06-08T19:55:43.764Z</time>
      </trkpt>
      <trkpt lat="48.80681" lon="2.51954">
        <ele>83.8</ele>
        <time>2015-06-08T19:55:44.812Z</time>
      </trkpt>
      <trkpt lat="48.80686" lon="2.51948">
        <ele>83.7</ele>
        <time>2015-06-08T19:55:45.734Z</time>
      </trkpt>
      <trkpt lat="48.80691" lon="2.51943">
        <ele>83.7</ele>
        <time>2015-06-08T19:55:46.723Z</time>
      </trkpt>
      <trkpt lat="48.80696" lon="2.51937">
        <ele>83.8</ele>
        <time>2015-06-08T19:55:47.743Z</time>
      </trkpt>
      <trkpt lat="48.80701" lon="2.51931">
        <ele>83.6</ele>
        <time>2015-06-08T19:55:48.769Z</time>
      </trkpt>
      <trkpt lat="48.80706" lon="2.51925">
        <ele>83.7</ele>
        <time>2015-06-08T19:55:49.784Z</time>
      </trkpt>
      <trkpt lat="48.80712" lon="2.51918">
        <ele>84.3</ele>
        <time>2015-06-08T19:55:50.815Z</time>
      </trkpt>
      <trkpt lat="48.80717" lon="2.51912">
        <ele>84.4</ele>
        <time>2015-06-08T19:55:51.702Z</time>
      </trkpt>
      <trkpt lat="48.80722" lon="2.51907">
        <ele>85.2</ele>
        <time>2015-06-08T19:55:52.700Z</time>
      </trkpt>
      <trkpt lat="48.80727" lon="2.51901">
        <ele>85.7</ele>
        <time>2015-06-08T19:55:53.705Z</time>
      </trkpt>
      <trkpt lat="48.80732" lon="2.51895">
        <ele>85.9</ele>
        <time>2015-06-08T19:55:54.709Z</time>
      </trkpt>
      <trkpt lat="48.80737" lon="2.51888">
        <ele>85.8</ele>
        <time>2015-06-08T19:55:55.723Z</time>
      </trkpt>
      <trkpt lat="48.80742" lon="2.51882">
        <ele>85.7</ele>
        <time>2015-06-08T19:55:56.740Z</time>
      </trkpt>
      <trkpt lat="48.80747" lon="2.51876">
        <ele>85.8</ele>
        <time>2015-06-08T19:55:57.759Z</time>
      </trkpt>
      <trkpt lat="48.80753" lon="2.51871">
        <ele>85.1</ele>
        <time>2015-06-08T19:55:58.757Z</time>
      </trkpt>
      <trkpt lat="48.80757" lon="2.51864">
        <ele>85.1</ele>
        <time>2015-06-08T19:55:59.767Z</time>
      </trkpt>
      <trkpt lat="48.80761" lon="2.51857">
        <ele>85.2</ele>
        <time>2015-06-08T19:56:00.683Z</time>
      </trkpt>
      <trkpt lat="48.80765" lon="2.5185">
        <ele>85.1</ele>
        <time>2015-06-08T19:56:01.676Z</time>
      </trkpt>
      <trkpt lat="48.80767" lon="2.51844">
        <ele>85</ele>
        <time>2015-06-08T19:56:02.730Z</time>
      </trkpt>
      <trkpt lat="48.8077" lon="2.51837">
        <ele>85.1</ele>
        <time>2015-06-08T19:56:03.720Z</time>
      </trkpt>
      <trkpt lat="48.80775" lon="2.51828">
        <ele>85.9</ele>
        <time>2015-06-08T19:56:04.743Z</time>
      </trkpt>
      <trkpt lat="48.80779" lon="2.51821">
        <ele>86.4</ele>
        <time>2015-06-08T19:56:05.673Z</time>
      </trkpt>
      <trkpt lat="48.80783" lon="2.51814">
        <ele>86.6</ele>
        <time>2015-06-08T19:56:06.673Z</time>
      </trkpt>
      <trkpt lat="48.80787" lon="2.51808">
        <ele>86.8</ele>
        <time>2015-06-08T19:56:07.660Z</time>
      </trkpt>
      <trkpt lat="48.8079" lon="2.51801">
        <ele>87.1</ele>
        <time>2015-06-08T19:56:08.718Z</time>
      </trkpt>
      <trkpt lat="48.80794" lon="2.51794">
        <ele>87.1</ele>
        <time>2015-06-08T19:56:09.731Z</time>
      </trkpt>
      <trkpt lat="48.80798" lon="2.51788">
        <ele>87</ele>
        <time>2015-06-08T19:56:10.735Z</time>
      </trkpt>
      <trkpt lat="48.80802" lon="2.51782">
        <ele>87.2</ele>
        <time>2015-06-08T19:56:11.753Z</time>
      </trkpt>
      <trkpt lat="48.80807" lon="2.51775">
        <ele>87.1</ele>
        <time>2015-06-08T19:56:12.676Z</time>
      </trkpt>
      <trkpt lat="48.80812" lon="2.51767">
        <ele>87</ele>
        <time>2015-06-08T19:56:13.686Z</time>
      </trkpt>
      <trkpt lat="48.80816" lon="2.51758">
        <ele>87.7</ele>
        <time>2015-06-08T19:56:14.685Z</time>
      </trkpt>
      <trkpt lat="48.80818" lon="2.5175">
        <ele>87.6</ele>
        <time>2015-06-08T19:56:15.696Z</time>
      </trkpt>
      <trkpt lat="48.80821" lon="2.51741">
        <ele>87.3</ele>
        <time>2015-06-08T19:56:16.707Z</time>
      </trkpt>
      <trkpt lat="48.80825" lon="2.51733">
        <ele>87.2</ele>
        <time>2015-06-08T19:56:17.725Z</time>
      </trkpt>
      <trkpt lat="48.80828" lon="2.51726">
        <ele>86.7</ele>
        <time>2015-06-08T19:56:18.735Z</time>
      </trkpt>
      <trkpt lat="48.80832" lon="2.51718">
        <ele>86.4</ele>
        <time>2015-06-08T19:56:19.662Z</time>
      </trkpt>
      <trkpt lat="48.80835" lon="2.5171">
        <ele>86.4</ele>
        <time>2015-06-08T19:56:20.762Z</time>
      </trkpt>
      <trkpt lat="48.80838" lon="2.51701">
        <ele>86</ele>
        <time>2015-06-08T19:56:21.646Z</time>
      </trkpt>
      <trkpt lat="48.80841" lon="2.51693">
        <ele>85.7</ele>
        <time>2015-06-08T19:56:22.677Z</time>
      </trkpt>
      <trkpt lat="48.80843" lon="2.51685">
        <ele>85.6</ele>
        <time>2015-06-08T19:56:23.670Z</time>
      </trkpt>
      <trkpt lat="48.80846" lon="2.51677">
        <ele>85.5</ele>
        <time>2015-06-08T19:56:24.682Z</time>
      </trkpt>
      <trkpt lat="48.80848" lon="2.51668">
        <ele>85.9</ele>
        <time>2015-06-08T19:56:25.683Z</time>
      </trkpt>
      <trkpt lat="48.80851" lon="2.5166">
        <ele>86.2</ele>
        <time>2015-06-08T19:56:26.710Z</time>
      </trkpt>
      <trkpt lat="48.80855" lon="2.51651">
        <ele>87</ele>
        <time>2015-06-08T19:56:27.707Z</time>
      </trkpt>
      <trkpt lat="48.80858" lon="2.51642">
        <ele>87.5</ele>
        <time>2015-06-08T19:56:28.709Z</time>
      </trkpt>
      <trkpt lat="48.80861" lon="2.51633">
        <ele>87.4</ele>
        <time>2015-06-08T19:56:29.733Z</time>
      </trkpt>
      <trkpt lat="48.80865" lon="2.51624">
        <ele>88.4</ele>
        <time>2015-06-08T19:56:30.754Z</time>
      </trkpt>
      <trkpt lat="48.80866" lon="2.51614">
        <ele>88.2</ele>
        <time>2015-06-08T19:56:31.763Z</time>
      </trkpt>
      <trkpt lat="48.80869" lon="2.51605">
        <ele>88.2</ele>
        <time>2015-06-08T19:56:32.775Z</time>
      </trkpt>
      <trkpt lat="48.80871" lon="2.51596">
        <ele>88</ele>
        <time>2015-06-08T19:56:33.695Z</time>
      </trkpt>
      <trkpt lat="48.80873" lon="2.51587">
        <ele>88.3</ele>
        <time>2015-06-08T19:56:34.696Z</time>
      </trkpt>
      <trkpt lat="48.80874" lon="2.51577">
        <ele>88.4</ele>
        <time>2015-06-08T19:56:35.700Z</time>
      </trkpt>
      <trkpt lat="48.80877" lon="2.51568">
        <ele>88.6</ele>
        <time>2015-06-08T19:56:36.705Z</time>
      </trkpt>
      <trkpt lat="48.80879" lon="2.51558">
        <ele>88.6</ele>
        <time>2015-06-08T19:56:37.716Z</time>
      </trkpt>
      <trkpt lat="48.8088" lon="2.51548">
        <ele>88.5</ele>
        <time>2015-06-08T19:56:38.745Z</time>
      </trkpt>
      <trkpt lat="48.80882" lon="2.51539">
        <ele>88.9</ele>
        <time>2015-06-08T19:56:39.757Z</time>
      </trkpt>
      <trkpt lat="48.80884" lon="2.51531">
        <ele>88.8</ele>
        <time>2015-06-08T19:56:40.764Z</time>
      </trkpt>
      <trkpt lat="48.80887" lon="2.51521">
        <ele>89</ele>
        <time>2015-06-08T19:56:41.778Z</time>
      </trkpt>
      <trkpt lat="48.80888" lon="2.51513">
        <ele>88.6</ele>
        <time>2015-06-08T19:56:42.715Z</time>
      </trkpt>
      <trkpt lat="48.8089" lon="2.51505">
        <ele>88.6</ele>
        <time>2015-06-08T19:56:43.758Z</time>
      </trkpt>
      <trkpt lat="48.80891" lon="2.51496">
        <ele>88.3</ele>
        <time>2015-06-08T19:56:44.764Z</time>
      </trkpt>
      <trkpt lat="48.80893" lon="2.51487">
        <ele>88.6</ele>
        <time>2015-06-08T19:56:45.668Z</time>
      </trkpt>
      <trkpt lat="48.80894" lon="2.51477">
        <ele>89.1</ele>
        <time>2015-06-08T19:56:46.697Z</time>
      </trkpt>
      <trkpt lat="48.80896" lon="2.51468">
        <ele>89.5</ele>
        <time>2015-06-08T19:56:47.721Z</time>
      </trkpt>
      <trkpt lat="48.80898" lon="2.51458">
        <ele>89.6</ele>
        <time>2015-06-08T19:56:48.721Z</time>
      </trkpt>
      <trkpt lat="48.80901" lon="2.51449">
        <ele>90</ele>
        <time>2015-06-08T19:56:49.742Z</time>
      </trkpt>
      <trkpt lat="48.80903" lon="2.51439">
        <ele>90.3</ele>
        <time>2015-06-08T19:56:50.750Z</time>
      </trkpt>
      <trkpt lat="48.80905" lon="2.51429">
        <ele>90.5</ele>
        <time>2015-06-08T19:56:51.753Z</time>
      </trkpt>
      <trkpt lat="48.80906" lon="2.51419">
        <ele>90.3</ele>
        <time>2015-06-08T19:56:52.755Z</time>
      </trkpt>
      <trkpt lat="48.80907" lon="2.51408">
        <ele>90.3</ele>
        <time>2015-06-08T19:56:53.776Z</time>
      </trkpt>
      <trkpt lat="48.80909" lon="2.51397">
        <ele>90.4</ele>
        <time>2015-06-08T19:56:54.685Z</time>
      </trkpt>
      <trkpt lat="48.8091" lon="2.51386">
        <ele>90.2</ele>
        <time>2015-06-08T19:56:55.691Z</time>
      </trkpt>
      <trkpt lat="48.80911" lon="2.51376">
        <ele>89.6</ele>
        <time>2015-06-08T19:56:56.743Z</time>
      </trkpt>
      <trkpt lat="48.80913" lon="2.51365">
        <ele>88.8</ele>
        <time>2015-06-08T19:56:57.740Z</time>
      </trkpt>
      <trkpt lat="48.80914" lon="2.51356">
        <ele>88.9</ele>
        <time>2015-06-08T19:56:58.751Z</time>
      </trkpt>
      <trkpt lat="48.80916" lon="2.51345">
        <ele>89</ele>
        <time>2015-06-08T19:56:59.690Z</time>
      </trkpt>
      <trkpt lat="48.80917" lon="2.51335">
        <ele>88.8</ele>
        <time>2015-06-08T19:57:00.697Z</time>
      </trkpt>
      <trkpt lat="48.80918" lon="2.51325">
        <ele>88.3</ele>
        <time>2015-06-08T19:57:01.695Z</time>
      </trkpt>
      <trkpt lat="48.80919" lon="2.51315">
        <ele>87.8</ele>
        <time>2015-06-08T19:57:02.770Z</time>
      </trkpt>
      <trkpt lat="48.80921" lon="2.51305">
        <ele>87</ele>
        <time>2015-06-08T19:57:03.768Z</time>
      </trkpt>
      <trkpt lat="48.80922" lon="2.51296">
        <ele>86.3</ele>
        <time>2015-06-08T19:57:04.683Z</time>
      </trkpt>
      <trkpt lat="48.80923" lon="2.51286">
        <ele>86.4</ele>
        <time>2015-06-08T19:57:05.688Z</time>
      </trkpt>
      <trkpt lat="48.80923" lon="2.51276">
        <ele>86.6</ele>
        <time>2015-06-08T19:57:06.693Z</time>
      </trkpt>
      <trkpt lat="48.80923" lon="2.51266">
        <ele>86.1</ele>
        <time>2015-06-08T19:57:07.703Z</time>
      </trkpt>
      <trkpt lat="48.80924" lon="2.51255">
        <ele>86.5</ele>
        <time>2015-06-08T19:57:08.722Z</time>
      </trkpt>
      <trkpt lat="48.80926" lon="2.51245">
        <ele>86</ele>
        <time>2015-06-08T19:57:09.742Z</time>
      </trkpt>
      <trkpt lat="48.80927" lon="2.51234">
        <ele>86.1</ele>
        <time>2015-06-08T19:57:10.686Z</time>
      </trkpt>
      <trkpt lat="48.80928" lon="2.51224">
        <ele>86</ele>
        <time>2015-06-08T19:57:11.668Z</time>
      </trkpt>
      <trkpt lat="48.8093" lon="2.51214">
        <ele>86.1</ele>
        <time>2015-06-08T19:57:12.668Z</time>
      </trkpt>
      <trkpt lat="48.80931" lon="2.51204">
        <ele>86.2</ele>
        <time>2015-06-08T19:57:13.766Z</time>
      </trkpt>
      <trkpt lat="48.80931" lon="2.51193">
        <ele>86.1</ele>
        <time>2015-06-08T19:57:14.798Z</time>
      </trkpt>
      <trkpt lat="48.80931" lon="2.51183">
        <ele>85.8</ele>
        <time>2015-06-08T19:57:15.681Z</time>
      </trkpt>
      <trkpt lat="48.80932" lon="2.51172">
        <ele>86</ele>
        <time>2015-06-08T19:57:16.680Z</time>
      </trkpt>
      <trkpt lat="48.80932" lon="2.51162">
        <ele>86</ele>
        <time>2015-06-08T19:57:17.704Z</time>
      </trkpt>
      <trkpt lat="48.80933" lon="2.51151">
        <ele>86.2</ele>
        <time>2015-06-08T19:57:18.719Z</time>
      </trkpt>
      <trkpt lat="48.80935" lon="2.51141">
        <ele>86.5</ele>
        <time>2015-06-08T19:57:19.754Z</time>
      </trkpt>
      <trkpt lat="48.80936" lon="2.5113">
        <ele>87.1</ele>
        <time>2015-06-08T19:57:20.760Z</time>
      </trkpt>
      <trkpt lat="48.80937" lon="2.51119">
        <ele>87.1</ele>
        <time>2015-06-08T19:57:21.646Z</time>
      </trkpt>
      <trkpt lat="48.80938" lon="2.51109">
        <ele>86.9</ele>
        <time>2015-06-08T19:57:22.663Z</time>
      </trkpt>
      <trkpt lat="48.80939" lon="2.51098">
        <ele>86.8</ele>
        <time>2015-06-08T19:57:23.679Z</time>
      </trkpt>
      <trkpt lat="48.8094" lon="2.51088">
        <ele>87</ele>
        <time>2015-06-08T19:57:24.695Z</time>
      </trkpt>
      <trkpt lat="48.80941" lon="2.51079">
        <ele>86.6</ele>
        <time>2015-06-08T19:57:25.714Z</time>
      </trkpt>
      <trkpt lat="48.80944" lon="2.5107">
        <ele>87.2</ele>
        <time>2015-06-08T19:57:26.732Z</time>
      </trkpt>
      <trkpt lat="48.80944" lon="2.51063">
        <ele>87.1</ele>
        <time>2015-06-08T19:57:27.741Z</time>
      </trkpt>
      <trkpt lat="48.80945" lon="2.51056">
        <ele>87.5</ele>
        <time>2015-06-08T19:57:28.746Z</time>
      </trkpt>
      <trkpt lat="48.80946" lon="2.51043">
        <ele>87.9</ele>
        <time>2015-06-08T19:57:30.651Z</time>
      </trkpt>
      <trkpt lat="48.80947" lon="2.51038">
        <ele>88.1</ele>
        <time>2015-06-08T19:57:31.701Z</time>
      </trkpt>
      <trkpt lat="48.80948" lon="2.51027">
        <ele>88.2</ele>
        <time>2015-06-08T19:57:33.750Z</time>
      </trkpt>
      <trkpt lat="48.80948" lon="2.51022">
        <ele>88.4</ele>
        <time>2015-06-08T19:57:34.777Z</time>
      </trkpt>
      <trkpt lat="48.80949" lon="2.51009">
        <ele>89.1</ele>
        <time>2015-06-08T19:57:37.703Z</time>
      </trkpt>
      <trkpt lat="48.80949" lon="2.51005">
        <ele>89.3</ele>
        <time>2015-06-08T19:57:38.757Z</time>
      </trkpt>
      <trkpt lat="48.8095" lon="2.50992">
        <ele>90.5</ele>
        <time>2015-06-08T19:57:42.703Z</time>
      </trkpt>
      <trkpt lat="48.8095" lon="2.50989">
        <ele>90.7</ele>
        <time>2015-06-08T19:57:43.704Z</time>
      </trkpt>
      <trkpt lat="48.80951" lon="2.50984">
        <ele>91</ele>
        <time>2015-06-08T20:04:06.775Z</time>
      </trkpt>
      <trkpt lat="48.80952" lon="2.50963">
        <ele>94.3</ele>
        <time>2015-06-08T20:04:07.789Z</time>
      </trkpt>
      <trkpt lat="48.80951" lon="2.50951">
        <ele>94.1</ele>
        <time>2015-06-08T20:04:11.703Z</time>
      </trkpt>
      <trkpt lat="48.80951" lon="2.50947">
        <ele>94.1</ele>
        <time>2015-06-08T20:04:12.741Z</time>
      </trkpt>
      <trkpt lat="48.80951" lon="2.50936">
        <ele>94.3</ele>
        <time>2015-06-08T20:04:14.777Z</time>
      </trkpt>
      <trkpt lat="48.80951" lon="2.50929">
        <ele>94.6</ele>
        <time>2015-06-08T20:04:15.787Z</time>
      </trkpt>
      <trkpt lat="48.80953" lon="2.50922">
        <ele>94.4</ele>
        <time>2015-06-08T20:04:16.704Z</time>
      </trkpt>
      <trkpt lat="48.80954" lon="2.50915">
        <ele>94.3</ele>
        <time>2015-06-08T20:04:17.731Z</time>
      </trkpt>
      <trkpt lat="48.80955" lon="2.50907">
        <ele>94.2</ele>
        <time>2015-06-08T20:04:18.711Z</time>
      </trkpt>
      <trkpt lat="48.80956" lon="2.509">
        <ele>94.1</ele>
        <time>2015-06-08T20:04:19.708Z</time>
      </trkpt>
      <trkpt lat="48.80958" lon="2.50891">
        <ele>94</ele>
        <time>2015-06-08T20:04:20.790Z</time>
      </trkpt>
      <trkpt lat="48.80961" lon="2.50883">
        <ele>94.1</ele>
        <time>2015-06-08T20:04:21.731Z</time>
      </trkpt>
      <trkpt lat="48.80964" lon="2.50875">
        <ele>94.1</ele>
        <time>2015-06-08T20:04:22.748Z</time>
      </trkpt>
      <trkpt lat="48.80968" lon="2.50866">
        <ele>94.2</ele>
        <time>2015-06-08T20:04:23.778Z</time>
      </trkpt>
      <trkpt lat="48.80971" lon="2.50857">
        <ele>94.3</ele>
        <time>2015-06-08T20:04:24.790Z</time>
      </trkpt>
      <trkpt lat="48.80974" lon="2.50847">
        <ele>94.3</ele>
        <time>2015-06-08T20:04:25.681Z</time>
      </trkpt>
      <trkpt lat="48.80977" lon="2.50838">
        <ele>94.1</ele>
        <time>2015-06-08T20:04:26.769Z</time>
      </trkpt>
      <trkpt lat="48.80978" lon="2.50828">
        <ele>93.7</ele>
        <time>2015-06-08T20:04:27.774Z</time>
      </trkpt>
      <trkpt lat="48.8098" lon="2.50818">
        <ele>94.1</ele>
        <time>2015-06-08T20:04:28.782Z</time>
      </trkpt>
      <trkpt lat="48.80983" lon="2.50809">
        <ele>94.3</ele>
        <time>2015-06-08T20:04:29.697Z</time>
      </trkpt>
      <trkpt lat="48.80986" lon="2.508">
        <ele>94.5</ele>
        <time>2015-06-08T20:04:30.706Z</time>
      </trkpt>
      <trkpt lat="48.80988" lon="2.50792">
        <ele>94.7</ele>
        <time>2015-06-08T20:04:31.715Z</time>
      </trkpt>
      <trkpt lat="48.80989" lon="2.50783">
        <ele>94.7</ele>
        <time>2015-06-08T20:04:32.758Z</time>
      </trkpt>
      <trkpt lat="48.80991" lon="2.50774">
        <ele>94.5</ele>
        <time>2015-06-08T20:04:33.768Z</time>
      </trkpt>
      <trkpt lat="48.80992" lon="2.50765">
        <ele>94.4</ele>
        <time>2015-06-08T20:04:34.788Z</time>
      </trkpt>
      <trkpt lat="48.80992" lon="2.50756">
        <ele>94.3</ele>
        <time>2015-06-08T20:04:35.720Z</time>
      </trkpt>
      <trkpt lat="48.80992" lon="2.50747">
        <ele>93.7</ele>
        <time>2015-06-08T20:04:36.709Z</time>
      </trkpt>
      <trkpt lat="48.80992" lon="2.50738">
        <ele>93.4</ele>
        <time>2015-06-08T20:04:37.747Z</time>
      </trkpt>
      <trkpt lat="48.80992" lon="2.50729">
        <ele>93.3</ele>
        <time>2015-06-08T20:04:38.848Z</time>
      </trkpt>
      <trkpt lat="48.80992" lon="2.5072">
        <ele>93</ele>
        <time>2015-06-08T20:04:39.764Z</time>
      </trkpt>
      <trkpt lat="48.80992" lon="2.50713">
        <ele>92.8</ele>
        <time>2015-06-08T20:04:40.729Z</time>
      </trkpt>
      <trkpt lat="48.80992" lon="2.50705">
        <ele>92.4</ele>
        <time>2015-06-08T20:04:41.702Z</time>
      </trkpt>
      <trkpt lat="48.80992" lon="2.50698">
        <ele>92.1</ele>
        <time>2015-06-08T20:04:42.697Z</time>
      </trkpt>
      <trkpt lat="48.80993" lon="2.5069">
        <ele>92</ele>
        <time>2015-06-08T20:04:43.714Z</time>
      </trkpt>
      <trkpt lat="48.80993" lon="2.50682">
        <ele>91.9</ele>
        <time>2015-06-08T20:04:44.758Z</time>
      </trkpt>
      <trkpt lat="48.80993" lon="2.50674">
        <ele>91.7</ele>
        <time>2015-06-08T20:04:45.766Z</time>
      </trkpt>
      <trkpt lat="48.80992" lon="2.50666">
        <ele>91.5</ele>
        <time>2015-06-08T20:04:46.772Z</time>
      </trkpt>
      <trkpt lat="48.80991" lon="2.50659">
        <ele>91.3</ele>
        <time>2015-06-08T20:04:47.779Z</time>
      </trkpt>
      <trkpt lat="48.80989" lon="2.50646">
        <ele>91</ele>
        <time>2015-06-08T20:04:49.722Z</time>
      </trkpt>
      <trkpt lat="48.80989" lon="2.5064">
        <ele>91</ele>
        <time>2015-06-08T20:04:50.782Z</time>
      </trkpt>
      <trkpt lat="48.80993" lon="2.50634">
        <ele>89.9</ele>
        <time>2015-06-08T20:04:51.731Z</time>
      </trkpt>
      <trkpt lat="48.80996" lon="2.50628">
        <ele>88.8</ele>
        <time>2015-06-08T20:04:52.719Z</time>
      </trkpt>
      <trkpt lat="48.80997" lon="2.50622">
        <ele>88.6</ele>
        <time>2015-06-08T20:04:53.725Z</time>
      </trkpt>
      <trkpt lat="48.80997" lon="2.50613">
        <ele>88.5</ele>
        <time>2015-06-08T20:04:54.733Z</time>
      </trkpt>
      <trkpt lat="48.80997" lon="2.50607">
        <ele>88.6</ele>
        <time>2015-06-08T20:04:55.749Z</time>
      </trkpt>
      <trkpt lat="48.80998" lon="2.50599">
        <ele>88.7</ele>
        <time>2015-06-08T20:04:56.759Z</time>
      </trkpt>
      <trkpt lat="48.80999" lon="2.50591">
        <ele>88.6</ele>
        <time>2015-06-08T20:04:57.779Z</time>
      </trkpt>
      <trkpt lat="48.80999" lon="2.50582">
        <ele>88.8</ele>
        <time>2015-06-08T20:04:58.697Z</time>
      </trkpt>
      <trkpt lat="48.81" lon="2.50574">
        <ele>89</ele>
        <time>2015-06-08T20:04:59.701Z</time>
      </trkpt>
      <trkpt lat="48.81001" lon="2.50567">
        <ele>88.9</ele>
        <time>2015-06-08T20:05:00.726Z</time>
      </trkpt>
      <trkpt lat="48.81002" lon="2.50554">
        <ele>89.1</ele>
        <time>2015-06-08T20:05:02.752Z</time>
      </trkpt>
      <trkpt lat="48.81003" lon="2.50545">
        <ele>89.4</ele>
        <time>2015-06-08T20:05:03.756Z</time>
      </trkpt>
      <trkpt lat="48.81004" lon="2.50536">
        <ele>89.4</ele>
        <time>2015-06-08T20:05:04.796Z</time>
      </trkpt>
      <trkpt lat="48.81005" lon="2.50528">
        <ele>89.6</ele>
        <time>2015-06-08T20:05:05.699Z</time>
      </trkpt>
      <trkpt lat="48.81005" lon="2.50519">
        <ele>89.6</ele>
        <time>2015-06-08T20:05:06.727Z</time>
      </trkpt>
      <trkpt lat="48.81005" lon="2.5051">
        <ele>89.3</ele>
        <time>2015-06-08T20:05:07.742Z</time>
      </trkpt>
      <trkpt lat="48.81005" lon="2.50501">
        <ele>88.9</ele>
        <time>2015-06-08T20:05:08.756Z</time>
      </trkpt>
      <trkpt lat="48.81006" lon="2.50492">
        <ele>88.8</ele>
        <time>2015-06-08T20:05:09.777Z</time>
      </trkpt>
      <trkpt lat="48.81007" lon="2.50483">
        <ele>88.4</ele>
        <time>2015-06-08T20:05:10.677Z</time>
      </trkpt>
      <trkpt lat="48.81007" lon="2.50474">
        <ele>88.3</ele>
        <time>2015-06-08T20:05:11.707Z</time>
      </trkpt>
      <trkpt lat="48.81008" lon="2.50465">
        <ele>88.2</ele>
        <time>2015-06-08T20:05:12.751Z</time>
      </trkpt>
      <trkpt lat="48.81009" lon="2.50457">
        <ele>88.1</ele>
        <time>2015-06-08T20:05:13.746Z</time>
      </trkpt>
      <trkpt lat="48.8101" lon="2.50448">
        <ele>88</ele>
        <time>2015-06-08T20:05:14.764Z</time>
      </trkpt>
      <trkpt lat="48.81011" lon="2.5044">
        <ele>88.1</ele>
        <time>2015-06-08T20:05:15.779Z</time>
      </trkpt>
      <trkpt lat="48.81011" lon="2.5043">
        <ele>88.5</ele>
        <time>2015-06-08T20:05:16.666Z</time>
      </trkpt>
      <trkpt lat="48.81011" lon="2.50419">
        <ele>88.9</ele>
        <time>2015-06-08T20:05:17.700Z</time>
      </trkpt>
      <trkpt lat="48.81011" lon="2.5041">
        <ele>89.3</ele>
        <time>2015-06-08T20:05:18.700Z</time>
      </trkpt>
      <trkpt lat="48.81012" lon="2.504">
        <ele>89.3</ele>
        <time>2015-06-08T20:05:19.707Z</time>
      </trkpt>
      <trkpt lat="48.81012" lon="2.50391">
        <ele>88.9</ele>
        <time>2015-06-08T20:05:20.731Z</time>
      </trkpt>
      <trkpt lat="48.81014" lon="2.50383">
        <ele>89</ele>
        <time>2015-06-08T20:05:21.746Z</time>
      </trkpt>
      <trkpt lat="48.81014" lon="2.50374">
        <ele>89.3</ele>
        <time>2015-06-08T20:05:22.680Z</time>
      </trkpt>
      <trkpt lat="48.81015" lon="2.50365">
        <ele>89.4</ele>
        <time>2015-06-08T20:05:23.692Z</time>
      </trkpt>
      <trkpt lat="48.81014" lon="2.50354">
        <ele>89.2</ele>
        <time>2015-06-08T20:05:24.680Z</time>
      </trkpt>
      <trkpt lat="48.81014" lon="2.50345">
        <ele>89.1</ele>
        <time>2015-06-08T20:05:25.690Z</time>
      </trkpt>
      <trkpt lat="48.81014" lon="2.50336">
        <ele>88.7</ele>
        <time>2015-06-08T20:05:26.987Z</time>
      </trkpt>
      <trkpt lat="48.81016" lon="2.50326">
        <ele>88.8</ele>
        <time>2015-06-08T20:05:27.743Z</time>
      </trkpt>
      <trkpt lat="48.81018" lon="2.50318">
        <ele>88.9</ele>
        <time>2015-06-08T20:05:28.748Z</time>
      </trkpt>
      <trkpt lat="48.81019" lon="2.50309">
        <ele>88.3</ele>
        <time>2015-06-08T20:05:29.759Z</time>
      </trkpt>
      <trkpt lat="48.81021" lon="2.50301">
        <ele>87.7</ele>
        <time>2015-06-08T20:05:30.768Z</time>
      </trkpt>
      <trkpt lat="48.81022" lon="2.50293">
        <ele>87.5</ele>
        <time>2015-06-08T20:05:31.685Z</time>
      </trkpt>
      <trkpt lat="48.81022" lon="2.50285">
        <ele>87.6</ele>
        <time>2015-06-08T20:05:32.736Z</time>
      </trkpt>
      <trkpt lat="48.81022" lon="2.50276">
        <ele>88</ele>
        <time>2015-06-08T20:05:33.746Z</time>
      </trkpt>
      <trkpt lat="48.81023" lon="2.50268">
        <ele>88.1</ele>
        <time>2015-06-08T20:05:34.772Z</time>
      </trkpt>
      <trkpt lat="48.81024" lon="2.50261">
        <ele>88.5</ele>
        <time>2015-06-08T20:05:35.698Z</time>
      </trkpt>
      <trkpt lat="48.81024" lon="2.50254">
        <ele>88.4</ele>
        <time>2015-06-08T20:05:36.706Z</time>
      </trkpt>
      <trkpt lat="48.81023" lon="2.50246">
        <ele>88.1</ele>
        <time>2015-06-08T20:05:37.716Z</time>
      </trkpt>
      <trkpt lat="48.81022" lon="2.50236">
        <ele>87.6</ele>
        <time>2015-06-08T20:05:38.739Z</time>
      </trkpt>
      <trkpt lat="48.81022" lon="2.50228">
        <ele>87.8</ele>
        <time>2015-06-08T20:05:39.746Z</time>
      </trkpt>
      <trkpt lat="48.81023" lon="2.5022">
        <ele>87.8</ele>
        <time>2015-06-08T20:05:40.767Z</time>
      </trkpt>
      <trkpt lat="48.81024" lon="2.50212">
        <ele>86.6</ele>
        <time>2015-06-08T20:05:41.686Z</time>
      </trkpt>
      <trkpt lat="48.81024" lon="2.50204">
        <ele>86.2</ele>
        <time>2015-06-08T20:05:42.690Z</time>
      </trkpt>
      <trkpt lat="48.81024" lon="2.50195">
        <ele>85.8</ele>
        <time>2015-06-08T20:05:43.702Z</time>
      </trkpt>
      <trkpt lat="48.81024" lon="2.50187">
        <ele>85.7</ele>
        <time>2015-06-08T20:05:44.754Z</time>
      </trkpt>
      <trkpt lat="48.81024" lon="2.50179">
        <ele>85.8</ele>
        <time>2015-06-08T20:05:45.758Z</time>
      </trkpt>
      <trkpt lat="48.81024" lon="2.50172">
        <ele>86</ele>
        <time>2015-06-08T20:05:46.690Z</time>
      </trkpt>
      <trkpt lat="48.81023" lon="2.50165">
        <ele>86.3</ele>
        <time>2015-06-08T20:05:47.689Z</time>
      </trkpt>
      <trkpt lat="48.81023" lon="2.50156">
        <ele>86.4</ele>
        <time>2015-06-08T20:05:48.890Z</time>
      </trkpt>
      <trkpt lat="48.81022" lon="2.50147">
        <ele>86.2</ele>
        <time>2015-06-08T20:05:49.698Z</time>
      </trkpt>
      <trkpt lat="48.81021" lon="2.50136">
        <ele>85.9</ele>
        <time>2015-06-08T20:05:50.735Z</time>
      </trkpt>
      <trkpt lat="48.81019" lon="2.50128">
        <ele>85.8</ele>
        <time>2015-06-08T20:05:51.736Z</time>
      </trkpt>
      <trkpt lat="48.81019" lon="2.50121">
        <ele>86</ele>
        <time>2015-06-08T20:05:52.759Z</time>
      </trkpt>
      <trkpt lat="48.81018" lon="2.50113">
        <ele>86.2</ele>
        <time>2015-06-08T20:05:53.769Z</time>
      </trkpt>
      <trkpt lat="48.81017" lon="2.50105">
        <ele>86.2</ele>
        <time>2015-06-08T20:05:54.682Z</time>
      </trkpt>
      <trkpt lat="48.81016" lon="2.50096">
        <ele>86</ele>
        <time>2015-06-08T20:05:55.694Z</time>
      </trkpt>
      <trkpt lat="48.81015" lon="2.50088">
        <ele>85.8</ele>
        <time>2015-06-08T20:05:56.740Z</time>
      </trkpt>
      <trkpt lat="48.81014" lon="2.50079">
        <ele>85.5</ele>
        <time>2015-06-08T20:05:57.739Z</time>
      </trkpt>
      <trkpt lat="48.81013" lon="2.50071">
        <ele>85.1</ele>
        <time>2015-06-08T20:05:58.737Z</time>
      </trkpt>
      <trkpt lat="48.81011" lon="2.50063">
        <ele>84.9</ele>
        <time>2015-06-08T20:05:59.742Z</time>
      </trkpt>
      <trkpt lat="48.8101" lon="2.50056">
        <ele>84.9</ele>
        <time>2015-06-08T20:06:00.755Z</time>
      </trkpt>
      <trkpt lat="48.81009" lon="2.50048">
        <ele>84.8</ele>
        <time>2015-06-08T20:06:01.767Z</time>
      </trkpt>
      <trkpt lat="48.81009" lon="2.50041">
        <ele>84.4</ele>
        <time>2015-06-08T20:06:02.775Z</time>
      </trkpt>
      <trkpt lat="48.81008" lon="2.50033">
        <ele>84.2</ele>
        <time>2015-06-08T20:06:03.777Z</time>
      </trkpt>
      <trkpt lat="48.81008" lon="2.50026">
        <ele>84.3</ele>
        <time>2015-06-08T20:06:04.708Z</time>
      </trkpt>
      <trkpt lat="48.81006" lon="2.5002">
        <ele>84.1</ele>
        <time>2015-06-08T20:06:05.715Z</time>
      </trkpt>
      <trkpt lat="48.81003" lon="2.50008">
        <ele>83.9</ele>
        <time>2015-06-08T20:06:07.736Z</time>
      </trkpt>
      <trkpt lat="48.81002" lon="2.50002">
        <ele>83.8</ele>
        <time>2015-06-08T20:06:08.791Z</time>
      </trkpt>
      <trkpt lat="48.80999" lon="2.49989">
        <ele>83.5</ele>
        <time>2015-06-08T20:06:10.706Z</time>
      </trkpt>
      <trkpt lat="48.80999" lon="2.49984">
        <ele>83.7</ele>
        <time>2015-06-08T20:06:11.710Z</time>
      </trkpt>
      <trkpt lat="48.80998" lon="2.49973">
        <ele>83.7</ele>
        <time>2015-06-08T20:06:13.673Z</time>
      </trkpt>
      <trkpt lat="48.80998" lon="2.49966">
        <ele>83.7</ele>
        <time>2015-06-08T20:06:14.763Z</time>
      </trkpt>
      <trkpt lat="48.80996" lon="2.49953">
        <ele>83.3</ele>
        <time>2015-06-08T20:06:16.724Z</time>
      </trkpt>
      <trkpt lat="48.80995" lon="2.49946">
        <ele>82.7</ele>
        <time>2015-06-08T20:06:17.725Z</time>
      </trkpt>
      <trkpt lat="48.80993" lon="2.49939">
        <ele>82.5</ele>
        <time>2015-06-08T20:06:18.693Z</time>
      </trkpt>
      <trkpt lat="48.80992" lon="2.49931">
        <ele>82.2</ele>
        <time>2015-06-08T20:06:19.700Z</time>
      </trkpt>
      <trkpt lat="48.8099" lon="2.49923">
        <ele>82.5</ele>
        <time>2015-06-08T20:06:20.751Z</time>
      </trkpt>
      <trkpt lat="48.80989" lon="2.49915">
        <ele>82.9</ele>
        <time>2015-06-08T20:06:21.765Z</time>
      </trkpt>
      <trkpt lat="48.80987" lon="2.49906">
        <ele>83.3</ele>
        <time>2015-06-08T20:06:22.673Z</time>
      </trkpt>
      <trkpt lat="48.80987" lon="2.49898">
        <ele>83.5</ele>
        <time>2015-06-08T20:06:23.680Z</time>
      </trkpt>
      <trkpt lat="48.80986" lon="2.49889">
        <ele>83.9</ele>
        <time>2015-06-08T20:06:24.683Z</time>
      </trkpt>
      <trkpt lat="48.80986" lon="2.49881">
        <ele>84.3</ele>
        <time>2015-06-08T20:06:25.689Z</time>
      </trkpt>
      <trkpt lat="48.80987" lon="2.49873">
        <ele>84.8</ele>
        <time>2015-06-08T20:06:26.749Z</time>
      </trkpt>
      <trkpt lat="48.80988" lon="2.49865">
        <ele>85</ele>
        <time>2015-06-08T20:06:27.734Z</time>
      </trkpt>
      <trkpt lat="48.80988" lon="2.49858">
        <ele>85.4</ele>
        <time>2015-06-08T20:06:28.760Z</time>
      </trkpt>
      <trkpt lat="48.80989" lon="2.4985">
        <ele>86.1</ele>
        <time>2015-06-08T20:06:29.676Z</time>
      </trkpt>
      <trkpt lat="48.80989" lon="2.49842">
        <ele>86.3</ele>
        <time>2015-06-08T20:06:30.709Z</time>
      </trkpt>
      <trkpt lat="48.8099" lon="2.49836">
        <ele>86.3</ele>
        <time>2015-06-08T20:06:31.732Z</time>
      </trkpt>
      <trkpt lat="48.80991" lon="2.49823">
        <ele>86.9</ele>
        <time>2015-06-08T20:06:33.679Z</time>
      </trkpt>
      <trkpt lat="48.8099" lon="2.49816">
        <ele>87.2</ele>
        <time>2015-06-08T20:06:34.690Z</time>
      </trkpt>
      <trkpt lat="48.8099" lon="2.49808">
        <ele>87.4</ele>
        <time>2015-06-08T20:06:35.707Z</time>
      </trkpt>
      <trkpt lat="48.80989" lon="2.498">
        <ele>87</ele>
        <time>2015-06-08T20:06:36.755Z</time>
      </trkpt>
      <trkpt lat="48.80988" lon="2.49793">
        <ele>86.7</ele>
        <time>2015-06-08T20:06:37.740Z</time>
      </trkpt>
      <trkpt lat="48.80988" lon="2.49785">
        <ele>86.2</ele>
        <time>2015-06-08T20:06:38.744Z</time>
      </trkpt>
      <trkpt lat="48.80987" lon="2.49778">
        <ele>86</ele>
        <time>2015-06-08T20:06:39.748Z</time>
      </trkpt>
      <trkpt lat="48.80986" lon="2.4977">
        <ele>86.1</ele>
        <time>2015-06-08T20:06:40.669Z</time>
      </trkpt>
      <trkpt lat="48.80986" lon="2.49763">
        <ele>85.7</ele>
        <time>2015-06-08T20:06:41.651Z</time>
      </trkpt>
      <trkpt lat="48.80987" lon="2.49756">
        <ele>85.5</ele>
        <time>2015-06-08T20:06:42.680Z</time>
      </trkpt>
      <trkpt lat="48.80988" lon="2.49748">
        <ele>85.7</ele>
        <time>2015-06-08T20:06:43.684Z</time>
      </trkpt>
      <trkpt lat="48.80988" lon="2.49741">
        <ele>85.7</ele>
        <time>2015-06-08T20:06:44.729Z</time>
      </trkpt>
      <trkpt lat="48.8099" lon="2.49733">
        <ele>85.8</ele>
        <time>2015-06-08T20:06:45.736Z</time>
      </trkpt>
      <trkpt lat="48.8099" lon="2.49726">
        <ele>85.6</ele>
        <time>2015-06-08T20:06:46.758Z</time>
      </trkpt>
      <trkpt lat="48.80991" lon="2.49713">
        <ele>86</ele>
        <time>2015-06-08T20:06:48.676Z</time>
      </trkpt>
      <trkpt lat="48.80991" lon="2.49707">
        <ele>86.4</ele>
        <time>2015-06-08T20:06:49.708Z</time>
      </trkpt>
      <trkpt lat="48.80993" lon="2.49699">
        <ele>86.5</ele>
        <time>2015-06-08T20:06:50.752Z</time>
      </trkpt>
      <trkpt lat="48.80994" lon="2.49692">
        <ele>86.5</ele>
        <time>2015-06-08T20:06:51.695Z</time>
      </trkpt>
      <trkpt lat="48.80997" lon="2.4968">
        <ele>86.5</ele>
        <time>2015-06-08T20:06:53.686Z</time>
      </trkpt>
      <trkpt lat="48.80997" lon="2.49673">
        <ele>86.7</ele>
        <time>2015-06-08T20:06:54.705Z</time>
      </trkpt>
      <trkpt lat="48.80999" lon="2.49664">
        <ele>86.9</ele>
        <time>2015-06-08T20:06:55.752Z</time>
      </trkpt>
      <trkpt lat="48.81001" lon="2.49657">
        <ele>87.2</ele>
        <time>2015-06-08T20:06:56.759Z</time>
      </trkpt>
      <trkpt lat="48.81002" lon="2.4965">
        <ele>87.6</ele>
        <time>2015-06-08T20:06:57.677Z</time>
      </trkpt>
      <trkpt lat="48.81003" lon="2.49643">
        <ele>87.9</ele>
        <time>2015-06-08T20:06:58.680Z</time>
      </trkpt>
      <trkpt lat="48.81005" lon="2.49637">
        <ele>87.8</ele>
        <time>2015-06-08T20:06:59.682Z</time>
      </trkpt>
      <trkpt lat="48.81006" lon="2.49629">
        <ele>87.3</ele>
        <time>2015-06-08T20:07:00.688Z</time>
      </trkpt>
      <trkpt lat="48.81007" lon="2.49622">
        <ele>87</ele>
        <time>2015-06-08T20:07:01.712Z</time>
      </trkpt>
      <trkpt lat="48.81008" lon="2.49615">
        <ele>87</ele>
        <time>2015-06-08T20:07:02.734Z</time>
      </trkpt>
      <trkpt lat="48.81008" lon="2.49608">
        <ele>87</ele>
        <time>2015-06-08T20:07:03.648Z</time>
      </trkpt>
      <trkpt lat="48.81009" lon="2.49599">
        <ele>87</ele>
        <time>2015-06-08T20:07:04.754Z</time>
      </trkpt>
      <trkpt lat="48.81009" lon="2.49591">
        <ele>87</ele>
        <time>2015-06-08T20:07:05.757Z</time>
      </trkpt>
      <trkpt lat="48.8101" lon="2.49584">
        <ele>86.9</ele>
        <time>2015-06-08T20:07:06.768Z</time>
      </trkpt>
      <trkpt lat="48.81011" lon="2.4957">
        <ele>86.6</ele>
        <time>2015-06-08T20:07:08.767Z</time>
      </trkpt>
      <trkpt lat="48.81012" lon="2.49563">
        <ele>86.5</ele>
        <time>2015-06-08T20:07:09.771Z</time>
      </trkpt>
      <trkpt lat="48.81014" lon="2.49555">
        <ele>85.9</ele>
        <time>2015-06-08T20:07:10.689Z</time>
      </trkpt>
      <trkpt lat="48.81015" lon="2.49549">
        <ele>85.7</ele>
        <time>2015-06-08T20:07:11.796Z</time>
      </trkpt>
      <trkpt lat="48.81015" lon="2.49535">
        <ele>85.9</ele>
        <time>2015-06-08T20:07:13.802Z</time>
      </trkpt>
      <trkpt lat="48.81017" lon="2.49526">
        <ele>86</ele>
        <time>2015-06-08T20:07:14.811Z</time>
      </trkpt>
      <trkpt lat="48.81019" lon="2.49518">
        <ele>85.8</ele>
        <time>2015-06-08T20:07:15.785Z</time>
      </trkpt>
      <trkpt lat="48.8102" lon="2.49509">
        <ele>85.6</ele>
        <time>2015-06-08T20:07:16.742Z</time>
      </trkpt>
      <trkpt lat="48.81021" lon="2.49501">
        <ele>86</ele>
        <time>2015-06-08T20:07:17.746Z</time>
      </trkpt>
      <trkpt lat="48.81021" lon="2.49494">
        <ele>86.6</ele>
        <time>2015-06-08T20:07:18.779Z</time>
      </trkpt>
      <trkpt lat="48.81021" lon="2.49487">
        <ele>86.9</ele>
        <time>2015-06-08T20:07:19.706Z</time>
      </trkpt>
      <trkpt lat="48.81021" lon="2.4948">
        <ele>87.5</ele>
        <time>2015-06-08T20:07:20.811Z</time>
      </trkpt>
      <trkpt lat="48.81024" lon="2.49469">
        <ele>87.9</ele>
        <time>2015-06-08T20:07:22.692Z</time>
      </trkpt>
      <trkpt lat="48.81025" lon="2.49462">
        <ele>88.1</ele>
        <time>2015-06-08T20:07:23.715Z</time>
      </trkpt>
      <trkpt lat="48.81025" lon="2.49455">
        <ele>88</ele>
        <time>2015-06-08T20:07:24.729Z</time>
      </trkpt>
      <trkpt lat="48.81026" lon="2.49448">
        <ele>87.9</ele>
        <time>2015-06-08T20:07:25.737Z</time>
      </trkpt>
      <trkpt lat="48.81025" lon="2.49437">
        <ele>88</ele>
        <time>2015-06-08T20:07:27.766Z</time>
      </trkpt>
      <trkpt lat="48.81025" lon="2.4943">
        <ele>88</ele>
        <time>2015-06-08T20:07:28.775Z</time>
      </trkpt>
      <trkpt lat="48.81028" lon="2.49423">
        <ele>87.6</ele>
        <time>2015-06-08T20:07:29.789Z</time>
      </trkpt>
      <trkpt lat="48.8103" lon="2.49415">
        <ele>88.1</ele>
        <time>2015-06-08T20:07:30.743Z</time>
      </trkpt>
      <trkpt lat="48.81032" lon="2.49406">
        <ele>88.4</ele>
        <time>2015-06-08T20:07:31.713Z</time>
      </trkpt>
      <trkpt lat="48.81033" lon="2.49398">
        <ele>89</ele>
        <time>2015-06-08T20:07:32.774Z</time>
      </trkpt>
      <trkpt lat="48.81034" lon="2.4939">
        <ele>89.1</ele>
        <time>2015-06-08T20:07:33.783Z</time>
      </trkpt>
      <trkpt lat="48.81035" lon="2.49383">
        <ele>89.5</ele>
        <time>2015-06-08T20:07:34.707Z</time>
      </trkpt>
      <trkpt lat="48.81036" lon="2.49375">
        <ele>89.4</ele>
        <time>2015-06-08T20:07:35.701Z</time>
      </trkpt>
      <trkpt lat="48.81039" lon="2.49369">
        <ele>89.4</ele>
        <time>2015-06-08T20:07:36.711Z</time>
      </trkpt>
      <trkpt lat="48.81041" lon="2.49361">
        <ele>89.5</ele>
        <time>2015-06-08T20:07:37.721Z</time>
      </trkpt>
      <trkpt lat="48.81043" lon="2.49355">
        <ele>89.4</ele>
        <time>2015-06-08T20:07:38.739Z</time>
      </trkpt>
      <trkpt lat="48.81047" lon="2.49348">
        <ele>89.1</ele>
        <time>2015-06-08T20:07:39.751Z</time>
      </trkpt>
      <trkpt lat="48.81051" lon="2.4934">
        <ele>89.1</ele>
        <time>2015-06-08T20:07:40.760Z</time>
      </trkpt>
      <trkpt lat="48.81053" lon="2.49333">
        <ele>89</ele>
        <time>2015-06-08T20:07:41.778Z</time>
      </trkpt>
      <trkpt lat="48.81055" lon="2.49325">
        <ele>89.2</ele>
        <time>2015-06-08T20:07:42.790Z</time>
      </trkpt>
      <trkpt lat="48.81058" lon="2.49317">
        <ele>89.4</ele>
        <time>2015-06-08T20:07:43.673Z</time>
      </trkpt>
      <trkpt lat="48.8106" lon="2.49312">
        <ele>89.2</ele>
        <time>2015-06-08T20:07:44.771Z</time>
      </trkpt>
      <trkpt lat="48.81066" lon="2.49303">
        <ele>89.3</ele>
        <time>2015-06-08T20:07:46.668Z</time>
      </trkpt>
      <trkpt lat="48.81068" lon="2.49298">
        <ele>89.3</ele>
        <time>2015-06-08T20:07:47.707Z</time>
      </trkpt>
      <trkpt lat="48.81071" lon="2.49292">
        <ele>89.4</ele>
        <time>2015-06-08T20:07:48.709Z</time>
      </trkpt>
      <trkpt lat="48.81073" lon="2.49287">
        <ele>89.5</ele>
        <time>2015-06-08T20:07:49.716Z</time>
      </trkpt>
      <trkpt lat="48.81074" lon="2.4928">
        <ele>89.6</ele>
        <time>2015-06-08T20:07:50.913Z</time>
      </trkpt>
      <trkpt lat="48.81076" lon="2.49273">
        <ele>89.6</ele>
        <time>2015-06-08T20:07:51.668Z</time>
      </trkpt>
      <trkpt lat="48.81076" lon="2.49263">
        <ele>89.1</ele>
        <time>2015-06-08T20:07:52.689Z</time>
      </trkpt>
      <trkpt lat="48.81076" lon="2.49254">
        <ele>89</ele>
        <time>2015-06-08T20:07:53.711Z</time>
      </trkpt>
      <trkpt lat="48.81077" lon="2.49247">
        <ele>88.6</ele>
        <time>2015-06-08T20:07:54.707Z</time>
      </trkpt>
      <trkpt lat="48.81077" lon="2.49238">
        <ele>88.4</ele>
        <time>2015-06-08T20:07:55.707Z</time>
      </trkpt>
      <trkpt lat="48.81079" lon="2.49229">
        <ele>88.3</ele>
        <time>2015-06-08T20:07:57.498Z</time>
      </trkpt>
      <trkpt lat="48.81079" lon="2.49221">
        <ele>88</ele>
        <time>2015-06-08T20:07:57.826Z</time>
      </trkpt>
      <trkpt lat="48.81079" lon="2.49212">
        <ele>87.9</ele>
        <time>2015-06-08T20:07:58.758Z</time>
      </trkpt>
      <trkpt lat="48.8108" lon="2.49207">
        <ele>87.7</ele>
        <time>2015-06-08T20:07:59.664Z</time>
      </trkpt>
      <trkpt lat="48.81082" lon="2.49196">
        <ele>87.5</ele>
        <time>2015-06-08T20:08:02.597Z</time>
      </trkpt>
      <trkpt lat="48.81082" lon="2.4919">
        <ele>87.5</ele>
        <time>2015-06-08T20:08:02.757Z</time>
      </trkpt>
      <trkpt lat="48.81082" lon="2.49184">
        <ele>87.5</ele>
        <time>2015-06-08T20:08:03.810Z</time>
      </trkpt>
      <trkpt lat="48.81083" lon="2.49176">
        <ele>87.3</ele>
        <time>2015-06-08T20:08:04.708Z</time>
      </trkpt>
      <trkpt lat="48.81083" lon="2.49165">
        <ele>87</ele>
        <time>2015-06-08T20:08:05.721Z</time>
      </trkpt>
      <trkpt lat="48.81085" lon="2.49157">
        <ele>87</ele>
        <time>2015-06-08T20:08:06.746Z</time>
      </trkpt>
      <trkpt lat="48.81091" lon="2.49148">
        <ele>86.5</ele>
        <time>2015-06-08T20:08:07.748Z</time>
      </trkpt>
      <trkpt lat="48.81093" lon="2.49141">
        <ele>86.5</ele>
        <time>2015-06-08T20:08:08.795Z</time>
      </trkpt>
      <trkpt lat="48.81095" lon="2.49135">
        <ele>86.3</ele>
        <time>2015-06-08T20:08:09.789Z</time>
      </trkpt>
      <trkpt lat="48.81099" lon="2.49126">
        <ele>86.5</ele>
        <time>2015-06-08T20:08:10.679Z</time>
      </trkpt>
      <trkpt lat="48.81102" lon="2.49117">
        <ele>86.5</ele>
        <time>2015-06-08T20:08:11.715Z</time>
      </trkpt>
      <trkpt lat="48.81104" lon="2.49109">
        <ele>86.5</ele>
        <time>2015-06-08T20:08:12.711Z</time>
      </trkpt>
      <trkpt lat="48.81102" lon="2.49099">
        <ele>85.5</ele>
        <time>2015-06-08T20:08:13.733Z</time>
      </trkpt>
      <trkpt lat="48.81102" lon="2.4909">
        <ele>85</ele>
        <time>2015-06-08T20:08:14.758Z</time>
      </trkpt>
      <trkpt lat="48.81104" lon="2.49079">
        <ele>85.4</ele>
        <time>2015-06-08T20:08:16.773Z</time>
      </trkpt>
      <trkpt lat="48.81108" lon="2.49074">
        <ele>85.5</ele>
        <time>2015-06-08T20:08:17.780Z</time>
      </trkpt>
      <trkpt lat="48.8111" lon="2.49066">
        <ele>85.4</ele>
        <time>2015-06-08T20:08:18.712Z</time>
      </trkpt>
      <trkpt lat="48.81112" lon="2.49059">
        <ele>85.4</ele>
        <time>2015-06-08T20:08:19.716Z</time>
      </trkpt>
      <trkpt lat="48.81115" lon="2.49048">
        <ele>85.7</ele>
        <time>2015-06-08T20:08:20.751Z</time>
      </trkpt>
      <trkpt lat="48.81117" lon="2.4904">
        <ele>86</ele>
        <time>2015-06-08T20:08:21.749Z</time>
      </trkpt>
      <trkpt lat="48.8112" lon="2.49034">
        <ele>85.9</ele>
        <time>2015-06-08T20:08:22.692Z</time>
      </trkpt>
      <trkpt lat="48.81121" lon="2.49027">
        <ele>85.8</ele>
        <time>2015-06-08T20:08:23.691Z</time>
      </trkpt>
      <trkpt lat="48.81121" lon="2.4902">
        <ele>85.8</ele>
        <time>2015-06-08T20:08:24.705Z</time>
      </trkpt>
      <trkpt lat="48.81122" lon="2.49012">
        <ele>86</ele>
        <time>2015-06-08T20:08:25.707Z</time>
      </trkpt>
      <trkpt lat="48.81123" lon="2.49005">
        <ele>86</ele>
        <time>2015-06-08T20:08:26.765Z</time>
      </trkpt>
      <trkpt lat="48.81125" lon="2.48998">
        <ele>86.2</ele>
        <time>2015-06-08T20:08:27.767Z</time>
      </trkpt>
      <trkpt lat="48.81127" lon="2.48992">
        <ele>86.4</ele>
        <time>2015-06-08T20:08:28.772Z</time>
      </trkpt>
      <trkpt lat="48.81128" lon="2.48985">
        <ele>86.1</ele>
        <time>2015-06-08T20:08:29.780Z</time>
      </trkpt>
      <trkpt lat="48.81129" lon="2.48978">
        <ele>85.9</ele>
        <time>2015-06-08T20:08:30.702Z</time>
      </trkpt>
      <trkpt lat="48.8113" lon="2.48969">
        <ele>85.9</ele>
        <time>2015-06-08T20:08:31.714Z</time>
      </trkpt>
      <trkpt lat="48.8113" lon="2.4896">
        <ele>85.9</ele>
        <time>2015-06-08T20:08:32.761Z</time>
      </trkpt>
      <trkpt lat="48.81131" lon="2.48953">
        <ele>86</ele>
        <time>2015-06-08T20:08:33.756Z</time>
      </trkpt>
      <trkpt lat="48.81133" lon="2.48946">
        <ele>85.9</ele>
        <time>2015-06-08T20:08:34.708Z</time>
      </trkpt>
      <trkpt lat="48.81137" lon="2.48938">
        <ele>86.3</ele>
        <time>2015-06-08T20:08:35.701Z</time>
      </trkpt>
      <trkpt lat="48.81139" lon="2.48931">
        <ele>86.4</ele>
        <time>2015-06-08T20:08:36.717Z</time>
      </trkpt>
      <trkpt lat="48.81141" lon="2.48922">
        <ele>86.8</ele>
        <time>2015-06-08T20:08:37.730Z</time>
      </trkpt>
      <trkpt lat="48.81142" lon="2.48914">
        <ele>87.1</ele>
        <time>2015-06-08T20:08:38.766Z</time>
      </trkpt>
      <trkpt lat="48.81144" lon="2.48906">
        <ele>87.3</ele>
        <time>2015-06-08T20:08:39.759Z</time>
      </trkpt>
      <trkpt lat="48.81145" lon="2.48899">
        <ele>87.4</ele>
        <time>2015-06-08T20:08:40.767Z</time>
      </trkpt>
      <trkpt lat="48.81146" lon="2.48891">
        <ele>87.5</ele>
        <time>2015-06-08T20:08:41.775Z</time>
      </trkpt>
      <trkpt lat="48.81148" lon="2.48884">
        <ele>87.5</ele>
        <time>2015-06-08T20:08:42.700Z</time>
      </trkpt>
      <trkpt lat="48.81149" lon="2.48875">
        <ele>87.6</ele>
        <time>2015-06-08T20:08:43.733Z</time>
      </trkpt>
      <trkpt lat="48.8115" lon="2.48867">
        <ele>87.5</ele>
        <time>2015-06-08T20:08:44.772Z</time>
      </trkpt>
      <trkpt lat="48.81151" lon="2.4886">
        <ele>87.3</ele>
        <time>2015-06-08T20:08:45.781Z</time>
      </trkpt>
      <trkpt lat="48.81152" lon="2.48854">
        <ele>87.2</ele>
        <time>2015-06-08T20:08:46.789Z</time>
      </trkpt>
      <trkpt lat="48.81154" lon="2.48845">
        <ele>87.3</ele>
        <time>2015-06-08T20:08:47.717Z</time>
      </trkpt>
      <trkpt lat="48.81156" lon="2.48837">
        <ele>87.4</ele>
        <time>2015-06-08T20:08:48.707Z</time>
      </trkpt>
      <trkpt lat="48.81158" lon="2.4883">
        <ele>87.4</ele>
        <time>2015-06-08T20:08:49.710Z</time>
      </trkpt>
      <trkpt lat="48.8116" lon="2.48822">
        <ele>87.3</ele>
        <time>2015-06-08T20:08:50.764Z</time>
      </trkpt>
      <trkpt lat="48.81162" lon="2.48815">
        <ele>87.2</ele>
        <time>2015-06-08T20:08:51.758Z</time>
      </trkpt>
      <trkpt lat="48.81164" lon="2.48809">
        <ele>87.5</ele>
        <time>2015-06-08T20:08:52.780Z</time>
      </trkpt>
      <trkpt lat="48.81166" lon="2.48803">
        <ele>87.8</ele>
        <time>2015-06-08T20:08:53.702Z</time>
      </trkpt>
      <trkpt lat="48.81168" lon="2.48796">
        <ele>87.6</ele>
        <time>2015-06-08T20:08:54.702Z</time>
      </trkpt>
      <trkpt lat="48.8117" lon="2.4879">
        <ele>87.8</ele>
        <time>2015-06-08T20:08:55.713Z</time>
      </trkpt>
      <trkpt lat="48.81172" lon="2.48782">
        <ele>87.8</ele>
        <time>2015-06-08T20:08:56.773Z</time>
      </trkpt>
      <trkpt lat="48.81173" lon="2.48774">
        <ele>87.8</ele>
        <time>2015-06-08T20:08:57.773Z</time>
      </trkpt>
      <trkpt lat="48.81175" lon="2.48765">
        <ele>87.5</ele>
        <time>2015-06-08T20:08:58.700Z</time>
      </trkpt>
      <trkpt lat="48.81176" lon="2.48757">
        <ele>87.4</ele>
        <time>2015-06-08T20:08:59.700Z</time>
      </trkpt>
      <trkpt lat="48.81178" lon="2.48749">
        <ele>87.4</ele>
        <time>2015-06-08T20:09:00.706Z</time>
      </trkpt>
      <trkpt lat="48.8118" lon="2.48742">
        <ele>87.3</ele>
        <time>2015-06-08T20:09:01.716Z</time>
      </trkpt>
      <trkpt lat="48.81182" lon="2.48735">
        <ele>87</ele>
        <time>2015-06-08T20:09:02.764Z</time>
      </trkpt>
      <trkpt lat="48.81184" lon="2.48728">
        <ele>86.6</ele>
        <time>2015-06-08T20:09:03.750Z</time>
      </trkpt>
      <trkpt lat="48.81186" lon="2.48722">
        <ele>86.6</ele>
        <time>2015-06-08T20:09:04.759Z</time>
      </trkpt>
      <trkpt lat="48.81187" lon="2.48716">
        <ele>86.8</ele>
        <time>2015-06-08T20:09:05.768Z</time>
      </trkpt>
      <trkpt lat="48.8119" lon="2.48704">
        <ele>86.1</ele>
        <time>2015-06-08T20:09:07.698Z</time>
      </trkpt>
      <trkpt lat="48.81192" lon="2.487">
        <ele>86.1</ele>
        <time>2015-06-08T20:09:08.796Z</time>
      </trkpt>
      <trkpt lat="48.81195" lon="2.4869">
        <ele>86.1</ele>
        <time>2015-06-08T20:09:10.705Z</time>
      </trkpt>
      <trkpt lat="48.81196" lon="2.48684">
        <ele>85.7</ele>
        <time>2015-06-08T20:09:11.728Z</time>
      </trkpt>
      <trkpt lat="48.81196" lon="2.48677">
        <ele>85.4</ele>
        <time>2015-06-08T20:09:12.782Z</time>
      </trkpt>
      <trkpt lat="48.81197" lon="2.48668">
        <ele>85.1</ele>
        <time>2015-06-08T20:09:13.705Z</time>
      </trkpt>
      <trkpt lat="48.81198" lon="2.48656">
        <ele>84.7</ele>
        <time>2015-06-08T20:09:15.757Z</time>
      </trkpt>
      <trkpt lat="48.812" lon="2.4865">
        <ele>84.5</ele>
        <time>2015-06-08T20:09:16.766Z</time>
      </trkpt>
      <trkpt lat="48.81202" lon="2.4864">
        <ele>84.5</ele>
        <time>2015-06-08T20:09:18.724Z</time>
      </trkpt>
      <trkpt lat="48.81202" lon="2.48633">
        <ele>84.8</ele>
        <time>2015-06-08T20:09:19.766Z</time>
      </trkpt>
      <trkpt lat="48.81202" lon="2.48621">
        <ele>84.7</ele>
        <time>2015-06-08T20:09:21.772Z</time>
      </trkpt>
      <trkpt lat="48.81202" lon="2.48616">
        <ele>84.7</ele>
        <time>2015-06-08T20:09:22.729Z</time>
      </trkpt>
      <trkpt lat="48.81202" lon="2.48605">
        <ele>84.6</ele>
        <time>2015-06-08T20:09:24.704Z</time>
      </trkpt>
      <trkpt lat="48.81205" lon="2.48601">
        <ele>84.4</ele>
        <time>2015-06-08T20:09:25.737Z</time>
      </trkpt>
      <trkpt lat="48.81208" lon="2.48596">
        <ele>84.1</ele>
        <time>2015-06-08T20:09:26.795Z</time>
      </trkpt>
      <trkpt lat="48.8121" lon="2.4859">
        <ele>83.7</ele>
        <time>2015-06-08T20:09:27.704Z</time>
      </trkpt>
      <trkpt lat="48.81215" lon="2.48579">
        <ele>83.2</ele>
        <time>2015-06-08T20:09:29.729Z</time>
      </trkpt>
      <trkpt lat="48.81217" lon="2.48573">
        <ele>82.9</ele>
        <time>2015-06-08T20:09:30.748Z</time>
      </trkpt>
      <trkpt lat="48.81218" lon="2.48566">
        <ele>82.9</ele>
        <time>2015-06-08T20:09:31.702Z</time>
      </trkpt>
      <trkpt lat="48.81219" lon="2.4856">
        <ele>83</ele>
        <time>2015-06-08T20:09:32.824Z</time>
      </trkpt>
      <trkpt lat="48.81221" lon="2.48547">
        <ele>83.1</ele>
        <time>2015-06-08T20:09:34.717Z</time>
      </trkpt>
      <trkpt lat="48.81221" lon="2.48539">
        <ele>83</ele>
        <time>2015-06-08T20:09:35.712Z</time>
      </trkpt>
      <trkpt lat="48.81221" lon="2.4853">
        <ele>82.7</ele>
        <time>2015-06-08T20:09:36.667Z</time>
      </trkpt>
      <trkpt lat="48.81221" lon="2.48522">
        <ele>82.8</ele>
        <time>2015-06-08T20:09:37.665Z</time>
      </trkpt>
      <trkpt lat="48.8122" lon="2.48515">
        <ele>82.9</ele>
        <time>2015-06-08T20:09:38.718Z</time>
      </trkpt>
      <trkpt lat="48.8122" lon="2.48507">
        <ele>82.9</ele>
        <time>2015-06-08T20:09:39.845Z</time>
      </trkpt>
      <trkpt lat="48.8122" lon="2.485">
        <ele>83</ele>
        <time>2015-06-08T20:09:41.327Z</time>
      </trkpt>
      <trkpt lat="48.8122" lon="2.48492">
        <ele>83.2</ele>
        <time>2015-06-08T20:09:41.634Z</time>
      </trkpt>
      <trkpt lat="48.8122" lon="2.4848">
        <ele>83.3</ele>
        <time>2015-06-08T20:09:43.706Z</time>
      </trkpt>
      <trkpt lat="48.8122" lon="2.48475">
        <ele>83.4</ele>
        <time>2015-06-08T20:09:44.719Z</time>
      </trkpt>
      <trkpt lat="48.81221" lon="2.48468">
        <ele>83.3</ele>
        <time>2015-06-08T20:09:46.486Z</time>
      </trkpt>
      <trkpt lat="48.81222" lon="2.4846">
        <ele>83.2</ele>
        <time>2015-06-08T20:09:46.640Z</time>
      </trkpt>
      <trkpt lat="48.81223" lon="2.48452">
        <ele>83.3</ele>
        <time>2015-06-08T20:09:47.669Z</time>
      </trkpt>
      <trkpt lat="48.81223" lon="2.48443">
        <ele>83.9</ele>
        <time>2015-06-08T20:09:48.684Z</time>
      </trkpt>
      <trkpt lat="48.81225" lon="2.48434">
        <ele>84</ele>
        <time>2015-06-08T20:09:49.691Z</time>
      </trkpt>
      <trkpt lat="48.81226" lon="2.48425">
        <ele>84.1</ele>
        <time>2015-06-08T20:09:50.726Z</time>
      </trkpt>
      <trkpt lat="48.81226" lon="2.48416">
        <ele>84.2</ele>
        <time>2015-06-08T20:09:51.704Z</time>
      </trkpt>
      <trkpt lat="48.81226" lon="2.48408">
        <ele>84.4</ele>
        <time>2015-06-08T20:09:52.732Z</time>
      </trkpt>
      <trkpt lat="48.81227" lon="2.48399">
        <ele>84.2</ele>
        <time>2015-06-08T20:09:53.747Z</time>
      </trkpt>
      <trkpt lat="48.81228" lon="2.48392">
        <ele>84.2</ele>
        <time>2015-06-08T20:09:54.645Z</time>
      </trkpt>
      <trkpt lat="48.8123" lon="2.48385">
        <ele>84.4</ele>
        <time>2015-06-08T20:09:55.682Z</time>
      </trkpt>
      <trkpt lat="48.81233" lon="2.48376">
        <ele>84.4</ele>
        <time>2015-06-08T20:09:56.795Z</time>
      </trkpt>
      <trkpt lat="48.81235" lon="2.48369">
        <ele>84.3</ele>
        <time>2015-06-08T20:09:57.716Z</time>
      </trkpt>
      <trkpt lat="48.81236" lon="2.48362">
        <ele>84.4</ele>
        <time>2015-06-08T20:09:58.723Z</time>
      </trkpt>
      <trkpt lat="48.81237" lon="2.48354">
        <ele>84.6</ele>
        <time>2015-06-08T20:09:59.729Z</time>
      </trkpt>
      <trkpt lat="48.81238" lon="2.48348">
        <ele>84.8</ele>
        <time>2015-06-08T20:10:00.748Z</time>
      </trkpt>
      <trkpt lat="48.81241" lon="2.48335">
        <ele>84.7</ele>
        <time>2015-06-08T20:10:02.766Z</time>
      </trkpt>
      <trkpt lat="48.81241" lon="2.48329">
        <ele>85</ele>
        <time>2015-06-08T20:10:03.688Z</time>
      </trkpt>
      <trkpt lat="48.81243" lon="2.48317">
        <ele>84.8</ele>
        <time>2015-06-08T20:10:05.707Z</time>
      </trkpt>
      <trkpt lat="48.81243" lon="2.48312">
        <ele>85.1</ele>
        <time>2015-06-08T20:10:06.730Z</time>
      </trkpt>
      <trkpt lat="48.81244" lon="2.48305">
        <ele>85.4</ele>
        <time>2015-06-08T20:10:07.679Z</time>
      </trkpt>
      <trkpt lat="48.81244" lon="2.48298">
        <ele>85.6</ele>
        <time>2015-06-08T20:10:08.772Z</time>
      </trkpt>
      <trkpt lat="48.81245" lon="2.48291">
        <ele>85.8</ele>
        <time>2015-06-08T20:10:09.686Z</time>
      </trkpt>
      <trkpt lat="48.81247" lon="2.48285">
        <ele>86.1</ele>
        <time>2015-06-08T20:10:10.695Z</time>
      </trkpt>
      <trkpt lat="48.81248" lon="2.48278">
        <ele>86</ele>
        <time>2015-06-08T20:10:11.691Z</time>
      </trkpt>
      <trkpt lat="48.81248" lon="2.4827">
        <ele>86</ele>
        <time>2015-06-08T20:10:12.688Z</time>
      </trkpt>
      <trkpt lat="48.8125" lon="2.48262">
        <ele>86</ele>
        <time>2015-06-08T20:10:13.703Z</time>
      </trkpt>
      <trkpt lat="48.81251" lon="2.48255">
        <ele>86.3</ele>
        <time>2015-06-08T20:10:14.740Z</time>
      </trkpt>
      <trkpt lat="48.81253" lon="2.48248">
        <ele>86.5</ele>
        <time>2015-06-08T20:10:15.684Z</time>
      </trkpt>
      <trkpt lat="48.81254" lon="2.48241">
        <ele>86.9</ele>
        <time>2015-06-08T20:10:16.905Z</time>
      </trkpt>
      <trkpt lat="48.81256" lon="2.48234">
        <ele>86.8</ele>
        <time>2015-06-08T20:10:17.704Z</time>
      </trkpt>
      <trkpt lat="48.81256" lon="2.48227">
        <ele>86.9</ele>
        <time>2015-06-08T20:10:18.711Z</time>
      </trkpt>
      <trkpt lat="48.81257" lon="2.48215">
        <ele>87</ele>
        <time>2015-06-08T20:10:20.739Z</time>
      </trkpt>
      <trkpt lat="48.81257" lon="2.48209">
        <ele>87.1</ele>
        <time>2015-06-08T20:10:21.791Z</time>
      </trkpt>
      <trkpt lat="48.81259" lon="2.48198">
        <ele>87.3</ele>
        <time>2015-06-08T20:10:23.762Z</time>
      </trkpt>
      <trkpt lat="48.81261" lon="2.48191">
        <ele>87.1</ele>
        <time>2015-06-08T20:10:24.711Z</time>
      </trkpt>
      <trkpt lat="48.81263" lon="2.48179">
        <ele>86.7</ele>
        <time>2015-06-08T20:10:26.813Z</time>
      </trkpt>
      <trkpt lat="48.81264" lon="2.48172">
        <ele>86.4</ele>
        <time>2015-06-08T20:10:27.701Z</time>
      </trkpt>
      <trkpt lat="48.81267" lon="2.48165">
        <ele>86.4</ele>
        <time>2015-06-08T20:10:28.697Z</time>
      </trkpt>
      <trkpt lat="48.81267" lon="2.48159">
        <ele>86.4</ele>
        <time>2015-06-08T20:10:29.762Z</time>
      </trkpt>
      <trkpt lat="48.81269" lon="2.48148">
        <ele>86.4</ele>
        <time>2015-06-08T20:10:31.690Z</time>
      </trkpt>
      <trkpt lat="48.8127" lon="2.48143">
        <ele>86.4</ele>
        <time>2015-06-08T20:10:32.776Z</time>
      </trkpt>
      <trkpt lat="48.81272" lon="2.48133">
        <ele>86.8</ele>
        <time>2015-06-08T20:10:34.714Z</time>
      </trkpt>
      <trkpt lat="48.81273" lon="2.48128">
        <ele>86.9</ele>
        <time>2015-06-08T20:10:35.654Z</time>
      </trkpt>
      <trkpt lat="48.81276" lon="2.48118">
        <ele>87.4</ele>
        <time>2015-06-08T20:10:37.663Z</time>
      </trkpt>
      <trkpt lat="48.81277" lon="2.48113">
        <ele>87.5</ele>
        <time>2015-06-08T20:10:38.755Z</time>
      </trkpt>
      <trkpt lat="48.81277" lon="2.48102">
        <ele>87.7</ele>
        <time>2015-06-08T20:10:41.434Z</time>
      </trkpt>
      <trkpt lat="48.81278" lon="2.48097">
        <ele>87.7</ele>
        <time>2015-06-08T20:10:41.737Z</time>
      </trkpt>
      <trkpt lat="48.8128" lon="2.48087">
        <ele>88.2</ele>
        <time>2015-06-08T20:10:43.668Z</time>
      </trkpt>
      <trkpt lat="48.81281" lon="2.48083">
        <ele>88.7</ele>
        <time>2015-06-08T20:10:44.788Z</time>
      </trkpt>
      <trkpt lat="48.81281" lon="2.48073">
        <ele>89.4</ele>
        <time>2015-06-08T20:10:46.677Z</time>
      </trkpt>
      <trkpt lat="48.81281" lon="2.48068">
        <ele>89.6</ele>
        <time>2015-06-08T20:10:47.785Z</time>
      </trkpt>
      <trkpt lat="48.81281" lon="2.48057">
        <ele>90.3</ele>
        <time>2015-06-08T20:10:49.697Z</time>
      </trkpt>
      <trkpt lat="48.81282" lon="2.48053">
        <ele>90.4</ele>
        <time>2015-06-08T20:10:50.878Z</time>
      </trkpt>
      <trkpt lat="48.81284" lon="2.48043">
        <ele>90.9</ele>
        <time>2015-06-08T20:10:53.754Z</time>
      </trkpt>
      <trkpt lat="48.81285" lon="2.4804">
        <ele>91</ele>
        <time>2015-06-08T20:10:54.788Z</time>
      </trkpt>
      <trkpt lat="48.81288" lon="2.48028">
        <ele>89.8</ele>
        <time>2015-06-08T20:10:57.743Z</time>
      </trkpt>
      <trkpt lat="48.81289" lon="2.48025">
        <ele>90.2</ele>
        <time>2015-06-08T20:10:58.758Z</time>
      </trkpt>
      <trkpt lat="48.8129" lon="2.48011">
        <ele>90.6</ele>
        <time>2015-06-08T20:11:03.695Z</time>
      </trkpt>
      <trkpt lat="48.8129" lon="2.48009">
        <ele>90.5</ele>
        <time>2015-06-08T20:11:04.754Z</time>
      </trkpt>
      <trkpt lat="48.81292" lon="2.47997">
        <ele>90.5</ele>
        <time>2015-06-08T20:11:08.769Z</time>
      </trkpt>
      <trkpt lat="48.81293" lon="2.47994">
        <ele>90.8</ele>
        <time>2015-06-08T20:11:09.708Z</time>
      </trkpt>
      <trkpt lat="48.81295" lon="2.47987">
        <ele>90.9</ele>
        <time>2015-06-08T20:12:56.574Z</time>
      </trkpt>
      <trkpt lat="48.81301" lon="2.4795">
        <ele>93</ele>
        <time>2015-06-08T20:12:56.728Z</time>
      </trkpt>
      <trkpt lat="48.81306" lon="2.47942">
        <ele>92.8</ele>
        <time>2015-06-08T20:12:58.752Z</time>
      </trkpt>
      <trkpt lat="48.8131" lon="2.47936">
        <ele>93.2</ele>
        <time>2015-06-08T20:12:59.767Z</time>
      </trkpt>
      <trkpt lat="48.81315" lon="2.47927">
        <ele>92.5</ele>
        <time>2015-06-08T20:13:01.758Z</time>
      </trkpt>
      <trkpt lat="48.81317" lon="2.47923">
        <ele>91.9</ele>
        <time>2015-06-08T20:13:02.763Z</time>
      </trkpt>
      <trkpt lat="48.81322" lon="2.47912">
        <ele>91.8</ele>
        <time>2015-06-08T20:13:04.815Z</time>
      </trkpt>
      <trkpt lat="48.81324" lon="2.47906">
        <ele>91.7</ele>
        <time>2015-06-08T20:13:05.708Z</time>
      </trkpt>
      <trkpt lat="48.81328" lon="2.47896">
        <ele>91.4</ele>
        <time>2015-06-08T20:13:07.738Z</time>
      </trkpt>
      <trkpt lat="48.81329" lon="2.47891">
        <ele>90.8</ele>
        <time>2015-06-08T20:13:08.795Z</time>
      </trkpt>
      <trkpt lat="48.81327" lon="2.4788">
        <ele>90.9</ele>
        <time>2015-06-08T20:13:11.813Z</time>
      </trkpt>
      <trkpt lat="48.81327" lon="2.47876">
        <ele>91.1</ele>
        <time>2015-06-08T20:13:12.719Z</time>
      </trkpt>
      <trkpt lat="48.81333" lon="2.47868">
        <ele>90.4</ele>
        <time>2015-06-08T20:13:16.938Z</time>
      </trkpt>
      <trkpt lat="48.81335" lon="2.47865">
        <ele>90.3</ele>
        <time>2015-06-08T20:13:17.705Z</time>
      </trkpt>
      <trkpt lat="48.81341" lon="2.47858">
        <ele>89.7</ele>
        <time>2015-06-08T20:13:19.770Z</time>
      </trkpt>
      <trkpt lat="48.81344" lon="2.47854">
        <ele>89.1</ele>
        <time>2015-06-08T20:13:20.814Z</time>
      </trkpt>
      <trkpt lat="48.8135" lon="2.47844">
        <ele>88.9</ele>
        <time>2015-06-08T20:13:22.718Z</time>
      </trkpt>
      <trkpt lat="48.81353" lon="2.47839">
        <ele>88.8</ele>
        <time>2015-06-08T20:13:23.731Z</time>
      </trkpt>
      <trkpt lat="48.81357" lon="2.47828">
        <ele>88.3</ele>
        <time>2015-06-08T20:13:25.748Z</time>
      </trkpt>
      <trkpt lat="48.81358" lon="2.47823">
        <ele>88.1</ele>
        <time>2015-06-08T20:13:26.765Z</time>
      </trkpt>
      <trkpt lat="48.81362" lon="2.47812">
        <ele>87.9</ele>
        <time>2015-06-08T20:13:28.788Z</time>
      </trkpt>
      <trkpt lat="48.81365" lon="2.47806">
        <ele>87.9</ele>
        <time>2015-06-08T20:13:29.710Z</time>
      </trkpt>
      <trkpt lat="48.8137" lon="2.47795">
        <ele>87.7</ele>
        <time>2015-06-08T20:13:32.140Z</time>
      </trkpt>
      <trkpt lat="48.81373" lon="2.4779">
        <ele>87.6</ele>
        <time>2015-06-08T20:13:32.770Z</time>
      </trkpt>
      <trkpt lat="48.81377" lon="2.47778">
        <ele>87.4</ele>
        <time>2015-06-08T20:13:34.776Z</time>
      </trkpt>
      <trkpt lat="48.81379" lon="2.47772">
        <ele>87.3</ele>
        <time>2015-06-08T20:13:35.693Z</time>
      </trkpt>
      <trkpt lat="48.81382" lon="2.47761">
        <ele>86.5</ele>
        <time>2015-06-08T20:13:37.748Z</time>
      </trkpt>
      <trkpt lat="48.81385" lon="2.47755">
        <ele>86.1</ele>
        <time>2015-06-08T20:13:38.756Z</time>
      </trkpt>
      <trkpt lat="48.81388" lon="2.47749">
        <ele>86.3</ele>
        <time>2015-06-08T20:13:39.651Z</time>
      </trkpt>
      <trkpt lat="48.8139" lon="2.47742">
        <ele>86.5</ele>
        <time>2015-06-08T20:13:40.743Z</time>
      </trkpt>
      <trkpt lat="48.81392" lon="2.47734">
        <ele>86.5</ele>
        <time>2015-06-08T20:13:41.765Z</time>
      </trkpt>
      <trkpt lat="48.81395" lon="2.47727">
        <ele>86.5</ele>
        <time>2015-06-08T20:13:42.688Z</time>
      </trkpt>
      <trkpt lat="48.81397" lon="2.47719">
        <ele>86.1</ele>
        <time>2015-06-08T20:13:43.679Z</time>
      </trkpt>
      <trkpt lat="48.814" lon="2.47711">
        <ele>85.9</ele>
        <time>2015-06-08T20:13:44.743Z</time>
      </trkpt>
      <trkpt lat="48.81402" lon="2.47704">
        <ele>85.7</ele>
        <time>2015-06-08T20:13:45.766Z</time>
      </trkpt>
      <trkpt lat="48.81405" lon="2.47696">
        <ele>85.9</ele>
        <time>2015-06-08T20:13:46.686Z</time>
      </trkpt>
      <trkpt lat="48.81407" lon="2.47689">
        <ele>85.5</ele>
        <time>2015-06-08T20:13:47.704Z</time>
      </trkpt>
      <trkpt lat="48.81411" lon="2.47681">
        <ele>86.5</ele>
        <time>2015-06-08T20:13:48.683Z</time>
      </trkpt>
      <trkpt lat="48.81414" lon="2.47673">
        <ele>86.8</ele>
        <time>2015-06-08T20:13:49.695Z</time>
      </trkpt>
      <trkpt lat="48.81416" lon="2.47665">
        <ele>86.5</ele>
        <time>2015-06-08T20:13:50.725Z</time>
      </trkpt>
      <trkpt lat="48.81418" lon="2.47657">
        <ele>86.7</ele>
        <time>2015-06-08T20:13:51.732Z</time>
      </trkpt>
      <trkpt lat="48.8142" lon="2.4765">
        <ele>86.9</ele>
        <time>2015-06-08T20:13:52.754Z</time>
      </trkpt>
      <trkpt lat="48.81423" lon="2.47642">
        <ele>86.4</ele>
        <time>2015-06-08T20:13:53.746Z</time>
      </trkpt>
      <trkpt lat="48.81426" lon="2.47634">
        <ele>86.4</ele>
        <time>2015-06-08T20:13:54.766Z</time>
      </trkpt>
      <trkpt lat="48.81428" lon="2.47627">
        <ele>86.3</ele>
        <time>2015-06-08T20:13:55.686Z</time>
      </trkpt>
      <trkpt lat="48.81431" lon="2.47619">
        <ele>86.4</ele>
        <time>2015-06-08T20:13:56.802Z</time>
      </trkpt>
      <trkpt lat="48.81434" lon="2.47611">
        <ele>86.6</ele>
        <time>2015-06-08T20:13:57.708Z</time>
      </trkpt>
      <trkpt lat="48.81437" lon="2.47603">
        <ele>86.6</ele>
        <time>2015-06-08T20:13:58.723Z</time>
      </trkpt>
      <trkpt lat="48.8144" lon="2.47594">
        <ele>86.6</ele>
        <time>2015-06-08T20:13:59.713Z</time>
      </trkpt>
      <trkpt lat="48.81443" lon="2.47586">
        <ele>86.5</ele>
        <time>2015-06-08T20:14:00.686Z</time>
      </trkpt>
      <trkpt lat="48.81446" lon="2.47577">
        <ele>86.4</ele>
        <time>2015-06-08T20:14:01.683Z</time>
      </trkpt>
      <trkpt lat="48.81449" lon="2.47569">
        <ele>86.6</ele>
        <time>2015-06-08T20:14:02.746Z</time>
      </trkpt>
      <trkpt lat="48.81452" lon="2.4756">
        <ele>86.6</ele>
        <time>2015-06-08T20:14:03.751Z</time>
      </trkpt>
      <trkpt lat="48.81455" lon="2.47551">
        <ele>86.7</ele>
        <time>2015-06-08T20:14:04.764Z</time>
      </trkpt>
      <trkpt lat="48.81458" lon="2.47543">
        <ele>86.4</ele>
        <time>2015-06-08T20:14:05.703Z</time>
      </trkpt>
      <trkpt lat="48.81462" lon="2.47534">
        <ele>86.4</ele>
        <time>2015-06-08T20:14:06.725Z</time>
      </trkpt>
      <trkpt lat="48.81465" lon="2.47525">
        <ele>86</ele>
        <time>2015-06-08T20:14:07.759Z</time>
      </trkpt>
      <trkpt lat="48.81468" lon="2.47516">
        <ele>86</ele>
        <time>2015-06-08T20:14:08.827Z</time>
      </trkpt>
      <trkpt lat="48.81472" lon="2.47508">
        <ele>86</ele>
        <time>2015-06-08T20:14:09.684Z</time>
      </trkpt>
      <trkpt lat="48.81475" lon="2.475">
        <ele>86.2</ele>
        <time>2015-06-08T20:14:10.682Z</time>
      </trkpt>
      <trkpt lat="48.81478" lon="2.47493">
        <ele>86.6</ele>
        <time>2015-06-08T20:14:11.687Z</time>
      </trkpt>
      <trkpt lat="48.81482" lon="2.47486">
        <ele>86.9</ele>
        <time>2015-06-08T20:14:12.710Z</time>
      </trkpt>
      <trkpt lat="48.81485" lon="2.47478">
        <ele>86.9</ele>
        <time>2015-06-08T20:14:13.741Z</time>
      </trkpt>
      <trkpt lat="48.81488" lon="2.47471">
        <ele>87</ele>
        <time>2015-06-08T20:14:14.757Z</time>
      </trkpt>
      <trkpt lat="48.81492" lon="2.47463">
        <ele>87.3</ele>
        <time>2015-06-08T20:14:15.665Z</time>
      </trkpt>
      <trkpt lat="48.81495" lon="2.47455">
        <ele>87.7</ele>
        <time>2015-06-08T20:14:16.680Z</time>
      </trkpt>
      <trkpt lat="48.81499" lon="2.47448">
        <ele>88</ele>
        <time>2015-06-08T20:14:17.684Z</time>
      </trkpt>
      <trkpt lat="48.81502" lon="2.4744">
        <ele>88.2</ele>
        <time>2015-06-08T20:14:18.700Z</time>
      </trkpt>
      <trkpt lat="48.81506" lon="2.47432">
        <ele>88.1</ele>
        <time>2015-06-08T20:14:19.705Z</time>
      </trkpt>
      <trkpt lat="48.8151" lon="2.47425">
        <ele>88.1</ele>
        <time>2015-06-08T20:14:20.741Z</time>
      </trkpt>
      <trkpt lat="48.81514" lon="2.47417">
        <ele>88</ele>
        <time>2015-06-08T20:14:21.747Z</time>
      </trkpt>
      <trkpt lat="48.81517" lon="2.47409">
        <ele>87.9</ele>
        <time>2015-06-08T20:14:22.752Z</time>
      </trkpt>
      <trkpt lat="48.81521" lon="2.47402">
        <ele>87.7</ele>
        <time>2015-06-08T20:14:23.674Z</time>
      </trkpt>
      <trkpt lat="48.81524" lon="2.47394">
        <ele>87.6</ele>
        <time>2015-06-08T20:14:24.672Z</time>
      </trkpt>
      <trkpt lat="48.81526" lon="2.47386">
        <ele>87.1</ele>
        <time>2015-06-08T20:14:25.684Z</time>
      </trkpt>
      <trkpt lat="48.81529" lon="2.47378">
        <ele>87</ele>
        <time>2015-06-08T20:14:26.740Z</time>
      </trkpt>
      <trkpt lat="48.81532" lon="2.47371">
        <ele>86.7</ele>
        <time>2015-06-08T20:14:27.743Z</time>
      </trkpt>
      <trkpt lat="48.81534" lon="2.47362">
        <ele>86.5</ele>
        <time>2015-06-08T20:14:28.756Z</time>
      </trkpt>
      <trkpt lat="48.81537" lon="2.47354">
        <ele>86.9</ele>
        <time>2015-06-08T20:14:29.683Z</time>
      </trkpt>
      <trkpt lat="48.8154" lon="2.47346">
        <ele>87.1</ele>
        <time>2015-06-08T20:14:30.681Z</time>
      </trkpt>
      <trkpt lat="48.81543" lon="2.47339">
        <ele>87.1</ele>
        <time>2015-06-08T20:14:31.688Z</time>
      </trkpt>
      <trkpt lat="48.81547" lon="2.47331">
        <ele>87.2</ele>
        <time>2015-06-08T20:14:32.746Z</time>
      </trkpt>
      <trkpt lat="48.8155" lon="2.47323">
        <ele>87</ele>
        <time>2015-06-08T20:14:33.736Z</time>
      </trkpt>
      <trkpt lat="48.81553" lon="2.47316">
        <ele>87</ele>
        <time>2015-06-08T20:14:34.669Z</time>
      </trkpt>
      <trkpt lat="48.81556" lon="2.47308">
        <ele>86.8</ele>
        <time>2015-06-08T20:14:35.677Z</time>
      </trkpt>
      <trkpt lat="48.81559" lon="2.473">
        <ele>86.6</ele>
        <time>2015-06-08T20:14:36.676Z</time>
      </trkpt>
      <trkpt lat="48.81563" lon="2.47293">
        <ele>86.5</ele>
        <time>2015-06-08T20:14:37.678Z</time>
      </trkpt>
      <trkpt lat="48.81566" lon="2.47286">
        <ele>86</ele>
        <time>2015-06-08T20:14:38.744Z</time>
      </trkpt>
      <trkpt lat="48.8157" lon="2.47278">
        <ele>85.2</ele>
        <time>2015-06-08T20:14:39.751Z</time>
      </trkpt>
      <trkpt lat="48.81574" lon="2.47271">
        <ele>84.7</ele>
        <time>2015-06-08T20:14:40.684Z</time>
      </trkpt>
      <trkpt lat="48.81578" lon="2.47265">
        <ele>84.3</ele>
        <time>2015-06-08T20:14:41.672Z</time>
      </trkpt>
      <trkpt lat="48.81581" lon="2.47258">
        <ele>84.4</ele>
        <time>2015-06-08T20:14:42.687Z</time>
      </trkpt>
      <trkpt lat="48.81585" lon="2.47251">
        <ele>84.4</ele>
        <time>2015-06-08T20:14:43.687Z</time>
      </trkpt>
      <trkpt lat="48.81591" lon="2.47244">
        <ele>85.1</ele>
        <time>2015-06-08T20:14:44.775Z</time>
      </trkpt>
      <trkpt lat="48.81597" lon="2.47237">
        <ele>85.2</ele>
        <time>2015-06-08T20:14:45.657Z</time>
      </trkpt>
      <trkpt lat="48.81602" lon="2.47229">
        <ele>85.1</ele>
        <time>2015-06-08T20:14:46.699Z</time>
      </trkpt>
      <trkpt lat="48.81608" lon="2.47222">
        <ele>84.9</ele>
        <time>2015-06-08T20:14:47.687Z</time>
      </trkpt>
      <trkpt lat="48.81613" lon="2.47216">
        <ele>85</ele>
        <time>2015-06-08T20:14:48.693Z</time>
      </trkpt>
      <trkpt lat="48.81619" lon="2.4721">
        <ele>85.4</ele>
        <time>2015-06-08T20:14:49.723Z</time>
      </trkpt>
      <trkpt lat="48.81624" lon="2.47205">
        <ele>85.6</ele>
        <time>2015-06-08T20:14:50.731Z</time>
      </trkpt>
      <trkpt lat="48.81629" lon="2.472">
        <ele>85.5</ele>
        <time>2015-06-08T20:14:51.740Z</time>
      </trkpt>
      <trkpt lat="48.81633" lon="2.47196">
        <ele>85.6</ele>
        <time>2015-06-08T20:14:52.773Z</time>
      </trkpt>
      <trkpt lat="48.81638" lon="2.47192">
        <ele>85.8</ele>
        <time>2015-06-08T20:14:53.647Z</time>
      </trkpt>
      <trkpt lat="48.81643" lon="2.47187">
        <ele>85.9</ele>
        <time>2015-06-08T20:14:54.675Z</time>
      </trkpt>
      <trkpt lat="48.81647" lon="2.47181">
        <ele>86.2</ele>
        <time>2015-06-08T20:14:55.684Z</time>
      </trkpt>
      <trkpt lat="48.8165" lon="2.47175">
        <ele>86.5</ele>
        <time>2015-06-08T20:14:56.731Z</time>
      </trkpt>
      <trkpt lat="48.81653" lon="2.4717">
        <ele>86.2</ele>
        <time>2015-06-08T20:14:57.763Z</time>
      </trkpt>
      <trkpt lat="48.81658" lon="2.47166">
        <ele>86</ele>
        <time>2015-06-08T20:14:58.681Z</time>
      </trkpt>
      <trkpt lat="48.81663" lon="2.47161">
        <ele>86.2</ele>
        <time>2015-06-08T20:14:59.682Z</time>
      </trkpt>
      <trkpt lat="48.81669" lon="2.47155">
        <ele>85.8</ele>
        <time>2015-06-08T20:15:00.669Z</time>
      </trkpt>
      <trkpt lat="48.81676" lon="2.47149">
        <ele>85.7</ele>
        <time>2015-06-08T20:15:01.696Z</time>
      </trkpt>
      <trkpt lat="48.81681" lon="2.47142">
        <ele>86.2</ele>
        <time>2015-06-08T20:15:02.738Z</time>
      </trkpt>
      <trkpt lat="48.81686" lon="2.47136">
        <ele>85.9</ele>
        <time>2015-06-08T20:15:03.743Z</time>
      </trkpt>
      <trkpt lat="48.81691" lon="2.4713">
        <ele>86.1</ele>
        <time>2015-06-08T20:15:04.743Z</time>
      </trkpt>
      <trkpt lat="48.81696" lon="2.47124">
        <ele>86.4</ele>
        <time>2015-06-08T20:15:05.759Z</time>
      </trkpt>
      <trkpt lat="48.81701" lon="2.47117">
        <ele>86.5</ele>
        <time>2015-06-08T20:15:06.681Z</time>
      </trkpt>
      <trkpt lat="48.81707" lon="2.47111">
        <ele>86.9</ele>
        <time>2015-06-08T20:15:07.682Z</time>
      </trkpt>
      <trkpt lat="48.81712" lon="2.47105">
        <ele>87</ele>
        <time>2015-06-08T20:15:08.741Z</time>
      </trkpt>
      <trkpt lat="48.81717" lon="2.47099">
        <ele>87.2</ele>
        <time>2015-06-08T20:15:09.736Z</time>
      </trkpt>
      <trkpt lat="48.8172" lon="2.47094">
        <ele>87.1</ele>
        <time>2015-06-08T20:15:10.740Z</time>
      </trkpt>
      <trkpt lat="48.81725" lon="2.47088">
        <ele>87.2</ele>
        <time>2015-06-08T20:15:11.749Z</time>
      </trkpt>
      <trkpt lat="48.81728" lon="2.47083">
        <ele>87.4</ele>
        <time>2015-06-08T20:15:12.895Z</time>
      </trkpt>
      <trkpt lat="48.81732" lon="2.47077">
        <ele>87.2</ele>
        <time>2015-06-08T20:15:13.766Z</time>
      </trkpt>
      <trkpt lat="48.81736" lon="2.47072">
        <ele>86.9</ele>
        <time>2015-06-08T20:15:14.776Z</time>
      </trkpt>
      <trkpt lat="48.81743" lon="2.47066">
        <ele>85.7</ele>
        <time>2015-06-08T20:15:15.696Z</time>
      </trkpt>
      <trkpt lat="48.81749" lon="2.4706">
        <ele>84.8</ele>
        <time>2015-06-08T20:15:16.690Z</time>
      </trkpt>
      <trkpt lat="48.81753" lon="2.47055">
        <ele>84.7</ele>
        <time>2015-06-08T20:15:17.688Z</time>
      </trkpt>
      <trkpt lat="48.81758" lon="2.47049">
        <ele>84.9</ele>
        <time>2015-06-08T20:15:18.697Z</time>
      </trkpt>
      <trkpt lat="48.81762" lon="2.47044">
        <ele>84.9</ele>
        <time>2015-06-08T20:15:19.729Z</time>
      </trkpt>
      <trkpt lat="48.81766" lon="2.4704">
        <ele>85.1</ele>
        <time>2015-06-08T20:15:20.739Z</time>
      </trkpt>
      <trkpt lat="48.8177" lon="2.47035">
        <ele>85.2</ele>
        <time>2015-06-08T20:15:21.743Z</time>
      </trkpt>
      <trkpt lat="48.81775" lon="2.4703">
        <ele>85</ele>
        <time>2015-06-08T20:15:22.758Z</time>
      </trkpt>
      <trkpt lat="48.81778" lon="2.47026">
        <ele>85.3</ele>
        <time>2015-06-08T20:15:23.684Z</time>
      </trkpt>
      <trkpt lat="48.81781" lon="2.47021">
        <ele>85.6</ele>
        <time>2015-06-08T20:15:24.687Z</time>
      </trkpt>
      <trkpt lat="48.81784" lon="2.47016">
        <ele>85.6</ele>
        <time>2015-06-08T20:15:25.693Z</time>
      </trkpt>
      <trkpt lat="48.81788" lon="2.4701">
        <ele>85.5</ele>
        <time>2015-06-08T20:15:26.743Z</time>
      </trkpt>
      <trkpt lat="48.8179" lon="2.47005">
        <ele>85.5</ele>
        <time>2015-06-08T20:15:27.746Z</time>
      </trkpt>
      <trkpt lat="48.81792" lon="2.46998">
        <ele>85.4</ele>
        <time>2015-06-08T20:15:28.745Z</time>
      </trkpt>
      <trkpt lat="48.81795" lon="2.46986">
        <ele>85.6</ele>
        <time>2015-06-08T20:15:30.683Z</time>
      </trkpt>
      <trkpt lat="48.81796" lon="2.46981">
        <ele>86</ele>
        <time>2015-06-08T20:15:31.742Z</time>
      </trkpt>
      <trkpt lat="48.81797" lon="2.46969">
        <ele>86.7</ele>
        <time>2015-06-08T20:15:33.759Z</time>
      </trkpt>
      <trkpt lat="48.81797" lon="2.46964">
        <ele>86.9</ele>
        <time>2015-06-08T20:15:34.680Z</time>
      </trkpt>
      <trkpt lat="48.81798" lon="2.46956">
        <ele>87</ele>
        <time>2015-06-08T20:15:36.704Z</time>
      </trkpt>
      <trkpt lat="48.81799" lon="2.46951">
        <ele>86.8</ele>
        <time>2015-06-08T20:15:37.707Z</time>
      </trkpt>
      <trkpt lat="48.81802" lon="2.46939">
        <ele>87.1</ele>
        <time>2015-06-08T20:15:40.729Z</time>
      </trkpt>
      <trkpt lat="48.81802" lon="2.46937">
        <ele>87.4</ele>
        <time>2015-06-08T20:15:41.749Z</time>
      </trkpt>
      <trkpt lat="48.81801" lon="2.46924">
        <ele>87.3</ele>
        <time>2015-06-08T20:15:44.782Z</time>
      </trkpt>
      <trkpt lat="48.81799" lon="2.4692">
        <ele>87.4</ele>
        <time>2015-06-08T20:15:45.717Z</time>
      </trkpt>
      <trkpt lat="48.81795" lon="2.46914">
        <ele>87.4</ele>
        <time>2015-06-08T20:15:47.699Z</time>
      </trkpt>
      <trkpt lat="48.81792" lon="2.46911">
        <ele>87.5</ele>
        <time>2015-06-08T20:15:48.757Z</time>
      </trkpt>
      <trkpt lat="48.81788" lon="2.46905">
        <ele>87.7</ele>
        <time>2015-06-08T20:15:50.744Z</time>
      </trkpt>
      <trkpt lat="48.81785" lon="2.469">
        <ele>87.6</ele>
        <time>2015-06-08T20:15:51.750Z</time>
      </trkpt>
      <trkpt lat="48.8178" lon="2.46889">
        <ele>87</ele>
        <time>2015-06-08T20:15:53.715Z</time>
      </trkpt>
      <trkpt lat="48.81778" lon="2.46883">
        <ele>86.7</ele>
        <time>2015-06-08T20:15:54.730Z</time>
      </trkpt>
      <trkpt lat="48.81775" lon="2.46872">
        <ele>86.5</ele>
        <time>2015-06-08T20:15:56.761Z</time>
      </trkpt>
      <trkpt lat="48.81774" lon="2.46867">
        <ele>86.6</ele>
        <time>2015-06-08T20:15:57.775Z</time>
      </trkpt>
      <trkpt lat="48.81772" lon="2.46857">
        <ele>86.9</ele>
        <time>2015-06-08T20:15:59.703Z</time>
      </trkpt>
      <trkpt lat="48.81771" lon="2.46852">
        <ele>87.3</ele>
        <time>2015-06-08T20:16:00.742Z</time>
      </trkpt>
      <trkpt lat="48.81768" lon="2.4684">
        <ele>89.7</ele>
        <time>2015-06-08T20:16:03.644Z</time>
      </trkpt>
      <trkpt lat="48.81767" lon="2.46837">
        <ele>90.3</ele>
        <time>2015-06-08T20:16:04.674Z</time>
      </trkpt>
      <trkpt lat="48.81768" lon="2.46828">
        <ele>92.2</ele>
        <time>2015-06-08T20:17:42.627Z</time>
      </trkpt>
      <trkpt lat="48.81776" lon="2.46816">
        <ele>100.3</ele>
        <time>2015-06-08T20:17:43.660Z</time>
      </trkpt>
      <trkpt lat="48.81783" lon="2.4681">
        <ele>100.6</ele>
        <time>2015-06-08T20:17:46.735Z</time>
      </trkpt>
      <trkpt lat="48.81786" lon="2.46807">
        <ele>100.9</ele>
        <time>2015-06-08T20:17:47.686Z</time>
      </trkpt>
      <trkpt lat="48.81791" lon="2.468">
        <ele>101.5</ele>
        <time>2015-06-08T20:17:49.698Z</time>
      </trkpt>
      <trkpt lat="48.81793" lon="2.46798">
        <ele>101.8</ele>
        <time>2015-06-08T20:17:50.716Z</time>
      </trkpt>
      <trkpt lat="48.8179" lon="2.4679">
        <ele>100.4</ele>
        <time>2015-06-08T20:17:55.687Z</time>
      </trkpt>
      <trkpt lat="48.81785" lon="2.46789">
        <ele>99.6</ele>
        <time>2015-06-08T20:17:56.723Z</time>
      </trkpt>
      <trkpt lat="48.81778" lon="2.46784">
        <ele>99.3</ele>
        <time>2015-06-08T20:17:58.674Z</time>
      </trkpt>
      <trkpt lat="48.81774" lon="2.4678">
        <ele>99.3</ele>
        <time>2015-06-08T20:17:59.704Z</time>
      </trkpt>
      <trkpt lat="48.81769" lon="2.4677">
        <ele>99</ele>
        <time>2015-06-08T20:18:01.720Z</time>
      </trkpt>
      <trkpt lat="48.81765" lon="2.46765">
        <ele>98.9</ele>
        <time>2015-06-08T20:18:02.748Z</time>
      </trkpt>
      <trkpt lat="48.81761" lon="2.46756">
        <ele>99.2</ele>
        <time>2015-06-08T20:18:04.678Z</time>
      </trkpt>
      <trkpt lat="48.81758" lon="2.46751">
        <ele>99.2</ele>
        <time>2015-06-08T20:18:05.670Z</time>
      </trkpt>
      <trkpt lat="48.81753" lon="2.46741">
        <ele>98.8</ele>
        <time>2015-06-08T20:18:07.683Z</time>
      </trkpt>
      <trkpt lat="48.8175" lon="2.46736">
        <ele>98.1</ele>
        <time>2015-06-08T20:18:08.685Z</time>
      </trkpt>
      <trkpt lat="48.81745" lon="2.46728">
        <ele>97.9</ele>
        <time>2015-06-08T20:18:10.651Z</time>
      </trkpt>
      <trkpt lat="48.81743" lon="2.46724">
        <ele>97.8</ele>
        <time>2015-06-08T20:18:11.720Z</time>
      </trkpt>
      <trkpt lat="48.81742" lon="2.46712">
        <ele>98.8</ele>
        <time>2015-06-08T20:18:19.978Z</time>
      </trkpt>
      <trkpt lat="48.8174" lon="2.467">
        <ele>100.1</ele>
        <time>2015-06-08T20:18:20.732Z</time>
      </trkpt>
      <trkpt lat="48.81735" lon="2.46691">
        <ele>101.2</ele>
        <time>2015-06-08T20:18:25.012Z</time>
      </trkpt>
      <trkpt lat="48.81734" lon="2.4669">
        <ele>101.4</ele>
        <time>2015-06-08T20:18:25.683Z</time>
      </trkpt>
      <trkpt lat="48.81731" lon="2.46689">
        <ele>102.1</ele>
        <time>2015-06-08T20:20:03.744Z</time>
      </trkpt>
      <trkpt lat="48.81724" lon="2.46696">
        <ele>109.2</ele>
        <time>2015-06-08T20:20:05.054Z</time>
      </trkpt>
      <trkpt lat="48.8172" lon="2.46691">
        <ele>109.5</ele>
        <time>2015-06-08T20:20:06.658Z</time>
      </trkpt>
      <trkpt lat="48.81718" lon="2.46685">
        <ele>109.4</ele>
        <time>2015-06-08T20:20:07.689Z</time>
      </trkpt>
      <trkpt lat="48.81715" lon="2.46679">
        <ele>109.5</ele>
        <time>2015-06-08T20:20:08.717Z</time>
      </trkpt>
      <trkpt lat="48.81712" lon="2.46674">
        <ele>109.9</ele>
        <time>2015-06-08T20:20:09.744Z</time>
      </trkpt>
      <trkpt lat="48.81704" lon="2.46668">
        <ele>109.9</ele>
        <time>2015-06-08T20:20:11.658Z</time>
      </trkpt>
      <trkpt lat="48.817" lon="2.46665">
        <ele>109.8</ele>
        <time>2015-06-08T20:20:12.666Z</time>
      </trkpt>
      <trkpt lat="48.81696" lon="2.46662">
        <ele>109.7</ele>
        <time>2015-06-08T20:20:13.686Z</time>
      </trkpt>
      <trkpt lat="48.81693" lon="2.46657">
        <ele>109.6</ele>
        <time>2015-06-08T20:20:14.696Z</time>
      </trkpt>
      <trkpt lat="48.81688" lon="2.46651">
        <ele>109.3</ele>
        <time>2015-06-08T20:20:15.701Z</time>
      </trkpt>
      <trkpt lat="48.81685" lon="2.46644">
        <ele>109.1</ele>
        <time>2015-06-08T20:20:16.706Z</time>
      </trkpt>
      <trkpt lat="48.81681" lon="2.46635">
        <ele>109.1</ele>
        <time>2015-06-08T20:20:17.709Z</time>
      </trkpt>
      <trkpt lat="48.81678" lon="2.46627">
        <ele>109</ele>
        <time>2015-06-08T20:20:18.726Z</time>
      </trkpt>
      <trkpt lat="48.81674" lon="2.4662">
        <ele>108.9</ele>
        <time>2015-06-08T20:20:20.221Z</time>
      </trkpt>
      <trkpt lat="48.8167" lon="2.46614">
        <ele>108.7</ele>
        <time>2015-06-08T20:20:20.753Z</time>
      </trkpt>
      <trkpt lat="48.81666" lon="2.46607">
        <ele>108.4</ele>
        <time>2015-06-08T20:20:21.655Z</time>
      </trkpt>
      <trkpt lat="48.81662" lon="2.466">
        <ele>108.1</ele>
        <time>2015-06-08T20:20:22.657Z</time>
      </trkpt>
      <trkpt lat="48.81658" lon="2.46593">
        <ele>107.8</ele>
        <time>2015-06-08T20:20:23.693Z</time>
      </trkpt>
      <trkpt lat="48.81655" lon="2.46587">
        <ele>107.5</ele>
        <time>2015-06-08T20:20:24.699Z</time>
      </trkpt>
      <trkpt lat="48.81652" lon="2.4658">
        <ele>107.4</ele>
        <time>2015-06-08T20:20:25.719Z</time>
      </trkpt>
      <trkpt lat="48.81648" lon="2.46574">
        <ele>107.1</ele>
        <time>2015-06-08T20:20:26.734Z</time>
      </trkpt>
      <trkpt lat="48.81643" lon="2.46567">
        <ele>106.9</ele>
        <time>2015-06-08T20:20:27.687Z</time>
      </trkpt>
      <trkpt lat="48.81638" lon="2.46558">
        <ele>106.8</ele>
        <time>2015-06-08T20:20:28.715Z</time>
      </trkpt>
      <trkpt lat="48.81634" lon="2.4655">
        <ele>106.7</ele>
        <time>2015-06-08T20:20:29.675Z</time>
      </trkpt>
      <trkpt lat="48.8163" lon="2.46542">
        <ele>106.9</ele>
        <time>2015-06-08T20:20:30.684Z</time>
      </trkpt>
      <trkpt lat="48.81626" lon="2.46534">
        <ele>106.9</ele>
        <time>2015-06-08T20:20:31.692Z</time>
      </trkpt>
      <trkpt lat="48.81621" lon="2.46527">
        <ele>107</ele>
        <time>2015-06-08T20:20:32.724Z</time>
      </trkpt>
      <trkpt lat="48.81616" lon="2.46519">
        <ele>107.1</ele>
        <time>2015-06-08T20:20:33.735Z</time>
      </trkpt>
      <trkpt lat="48.81612" lon="2.46512">
        <ele>107.1</ele>
        <time>2015-06-08T20:20:34.816Z</time>
      </trkpt>
      <trkpt lat="48.81608" lon="2.46505">
        <ele>107</ele>
        <time>2015-06-08T20:20:35.663Z</time>
      </trkpt>
      <trkpt lat="48.81603" lon="2.46498">
        <ele>107</ele>
        <time>2015-06-08T20:20:36.670Z</time>
      </trkpt>
      <trkpt lat="48.81598" lon="2.46492">
        <ele>106.9</ele>
        <time>2015-06-08T20:20:37.720Z</time>
      </trkpt>
      <trkpt lat="48.81593" lon="2.46484">
        <ele>106.6</ele>
        <time>2015-06-08T20:20:38.734Z</time>
      </trkpt>
      <trkpt lat="48.8159" lon="2.46476">
        <ele>106.3</ele>
        <time>2015-06-08T20:20:39.897Z</time>
      </trkpt>
      <trkpt lat="48.81586" lon="2.46467">
        <ele>106</ele>
        <time>2015-06-08T20:20:40.666Z</time>
      </trkpt>
      <trkpt lat="48.81582" lon="2.46461">
        <ele>105.8</ele>
        <time>2015-06-08T20:20:41.682Z</time>
      </trkpt>
      <trkpt lat="48.81577" lon="2.46455">
        <ele>105.5</ele>
        <time>2015-06-08T20:20:42.674Z</time>
      </trkpt>
      <trkpt lat="48.81572" lon="2.46447">
        <ele>105.3</ele>
        <time>2015-06-08T20:20:43.708Z</time>
      </trkpt>
      <trkpt lat="48.81567" lon="2.46439">
        <ele>105.5</ele>
        <time>2015-06-08T20:20:44.717Z</time>
      </trkpt>
      <trkpt lat="48.81563" lon="2.46431">
        <ele>105.3</ele>
        <time>2015-06-08T20:20:45.671Z</time>
      </trkpt>
      <trkpt lat="48.81558" lon="2.46423">
        <ele>105.3</ele>
        <time>2015-06-08T20:20:46.733Z</time>
      </trkpt>
      <trkpt lat="48.81554" lon="2.46415">
        <ele>105.2</ele>
        <time>2015-06-08T20:20:47.714Z</time>
      </trkpt>
      <trkpt lat="48.81549" lon="2.46408">
        <ele>105.1</ele>
        <time>2015-06-08T20:20:48.726Z</time>
      </trkpt>
      <trkpt lat="48.81544" lon="2.46401">
        <ele>104.2</ele>
        <time>2015-06-08T20:20:49.644Z</time>
      </trkpt>
      <trkpt lat="48.81538" lon="2.46393">
        <ele>103.3</ele>
        <time>2015-06-08T20:20:50.702Z</time>
      </trkpt>
      <trkpt lat="48.81534" lon="2.46383">
        <ele>103.2</ele>
        <time>2015-06-08T20:20:51.842Z</time>
      </trkpt>
      <trkpt lat="48.8153" lon="2.46375">
        <ele>103.4</ele>
        <time>2015-06-08T20:20:52.725Z</time>
      </trkpt>
      <trkpt lat="48.81525" lon="2.46367">
        <ele>103.2</ele>
        <time>2015-06-08T20:20:53.645Z</time>
      </trkpt>
      <trkpt lat="48.8152" lon="2.4636">
        <ele>103.2</ele>
        <time>2015-06-08T20:20:54.655Z</time>
      </trkpt>
      <trkpt lat="48.81516" lon="2.46355">
        <ele>103.2</ele>
        <time>2015-06-08T20:20:55.661Z</time>
      </trkpt>
      <trkpt lat="48.81512" lon="2.46349">
        <ele>103</ele>
        <time>2015-06-08T20:20:56.690Z</time>
      </trkpt>
      <trkpt lat="48.81508" lon="2.46343">
        <ele>102.5</ele>
        <time>2015-06-08T20:20:57.712Z</time>
      </trkpt>
      <trkpt lat="48.81504" lon="2.46338">
        <ele>102.3</ele>
        <time>2015-06-08T20:20:58.691Z</time>
      </trkpt>
      <trkpt lat="48.81499" lon="2.46332">
        <ele>101.4</ele>
        <time>2015-06-08T20:21:00.644Z</time>
      </trkpt>
      <trkpt lat="48.81497" lon="2.46329">
        <ele>101.4</ele>
        <time>2015-06-08T20:21:01.693Z</time>
      </trkpt>
      <trkpt lat="48.81498" lon="2.46319">
        <ele>101.7</ele>
        <time>2015-06-08T20:21:03.749Z</time>
      </trkpt>
      <trkpt lat="48.81498" lon="2.46314">
        <ele>102.5</ele>
        <time>2015-06-08T20:21:04.653Z</time>
      </trkpt>
      <trkpt lat="48.81501" lon="2.46303">
        <ele>102.7</ele>
        <time>2015-06-08T20:21:07.677Z</time>
      </trkpt>
      <trkpt lat="48.81502" lon="2.463">
        <ele>102.8</ele>
        <time>2015-06-08T20:21:08.708Z</time>
      </trkpt>
      <trkpt lat="48.81505" lon="2.46292">
        <ele>103.2</ele>
        <time>2015-06-08T20:21:10.668Z</time>
      </trkpt>
      <trkpt lat="48.81507" lon="2.46288">
        <ele>103</ele>
        <time>2015-06-08T20:21:11.713Z</time>
      </trkpt>
      <trkpt lat="48.8151" lon="2.46281">
        <ele>103.1</ele>
        <time>2015-06-08T20:21:13.746Z</time>
      </trkpt>
      <trkpt lat="48.81511" lon="2.46276">
        <ele>104.7</ele>
        <time>2015-06-08T20:21:14.773Z</time>
      </trkpt>
      <trkpt lat="48.81514" lon="2.46267">
        <ele>106.6</ele>
        <time>2015-06-08T20:21:16.664Z</time>
      </trkpt>
      <trkpt lat="48.81516" lon="2.46264">
        <ele>106.2</ele>
        <time>2015-06-08T20:21:17.693Z</time>
      </trkpt>
      <trkpt lat="48.8152" lon="2.46252">
        <ele>105.2</ele>
        <time>2015-06-08T20:21:20.733Z</time>
      </trkpt>
      <trkpt lat="48.81522" lon="2.46248">
        <ele>105</ele>
        <time>2015-06-08T20:21:21.838Z</time>
      </trkpt>
      <trkpt lat="48.81526" lon="2.46241">
        <ele>105.6</ele>
        <time>2015-06-08T20:21:23.673Z</time>
      </trkpt>
      <trkpt lat="48.81528" lon="2.46237">
        <ele>105.6</ele>
        <time>2015-06-08T20:21:24.698Z</time>
      </trkpt>
      <trkpt lat="48.81532" lon="2.46229">
        <ele>105.2</ele>
        <time>2015-06-08T20:21:26.799Z</time>
      </trkpt>
      <trkpt lat="48.81535" lon="2.46225">
        <ele>105.3</ele>
        <time>2015-06-08T20:21:27.668Z</time>
      </trkpt>
      <trkpt lat="48.81539" lon="2.46218">
        <ele>105.8</ele>
        <time>2015-06-08T20:21:29.719Z</time>
      </trkpt>
      <trkpt lat="48.81541" lon="2.46214">
        <ele>105.6</ele>
        <time>2015-06-08T20:21:30.721Z</time>
      </trkpt>
      <trkpt lat="48.81546" lon="2.46204">
        <ele>105.4</ele>
        <time>2015-06-08T20:21:33.674Z</time>
      </trkpt>
      <trkpt lat="48.81548" lon="2.46201">
        <ele>105.5</ele>
        <time>2015-06-08T20:21:34.741Z</time>
      </trkpt>
      <trkpt lat="48.81554" lon="2.46191">
        <ele>105.7</ele>
        <time>2015-06-08T20:21:37.767Z</time>
      </trkpt>
      <trkpt lat="48.81556" lon="2.46188">
        <ele>105.9</ele>
        <time>2015-06-08T20:21:38.813Z</time>
      </trkpt>
      <trkpt lat="48.8156" lon="2.46176">
        <ele>105.6</ele>
        <time>2015-06-08T20:21:41.708Z</time>
      </trkpt>
      <trkpt lat="48.81561" lon="2.46172">
        <ele>105.3</ele>
        <time>2015-06-08T20:21:42.678Z</time>
      </trkpt>
      <trkpt lat="48.81565" lon="2.46161">
        <ele>105</ele>
        <time>2015-06-08T20:21:45.737Z</time>
      </trkpt>
      <trkpt lat="48.81567" lon="2.46158">
        <ele>104.7</ele>
        <time>2015-06-08T20:21:46.665Z</time>
      </trkpt>
      <trkpt lat="48.81572" lon="2.46148">
        <ele>104.7</ele>
        <time>2015-06-08T20:21:49.703Z</time>
      </trkpt>
      <trkpt lat="48.81574" lon="2.46145">
        <ele>104.7</ele>
        <time>2015-06-08T20:21:50.770Z</time>
      </trkpt>
      <trkpt lat="48.81579" lon="2.46135">
        <ele>104.6</ele>
        <time>2015-06-08T20:21:53.686Z</time>
      </trkpt>
      <trkpt lat="48.81581" lon="2.46133">
        <ele>105.1</ele>
        <time>2015-06-08T20:21:54.686Z</time>
      </trkpt>
      <trkpt lat="48.81586" lon="2.46124">
        <ele>104.8</ele>
        <time>2015-06-08T20:21:57.678Z</time>
      </trkpt>
      <trkpt lat="48.81587" lon="2.46121">
        <ele>104.6</ele>
        <time>2015-06-08T20:21:58.688Z</time>
      </trkpt>
      <trkpt lat="48.81593" lon="2.46111">
        <ele>104.6</ele>
        <time>2015-06-08T20:22:02.114Z</time>
      </trkpt>
      <trkpt lat="48.81595" lon="2.46107">
        <ele>104.7</ele>
        <time>2015-06-08T20:22:02.783Z</time>
      </trkpt>
      <trkpt lat="48.81599" lon="2.46099">
        <ele>105.1</ele>
        <time>2015-06-08T20:22:04.675Z</time>
      </trkpt>
      <trkpt lat="48.81601" lon="2.46095">
        <ele>105.4</ele>
        <time>2015-06-08T20:22:05.694Z</time>
      </trkpt>
      <trkpt lat="48.81605" lon="2.46086">
        <ele>105.8</ele>
        <time>2015-06-08T20:22:07.909Z</time>
      </trkpt>
      <trkpt lat="48.81607" lon="2.46081">
        <ele>105.9</ele>
        <time>2015-06-08T20:22:08.769Z</time>
      </trkpt>
      <trkpt lat="48.81612" lon="2.46074">
        <ele>105.6</ele>
        <time>2015-06-08T20:22:10.683Z</time>
      </trkpt>
      <trkpt lat="48.81614" lon="2.46071">
        <ele>105.3</ele>
        <time>2015-06-08T20:22:11.720Z</time>
      </trkpt>
      <trkpt lat="48.81618" lon="2.46062">
        <ele>105</ele>
        <time>2015-06-08T20:22:13.746Z</time>
      </trkpt>
      <trkpt lat="48.81621" lon="2.46058">
        <ele>105</ele>
        <time>2015-06-08T20:22:14.755Z</time>
      </trkpt>
      <trkpt lat="48.81626" lon="2.4605">
        <ele>105.5</ele>
        <time>2015-06-08T20:22:17.232Z</time>
      </trkpt>
      <trkpt lat="48.81628" lon="2.46046">
        <ele>105.2</ele>
        <time>2015-06-08T20:22:17.672Z</time>
      </trkpt>
      <trkpt lat="48.81633" lon="2.46037">
        <ele>104.8</ele>
        <time>2015-06-08T20:22:19.708Z</time>
      </trkpt>
      <trkpt lat="48.81635" lon="2.46033">
        <ele>104.8</ele>
        <time>2015-06-08T20:22:20.740Z</time>
      </trkpt>
      <trkpt lat="48.81639" lon="2.46024">
        <ele>105.6</ele>
        <time>2015-06-08T20:22:22.684Z</time>
      </trkpt>
      <trkpt lat="48.81641" lon="2.4602">
        <ele>105.9</ele>
        <time>2015-06-08T20:22:23.678Z</time>
      </trkpt>
      <trkpt lat="48.81647" lon="2.46011">
        <ele>106.1</ele>
        <time>2015-06-08T20:22:25.717Z</time>
      </trkpt>
      <trkpt lat="48.81648" lon="2.46007">
        <ele>106.5</ele>
        <time>2015-06-08T20:22:26.732Z</time>
      </trkpt>
      <trkpt lat="48.81653" lon="2.46">
        <ele>106.8</ele>
        <time>2015-06-08T20:22:28.684Z</time>
      </trkpt>
      <trkpt lat="48.81655" lon="2.45996">
        <ele>107.1</ele>
        <time>2015-06-08T20:22:29.684Z</time>
      </trkpt>
      <trkpt lat="48.81661" lon="2.45989">
        <ele>108.1</ele>
        <time>2015-06-08T20:22:32.496Z</time>
      </trkpt>
      <trkpt lat="48.81664" lon="2.45985">
        <ele>108.5</ele>
        <time>2015-06-08T20:22:32.747Z</time>
      </trkpt>
      <trkpt lat="48.81669" lon="2.45976">
        <ele>108.7</ele>
        <time>2015-06-08T20:22:34.767Z</time>
      </trkpt>
      <trkpt lat="48.81672" lon="2.45972">
        <ele>108.4</ele>
        <time>2015-06-08T20:22:35.687Z</time>
      </trkpt>
      <trkpt lat="48.81679" lon="2.45965">
        <ele>108.5</ele>
        <time>2015-06-08T20:22:37.689Z</time>
      </trkpt>
      <trkpt lat="48.81682" lon="2.45962">
        <ele>108.6</ele>
        <time>2015-06-08T20:22:38.731Z</time>
      </trkpt>
      <trkpt lat="48.81687" lon="2.45955">
        <ele>108.4</ele>
        <time>2015-06-08T20:22:41.364Z</time>
      </trkpt>
      <trkpt lat="48.8169" lon="2.45951">
        <ele>108.3</ele>
        <time>2015-06-08T20:22:41.658Z</time>
      </trkpt>
      <trkpt lat="48.81695" lon="2.45945">
        <ele>109.1</ele>
        <time>2015-06-08T20:22:43.733Z</time>
      </trkpt>
      <trkpt lat="48.81698" lon="2.45942">
        <ele>109.3</ele>
        <time>2015-06-08T20:22:44.744Z</time>
      </trkpt>
      <trkpt lat="48.81702" lon="2.45935">
        <ele>109.5</ele>
        <time>2015-06-08T20:22:46.648Z</time>
      </trkpt>
      <trkpt lat="48.81705" lon="2.45932">
        <ele>109.5</ele>
        <time>2015-06-08T20:22:47.712Z</time>
      </trkpt>
      <trkpt lat="48.81712" lon="2.45924">
        <ele>109.4</ele>
        <time>2015-06-08T20:22:51.654Z</time>
      </trkpt>
      <trkpt lat="48.81713" lon="2.45923">
        <ele>109.3</ele>
        <time>2015-06-08T20:22:52.682Z</time>
      </trkpt>
      <trkpt lat="48.81717" lon="2.45924">
        <ele>111.1</ele>
        <time>2015-06-08T20:23:10.655Z</time>
      </trkpt>
      <trkpt lat="48.81717" lon="2.45925">
        <ele>111.4</ele>
        <time>2015-06-08T20:23:11.669Z</time>
      </trkpt>
      <trkpt lat="48.81717" lon="2.45925">
        <ele>111.4</ele>
        <time>2015-06-08T20:24:11.662Z</time>
      </trkpt>
      <trkpt lat="48.81721" lon="2.45909">
        <ele>115.9</ele>
        <time>2015-06-08T20:24:12.669Z</time>
      </trkpt>
      <trkpt lat="48.81723" lon="2.459">
        <ele>115.4</ele>
        <time>2015-06-08T20:24:15.773Z</time>
      </trkpt>
      <trkpt lat="48.81724" lon="2.45895">
        <ele>115.7</ele>
        <time>2015-06-08T20:24:16.677Z</time>
      </trkpt>
      <trkpt lat="48.81725" lon="2.45883">
        <ele>116</ele>
        <time>2015-06-08T20:24:18.772Z</time>
      </trkpt>
      <trkpt lat="48.81725" lon="2.45876">
        <ele>116.1</ele>
        <time>2015-06-08T20:24:19.649Z</time>
      </trkpt>
      <trkpt lat="48.81725" lon="2.45868">
        <ele>115.7</ele>
        <time>2015-06-08T20:24:20.749Z</time>
      </trkpt>
      <trkpt lat="48.81724" lon="2.4586">
        <ele>115.6</ele>
        <time>2015-06-08T20:24:21.669Z</time>
      </trkpt>
      <trkpt lat="48.81723" lon="2.4585">
        <ele>115.7</ele>
        <time>2015-06-08T20:24:22.674Z</time>
      </trkpt>
      <trkpt lat="48.81723" lon="2.4584">
        <ele>115.4</ele>
        <time>2015-06-08T20:24:23.668Z</time>
      </trkpt>
      <trkpt lat="48.81724" lon="2.4583">
        <ele>115.1</ele>
        <time>2015-06-08T20:24:24.674Z</time>
      </trkpt>
      <trkpt lat="48.81724" lon="2.4582">
        <ele>114.7</ele>
        <time>2015-06-08T20:24:25.686Z</time>
      </trkpt>
      <trkpt lat="48.81725" lon="2.45809">
        <ele>114.8</ele>
        <time>2015-06-08T20:24:26.724Z</time>
      </trkpt>
      <trkpt lat="48.81726" lon="2.45799">
        <ele>114.7</ele>
        <time>2015-06-08T20:24:27.730Z</time>
      </trkpt>
      <trkpt lat="48.81726" lon="2.4579">
        <ele>114.7</ele>
        <time>2015-06-08T20:24:28.744Z</time>
      </trkpt>
      <trkpt lat="48.81727" lon="2.45781">
        <ele>114.6</ele>
        <time>2015-06-08T20:24:29.672Z</time>
      </trkpt>
      <trkpt lat="48.81728" lon="2.45773">
        <ele>114.8</ele>
        <time>2015-06-08T20:24:30.675Z</time>
      </trkpt>
      <trkpt lat="48.81729" lon="2.45765">
        <ele>114.8</ele>
        <time>2015-06-08T20:24:31.682Z</time>
      </trkpt>
      <trkpt lat="48.8173" lon="2.45758">
        <ele>114.7</ele>
        <time>2015-06-08T20:24:32.736Z</time>
      </trkpt>
      <trkpt lat="48.81731" lon="2.45751">
        <ele>114.8</ele>
        <time>2015-06-08T20:24:33.738Z</time>
      </trkpt>
      <trkpt lat="48.81733" lon="2.45738">
        <ele>114.4</ele>
        <time>2015-06-08T20:24:35.687Z</time>
      </trkpt>
      <trkpt lat="48.81734" lon="2.45731">
        <ele>114.5</ele>
        <time>2015-06-08T20:24:36.740Z</time>
      </trkpt>
      <trkpt lat="48.81736" lon="2.45724">
        <ele>114.6</ele>
        <time>2015-06-08T20:24:37.681Z</time>
      </trkpt>
      <trkpt lat="48.81738" lon="2.45717">
        <ele>114.7</ele>
        <time>2015-06-08T20:24:38.720Z</time>
      </trkpt>
      <trkpt lat="48.81741" lon="2.45705">
        <ele>115</ele>
        <time>2015-06-08T20:24:40.722Z</time>
      </trkpt>
      <trkpt lat="48.81742" lon="2.45699">
        <ele>115</ele>
        <time>2015-06-08T20:24:41.770Z</time>
      </trkpt>
      <trkpt lat="48.81744" lon="2.45686">
        <ele>114.6</ele>
        <time>2015-06-08T20:24:43.678Z</time>
      </trkpt>
      <trkpt lat="48.81746" lon="2.45681">
        <ele>114.7</ele>
        <time>2015-06-08T20:24:44.754Z</time>
      </trkpt>
      <trkpt lat="48.81751" lon="2.45669">
        <ele>114.9</ele>
        <time>2015-06-08T20:24:46.668Z</time>
      </trkpt>
      <trkpt lat="48.81752" lon="2.45663">
        <ele>114.8</ele>
        <time>2015-06-08T20:24:47.698Z</time>
      </trkpt>
      <trkpt lat="48.81756" lon="2.45652">
        <ele>114.7</ele>
        <time>2015-06-08T20:24:49.727Z</time>
      </trkpt>
      <trkpt lat="48.81757" lon="2.45646">
        <ele>114.6</ele>
        <time>2015-06-08T20:24:50.801Z</time>
      </trkpt>
      <trkpt lat="48.8176" lon="2.45633">
        <ele>115.4</ele>
        <time>2015-06-08T20:24:52.677Z</time>
      </trkpt>
      <trkpt lat="48.8176" lon="2.45627">
        <ele>115.4</ele>
        <time>2015-06-08T20:24:53.672Z</time>
      </trkpt>
      <trkpt lat="48.81761" lon="2.4562">
        <ele>115.5</ele>
        <time>2015-06-08T20:24:54.704Z</time>
      </trkpt>
      <trkpt lat="48.81762" lon="2.45612">
        <ele>115.4</ele>
        <time>2015-06-08T20:24:55.715Z</time>
      </trkpt>
      <trkpt lat="48.81763" lon="2.45605">
        <ele>115.4</ele>
        <time>2015-06-08T20:24:56.728Z</time>
      </trkpt>
      <trkpt lat="48.81764" lon="2.45598">
        <ele>115.4</ele>
        <time>2015-06-08T20:24:57.732Z</time>
      </trkpt>
      <trkpt lat="48.81765" lon="2.45591">
        <ele>115.3</ele>
        <time>2015-06-08T20:24:58.673Z</time>
      </trkpt>
      <trkpt lat="48.81766" lon="2.45583">
        <ele>115.3</ele>
        <time>2015-06-08T20:24:59.655Z</time>
      </trkpt>
      <trkpt lat="48.81767" lon="2.45576">
        <ele>115.4</ele>
        <time>2015-06-08T20:25:00.667Z</time>
      </trkpt>
      <trkpt lat="48.81768" lon="2.45569">
        <ele>115.5</ele>
        <time>2015-06-08T20:25:01.667Z</time>
      </trkpt>
      <trkpt lat="48.8177" lon="2.45562">
        <ele>115.5</ele>
        <time>2015-06-08T20:25:02.738Z</time>
      </trkpt>
      <trkpt lat="48.81771" lon="2.45555">
        <ele>115.5</ele>
        <time>2015-06-08T20:25:03.680Z</time>
      </trkpt>
      <trkpt lat="48.81773" lon="2.45548">
        <ele>115.2</ele>
        <time>2015-06-08T20:25:04.672Z</time>
      </trkpt>
      <trkpt lat="48.81775" lon="2.4554">
        <ele>115.2</ele>
        <time>2015-06-08T20:25:05.684Z</time>
      </trkpt>
      <trkpt lat="48.81776" lon="2.45533">
        <ele>115.2</ele>
        <time>2015-06-08T20:25:06.706Z</time>
      </trkpt>
      <trkpt lat="48.81778" lon="2.45525">
        <ele>115.2</ele>
        <time>2015-06-08T20:25:07.711Z</time>
      </trkpt>
      <trkpt lat="48.8178" lon="2.45518">
        <ele>115.1</ele>
        <time>2015-06-08T20:25:08.722Z</time>
      </trkpt>
      <trkpt lat="48.81781" lon="2.45511">
        <ele>115.3</ele>
        <time>2015-06-08T20:25:09.729Z</time>
      </trkpt>
      <trkpt lat="48.81783" lon="2.45504">
        <ele>115.3</ele>
        <time>2015-06-08T20:25:10.735Z</time>
      </trkpt>
      <trkpt lat="48.81784" lon="2.45497">
        <ele>115.2</ele>
        <time>2015-06-08T20:25:11.742Z</time>
      </trkpt>
      <trkpt lat="48.81786" lon="2.4549">
        <ele>115.2</ele>
        <time>2015-06-08T20:25:12.648Z</time>
      </trkpt>
      <trkpt lat="48.81787" lon="2.45482">
        <ele>115.1</ele>
        <time>2015-06-08T20:25:13.681Z</time>
      </trkpt>
      <trkpt lat="48.81789" lon="2.45475">
        <ele>115.3</ele>
        <time>2015-06-08T20:25:14.758Z</time>
      </trkpt>
      <trkpt lat="48.8179" lon="2.45467">
        <ele>115.6</ele>
        <time>2015-06-08T20:25:15.722Z</time>
      </trkpt>
      <trkpt lat="48.81791" lon="2.4546">
        <ele>115.6</ele>
        <time>2015-06-08T20:25:16.677Z</time>
      </trkpt>
      <trkpt lat="48.81792" lon="2.45452">
        <ele>115.7</ele>
        <time>2015-06-08T20:25:17.736Z</time>
      </trkpt>
      <trkpt lat="48.81794" lon="2.45445">
        <ele>115.6</ele>
        <time>2015-06-08T20:25:18.689Z</time>
      </trkpt>
      <trkpt lat="48.81795" lon="2.45438">
        <ele>115.5</ele>
        <time>2015-06-08T20:25:19.695Z</time>
      </trkpt>
      <trkpt lat="48.81796" lon="2.45431">
        <ele>115.6</ele>
        <time>2015-06-08T20:25:20.700Z</time>
      </trkpt>
      <trkpt lat="48.81797" lon="2.45423">
        <ele>115.7</ele>
        <time>2015-06-08T20:25:21.712Z</time>
      </trkpt>
      <trkpt lat="48.81797" lon="2.45415">
        <ele>115.8</ele>
        <time>2015-06-08T20:25:22.735Z</time>
      </trkpt>
      <trkpt lat="48.81798" lon="2.45408">
        <ele>115.8</ele>
        <time>2015-06-08T20:25:23.691Z</time>
      </trkpt>
      <trkpt lat="48.81799" lon="2.454">
        <ele>115.9</ele>
        <time>2015-06-08T20:25:24.689Z</time>
      </trkpt>
      <trkpt lat="48.81801" lon="2.45393">
        <ele>115.7</ele>
        <time>2015-06-08T20:25:25.694Z</time>
      </trkpt>
      <trkpt lat="48.81802" lon="2.45385">
        <ele>115.7</ele>
        <time>2015-06-08T20:25:26.757Z</time>
      </trkpt>
      <trkpt lat="48.81804" lon="2.45378">
        <ele>115.6</ele>
        <time>2015-06-08T20:25:27.773Z</time>
      </trkpt>
      <trkpt lat="48.81805" lon="2.45371">
        <ele>115.5</ele>
        <time>2015-06-08T20:25:28.666Z</time>
      </trkpt>
      <trkpt lat="48.81806" lon="2.45364">
        <ele>115.7</ele>
        <time>2015-06-08T20:25:29.672Z</time>
      </trkpt>
      <trkpt lat="48.81807" lon="2.45357">
        <ele>115.6</ele>
        <time>2015-06-08T20:25:30.696Z</time>
      </trkpt>
      <trkpt lat="48.81808" lon="2.4535">
        <ele>115.7</ele>
        <time>2015-06-08T20:25:31.719Z</time>
      </trkpt>
      <trkpt lat="48.81809" lon="2.45343">
        <ele>115.6</ele>
        <time>2015-06-08T20:25:32.751Z</time>
      </trkpt>
      <trkpt lat="48.8181" lon="2.45336">
        <ele>115.4</ele>
        <time>2015-06-08T20:25:33.699Z</time>
      </trkpt>
      <trkpt lat="48.81811" lon="2.4533">
        <ele>115.2</ele>
        <time>2015-06-08T20:25:34.677Z</time>
      </trkpt>
      <trkpt lat="48.81812" lon="2.45323">
        <ele>115.2</ele>
        <time>2015-06-08T20:25:35.682Z</time>
      </trkpt>
      <trkpt lat="48.81812" lon="2.45316">
        <ele>115.3</ele>
        <time>2015-06-08T20:25:36.702Z</time>
      </trkpt>
      <trkpt lat="48.81814" lon="2.45309">
        <ele>115.4</ele>
        <time>2015-06-08T20:25:37.709Z</time>
      </trkpt>
      <trkpt lat="48.81815" lon="2.45302">
        <ele>115.4</ele>
        <time>2015-06-08T20:25:38.719Z</time>
      </trkpt>
      <trkpt lat="48.81816" lon="2.45296">
        <ele>115.2</ele>
        <time>2015-06-08T20:25:39.733Z</time>
      </trkpt>
      <trkpt lat="48.81818" lon="2.45289">
        <ele>115</ele>
        <time>2015-06-08T20:25:41.346Z</time>
      </trkpt>
      <trkpt lat="48.8182" lon="2.45282">
        <ele>115</ele>
        <time>2015-06-08T20:25:41.772Z</time>
      </trkpt>
      <trkpt lat="48.81821" lon="2.45275">
        <ele>114.8</ele>
        <time>2015-06-08T20:25:42.687Z</time>
      </trkpt>
      <trkpt lat="48.81823" lon="2.45267">
        <ele>114.6</ele>
        <time>2015-06-08T20:25:43.665Z</time>
      </trkpt>
      <trkpt lat="48.81824" lon="2.4526">
        <ele>114.7</ele>
        <time>2015-06-08T20:25:44.695Z</time>
      </trkpt>
      <trkpt lat="48.81825" lon="2.45252">
        <ele>114.7</ele>
        <time>2015-06-08T20:25:45.709Z</time>
      </trkpt>
      <trkpt lat="48.81826" lon="2.45245">
        <ele>114.8</ele>
        <time>2015-06-08T20:25:46.717Z</time>
      </trkpt>
      <trkpt lat="48.81827" lon="2.45238">
        <ele>114.7</ele>
        <time>2015-06-08T20:25:47.829Z</time>
      </trkpt>
      <trkpt lat="48.81829" lon="2.4523">
        <ele>114.8</ele>
        <time>2015-06-08T20:25:48.663Z</time>
      </trkpt>
      <trkpt lat="48.8183" lon="2.45222">
        <ele>115.1</ele>
        <time>2015-06-08T20:25:49.688Z</time>
      </trkpt>
      <trkpt lat="48.81832" lon="2.45215">
        <ele>115.4</ele>
        <time>2015-06-08T20:25:50.721Z</time>
      </trkpt>
      <trkpt lat="48.81833" lon="2.45207">
        <ele>115.5</ele>
        <time>2015-06-08T20:25:51.726Z</time>
      </trkpt>
      <trkpt lat="48.81834" lon="2.45199">
        <ele>115.6</ele>
        <time>2015-06-08T20:25:52.660Z</time>
      </trkpt>
      <trkpt lat="48.81835" lon="2.45192">
        <ele>115.8</ele>
        <time>2015-06-08T20:25:53.671Z</time>
      </trkpt>
      <trkpt lat="48.81837" lon="2.45184">
        <ele>115.8</ele>
        <time>2015-06-08T20:25:54.682Z</time>
      </trkpt>
      <trkpt lat="48.81839" lon="2.45177">
        <ele>115.9</ele>
        <time>2015-06-08T20:25:55.689Z</time>
      </trkpt>
      <trkpt lat="48.8184" lon="2.45169">
        <ele>116.2</ele>
        <time>2015-06-08T20:25:56.714Z</time>
      </trkpt>
      <trkpt lat="48.81841" lon="2.45161">
        <ele>116.4</ele>
        <time>2015-06-08T20:25:57.644Z</time>
      </trkpt>
      <trkpt lat="48.81842" lon="2.45154">
        <ele>116.9</ele>
        <time>2015-06-08T20:25:58.685Z</time>
      </trkpt>
      <trkpt lat="48.81844" lon="2.45147">
        <ele>117</ele>
        <time>2015-06-08T20:25:59.687Z</time>
      </trkpt>
      <trkpt lat="48.81845" lon="2.45138">
        <ele>117.2</ele>
        <time>2015-06-08T20:26:00.643Z</time>
      </trkpt>
      <trkpt lat="48.81846" lon="2.4513">
        <ele>117.2</ele>
        <time>2015-06-08T20:26:01.647Z</time>
      </trkpt>
      <trkpt lat="48.81847" lon="2.45122">
        <ele>117.5</ele>
        <time>2015-06-08T20:26:02.717Z</time>
      </trkpt>
      <trkpt lat="48.81849" lon="2.45113">
        <ele>118</ele>
        <time>2015-06-08T20:26:03.734Z</time>
      </trkpt>
      <trkpt lat="48.8185" lon="2.45104">
        <ele>118.2</ele>
        <time>2015-06-08T20:26:04.659Z</time>
      </trkpt>
      <trkpt lat="48.81852" lon="2.45093">
        <ele>118.5</ele>
        <time>2015-06-08T20:26:05.977Z</time>
      </trkpt>
      <trkpt lat="48.81853" lon="2.45083">
        <ele>118.8</ele>
        <time>2015-06-08T20:26:06.681Z</time>
      </trkpt>
      <trkpt lat="48.81854" lon="2.45073">
        <ele>119.1</ele>
        <time>2015-06-08T20:26:07.741Z</time>
      </trkpt>
      <trkpt lat="48.81856" lon="2.45062">
        <ele>119.3</ele>
        <time>2015-06-08T20:26:08.749Z</time>
      </trkpt>
      <trkpt lat="48.81858" lon="2.45051">
        <ele>119.4</ele>
        <time>2015-06-08T20:26:09.645Z</time>
      </trkpt>
      <trkpt lat="48.81859" lon="2.45041">
        <ele>119.6</ele>
        <time>2015-06-08T20:26:10.674Z</time>
      </trkpt>
      <trkpt lat="48.81861" lon="2.4503">
        <ele>119.6</ele>
        <time>2015-06-08T20:26:11.681Z</time>
      </trkpt>
      <trkpt lat="48.81862" lon="2.45019">
        <ele>119.9</ele>
        <time>2015-06-08T20:26:12.689Z</time>
      </trkpt>
      <trkpt lat="48.81863" lon="2.45009">
        <ele>120.5</ele>
        <time>2015-06-08T20:26:13.706Z</time>
      </trkpt>
      <trkpt lat="48.81864" lon="2.44999">
        <ele>120.8</ele>
        <time>2015-06-08T20:26:14.722Z</time>
      </trkpt>
      <trkpt lat="48.81865" lon="2.44989">
        <ele>120.8</ele>
        <time>2015-06-08T20:26:15.727Z</time>
      </trkpt>
      <trkpt lat="48.81865" lon="2.44978">
        <ele>120.7</ele>
        <time>2015-06-08T20:26:16.734Z</time>
      </trkpt>
      <trkpt lat="48.81866" lon="2.44967">
        <ele>120.7</ele>
        <time>2015-06-08T20:26:17.744Z</time>
      </trkpt>
      <trkpt lat="48.81867" lon="2.44956">
        <ele>120.7</ele>
        <time>2015-06-08T20:26:18.643Z</time>
      </trkpt>
      <trkpt lat="48.81867" lon="2.44946">
        <ele>120.8</ele>
        <time>2015-06-08T20:26:19.665Z</time>
      </trkpt>
      <trkpt lat="48.81867" lon="2.44936">
        <ele>120.5</ele>
        <time>2015-06-08T20:26:20.723Z</time>
      </trkpt>
      <trkpt lat="48.81867" lon="2.44925">
        <ele>120.5</ele>
        <time>2015-06-08T20:26:21.732Z</time>
      </trkpt>
      <trkpt lat="48.81867" lon="2.44914">
        <ele>120.6</ele>
        <time>2015-06-08T20:26:22.757Z</time>
      </trkpt>
      <trkpt lat="48.81868" lon="2.44904">
        <ele>120.6</ele>
        <time>2015-06-08T20:26:23.754Z</time>
      </trkpt>
      <trkpt lat="48.81868" lon="2.44894">
        <ele>120.6</ele>
        <time>2015-06-08T20:26:24.662Z</time>
      </trkpt>
      <trkpt lat="48.81868" lon="2.44884">
        <ele>120.5</ele>
        <time>2015-06-08T20:26:25.667Z</time>
      </trkpt>
      <trkpt lat="48.81869" lon="2.44874">
        <ele>120.5</ele>
        <time>2015-06-08T20:26:26.737Z</time>
      </trkpt>
      <trkpt lat="48.81869" lon="2.44864">
        <ele>120.6</ele>
        <time>2015-06-08T20:26:27.737Z</time>
      </trkpt>
      <trkpt lat="48.81868" lon="2.44854">
        <ele>120.5</ele>
        <time>2015-06-08T20:26:28.751Z</time>
      </trkpt>
      <trkpt lat="48.81869" lon="2.44844">
        <ele>120.2</ele>
        <time>2015-06-08T20:26:29.679Z</time>
      </trkpt>
      <trkpt lat="48.81869" lon="2.44833">
        <ele>119.9</ele>
        <time>2015-06-08T20:26:30.685Z</time>
      </trkpt>
      <trkpt lat="48.81869" lon="2.44823">
        <ele>119.6</ele>
        <time>2015-06-08T20:26:31.693Z</time>
      </trkpt>
      <trkpt lat="48.81869" lon="2.44813">
        <ele>119.6</ele>
        <time>2015-06-08T20:26:32.732Z</time>
      </trkpt>
      <trkpt lat="48.81869" lon="2.44802">
        <ele>119.7</ele>
        <time>2015-06-08T20:26:33.736Z</time>
      </trkpt>
      <trkpt lat="48.8187" lon="2.44791">
        <ele>119.7</ele>
        <time>2015-06-08T20:26:34.646Z</time>
      </trkpt>
      <trkpt lat="48.81871" lon="2.4478">
        <ele>119.4</ele>
        <time>2015-06-08T20:26:35.668Z</time>
      </trkpt>
      <trkpt lat="48.81872" lon="2.44768">
        <ele>119.1</ele>
        <time>2015-06-08T20:26:36.680Z</time>
      </trkpt>
      <trkpt lat="48.81872" lon="2.44757">
        <ele>118.6</ele>
        <time>2015-06-08T20:26:37.675Z</time>
      </trkpt>
      <trkpt lat="48.81872" lon="2.44746">
        <ele>118.1</ele>
        <time>2015-06-08T20:26:38.731Z</time>
      </trkpt>
      <trkpt lat="48.81873" lon="2.44735">
        <ele>117.6</ele>
        <time>2015-06-08T20:26:39.697Z</time>
      </trkpt>
      <trkpt lat="48.81873" lon="2.44723">
        <ele>117.5</ele>
        <time>2015-06-08T20:26:40.712Z</time>
      </trkpt>
      <trkpt lat="48.81873" lon="2.44712">
        <ele>117.4</ele>
        <time>2015-06-08T20:26:41.719Z</time>
      </trkpt>
      <trkpt lat="48.81873" lon="2.447">
        <ele>117</ele>
        <time>2015-06-08T20:26:42.726Z</time>
      </trkpt>
      <trkpt lat="48.81873" lon="2.44689">
        <ele>116.9</ele>
        <time>2015-06-08T20:26:43.733Z</time>
      </trkpt>
      <trkpt lat="48.81873" lon="2.44678">
        <ele>116.9</ele>
        <time>2015-06-08T20:26:44.739Z</time>
      </trkpt>
      <trkpt lat="48.81873" lon="2.44667">
        <ele>117.1</ele>
        <time>2015-06-08T20:26:45.740Z</time>
      </trkpt>
      <trkpt lat="48.81872" lon="2.44655">
        <ele>117.2</ele>
        <time>2015-06-08T20:26:46.759Z</time>
      </trkpt>
      <trkpt lat="48.81871" lon="2.44644">
        <ele>117.2</ele>
        <time>2015-06-08T20:26:47.769Z</time>
      </trkpt>
      <trkpt lat="48.81871" lon="2.44633">
        <ele>117</ele>
        <time>2015-06-08T20:26:48.642Z</time>
      </trkpt>
      <trkpt lat="48.81871" lon="2.44622">
        <ele>116.7</ele>
        <time>2015-06-08T20:26:49.675Z</time>
      </trkpt>
      <trkpt lat="48.81871" lon="2.44611">
        <ele>116.7</ele>
        <time>2015-06-08T20:26:50.722Z</time>
      </trkpt>
      <trkpt lat="48.8187" lon="2.446">
        <ele>116.7</ele>
        <time>2015-06-08T20:26:51.902Z</time>
      </trkpt>
      <trkpt lat="48.8187" lon="2.44589">
        <ele>116.7</ele>
        <time>2015-06-08T20:26:52.741Z</time>
      </trkpt>
      <trkpt lat="48.81869" lon="2.44578">
        <ele>116.7</ele>
        <time>2015-06-08T20:26:53.665Z</time>
      </trkpt>
      <trkpt lat="48.81869" lon="2.44568">
        <ele>116.8</ele>
        <time>2015-06-08T20:26:54.666Z</time>
      </trkpt>
      <trkpt lat="48.81869" lon="2.44558">
        <ele>116.2</ele>
        <time>2015-06-08T20:26:55.669Z</time>
      </trkpt>
      <trkpt lat="48.81869" lon="2.44547">
        <ele>116.3</ele>
        <time>2015-06-08T20:26:56.722Z</time>
      </trkpt>
      <trkpt lat="48.81868" lon="2.44536">
        <ele>116.3</ele>
        <time>2015-06-08T20:26:57.732Z</time>
      </trkpt>
      <trkpt lat="48.81869" lon="2.44525">
        <ele>116.2</ele>
        <time>2015-06-08T20:26:58.787Z</time>
      </trkpt>
      <trkpt lat="48.81869" lon="2.44515">
        <ele>116</ele>
        <time>2015-06-08T20:26:59.770Z</time>
      </trkpt>
      <trkpt lat="48.81868" lon="2.44504">
        <ele>116</ele>
        <time>2015-06-08T20:27:00.667Z</time>
      </trkpt>
      <trkpt lat="48.81868" lon="2.44493">
        <ele>115.9</ele>
        <time>2015-06-08T20:27:01.672Z</time>
      </trkpt>
      <trkpt lat="48.81867" lon="2.44482">
        <ele>115.7</ele>
        <time>2015-06-08T20:27:02.724Z</time>
      </trkpt>
      <trkpt lat="48.81867" lon="2.4447">
        <ele>115.6</ele>
        <time>2015-06-08T20:27:03.715Z</time>
      </trkpt>
      <trkpt lat="48.81866" lon="2.44459">
        <ele>116.2</ele>
        <time>2015-06-08T20:27:04.744Z</time>
      </trkpt>
      <trkpt lat="48.81866" lon="2.44448">
        <ele>116.4</ele>
        <time>2015-06-08T20:27:05.655Z</time>
      </trkpt>
      <trkpt lat="48.81866" lon="2.44437">
        <ele>116.5</ele>
        <time>2015-06-08T20:27:06.653Z</time>
      </trkpt>
      <trkpt lat="48.81865" lon="2.44426">
        <ele>116.4</ele>
        <time>2015-06-08T20:27:07.662Z</time>
      </trkpt>
      <trkpt lat="48.81865" lon="2.44416">
        <ele>116.2</ele>
        <time>2015-06-08T20:27:08.689Z</time>
      </trkpt>
      <trkpt lat="48.81864" lon="2.44406">
        <ele>116.2</ele>
        <time>2015-06-08T20:27:09.693Z</time>
      </trkpt>
      <trkpt lat="48.81864" lon="2.44396">
        <ele>116.1</ele>
        <time>2015-06-08T20:27:10.700Z</time>
      </trkpt>
      <trkpt lat="48.81863" lon="2.44386">
        <ele>115.9</ele>
        <time>2015-06-08T20:27:11.705Z</time>
      </trkpt>
      <trkpt lat="48.81863" lon="2.44377">
        <ele>115.7</ele>
        <time>2015-06-08T20:27:12.719Z</time>
      </trkpt>
      <trkpt lat="48.81863" lon="2.44368">
        <ele>115.5</ele>
        <time>2015-06-08T20:27:13.725Z</time>
      </trkpt>
      <trkpt lat="48.81863" lon="2.44359">
        <ele>115.3</ele>
        <time>2015-06-08T20:27:14.737Z</time>
      </trkpt>
      <trkpt lat="48.81862" lon="2.4435">
        <ele>115.3</ele>
        <time>2015-06-08T20:27:15.661Z</time>
      </trkpt>
      <trkpt lat="48.81862" lon="2.44342">
        <ele>115.6</ele>
        <time>2015-06-08T20:27:16.647Z</time>
      </trkpt>
      <trkpt lat="48.81863" lon="2.44334">
        <ele>115.3</ele>
        <time>2015-06-08T20:27:17.672Z</time>
      </trkpt>
      <trkpt lat="48.81863" lon="2.44327">
        <ele>115.2</ele>
        <time>2015-06-08T20:27:18.679Z</time>
      </trkpt>
      <trkpt lat="48.81864" lon="2.4432">
        <ele>115.2</ele>
        <time>2015-06-08T20:27:19.690Z</time>
      </trkpt>
      <trkpt lat="48.81864" lon="2.44308">
        <ele>116.1</ele>
        <time>2015-06-08T20:27:21.714Z</time>
      </trkpt>
      <trkpt lat="48.81865" lon="2.44304">
        <ele>116.4</ele>
        <time>2015-06-08T20:27:22.732Z</time>
      </trkpt>
      <trkpt lat="48.81867" lon="2.44293">
        <ele>113.2</ele>
        <time>2015-06-08T20:28:26.717Z</time>
      </trkpt>
      <trkpt lat="48.81866" lon="2.44288">
        <ele>113</ele>
        <time>2015-06-08T20:28:27.720Z</time>
      </trkpt>
      <trkpt lat="48.81866" lon="2.44278">
        <ele>112.9</ele>
        <time>2015-06-08T20:28:29.666Z</time>
      </trkpt>
      <trkpt lat="48.81866" lon="2.44272">
        <ele>112.8</ele>
        <time>2015-06-08T20:28:30.695Z</time>
      </trkpt>
      <trkpt lat="48.81867" lon="2.4426">
        <ele>112.3</ele>
        <time>2015-06-08T20:28:32.724Z</time>
      </trkpt>
      <trkpt lat="48.81867" lon="2.44254">
        <ele>112.2</ele>
        <time>2015-06-08T20:28:33.774Z</time>
      </trkpt>
      <trkpt lat="48.81868" lon="2.44241">
        <ele>111.6</ele>
        <time>2015-06-08T20:28:35.640Z</time>
      </trkpt>
      <trkpt lat="48.81869" lon="2.44234">
        <ele>111.2</ele>
        <time>2015-06-08T20:28:36.669Z</time>
      </trkpt>
      <trkpt lat="48.8187" lon="2.44227">
        <ele>110.9</ele>
        <time>2015-06-08T20:28:37.679Z</time>
      </trkpt>
      <trkpt lat="48.8187" lon="2.44219">
        <ele>110.8</ele>
        <time>2015-06-08T20:28:38.711Z</time>
      </trkpt>
      <trkpt lat="48.81871" lon="2.44211">
        <ele>110.8</ele>
        <time>2015-06-08T20:28:39.658Z</time>
      </trkpt>
      <trkpt lat="48.81872" lon="2.44203">
        <ele>110.9</ele>
        <time>2015-06-08T20:28:40.653Z</time>
      </trkpt>
      <trkpt lat="48.81873" lon="2.44194">
        <ele>110.9</ele>
        <time>2015-06-08T20:28:41.674Z</time>
      </trkpt>
      <trkpt lat="48.81874" lon="2.44185">
        <ele>110.9</ele>
        <time>2015-06-08T20:28:42.678Z</time>
      </trkpt>
      <trkpt lat="48.81875" lon="2.44176">
        <ele>110.8</ele>
        <time>2015-06-08T20:28:43.693Z</time>
      </trkpt>
      <trkpt lat="48.81876" lon="2.44166">
        <ele>110.9</ele>
        <time>2015-06-08T20:28:44.699Z</time>
      </trkpt>
      <trkpt lat="48.81877" lon="2.44157">
        <ele>110.6</ele>
        <time>2015-06-08T20:28:45.716Z</time>
      </trkpt>
      <trkpt lat="48.81878" lon="2.44146">
        <ele>110.7</ele>
        <time>2015-06-08T20:28:46.732Z</time>
      </trkpt>
      <trkpt lat="48.81879" lon="2.44136">
        <ele>111.1</ele>
        <time>2015-06-08T20:28:47.669Z</time>
      </trkpt>
      <trkpt lat="48.81879" lon="2.44125">
        <ele>111.7</ele>
        <time>2015-06-08T20:28:48.661Z</time>
      </trkpt>
      <trkpt lat="48.8188" lon="2.44114">
        <ele>111.9</ele>
        <time>2015-06-08T20:28:49.667Z</time>
      </trkpt>
      <trkpt lat="48.81881" lon="2.44103">
        <ele>112.6</ele>
        <time>2015-06-08T20:28:50.707Z</time>
      </trkpt>
      <trkpt lat="48.81882" lon="2.44093">
        <ele>112.7</ele>
        <time>2015-06-08T20:28:51.693Z</time>
      </trkpt>
      <trkpt lat="48.81884" lon="2.44082">
        <ele>112.5</ele>
        <time>2015-06-08T20:28:52.714Z</time>
      </trkpt>
      <trkpt lat="48.81885" lon="2.44072">
        <ele>112.3</ele>
        <time>2015-06-08T20:28:53.725Z</time>
      </trkpt>
      <trkpt lat="48.81886" lon="2.44061">
        <ele>111.9</ele>
        <time>2015-06-08T20:28:54.733Z</time>
      </trkpt>
      <trkpt lat="48.81887" lon="2.44049">
        <ele>112</ele>
        <time>2015-06-08T20:28:55.751Z</time>
      </trkpt>
      <trkpt lat="48.81889" lon="2.44039">
        <ele>112</ele>
        <time>2015-06-08T20:28:56.758Z</time>
      </trkpt>
      <trkpt lat="48.8189" lon="2.44027">
        <ele>111.8</ele>
        <time>2015-06-08T20:28:57.625Z</time>
      </trkpt>
      <trkpt lat="48.81892" lon="2.44017">
        <ele>111.8</ele>
        <time>2015-06-08T20:28:58.653Z</time>
      </trkpt>
      <trkpt lat="48.81894" lon="2.44005">
        <ele>111.7</ele>
        <time>2015-06-08T20:28:59.681Z</time>
      </trkpt>
      <trkpt lat="48.81896" lon="2.43994">
        <ele>111.8</ele>
        <time>2015-06-08T20:29:00.707Z</time>
      </trkpt>
      <trkpt lat="48.81897" lon="2.43984">
        <ele>111.8</ele>
        <time>2015-06-08T20:29:01.657Z</time>
      </trkpt>
      <trkpt lat="48.81898" lon="2.43973">
        <ele>111.6</ele>
        <time>2015-06-08T20:29:02.715Z</time>
      </trkpt>
      <trkpt lat="48.819" lon="2.43962">
        <ele>111.9</ele>
        <time>2015-06-08T20:29:03.720Z</time>
      </trkpt>
      <trkpt lat="48.81901" lon="2.43952">
        <ele>112</ele>
        <time>2015-06-08T20:29:04.629Z</time>
      </trkpt>
      <trkpt lat="48.81903" lon="2.43942">
        <ele>112.2</ele>
        <time>2015-06-08T20:29:05.653Z</time>
      </trkpt>
      <trkpt lat="48.81904" lon="2.43932">
        <ele>112.6</ele>
        <time>2015-06-08T20:29:06.660Z</time>
      </trkpt>
      <trkpt lat="48.81906" lon="2.43923">
        <ele>112.7</ele>
        <time>2015-06-08T20:29:07.657Z</time>
      </trkpt>
      <trkpt lat="48.81907" lon="2.43914">
        <ele>113</ele>
        <time>2015-06-08T20:29:08.697Z</time>
      </trkpt>
      <trkpt lat="48.81908" lon="2.43905">
        <ele>113.3</ele>
        <time>2015-06-08T20:29:09.701Z</time>
      </trkpt>
      <trkpt lat="48.8191" lon="2.43895">
        <ele>113.5</ele>
        <time>2015-06-08T20:29:10.720Z</time>
      </trkpt>
      <trkpt lat="48.81911" lon="2.43886">
        <ele>113.3</ele>
        <time>2015-06-08T20:29:11.771Z</time>
      </trkpt>
      <trkpt lat="48.81913" lon="2.43877">
        <ele>113</ele>
        <time>2015-06-08T20:29:12.667Z</time>
      </trkpt>
      <trkpt lat="48.81914" lon="2.43867">
        <ele>113.3</ele>
        <time>2015-06-08T20:29:13.669Z</time>
      </trkpt>
      <trkpt lat="48.81915" lon="2.43858">
        <ele>113.9</ele>
        <time>2015-06-08T20:29:14.726Z</time>
      </trkpt>
      <trkpt lat="48.81917" lon="2.43848">
        <ele>114.4</ele>
        <time>2015-06-08T20:29:15.719Z</time>
      </trkpt>
      <trkpt lat="48.81918" lon="2.43839">
        <ele>114.9</ele>
        <time>2015-06-08T20:29:16.735Z</time>
      </trkpt>
      <trkpt lat="48.8192" lon="2.43829">
        <ele>115.1</ele>
        <time>2015-06-08T20:29:17.661Z</time>
      </trkpt>
      <trkpt lat="48.81922" lon="2.4382">
        <ele>115.3</ele>
        <time>2015-06-08T20:29:18.664Z</time>
      </trkpt>
      <trkpt lat="48.81924" lon="2.43811">
        <ele>115.5</ele>
        <time>2015-06-08T20:29:19.713Z</time>
      </trkpt>
      <trkpt lat="48.81926" lon="2.43802">
        <ele>116</ele>
        <time>2015-06-08T20:29:20.732Z</time>
      </trkpt>
      <trkpt lat="48.81929" lon="2.43793">
        <ele>116.4</ele>
        <time>2015-06-08T20:29:21.734Z</time>
      </trkpt>
      <trkpt lat="48.8193" lon="2.43784">
        <ele>116.7</ele>
        <time>2015-06-08T20:29:22.738Z</time>
      </trkpt>
      <trkpt lat="48.81932" lon="2.43776">
        <ele>116.9</ele>
        <time>2015-06-08T20:29:23.748Z</time>
      </trkpt>
      <trkpt lat="48.81934" lon="2.43767">
        <ele>117.1</ele>
        <time>2015-06-08T20:29:24.690Z</time>
      </trkpt>
      <trkpt lat="48.81936" lon="2.43758">
        <ele>117.4</ele>
        <time>2015-06-08T20:29:25.699Z</time>
      </trkpt>
      <trkpt lat="48.81938" lon="2.4375">
        <ele>117.6</ele>
        <time>2015-06-08T20:29:26.736Z</time>
      </trkpt>
      <trkpt lat="48.8194" lon="2.43742">
        <ele>117.5</ele>
        <time>2015-06-08T20:29:27.709Z</time>
      </trkpt>
      <trkpt lat="48.81942" lon="2.43735">
        <ele>117.5</ele>
        <time>2015-06-08T20:29:28.684Z</time>
      </trkpt>
      <trkpt lat="48.81944" lon="2.43728">
        <ele>117.6</ele>
        <time>2015-06-08T20:29:29.671Z</time>
      </trkpt>
      <trkpt lat="48.81945" lon="2.43722">
        <ele>117.6</ele>
        <time>2015-06-08T20:29:30.674Z</time>
      </trkpt>
      <trkpt lat="48.81946" lon="2.43715">
        <ele>117.4</ele>
        <time>2015-06-08T20:29:31.709Z</time>
      </trkpt>
      <trkpt lat="48.81948" lon="2.43708">
        <ele>117.7</ele>
        <time>2015-06-08T20:29:32.727Z</time>
      </trkpt>
      <trkpt lat="48.81949" lon="2.43701">
        <ele>118.1</ele>
        <time>2015-06-08T20:29:33.727Z</time>
      </trkpt>
      <trkpt lat="48.81952" lon="2.43695">
        <ele>118.5</ele>
        <time>2015-06-08T20:29:34.737Z</time>
      </trkpt>
      <trkpt lat="48.81954" lon="2.43688">
        <ele>118.6</ele>
        <time>2015-06-08T20:29:35.664Z</time>
      </trkpt>
      <trkpt lat="48.81956" lon="2.43682">
        <ele>118.9</ele>
        <time>2015-06-08T20:29:36.678Z</time>
      </trkpt>
      <trkpt lat="48.81958" lon="2.43675">
        <ele>119.1</ele>
        <time>2015-06-08T20:29:37.674Z</time>
      </trkpt>
      <trkpt lat="48.81961" lon="2.43669">
        <ele>119.3</ele>
        <time>2015-06-08T20:29:38.716Z</time>
      </trkpt>
      <trkpt lat="48.81963" lon="2.43663">
        <ele>119.5</ele>
        <time>2015-06-08T20:29:39.734Z</time>
      </trkpt>
      <trkpt lat="48.81965" lon="2.43656">
        <ele>119.8</ele>
        <time>2015-06-08T20:29:40.643Z</time>
      </trkpt>
      <trkpt lat="48.81967" lon="2.43648">
        <ele>119.5</ele>
        <time>2015-06-08T20:29:41.661Z</time>
      </trkpt>
      <trkpt lat="48.81968" lon="2.43641">
        <ele>119.3</ele>
        <time>2015-06-08T20:29:42.671Z</time>
      </trkpt>
      <trkpt lat="48.8197" lon="2.43633">
        <ele>119.3</ele>
        <time>2015-06-08T20:29:43.680Z</time>
      </trkpt>
      <trkpt lat="48.81972" lon="2.43627">
        <ele>119.3</ele>
        <time>2015-06-08T20:29:44.738Z</time>
      </trkpt>
      <trkpt lat="48.81975" lon="2.4362">
        <ele>119.3</ele>
        <time>2015-06-08T20:29:45.758Z</time>
      </trkpt>
      <trkpt lat="48.81978" lon="2.43614">
        <ele>119.2</ele>
        <time>2015-06-08T20:29:46.674Z</time>
      </trkpt>
      <trkpt lat="48.8198" lon="2.43608">
        <ele>118.7</ele>
        <time>2015-06-08T20:29:47.642Z</time>
      </trkpt>
      <trkpt lat="48.81983" lon="2.43603">
        <ele>118.4</ele>
        <time>2015-06-08T20:29:48.674Z</time>
      </trkpt>
      <trkpt lat="48.81986" lon="2.43597">
        <ele>118</ele>
        <time>2015-06-08T20:29:49.694Z</time>
      </trkpt>
      <trkpt lat="48.81989" lon="2.4359">
        <ele>117.7</ele>
        <time>2015-06-08T20:29:50.730Z</time>
      </trkpt>
      <trkpt lat="48.81992" lon="2.43584">
        <ele>117.6</ele>
        <time>2015-06-08T20:29:51.747Z</time>
      </trkpt>
      <trkpt lat="48.81994" lon="2.43577">
        <ele>117.3</ele>
        <time>2015-06-08T20:29:52.649Z</time>
      </trkpt>
      <trkpt lat="48.81998" lon="2.43571">
        <ele>117.3</ele>
        <time>2015-06-08T20:29:54.053Z</time>
      </trkpt>
      <trkpt lat="48.82001" lon="2.43566">
        <ele>117.2</ele>
        <time>2015-06-08T20:29:54.696Z</time>
      </trkpt>
      <trkpt lat="48.82004" lon="2.4356">
        <ele>117.1</ele>
        <time>2015-06-08T20:29:55.703Z</time>
      </trkpt>
      <trkpt lat="48.82008" lon="2.43554">
        <ele>117.2</ele>
        <time>2015-06-08T20:29:56.725Z</time>
      </trkpt>
      <trkpt lat="48.82012" lon="2.43548">
        <ele>117</ele>
        <time>2015-06-08T20:29:57.784Z</time>
      </trkpt>
      <trkpt lat="48.82015" lon="2.43541">
        <ele>117.3</ele>
        <time>2015-06-08T20:29:58.631Z</time>
      </trkpt>
      <trkpt lat="48.82018" lon="2.43535">
        <ele>117.4</ele>
        <time>2015-06-08T20:29:59.652Z</time>
      </trkpt>
      <trkpt lat="48.82021" lon="2.43528">
        <ele>117.8</ele>
        <time>2015-06-08T20:30:00.665Z</time>
      </trkpt>
      <trkpt lat="48.82024" lon="2.43522">
        <ele>118.2</ele>
        <time>2015-06-08T20:30:01.690Z</time>
      </trkpt>
      <trkpt lat="48.82027" lon="2.43515">
        <ele>118.3</ele>
        <time>2015-06-08T20:30:02.726Z</time>
      </trkpt>
      <trkpt lat="48.8203" lon="2.43509">
        <ele>118.3</ele>
        <time>2015-06-08T20:30:03.718Z</time>
      </trkpt>
      <trkpt lat="48.82033" lon="2.43503">
        <ele>118.3</ele>
        <time>2015-06-08T20:30:04.723Z</time>
      </trkpt>
      <trkpt lat="48.82037" lon="2.43496">
        <ele>118.5</ele>
        <time>2015-06-08T20:30:05.744Z</time>
      </trkpt>
      <trkpt lat="48.8204" lon="2.43489">
        <ele>118.5</ele>
        <time>2015-06-08T20:30:06.754Z</time>
      </trkpt>
      <trkpt lat="48.82043" lon="2.43482">
        <ele>118.3</ele>
        <time>2015-06-08T20:30:07.659Z</time>
      </trkpt>
      <trkpt lat="48.82046" lon="2.43475">
        <ele>118.4</ele>
        <time>2015-06-08T20:30:08.732Z</time>
      </trkpt>
      <trkpt lat="48.8205" lon="2.43468">
        <ele>118.5</ele>
        <time>2015-06-08T20:30:09.711Z</time>
      </trkpt>
      <trkpt lat="48.82053" lon="2.4346">
        <ele>118.5</ele>
        <time>2015-06-08T20:30:10.725Z</time>
      </trkpt>
      <trkpt lat="48.82058" lon="2.43453">
        <ele>118.4</ele>
        <time>2015-06-08T20:30:11.727Z</time>
      </trkpt>
      <trkpt lat="48.82061" lon="2.43446">
        <ele>118.5</ele>
        <time>2015-06-08T20:30:12.652Z</time>
      </trkpt>
      <trkpt lat="48.82063" lon="2.43439">
        <ele>118.9</ele>
        <time>2015-06-08T20:30:13.663Z</time>
      </trkpt>
      <trkpt lat="48.82065" lon="2.43431">
        <ele>118.9</ele>
        <time>2015-06-08T20:30:14.763Z</time>
      </trkpt>
      <trkpt lat="48.82068" lon="2.43425">
        <ele>119</ele>
        <time>2015-06-08T20:30:15.736Z</time>
      </trkpt>
      <trkpt lat="48.82072" lon="2.43419">
        <ele>119.3</ele>
        <time>2015-06-08T20:30:16.746Z</time>
      </trkpt>
      <trkpt lat="48.82076" lon="2.43413">
        <ele>119.4</ele>
        <time>2015-06-08T20:30:17.687Z</time>
      </trkpt>
      <trkpt lat="48.82081" lon="2.43406">
        <ele>119.6</ele>
        <time>2015-06-08T20:30:18.697Z</time>
      </trkpt>
      <trkpt lat="48.82086" lon="2.434">
        <ele>119.8</ele>
        <time>2015-06-08T20:30:19.671Z</time>
      </trkpt>
      <trkpt lat="48.82092" lon="2.43395">
        <ele>120.1</ele>
        <time>2015-06-08T20:30:20.714Z</time>
      </trkpt>
      <trkpt lat="48.82097" lon="2.43389">
        <ele>120.1</ele>
        <time>2015-06-08T20:30:21.703Z</time>
      </trkpt>
      <trkpt lat="48.82103" lon="2.43382">
        <ele>119.9</ele>
        <time>2015-06-08T20:30:22.708Z</time>
      </trkpt>
      <trkpt lat="48.82107" lon="2.43376">
        <ele>119.7</ele>
        <time>2015-06-08T20:30:23.722Z</time>
      </trkpt>
      <trkpt lat="48.82111" lon="2.4337">
        <ele>119.4</ele>
        <time>2015-06-08T20:30:24.731Z</time>
      </trkpt>
      <trkpt lat="48.82116" lon="2.43366">
        <ele>119.4</ele>
        <time>2015-06-08T20:30:25.743Z</time>
      </trkpt>
      <trkpt lat="48.8212" lon="2.4336">
        <ele>119</ele>
        <time>2015-06-08T20:30:26.752Z</time>
      </trkpt>
      <trkpt lat="48.82123" lon="2.43355">
        <ele>118.8</ele>
        <time>2015-06-08T20:30:27.674Z</time>
      </trkpt>
      <trkpt lat="48.82127" lon="2.43348">
        <ele>118.5</ele>
        <time>2015-06-08T20:30:28.675Z</time>
      </trkpt>
      <trkpt lat="48.82132" lon="2.4334">
        <ele>118.2</ele>
        <time>2015-06-08T20:30:29.732Z</time>
      </trkpt>
      <trkpt lat="48.82136" lon="2.43334">
        <ele>118.1</ele>
        <time>2015-06-08T20:30:30.709Z</time>
      </trkpt>
      <trkpt lat="48.82141" lon="2.43327">
        <ele>118.2</ele>
        <time>2015-06-08T20:30:31.730Z</time>
      </trkpt>
      <trkpt lat="48.82146" lon="2.4332">
        <ele>118.1</ele>
        <time>2015-06-08T20:30:32.742Z</time>
      </trkpt>
      <trkpt lat="48.8215" lon="2.43312">
        <ele>118.1</ele>
        <time>2015-06-08T20:30:33.665Z</time>
      </trkpt>
      <trkpt lat="48.82154" lon="2.43307">
        <ele>118</ele>
        <time>2015-06-08T20:30:34.664Z</time>
      </trkpt>
      <trkpt lat="48.82157" lon="2.43302">
        <ele>117.7</ele>
        <time>2015-06-08T20:30:35.679Z</time>
      </trkpt>
      <trkpt lat="48.82161" lon="2.43298">
        <ele>117.4</ele>
        <time>2015-06-08T20:30:36.749Z</time>
      </trkpt>
      <trkpt lat="48.82166" lon="2.43293">
        <ele>117.4</ele>
        <time>2015-06-08T20:30:37.659Z</time>
      </trkpt>
      <trkpt lat="48.82173" lon="2.43289">
        <ele>117.4</ele>
        <time>2015-06-08T20:30:38.712Z</time>
      </trkpt>
      <trkpt lat="48.82181" lon="2.43283">
        <ele>117.3</ele>
        <time>2015-06-08T20:30:39.704Z</time>
      </trkpt>
      <trkpt lat="48.82189" lon="2.43276">
        <ele>117.1</ele>
        <time>2015-06-08T20:30:40.713Z</time>
      </trkpt>
      <trkpt lat="48.82198" lon="2.43269">
        <ele>117</ele>
        <time>2015-06-08T20:30:41.723Z</time>
      </trkpt>
      <trkpt lat="48.82203" lon="2.43263">
        <ele>116.5</ele>
        <time>2015-06-08T20:30:42.651Z</time>
      </trkpt>
      <trkpt lat="48.82207" lon="2.43256">
        <ele>116.3</ele>
        <time>2015-06-08T20:30:43.648Z</time>
      </trkpt>
      <trkpt lat="48.8221" lon="2.43248">
        <ele>116.3</ele>
        <time>2015-06-08T20:30:44.687Z</time>
      </trkpt>
      <trkpt lat="48.82212" lon="2.43241">
        <ele>116.2</ele>
        <time>2015-06-08T20:30:45.696Z</time>
      </trkpt>
      <trkpt lat="48.82217" lon="2.43234">
        <ele>115.8</ele>
        <time>2015-06-08T20:30:46.648Z</time>
      </trkpt>
      <trkpt lat="48.82221" lon="2.43227">
        <ele>115.4</ele>
        <time>2015-06-08T20:30:47.651Z</time>
      </trkpt>
      <trkpt lat="48.82227" lon="2.4322">
        <ele>115.2</ele>
        <time>2015-06-08T20:30:48.672Z</time>
      </trkpt>
      <trkpt lat="48.82232" lon="2.43213">
        <ele>115</ele>
        <time>2015-06-08T20:30:49.680Z</time>
      </trkpt>
      <trkpt lat="48.82237" lon="2.43207">
        <ele>115</ele>
        <time>2015-06-08T20:30:50.692Z</time>
      </trkpt>
      <trkpt lat="48.82242" lon="2.432">
        <ele>115</ele>
        <time>2015-06-08T20:30:51.708Z</time>
      </trkpt>
      <trkpt lat="48.82247" lon="2.43194">
        <ele>115</ele>
        <time>2015-06-08T20:30:52.713Z</time>
      </trkpt>
      <trkpt lat="48.82251" lon="2.43188">
        <ele>115</ele>
        <time>2015-06-08T20:30:53.630Z</time>
      </trkpt>
      <trkpt lat="48.82255" lon="2.43181">
        <ele>115.1</ele>
        <time>2015-06-08T20:30:54.673Z</time>
      </trkpt>
      <trkpt lat="48.82259" lon="2.43174">
        <ele>115.2</ele>
        <time>2015-06-08T20:30:55.682Z</time>
      </trkpt>
      <trkpt lat="48.82263" lon="2.43167">
        <ele>115.8</ele>
        <time>2015-06-08T20:30:56.693Z</time>
      </trkpt>
      <trkpt lat="48.82267" lon="2.43159">
        <ele>116</ele>
        <time>2015-06-08T20:30:57.712Z</time>
      </trkpt>
      <trkpt lat="48.8227" lon="2.43152">
        <ele>116.3</ele>
        <time>2015-06-08T20:30:58.631Z</time>
      </trkpt>
      <trkpt lat="48.82275" lon="2.43144">
        <ele>116.8</ele>
        <time>2015-06-08T20:30:59.642Z</time>
      </trkpt>
      <trkpt lat="48.8228" lon="2.43137">
        <ele>117.1</ele>
        <time>2015-06-08T20:31:00.654Z</time>
      </trkpt>
      <trkpt lat="48.82285" lon="2.4313">
        <ele>117.4</ele>
        <time>2015-06-08T20:31:01.658Z</time>
      </trkpt>
      <trkpt lat="48.82289" lon="2.43122">
        <ele>117.7</ele>
        <time>2015-06-08T20:31:02.759Z</time>
      </trkpt>
      <trkpt lat="48.82293" lon="2.43112">
        <ele>118.4</ele>
        <time>2015-06-08T20:31:03.724Z</time>
      </trkpt>
      <trkpt lat="48.82296" lon="2.43103">
        <ele>118.7</ele>
        <time>2015-06-08T20:31:04.755Z</time>
      </trkpt>
      <trkpt lat="48.82298" lon="2.43093">
        <ele>118.8</ele>
        <time>2015-06-08T20:31:05.650Z</time>
      </trkpt>
      <trkpt lat="48.823" lon="2.43084">
        <ele>118.9</ele>
        <time>2015-06-08T20:31:06.665Z</time>
      </trkpt>
      <trkpt lat="48.82303" lon="2.43075">
        <ele>119.1</ele>
        <time>2015-06-08T20:31:07.668Z</time>
      </trkpt>
      <trkpt lat="48.82306" lon="2.43066">
        <ele>119.5</ele>
        <time>2015-06-08T20:31:08.698Z</time>
      </trkpt>
      <trkpt lat="48.82309" lon="2.43056">
        <ele>119.7</ele>
        <time>2015-06-08T20:31:09.704Z</time>
      </trkpt>
      <trkpt lat="48.82313" lon="2.43047">
        <ele>119.8</ele>
        <time>2015-06-08T20:31:10.708Z</time>
      </trkpt>
      <trkpt lat="48.82317" lon="2.43038">
        <ele>120.1</ele>
        <time>2015-06-08T20:31:11.717Z</time>
      </trkpt>
      <trkpt lat="48.82322" lon="2.4303">
        <ele>120.8</ele>
        <time>2015-06-08T20:31:12.640Z</time>
      </trkpt>
      <trkpt lat="48.82325" lon="2.43021">
        <ele>120.9</ele>
        <time>2015-06-08T20:31:13.757Z</time>
      </trkpt>
      <trkpt lat="48.82328" lon="2.43011">
        <ele>120.9</ele>
        <time>2015-06-08T20:31:14.769Z</time>
      </trkpt>
      <trkpt lat="48.82331" lon="2.43002">
        <ele>121</ele>
        <time>2015-06-08T20:31:15.644Z</time>
      </trkpt>
      <trkpt lat="48.82334" lon="2.42994">
        <ele>121.5</ele>
        <time>2015-06-08T20:31:16.651Z</time>
      </trkpt>
      <trkpt lat="48.82337" lon="2.42985">
        <ele>121.8</ele>
        <time>2015-06-08T20:31:17.663Z</time>
      </trkpt>
      <trkpt lat="48.82341" lon="2.42976">
        <ele>121.9</ele>
        <time>2015-06-08T20:31:18.662Z</time>
      </trkpt>
      <trkpt lat="48.82344" lon="2.42967">
        <ele>122.1</ele>
        <time>2015-06-08T20:31:19.670Z</time>
      </trkpt>
      <trkpt lat="48.82346" lon="2.42958">
        <ele>121.6</ele>
        <time>2015-06-08T20:31:20.723Z</time>
      </trkpt>
      <trkpt lat="48.82348" lon="2.42949">
        <ele>121.2</ele>
        <time>2015-06-08T20:31:21.728Z</time>
      </trkpt>
      <trkpt lat="48.8235" lon="2.4294">
        <ele>120.2</ele>
        <time>2015-06-08T20:31:22.648Z</time>
      </trkpt>
      <trkpt lat="48.82352" lon="2.42931">
        <ele>119.6</ele>
        <time>2015-06-08T20:31:23.672Z</time>
      </trkpt>
      <trkpt lat="48.82355" lon="2.42923">
        <ele>119.5</ele>
        <time>2015-06-08T20:31:24.695Z</time>
      </trkpt>
      <trkpt lat="48.82359" lon="2.42915">
        <ele>119</ele>
        <time>2015-06-08T20:31:25.699Z</time>
      </trkpt>
      <trkpt lat="48.82362" lon="2.42906">
        <ele>118.6</ele>
        <time>2015-06-08T20:31:26.725Z</time>
      </trkpt>
      <trkpt lat="48.82365" lon="2.42898">
        <ele>118.1</ele>
        <time>2015-06-08T20:31:27.662Z</time>
      </trkpt>
      <trkpt lat="48.82367" lon="2.42889">
        <ele>117.4</ele>
        <time>2015-06-08T20:31:28.651Z</time>
      </trkpt>
      <trkpt lat="48.8237" lon="2.42882">
        <ele>117.2</ele>
        <time>2015-06-08T20:31:29.665Z</time>
      </trkpt>
      <trkpt lat="48.82373" lon="2.42873">
        <ele>116.8</ele>
        <time>2015-06-08T20:31:30.672Z</time>
      </trkpt>
      <trkpt lat="48.82376" lon="2.42865">
        <ele>116.3</ele>
        <time>2015-06-08T20:31:31.683Z</time>
      </trkpt>
      <trkpt lat="48.82378" lon="2.42857">
        <ele>116</ele>
        <time>2015-06-08T20:31:32.718Z</time>
      </trkpt>
      <trkpt lat="48.82381" lon="2.42849">
        <ele>115.8</ele>
        <time>2015-06-08T20:31:33.712Z</time>
      </trkpt>
      <trkpt lat="48.82382" lon="2.4284">
        <ele>115.4</ele>
        <time>2015-06-08T20:31:34.725Z</time>
      </trkpt>
      <trkpt lat="48.82382" lon="2.42832">
        <ele>115.3</ele>
        <time>2015-06-08T20:31:35.662Z</time>
      </trkpt>
      <trkpt lat="48.82383" lon="2.42822">
        <ele>115.2</ele>
        <time>2015-06-08T20:31:36.660Z</time>
      </trkpt>
      <trkpt lat="48.82384" lon="2.42812">
        <ele>115.2</ele>
        <time>2015-06-08T20:31:37.668Z</time>
      </trkpt>
      <trkpt lat="48.82386" lon="2.42802">
        <ele>115.4</ele>
        <time>2015-06-08T20:31:38.716Z</time>
      </trkpt>
      <trkpt lat="48.82387" lon="2.42792">
        <ele>115.5</ele>
        <time>2015-06-08T20:31:39.722Z</time>
      </trkpt>
      <trkpt lat="48.82388" lon="2.42782">
        <ele>115.6</ele>
        <time>2015-06-08T20:31:40.636Z</time>
      </trkpt>
      <trkpt lat="48.8239" lon="2.42773">
        <ele>115.9</ele>
        <time>2015-06-08T20:31:41.655Z</time>
      </trkpt>
      <trkpt lat="48.82392" lon="2.42764">
        <ele>116.1</ele>
        <time>2015-06-08T20:31:42.676Z</time>
      </trkpt>
      <trkpt lat="48.82394" lon="2.42755">
        <ele>116</ele>
        <time>2015-06-08T20:31:43.686Z</time>
      </trkpt>
      <trkpt lat="48.82395" lon="2.42747">
        <ele>115.9</ele>
        <time>2015-06-08T20:31:44.716Z</time>
      </trkpt>
      <trkpt lat="48.82397" lon="2.42738">
        <ele>115.6</ele>
        <time>2015-06-08T20:31:45.724Z</time>
      </trkpt>
      <trkpt lat="48.82398" lon="2.42729">
        <ele>115.4</ele>
        <time>2015-06-08T20:31:46.734Z</time>
      </trkpt>
      <trkpt lat="48.824" lon="2.4272">
        <ele>114.9</ele>
        <time>2015-06-08T20:31:47.737Z</time>
      </trkpt>
      <trkpt lat="48.82401" lon="2.42712">
        <ele>114.5</ele>
        <time>2015-06-08T20:31:48.741Z</time>
      </trkpt>
      <trkpt lat="48.82401" lon="2.42703">
        <ele>114.4</ele>
        <time>2015-06-08T20:31:49.669Z</time>
      </trkpt>
      <trkpt lat="48.82402" lon="2.42695">
        <ele>114.3</ele>
        <time>2015-06-08T20:31:50.716Z</time>
      </trkpt>
      <trkpt lat="48.82402" lon="2.42687">
        <ele>114</ele>
        <time>2015-06-08T20:31:51.725Z</time>
      </trkpt>
      <trkpt lat="48.82404" lon="2.42677">
        <ele>113.6</ele>
        <time>2015-06-08T20:31:52.741Z</time>
      </trkpt>
      <trkpt lat="48.82405" lon="2.42668">
        <ele>113.6</ele>
        <time>2015-06-08T20:31:53.655Z</time>
      </trkpt>
      <trkpt lat="48.82405" lon="2.42659">
        <ele>113.7</ele>
        <time>2015-06-08T20:31:54.663Z</time>
      </trkpt>
      <trkpt lat="48.82405" lon="2.4265">
        <ele>113.7</ele>
        <time>2015-06-08T20:31:55.673Z</time>
      </trkpt>
      <trkpt lat="48.82406" lon="2.42642">
        <ele>113.9</ele>
        <time>2015-06-08T20:31:56.729Z</time>
      </trkpt>
      <trkpt lat="48.82407" lon="2.42633">
        <ele>114.5</ele>
        <time>2015-06-08T20:31:57.727Z</time>
      </trkpt>
      <trkpt lat="48.82407" lon="2.42624">
        <ele>114.5</ele>
        <time>2015-06-08T20:31:58.656Z</time>
      </trkpt>
      <trkpt lat="48.82407" lon="2.42615">
        <ele>114.2</ele>
        <time>2015-06-08T20:31:59.666Z</time>
      </trkpt>
      <trkpt lat="48.82408" lon="2.42606">
        <ele>114</ele>
        <time>2015-06-08T20:32:00.685Z</time>
      </trkpt>
      <trkpt lat="48.82409" lon="2.42597">
        <ele>113.7</ele>
        <time>2015-06-08T20:32:01.692Z</time>
      </trkpt>
      <trkpt lat="48.8241" lon="2.42588">
        <ele>113.7</ele>
        <time>2015-06-08T20:32:02.756Z</time>
      </trkpt>
      <trkpt lat="48.8241" lon="2.42579">
        <ele>113.5</ele>
        <time>2015-06-08T20:32:03.665Z</time>
      </trkpt>
      <trkpt lat="48.82411" lon="2.4257">
        <ele>113.8</ele>
        <time>2015-06-08T20:32:04.663Z</time>
      </trkpt>
      <trkpt lat="48.82412" lon="2.4256">
        <ele>113.4</ele>
        <time>2015-06-08T20:32:05.678Z</time>
      </trkpt>
      <trkpt lat="48.82412" lon="2.4255">
        <ele>113.3</ele>
        <time>2015-06-08T20:32:06.699Z</time>
      </trkpt>
      <trkpt lat="48.82413" lon="2.42541">
        <ele>113</ele>
        <time>2015-06-08T20:32:07.710Z</time>
      </trkpt>
      <trkpt lat="48.82414" lon="2.42531">
        <ele>112.5</ele>
        <time>2015-06-08T20:32:08.718Z</time>
      </trkpt>
      <trkpt lat="48.82415" lon="2.42522">
        <ele>111.9</ele>
        <time>2015-06-08T20:32:09.725Z</time>
      </trkpt>
      <trkpt lat="48.82416" lon="2.42513">
        <ele>111.7</ele>
        <time>2015-06-08T20:32:10.731Z</time>
      </trkpt>
      <trkpt lat="48.82416" lon="2.42504">
        <ele>111.3</ele>
        <time>2015-06-08T20:32:11.743Z</time>
      </trkpt>
      <trkpt lat="48.82417" lon="2.42496">
        <ele>111.1</ele>
        <time>2015-06-08T20:32:12.660Z</time>
      </trkpt>
      <trkpt lat="48.82417" lon="2.42487">
        <ele>110.9</ele>
        <time>2015-06-08T20:32:13.671Z</time>
      </trkpt>
      <trkpt lat="48.82418" lon="2.42478">
        <ele>110.8</ele>
        <time>2015-06-08T20:32:14.727Z</time>
      </trkpt>
      <trkpt lat="48.82418" lon="2.4247">
        <ele>110.8</ele>
        <time>2015-06-08T20:32:15.724Z</time>
      </trkpt>
      <trkpt lat="48.82419" lon="2.42462">
        <ele>110.6</ele>
        <time>2015-06-08T20:32:16.734Z</time>
      </trkpt>
      <trkpt lat="48.82419" lon="2.42453">
        <ele>110.5</ele>
        <time>2015-06-08T20:32:17.746Z</time>
      </trkpt>
      <trkpt lat="48.82419" lon="2.42443">
        <ele>110.1</ele>
        <time>2015-06-08T20:32:18.637Z</time>
      </trkpt>
      <trkpt lat="48.82419" lon="2.42434">
        <ele>109.8</ele>
        <time>2015-06-08T20:32:19.659Z</time>
      </trkpt>
      <trkpt lat="48.8242" lon="2.42425">
        <ele>109.5</ele>
        <time>2015-06-08T20:32:20.712Z</time>
      </trkpt>
      <trkpt lat="48.8242" lon="2.42415">
        <ele>109.2</ele>
        <time>2015-06-08T20:32:21.715Z</time>
      </trkpt>
      <trkpt lat="48.8242" lon="2.42406">
        <ele>109</ele>
        <time>2015-06-08T20:32:22.722Z</time>
      </trkpt>
      <trkpt lat="48.82418" lon="2.42398">
        <ele>109.1</ele>
        <time>2015-06-08T20:32:23.728Z</time>
      </trkpt>
      <trkpt lat="48.82417" lon="2.4239">
        <ele>109.3</ele>
        <time>2015-06-08T20:32:24.736Z</time>
      </trkpt>
      <trkpt lat="48.82415" lon="2.42382">
        <ele>109.1</ele>
        <time>2015-06-08T20:32:25.739Z</time>
      </trkpt>
      <trkpt lat="48.82415" lon="2.42375">
        <ele>109.1</ele>
        <time>2015-06-08T20:32:26.754Z</time>
      </trkpt>
      <trkpt lat="48.82415" lon="2.42368">
        <ele>109.2</ele>
        <time>2015-06-08T20:32:27.664Z</time>
      </trkpt>
      <trkpt lat="48.82415" lon="2.42355">
        <ele>109.6</ele>
        <time>2015-06-08T20:32:29.662Z</time>
      </trkpt>
      <trkpt lat="48.82415" lon="2.42348">
        <ele>109.5</ele>
        <time>2015-06-08T20:32:30.682Z</time>
      </trkpt>
      <trkpt lat="48.82418" lon="2.42335">
        <ele>109.1</ele>
        <time>2015-06-08T20:32:33.739Z</time>
      </trkpt>
      <trkpt lat="48.82418" lon="2.42331">
        <ele>109</ele>
        <time>2015-06-08T20:32:34.685Z</time>
      </trkpt>
      <trkpt lat="48.82418" lon="2.4232">
        <ele>109.9</ele>
        <time>2015-06-08T20:32:37.739Z</time>
      </trkpt>
      <trkpt lat="48.82417" lon="2.42316">
        <ele>110.2</ele>
        <time>2015-06-08T20:32:38.771Z</time>
      </trkpt>
      <trkpt lat="48.82415" lon="2.42305">
        <ele>110.8</ele>
        <time>2015-06-08T20:32:41.677Z</time>
      </trkpt>
      <trkpt lat="48.82415" lon="2.42301">
        <ele>110.5</ele>
        <time>2015-06-08T20:32:42.689Z</time>
      </trkpt>
      <trkpt lat="48.82418" lon="2.42292">
        <ele>110.4</ele>
        <time>2015-06-08T20:35:11.734Z</time>
      </trkpt>
      <trkpt lat="48.82423" lon="2.42294">
        <ele>107.6</ele>
        <time>2015-06-08T20:35:12.657Z</time>
      </trkpt>
      <trkpt lat="48.8242" lon="2.42284">
        <ele>106.2</ele>
        <time>2015-06-08T20:38:41.676Z</time>
      </trkpt>
      <trkpt lat="48.82419" lon="2.42282">
        <ele>106.3</ele>
        <time>2015-06-08T20:38:42.689Z</time>
      </trkpt>
      <trkpt lat="48.82417" lon="2.42271">
        <ele>107.1</ele>
        <time>2015-06-08T20:38:46.644Z</time>
      </trkpt>
      <trkpt lat="48.82416" lon="2.42267">
        <ele>107.2</ele>
        <time>2015-06-08T20:38:47.643Z</time>
      </trkpt>
      <trkpt lat="48.82416" lon="2.42255">
        <ele>106.9</ele>
        <time>2015-06-08T20:38:50.729Z</time>
      </trkpt>
      <trkpt lat="48.82415" lon="2.42251">
        <ele>106.9</ele>
        <time>2015-06-08T20:38:51.660Z</time>
      </trkpt>
      <trkpt lat="48.82413" lon="2.42239">
        <ele>107</ele>
        <time>2015-06-08T20:38:54.670Z</time>
      </trkpt>
      <trkpt lat="48.82412" lon="2.42235">
        <ele>107</ele>
        <time>2015-06-08T20:38:55.682Z</time>
      </trkpt>
      <trkpt lat="48.82411" lon="2.42222">
        <ele>107.5</ele>
        <time>2015-06-08T20:38:58.671Z</time>
      </trkpt>
      <trkpt lat="48.8241" lon="2.42217">
        <ele>107.7</ele>
        <time>2015-06-08T20:38:59.697Z</time>
      </trkpt>
      <trkpt lat="48.82409" lon="2.42207">
        <ele>108</ele>
        <time>2015-06-08T20:39:01.689Z</time>
      </trkpt>
      <trkpt lat="48.82408" lon="2.42202">
        <ele>108.1</ele>
        <time>2015-06-08T20:39:02.726Z</time>
      </trkpt>
      <trkpt lat="48.82408" lon="2.42191">
        <ele>108.3</ele>
        <time>2015-06-08T20:39:04.637Z</time>
      </trkpt>
      <trkpt lat="48.82408" lon="2.42186">
        <ele>108.4</ele>
        <time>2015-06-08T20:39:05.657Z</time>
      </trkpt>
      <trkpt lat="48.82407" lon="2.42175">
        <ele>108.8</ele>
        <time>2015-06-08T20:39:07.717Z</time>
      </trkpt>
      <trkpt lat="48.82407" lon="2.4217">
        <ele>108.8</ele>
        <time>2015-06-08T20:39:08.724Z</time>
      </trkpt>
      <trkpt lat="48.82406" lon="2.42159">
        <ele>108.9</ele>
        <time>2015-06-08T20:39:10.646Z</time>
      </trkpt>
      <trkpt lat="48.82405" lon="2.42154">
        <ele>109</ele>
        <time>2015-06-08T20:39:11.648Z</time>
      </trkpt>
      <trkpt lat="48.82405" lon="2.42143">
        <ele>108.8</ele>
        <time>2015-06-08T20:39:13.723Z</time>
      </trkpt>
      <trkpt lat="48.82406" lon="2.42138">
        <ele>108.7</ele>
        <time>2015-06-08T20:39:14.771Z</time>
      </trkpt>
      <trkpt lat="48.82405" lon="2.42127">
        <ele>108.9</ele>
        <time>2015-06-08T20:39:16.657Z</time>
      </trkpt>
      <trkpt lat="48.82405" lon="2.42122">
        <ele>108.8</ele>
        <time>2015-06-08T20:39:17.678Z</time>
      </trkpt>
      <trkpt lat="48.82404" lon="2.42111">
        <ele>108.7</ele>
        <time>2015-06-08T20:39:19.700Z</time>
      </trkpt>
      <trkpt lat="48.82403" lon="2.42105">
        <ele>108.5</ele>
        <time>2015-06-08T20:39:20.709Z</time>
      </trkpt>
      <trkpt lat="48.82402" lon="2.42094">
        <ele>108.6</ele>
        <time>2015-06-08T20:39:22.734Z</time>
      </trkpt>
      <trkpt lat="48.82402" lon="2.42088">
        <ele>108.5</ele>
        <time>2015-06-08T20:39:23.672Z</time>
      </trkpt>
      <trkpt lat="48.82402" lon="2.42078">
        <ele>108.5</ele>
        <time>2015-06-08T20:39:25.670Z</time>
      </trkpt>
      <trkpt lat="48.82401" lon="2.42072">
        <ele>108.3</ele>
        <time>2015-06-08T20:39:26.741Z</time>
      </trkpt>
      <trkpt lat="48.82402" lon="2.42061">
        <ele>108.8</ele>
        <time>2015-06-08T20:39:28.652Z</time>
      </trkpt>
      <trkpt lat="48.82403" lon="2.42056">
        <ele>109.3</ele>
        <time>2015-06-08T20:39:29.654Z</time>
      </trkpt>
      <trkpt lat="48.82405" lon="2.42045">
        <ele>110</ele>
        <time>2015-06-08T20:39:31.681Z</time>
      </trkpt>
      <trkpt lat="48.82406" lon="2.4204">
        <ele>110.2</ele>
        <time>2015-06-08T20:39:32.744Z</time>
      </trkpt>
      <trkpt lat="48.82407" lon="2.42029">
        <ele>109.8</ele>
        <time>2015-06-08T20:39:34.679Z</time>
      </trkpt>
      <trkpt lat="48.82408" lon="2.42023">
        <ele>109.8</ele>
        <time>2015-06-08T20:39:35.652Z</time>
      </trkpt>
      <trkpt lat="48.82409" lon="2.42012">
        <ele>110</ele>
        <time>2015-06-08T20:39:37.727Z</time>
      </trkpt>
      <trkpt lat="48.82409" lon="2.42006">
        <ele>110.3</ele>
        <time>2015-06-08T20:39:38.711Z</time>
      </trkpt>
      <trkpt lat="48.82409" lon="2.41995">
        <ele>110.7</ele>
        <time>2015-06-08T20:39:41.400Z</time>
      </trkpt>
      <trkpt lat="48.8241" lon="2.4199">
        <ele>110.8</ele>
        <time>2015-06-08T20:39:41.685Z</time>
      </trkpt>
      <trkpt lat="48.82411" lon="2.41978">
        <ele>111.2</ele>
        <time>2015-06-08T20:39:43.654Z</time>
      </trkpt>
      <trkpt lat="48.82411" lon="2.41972">
        <ele>111.2</ele>
        <time>2015-06-08T20:39:44.762Z</time>
      </trkpt>
      <trkpt lat="48.82411" lon="2.41965">
        <ele>111</ele>
        <time>2015-06-08T20:39:45.654Z</time>
      </trkpt>
      <trkpt lat="48.82412" lon="2.41958">
        <ele>110.8</ele>
        <time>2015-06-08T20:39:46.665Z</time>
      </trkpt>
      <trkpt lat="48.82414" lon="2.41945">
        <ele>110.1</ele>
        <time>2015-06-08T20:39:48.702Z</time>
      </trkpt>
      <trkpt lat="48.82415" lon="2.41939">
        <ele>109.6</ele>
        <time>2015-06-08T20:39:49.733Z</time>
      </trkpt>
      <trkpt lat="48.82417" lon="2.41926">
        <ele>108.8</ele>
        <time>2015-06-08T20:39:51.736Z</time>
      </trkpt>
      <trkpt lat="48.82418" lon="2.4192">
        <ele>108.6</ele>
        <time>2015-06-08T20:39:52.739Z</time>
      </trkpt>
      <trkpt lat="48.8242" lon="2.41907">
        <ele>108.1</ele>
        <time>2015-06-08T20:39:54.784Z</time>
      </trkpt>
      <trkpt lat="48.8242" lon="2.41901">
        <ele>108</ele>
        <time>2015-06-08T20:39:55.671Z</time>
      </trkpt>
      <trkpt lat="48.82422" lon="2.41889">
        <ele>107.9</ele>
        <time>2015-06-08T20:39:57.637Z</time>
      </trkpt>
      <trkpt lat="48.82423" lon="2.41883">
        <ele>108</ele>
        <time>2015-06-08T20:39:58.667Z</time>
      </trkpt>
      <trkpt lat="48.82426" lon="2.41871">
        <ele>108.1</ele>
        <time>2015-06-08T20:40:00.664Z</time>
      </trkpt>
      <trkpt lat="48.82427" lon="2.41864">
        <ele>108.1</ele>
        <time>2015-06-08T20:40:01.666Z</time>
      </trkpt>
      <trkpt lat="48.8243" lon="2.41852">
        <ele>107.9</ele>
        <time>2015-06-08T20:40:03.702Z</time>
      </trkpt>
      <trkpt lat="48.82432" lon="2.41846">
        <ele>108</ele>
        <time>2015-06-08T20:40:04.712Z</time>
      </trkpt>
      <trkpt lat="48.82434" lon="2.41839">
        <ele>108.2</ele>
        <time>2015-06-08T20:40:05.623Z</time>
      </trkpt>
      <trkpt lat="48.82436" lon="2.41833">
        <ele>108.2</ele>
        <time>2015-06-08T20:40:06.652Z</time>
      </trkpt>
      <trkpt lat="48.82438" lon="2.41826">
        <ele>108.3</ele>
        <time>2015-06-08T20:40:07.670Z</time>
      </trkpt>
      <trkpt lat="48.82439" lon="2.4182">
        <ele>108.2</ele>
        <time>2015-06-08T20:40:08.725Z</time>
      </trkpt>
      <trkpt lat="48.82441" lon="2.41813">
        <ele>108</ele>
        <time>2015-06-08T20:40:09.708Z</time>
      </trkpt>
      <trkpt lat="48.82442" lon="2.41806">
        <ele>107.9</ele>
        <time>2015-06-08T20:40:10.717Z</time>
      </trkpt>
      <trkpt lat="48.82443" lon="2.418">
        <ele>107.9</ele>
        <time>2015-06-08T20:40:12.229Z</time>
      </trkpt>
      <trkpt lat="48.82447" lon="2.41794">
        <ele>106.8</ele>
        <time>2015-06-08T20:40:12.638Z</time>
      </trkpt>
      <trkpt lat="48.82449" lon="2.41788">
        <ele>106.5</ele>
        <time>2015-06-08T20:40:13.656Z</time>
      </trkpt>
      <trkpt lat="48.82451" lon="2.41781">
        <ele>106.4</ele>
        <time>2015-06-08T20:40:14.707Z</time>
      </trkpt>
      <trkpt lat="48.82453" lon="2.41774">
        <ele>106.4</ele>
        <time>2015-06-08T20:40:15.692Z</time>
      </trkpt>
      <trkpt lat="48.82454" lon="2.41767">
        <ele>106.4</ele>
        <time>2015-06-08T20:40:16.708Z</time>
      </trkpt>
      <trkpt lat="48.82456" lon="2.41759">
        <ele>106.5</ele>
        <time>2015-06-08T20:40:17.719Z</time>
      </trkpt>
      <trkpt lat="48.82457" lon="2.41751">
        <ele>106.5</ele>
        <time>2015-06-08T20:40:18.617Z</time>
      </trkpt>
      <trkpt lat="48.82458" lon="2.41743">
        <ele>106.9</ele>
        <time>2015-06-08T20:40:19.682Z</time>
      </trkpt>
      <trkpt lat="48.8246" lon="2.41736">
        <ele>107</ele>
        <time>2015-06-08T20:40:20.682Z</time>
      </trkpt>
      <trkpt lat="48.82461" lon="2.41729">
        <ele>107.1</ele>
        <time>2015-06-08T20:40:21.699Z</time>
      </trkpt>
      <trkpt lat="48.82462" lon="2.41721">
        <ele>107.2</ele>
        <time>2015-06-08T20:40:22.713Z</time>
      </trkpt>
      <trkpt lat="48.82464" lon="2.41714">
        <ele>106.8</ele>
        <time>2015-06-08T20:40:23.630Z</time>
      </trkpt>
      <trkpt lat="48.82465" lon="2.41707">
        <ele>106.5</ele>
        <time>2015-06-08T20:40:24.652Z</time>
      </trkpt>
      <trkpt lat="48.82466" lon="2.417">
        <ele>106.2</ele>
        <time>2015-06-08T20:40:25.674Z</time>
      </trkpt>
      <trkpt lat="48.82466" lon="2.41692">
        <ele>106.1</ele>
        <time>2015-06-08T20:40:26.683Z</time>
      </trkpt>
      <trkpt lat="48.82468" lon="2.41685">
        <ele>105.1</ele>
        <time>2015-06-08T20:40:27.741Z</time>
      </trkpt>
      <trkpt lat="48.8247" lon="2.41679">
        <ele>104.8</ele>
        <time>2015-06-08T20:40:28.642Z</time>
      </trkpt>
      <trkpt lat="48.82471" lon="2.41672">
        <ele>104.6</ele>
        <time>2015-06-08T20:40:29.635Z</time>
      </trkpt>
      <trkpt lat="48.82472" lon="2.41665">
        <ele>104.4</ele>
        <time>2015-06-08T20:40:30.644Z</time>
      </trkpt>
      <trkpt lat="48.82473" lon="2.41652">
        <ele>104.1</ele>
        <time>2015-06-08T20:40:32.815Z</time>
      </trkpt>
      <trkpt lat="48.82473" lon="2.41646">
        <ele>104.2</ele>
        <time>2015-06-08T20:40:33.663Z</time>
      </trkpt>
      <trkpt lat="48.82473" lon="2.41639">
        <ele>104.4</ele>
        <time>2015-06-08T20:40:34.773Z</time>
      </trkpt>
      <trkpt lat="48.82474" lon="2.41632">
        <ele>104.4</ele>
        <time>2015-06-08T20:40:35.636Z</time>
      </trkpt>
      <trkpt lat="48.82474" lon="2.41624">
        <ele>104.5</ele>
        <time>2015-06-08T20:40:36.644Z</time>
      </trkpt>
      <trkpt lat="48.82474" lon="2.41616">
        <ele>104.5</ele>
        <time>2015-06-08T20:40:37.655Z</time>
      </trkpt>
      <trkpt lat="48.82474" lon="2.41608">
        <ele>104.5</ele>
        <time>2015-06-08T20:40:38.692Z</time>
      </trkpt>
      <trkpt lat="48.82475" lon="2.41601">
        <ele>104.6</ele>
        <time>2015-06-08T20:40:39.683Z</time>
      </trkpt>
      <trkpt lat="48.82476" lon="2.41593">
        <ele>105.1</ele>
        <time>2015-06-08T20:40:40.638Z</time>
      </trkpt>
      <trkpt lat="48.82476" lon="2.41585">
        <ele>105.1</ele>
        <time>2015-06-08T20:40:41.639Z</time>
      </trkpt>
      <trkpt lat="48.82476" lon="2.41576">
        <ele>105.4</ele>
        <time>2015-06-08T20:40:42.662Z</time>
      </trkpt>
      <trkpt lat="48.82477" lon="2.41568">
        <ele>105.4</ele>
        <time>2015-06-08T20:40:43.748Z</time>
      </trkpt>
      <trkpt lat="48.82477" lon="2.41561">
        <ele>105.5</ele>
        <time>2015-06-08T20:40:44.772Z</time>
      </trkpt>
      <trkpt lat="48.82477" lon="2.41553">
        <ele>105.4</ele>
        <time>2015-06-08T20:40:45.639Z</time>
      </trkpt>
      <trkpt lat="48.82478" lon="2.41545">
        <ele>105.2</ele>
        <time>2015-06-08T20:40:46.646Z</time>
      </trkpt>
      <trkpt lat="48.82478" lon="2.41536">
        <ele>105.3</ele>
        <time>2015-06-08T20:40:47.654Z</time>
      </trkpt>
      <trkpt lat="48.82478" lon="2.41528">
        <ele>105.7</ele>
        <time>2015-06-08T20:40:48.699Z</time>
      </trkpt>
      <trkpt lat="48.82478" lon="2.41521">
        <ele>105.8</ele>
        <time>2015-06-08T20:40:49.621Z</time>
      </trkpt>
      <trkpt lat="48.82477" lon="2.41512">
        <ele>105.9</ele>
        <time>2015-06-08T20:40:50.688Z</time>
      </trkpt>
      <trkpt lat="48.82477" lon="2.41505">
        <ele>106.2</ele>
        <time>2015-06-08T20:40:51.700Z</time>
      </trkpt>
      <trkpt lat="48.82477" lon="2.41497">
        <ele>106.5</ele>
        <time>2015-06-08T20:40:52.629Z</time>
      </trkpt>
      <trkpt lat="48.82476" lon="2.41491">
        <ele>106.7</ele>
        <time>2015-06-08T20:40:53.653Z</time>
      </trkpt>
      <trkpt lat="48.82475" lon="2.41483">
        <ele>106.9</ele>
        <time>2015-06-08T20:40:54.666Z</time>
      </trkpt>
      <trkpt lat="48.82475" lon="2.41476">
        <ele>107</ele>
        <time>2015-06-08T20:40:55.671Z</time>
      </trkpt>
      <trkpt lat="48.82474" lon="2.41469">
        <ele>106.8</ele>
        <time>2015-06-08T20:40:56.676Z</time>
      </trkpt>
      <trkpt lat="48.82474" lon="2.41462">
        <ele>106.7</ele>
        <time>2015-06-08T20:40:57.683Z</time>
      </trkpt>
      <trkpt lat="48.82474" lon="2.41455">
        <ele>106.5</ele>
        <time>2015-06-08T20:40:58.701Z</time>
      </trkpt>
      <trkpt lat="48.82474" lon="2.41448">
        <ele>106.4</ele>
        <time>2015-06-08T20:40:59.708Z</time>
      </trkpt>
      <trkpt lat="48.82473" lon="2.41441">
        <ele>106.4</ele>
        <time>2015-06-08T20:41:00.724Z</time>
      </trkpt>
      <trkpt lat="48.82473" lon="2.41433">
        <ele>106.5</ele>
        <time>2015-06-08T20:41:01.726Z</time>
      </trkpt>
      <trkpt lat="48.82472" lon="2.41426">
        <ele>106.6</ele>
        <time>2015-06-08T20:41:02.729Z</time>
      </trkpt>
      <trkpt lat="48.82472" lon="2.41419">
        <ele>107</ele>
        <time>2015-06-08T20:41:03.600Z</time>
      </trkpt>
      <trkpt lat="48.82472" lon="2.41412">
        <ele>106.8</ele>
        <time>2015-06-08T20:41:04.622Z</time>
      </trkpt>
      <trkpt lat="48.82472" lon="2.41404">
        <ele>106.8</ele>
        <time>2015-06-08T20:41:05.622Z</time>
      </trkpt>
      <trkpt lat="48.82471" lon="2.41397">
        <ele>106.9</ele>
        <time>2015-06-08T20:41:06.627Z</time>
      </trkpt>
      <trkpt lat="48.82471" lon="2.41389">
        <ele>107</ele>
        <time>2015-06-08T20:41:07.640Z</time>
      </trkpt>
      <trkpt lat="48.82471" lon="2.41382">
        <ele>107</ele>
        <time>2015-06-08T20:41:08.679Z</time>
      </trkpt>
      <trkpt lat="48.8247" lon="2.41374">
        <ele>107.1</ele>
        <time>2015-06-08T20:41:09.700Z</time>
      </trkpt>
      <trkpt lat="48.82469" lon="2.41366">
        <ele>107.2</ele>
        <time>2015-06-08T20:41:10.644Z</time>
      </trkpt>
      <trkpt lat="48.82468" lon="2.41358">
        <ele>107.5</ele>
        <time>2015-06-08T20:41:11.638Z</time>
      </trkpt>
      <trkpt lat="48.82467" lon="2.4135">
        <ele>107.9</ele>
        <time>2015-06-08T20:41:12.653Z</time>
      </trkpt>
      <trkpt lat="48.82466" lon="2.41342">
        <ele>108</ele>
        <time>2015-06-08T20:41:13.661Z</time>
      </trkpt>
      <trkpt lat="48.82465" lon="2.41333">
        <ele>108</ele>
        <time>2015-06-08T20:41:14.688Z</time>
      </trkpt>
      <trkpt lat="48.82463" lon="2.41325">
        <ele>109</ele>
        <time>2015-06-08T20:41:15.695Z</time>
      </trkpt>
      <trkpt lat="48.82461" lon="2.41316">
        <ele>109.7</ele>
        <time>2015-06-08T20:41:16.635Z</time>
      </trkpt>
      <trkpt lat="48.8246" lon="2.41308">
        <ele>109.7</ele>
        <time>2015-06-08T20:41:17.615Z</time>
      </trkpt>
      <trkpt lat="48.8246" lon="2.41299">
        <ele>109.4</ele>
        <time>2015-06-08T20:41:18.633Z</time>
      </trkpt>
      <trkpt lat="48.8246" lon="2.41291">
        <ele>109.4</ele>
        <time>2015-06-08T20:41:19.642Z</time>
      </trkpt>
      <trkpt lat="48.8246" lon="2.41282">
        <ele>109.2</ele>
        <time>2015-06-08T20:41:20.680Z</time>
      </trkpt>
      <trkpt lat="48.82462" lon="2.41273">
        <ele>109.6</ele>
        <time>2015-06-08T20:41:21.682Z</time>
      </trkpt>
      <trkpt lat="48.82464" lon="2.41264">
        <ele>110.1</ele>
        <time>2015-06-08T20:41:22.596Z</time>
      </trkpt>
      <trkpt lat="48.82465" lon="2.41256">
        <ele>110.1</ele>
        <time>2015-06-08T20:41:23.625Z</time>
      </trkpt>
      <trkpt lat="48.82466" lon="2.41246">
        <ele>109.4</ele>
        <time>2015-06-08T20:41:24.639Z</time>
      </trkpt>
      <trkpt lat="48.82467" lon="2.41235">
        <ele>109.7</ele>
        <time>2015-06-08T20:41:25.666Z</time>
      </trkpt>
      <trkpt lat="48.82468" lon="2.41226">
        <ele>109.7</ele>
        <time>2015-06-08T20:41:26.678Z</time>
      </trkpt>
      <trkpt lat="48.82469" lon="2.41217">
        <ele>109.7</ele>
        <time>2015-06-08T20:41:27.681Z</time>
      </trkpt>
      <trkpt lat="48.8247" lon="2.41207">
        <ele>109.5</ele>
        <time>2015-06-08T20:41:28.690Z</time>
      </trkpt>
      <trkpt lat="48.8247" lon="2.41198">
        <ele>109.6</ele>
        <time>2015-06-08T20:41:29.695Z</time>
      </trkpt>
      <trkpt lat="48.82471" lon="2.41189">
        <ele>109.2</ele>
        <time>2015-06-08T20:41:30.716Z</time>
      </trkpt>
      <trkpt lat="48.82471" lon="2.41179">
        <ele>109.3</ele>
        <time>2015-06-08T20:41:31.627Z</time>
      </trkpt>
      <trkpt lat="48.82471" lon="2.41168">
        <ele>109.4</ele>
        <time>2015-06-08T20:41:32.694Z</time>
      </trkpt>
      <trkpt lat="48.82471" lon="2.41157">
        <ele>109.7</ele>
        <time>2015-06-08T20:41:33.703Z</time>
      </trkpt>
      <trkpt lat="48.82473" lon="2.41147">
        <ele>109.8</ele>
        <time>2015-06-08T20:41:34.628Z</time>
      </trkpt>
      <trkpt lat="48.82475" lon="2.41138">
        <ele>109.9</ele>
        <time>2015-06-08T20:41:35.624Z</time>
      </trkpt>
      <trkpt lat="48.82477" lon="2.41129">
        <ele>109.8</ele>
        <time>2015-06-08T20:41:36.632Z</time>
      </trkpt>
      <trkpt lat="48.82479" lon="2.4112">
        <ele>109.5</ele>
        <time>2015-06-08T20:41:37.638Z</time>
      </trkpt>
      <trkpt lat="48.8248" lon="2.4111">
        <ele>109.4</ele>
        <time>2015-06-08T20:41:38.675Z</time>
      </trkpt>
      <trkpt lat="48.82482" lon="2.41101">
        <ele>109</ele>
        <time>2015-06-08T20:41:39.682Z</time>
      </trkpt>
      <trkpt lat="48.82486" lon="2.41092">
        <ele>107.7</ele>
        <time>2015-06-08T20:41:40.623Z</time>
      </trkpt>
      <trkpt lat="48.8249" lon="2.41083">
        <ele>107.1</ele>
        <time>2015-06-08T20:41:41.630Z</time>
      </trkpt>
      <trkpt lat="48.82492" lon="2.41073">
        <ele>107.4</ele>
        <time>2015-06-08T20:41:42.633Z</time>
      </trkpt>
      <trkpt lat="48.82494" lon="2.41064">
        <ele>107.4</ele>
        <time>2015-06-08T20:41:43.646Z</time>
      </trkpt>
      <trkpt lat="48.82496" lon="2.41054">
        <ele>107.7</ele>
        <time>2015-06-08T20:41:44.693Z</time>
      </trkpt>
      <trkpt lat="48.82498" lon="2.41045">
        <ele>107.3</ele>
        <time>2015-06-08T20:41:45.684Z</time>
      </trkpt>
      <trkpt lat="48.82501" lon="2.41036">
        <ele>107.6</ele>
        <time>2015-06-08T20:41:46.695Z</time>
      </trkpt>
      <trkpt lat="48.82504" lon="2.41028">
        <ele>107.8</ele>
        <time>2015-06-08T20:41:47.701Z</time>
      </trkpt>
      <trkpt lat="48.82508" lon="2.4102">
        <ele>107.5</ele>
        <time>2015-06-08T20:41:48.714Z</time>
      </trkpt>
      <trkpt lat="48.82511" lon="2.41011">
        <ele>107.4</ele>
        <time>2015-06-08T20:41:49.633Z</time>
      </trkpt>
      <trkpt lat="48.82513" lon="2.41">
        <ele>107.4</ele>
        <time>2015-06-08T20:41:50.734Z</time>
      </trkpt>
      <trkpt lat="48.82518" lon="2.40992">
        <ele>106.1</ele>
        <time>2015-06-08T20:41:51.642Z</time>
      </trkpt>
      <trkpt lat="48.82522" lon="2.40983">
        <ele>105.9</ele>
        <time>2015-06-08T20:41:52.646Z</time>
      </trkpt>
      <trkpt lat="48.82524" lon="2.40974">
        <ele>106.2</ele>
        <time>2015-06-08T20:41:53.646Z</time>
      </trkpt>
      <trkpt lat="48.82527" lon="2.40965">
        <ele>105.8</ele>
        <time>2015-06-08T20:41:54.667Z</time>
      </trkpt>
      <trkpt lat="48.82532" lon="2.40957">
        <ele>106.2</ele>
        <time>2015-06-08T20:41:55.681Z</time>
      </trkpt>
      <trkpt lat="48.82535" lon="2.40949">
        <ele>106.7</ele>
        <time>2015-06-08T20:41:56.712Z</time>
      </trkpt>
      <trkpt lat="48.82538" lon="2.40941">
        <ele>106.9</ele>
        <time>2015-06-08T20:41:57.717Z</time>
      </trkpt>
      <trkpt lat="48.82541" lon="2.40932">
        <ele>107.2</ele>
        <time>2015-06-08T20:41:58.630Z</time>
      </trkpt>
      <trkpt lat="48.82545" lon="2.40924">
        <ele>107.4</ele>
        <time>2015-06-08T20:41:59.652Z</time>
      </trkpt>
      <trkpt lat="48.82548" lon="2.40916">
        <ele>107.7</ele>
        <time>2015-06-08T20:42:00.666Z</time>
      </trkpt>
      <trkpt lat="48.82552" lon="2.40907">
        <ele>107.9</ele>
        <time>2015-06-08T20:42:01.672Z</time>
      </trkpt>
      <trkpt lat="48.82556" lon="2.409">
        <ele>107.3</ele>
        <time>2015-06-08T20:42:02.691Z</time>
      </trkpt>
      <trkpt lat="48.82561" lon="2.40892">
        <ele>107.4</ele>
        <time>2015-06-08T20:42:03.699Z</time>
      </trkpt>
      <trkpt lat="48.82565" lon="2.40884">
        <ele>107.2</ele>
        <time>2015-06-08T20:42:04.713Z</time>
      </trkpt>
      <trkpt lat="48.8257" lon="2.40877">
        <ele>107</ele>
        <time>2015-06-08T20:42:05.629Z</time>
      </trkpt>
      <trkpt lat="48.82574" lon="2.40869">
        <ele>107.2</ele>
        <time>2015-06-08T20:42:06.628Z</time>
      </trkpt>
      <trkpt lat="48.82579" lon="2.40862">
        <ele>107.1</ele>
        <time>2015-06-08T20:42:07.640Z</time>
      </trkpt>
      <trkpt lat="48.82583" lon="2.40854">
        <ele>106.8</ele>
        <time>2015-06-08T20:42:08.674Z</time>
      </trkpt>
      <trkpt lat="48.82588" lon="2.40846">
        <ele>106.9</ele>
        <time>2015-06-08T20:42:09.678Z</time>
      </trkpt>
      <trkpt lat="48.82593" lon="2.40838">
        <ele>106.8</ele>
        <time>2015-06-08T20:42:10.693Z</time>
      </trkpt>
      <trkpt lat="48.82597" lon="2.4083">
        <ele>106.6</ele>
        <time>2015-06-08T20:42:11.697Z</time>
      </trkpt>
      <trkpt lat="48.82602" lon="2.40823">
        <ele>106.2</ele>
        <time>2015-06-08T20:42:12.708Z</time>
      </trkpt>
      <trkpt lat="48.82606" lon="2.40814">
        <ele>106.2</ele>
        <time>2015-06-08T20:42:13.630Z</time>
      </trkpt>
      <trkpt lat="48.8261" lon="2.40807">
        <ele>106.2</ele>
        <time>2015-06-08T20:42:14.646Z</time>
      </trkpt>
      <trkpt lat="48.82614" lon="2.408">
        <ele>106.6</ele>
        <time>2015-06-08T20:42:15.657Z</time>
      </trkpt>
      <trkpt lat="48.82619" lon="2.40793">
        <ele>106.8</ele>
        <time>2015-06-08T20:42:16.657Z</time>
      </trkpt>
      <trkpt lat="48.82623" lon="2.40786">
        <ele>107</ele>
        <time>2015-06-08T20:42:17.660Z</time>
      </trkpt>
      <trkpt lat="48.82627" lon="2.40779">
        <ele>107.4</ele>
        <time>2015-06-08T20:42:18.689Z</time>
      </trkpt>
      <trkpt lat="48.82632" lon="2.40773">
        <ele>107.8</ele>
        <time>2015-06-08T20:42:19.701Z</time>
      </trkpt>
      <trkpt lat="48.82636" lon="2.40766">
        <ele>107.8</ele>
        <time>2015-06-08T20:42:20.705Z</time>
      </trkpt>
      <trkpt lat="48.82641" lon="2.40759">
        <ele>107.8</ele>
        <time>2015-06-08T20:42:21.708Z</time>
      </trkpt>
      <trkpt lat="48.82645" lon="2.40751">
        <ele>108.3</ele>
        <time>2015-06-08T20:42:22.632Z</time>
      </trkpt>
      <trkpt lat="48.8265" lon="2.40744">
        <ele>108.8</ele>
        <time>2015-06-08T20:42:23.639Z</time>
      </trkpt>
      <trkpt lat="48.82655" lon="2.40737">
        <ele>109.1</ele>
        <time>2015-06-08T20:42:24.643Z</time>
      </trkpt>
      <trkpt lat="48.8266" lon="2.4073">
        <ele>109</ele>
        <time>2015-06-08T20:42:25.647Z</time>
      </trkpt>
      <trkpt lat="48.82665" lon="2.40724">
        <ele>109.5</ele>
        <time>2015-06-08T20:42:26.750Z</time>
      </trkpt>
      <trkpt lat="48.8267" lon="2.40717">
        <ele>109.6</ele>
        <time>2015-06-08T20:42:27.687Z</time>
      </trkpt>
      <trkpt lat="48.82676" lon="2.4071">
        <ele>109.3</ele>
        <time>2015-06-08T20:42:28.723Z</time>
      </trkpt>
      <trkpt lat="48.82681" lon="2.40703">
        <ele>108.8</ele>
        <time>2015-06-08T20:42:29.628Z</time>
      </trkpt>
      <trkpt lat="48.82686" lon="2.40697">
        <ele>107.9</ele>
        <time>2015-06-08T20:42:30.654Z</time>
      </trkpt>
      <trkpt lat="48.82691" lon="2.40689">
        <ele>107.3</ele>
        <time>2015-06-08T20:42:31.659Z</time>
      </trkpt>
      <trkpt lat="48.82696" lon="2.40682">
        <ele>107</ele>
        <time>2015-06-08T20:42:32.712Z</time>
      </trkpt>
      <trkpt lat="48.827" lon="2.40676">
        <ele>107</ele>
        <time>2015-06-08T20:42:33.713Z</time>
      </trkpt>
      <trkpt lat="48.82705" lon="2.40669">
        <ele>107.1</ele>
        <time>2015-06-08T20:42:34.629Z</time>
      </trkpt>
      <trkpt lat="48.8271" lon="2.40663">
        <ele>106.9</ele>
        <time>2015-06-08T20:42:35.631Z</time>
      </trkpt>
      <trkpt lat="48.82715" lon="2.40658">
        <ele>107</ele>
        <time>2015-06-08T20:42:36.636Z</time>
      </trkpt>
      <trkpt lat="48.82721" lon="2.40652">
        <ele>106.8</ele>
        <time>2015-06-08T20:42:37.655Z</time>
      </trkpt>
      <trkpt lat="48.82726" lon="2.40646">
        <ele>106.9</ele>
        <time>2015-06-08T20:42:38.677Z</time>
      </trkpt>
      <trkpt lat="48.82731" lon="2.40641">
        <ele>106.5</ele>
        <time>2015-06-08T20:42:39.678Z</time>
      </trkpt>
      <trkpt lat="48.82736" lon="2.40635">
        <ele>106.1</ele>
        <time>2015-06-08T20:42:40.687Z</time>
      </trkpt>
      <trkpt lat="48.82741" lon="2.40629">
        <ele>106</ele>
        <time>2015-06-08T20:42:41.689Z</time>
      </trkpt>
      <trkpt lat="48.82746" lon="2.40623">
        <ele>105.5</ele>
        <time>2015-06-08T20:42:42.704Z</time>
      </trkpt>
      <trkpt lat="48.82751" lon="2.40617">
        <ele>105.3</ele>
        <time>2015-06-08T20:42:43.629Z</time>
      </trkpt>
      <trkpt lat="48.82756" lon="2.40611">
        <ele>105.4</ele>
        <time>2015-06-08T20:42:44.645Z</time>
      </trkpt>
      <trkpt lat="48.8276" lon="2.40606">
        <ele>105.1</ele>
        <time>2015-06-08T20:42:45.658Z</time>
      </trkpt>
      <trkpt lat="48.82765" lon="2.406">
        <ele>104.9</ele>
        <time>2015-06-08T20:42:46.674Z</time>
      </trkpt>
      <trkpt lat="48.8277" lon="2.40595">
        <ele>104.6</ele>
        <time>2015-06-08T20:42:47.684Z</time>
      </trkpt>
      <trkpt lat="48.82775" lon="2.40588">
        <ele>104.6</ele>
        <time>2015-06-08T20:42:48.694Z</time>
      </trkpt>
      <trkpt lat="48.8278" lon="2.40582">
        <ele>104.6</ele>
        <time>2015-06-08T20:42:49.709Z</time>
      </trkpt>
      <trkpt lat="48.82785" lon="2.40576">
        <ele>104.7</ele>
        <time>2015-06-08T20:42:50.721Z</time>
      </trkpt>
      <trkpt lat="48.8279" lon="2.40569">
        <ele>104.7</ele>
        <time>2015-06-08T20:42:51.625Z</time>
      </trkpt>
      <trkpt lat="48.82795" lon="2.40562">
        <ele>104.5</ele>
        <time>2015-06-08T20:42:52.632Z</time>
      </trkpt>
      <trkpt lat="48.82799" lon="2.40556">
        <ele>104.8</ele>
        <time>2015-06-08T20:42:53.638Z</time>
      </trkpt>
      <trkpt lat="48.82804" lon="2.40549">
        <ele>104.4</ele>
        <time>2015-06-08T20:42:54.645Z</time>
      </trkpt>
      <trkpt lat="48.82808" lon="2.40542">
        <ele>104.4</ele>
        <time>2015-06-08T20:42:55.654Z</time>
      </trkpt>
      <trkpt lat="48.82813" lon="2.40536">
        <ele>104.6</ele>
        <time>2015-06-08T20:42:56.675Z</time>
      </trkpt>
      <trkpt lat="48.82817" lon="2.40529">
        <ele>104.8</ele>
        <time>2015-06-08T20:42:57.676Z</time>
      </trkpt>
      <trkpt lat="48.82821" lon="2.40522">
        <ele>105.2</ele>
        <time>2015-06-08T20:42:58.694Z</time>
      </trkpt>
      <trkpt lat="48.82825" lon="2.40515">
        <ele>105.6</ele>
        <time>2015-06-08T20:42:59.627Z</time>
      </trkpt>
      <trkpt lat="48.8283" lon="2.40508">
        <ele>105.9</ele>
        <time>2015-06-08T20:43:00.645Z</time>
      </trkpt>
      <trkpt lat="48.82836" lon="2.40501">
        <ele>106.1</ele>
        <time>2015-06-08T20:43:01.653Z</time>
      </trkpt>
      <trkpt lat="48.82841" lon="2.40495">
        <ele>106.2</ele>
        <time>2015-06-08T20:43:02.694Z</time>
      </trkpt>
      <trkpt lat="48.82846" lon="2.40488">
        <ele>106.8</ele>
        <time>2015-06-08T20:43:03.697Z</time>
      </trkpt>
      <trkpt lat="48.8285" lon="2.40481">
        <ele>107.4</ele>
        <time>2015-06-08T20:43:04.710Z</time>
      </trkpt>
      <trkpt lat="48.82853" lon="2.40474">
        <ele>107.7</ele>
        <time>2015-06-08T20:43:05.648Z</time>
      </trkpt>
      <trkpt lat="48.82857" lon="2.40468">
        <ele>107.5</ele>
        <time>2015-06-08T20:43:06.635Z</time>
      </trkpt>
      <trkpt lat="48.8286" lon="2.40462">
        <ele>107.4</ele>
        <time>2015-06-08T20:43:07.632Z</time>
      </trkpt>
      <trkpt lat="48.82863" lon="2.40456">
        <ele>107.5</ele>
        <time>2015-06-08T20:43:08.676Z</time>
      </trkpt>
      <trkpt lat="48.82866" lon="2.4045">
        <ele>107.6</ele>
        <time>2015-06-08T20:43:09.672Z</time>
      </trkpt>
      <trkpt lat="48.82868" lon="2.40444">
        <ele>107.5</ele>
        <time>2015-06-08T20:43:10.684Z</time>
      </trkpt>
      <trkpt lat="48.8287" lon="2.40438">
        <ele>107.5</ele>
        <time>2015-06-08T20:43:11.688Z</time>
      </trkpt>
      <trkpt lat="48.82873" lon="2.40431">
        <ele>107.5</ele>
        <time>2015-06-08T20:43:12.704Z</time>
      </trkpt>
      <trkpt lat="48.82877" lon="2.40425">
        <ele>107.6</ele>
        <time>2015-06-08T20:43:13.627Z</time>
      </trkpt>
      <trkpt lat="48.82881" lon="2.40419">
        <ele>107.9</ele>
        <time>2015-06-08T20:43:14.678Z</time>
      </trkpt>
      <trkpt lat="48.82884" lon="2.40414">
        <ele>107.7</ele>
        <time>2015-06-08T20:43:15.684Z</time>
      </trkpt>
      <trkpt lat="48.82888" lon="2.40408">
        <ele>107.7</ele>
        <time>2015-06-08T20:43:16.694Z</time>
      </trkpt>
      <trkpt lat="48.82892" lon="2.40402">
        <ele>107.3</ele>
        <time>2015-06-08T20:43:17.738Z</time>
      </trkpt>
      <trkpt lat="48.82896" lon="2.40398">
        <ele>106.7</ele>
        <time>2015-06-08T20:43:18.628Z</time>
      </trkpt>
      <trkpt lat="48.82901" lon="2.40393">
        <ele>106.2</ele>
        <time>2015-06-08T20:43:19.626Z</time>
      </trkpt>
      <trkpt lat="48.82904" lon="2.40389">
        <ele>105.8</ele>
        <time>2015-06-08T20:43:20.671Z</time>
      </trkpt>
      <trkpt lat="48.82908" lon="2.40384">
        <ele>105.7</ele>
        <time>2015-06-08T20:43:21.659Z</time>
      </trkpt>
      <trkpt lat="48.82915" lon="2.40377">
        <ele>105</ele>
        <time>2015-06-08T20:43:23.677Z</time>
      </trkpt>
      <trkpt lat="48.82918" lon="2.40372">
        <ele>104.9</ele>
        <time>2015-06-08T20:43:24.683Z</time>
      </trkpt>
      <trkpt lat="48.82924" lon="2.40364">
        <ele>104.7</ele>
        <time>2015-06-08T20:43:26.687Z</time>
      </trkpt>
      <trkpt lat="48.82926" lon="2.4036">
        <ele>104.5</ele>
        <time>2015-06-08T20:43:27.713Z</time>
      </trkpt>
      <trkpt lat="48.82929" lon="2.4035">
        <ele>104.1</ele>
        <time>2015-06-08T20:43:29.662Z</time>
      </trkpt>
      <trkpt lat="48.82929" lon="2.40346">
        <ele>104</ele>
        <time>2015-06-08T20:43:30.683Z</time>
      </trkpt>
      <trkpt lat="48.8293" lon="2.40334">
        <ele>103.8</ele>
        <time>2015-06-08T20:43:32.697Z</time>
      </trkpt>
      <trkpt lat="48.82931" lon="2.40329">
        <ele>103.7</ele>
        <time>2015-06-08T20:43:33.643Z</time>
      </trkpt>
      <trkpt lat="48.82931" lon="2.40318">
        <ele>103.4</ele>
        <time>2015-06-08T20:43:35.671Z</time>
      </trkpt>
      <trkpt lat="48.82932" lon="2.40314">
        <ele>103.4</ele>
        <time>2015-06-08T20:43:36.613Z</time>
      </trkpt>
      <trkpt lat="48.82935" lon="2.40304">
        <ele>103.1</ele>
        <time>2015-06-08T20:43:38.726Z</time>
      </trkpt>
      <trkpt lat="48.82937" lon="2.40299">
        <ele>102.8</ele>
        <time>2015-06-08T20:43:39.735Z</time>
      </trkpt>
      <trkpt lat="48.82941" lon="2.4029">
        <ele>102.5</ele>
        <time>2015-06-08T20:43:41.701Z</time>
      </trkpt>
      <trkpt lat="48.82943" lon="2.40285">
        <ele>102.4</ele>
        <time>2015-06-08T20:43:42.709Z</time>
      </trkpt>
      <trkpt lat="48.82947" lon="2.40274">
        <ele>102.5</ele>
        <time>2015-06-08T20:43:44.702Z</time>
      </trkpt>
      <trkpt lat="48.82949" lon="2.40269">
        <ele>102.9</ele>
        <time>2015-06-08T20:43:45.722Z</time>
      </trkpt>
      <trkpt lat="48.82954" lon="2.40259">
        <ele>102.6</ele>
        <time>2015-06-08T20:43:48.217Z</time>
      </trkpt>
      <trkpt lat="48.82956" lon="2.40253">
        <ele>102.8</ele>
        <time>2015-06-08T20:43:48.681Z</time>
      </trkpt>
      <trkpt lat="48.82956" lon="2.40246">
        <ele>103</ele>
        <time>2015-06-08T20:43:49.679Z</time>
      </trkpt>
      <trkpt lat="48.82957" lon="2.40239">
        <ele>102.9</ele>
        <time>2015-06-08T20:43:50.700Z</time>
      </trkpt>
      <trkpt lat="48.82959" lon="2.40232">
        <ele>103.1</ele>
        <time>2015-06-08T20:43:51.555Z</time>
      </trkpt>
      <trkpt lat="48.8296" lon="2.40225">
        <ele>103.4</ele>
        <time>2015-06-08T20:43:52.717Z</time>
      </trkpt>
      <trkpt lat="48.82962" lon="2.40218">
        <ele>103.5</ele>
        <time>2015-06-08T20:43:53.662Z</time>
      </trkpt>
      <trkpt lat="48.82963" lon="2.40211">
        <ele>103.5</ele>
        <time>2015-06-08T20:43:54.636Z</time>
      </trkpt>
      <trkpt lat="48.82964" lon="2.40204">
        <ele>103.6</ele>
        <time>2015-06-08T20:43:55.646Z</time>
      </trkpt>
      <trkpt lat="48.82965" lon="2.40197">
        <ele>103.6</ele>
        <time>2015-06-08T20:43:56.715Z</time>
      </trkpt>
      <trkpt lat="48.82967" lon="2.40189">
        <ele>103.7</ele>
        <time>2015-06-08T20:43:57.712Z</time>
      </trkpt>
      <trkpt lat="48.82969" lon="2.40182">
        <ele>103.4</ele>
        <time>2015-06-08T20:43:58.719Z</time>
      </trkpt>
      <trkpt lat="48.82972" lon="2.40175">
        <ele>103.3</ele>
        <time>2015-06-08T20:43:59.608Z</time>
      </trkpt>
      <trkpt lat="48.82974" lon="2.40169">
        <ele>103.3</ele>
        <time>2015-06-08T20:44:00.638Z</time>
      </trkpt>
      <trkpt lat="48.82975" lon="2.40156">
        <ele>103.7</ele>
        <time>2015-06-08T20:44:02.729Z</time>
      </trkpt>
      <trkpt lat="48.82976" lon="2.40149">
        <ele>103.9</ele>
        <time>2015-06-08T20:44:03.634Z</time>
      </trkpt>
      <trkpt lat="48.82979" lon="2.40138">
        <ele>103.8</ele>
        <time>2015-06-08T20:44:05.653Z</time>
      </trkpt>
      <trkpt lat="48.82981" lon="2.40134">
        <ele>103.5</ele>
        <time>2015-06-08T20:44:06.658Z</time>
      </trkpt>
      <trkpt lat="48.82982" lon="2.40124">
        <ele>103.2</ele>
        <time>2015-06-08T20:44:08.684Z</time>
      </trkpt>
      <trkpt lat="48.82982" lon="2.40118">
        <ele>103.1</ele>
        <time>2015-06-08T20:44:09.684Z</time>
      </trkpt>
      <trkpt lat="48.8298" lon="2.40105">
        <ele>103.3</ele>
        <time>2015-06-08T20:44:14.722Z</time>
      </trkpt>
      <trkpt lat="48.8298" lon="2.40103">
        <ele>103.6</ele>
        <time>2015-06-08T20:44:15.644Z</time>
      </trkpt>
      <trkpt lat="48.82979" lon="2.40092">
        <ele>103.5</ele>
        <time>2015-06-08T20:46:26.732Z</time>
      </trkpt>
      <trkpt lat="48.82981" lon="2.40088">
        <ele>103.5</ele>
        <time>2015-06-08T20:46:27.643Z</time>
      </trkpt>
      <trkpt lat="48.82984" lon="2.40081">
        <ele>103.1</ele>
        <time>2015-06-08T20:46:29.675Z</time>
      </trkpt>
      <trkpt lat="48.82986" lon="2.40077">
        <ele>103</ele>
        <time>2015-06-08T20:46:30.717Z</time>
      </trkpt>
      <trkpt lat="48.8299" lon="2.40069">
        <ele>103.1</ele>
        <time>2015-06-08T20:46:32.692Z</time>
      </trkpt>
      <trkpt lat="48.82991" lon="2.40065">
        <ele>103.2</ele>
        <time>2015-06-08T20:46:33.686Z</time>
      </trkpt>
      <trkpt lat="48.82996" lon="2.40057">
        <ele>102.5</ele>
        <time>2015-06-08T20:46:35.636Z</time>
      </trkpt>
      <trkpt lat="48.82999" lon="2.40053">
        <ele>102.6</ele>
        <time>2015-06-08T20:46:36.664Z</time>
      </trkpt>
      <trkpt lat="48.83003" lon="2.40046">
        <ele>102.4</ele>
        <time>2015-06-08T20:46:38.735Z</time>
      </trkpt>
      <trkpt lat="48.83005" lon="2.40042">
        <ele>102.1</ele>
        <time>2015-06-08T20:46:39.665Z</time>
      </trkpt>
      <trkpt lat="48.83011" lon="2.40034">
        <ele>102</ele>
        <time>2015-06-08T20:46:41.687Z</time>
      </trkpt>
      <trkpt lat="48.83013" lon="2.4003">
        <ele>102.1</ele>
        <time>2015-06-08T20:46:42.681Z</time>
      </trkpt>
      <trkpt lat="48.83018" lon="2.40022">
        <ele>101.9</ele>
        <time>2015-06-08T20:46:44.683Z</time>
      </trkpt>
      <trkpt lat="48.83021" lon="2.40017">
        <ele>101.7</ele>
        <time>2015-06-08T20:46:45.704Z</time>
      </trkpt>
      <trkpt lat="48.83026" lon="2.40009">
        <ele>101.8</ele>
        <time>2015-06-08T20:46:47.716Z</time>
      </trkpt>
      <trkpt lat="48.83029" lon="2.40004">
        <ele>102.1</ele>
        <time>2015-06-08T20:46:48.729Z</time>
      </trkpt>
      <trkpt lat="48.83034" lon="2.39996">
        <ele>102.5</ele>
        <time>2015-06-08T20:46:50.673Z</time>
      </trkpt>
      <trkpt lat="48.83037" lon="2.39991">
        <ele>102.8</ele>
        <time>2015-06-08T20:46:51.678Z</time>
      </trkpt>
      <trkpt lat="48.83044" lon="2.39983">
        <ele>103.1</ele>
        <time>2015-06-08T20:46:53.700Z</time>
      </trkpt>
      <trkpt lat="48.83048" lon="2.39979">
        <ele>102.6</ele>
        <time>2015-06-08T20:46:54.628Z</time>
      </trkpt>
      <trkpt lat="48.83052" lon="2.39975">
        <ele>102.4</ele>
        <time>2015-06-08T20:46:55.645Z</time>
      </trkpt>
      <trkpt lat="48.83056" lon="2.39971">
        <ele>102.4</ele>
        <time>2015-06-08T20:46:56.694Z</time>
      </trkpt>
      <trkpt lat="48.8306" lon="2.39966">
        <ele>102.5</ele>
        <time>2015-06-08T20:46:57.715Z</time>
      </trkpt>
      <trkpt lat="48.83063" lon="2.39961">
        <ele>102.6</ele>
        <time>2015-06-08T20:46:58.647Z</time>
      </trkpt>
      <trkpt lat="48.83069" lon="2.39952">
        <ele>102</ele>
        <time>2015-06-08T20:46:59.738Z</time>
      </trkpt>
      <trkpt lat="48.83072" lon="2.39948">
        <ele>101.7</ele>
        <time>2015-06-08T20:47:01.679Z</time>
      </trkpt>
      <trkpt lat="48.83079" lon="2.39939">
        <ele>101.9</ele>
        <time>2015-06-08T20:47:03.641Z</time>
      </trkpt>
      <trkpt lat="48.83082" lon="2.39934">
        <ele>101.8</ele>
        <time>2015-06-08T20:47:04.654Z</time>
      </trkpt>
      <trkpt lat="48.83085" lon="2.39928">
        <ele>101.9</ele>
        <time>2015-06-08T20:47:05.713Z</time>
      </trkpt>
      <trkpt lat="48.83089" lon="2.39922">
        <ele>101.7</ele>
        <time>2015-06-08T20:47:06.643Z</time>
      </trkpt>
      <trkpt lat="48.83092" lon="2.39917">
        <ele>101.6</ele>
        <time>2015-06-08T20:47:07.624Z</time>
      </trkpt>
      <trkpt lat="48.83096" lon="2.39913">
        <ele>101.4</ele>
        <time>2015-06-08T20:47:08.708Z</time>
      </trkpt>
      <trkpt lat="48.831" lon="2.39908">
        <ele>101.2</ele>
        <time>2015-06-08T20:47:09.823Z</time>
      </trkpt>
      <trkpt lat="48.83103" lon="2.39903">
        <ele>101.1</ele>
        <time>2015-06-08T20:47:10.629Z</time>
      </trkpt>
      <trkpt lat="48.83106" lon="2.39898">
        <ele>100.8</ele>
        <time>2015-06-08T20:47:11.637Z</time>
      </trkpt>
      <trkpt lat="48.8311" lon="2.39893">
        <ele>100.9</ele>
        <time>2015-06-08T20:47:12.652Z</time>
      </trkpt>
      <trkpt lat="48.83114" lon="2.39888">
        <ele>101.3</ele>
        <time>2015-06-08T20:47:13.674Z</time>
      </trkpt>
      <trkpt lat="48.83117" lon="2.39883">
        <ele>101.2</ele>
        <time>2015-06-08T20:47:14.727Z</time>
      </trkpt>
      <trkpt lat="48.8312" lon="2.39877">
        <ele>101.2</ele>
        <time>2015-06-08T20:47:15.619Z</time>
      </trkpt>
      <trkpt lat="48.83123" lon="2.39872">
        <ele>101</ele>
        <time>2015-06-08T20:47:16.641Z</time>
      </trkpt>
      <trkpt lat="48.83127" lon="2.39867">
        <ele>101</ele>
        <time>2015-06-08T20:47:17.666Z</time>
      </trkpt>
      <trkpt lat="48.8313" lon="2.39862">
        <ele>100.9</ele>
        <time>2015-06-08T20:47:18.681Z</time>
      </trkpt>
      <trkpt lat="48.83134" lon="2.39857">
        <ele>100.7</ele>
        <time>2015-06-08T20:47:19.688Z</time>
      </trkpt>
      <trkpt lat="48.83137" lon="2.39851">
        <ele>100.9</ele>
        <time>2015-06-08T20:47:20.730Z</time>
      </trkpt>
      <trkpt lat="48.83141" lon="2.39846">
        <ele>100.7</ele>
        <time>2015-06-08T20:47:21.644Z</time>
      </trkpt>
      <trkpt lat="48.83144" lon="2.3984">
        <ele>100.2</ele>
        <time>2015-06-08T20:47:22.643Z</time>
      </trkpt>
      <trkpt lat="48.83147" lon="2.39835">
        <ele>99.6</ele>
        <time>2015-06-08T20:47:23.656Z</time>
      </trkpt>
      <trkpt lat="48.83151" lon="2.39831">
        <ele>99.6</ele>
        <time>2015-06-08T20:47:24.671Z</time>
      </trkpt>
      <trkpt lat="48.83157" lon="2.39823">
        <ele>99.3</ele>
        <time>2015-06-08T20:47:26.699Z</time>
      </trkpt>
      <trkpt lat="48.83159" lon="2.39819">
        <ele>99.2</ele>
        <time>2015-06-08T20:47:27.703Z</time>
      </trkpt>
      <trkpt lat="48.83164" lon="2.39811">
        <ele>99.6</ele>
        <time>2015-06-08T20:47:29.648Z</time>
      </trkpt>
      <trkpt lat="48.83166" lon="2.39808">
        <ele>99.4</ele>
        <time>2015-06-08T20:47:30.695Z</time>
      </trkpt>
      <trkpt lat="48.83173" lon="2.39799">
        <ele>99.8</ele>
        <time>2015-06-08T20:47:46.623Z</time>
      </trkpt>
      <trkpt lat="48.83184" lon="2.39784">
        <ele>101.7</ele>
        <time>2015-06-08T20:47:47.652Z</time>
      </trkpt>
      <trkpt lat="48.83189" lon="2.39773">
        <ele>101.3</ele>
        <time>2015-06-08T20:47:51.627Z</time>
      </trkpt>
      <trkpt lat="48.83191" lon="2.3977">
        <ele>101.2</ele>
        <time>2015-06-08T20:47:52.646Z</time>
      </trkpt>
      <trkpt lat="48.83195" lon="2.39763">
        <ele>101.3</ele>
        <time>2015-06-08T20:47:54.691Z</time>
      </trkpt>
      <trkpt lat="48.83197" lon="2.39759">
        <ele>101.5</ele>
        <time>2015-06-08T20:47:55.709Z</time>
      </trkpt>
      <trkpt lat="48.83201" lon="2.39752">
        <ele>101.7</ele>
        <time>2015-06-08T20:47:57.655Z</time>
      </trkpt>
      <trkpt lat="48.83203" lon="2.39749">
        <ele>101.7</ele>
        <time>2015-06-08T20:47:58.678Z</time>
      </trkpt>
      <trkpt lat="48.83208" lon="2.39739">
        <ele>101.5</ele>
        <time>2015-06-08T20:48:01.664Z</time>
      </trkpt>
      <trkpt lat="48.83209" lon="2.39736">
        <ele>101.5</ele>
        <time>2015-06-08T20:48:02.721Z</time>
      </trkpt>
      <trkpt lat="48.83213" lon="2.39728">
        <ele>101.7</ele>
        <time>2015-06-08T20:48:04.650Z</time>
      </trkpt>
      <trkpt lat="48.83215" lon="2.39725">
        <ele>101.8</ele>
        <time>2015-06-08T20:48:05.675Z</time>
      </trkpt>
      <trkpt lat="48.83218" lon="2.39716">
        <ele>102</ele>
        <time>2015-06-08T20:48:07.714Z</time>
      </trkpt>
      <trkpt lat="48.83221" lon="2.39713">
        <ele>102.2</ele>
        <time>2015-06-08T20:48:08.752Z</time>
      </trkpt>
      <trkpt lat="48.83226" lon="2.39705">
        <ele>102.4</ele>
        <time>2015-06-08T20:48:10.694Z</time>
      </trkpt>
      <trkpt lat="48.83228" lon="2.397">
        <ele>102.4</ele>
        <time>2015-06-08T20:48:11.665Z</time>
      </trkpt>
      <trkpt lat="48.83234" lon="2.39692">
        <ele>102.3</ele>
        <time>2015-06-08T20:48:13.669Z</time>
      </trkpt>
      <trkpt lat="48.83237" lon="2.39688">
        <ele>102.1</ele>
        <time>2015-06-08T20:48:14.695Z</time>
      </trkpt>
      <trkpt lat="48.83243" lon="2.3968">
        <ele>101.7</ele>
        <time>2015-06-08T20:48:16.717Z</time>
      </trkpt>
      <trkpt lat="48.83247" lon="2.39675">
        <ele>101.5</ele>
        <time>2015-06-08T20:48:17.729Z</time>
      </trkpt>
      <trkpt lat="48.8325" lon="2.3967">
        <ele>101.2</ele>
        <time>2015-06-08T20:48:18.672Z</time>
      </trkpt>
      <trkpt lat="48.83253" lon="2.39665">
        <ele>100.7</ele>
        <time>2015-06-08T20:48:19.688Z</time>
      </trkpt>
      <trkpt lat="48.83259" lon="2.39656">
        <ele>100.6</ele>
        <time>2015-06-08T20:48:21.729Z</time>
      </trkpt>
      <trkpt lat="48.83262" lon="2.39651">
        <ele>100.3</ele>
        <time>2015-06-08T20:48:22.741Z</time>
      </trkpt>
      <trkpt lat="48.83267" lon="2.39642">
        <ele>100.3</ele>
        <time>2015-06-08T20:48:24.638Z</time>
      </trkpt>
      <trkpt lat="48.8327" lon="2.39637">
        <ele>100</ele>
        <time>2015-06-08T20:48:25.657Z</time>
      </trkpt>
      <trkpt lat="48.83274" lon="2.39632">
        <ele>100.1</ele>
        <time>2015-06-08T20:48:26.694Z</time>
      </trkpt>
      <trkpt lat="48.83278" lon="2.39628">
        <ele>100.1</ele>
        <time>2015-06-08T20:48:27.709Z</time>
      </trkpt>
      <trkpt lat="48.83282" lon="2.39623">
        <ele>100.3</ele>
        <time>2015-06-08T20:48:28.710Z</time>
      </trkpt>
      <trkpt lat="48.83286" lon="2.39618">
        <ele>100.2</ele>
        <time>2015-06-08T20:48:29.726Z</time>
      </trkpt>
      <trkpt lat="48.8329" lon="2.39613">
        <ele>100.2</ele>
        <time>2015-06-08T20:48:30.735Z</time>
      </trkpt>
      <trkpt lat="48.83293" lon="2.39607">
        <ele>100.1</ele>
        <time>2015-06-08T20:48:31.676Z</time>
      </trkpt>
      <trkpt lat="48.83297" lon="2.39602">
        <ele>100</ele>
        <time>2015-06-08T20:48:28.541Z</time>
      </trkpt>
      <trkpt lat="48.833" lon="2.39597">
        <ele>100</ele>
        <time>2015-06-08T20:48:33.665Z</time>
      </trkpt>
      <trkpt lat="48.83306" lon="2.39587">
        <ele>99.9</ele>
        <time>2015-06-08T20:48:35.686Z</time>
      </trkpt>
      <trkpt lat="48.83308" lon="2.39582">
        <ele>99.8</ele>
        <time>2015-06-08T20:48:36.656Z</time>
      </trkpt>
      <trkpt lat="48.83314" lon="2.39572">
        <ele>99.5</ele>
        <time>2015-06-08T20:48:38.772Z</time>
      </trkpt>
      <trkpt lat="48.83316" lon="2.39567">
        <ele>99.3</ele>
        <time>2015-06-08T20:48:39.653Z</time>
      </trkpt>
      <trkpt lat="48.8332" lon="2.39563">
        <ele>99.5</ele>
        <time>2015-06-08T20:48:40.657Z</time>
      </trkpt>
      <trkpt lat="48.83323" lon="2.39558">
        <ele>99.3</ele>
        <time>2015-06-08T20:48:41.678Z</time>
      </trkpt>
      <trkpt lat="48.83326" lon="2.39553">
        <ele>99</ele>
        <time>2015-06-08T20:48:42.641Z</time>
      </trkpt>
      <trkpt lat="48.83329" lon="2.39547">
        <ele>98.9</ele>
        <time>2015-06-08T20:48:43.646Z</time>
      </trkpt>
      <trkpt lat="48.83332" lon="2.39541">
        <ele>98.8</ele>
        <time>2015-06-08T20:48:44.698Z</time>
      </trkpt>
      <trkpt lat="48.83335" lon="2.39536">
        <ele>99</ele>
        <time>2015-06-08T20:48:45.692Z</time>
      </trkpt>
      <trkpt lat="48.83337" lon="2.39529">
        <ele>99.2</ele>
        <time>2015-06-08T20:48:46.697Z</time>
      </trkpt>
      <trkpt lat="48.8334" lon="2.39523">
        <ele>99.5</ele>
        <time>2015-06-08T20:48:47.700Z</time>
      </trkpt>
      <trkpt lat="48.83343" lon="2.39517">
        <ele>99.7</ele>
        <time>2015-06-08T20:48:48.714Z</time>
      </trkpt>
      <trkpt lat="48.83347" lon="2.39511">
        <ele>99.8</ele>
        <time>2015-06-08T20:48:49.726Z</time>
      </trkpt>
      <trkpt lat="48.8335" lon="2.39506">
        <ele>99.6</ele>
        <time>2015-06-08T20:48:50.747Z</time>
      </trkpt>
      <trkpt lat="48.83355" lon="2.395">
        <ele>99.7</ele>
        <time>2015-06-08T20:48:51.659Z</time>
      </trkpt>
      <trkpt lat="48.83358" lon="2.39494">
        <ele>99.8</ele>
        <time>2015-06-08T20:48:52.657Z</time>
      </trkpt>
      <trkpt lat="48.83361" lon="2.39487">
        <ele>99.8</ele>
        <time>2015-06-08T20:48:53.664Z</time>
      </trkpt>
      <trkpt lat="48.83364" lon="2.39481">
        <ele>99.9</ele>
        <time>2015-06-08T20:48:54.686Z</time>
      </trkpt>
      <trkpt lat="48.83368" lon="2.39476">
        <ele>100.1</ele>
        <time>2015-06-08T20:48:55.690Z</time>
      </trkpt>
      <trkpt lat="48.83372" lon="2.39471">
        <ele>99.9</ele>
        <time>2015-06-08T20:48:56.719Z</time>
      </trkpt>
      <trkpt lat="48.83377" lon="2.39467">
        <ele>99.8</ele>
        <time>2015-06-08T20:48:57.724Z</time>
      </trkpt>
      <trkpt lat="48.83381" lon="2.39463">
        <ele>99.9</ele>
        <time>2015-06-08T20:48:58.642Z</time>
      </trkpt>
      <trkpt lat="48.83385" lon="2.39457">
        <ele>99.5</ele>
        <time>2015-06-08T20:48:59.640Z</time>
      </trkpt>
      <trkpt lat="48.83388" lon="2.39452">
        <ele>99.2</ele>
        <time>2015-06-08T20:49:00.652Z</time>
      </trkpt>
      <trkpt lat="48.83392" lon="2.39447">
        <ele>98.9</ele>
        <time>2015-06-08T20:49:01.656Z</time>
      </trkpt>
      <trkpt lat="48.83395" lon="2.39442">
        <ele>98.9</ele>
        <time>2015-06-08T20:49:02.726Z</time>
      </trkpt>
      <trkpt lat="48.83398" lon="2.39437">
        <ele>98.7</ele>
        <time>2015-06-08T20:49:03.632Z</time>
      </trkpt>
      <trkpt lat="48.83405" lon="2.39427">
        <ele>98.4</ele>
        <time>2015-06-08T20:49:05.646Z</time>
      </trkpt>
      <trkpt lat="48.83409" lon="2.39424">
        <ele>98.7</ele>
        <time>2015-06-08T20:49:06.657Z</time>
      </trkpt>
      <trkpt lat="48.83415" lon="2.39416">
        <ele>98.7</ele>
        <time>2015-06-08T20:49:08.727Z</time>
      </trkpt>
      <trkpt lat="48.83418" lon="2.39413">
        <ele>99.1</ele>
        <time>2015-06-08T20:49:09.668Z</time>
      </trkpt>
      <trkpt lat="48.83425" lon="2.39407">
        <ele>99</ele>
        <time>2015-06-08T20:49:11.635Z</time>
      </trkpt>
      <trkpt lat="48.83428" lon="2.39403">
        <ele>99.1</ele>
        <time>2015-06-08T20:49:12.693Z</time>
      </trkpt>
      <trkpt lat="48.83434" lon="2.39398">
        <ele>98.5</ele>
        <time>2015-06-08T20:49:14.711Z</time>
      </trkpt>
      <trkpt lat="48.83436" lon="2.39394">
        <ele>98.1</ele>
        <time>2015-06-08T20:49:15.610Z</time>
      </trkpt>
      <trkpt lat="48.83443" lon="2.39386">
        <ele>98.3</ele>
        <time>2015-06-08T20:49:17.663Z</time>
      </trkpt>
      <trkpt lat="48.83446" lon="2.3938">
        <ele>98.4</ele>
        <time>2015-06-08T20:49:18.672Z</time>
      </trkpt>
      <trkpt lat="48.83449" lon="2.39376">
        <ele>98.7</ele>
        <time>2015-06-08T20:49:19.718Z</time>
      </trkpt>
      <trkpt lat="48.83452" lon="2.3937">
        <ele>99.3</ele>
        <time>2015-06-08T20:49:20.730Z</time>
      </trkpt>
      <trkpt lat="48.83455" lon="2.39364">
        <ele>99.8</ele>
        <time>2015-06-08T20:49:21.631Z</time>
      </trkpt>
      <trkpt lat="48.83459" lon="2.39359">
        <ele>99.8</ele>
        <time>2015-06-08T20:49:22.625Z</time>
      </trkpt>
      <trkpt lat="48.83463" lon="2.39355">
        <ele>100.1</ele>
        <time>2015-06-08T20:49:23.641Z</time>
      </trkpt>
      <trkpt lat="48.83467" lon="2.3935">
        <ele>100.5</ele>
        <time>2015-06-08T20:49:24.654Z</time>
      </trkpt>
      <trkpt lat="48.8347" lon="2.39346">
        <ele>100.6</ele>
        <time>2015-06-08T20:49:25.683Z</time>
      </trkpt>
      <trkpt lat="48.83474" lon="2.39341">
        <ele>100.9</ele>
        <time>2015-06-08T20:49:26.689Z</time>
      </trkpt>
      <trkpt lat="48.83478" lon="2.39337">
        <ele>101.1</ele>
        <time>2015-06-08T20:49:27.696Z</time>
      </trkpt>
      <trkpt lat="48.83482" lon="2.39334">
        <ele>101.2</ele>
        <time>2015-06-08T20:49:28.708Z</time>
      </trkpt>
      <trkpt lat="48.83487" lon="2.39331">
        <ele>101.4</ele>
        <time>2015-06-08T20:49:29.632Z</time>
      </trkpt>
      <trkpt lat="48.83491" lon="2.39329">
        <ele>101.9</ele>
        <time>2015-06-08T20:49:30.627Z</time>
      </trkpt>
      <trkpt lat="48.83495" lon="2.39326">
        <ele>101.9</ele>
        <time>2015-06-08T20:49:31.632Z</time>
      </trkpt>
      <trkpt lat="48.83499" lon="2.39322">
        <ele>101.8</ele>
        <time>2015-06-08T20:49:32.684Z</time>
      </trkpt>
      <trkpt lat="48.83503" lon="2.39317">
        <ele>101.6</ele>
        <time>2015-06-08T20:49:33.681Z</time>
      </trkpt>
      <trkpt lat="48.83507" lon="2.39312">
        <ele>101.5</ele>
        <time>2015-06-08T20:49:34.695Z</time>
      </trkpt>
      <trkpt lat="48.83511" lon="2.39308">
        <ele>101.4</ele>
        <time>2015-06-08T20:49:35.623Z</time>
      </trkpt>
      <trkpt lat="48.83515" lon="2.39304">
        <ele>100.8</ele>
        <time>2015-06-08T20:49:36.626Z</time>
      </trkpt>
      <trkpt lat="48.83518" lon="2.39299">
        <ele>100.6</ele>
        <time>2015-06-08T20:49:37.627Z</time>
      </trkpt>
      <trkpt lat="48.83522" lon="2.39293">
        <ele>100.5</ele>
        <time>2015-06-08T20:49:38.672Z</time>
      </trkpt>
      <trkpt lat="48.83528" lon="2.39284">
        <ele>100.5</ele>
        <time>2015-06-08T20:49:40.687Z</time>
      </trkpt>
      <trkpt lat="48.83531" lon="2.39281">
        <ele>100.8</ele>
        <time>2015-06-08T20:49:41.661Z</time>
      </trkpt>
      <trkpt lat="48.83539" lon="2.39275">
        <ele>100.8</ele>
        <time>2015-06-08T20:49:43.629Z</time>
      </trkpt>
      <trkpt lat="48.83544" lon="2.39273">
        <ele>101.3</ele>
        <time>2015-06-08T20:49:44.696Z</time>
      </trkpt>
      <trkpt lat="48.8355" lon="2.3927">
        <ele>101.4</ele>
        <time>2015-06-08T20:49:45.626Z</time>
      </trkpt>
      <trkpt lat="48.83555" lon="2.39265">
        <ele>101.5</ele>
        <time>2015-06-08T20:49:46.626Z</time>
      </trkpt>
      <trkpt lat="48.83559" lon="2.39261">
        <ele>101.4</ele>
        <time>2015-06-08T20:49:47.648Z</time>
      </trkpt>
      <trkpt lat="48.83564" lon="2.39257">
        <ele>101.3</ele>
        <time>2015-06-08T20:49:48.662Z</time>
      </trkpt>
      <trkpt lat="48.83569" lon="2.39253">
        <ele>100.9</ele>
        <time>2015-06-08T20:49:49.632Z</time>
      </trkpt>
      <trkpt lat="48.83576" lon="2.39248">
        <ele>100.3</ele>
        <time>2015-06-08T20:49:50.667Z</time>
      </trkpt>
      <trkpt lat="48.8358" lon="2.39243">
        <ele>100.3</ele>
        <time>2015-06-08T20:49:51.663Z</time>
      </trkpt>
      <trkpt lat="48.83584" lon="2.39237">
        <ele>100.4</ele>
        <time>2015-06-08T20:49:52.673Z</time>
      </trkpt>
      <trkpt lat="48.83588" lon="2.39232">
        <ele>100.5</ele>
        <time>2015-06-08T20:49:53.695Z</time>
      </trkpt>
      <trkpt lat="48.83593" lon="2.39227">
        <ele>100.5</ele>
        <time>2015-06-08T20:49:54.619Z</time>
      </trkpt>
      <trkpt lat="48.83599" lon="2.39223">
        <ele>100</ele>
        <time>2015-06-08T20:49:55.623Z</time>
      </trkpt>
      <trkpt lat="48.83605" lon="2.39219">
        <ele>99.6</ele>
        <time>2015-06-08T20:49:56.680Z</time>
      </trkpt>
      <trkpt lat="48.83612" lon="2.39215">
        <ele>99.2</ele>
        <time>2015-06-08T20:49:57.692Z</time>
      </trkpt>
      <trkpt lat="48.83617" lon="2.3921">
        <ele>98.7</ele>
        <time>2015-06-08T20:49:58.597Z</time>
      </trkpt>
      <trkpt lat="48.83621" lon="2.39205">
        <ele>98.5</ele>
        <time>2015-06-08T20:49:59.621Z</time>
      </trkpt>
      <trkpt lat="48.83626" lon="2.39202">
        <ele>98.3</ele>
        <time>2015-06-08T20:50:00.595Z</time>
      </trkpt>
      <trkpt lat="48.83631" lon="2.39199">
        <ele>98.1</ele>
        <time>2015-06-08T20:50:01.661Z</time>
      </trkpt>
      <trkpt lat="48.83636" lon="2.39193">
        <ele>97.9</ele>
        <time>2015-06-08T20:50:02.670Z</time>
      </trkpt>
      <trkpt lat="48.83641" lon="2.39188">
        <ele>98</ele>
        <time>2015-06-08T20:50:03.695Z</time>
      </trkpt>
      <trkpt lat="48.83647" lon="2.39185">
        <ele>97.7</ele>
        <time>2015-06-08T20:50:04.619Z</time>
      </trkpt>
      <trkpt lat="48.83652" lon="2.39182">
        <ele>97.3</ele>
        <time>2015-06-08T20:50:05.624Z</time>
      </trkpt>
      <trkpt lat="48.83657" lon="2.39178">
        <ele>97</ele>
        <time>2015-06-08T20:50:06.630Z</time>
      </trkpt>
      <trkpt lat="48.83663" lon="2.39175">
        <ele>96.9</ele>
        <time>2015-06-08T20:50:07.648Z</time>
      </trkpt>
      <trkpt lat="48.8367" lon="2.39172">
        <ele>96.1</ele>
        <time>2015-06-08T20:50:08.652Z</time>
      </trkpt>
      <trkpt lat="48.83677" lon="2.39169">
        <ele>95.5</ele>
        <time>2015-06-08T20:50:09.665Z</time>
      </trkpt>
      <trkpt lat="48.83683" lon="2.39165">
        <ele>95.1</ele>
        <time>2015-06-08T20:50:10.677Z</time>
      </trkpt>
      <trkpt lat="48.8369" lon="2.39161">
        <ele>95</ele>
        <time>2015-06-08T20:50:11.637Z</time>
      </trkpt>
      <trkpt lat="48.83695" lon="2.39156">
        <ele>95.2</ele>
        <time>2015-06-08T20:50:12.634Z</time>
      </trkpt>
      <trkpt lat="48.83701" lon="2.39151">
        <ele>95.3</ele>
        <time>2015-06-08T20:50:13.752Z</time>
      </trkpt>
      <trkpt lat="48.83706" lon="2.39145">
        <ele>95.5</ele>
        <time>2015-06-08T20:50:14.681Z</time>
      </trkpt>
      <trkpt lat="48.83711" lon="2.39141">
        <ele>95.7</ele>
        <time>2015-06-08T20:50:15.666Z</time>
      </trkpt>
      <trkpt lat="48.83715" lon="2.39137">
        <ele>95.7</ele>
        <time>2015-06-08T20:50:16.674Z</time>
      </trkpt>
      <trkpt lat="48.83721" lon="2.39131">
        <ele>95.5</ele>
        <time>2015-06-08T20:50:18.692Z</time>
      </trkpt>
      <trkpt lat="48.83724" lon="2.39127">
        <ele>95.5</ele>
        <time>2015-06-08T20:50:19.726Z</time>
      </trkpt>
      <trkpt lat="48.8373" lon="2.39123">
        <ele>95.8</ele>
        <time>2015-06-08T20:50:21.642Z</time>
      </trkpt>
      <trkpt lat="48.83732" lon="2.39121">
        <ele>95.6</ele>
        <time>2015-06-08T20:50:22.665Z</time>
      </trkpt>
      <trkpt lat="48.83738" lon="2.39117">
        <ele>95.3</ele>
        <time>2015-06-08T20:50:24.646Z</time>
      </trkpt>
      <trkpt lat="48.8374" lon="2.39114">
        <ele>95.5</ele>
        <time>2015-06-08T20:50:25.656Z</time>
      </trkpt>
      <trkpt lat="48.83744" lon="2.39105">
        <ele>95.7</ele>
        <time>2015-06-08T20:50:27.692Z</time>
      </trkpt>
      <trkpt lat="48.83747" lon="2.39101">
        <ele>95.3</ele>
        <time>2015-06-08T20:50:28.703Z</time>
      </trkpt>
      <trkpt lat="48.83752" lon="2.39094">
        <ele>94.6</ele>
        <time>2015-06-08T20:50:30.637Z</time>
      </trkpt>
      <trkpt lat="48.83756" lon="2.39089">
        <ele>94.3</ele>
        <time>2015-06-08T20:50:31.654Z</time>
      </trkpt>
      <trkpt lat="48.83759" lon="2.39084">
        <ele>94.2</ele>
        <time>2015-06-08T20:50:32.724Z</time>
      </trkpt>
      <trkpt lat="48.83764" lon="2.39079">
        <ele>93.9</ele>
        <time>2015-06-08T20:50:33.617Z</time>
      </trkpt>
      <trkpt lat="48.83769" lon="2.39075">
        <ele>93.4</ele>
        <time>2015-06-08T20:50:34.615Z</time>
      </trkpt>
      <trkpt lat="48.83774" lon="2.39071">
        <ele>93.2</ele>
        <time>2015-06-08T20:50:35.622Z</time>
      </trkpt>
      <trkpt lat="48.83779" lon="2.39065">
        <ele>93.1</ele>
        <time>2015-06-08T20:50:36.628Z</time>
      </trkpt>
      <trkpt lat="48.83784" lon="2.39059">
        <ele>93</ele>
        <time>2015-06-08T20:50:37.631Z</time>
      </trkpt>
      <trkpt lat="48.83789" lon="2.39054">
        <ele>92.8</ele>
        <time>2015-06-08T20:50:38.663Z</time>
      </trkpt>
      <trkpt lat="48.83795" lon="2.39048">
        <ele>92.8</ele>
        <time>2015-06-08T20:50:39.675Z</time>
      </trkpt>
      <trkpt lat="48.838" lon="2.39042">
        <ele>92.7</ele>
        <time>2015-06-08T20:50:40.683Z</time>
      </trkpt>
      <trkpt lat="48.83804" lon="2.39036">
        <ele>92.6</ele>
        <time>2015-06-08T20:50:41.695Z</time>
      </trkpt>
      <trkpt lat="48.83809" lon="2.39031">
        <ele>92.2</ele>
        <time>2015-06-08T20:50:42.617Z</time>
      </trkpt>
      <trkpt lat="48.83814" lon="2.39024">
        <ele>92</ele>
        <time>2015-06-08T20:50:43.626Z</time>
      </trkpt>
      <trkpt lat="48.83819" lon="2.39017">
        <ele>91.8</ele>
        <time>2015-06-08T20:50:44.666Z</time>
      </trkpt>
      <trkpt lat="48.83824" lon="2.39012">
        <ele>91.7</ele>
        <time>2015-06-08T20:50:45.679Z</time>
      </trkpt>
      <trkpt lat="48.8383" lon="2.39007">
        <ele>91.7</ele>
        <time>2015-06-08T20:50:46.686Z</time>
      </trkpt>
      <trkpt lat="48.83835" lon="2.39002">
        <ele>91.4</ele>
        <time>2015-06-08T20:50:47.690Z</time>
      </trkpt>
      <trkpt lat="48.8384" lon="2.38995">
        <ele>91.3</ele>
        <time>2015-06-08T20:50:48.695Z</time>
      </trkpt>
      <trkpt lat="48.83845" lon="2.38988">
        <ele>91.4</ele>
        <time>2015-06-08T20:50:49.618Z</time>
      </trkpt>
      <trkpt lat="48.83849" lon="2.3898">
        <ele>91.4</ele>
        <time>2015-06-08T20:50:50.665Z</time>
      </trkpt>
      <trkpt lat="48.83853" lon="2.38973">
        <ele>91.2</ele>
        <time>2015-06-08T20:50:51.660Z</time>
      </trkpt>
      <trkpt lat="48.83858" lon="2.38969">
        <ele>91.2</ele>
        <time>2015-06-08T20:50:52.664Z</time>
      </trkpt>
      <trkpt lat="48.83862" lon="2.38963">
        <ele>91.5</ele>
        <time>2015-06-08T20:50:53.666Z</time>
      </trkpt>
      <trkpt lat="48.83866" lon="2.38959">
        <ele>91.5</ele>
        <time>2015-06-08T20:50:54.620Z</time>
      </trkpt>
      <trkpt lat="48.83871" lon="2.38956">
        <ele>91.6</ele>
        <time>2015-06-08T20:50:55.614Z</time>
      </trkpt>
      <trkpt lat="48.83877" lon="2.38948">
        <ele>91.2</ele>
        <time>2015-06-08T20:50:57.664Z</time>
      </trkpt>
      <trkpt lat="48.83881" lon="2.38945">
        <ele>91.2</ele>
        <time>2015-06-08T20:50:58.700Z</time>
      </trkpt>
      <trkpt lat="48.83887" lon="2.3894">
        <ele>91.7</ele>
        <time>2015-06-08T20:51:00.638Z</time>
      </trkpt>
      <trkpt lat="48.83889" lon="2.38938">
        <ele>91.8</ele>
        <time>2015-06-08T20:51:01.704Z</time>
      </trkpt>
      <trkpt lat="48.83892" lon="2.3894">
        <ele>89.6</ele>
        <time>2015-06-08T20:52:25.693Z</time>
      </trkpt>
      <trkpt lat="48.839" lon="2.38927">
        <ele>94.6</ele>
        <time>2015-06-08T20:52:26.707Z</time>
      </trkpt>
      <trkpt lat="48.83907" lon="2.38919">
        <ele>94.9</ele>
        <time>2015-06-08T20:52:30.657Z</time>
      </trkpt>
      <trkpt lat="48.83909" lon="2.38917">
        <ele>94.8</ele>
        <time>2015-06-08T20:52:31.669Z</time>
      </trkpt>
      <trkpt lat="48.83915" lon="2.3891">
        <ele>94.8</ele>
        <time>2015-06-08T20:52:34.641Z</time>
      </trkpt>
      <trkpt lat="48.83917" lon="2.38906">
        <ele>95</ele>
        <time>2015-06-08T20:52:35.655Z</time>
      </trkpt>
      <trkpt lat="48.83923" lon="2.38897">
        <ele>95.4</ele>
        <time>2015-06-08T20:52:38.677Z</time>
      </trkpt>
      <trkpt lat="48.83926" lon="2.38895">
        <ele>95.7</ele>
        <time>2015-06-08T20:52:39.671Z</time>
      </trkpt>
      <trkpt lat="48.83931" lon="2.38885">
        <ele>96.5</ele>
        <time>2015-06-08T20:52:41.680Z</time>
      </trkpt>
      <trkpt lat="48.83934" lon="2.38881">
        <ele>96.6</ele>
        <time>2015-06-08T20:52:42.700Z</time>
      </trkpt>
      <trkpt lat="48.83939" lon="2.38872">
        <ele>96.3</ele>
        <time>2015-06-08T20:52:44.674Z</time>
      </trkpt>
      <trkpt lat="48.83944" lon="2.38869">
        <ele>96.2</ele>
        <time>2015-06-08T20:52:45.650Z</time>
      </trkpt>
      <trkpt lat="48.83948" lon="2.38865">
        <ele>95.7</ele>
        <time>2015-06-08T20:52:46.632Z</time>
      </trkpt>
      <trkpt lat="48.83952" lon="2.38863">
        <ele>95.2</ele>
        <time>2015-06-08T20:52:47.629Z</time>
      </trkpt>
      <trkpt lat="48.8396" lon="2.38858">
        <ele>94</ele>
        <time>2015-06-08T20:52:49.647Z</time>
      </trkpt>
      <trkpt lat="48.83963" lon="2.38856">
        <ele>93.9</ele>
        <time>2015-06-08T20:52:50.706Z</time>
      </trkpt>
      <trkpt lat="48.8397" lon="2.38851">
        <ele>93.8</ele>
        <time>2015-06-08T20:52:52.626Z</time>
      </trkpt>
      <trkpt lat="48.83974" lon="2.38849">
        <ele>93.6</ele>
        <time>2015-06-08T20:52:53.769Z</time>
      </trkpt>
      <trkpt lat="48.83982" lon="2.38844">
        <ele>93.6</ele>
        <time>2015-06-08T20:52:55.625Z</time>
      </trkpt>
      <trkpt lat="48.83986" lon="2.38841">
        <ele>93.5</ele>
        <time>2015-06-08T20:52:56.699Z</time>
      </trkpt>
      <trkpt lat="48.83991" lon="2.38839">
        <ele>93.5</ele>
        <time>2015-06-08T20:52:57.633Z</time>
      </trkpt>
      <trkpt lat="48.83995" lon="2.38837">
        <ele>93.4</ele>
        <time>2015-06-08T20:52:58.625Z</time>
      </trkpt>
      <trkpt lat="48.84001" lon="2.38835">
        <ele>93.2</ele>
        <time>2015-06-08T20:52:59.632Z</time>
      </trkpt>
      <trkpt lat="48.84006" lon="2.38834">
        <ele>93.1</ele>
        <time>2015-06-08T20:53:00.652Z</time>
      </trkpt>
      <trkpt lat="48.84011" lon="2.38831">
        <ele>93.1</ele>
        <time>2015-06-08T20:53:01.658Z</time>
      </trkpt>
      <trkpt lat="48.84017" lon="2.38829">
        <ele>93.2</ele>
        <time>2015-06-08T20:53:02.671Z</time>
      </trkpt>
      <trkpt lat="48.84022" lon="2.38826">
        <ele>93.3</ele>
        <time>2015-06-08T20:53:03.693Z</time>
      </trkpt>
      <trkpt lat="48.84028" lon="2.38822">
        <ele>93.2</ele>
        <time>2015-06-08T20:53:04.612Z</time>
      </trkpt>
      <trkpt lat="48.84033" lon="2.38819">
        <ele>93.4</ele>
        <time>2015-06-08T20:53:05.606Z</time>
      </trkpt>
      <trkpt lat="48.84038" lon="2.38814">
        <ele>93.4</ele>
        <time>2015-06-08T20:53:06.627Z</time>
      </trkpt>
      <trkpt lat="48.84044" lon="2.38811">
        <ele>93.6</ele>
        <time>2015-06-08T20:53:07.632Z</time>
      </trkpt>
      <trkpt lat="48.84049" lon="2.38807">
        <ele>93.7</ele>
        <time>2015-06-08T20:53:08.676Z</time>
      </trkpt>
      <trkpt lat="48.84053" lon="2.38802">
        <ele>93.7</ele>
        <time>2015-06-08T20:53:09.693Z</time>
      </trkpt>
      <trkpt lat="48.84058" lon="2.38797">
        <ele>93.5</ele>
        <time>2015-06-08T20:53:10.611Z</time>
      </trkpt>
      <trkpt lat="48.84063" lon="2.38792">
        <ele>93.7</ele>
        <time>2015-06-08T20:53:11.616Z</time>
      </trkpt>
      <trkpt lat="48.84068" lon="2.38788">
        <ele>94</ele>
        <time>2015-06-08T20:53:12.618Z</time>
      </trkpt>
      <trkpt lat="48.84073" lon="2.38784">
        <ele>93.9</ele>
        <time>2015-06-08T20:53:13.627Z</time>
      </trkpt>
      <trkpt lat="48.84078" lon="2.3878">
        <ele>93.9</ele>
        <time>2015-06-08T20:53:14.663Z</time>
      </trkpt>
      <trkpt lat="48.84083" lon="2.38777">
        <ele>93.8</ele>
        <time>2015-06-08T20:53:15.679Z</time>
      </trkpt>
      <trkpt lat="48.84088" lon="2.38774">
        <ele>93.7</ele>
        <time>2015-06-08T20:53:16.694Z</time>
      </trkpt>
      <trkpt lat="48.84092" lon="2.38771">
        <ele>93.7</ele>
        <time>2015-06-08T20:53:17.624Z</time>
      </trkpt>
      <trkpt lat="48.84097" lon="2.38767">
        <ele>93.6</ele>
        <time>2015-06-08T20:53:18.622Z</time>
      </trkpt>
      <trkpt lat="48.84101" lon="2.38764">
        <ele>93.3</ele>
        <time>2015-06-08T20:53:19.633Z</time>
      </trkpt>
      <trkpt lat="48.84105" lon="2.3876">
        <ele>92.7</ele>
        <time>2015-06-08T20:53:20.662Z</time>
      </trkpt>
      <trkpt lat="48.84111" lon="2.38752">
        <ele>91.4</ele>
        <time>2015-06-08T20:53:22.677Z</time>
      </trkpt>
      <trkpt lat="48.84113" lon="2.38745">
        <ele>91.2</ele>
        <time>2015-06-08T20:53:23.680Z</time>
      </trkpt>
      <trkpt lat="48.8412" lon="2.38737">
        <ele>92.3</ele>
        <time>2015-06-08T20:53:25.617Z</time>
      </trkpt>
      <trkpt lat="48.84123" lon="2.38733">
        <ele>92.8</ele>
        <time>2015-06-08T20:53:26.694Z</time>
      </trkpt>
      <trkpt lat="48.84129" lon="2.38726">
        <ele>93.6</ele>
        <time>2015-06-08T20:53:28.618Z</time>
      </trkpt>
      <trkpt lat="48.84131" lon="2.38723">
        <ele>93.2</ele>
        <time>2015-06-08T20:53:29.645Z</time>
      </trkpt>
      <trkpt lat="48.84137" lon="2.38717">
        <ele>92.5</ele>
        <time>2015-06-08T20:53:32.701Z</time>
      </trkpt>
      <trkpt lat="48.8414" lon="2.38717">
        <ele>93.1</ele>
        <time>2015-06-08T20:53:33.633Z</time>
      </trkpt>
      <trkpt lat="48.84148" lon="2.3872">
        <ele>94</ele>
        <time>2015-06-08T20:53:37.647Z</time>
      </trkpt>
      <trkpt lat="48.84149" lon="2.3872">
        <ele>94</ele>
        <time>2015-06-08T20:53:38.688Z</time>
      </trkpt>
      <trkpt lat="48.84154" lon="2.38714">
        <ele>92.9</ele>
        <time>2015-06-08T20:53:41.639Z</time>
      </trkpt>
      <trkpt lat="48.84156" lon="2.38711">
        <ele>93.2</ele>
        <time>2015-06-08T20:53:42.654Z</time>
      </trkpt>
      <trkpt lat="48.84161" lon="2.38704">
        <ele>93.7</ele>
        <time>2015-06-08T20:53:44.676Z</time>
      </trkpt>
      <trkpt lat="48.84164" lon="2.38701">
        <ele>94</ele>
        <time>2015-06-08T20:53:45.680Z</time>
      </trkpt>
      <trkpt lat="48.84169" lon="2.38695">
        <ele>94.1</ele>
        <time>2015-06-08T20:53:47.615Z</time>
      </trkpt>
      <trkpt lat="48.84171" lon="2.38692">
        <ele>93.5</ele>
        <time>2015-06-08T20:53:48.646Z</time>
      </trkpt>
      <trkpt lat="48.84176" lon="2.38684">
        <ele>93.9</ele>
        <time>2015-06-08T20:53:50.685Z</time>
      </trkpt>
      <trkpt lat="48.84178" lon="2.38679">
        <ele>94.1</ele>
        <time>2015-06-08T20:53:51.692Z</time>
      </trkpt>
      <trkpt lat="48.84181" lon="2.3867">
        <ele>94</ele>
        <time>2015-06-08T20:53:53.627Z</time>
      </trkpt>
      <trkpt lat="48.84183" lon="2.38666">
        <ele>93.4</ele>
        <time>2015-06-08T20:53:54.642Z</time>
      </trkpt>
      <trkpt lat="48.84189" lon="2.38656">
        <ele>92.9</ele>
        <time>2015-06-08T20:53:56.685Z</time>
      </trkpt>
      <trkpt lat="48.84191" lon="2.38651">
        <ele>93.1</ele>
        <time>2015-06-08T20:53:57.703Z</time>
      </trkpt>
      <trkpt lat="48.84195" lon="2.3864">
        <ele>93.5</ele>
        <time>2015-06-08T20:53:59.624Z</time>
      </trkpt>
      <trkpt lat="48.84197" lon="2.38634">
        <ele>93.7</ele>
        <time>2015-06-08T20:54:00.656Z</time>
      </trkpt>
      <trkpt lat="48.84199" lon="2.38622">
        <ele>94.2</ele>
        <time>2015-06-08T20:54:02.691Z</time>
      </trkpt>
      <trkpt lat="48.84201" lon="2.38616">
        <ele>94.4</ele>
        <time>2015-06-08T20:54:03.640Z</time>
      </trkpt>
      <trkpt lat="48.84205" lon="2.38604">
        <ele>95.2</ele>
        <time>2015-06-08T20:54:05.627Z</time>
      </trkpt>
      <trkpt lat="48.84206" lon="2.38597">
        <ele>95.6</ele>
        <time>2015-06-08T20:54:06.644Z</time>
      </trkpt>
      <trkpt lat="48.84209" lon="2.38592">
        <ele>95.7</ele>
        <time>2015-06-08T20:54:07.659Z</time>
      </trkpt>
      <trkpt lat="48.84211" lon="2.38586">
        <ele>95.8</ele>
        <time>2015-06-08T20:54:08.686Z</time>
      </trkpt>
      <trkpt lat="48.84212" lon="2.38579">
        <ele>96.1</ele>
        <time>2015-06-08T20:54:09.611Z</time>
      </trkpt>
      <trkpt lat="48.84214" lon="2.38572">
        <ele>96.3</ele>
        <time>2015-06-08T20:54:10.612Z</time>
      </trkpt>
      <trkpt lat="48.84217" lon="2.38566">
        <ele>96.7</ele>
        <time>2015-06-08T20:54:11.619Z</time>
      </trkpt>
      <trkpt lat="48.84219" lon="2.38559">
        <ele>96.8</ele>
        <time>2015-06-08T20:54:12.629Z</time>
      </trkpt>
      <trkpt lat="48.84222" lon="2.38553">
        <ele>96.8</ele>
        <time>2015-06-08T20:54:13.638Z</time>
      </trkpt>
      <trkpt lat="48.84225" lon="2.38547">
        <ele>97.1</ele>
        <time>2015-06-08T20:54:14.653Z</time>
      </trkpt>
      <trkpt lat="48.84228" lon="2.38535">
        <ele>97.5</ele>
        <time>2015-06-08T20:54:16.689Z</time>
      </trkpt>
      <trkpt lat="48.84231" lon="2.3853">
        <ele>97.7</ele>
        <time>2015-06-08T20:54:17.618Z</time>
      </trkpt>
      <trkpt lat="48.84236" lon="2.38524">
        <ele>97.5</ele>
        <time>2015-06-08T20:54:18.639Z</time>
      </trkpt>
      <trkpt lat="48.84239" lon="2.38517">
        <ele>97.2</ele>
        <time>2015-06-08T20:54:19.726Z</time>
      </trkpt>
      <trkpt lat="48.84242" lon="2.38511">
        <ele>97.1</ele>
        <time>2015-06-08T20:54:20.683Z</time>
      </trkpt>
      <trkpt lat="48.84244" lon="2.38506">
        <ele>97.1</ele>
        <time>2015-06-08T20:54:21.697Z</time>
      </trkpt>
      <trkpt lat="48.84246" lon="2.385">
        <ele>97</ele>
        <time>2015-06-08T20:54:22.711Z</time>
      </trkpt>
      <trkpt lat="48.84253" lon="2.38495">
        <ele>97.8</ele>
        <time>2015-06-08T20:54:23.672Z</time>
      </trkpt>
      <trkpt lat="48.84257" lon="2.38491">
        <ele>98.2</ele>
        <time>2015-06-08T20:54:25.100Z</time>
      </trkpt>
      <trkpt lat="48.84262" lon="2.38487">
        <ele>98.7</ele>
        <time>2015-06-08T20:54:25.672Z</time>
      </trkpt>
      <trkpt lat="48.84267" lon="2.38476">
        <ele>99.2</ele>
        <time>2015-06-08T20:54:27.659Z</time>
      </trkpt>
      <trkpt lat="48.84269" lon="2.3847">
        <ele>99.4</ele>
        <time>2015-06-08T20:54:28.664Z</time>
      </trkpt>
      <trkpt lat="48.8427" lon="2.38462">
        <ele>99.4</ele>
        <time>2015-06-08T20:54:30.242Z</time>
      </trkpt>
      <trkpt lat="48.84272" lon="2.38456">
        <ele>99.5</ele>
        <time>2015-06-08T20:54:30.615Z</time>
      </trkpt>
      <trkpt lat="48.84274" lon="2.38448">
        <ele>99.4</ele>
        <time>2015-06-08T20:54:31.643Z</time>
      </trkpt>
      <trkpt lat="48.84276" lon="2.38441">
        <ele>99.3</ele>
        <time>2015-06-08T20:54:32.891Z</time>
      </trkpt>
      <trkpt lat="48.84277" lon="2.38434">
        <ele>99.2</ele>
        <time>2015-06-08T20:54:33.582Z</time>
      </trkpt>
      <trkpt lat="48.84279" lon="2.38427">
        <ele>99.1</ele>
        <time>2015-06-08T20:54:34.610Z</time>
      </trkpt>
      <trkpt lat="48.84282" lon="2.38419">
        <ele>99.2</ele>
        <time>2015-06-08T20:54:35.616Z</time>
      </trkpt>
      <trkpt lat="48.84285" lon="2.38412">
        <ele>98.7</ele>
        <time>2015-06-08T20:54:36.621Z</time>
      </trkpt>
      <trkpt lat="48.84292" lon="2.38405">
        <ele>97.9</ele>
        <time>2015-06-08T20:54:37.627Z</time>
      </trkpt>
      <trkpt lat="48.84295" lon="2.38396">
        <ele>97.4</ele>
        <time>2015-06-08T20:54:38.659Z</time>
      </trkpt>
      <trkpt lat="48.84299" lon="2.38387">
        <ele>97</ele>
        <time>2015-06-08T20:54:39.654Z</time>
      </trkpt>
      <trkpt lat="48.84303" lon="2.38378">
        <ele>97.1</ele>
        <time>2015-06-08T20:54:40.660Z</time>
      </trkpt>
      <trkpt lat="48.84309" lon="2.38371">
        <ele>97.3</ele>
        <time>2015-06-08T20:54:41.672Z</time>
      </trkpt>
      <trkpt lat="48.84314" lon="2.38364">
        <ele>97.6</ele>
        <time>2015-06-08T20:54:42.675Z</time>
      </trkpt>
      <trkpt lat="48.8432" lon="2.38355">
        <ele>98.1</ele>
        <time>2015-06-08T20:54:43.677Z</time>
      </trkpt>
      <trkpt lat="48.84325" lon="2.38346">
        <ele>98.3</ele>
        <time>2015-06-08T20:54:44.690Z</time>
      </trkpt>
      <trkpt lat="48.84329" lon="2.38339">
        <ele>98.9</ele>
        <time>2015-06-08T20:54:45.600Z</time>
      </trkpt>
      <trkpt lat="48.84334" lon="2.3833">
        <ele>99.2</ele>
        <time>2015-06-08T20:54:46.613Z</time>
      </trkpt>
      <trkpt lat="48.84339" lon="2.38321">
        <ele>99.6</ele>
        <time>2015-06-08T20:54:47.619Z</time>
      </trkpt>
      <trkpt lat="48.84343" lon="2.38311">
        <ele>99.8</ele>
        <time>2015-06-08T20:54:48.626Z</time>
      </trkpt>
      <trkpt lat="48.84348" lon="2.38304">
        <ele>99.6</ele>
        <time>2015-06-08T20:54:49.642Z</time>
      </trkpt>
      <trkpt lat="48.84354" lon="2.38296">
        <ele>99.6</ele>
        <time>2015-06-08T20:54:50.662Z</time>
      </trkpt>
      <trkpt lat="48.84359" lon="2.38289">
        <ele>98.9</ele>
        <time>2015-06-08T20:54:51.676Z</time>
      </trkpt>
      <trkpt lat="48.84364" lon="2.38282">
        <ele>98.5</ele>
        <time>2015-06-08T20:54:52.688Z</time>
      </trkpt>
      <trkpt lat="48.84371" lon="2.38276">
        <ele>97.7</ele>
        <time>2015-06-08T20:54:53.617Z</time>
      </trkpt>
      <trkpt lat="48.84378" lon="2.38269">
        <ele>97.3</ele>
        <time>2015-06-08T20:54:54.624Z</time>
      </trkpt>
      <trkpt lat="48.84383" lon="2.38262">
        <ele>97.1</ele>
        <time>2015-06-08T20:54:55.632Z</time>
      </trkpt>
      <trkpt lat="48.84388" lon="2.38256">
        <ele>97.1</ele>
        <time>2015-06-08T20:54:56.654Z</time>
      </trkpt>
      <trkpt lat="48.84393" lon="2.38248">
        <ele>97</ele>
        <time>2015-06-08T20:54:57.666Z</time>
      </trkpt>
      <trkpt lat="48.84396" lon="2.38241">
        <ele>96.7</ele>
        <time>2015-06-08T20:54:58.695Z</time>
      </trkpt>
      <trkpt lat="48.84403" lon="2.38236">
        <ele>95.6</ele>
        <time>2015-06-08T20:54:59.605Z</time>
      </trkpt>
      <trkpt lat="48.84407" lon="2.3823">
        <ele>95.6</ele>
        <time>2015-06-08T20:55:00.623Z</time>
      </trkpt>
      <trkpt lat="48.84409" lon="2.38222">
        <ele>95.1</ele>
        <time>2015-06-08T20:55:01.638Z</time>
      </trkpt>
      <trkpt lat="48.8441" lon="2.38215">
        <ele>95</ele>
        <time>2015-06-08T20:55:02.689Z</time>
      </trkpt>
      <trkpt lat="48.8441" lon="2.38206">
        <ele>95</ele>
        <time>2015-06-08T20:55:03.613Z</time>
      </trkpt>
      <trkpt lat="48.84413" lon="2.382">
        <ele>95</ele>
        <time>2015-06-08T20:55:04.609Z</time>
      </trkpt>
      <trkpt lat="48.84418" lon="2.3819">
        <ele>94.6</ele>
        <time>2015-06-08T20:55:06.625Z</time>
      </trkpt>
      <trkpt lat="48.84419" lon="2.38185">
        <ele>94.6</ele>
        <time>2015-06-08T20:55:07.630Z</time>
      </trkpt>
      <trkpt lat="48.84425" lon="2.38176">
        <ele>93.5</ele>
        <time>2015-06-08T20:55:09.682Z</time>
      </trkpt>
      <trkpt lat="48.84427" lon="2.38172">
        <ele>93.6</ele>
        <time>2015-06-08T20:55:10.762Z</time>
      </trkpt>
      <trkpt lat="48.84432" lon="2.38163">
        <ele>94.2</ele>
        <time>2015-06-08T20:55:12.627Z</time>
      </trkpt>
      <trkpt lat="48.84433" lon="2.38156">
        <ele>94.5</ele>
        <time>2015-06-08T20:55:13.644Z</time>
      </trkpt>
      <trkpt lat="48.84435" lon="2.38143">
        <ele>95.3</ele>
        <time>2015-06-08T20:55:15.692Z</time>
      </trkpt>
      <trkpt lat="48.84436" lon="2.38137">
        <ele>95.6</ele>
        <time>2015-06-08T20:55:16.587Z</time>
      </trkpt>
      <trkpt lat="48.84438" lon="2.3813">
        <ele>95.4</ele>
        <time>2015-06-08T20:55:17.661Z</time>
      </trkpt>
      <trkpt lat="48.8444" lon="2.38123">
        <ele>95.3</ele>
        <time>2015-06-08T20:55:18.668Z</time>
      </trkpt>
      <trkpt lat="48.84442" lon="2.38116">
        <ele>95.2</ele>
        <time>2015-06-08T20:55:19.694Z</time>
      </trkpt>
      <trkpt lat="48.84443" lon="2.3811">
        <ele>95.2</ele>
        <time>2015-06-08T20:55:20.706Z</time>
      </trkpt>
      <trkpt lat="48.84448" lon="2.38099">
        <ele>95.3</ele>
        <time>2015-06-08T20:55:22.606Z</time>
      </trkpt>
      <trkpt lat="48.8445" lon="2.38095">
        <ele>95.2</ele>
        <time>2015-06-08T20:55:23.637Z</time>
      </trkpt>
      <trkpt lat="48.84454" lon="2.38086">
        <ele>95.1</ele>
        <time>2015-06-08T20:55:25.676Z</time>
      </trkpt>
      <trkpt lat="48.84457" lon="2.38081">
        <ele>95.8</ele>
        <time>2015-06-08T20:55:26.689Z</time>
      </trkpt>
      <trkpt lat="48.8446" lon="2.38076">
        <ele>95.8</ele>
        <time>2015-06-08T20:55:27.719Z</time>
      </trkpt>
      <trkpt lat="48.84463" lon="2.38069">
        <ele>95.8</ele>
        <time>2015-06-08T20:55:28.609Z</time>
      </trkpt>
      <trkpt lat="48.84467" lon="2.38061">
        <ele>95.8</ele>
        <time>2015-06-08T20:55:29.619Z</time>
      </trkpt>
      <trkpt lat="48.84472" lon="2.38054">
        <ele>95</ele>
        <time>2015-06-08T20:55:30.626Z</time>
      </trkpt>
      <trkpt lat="48.84476" lon="2.38047">
        <ele>94.5</ele>
        <time>2015-06-08T20:55:31.635Z</time>
      </trkpt>
      <trkpt lat="48.84479" lon="2.3804">
        <ele>94.1</ele>
        <time>2015-06-08T20:55:32.669Z</time>
      </trkpt>
      <trkpt lat="48.84482" lon="2.38033">
        <ele>94.2</ele>
        <time>2015-06-08T20:55:33.658Z</time>
      </trkpt>
      <trkpt lat="48.84486" lon="2.38026">
        <ele>94.5</ele>
        <time>2015-06-08T20:55:34.661Z</time>
      </trkpt>
      <trkpt lat="48.84488" lon="2.3802">
        <ele>94.5</ele>
        <time>2015-06-08T20:55:35.664Z</time>
      </trkpt>
      <trkpt lat="48.84491" lon="2.38014">
        <ele>94.1</ele>
        <time>2015-06-08T20:55:36.676Z</time>
      </trkpt>
      <trkpt lat="48.84496" lon="2.38003">
        <ele>93.7</ele>
        <time>2015-06-08T20:55:38.697Z</time>
      </trkpt>
      <trkpt lat="48.84498" lon="2.37998">
        <ele>93.6</ele>
        <time>2015-06-08T20:55:39.637Z</time>
      </trkpt>
      <trkpt lat="48.84502" lon="2.37993">
        <ele>93.5</ele>
        <time>2015-06-08T20:55:40.622Z</time>
      </trkpt>
      <trkpt lat="48.84507" lon="2.3799">
        <ele>93.7</ele>
        <time>2015-06-08T20:55:41.626Z</time>
      </trkpt>
      <trkpt lat="48.84511" lon="2.37987">
        <ele>93.6</ele>
        <time>2015-06-08T20:55:42.638Z</time>
      </trkpt>
      <trkpt lat="48.84516" lon="2.37981">
        <ele>93.9</ele>
        <time>2015-06-08T20:55:43.648Z</time>
      </trkpt>
      <trkpt lat="48.84519" lon="2.37975">
        <ele>93.8</ele>
        <time>2015-06-08T20:55:44.692Z</time>
      </trkpt>
      <trkpt lat="48.84522" lon="2.37968">
        <ele>93.7</ele>
        <time>2015-06-08T20:55:45.660Z</time>
      </trkpt>
      <trkpt lat="48.84526" lon="2.37961">
        <ele>93.3</ele>
        <time>2015-06-08T20:55:46.665Z</time>
      </trkpt>
      <trkpt lat="48.84529" lon="2.37952">
        <ele>93.2</ele>
        <time>2015-06-08T20:55:47.669Z</time>
      </trkpt>
      <trkpt lat="48.84533" lon="2.37944">
        <ele>93.4</ele>
        <time>2015-06-08T20:55:48.667Z</time>
      </trkpt>
      <trkpt lat="48.84535" lon="2.37937">
        <ele>93.6</ele>
        <time>2015-06-08T20:55:49.677Z</time>
      </trkpt>
      <trkpt lat="48.8454" lon="2.37931">
        <ele>93.7</ele>
        <time>2015-06-08T20:55:50.722Z</time>
      </trkpt>
      <trkpt lat="48.84544" lon="2.37924">
        <ele>93.8</ele>
        <time>2015-06-08T20:55:51.613Z</time>
      </trkpt>
      <trkpt lat="48.84548" lon="2.37917">
        <ele>93.7</ele>
        <time>2015-06-08T20:55:52.624Z</time>
      </trkpt>
      <trkpt lat="48.84551" lon="2.3791">
        <ele>93.6</ele>
        <time>2015-06-08T20:55:53.627Z</time>
      </trkpt>
      <trkpt lat="48.84554" lon="2.37903">
        <ele>93.7</ele>
        <time>2015-06-08T20:55:54.636Z</time>
      </trkpt>
      <trkpt lat="48.84557" lon="2.37895">
        <ele>93.9</ele>
        <time>2015-06-08T20:55:55.644Z</time>
      </trkpt>
      <trkpt lat="48.84559" lon="2.37888">
        <ele>94.1</ele>
        <time>2015-06-08T20:55:56.658Z</time>
      </trkpt>
      <trkpt lat="48.84561" lon="2.37879">
        <ele>94.1</ele>
        <time>2015-06-08T20:55:57.874Z</time>
      </trkpt>
      <trkpt lat="48.84563" lon="2.37871">
        <ele>94.4</ele>
        <time>2015-06-08T20:55:58.614Z</time>
      </trkpt>
      <trkpt lat="48.84566" lon="2.37865">
        <ele>94.4</ele>
        <time>2015-06-08T20:55:59.620Z</time>
      </trkpt>
      <trkpt lat="48.84569" lon="2.37857">
        <ele>94.5</ele>
        <time>2015-06-08T20:56:00.631Z</time>
      </trkpt>
      <trkpt lat="48.84572" lon="2.3785">
        <ele>94.8</ele>
        <time>2015-06-08T20:56:01.641Z</time>
      </trkpt>
      <trkpt lat="48.84576" lon="2.37844">
        <ele>95.2</ele>
        <time>2015-06-08T20:56:02.666Z</time>
      </trkpt>
      <trkpt lat="48.84579" lon="2.37838">
        <ele>95.1</ele>
        <time>2015-06-08T20:56:03.672Z</time>
      </trkpt>
      <trkpt lat="48.84582" lon="2.37831">
        <ele>94.7</ele>
        <time>2015-06-08T20:56:04.600Z</time>
      </trkpt>
      <trkpt lat="48.84585" lon="2.37823">
        <ele>94.5</ele>
        <time>2015-06-08T20:56:05.603Z</time>
      </trkpt>
      <trkpt lat="48.84588" lon="2.37817">
        <ele>94.3</ele>
        <time>2015-06-08T20:56:06.601Z</time>
      </trkpt>
      <trkpt lat="48.8459" lon="2.37809">
        <ele>93.8</ele>
        <time>2015-06-08T20:56:07.614Z</time>
      </trkpt>
      <trkpt lat="48.84592" lon="2.37803">
        <ele>93.8</ele>
        <time>2015-06-08T20:56:08.671Z</time>
      </trkpt>
      <trkpt lat="48.84595" lon="2.37795">
        <ele>94</ele>
        <time>2015-06-08T20:56:09.626Z</time>
      </trkpt>
      <trkpt lat="48.84598" lon="2.37788">
        <ele>93.9</ele>
        <time>2015-06-08T20:56:10.603Z</time>
      </trkpt>
      <trkpt lat="48.84601" lon="2.37781">
        <ele>94</ele>
        <time>2015-06-08T20:56:11.602Z</time>
      </trkpt>
      <trkpt lat="48.84606" lon="2.37776">
        <ele>93.3</ele>
        <time>2015-06-08T20:56:12.623Z</time>
      </trkpt>
      <trkpt lat="48.8461" lon="2.3777">
        <ele>93.2</ele>
        <time>2015-06-08T20:56:13.631Z</time>
      </trkpt>
      <trkpt lat="48.84615" lon="2.37765">
        <ele>93.9</ele>
        <time>2015-06-08T20:56:14.657Z</time>
      </trkpt>
      <trkpt lat="48.84618" lon="2.3776">
        <ele>94</ele>
        <time>2015-06-08T20:56:15.653Z</time>
      </trkpt>
      <trkpt lat="48.84622" lon="2.37756">
        <ele>94.3</ele>
        <time>2015-06-08T20:56:16.674Z</time>
      </trkpt>
      <trkpt lat="48.84626" lon="2.37753">
        <ele>94.2</ele>
        <time>2015-06-08T20:56:17.680Z</time>
      </trkpt>
      <trkpt lat="48.84627" lon="2.37744">
        <ele>97.1</ele>
        <time>2015-06-08T20:56:54.617Z</time>
      </trkpt>
      <trkpt lat="48.84628" lon="2.37738">
        <ele>97</ele>
        <time>2015-06-08T20:56:55.622Z</time>
      </trkpt>
      <trkpt lat="48.84632" lon="2.37726">
        <ele>97.4</ele>
        <time>2015-06-08T20:56:57.619Z</time>
      </trkpt>
      <trkpt lat="48.84635" lon="2.37721">
        <ele>97.7</ele>
        <time>2015-06-08T20:56:58.629Z</time>
      </trkpt>
      <trkpt lat="48.84637" lon="2.37714">
        <ele>97.7</ele>
        <time>2015-06-08T20:56:59.655Z</time>
      </trkpt>
      <trkpt lat="48.84639" lon="2.37707">
        <ele>97.6</ele>
        <time>2015-06-08T20:57:00.665Z</time>
      </trkpt>
      <trkpt lat="48.84643" lon="2.37701">
        <ele>97.4</ele>
        <time>2015-06-08T20:57:01.670Z</time>
      </trkpt>
      <trkpt lat="48.84647" lon="2.37695">
        <ele>97.4</ele>
        <time>2015-06-08T20:57:02.840Z</time>
      </trkpt>
      <trkpt lat="48.84652" lon="2.37689">
        <ele>96.6</ele>
        <time>2015-06-08T20:57:03.642Z</time>
      </trkpt>
      <trkpt lat="48.84657" lon="2.37682">
        <ele>95.4</ele>
        <time>2015-06-08T20:57:04.658Z</time>
      </trkpt>
      <trkpt lat="48.84661" lon="2.37674">
        <ele>95.3</ele>
        <time>2015-06-08T20:57:05.682Z</time>
      </trkpt>
      <trkpt lat="48.84664" lon="2.37667">
        <ele>95.2</ele>
        <time>2015-06-08T20:57:06.687Z</time>
      </trkpt>
      <trkpt lat="48.84667" lon="2.37658">
        <ele>95.2</ele>
        <time>2015-06-08T20:57:07.635Z</time>
      </trkpt>
      <trkpt lat="48.8467" lon="2.37649">
        <ele>95</ele>
        <time>2015-06-08T20:57:08.666Z</time>
      </trkpt>
      <trkpt lat="48.84673" lon="2.3764">
        <ele>94.4</ele>
        <time>2015-06-08T20:57:08.318Z</time>
      </trkpt>
      <trkpt lat="48.84676" lon="2.37631">
        <ele>94.6</ele>
        <time>2015-06-08T20:57:10.622Z</time>
      </trkpt>
      <trkpt lat="48.84679" lon="2.37621">
        <ele>94.4</ele>
        <time>2015-06-08T20:57:11.623Z</time>
      </trkpt>
      <trkpt lat="48.84681" lon="2.37611">
        <ele>94.4</ele>
        <time>2015-06-08T20:57:12.631Z</time>
      </trkpt>
      <trkpt lat="48.84685" lon="2.37602">
        <ele>94.6</ele>
        <time>2015-06-08T20:57:13.711Z</time>
      </trkpt>
      <trkpt lat="48.84689" lon="2.37592">
        <ele>94.2</ele>
        <time>2015-06-08T20:57:14.721Z</time>
      </trkpt>
      <trkpt lat="48.84692" lon="2.37584">
        <ele>94.2</ele>
        <time>2015-06-08T20:57:15.588Z</time>
      </trkpt>
      <trkpt lat="48.84696" lon="2.37575">
        <ele>94.4</ele>
        <time>2015-06-08T20:57:16.610Z</time>
      </trkpt>
      <trkpt lat="48.84699" lon="2.37565">
        <ele>94.8</ele>
        <time>2015-06-08T20:57:17.616Z</time>
      </trkpt>
      <trkpt lat="48.84703" lon="2.37556">
        <ele>95.3</ele>
        <time>2015-06-08T20:57:18.620Z</time>
      </trkpt>
      <trkpt lat="48.8471" lon="2.37549">
        <ele>94.7</ele>
        <time>2015-06-08T20:57:19.629Z</time>
      </trkpt>
      <trkpt lat="48.84715" lon="2.37541">
        <ele>94.1</ele>
        <time>2015-06-08T20:57:20.663Z</time>
      </trkpt>
      <trkpt lat="48.8472" lon="2.37533">
        <ele>93.8</ele>
        <time>2015-06-08T20:57:21.654Z</time>
      </trkpt>
      <trkpt lat="48.84724" lon="2.37524">
        <ele>94</ele>
        <time>2015-06-08T20:57:22.659Z</time>
      </trkpt>
      <trkpt lat="48.84728" lon="2.37515">
        <ele>94.2</ele>
        <time>2015-06-08T20:57:23.668Z</time>
      </trkpt>
      <trkpt lat="48.84731" lon="2.37507">
        <ele>94.1</ele>
        <time>2015-06-08T20:57:24.677Z</time>
      </trkpt>
      <trkpt lat="48.84735" lon="2.37499">
        <ele>94.2</ele>
        <time>2015-06-08T20:57:25.663Z</time>
      </trkpt>
      <trkpt lat="48.84738" lon="2.37491">
        <ele>93.7</ele>
        <time>2015-06-08T20:57:26.729Z</time>
      </trkpt>
      <trkpt lat="48.84742" lon="2.37484">
        <ele>94</ele>
        <time>2015-06-08T20:57:27.637Z</time>
      </trkpt>
      <trkpt lat="48.84746" lon="2.37477">
        <ele>94.1</ele>
        <time>2015-06-08T20:57:28.615Z</time>
      </trkpt>
      <trkpt lat="48.84747" lon="2.37468">
        <ele>94.2</ele>
        <time>2015-06-08T20:57:29.609Z</time>
      </trkpt>
      <trkpt lat="48.84749" lon="2.37459">
        <ele>94</ele>
        <time>2015-06-08T20:57:30.633Z</time>
      </trkpt>
      <trkpt lat="48.8475" lon="2.37451">
        <ele>93.9</ele>
        <time>2015-06-08T20:57:31.647Z</time>
      </trkpt>
      <trkpt lat="48.84751" lon="2.37443">
        <ele>93.7</ele>
        <time>2015-06-08T20:57:32.792Z</time>
      </trkpt>
      <trkpt lat="48.84754" lon="2.37436">
        <ele>93.5</ele>
        <time>2015-06-08T20:57:33.670Z</time>
      </trkpt>
      <trkpt lat="48.84757" lon="2.37431">
        <ele>93.5</ele>
        <time>2015-06-08T20:57:34.674Z</time>
      </trkpt>
      <trkpt lat="48.84762" lon="2.37425">
        <ele>93</ele>
        <time>2015-06-08T20:57:35.600Z</time>
      </trkpt>
      <trkpt lat="48.84766" lon="2.37419">
        <ele>92.8</ele>
        <time>2015-06-08T20:57:36.600Z</time>
      </trkpt>
      <trkpt lat="48.84769" lon="2.37413">
        <ele>92.3</ele>
        <time>2015-06-08T20:57:37.601Z</time>
      </trkpt>
      <trkpt lat="48.84773" lon="2.37407">
        <ele>92</ele>
        <time>2015-06-08T20:57:38.644Z</time>
      </trkpt>
      <trkpt lat="48.84776" lon="2.374">
        <ele>92</ele>
        <time>2015-06-08T20:57:39.636Z</time>
      </trkpt>
      <trkpt lat="48.84779" lon="2.37394">
        <ele>92.1</ele>
        <time>2015-06-08T20:57:40.650Z</time>
      </trkpt>
      <trkpt lat="48.84784" lon="2.37388">
        <ele>92.7</ele>
        <time>2015-06-08T20:57:41.662Z</time>
      </trkpt>
      <trkpt lat="48.84789" lon="2.37382">
        <ele>93.2</ele>
        <time>2015-06-08T20:57:42.670Z</time>
      </trkpt>
      <trkpt lat="48.84793" lon="2.37377">
        <ele>93.7</ele>
        <time>2015-06-08T20:57:43.688Z</time>
      </trkpt>
      <trkpt lat="48.84796" lon="2.3737">
        <ele>93.9</ele>
        <time>2015-06-08T20:57:44.716Z</time>
      </trkpt>
      <trkpt lat="48.848" lon="2.37363">
        <ele>93.7</ele>
        <time>2015-06-08T20:57:45.612Z</time>
      </trkpt>
      <trkpt lat="48.84804" lon="2.37358">
        <ele>93.8</ele>
        <time>2015-06-08T20:57:46.616Z</time>
      </trkpt>
      <trkpt lat="48.84807" lon="2.37352">
        <ele>93.8</ele>
        <time>2015-06-08T20:57:47.620Z</time>
      </trkpt>
      <trkpt lat="48.84811" lon="2.37346">
        <ele>92.8</ele>
        <time>2015-06-08T20:57:48.626Z</time>
      </trkpt>
      <trkpt lat="48.84816" lon="2.37334">
        <ele>93.1</ele>
        <time>2015-06-08T20:57:50.661Z</time>
      </trkpt>
      <trkpt lat="48.84818" lon="2.37329">
        <ele>93.2</ele>
        <time>2015-06-08T20:57:51.656Z</time>
      </trkpt>
      <trkpt lat="48.84822" lon="2.37324">
        <ele>93.7</ele>
        <time>2015-06-08T20:57:52.693Z</time>
      </trkpt>
      <trkpt lat="48.84824" lon="2.37317">
        <ele>93.9</ele>
        <time>2015-06-08T20:57:53.703Z</time>
      </trkpt>
      <trkpt lat="48.84827" lon="2.37312">
        <ele>94.3</ele>
        <time>2015-06-08T20:57:54.600Z</time>
      </trkpt>
      <trkpt lat="48.8483" lon="2.37305">
        <ele>94.2</ele>
        <time>2015-06-08T20:57:55.609Z</time>
      </trkpt>
      <trkpt lat="48.84833" lon="2.37299">
        <ele>93.7</ele>
        <time>2015-06-08T20:57:56.658Z</time>
      </trkpt>
      <trkpt lat="48.84836" lon="2.37294">
        <ele>93.9</ele>
        <time>2015-06-08T20:57:57.663Z</time>
      </trkpt>
      <trkpt lat="48.84841" lon="2.37284">
        <ele>93.6</ele>
        <time>2015-06-08T20:57:59.684Z</time>
      </trkpt>
      <trkpt lat="48.84844" lon="2.37279">
        <ele>93.5</ele>
        <time>2015-06-08T20:58:00.698Z</time>
      </trkpt>
      <trkpt lat="48.84847" lon="2.37274">
        <ele>93.2</ele>
        <time>2015-06-08T20:58:01.634Z</time>
      </trkpt>
      <trkpt lat="48.84851" lon="2.3727">
        <ele>92.9</ele>
        <time>2015-06-08T20:58:02.658Z</time>
      </trkpt>
      <trkpt lat="48.84857" lon="2.3726">
        <ele>92.9</ele>
        <time>2015-06-08T20:58:05.680Z</time>
      </trkpt>
      <trkpt lat="48.84858" lon="2.37257">
        <ele>93.7</ele>
        <time>2015-06-08T20:58:06.701Z</time>
      </trkpt>
      <trkpt lat="48.84864" lon="2.3725">
        <ele>94.7</ele>
        <time>2015-06-08T20:58:11.636Z</time>
      </trkpt>
      <trkpt lat="48.84865" lon="2.37247">
        <ele>94.9</ele>
        <time>2015-06-08T20:58:12.862Z</time>
      </trkpt>
      <trkpt lat="48.84869" lon="2.37238">
        <ele>95</ele>
        <time>2015-06-08T20:58:15.752Z</time>
      </trkpt>
      <trkpt lat="48.84871" lon="2.37234">
        <ele>95</ele>
        <time>2015-06-08T20:58:16.673Z</time>
      </trkpt>
      <trkpt lat="48.84877" lon="2.37228">
        <ele>94.2</ele>
        <time>2015-06-08T20:58:19.641Z</time>
      </trkpt>
      <trkpt lat="48.84879" lon="2.37224">
        <ele>94</ele>
        <time>2015-06-08T20:58:20.639Z</time>
      </trkpt>
      <trkpt lat="48.84883" lon="2.37216">
        <ele>94.2</ele>
        <time>2015-06-08T20:58:22.678Z</time>
      </trkpt>
      <trkpt lat="48.84885" lon="2.37212">
        <ele>94.3</ele>
        <time>2015-06-08T20:58:23.665Z</time>
      </trkpt>
      <trkpt lat="48.84888" lon="2.37202">
        <ele>94.7</ele>
        <time>2015-06-08T20:58:25.655Z</time>
      </trkpt>
      <trkpt lat="48.8489" lon="2.37197">
        <ele>94.9</ele>
        <time>2015-06-08T20:58:26.788Z</time>
      </trkpt>
      <trkpt lat="48.84893" lon="2.37185">
        <ele>95.6</ele>
        <time>2015-06-08T20:58:28.666Z</time>
      </trkpt>
      <trkpt lat="48.84894" lon="2.37178">
        <ele>95.9</ele>
        <time>2015-06-08T20:58:29.654Z</time>
      </trkpt>
      <trkpt lat="48.84898" lon="2.37166">
        <ele>96.2</ele>
        <time>2015-06-08T20:58:31.685Z</time>
      </trkpt>
      <trkpt lat="48.84899" lon="2.3716">
        <ele>96.2</ele>
        <time>2015-06-08T20:58:32.710Z</time>
      </trkpt>
      <trkpt lat="48.84902" lon="2.37153">
        <ele>96.1</ele>
        <time>2015-06-08T20:58:33.609Z</time>
      </trkpt>
      <trkpt lat="48.84904" lon="2.37147">
        <ele>96.4</ele>
        <time>2015-06-08T20:58:34.642Z</time>
      </trkpt>
      <trkpt lat="48.84907" lon="2.37141">
        <ele>96.6</ele>
        <time>2015-06-08T20:58:35.657Z</time>
      </trkpt>
      <trkpt lat="48.8491" lon="2.37135">
        <ele>96.6</ele>
        <time>2015-06-08T20:58:36.666Z</time>
      </trkpt>
      <trkpt lat="48.84916" lon="2.3713">
        <ele>96.1</ele>
        <time>2015-06-08T20:58:37.600Z</time>
      </trkpt>
      <trkpt lat="48.8492" lon="2.37124">
        <ele>96.1</ele>
        <time>2015-06-08T20:58:38.659Z</time>
      </trkpt>
      <trkpt lat="48.84924" lon="2.37117">
        <ele>96.5</ele>
        <time>2015-06-08T20:58:39.685Z</time>
      </trkpt>
      <trkpt lat="48.84929" lon="2.37111">
        <ele>96.8</ele>
        <time>2015-06-08T20:58:40.602Z</time>
      </trkpt>
      <trkpt lat="48.84932" lon="2.37105">
        <ele>97</ele>
        <time>2015-06-08T20:58:41.786Z</time>
      </trkpt>
      <trkpt lat="48.84935" lon="2.37098">
        <ele>97</ele>
        <time>2015-06-08T20:58:42.614Z</time>
      </trkpt>
      <trkpt lat="48.8494" lon="2.37093">
        <ele>97.5</ele>
        <time>2015-06-08T20:58:43.613Z</time>
      </trkpt>
      <trkpt lat="48.84944" lon="2.37086">
        <ele>97.4</ele>
        <time>2015-06-08T20:58:44.682Z</time>
      </trkpt>
      <trkpt lat="48.84948" lon="2.37079">
        <ele>97.6</ele>
        <time>2015-06-08T20:58:45.613Z</time>
      </trkpt>
      <trkpt lat="48.84953" lon="2.37073">
        <ele>98.2</ele>
        <time>2015-06-08T20:58:46.611Z</time>
      </trkpt>
      <trkpt lat="48.84957" lon="2.37067">
        <ele>98.6</ele>
        <time>2015-06-08T20:58:47.618Z</time>
      </trkpt>
      <trkpt lat="48.84962" lon="2.37061">
        <ele>99</ele>
        <time>2015-06-08T20:58:48.631Z</time>
      </trkpt>
      <trkpt lat="48.84966" lon="2.37056">
        <ele>99.3</ele>
        <time>2015-06-08T20:58:49.656Z</time>
      </trkpt>
      <trkpt lat="48.8497" lon="2.37049">
        <ele>99.2</ele>
        <time>2015-06-08T20:58:50.662Z</time>
      </trkpt>
      <trkpt lat="48.84974" lon="2.37047">
        <ele>99.2</ele>
        <time>2015-06-08T20:58:51.680Z</time>
      </trkpt>
      <trkpt lat="48.84979" lon="2.37045">
        <ele>99.5</ele>
        <time>2015-06-08T20:58:52.608Z</time>
      </trkpt>
      <trkpt lat="48.84984" lon="2.37043">
        <ele>99.4</ele>
        <time>2015-06-08T20:58:53.612Z</time>
      </trkpt>
      <trkpt lat="48.8499" lon="2.37041">
        <ele>99.2</ele>
        <time>2015-06-08T20:58:54.624Z</time>
      </trkpt>
      <trkpt lat="48.84994" lon="2.3704">
        <ele>99.1</ele>
        <time>2015-06-08T20:58:55.633Z</time>
      </trkpt>
      <trkpt lat="48.85" lon="2.37039">
        <ele>99.2</ele>
        <time>2015-06-08T20:58:56.653Z</time>
      </trkpt>
      <trkpt lat="48.85005" lon="2.37039">
        <ele>99.4</ele>
        <time>2015-06-08T20:58:57.675Z</time>
      </trkpt>
      <trkpt lat="48.85009" lon="2.37036">
        <ele>99.6</ele>
        <time>2015-06-08T20:58:58.684Z</time>
      </trkpt>
      <trkpt lat="48.85016" lon="2.3703">
        <ele>99.7</ele>
        <time>2015-06-08T20:59:00.611Z</time>
      </trkpt>
      <trkpt lat="48.8502" lon="2.37028">
        <ele>99.8</ele>
        <time>2015-06-08T20:59:01.632Z</time>
      </trkpt>
      <trkpt lat="48.85025" lon="2.37026">
        <ele>100.2</ele>
        <time>2015-06-08T20:59:02.669Z</time>
      </trkpt>
      <trkpt lat="48.8503" lon="2.37024">
        <ele>100.2</ele>
        <time>2015-06-08T20:59:03.673Z</time>
      </trkpt>
      <trkpt lat="48.85037" lon="2.37021">
        <ele>98.7</ele>
        <time>2015-06-08T20:59:04.578Z</time>
      </trkpt>
      <trkpt lat="48.85044" lon="2.37019">
        <ele>97.4</ele>
        <time>2015-06-08T20:59:05.612Z</time>
      </trkpt>
      <trkpt lat="48.85049" lon="2.37018">
        <ele>97.7</ele>
        <time>2015-06-08T20:59:06.609Z</time>
      </trkpt>
      <trkpt lat="48.85055" lon="2.37017">
        <ele>98.1</ele>
        <time>2015-06-08T20:59:07.617Z</time>
      </trkpt>
      <trkpt lat="48.8506" lon="2.37015">
        <ele>98.4</ele>
        <time>2015-06-08T20:59:08.648Z</time>
      </trkpt>
      <trkpt lat="48.85064" lon="2.37012">
        <ele>98.9</ele>
        <time>2015-06-08T20:59:09.652Z</time>
      </trkpt>
      <trkpt lat="48.85069" lon="2.3701">
        <ele>99.2</ele>
        <time>2015-06-08T20:59:10.655Z</time>
      </trkpt>
      <trkpt lat="48.85073" lon="2.37005">
        <ele>99.2</ele>
        <time>2015-06-08T20:59:11.660Z</time>
      </trkpt>
      <trkpt lat="48.85078" lon="2.37002">
        <ele>99.6</ele>
        <time>2015-06-08T20:59:12.671Z</time>
      </trkpt>
      <trkpt lat="48.85082" lon="2.37">
        <ele>100</ele>
        <time>2015-06-08T20:59:13.691Z</time>
      </trkpt>
      <trkpt lat="48.85087" lon="2.36999">
        <ele>100.4</ele>
        <time>2015-06-08T20:59:14.709Z</time>
      </trkpt>
      <trkpt lat="48.85091" lon="2.36997">
        <ele>100.7</ele>
        <time>2015-06-08T20:59:15.623Z</time>
      </trkpt>
      <trkpt lat="48.85097" lon="2.36996">
        <ele>100.9</ele>
        <time>2015-06-08T20:59:16.627Z</time>
      </trkpt>
      <trkpt lat="48.85101" lon="2.36994">
        <ele>100.9</ele>
        <time>2015-06-08T20:59:17.642Z</time>
      </trkpt>
      <trkpt lat="48.85106" lon="2.36993">
        <ele>101.2</ele>
        <time>2015-06-08T20:59:18.664Z</time>
      </trkpt>
      <trkpt lat="48.8511" lon="2.36992">
        <ele>101.2</ele>
        <time>2015-06-08T20:59:19.676Z</time>
      </trkpt>
      <trkpt lat="48.85115" lon="2.3699">
        <ele>101.5</ele>
        <time>2015-06-08T20:59:20.678Z</time>
      </trkpt>
      <trkpt lat="48.8512" lon="2.36988">
        <ele>101.9</ele>
        <time>2015-06-08T20:59:21.597Z</time>
      </trkpt>
      <trkpt lat="48.85124" lon="2.36986">
        <ele>102.2</ele>
        <time>2015-06-08T20:59:22.603Z</time>
      </trkpt>
      <trkpt lat="48.85129" lon="2.36983">
        <ele>102.3</ele>
        <time>2015-06-08T20:59:23.599Z</time>
      </trkpt>
      <trkpt lat="48.85134" lon="2.36981">
        <ele>102.3</ele>
        <time>2015-06-08T20:59:24.604Z</time>
      </trkpt>
      <trkpt lat="48.85139" lon="2.36978">
        <ele>102.4</ele>
        <time>2015-06-08T20:59:25.613Z</time>
      </trkpt>
      <trkpt lat="48.85144" lon="2.36975">
        <ele>102.2</ele>
        <time>2015-06-08T20:59:26.648Z</time>
      </trkpt>
      <trkpt lat="48.85152" lon="2.36973">
        <ele>100.6</ele>
        <time>2015-06-08T20:59:27.652Z</time>
      </trkpt>
      <trkpt lat="48.85158" lon="2.36969">
        <ele>99.1</ele>
        <time>2015-06-08T20:59:28.663Z</time>
      </trkpt>
      <trkpt lat="48.85164" lon="2.36968">
        <ele>98</ele>
        <time>2015-06-08T20:59:29.669Z</time>
      </trkpt>
      <trkpt lat="48.85169" lon="2.36966">
        <ele>96.9</ele>
        <time>2015-06-08T20:59:30.677Z</time>
      </trkpt>
      <trkpt lat="48.85174" lon="2.36963">
        <ele>96.2</ele>
        <time>2015-06-08T20:59:31.597Z</time>
      </trkpt>
      <trkpt lat="48.85179" lon="2.36961">
        <ele>95.6</ele>
        <time>2015-06-08T20:59:32.680Z</time>
      </trkpt>
      <trkpt lat="48.85183" lon="2.36959">
        <ele>95</ele>
        <time>2015-06-08T20:59:33.656Z</time>
      </trkpt>
      <trkpt lat="48.85187" lon="2.36957">
        <ele>94.8</ele>
        <time>2015-06-08T20:59:34.588Z</time>
      </trkpt>
      <trkpt lat="48.85193" lon="2.36956">
        <ele>94.6</ele>
        <time>2015-06-08T20:59:35.588Z</time>
      </trkpt>
      <trkpt lat="48.85198" lon="2.36954">
        <ele>94.9</ele>
        <time>2015-06-08T20:59:36.594Z</time>
      </trkpt>
      <trkpt lat="48.85202" lon="2.36951">
        <ele>94.5</ele>
        <time>2015-06-08T20:59:37.607Z</time>
      </trkpt>
      <trkpt lat="48.8521" lon="2.36948">
        <ele>94.3</ele>
        <time>2015-06-08T20:59:39.655Z</time>
      </trkpt>
      <trkpt lat="48.85213" lon="2.36947">
        <ele>93.9</ele>
        <time>2015-06-08T20:59:40.568Z</time>
      </trkpt>
      <trkpt lat="48.85221" lon="2.36945">
        <ele>93.3</ele>
        <time>2015-06-08T20:59:41.500Z</time>
      </trkpt>
      <trkpt lat="48.85224" lon="2.36943">
        <ele>93.2</ele>
        <time>2015-06-08T20:59:43.661Z</time>
      </trkpt>
      <trkpt lat="48.8523" lon="2.36943">
        <ele>93.4</ele>
        <time>2015-06-08T20:59:45.705Z</time>
      </trkpt>
      <trkpt lat="48.85235" lon="2.36944">
        <ele>93.3</ele>
        <time>2015-06-08T20:59:46.607Z</time>
      </trkpt>
      <trkpt lat="48.85242" lon="2.36944">
        <ele>93.1</ele>
        <time>2015-06-08T20:59:48.767Z</time>
      </trkpt>
      <trkpt lat="48.85244" lon="2.36944">
        <ele>93.1</ele>
        <time>2015-06-08T20:59:49.743Z</time>
      </trkpt>
      <trkpt lat="48.85253" lon="2.36945">
        <ele>94</ele>
        <time>2015-06-08T20:59:53.745Z</time>
      </trkpt>
      <trkpt lat="48.85256" lon="2.36949">
        <ele>94.2</ele>
        <time>2015-06-08T20:59:54.771Z</time>
      </trkpt>
      <trkpt lat="48.85253" lon="2.36961">
        <ele>93.8</ele>
        <time>2015-06-08T21:02:28.626Z</time>
      </trkpt>
      <trkpt lat="48.85245" lon="2.36944">
        <ele>98.4</ele>
        <time>2015-06-08T21:02:29.613Z</time>
      </trkpt>
      <trkpt lat="48.85253" lon="2.3694">
        <ele>98.5</ele>
        <time>2015-06-08T21:02:33.656Z</time>
      </trkpt>
      <trkpt lat="48.85255" lon="2.36941">
        <ele>98.2</ele>
        <time>2015-06-08T21:02:34.690Z</time>
      </trkpt>
      <trkpt lat="48.85263" lon="2.36938">
        <ele>97.4</ele>
        <time>2015-06-08T21:02:39.652Z</time>
      </trkpt>
      <trkpt lat="48.85264" lon="2.36937">
        <ele>97</ele>
        <time>2015-06-08T21:02:40.670Z</time>
      </trkpt>
      <trkpt lat="48.85268" lon="2.36927">
        <ele>96.1</ele>
        <time>2015-06-08T21:02:45.660Z</time>
      </trkpt>
      <trkpt lat="48.85269" lon="2.36925">
        <ele>95.8</ele>
        <time>2015-06-08T21:02:46.672Z</time>
      </trkpt>
      <trkpt lat="48.85271" lon="2.36912">
        <ele>94.9</ele>
        <time>2015-06-08T21:02:51.619Z</time>
      </trkpt>
      <trkpt lat="48.8527" lon="2.36908">
        <ele>94.8</ele>
        <time>2015-06-08T21:02:52.676Z</time>
      </trkpt>
      <trkpt lat="48.85271" lon="2.36899">
        <ele>94.8</ele>
        <time>2015-06-08T21:02:55.649Z</time>
      </trkpt>
      <trkpt lat="48.85272" lon="2.36895">
        <ele>94.6</ele>
        <time>2015-06-08T21:02:56.666Z</time>
      </trkpt>
      <trkpt lat="48.85275" lon="2.36884">
        <ele>94.3</ele>
        <time>2015-06-08T21:02:59.697Z</time>
      </trkpt>
      <trkpt lat="48.85275" lon="2.36879">
        <ele>94</ele>
        <time>2015-06-08T21:03:00.631Z</time>
      </trkpt>
      <trkpt lat="48.85277" lon="2.36871">
        <ele>93.5</ele>
        <time>2015-06-08T21:03:02.701Z</time>
      </trkpt>
      <trkpt lat="48.85278" lon="2.36866">
        <ele>93.2</ele>
        <time>2015-06-08T21:03:03.649Z</time>
      </trkpt>
      <trkpt lat="48.8528" lon="2.36855">
        <ele>92.8</ele>
        <time>2015-06-08T21:03:06.645Z</time>
      </trkpt>
      <trkpt lat="48.8528" lon="2.36851">
        <ele>92.9</ele>
        <time>2015-06-08T21:03:07.825Z</time>
      </trkpt>
      <trkpt lat="48.85281" lon="2.36838">
        <ele>93.5</ele>
        <time>2015-06-08T21:03:13.644Z</time>
      </trkpt>
      <trkpt lat="48.85279" lon="2.36835">
        <ele>93.6</ele>
        <time>2015-06-08T21:03:14.762Z</time>
      </trkpt>
      <trkpt lat="48.85276" lon="2.36824">
        <ele>94.2</ele>
        <time>2015-06-08T21:03:18.678Z</time>
      </trkpt>
      <trkpt lat="48.85276" lon="2.36822">
        <ele>94.6</ele>
        <time>2015-06-08T21:03:19.710Z</time>
      </trkpt>
      <trkpt lat="48.85276" lon="2.36813">
        <ele>94.5</ele>
        <time>2015-06-08T21:03:40.626Z</time>
      </trkpt>
      <trkpt lat="48.85291" lon="2.36816">
        <ele>87.1</ele>
        <time>2015-06-08T21:03:41.685Z</time>
      </trkpt>
      <trkpt lat="48.85299" lon="2.3682">
        <ele>86.3</ele>
        <time>2015-06-08T21:03:44.687Z</time>
      </trkpt>
      <trkpt lat="48.85301" lon="2.36821">
        <ele>86.5</ele>
        <time>2015-06-08T21:03:45.682Z</time>
      </trkpt>
      <trkpt lat="48.8531" lon="2.36823">
        <ele>86.2</ele>
        <time>2015-06-08T21:03:49.664Z</time>
      </trkpt>
      <trkpt lat="48.85313" lon="2.36823">
        <ele>87</ele>
        <time>2015-06-08T21:03:50.685Z</time>
      </trkpt>
      <trkpt lat="48.85319" lon="2.36819">
        <ele>87.6</ele>
        <time>2015-06-08T21:03:54.670Z</time>
      </trkpt>
      <trkpt lat="48.85321" lon="2.36816">
        <ele>87.4</ele>
        <time>2015-06-08T21:03:55.673Z</time>
      </trkpt>
      <trkpt lat="48.85325" lon="2.36805">
        <ele>86</ele>
        <time>2015-06-08T21:03:58.673Z</time>
      </trkpt>
      <trkpt lat="48.85326" lon="2.36803">
        <ele>86.2</ele>
        <time>2015-06-08T21:03:59.682Z</time>
      </trkpt>
      <trkpt lat="48.8533" lon="2.36797">
        <ele>86.2</ele>
        <time>2015-06-08T21:04:01.627Z</time>
      </trkpt>
      <trkpt lat="48.85334" lon="2.36793">
        <ele>86.3</ele>
        <time>2015-06-08T21:04:02.710Z</time>
      </trkpt>
      <trkpt lat="48.85338" lon="2.36785">
        <ele>86.3</ele>
        <time>2015-06-08T21:04:04.653Z</time>
      </trkpt>
      <trkpt lat="48.85339" lon="2.36781">
        <ele>86.6</ele>
        <time>2015-06-08T21:04:05.685Z</time>
      </trkpt>
      <trkpt lat="48.85337" lon="2.36772">
        <ele>86.5</ele>
        <time>2015-06-08T21:04:07.670Z</time>
      </trkpt>
      <trkpt lat="48.85338" lon="2.36768">
        <ele>86.7</ele>
        <time>2015-06-08T21:04:08.718Z</time>
      </trkpt>
      <trkpt lat="48.85339" lon="2.36755">
        <ele>87.2</ele>
        <time>2015-06-08T21:04:11.700Z</time>
      </trkpt>
      <trkpt lat="48.8534" lon="2.36751">
        <ele>87</ele>
        <time>2015-06-08T21:04:12.722Z</time>
      </trkpt>
      <trkpt lat="48.85344" lon="2.36742">
        <ele>86.9</ele>
        <time>2015-06-08T21:04:14.679Z</time>
      </trkpt>
      <trkpt lat="48.85345" lon="2.36737">
        <ele>86.9</ele>
        <time>2015-06-08T21:04:15.693Z</time>
      </trkpt>
      <trkpt lat="48.85348" lon="2.36729">
        <ele>86.8</ele>
        <time>2015-06-08T21:04:17.644Z</time>
      </trkpt>
      <trkpt lat="48.8535" lon="2.36723">
        <ele>86.7</ele>
        <time>2015-06-08T21:04:18.652Z</time>
      </trkpt>
      <trkpt lat="48.85353" lon="2.36712">
        <ele>86.6</ele>
        <time>2015-06-08T21:04:20.664Z</time>
      </trkpt>
      <trkpt lat="48.85352" lon="2.36706">
        <ele>86.9</ele>
        <time>2015-06-08T21:04:21.680Z</time>
      </trkpt>
      <trkpt lat="48.85354" lon="2.36694">
        <ele>87.4</ele>
        <time>2015-06-08T21:04:23.629Z</time>
      </trkpt>
      <trkpt lat="48.85353" lon="2.36687">
        <ele>87.3</ele>
        <time>2015-06-08T21:04:24.676Z</time>
      </trkpt>
      <trkpt lat="48.85354" lon="2.36675">
        <ele>88.1</ele>
        <time>2015-06-08T21:04:26.902Z</time>
      </trkpt>
      <trkpt lat="48.85355" lon="2.36668">
        <ele>88.8</ele>
        <time>2015-06-08T21:04:27.653Z</time>
      </trkpt>
      <trkpt lat="48.85354" lon="2.36655">
        <ele>89.4</ele>
        <time>2015-06-08T21:04:29.636Z</time>
      </trkpt>
      <trkpt lat="48.85355" lon="2.36648">
        <ele>89.7</ele>
        <time>2015-06-08T21:04:30.630Z</time>
      </trkpt>
      <trkpt lat="48.85358" lon="2.36635">
        <ele>90.1</ele>
        <time>2015-06-08T21:04:32.663Z</time>
      </trkpt>
      <trkpt lat="48.85359" lon="2.36628">
        <ele>90.3</ele>
        <time>2015-06-08T21:04:33.674Z</time>
      </trkpt>
      <trkpt lat="48.85359" lon="2.36622">
        <ele>90.2</ele>
        <time>2015-06-08T21:04:34.639Z</time>
      </trkpt>
      <trkpt lat="48.8536" lon="2.36615">
        <ele>90.5</ele>
        <time>2015-06-08T21:04:35.588Z</time>
      </trkpt>
      <trkpt lat="48.85361" lon="2.36608">
        <ele>90.7</ele>
        <time>2015-06-08T21:04:36.648Z</time>
      </trkpt>
      <trkpt lat="48.85362" lon="2.36601">
        <ele>91</ele>
        <time>2015-06-08T21:04:37.660Z</time>
      </trkpt>
      <trkpt lat="48.85364" lon="2.36595">
        <ele>91</ele>
        <time>2015-06-08T21:04:38.678Z</time>
      </trkpt>
      <trkpt lat="48.85366" lon="2.36589">
        <ele>91.2</ele>
        <time>2015-06-08T21:04:39.684Z</time>
      </trkpt>
      <trkpt lat="48.85372" lon="2.36579">
        <ele>90.8</ele>
        <time>2015-06-08T21:04:41.580Z</time>
      </trkpt>
      <trkpt lat="48.85372" lon="2.36572">
        <ele>91.2</ele>
        <time>2015-06-08T21:04:42.656Z</time>
      </trkpt>
      <trkpt lat="48.85375" lon="2.36559">
        <ele>91.1</ele>
        <time>2015-06-08T21:04:44.643Z</time>
      </trkpt>
      <trkpt lat="48.85376" lon="2.36553">
        <ele>91.3</ele>
        <time>2015-06-08T21:04:45.650Z</time>
      </trkpt>
      <trkpt lat="48.85378" lon="2.36546">
        <ele>91.6</ele>
        <time>2015-06-08T21:04:46.667Z</time>
      </trkpt>
      <trkpt lat="48.8538" lon="2.36539">
        <ele>92</ele>
        <time>2015-06-08T21:04:47.582Z</time>
      </trkpt>
      <trkpt lat="48.85381" lon="2.36532">
        <ele>92.2</ele>
        <time>2015-06-08T21:04:48.573Z</time>
      </trkpt>
      <trkpt lat="48.85382" lon="2.36525">
        <ele>92.2</ele>
        <time>2015-06-08T21:04:49.628Z</time>
      </trkpt>
      <trkpt lat="48.85383" lon="2.36518">
        <ele>92.2</ele>
        <time>2015-06-08T21:04:50.639Z</time>
      </trkpt>
      <trkpt lat="48.85384" lon="2.36511">
        <ele>92.7</ele>
        <time>2015-06-08T21:04:51.642Z</time>
      </trkpt>
      <trkpt lat="48.85385" lon="2.36504">
        <ele>92.9</ele>
        <time>2015-06-08T21:04:52.656Z</time>
      </trkpt>
      <trkpt lat="48.85387" lon="2.36497">
        <ele>92.9</ele>
        <time>2015-06-08T21:04:53.665Z</time>
      </trkpt>
      <trkpt lat="48.85389" lon="2.36491">
        <ele>93.3</ele>
        <time>2015-06-08T21:04:55.103Z</time>
      </trkpt>
      <trkpt lat="48.8539" lon="2.36484">
        <ele>93.3</ele>
        <time>2015-06-08T21:04:55.683Z</time>
      </trkpt>
      <trkpt lat="48.85394" lon="2.36473">
        <ele>93</ele>
        <time>2015-06-08T21:04:57.611Z</time>
      </trkpt>
      <trkpt lat="48.85397" lon="2.36466">
        <ele>93.1</ele>
        <time>2015-06-08T21:04:58.644Z</time>
      </trkpt>
      <trkpt lat="48.854" lon="2.36459">
        <ele>93</ele>
        <time>2015-06-08T21:05:00.515Z</time>
      </trkpt>
      <trkpt lat="48.85403" lon="2.36453">
        <ele>92.8</ele>
        <time>2015-06-08T21:05:00.585Z</time>
      </trkpt>
      <trkpt lat="48.85406" lon="2.36447">
        <ele>92.6</ele>
        <time>2015-06-08T21:05:01.611Z</time>
      </trkpt>
      <trkpt lat="48.85408" lon="2.36439">
        <ele>92.2</ele>
        <time>2015-06-08T21:05:02.666Z</time>
      </trkpt>
      <trkpt lat="48.8541" lon="2.36432">
        <ele>92.1</ele>
        <time>2015-06-08T21:05:03.654Z</time>
      </trkpt>
      <trkpt lat="48.85412" lon="2.36425">
        <ele>92.2</ele>
        <time>2015-06-08T21:05:04.660Z</time>
      </trkpt>
      <trkpt lat="48.85414" lon="2.36418">
        <ele>92</ele>
        <time>2015-06-08T21:05:05.568Z</time>
      </trkpt>
      <trkpt lat="48.85415" lon="2.36411">
        <ele>92.1</ele>
        <time>2015-06-08T21:05:06.596Z</time>
      </trkpt>
      <trkpt lat="48.85415" lon="2.36403">
        <ele>92.1</ele>
        <time>2015-06-08T21:05:07.613Z</time>
      </trkpt>
      <trkpt lat="48.85416" lon="2.36395">
        <ele>92.3</ele>
        <time>2015-06-08T21:05:08.658Z</time>
      </trkpt>
      <trkpt lat="48.85417" lon="2.36386">
        <ele>92.3</ele>
        <time>2015-06-08T21:05:09.675Z</time>
      </trkpt>
      <trkpt lat="48.85419" lon="2.36379">
        <ele>92.3</ele>
        <time>2015-06-08T21:05:10.731Z</time>
      </trkpt>
      <trkpt lat="48.85422" lon="2.36373">
        <ele>92.1</ele>
        <time>2015-06-08T21:05:11.600Z</time>
      </trkpt>
      <trkpt lat="48.85425" lon="2.36367">
        <ele>91.9</ele>
        <time>2015-06-08T21:05:12.602Z</time>
      </trkpt>
      <trkpt lat="48.85427" lon="2.3636">
        <ele>92</ele>
        <time>2015-06-08T21:05:13.629Z</time>
      </trkpt>
      <trkpt lat="48.85429" lon="2.36354">
        <ele>91.8</ele>
        <time>2015-06-08T21:05:14.648Z</time>
      </trkpt>
      <trkpt lat="48.8543" lon="2.36348">
        <ele>92</ele>
        <time>2015-06-08T21:05:15.654Z</time>
      </trkpt>
      <trkpt lat="48.85432" lon="2.3634">
        <ele>92.1</ele>
        <time>2015-06-08T21:05:16.665Z</time>
      </trkpt>
      <trkpt lat="48.85434" lon="2.36333">
        <ele>92</ele>
        <time>2015-06-08T21:05:17.597Z</time>
      </trkpt>
      <trkpt lat="48.85434" lon="2.36325">
        <ele>92.2</ele>
        <time>2015-06-08T21:05:18.603Z</time>
      </trkpt>
      <trkpt lat="48.85435" lon="2.36317">
        <ele>92.3</ele>
        <time>2015-06-08T21:05:19.617Z</time>
      </trkpt>
      <trkpt lat="48.85437" lon="2.36309">
        <ele>92.5</ele>
        <time>2015-06-08T21:05:20.651Z</time>
      </trkpt>
      <trkpt lat="48.85438" lon="2.36302">
        <ele>92.6</ele>
        <time>2015-06-08T21:05:21.671Z</time>
      </trkpt>
      <trkpt lat="48.85439" lon="2.36295">
        <ele>92.8</ele>
        <time>2015-06-08T21:05:22.681Z</time>
      </trkpt>
      <trkpt lat="48.85442" lon="2.36289">
        <ele>92.9</ele>
        <time>2015-06-08T21:05:23.600Z</time>
      </trkpt>
      <trkpt lat="48.85445" lon="2.36283">
        <ele>93</ele>
        <time>2015-06-08T21:05:24.585Z</time>
      </trkpt>
      <trkpt lat="48.85449" lon="2.36278">
        <ele>93</ele>
        <time>2015-06-08T21:05:25.604Z</time>
      </trkpt>
      <trkpt lat="48.85452" lon="2.36272">
        <ele>93.3</ele>
        <time>2015-06-08T21:05:26.649Z</time>
      </trkpt>
      <trkpt lat="48.85455" lon="2.36266">
        <ele>93.6</ele>
        <time>2015-06-08T21:05:27.666Z</time>
      </trkpt>
      <trkpt lat="48.85459" lon="2.36261">
        <ele>93.7</ele>
        <time>2015-06-08T21:05:28.675Z</time>
      </trkpt>
      <trkpt lat="48.85461" lon="2.36254">
        <ele>94</ele>
        <time>2015-06-08T21:05:29.589Z</time>
      </trkpt>
      <trkpt lat="48.85463" lon="2.36248">
        <ele>94.2</ele>
        <time>2015-06-08T21:05:30.599Z</time>
      </trkpt>
      <trkpt lat="48.85465" lon="2.36241">
        <ele>94.4</ele>
        <time>2015-06-08T21:05:31.614Z</time>
      </trkpt>
      <trkpt lat="48.85467" lon="2.36235">
        <ele>94.4</ele>
        <time>2015-06-08T21:05:32.646Z</time>
      </trkpt>
      <trkpt lat="48.8547" lon="2.36222">
        <ele>94.5</ele>
        <time>2015-06-08T21:05:34.592Z</time>
      </trkpt>
      <trkpt lat="48.85473" lon="2.36217">
        <ele>94.7</ele>
        <time>2015-06-08T21:05:35.620Z</time>
      </trkpt>
      <trkpt lat="48.85478" lon="2.36207">
        <ele>95</ele>
        <time>2015-06-08T21:05:37.643Z</time>
      </trkpt>
      <trkpt lat="48.85481" lon="2.36203">
        <ele>95.4</ele>
        <time>2015-06-08T21:05:38.658Z</time>
      </trkpt>
      <trkpt lat="48.85486" lon="2.36195">
        <ele>96</ele>
        <time>2015-06-08T21:05:40.594Z</time>
      </trkpt>
      <trkpt lat="48.85488" lon="2.3619">
        <ele>96</ele>
        <time>2015-06-08T21:05:41.604Z</time>
      </trkpt>
      <trkpt lat="48.85493" lon="2.36179">
        <ele>96.3</ele>
        <time>2015-06-08T21:05:43.652Z</time>
      </trkpt>
      <trkpt lat="48.85495" lon="2.36173">
        <ele>96.7</ele>
        <time>2015-06-08T21:05:44.668Z</time>
      </trkpt>
      <trkpt lat="48.85496" lon="2.36161">
        <ele>97.2</ele>
        <time>2015-06-08T21:05:46.589Z</time>
      </trkpt>
      <trkpt lat="48.85497" lon="2.36155">
        <ele>97.3</ele>
        <time>2015-06-08T21:05:47.628Z</time>
      </trkpt>
      <trkpt lat="48.85501" lon="2.36144">
        <ele>98.3</ele>
        <time>2015-06-08T21:05:49.723Z</time>
      </trkpt>
      <trkpt lat="48.85504" lon="2.36138">
        <ele>98.4</ele>
        <time>2015-06-08T21:05:50.721Z</time>
      </trkpt>
      <trkpt lat="48.85506" lon="2.36131">
        <ele>98.4</ele>
        <time>2015-06-08T21:05:51.589Z</time>
      </trkpt>
      <trkpt lat="48.85508" lon="2.36124">
        <ele>98.8</ele>
        <time>2015-06-08T21:05:52.587Z</time>
      </trkpt>
      <trkpt lat="48.85512" lon="2.36113">
        <ele>99.1</ele>
        <time>2015-06-08T21:05:54.641Z</time>
      </trkpt>
      <trkpt lat="48.85515" lon="2.36107">
        <ele>99.2</ele>
        <time>2015-06-08T21:05:55.664Z</time>
      </trkpt>
      <trkpt lat="48.85517" lon="2.361">
        <ele>99.4</ele>
        <time>2015-06-08T21:05:56.728Z</time>
      </trkpt>
      <trkpt lat="48.8552" lon="2.36093">
        <ele>99.6</ele>
        <time>2015-06-08T21:05:57.599Z</time>
      </trkpt>
      <trkpt lat="48.85522" lon="2.36087">
        <ele>99.6</ele>
        <time>2015-06-08T21:05:58.637Z</time>
      </trkpt>
      <trkpt lat="48.85524" lon="2.3608">
        <ele>99.5</ele>
        <time>2015-06-08T21:05:59.669Z</time>
      </trkpt>
      <trkpt lat="48.85527" lon="2.36073">
        <ele>99.3</ele>
        <time>2015-06-08T21:06:00.571Z</time>
      </trkpt>
      <trkpt lat="48.85529" lon="2.36066">
        <ele>99.4</ele>
        <time>2015-06-08T21:06:01.578Z</time>
      </trkpt>
      <trkpt lat="48.8553" lon="2.36059">
        <ele>99.2</ele>
        <time>2015-06-08T21:06:02.691Z</time>
      </trkpt>
      <trkpt lat="48.85532" lon="2.36052">
        <ele>98.9</ele>
        <time>2015-06-08T21:06:03.610Z</time>
      </trkpt>
      <trkpt lat="48.85534" lon="2.36045">
        <ele>98.7</ele>
        <time>2015-06-08T21:06:04.674Z</time>
      </trkpt>
      <trkpt lat="48.85535" lon="2.36038">
        <ele>98.6</ele>
        <time>2015-06-08T21:06:05.597Z</time>
      </trkpt>
      <trkpt lat="48.85537" lon="2.3603">
        <ele>98.7</ele>
        <time>2015-06-08T21:06:06.644Z</time>
      </trkpt>
      <trkpt lat="48.85539" lon="2.36022">
        <ele>99.3</ele>
        <time>2015-06-08T21:06:07.655Z</time>
      </trkpt>
      <trkpt lat="48.8554" lon="2.36015">
        <ele>99.6</ele>
        <time>2015-06-08T21:06:08.668Z</time>
      </trkpt>
      <trkpt lat="48.85543" lon="2.36008">
        <ele>99.6</ele>
        <time>2015-06-08T21:06:09.626Z</time>
      </trkpt>
      <trkpt lat="48.85544" lon="2.36001">
        <ele>99.5</ele>
        <time>2015-06-08T21:06:10.657Z</time>
      </trkpt>
      <trkpt lat="48.85546" lon="2.35993">
        <ele>99.7</ele>
        <time>2015-06-08T21:06:11.672Z</time>
      </trkpt>
      <trkpt lat="48.85548" lon="2.35986">
        <ele>99.9</ele>
        <time>2015-06-08T21:06:12.684Z</time>
      </trkpt>
      <trkpt lat="48.85551" lon="2.35978">
        <ele>100.1</ele>
        <time>2015-06-08T21:06:13.622Z</time>
      </trkpt>
      <trkpt lat="48.85552" lon="2.3597">
        <ele>100.1</ele>
        <time>2015-06-08T21:06:14.664Z</time>
      </trkpt>
      <trkpt lat="48.85554" lon="2.35962">
        <ele>100.2</ele>
        <time>2015-06-08T21:06:15.655Z</time>
      </trkpt>
      <trkpt lat="48.85556" lon="2.35955">
        <ele>100.4</ele>
        <time>2015-06-08T21:06:16.610Z</time>
      </trkpt>
      <trkpt lat="48.85557" lon="2.35947">
        <ele>100.3</ele>
        <time>2015-06-08T21:06:17.612Z</time>
      </trkpt>
      <trkpt lat="48.85558" lon="2.35939">
        <ele>100.2</ele>
        <time>2015-06-08T21:06:18.631Z</time>
      </trkpt>
      <trkpt lat="48.85559" lon="2.35932">
        <ele>99.7</ele>
        <time>2015-06-08T21:06:19.652Z</time>
      </trkpt>
      <trkpt lat="48.8556" lon="2.35923">
        <ele>99.8</ele>
        <time>2015-06-08T21:06:20.666Z</time>
      </trkpt>
      <trkpt lat="48.85561" lon="2.35914">
        <ele>100</ele>
        <time>2015-06-08T21:06:21.618Z</time>
      </trkpt>
      <trkpt lat="48.85563" lon="2.35907">
        <ele>100.3</ele>
        <time>2015-06-08T21:06:22.635Z</time>
      </trkpt>
      <trkpt lat="48.85563" lon="2.359">
        <ele>100.2</ele>
        <time>2015-06-08T21:06:23.624Z</time>
      </trkpt>
      <trkpt lat="48.85565" lon="2.35892">
        <ele>100.2</ele>
        <time>2015-06-08T21:06:24.655Z</time>
      </trkpt>
      <trkpt lat="48.85566" lon="2.35885">
        <ele>100.2</ele>
        <time>2015-06-08T21:06:25.654Z</time>
      </trkpt>
      <trkpt lat="48.85567" lon="2.35878">
        <ele>100.1</ele>
        <time>2015-06-08T21:06:26.665Z</time>
      </trkpt>
      <trkpt lat="48.85569" lon="2.3587">
        <ele>100.5</ele>
        <time>2015-06-08T21:06:27.671Z</time>
      </trkpt>
      <trkpt lat="48.8557" lon="2.35863">
        <ele>100.3</ele>
        <time>2015-06-08T21:06:28.587Z</time>
      </trkpt>
      <trkpt lat="48.85572" lon="2.35856">
        <ele>100.6</ele>
        <time>2015-06-08T21:06:29.608Z</time>
      </trkpt>
      <trkpt lat="48.85574" lon="2.35849">
        <ele>100.9</ele>
        <time>2015-06-08T21:06:30.623Z</time>
      </trkpt>
      <trkpt lat="48.85575" lon="2.35842">
        <ele>101.1</ele>
        <time>2015-06-08T21:06:31.631Z</time>
      </trkpt>
      <trkpt lat="48.85576" lon="2.35834">
        <ele>101.1</ele>
        <time>2015-06-08T21:06:32.658Z</time>
      </trkpt>
      <trkpt lat="48.85578" lon="2.35827">
        <ele>101</ele>
        <time>2015-06-08T21:06:33.658Z</time>
      </trkpt>
      <trkpt lat="48.8558" lon="2.3582">
        <ele>101.2</ele>
        <time>2015-06-08T21:06:34.682Z</time>
      </trkpt>
      <trkpt lat="48.85582" lon="2.35813">
        <ele>101.2</ele>
        <time>2015-06-08T21:06:35.622Z</time>
      </trkpt>
      <trkpt lat="48.85585" lon="2.35805">
        <ele>101</ele>
        <time>2015-06-08T21:06:36.664Z</time>
      </trkpt>
      <trkpt lat="48.85589" lon="2.35799">
        <ele>101.2</ele>
        <time>2015-06-08T21:06:37.674Z</time>
      </trkpt>
      <trkpt lat="48.85591" lon="2.35792">
        <ele>101.2</ele>
        <time>2015-06-08T21:06:38.684Z</time>
      </trkpt>
      <trkpt lat="48.85593" lon="2.35785">
        <ele>101.1</ele>
        <time>2015-06-08T21:06:39.589Z</time>
      </trkpt>
      <trkpt lat="48.85594" lon="2.35778">
        <ele>100.8</ele>
        <time>2015-06-08T21:06:40.593Z</time>
      </trkpt>
      <trkpt lat="48.85596" lon="2.3577">
        <ele>100.7</ele>
        <time>2015-06-08T21:06:41.608Z</time>
      </trkpt>
      <trkpt lat="48.85597" lon="2.35763">
        <ele>100.5</ele>
        <time>2015-06-08T21:06:42.620Z</time>
      </trkpt>
      <trkpt lat="48.85597" lon="2.35755">
        <ele>100.3</ele>
        <time>2015-06-08T21:06:43.654Z</time>
      </trkpt>
      <trkpt lat="48.85598" lon="2.35747">
        <ele>100.5</ele>
        <time>2015-06-08T21:06:44.646Z</time>
      </trkpt>
      <trkpt lat="48.85599" lon="2.35738">
        <ele>100.8</ele>
        <time>2015-06-08T21:06:45.654Z</time>
      </trkpt>
      <trkpt lat="48.856" lon="2.3573">
        <ele>100.8</ele>
        <time>2015-06-08T21:06:46.668Z</time>
      </trkpt>
      <trkpt lat="48.85601" lon="2.35721">
        <ele>101.2</ele>
        <time>2015-06-08T21:06:47.585Z</time>
      </trkpt>
      <trkpt lat="48.85602" lon="2.35714">
        <ele>101.3</ele>
        <time>2015-06-08T21:06:48.597Z</time>
      </trkpt>
      <trkpt lat="48.85604" lon="2.35706">
        <ele>101.3</ele>
        <time>2015-06-08T21:06:49.605Z</time>
      </trkpt>
      <trkpt lat="48.85608" lon="2.35699">
        <ele>101.2</ele>
        <time>2015-06-08T21:06:50.633Z</time>
      </trkpt>
      <trkpt lat="48.8561" lon="2.35691">
        <ele>101.5</ele>
        <time>2015-06-08T21:06:51.638Z</time>
      </trkpt>
      <trkpt lat="48.85611" lon="2.35683">
        <ele>101.8</ele>
        <time>2015-06-08T21:06:52.646Z</time>
      </trkpt>
      <trkpt lat="48.85612" lon="2.35675">
        <ele>101.8</ele>
        <time>2015-06-08T21:06:53.651Z</time>
      </trkpt>
      <trkpt lat="48.85612" lon="2.35667">
        <ele>101.5</ele>
        <time>2015-06-08T21:06:54.657Z</time>
      </trkpt>
      <trkpt lat="48.85614" lon="2.3566">
        <ele>101.2</ele>
        <time>2015-06-08T21:06:55.664Z</time>
      </trkpt>
      <trkpt lat="48.85618" lon="2.35654">
        <ele>101.2</ele>
        <time>2015-06-08T21:06:56.676Z</time>
      </trkpt>
      <trkpt lat="48.85621" lon="2.35648">
        <ele>101.2</ele>
        <time>2015-06-08T21:06:57.581Z</time>
      </trkpt>
      <trkpt lat="48.85625" lon="2.35642">
        <ele>101.4</ele>
        <time>2015-06-08T21:06:58.593Z</time>
      </trkpt>
      <trkpt lat="48.85627" lon="2.35635">
        <ele>101.3</ele>
        <time>2015-06-08T21:06:59.599Z</time>
      </trkpt>
      <trkpt lat="48.85629" lon="2.35627">
        <ele>100.7</ele>
        <time>2015-06-08T21:07:00.627Z</time>
      </trkpt>
      <trkpt lat="48.8563" lon="2.3562">
        <ele>100.3</ele>
        <time>2015-06-08T21:07:01.631Z</time>
      </trkpt>
      <trkpt lat="48.85631" lon="2.35612">
        <ele>100.3</ele>
        <time>2015-06-08T21:07:02.641Z</time>
      </trkpt>
      <trkpt lat="48.85632" lon="2.35603">
        <ele>100.5</ele>
        <time>2015-06-08T21:07:03.656Z</time>
      </trkpt>
      <trkpt lat="48.85632" lon="2.35594">
        <ele>100.6</ele>
        <time>2015-06-08T21:07:04.658Z</time>
      </trkpt>
      <trkpt lat="48.85632" lon="2.35585">
        <ele>100.7</ele>
        <time>2015-06-08T21:07:05.578Z</time>
      </trkpt>
      <trkpt lat="48.85634" lon="2.35578">
        <ele>100.4</ele>
        <time>2015-06-08T21:07:06.587Z</time>
      </trkpt>
      <trkpt lat="48.85634" lon="2.35569">
        <ele>100.3</ele>
        <time>2015-06-08T21:07:07.586Z</time>
      </trkpt>
      <trkpt lat="48.85637" lon="2.35563">
        <ele>100.1</ele>
        <time>2015-06-08T21:07:08.633Z</time>
      </trkpt>
      <trkpt lat="48.8564" lon="2.35555">
        <ele>100</ele>
        <time>2015-06-08T21:07:09.631Z</time>
      </trkpt>
      <trkpt lat="48.85645" lon="2.35549">
        <ele>100</ele>
        <time>2015-06-08T21:07:10.639Z</time>
      </trkpt>
      <trkpt lat="48.85648" lon="2.35543">
        <ele>99.7</ele>
        <time>2015-06-08T21:07:11.645Z</time>
      </trkpt>
      <trkpt lat="48.85652" lon="2.35536">
        <ele>99.2</ele>
        <time>2015-06-08T21:07:12.646Z</time>
      </trkpt>
      <trkpt lat="48.85655" lon="2.35529">
        <ele>98.6</ele>
        <time>2015-06-08T21:07:13.577Z</time>
      </trkpt>
      <trkpt lat="48.85657" lon="2.35521">
        <ele>98.3</ele>
        <time>2015-06-08T21:07:14.633Z</time>
      </trkpt>
      <trkpt lat="48.85659" lon="2.35513">
        <ele>97.9</ele>
        <time>2015-06-08T21:07:15.623Z</time>
      </trkpt>
      <trkpt lat="48.85662" lon="2.35506">
        <ele>97.9</ele>
        <time>2015-06-08T21:07:16.633Z</time>
      </trkpt>
      <trkpt lat="48.85665" lon="2.35498">
        <ele>97.6</ele>
        <time>2015-06-08T21:07:17.655Z</time>
      </trkpt>
      <trkpt lat="48.85667" lon="2.3549">
        <ele>97.4</ele>
        <time>2015-06-08T21:07:18.669Z</time>
      </trkpt>
      <trkpt lat="48.85668" lon="2.35482">
        <ele>97.3</ele>
        <time>2015-06-08T21:07:19.558Z</time>
      </trkpt>
      <trkpt lat="48.8567" lon="2.35474">
        <ele>97.2</ele>
        <time>2015-06-08T21:07:20.635Z</time>
      </trkpt>
      <trkpt lat="48.85672" lon="2.35467">
        <ele>97</ele>
        <time>2015-06-08T21:07:21.633Z</time>
      </trkpt>
      <trkpt lat="48.85675" lon="2.35459">
        <ele>97.1</ele>
        <time>2015-06-08T21:07:22.645Z</time>
      </trkpt>
      <trkpt lat="48.85678" lon="2.35452">
        <ele>97.3</ele>
        <time>2015-06-08T21:07:23.646Z</time>
      </trkpt>
      <trkpt lat="48.85681" lon="2.35444">
        <ele>97.4</ele>
        <time>2015-06-08T21:07:24.546Z</time>
      </trkpt>
      <trkpt lat="48.85683" lon="2.35434">
        <ele>97.6</ele>
        <time>2015-06-08T21:07:25.875Z</time>
      </trkpt>
      <trkpt lat="48.85683" lon="2.35424">
        <ele>97.5</ele>
        <time>2015-06-08T21:07:26.614Z</time>
      </trkpt>
      <trkpt lat="48.85684" lon="2.35414">
        <ele>97.3</ele>
        <time>2015-06-08T21:07:27.627Z</time>
      </trkpt>
      <trkpt lat="48.85686" lon="2.35404">
        <ele>97</ele>
        <time>2015-06-08T21:07:28.643Z</time>
      </trkpt>
      <trkpt lat="48.85688" lon="2.35394">
        <ele>97.2</ele>
        <time>2015-06-08T21:07:29.653Z</time>
      </trkpt>
      <trkpt lat="48.8569" lon="2.35384">
        <ele>97.1</ele>
        <time>2015-06-08T21:07:30.660Z</time>
      </trkpt>
      <trkpt lat="48.85692" lon="2.35374">
        <ele>96.7</ele>
        <time>2015-06-08T21:07:31.670Z</time>
      </trkpt>
      <trkpt lat="48.85695" lon="2.35365">
        <ele>96.4</ele>
        <time>2015-06-08T21:07:32.673Z</time>
      </trkpt>
      <trkpt lat="48.85698" lon="2.35356">
        <ele>96.2</ele>
        <time>2015-06-08T21:07:33.553Z</time>
      </trkpt>
      <trkpt lat="48.857" lon="2.35347">
        <ele>96.5</ele>
        <time>2015-06-08T21:07:34.588Z</time>
      </trkpt>
      <trkpt lat="48.85703" lon="2.35337">
        <ele>96.8</ele>
        <time>2015-06-08T21:07:35.588Z</time>
      </trkpt>
      <trkpt lat="48.85704" lon="2.35328">
        <ele>96.6</ele>
        <time>2015-06-08T21:07:36.603Z</time>
      </trkpt>
      <trkpt lat="48.85705" lon="2.35318">
        <ele>96.4</ele>
        <time>2015-06-08T21:07:37.646Z</time>
      </trkpt>
      <trkpt lat="48.85708" lon="2.35309">
        <ele>96.4</ele>
        <time>2015-06-08T21:07:38.690Z</time>
      </trkpt>
      <trkpt lat="48.8571" lon="2.35299">
        <ele>96.9</ele>
        <time>2015-06-08T21:07:39.597Z</time>
      </trkpt>
      <trkpt lat="48.85712" lon="2.3529">
        <ele>97.1</ele>
        <time>2015-06-08T21:07:40.603Z</time>
      </trkpt>
      <trkpt lat="48.85715" lon="2.35281">
        <ele>97</ele>
        <time>2015-06-08T21:07:41.614Z</time>
      </trkpt>
      <trkpt lat="48.85716" lon="2.35271">
        <ele>97.1</ele>
        <time>2015-06-08T21:07:42.650Z</time>
      </trkpt>
      <trkpt lat="48.85718" lon="2.35261">
        <ele>96.5</ele>
        <time>2015-06-08T21:07:43.684Z</time>
      </trkpt>
      <trkpt lat="48.8572" lon="2.3525">
        <ele>96</ele>
        <time>2015-06-08T21:07:44.683Z</time>
      </trkpt>
      <trkpt lat="48.85723" lon="2.3524">
        <ele>96.2</ele>
        <time>2015-06-08T21:07:45.689Z</time>
      </trkpt>
      <trkpt lat="48.85726" lon="2.35232">
        <ele>95.9</ele>
        <time>2015-06-08T21:07:46.699Z</time>
      </trkpt>
      <trkpt lat="48.85728" lon="2.35224">
        <ele>95.8</ele>
        <time>2015-06-08T21:07:47.606Z</time>
      </trkpt>
      <trkpt lat="48.8573" lon="2.35215">
        <ele>96</ele>
        <time>2015-06-08T21:07:48.619Z</time>
      </trkpt>
      <trkpt lat="48.85732" lon="2.35207">
        <ele>96.2</ele>
        <time>2015-06-08T21:07:49.634Z</time>
      </trkpt>
      <trkpt lat="48.85733" lon="2.352">
        <ele>96.8</ele>
        <time>2015-06-08T21:07:50.656Z</time>
      </trkpt>
      <trkpt lat="48.85735" lon="2.35192">
        <ele>96.9</ele>
        <time>2015-06-08T21:07:51.658Z</time>
      </trkpt>
      <trkpt lat="48.85736" lon="2.35185">
        <ele>97.2</ele>
        <time>2015-06-08T21:07:52.687Z</time>
      </trkpt>
      <trkpt lat="48.85738" lon="2.35179">
        <ele>97.4</ele>
        <time>2015-06-08T21:07:53.693Z</time>
      </trkpt>
      <trkpt lat="48.85741" lon="2.35168">
        <ele>96.9</ele>
        <time>2015-06-08T21:07:55.613Z</time>
      </trkpt>
      <trkpt lat="48.85742" lon="2.35164">
        <ele>96.8</ele>
        <time>2015-06-08T21:07:56.682Z</time>
      </trkpt>
      <trkpt lat="48.85742" lon="2.35152">
        <ele>97</ele>
        <time>2015-06-08T21:08:00.593Z</time>
      </trkpt>
      <trkpt lat="48.85742" lon="2.35149">
        <ele>97.4</ele>
        <time>2015-06-08T21:08:01.607Z</time>
      </trkpt>
      <trkpt lat="48.85745" lon="2.35144">
        <ele>97.3</ele>
        <time>2015-06-08T21:08:23.658Z</time>
      </trkpt>
      <trkpt lat="48.85748" lon="2.35136">
        <ele>95.2</ele>
        <time>2015-06-08T21:08:24.627Z</time>
      </trkpt>
      <trkpt lat="48.85752" lon="2.35128">
        <ele>95.6</ele>
        <time>2015-06-08T21:08:26.652Z</time>
      </trkpt>
      <trkpt lat="48.85753" lon="2.35124">
        <ele>95.6</ele>
        <time>2015-06-08T21:08:27.645Z</time>
      </trkpt>
      <trkpt lat="48.85757" lon="2.35113">
        <ele>95.1</ele>
        <time>2015-06-08T21:08:29.601Z</time>
      </trkpt>
      <trkpt lat="48.85756" lon="2.35107">
        <ele>96</ele>
        <time>2015-06-08T21:08:30.628Z</time>
      </trkpt>
      <trkpt lat="48.85758" lon="2.35093">
        <ele>97</ele>
        <time>2015-06-08T21:08:32.628Z</time>
      </trkpt>
      <trkpt lat="48.85759" lon="2.35087">
        <ele>97.3</ele>
        <time>2015-06-08T21:08:33.633Z</time>
      </trkpt>
      <trkpt lat="48.85761" lon="2.3508">
        <ele>97.4</ele>
        <time>2015-06-08T21:08:34.657Z</time>
      </trkpt>
      <trkpt lat="48.85764" lon="2.35074">
        <ele>97.5</ele>
        <time>2015-06-08T21:08:35.585Z</time>
      </trkpt>
      <trkpt lat="48.85766" lon="2.35068">
        <ele>97.5</ele>
        <time>2015-06-08T21:08:36.617Z</time>
      </trkpt>
      <trkpt lat="48.85768" lon="2.35062">
        <ele>97.6</ele>
        <time>2015-06-08T21:08:37.662Z</time>
      </trkpt>
      <trkpt lat="48.85772" lon="2.35052">
        <ele>97.5</ele>
        <time>2015-06-08T21:08:39.606Z</time>
      </trkpt>
      <trkpt lat="48.85773" lon="2.35047">
        <ele>97.4</ele>
        <time>2015-06-08T21:08:40.622Z</time>
      </trkpt>
      <trkpt lat="48.85776" lon="2.35035">
        <ele>97.6</ele>
        <time>2015-06-08T21:08:42.658Z</time>
      </trkpt>
      <trkpt lat="48.85778" lon="2.3503">
        <ele>97.6</ele>
        <time>2015-06-08T21:08:43.576Z</time>
      </trkpt>
      <trkpt lat="48.85779" lon="2.35017">
        <ele>97.4</ele>
        <time>2015-06-08T21:08:45.664Z</time>
      </trkpt>
      <trkpt lat="48.8578" lon="2.35011">
        <ele>97.5</ele>
        <time>2015-06-08T21:08:46.673Z</time>
      </trkpt>
      <trkpt lat="48.85783" lon="2.34998">
        <ele>98.3</ele>
        <time>2015-06-08T21:08:48.612Z</time>
      </trkpt>
      <trkpt lat="48.85784" lon="2.34992">
        <ele>98.3</ele>
        <time>2015-06-08T21:08:49.651Z</time>
      </trkpt>
      <trkpt lat="48.85785" lon="2.34984">
        <ele>98.4</ele>
        <time>2015-06-08T21:08:50.677Z</time>
      </trkpt>
      <trkpt lat="48.85786" lon="2.34976">
        <ele>98.4</ele>
        <time>2015-06-08T21:08:51.679Z</time>
      </trkpt>
      <trkpt lat="48.85788" lon="2.34969">
        <ele>98.6</ele>
        <time>2015-06-08T21:08:52.587Z</time>
      </trkpt>
      <trkpt lat="48.8579" lon="2.34962">
        <ele>98.8</ele>
        <time>2015-06-08T21:08:53.593Z</time>
      </trkpt>
      <trkpt lat="48.85792" lon="2.34955">
        <ele>99.1</ele>
        <time>2015-06-08T21:08:54.603Z</time>
      </trkpt>
      <trkpt lat="48.85795" lon="2.3495">
        <ele>99.5</ele>
        <time>2015-06-08T21:08:55.614Z</time>
      </trkpt>
      <trkpt lat="48.85797" lon="2.34944">
        <ele>99.8</ele>
        <time>2015-06-08T21:08:56.629Z</time>
      </trkpt>
      <trkpt lat="48.858" lon="2.34937">
        <ele>100.1</ele>
        <time>2015-06-08T21:08:57.628Z</time>
      </trkpt>
      <trkpt lat="48.85801" lon="2.34929">
        <ele>100.1</ele>
        <time>2015-06-08T21:08:58.663Z</time>
      </trkpt>
      <trkpt lat="48.85803" lon="2.34921">
        <ele>100.4</ele>
        <time>2015-06-08T21:08:59.626Z</time>
      </trkpt>
      <trkpt lat="48.85806" lon="2.34913">
        <ele>100.6</ele>
        <time>2015-06-08T21:09:00.606Z</time>
      </trkpt>
      <trkpt lat="48.85808" lon="2.34906">
        <ele>100.6</ele>
        <time>2015-06-08T21:09:01.604Z</time>
      </trkpt>
      <trkpt lat="48.8581" lon="2.34899">
        <ele>100.8</ele>
        <time>2015-06-08T21:09:02.641Z</time>
      </trkpt>
      <trkpt lat="48.85812" lon="2.34893">
        <ele>101.1</ele>
        <time>2015-06-08T21:09:03.639Z</time>
      </trkpt>
      <trkpt lat="48.85814" lon="2.34886">
        <ele>101.4</ele>
        <time>2015-06-08T21:09:04.647Z</time>
      </trkpt>
      <trkpt lat="48.85817" lon="2.3488">
        <ele>101.9</ele>
        <time>2015-06-08T21:09:05.655Z</time>
      </trkpt>
      <trkpt lat="48.85821" lon="2.34874">
        <ele>102.2</ele>
        <time>2015-06-08T21:09:06.664Z</time>
      </trkpt>
      <trkpt lat="48.85825" lon="2.34867">
        <ele>102.6</ele>
        <time>2015-06-08T21:09:07.670Z</time>
      </trkpt>
      <trkpt lat="48.85828" lon="2.34861">
        <ele>102.7</ele>
        <time>2015-06-08T21:09:08.685Z</time>
      </trkpt>
      <trkpt lat="48.85831" lon="2.34855">
        <ele>103</ele>
        <time>2015-06-08T21:09:09.599Z</time>
      </trkpt>
      <trkpt lat="48.85835" lon="2.3485">
        <ele>103.2</ele>
        <time>2015-06-08T21:09:10.602Z</time>
      </trkpt>
      <trkpt lat="48.85838" lon="2.34844">
        <ele>103.3</ele>
        <time>2015-06-08T21:09:11.611Z</time>
      </trkpt>
      <trkpt lat="48.85842" lon="2.34833">
        <ele>102.7</ele>
        <time>2015-06-08T21:09:13.619Z</time>
      </trkpt>
      <trkpt lat="48.85845" lon="2.34826">
        <ele>102.6</ele>
        <time>2015-06-08T21:09:14.751Z</time>
      </trkpt>
      <trkpt lat="48.85847" lon="2.3482">
        <ele>102.3</ele>
        <time>2015-06-08T21:09:15.607Z</time>
      </trkpt>
      <trkpt lat="48.85849" lon="2.34814">
        <ele>102.4</ele>
        <time>2015-06-08T21:09:16.616Z</time>
      </trkpt>
      <trkpt lat="48.85854" lon="2.34803">
        <ele>102.2</ele>
        <time>2015-06-08T21:09:18.638Z</time>
      </trkpt>
      <trkpt lat="48.85856" lon="2.34796">
        <ele>102.2</ele>
        <time>2015-06-08T21:09:19.764Z</time>
      </trkpt>
      <trkpt lat="48.8586" lon="2.34785">
        <ele>101.7</ele>
        <time>2015-06-08T21:09:21.596Z</time>
      </trkpt>
      <trkpt lat="48.85864" lon="2.3478">
        <ele>100.1</ele>
        <time>2015-06-08T21:09:22.638Z</time>
      </trkpt>
      <trkpt lat="48.85867" lon="2.34773">
        <ele>98.7</ele>
        <time>2015-06-08T21:09:23.697Z</time>
      </trkpt>
      <trkpt lat="48.85869" lon="2.34767">
        <ele>98.1</ele>
        <time>2015-06-08T21:09:24.600Z</time>
      </trkpt>
      <trkpt lat="48.85872" lon="2.34761">
        <ele>96.7</ele>
        <time>2015-06-08T21:09:25.600Z</time>
      </trkpt>
      <trkpt lat="48.85873" lon="2.34755">
        <ele>96.5</ele>
        <time>2015-06-08T21:09:26.640Z</time>
      </trkpt>
      <trkpt lat="48.85877" lon="2.34744">
        <ele>96.4</ele>
        <time>2015-06-08T21:09:28.647Z</time>
      </trkpt>
      <trkpt lat="48.8588" lon="2.34742">
        <ele>96.2</ele>
        <time>2015-06-08T21:09:29.652Z</time>
      </trkpt>
      <trkpt lat="48.85886" lon="2.34737">
        <ele>97</ele>
        <time>2015-06-08T21:09:31.631Z</time>
      </trkpt>
      <trkpt lat="48.8589" lon="2.34735">
        <ele>97.1</ele>
        <time>2015-06-08T21:09:32.774Z</time>
      </trkpt>
      <trkpt lat="48.85895" lon="2.34734">
        <ele>96.9</ele>
        <time>2015-06-08T21:09:33.674Z</time>
      </trkpt>
      <trkpt lat="48.859" lon="2.34732">
        <ele>96.3</ele>
        <time>2015-06-08T21:09:34.623Z</time>
      </trkpt>
      <trkpt lat="48.85904" lon="2.3473">
        <ele>95.8</ele>
        <time>2015-06-08T21:09:35.670Z</time>
      </trkpt>
      <trkpt lat="48.85909" lon="2.34727">
        <ele>95</ele>
        <time>2015-06-08T21:09:36.693Z</time>
      </trkpt>
      <trkpt lat="48.85912" lon="2.34722">
        <ele>94.7</ele>
        <time>2015-06-08T21:09:37.687Z</time>
      </trkpt>
      <trkpt lat="48.85917" lon="2.34717">
        <ele>92.9</ele>
        <time>2015-06-08T21:09:38.692Z</time>
      </trkpt>
      <trkpt lat="48.85921" lon="2.34714">
        <ele>92.8</ele>
        <time>2015-06-08T21:09:39.617Z</time>
      </trkpt>
      <trkpt lat="48.85925" lon="2.34711">
        <ele>92.8</ele>
        <time>2015-06-08T21:09:40.602Z</time>
      </trkpt>
      <trkpt lat="48.85932" lon="2.34705">
        <ele>92.4</ele>
        <time>2015-06-08T21:09:42.631Z</time>
      </trkpt>
      <trkpt lat="48.85935" lon="2.34701">
        <ele>92</ele>
        <time>2015-06-08T21:09:43.637Z</time>
      </trkpt>
      <trkpt lat="48.85944" lon="2.34697">
        <ele>91.4</ele>
        <time>2015-06-08T21:09:46.686Z</time>
      </trkpt>
      <trkpt lat="48.85947" lon="2.34699">
        <ele>91.8</ele>
        <time>2015-06-08T21:09:47.609Z</time>
      </trkpt>
      <trkpt lat="48.85953" lon="2.34706">
        <ele>92.3</ele>
        <time>2015-06-08T21:09:49.618Z</time>
      </trkpt>
      <trkpt lat="48.85957" lon="2.3471">
        <ele>93</ele>
        <time>2015-06-08T21:09:50.718Z</time>
      </trkpt>
      <trkpt lat="48.85959" lon="2.34713">
        <ele>94.6</ele>
        <time>2015-06-08T21:11:06.482Z</time>
      </trkpt>
    </trkseg>
  </trk>
</gpx>